<?xml version="1.0" encoding="UTF-8" standalone="no" ?>
<gpx xmlns="http://www.topografix.com/GPX/1/1" xmlns:xsi="http://www.w3.org/2001/XMLSchema-instance" xsi:schemaLocation="http://www.topografix.com/GPX/1/1 http://www.topografix.com/GPX/1/1/gpx.xsd" version="1.1" creator="VisuGPX - https://www.visugpx.com">
  <metadata>
    <name>Cyclo-Canoë_1</name>
    <desc><![CDATA[Cyclo Canoë - Gaillac-StAntoninNobleVal]]></desc>
  </metadata>
  <trk>
    <name><![CDATA[Gaillac - St Antonin Noble Val]]></name>
    <trkseg>
      <trkpt lat="43.90613" lon="1.89506">
        <ele>145</ele>
        <time>2016-08-27T08:13:18Z</time>
      </trkpt>
      <trkpt lat="43.9061" lon="1.89509">
        <ele>145</ele>
        <time>2016-08-27T08:13:21Z</time>
      </trkpt>
      <trkpt lat="43.90608" lon="1.89511">
        <ele>145</ele>
        <time>2016-08-27T08:13:23Z</time>
      </trkpt>
      <trkpt lat="43.90606" lon="1.89515">
        <ele>145</ele>
        <time>2016-08-27T08:13:26Z</time>
      </trkpt>
      <trkpt lat="43.90603" lon="1.89517">
        <ele>145</ele>
        <time>2016-08-27T08:13:27Z</time>
      </trkpt>
      <trkpt lat="43.90597" lon="1.89517">
        <ele>145</ele>
        <time>2016-08-27T08:13:29Z</time>
      </trkpt>
      <trkpt lat="43.90594" lon="1.89516">
        <ele>145</ele>
        <time>2016-08-27T08:13:30Z</time>
      </trkpt>
      <trkpt lat="43.90588" lon="1.89512">
        <ele>145</ele>
        <time>2016-08-27T08:13:32Z</time>
      </trkpt>
      <trkpt lat="43.90585" lon="1.89509">
        <ele>145</ele>
        <time>2016-08-27T08:13:33Z</time>
      </trkpt>
      <trkpt lat="43.90582" lon="1.89508">
        <ele>145</ele>
        <time>2016-08-27T08:13:34Z</time>
      </trkpt>
      <trkpt lat="43.90579" lon="1.89508">
        <ele>145</ele>
        <time>2016-08-27T08:13:35Z</time>
      </trkpt>
      <trkpt lat="43.90572" lon="1.89512">
        <ele>145</ele>
        <time>2016-08-27T08:13:36Z</time>
      </trkpt>
      <trkpt lat="43.90568" lon="1.89514">
        <ele>145</ele>
        <time>2016-08-27T08:13:37Z</time>
      </trkpt>
      <trkpt lat="43.90566" lon="1.89516">
        <ele>145</ele>
        <time>2016-08-27T08:13:38Z</time>
      </trkpt>
      <trkpt lat="43.90563" lon="1.8952">
        <ele>145</ele>
        <time>2016-08-27T08:13:39Z</time>
      </trkpt>
      <trkpt lat="43.90557" lon="1.89523">
        <ele>145</ele>
        <time>2016-08-27T08:13:40Z</time>
      </trkpt>
      <trkpt lat="43.90553" lon="1.89527">
        <ele>145</ele>
        <time>2016-08-27T08:13:41Z</time>
      </trkpt>
      <trkpt lat="43.90549" lon="1.8953">
        <ele>145</ele>
        <time>2016-08-27T08:13:42Z</time>
      </trkpt>
      <trkpt lat="43.90545" lon="1.89533">
        <ele>145</ele>
        <time>2016-08-27T08:13:43Z</time>
      </trkpt>
      <trkpt lat="43.90543" lon="1.89537">
        <ele>145</ele>
        <time>2016-08-27T08:13:44Z</time>
      </trkpt>
      <trkpt lat="43.90539" lon="1.89541">
        <ele>145</ele>
        <time>2016-08-27T08:13:45Z</time>
      </trkpt>
      <trkpt lat="43.90535" lon="1.89545">
        <ele>145</ele>
        <time>2016-08-27T08:13:46Z</time>
      </trkpt>
      <trkpt lat="43.90531" lon="1.89549">
        <ele>145</ele>
        <time>2016-08-27T08:13:47Z</time>
      </trkpt>
      <trkpt lat="43.90527" lon="1.89553">
        <ele>145</ele>
        <time>2016-08-27T08:13:48Z</time>
      </trkpt>
      <trkpt lat="43.90522" lon="1.89557">
        <ele>145</ele>
        <time>2016-08-27T08:13:49Z</time>
      </trkpt>
      <trkpt lat="43.9052" lon="1.89561">
        <ele>145</ele>
        <time>2016-08-27T08:13:50Z</time>
      </trkpt>
      <trkpt lat="43.90517" lon="1.89564">
        <ele>145.1</ele>
        <time>2016-08-27T08:13:51Z</time>
      </trkpt>
      <trkpt lat="43.90513" lon="1.89568">
        <ele>145.1</ele>
        <time>2016-08-27T08:13:52Z</time>
      </trkpt>
      <trkpt lat="43.9051" lon="1.89571">
        <ele>145.1</ele>
        <time>2016-08-27T08:13:53Z</time>
      </trkpt>
      <trkpt lat="43.90506" lon="1.89574">
        <ele>145.1</ele>
        <time>2016-08-27T08:13:54Z</time>
      </trkpt>
      <trkpt lat="43.90502" lon="1.89576">
        <ele>145.1</ele>
        <time>2016-08-27T08:13:55Z</time>
      </trkpt>
      <trkpt lat="43.90499" lon="1.89578">
        <ele>145.1</ele>
        <time>2016-08-27T08:13:56Z</time>
      </trkpt>
      <trkpt lat="43.90496" lon="1.8958">
        <ele>145.2</ele>
        <time>2016-08-27T08:13:57Z</time>
      </trkpt>
      <trkpt lat="43.9049" lon="1.89578">
        <ele>145.1</ele>
        <time>2016-08-27T08:13:58Z</time>
      </trkpt>
      <trkpt lat="43.90486" lon="1.89576">
        <ele>145</ele>
        <time>2016-08-27T08:13:59Z</time>
      </trkpt>
      <trkpt lat="43.90481" lon="1.89576">
        <ele>145</ele>
        <time>2016-08-27T08:14:00Z</time>
      </trkpt>
      <trkpt lat="43.90479" lon="1.89579">
        <ele>145</ele>
        <time>2016-08-27T08:14:01Z</time>
      </trkpt>
      <trkpt lat="43.90478" lon="1.89583">
        <ele>145.1</ele>
        <time>2016-08-27T08:14:02Z</time>
      </trkpt>
      <trkpt lat="43.90476" lon="1.89588">
        <ele>145.2</ele>
        <time>2016-08-27T08:14:03Z</time>
      </trkpt>
      <trkpt lat="43.90472" lon="1.89592">
        <ele>145.3</ele>
        <time>2016-08-27T08:14:05Z</time>
      </trkpt>
      <trkpt lat="43.90469" lon="1.89595">
        <ele>145.3</ele>
        <time>2016-08-27T08:14:06Z</time>
      </trkpt>
      <trkpt lat="43.90466" lon="1.896">
        <ele>145.4</ele>
        <time>2016-08-27T08:14:07Z</time>
      </trkpt>
      <trkpt lat="43.90458" lon="1.89611">
        <ele>145.7</ele>
        <time>2016-08-27T08:14:08Z</time>
      </trkpt>
      <trkpt lat="43.90454" lon="1.89616">
        <ele>145.7</ele>
        <time>2016-08-27T08:14:09Z</time>
      </trkpt>
      <trkpt lat="43.90449" lon="1.89621">
        <ele>145.8</ele>
        <time>2016-08-27T08:14:10Z</time>
      </trkpt>
      <trkpt lat="43.90445" lon="1.89627">
        <ele>145.8</ele>
        <time>2016-08-27T08:14:11Z</time>
      </trkpt>
      <trkpt lat="43.90441" lon="1.89631">
        <ele>145.6</ele>
        <time>2016-08-27T08:14:12Z</time>
      </trkpt>
      <trkpt lat="43.90436" lon="1.89636">
        <ele>145.3</ele>
        <time>2016-08-27T08:14:13Z</time>
      </trkpt>
      <trkpt lat="43.90431" lon="1.89642">
        <ele>145.1</ele>
        <time>2016-08-27T08:14:14Z</time>
      </trkpt>
      <trkpt lat="43.90426" lon="1.89646">
        <ele>145</ele>
        <time>2016-08-27T08:14:15Z</time>
      </trkpt>
      <trkpt lat="43.90422" lon="1.89651">
        <ele>144.9</ele>
        <time>2016-08-27T08:14:16Z</time>
      </trkpt>
      <trkpt lat="43.90418" lon="1.89655">
        <ele>144.8</ele>
        <time>2016-08-27T08:14:17Z</time>
      </trkpt>
      <trkpt lat="43.90414" lon="1.89659">
        <ele>144.7</ele>
        <time>2016-08-27T08:14:18Z</time>
      </trkpt>
      <trkpt lat="43.90411" lon="1.89665">
        <ele>144.6</ele>
        <time>2016-08-27T08:14:19Z</time>
      </trkpt>
      <trkpt lat="43.90406" lon="1.89669">
        <ele>144.6</ele>
        <time>2016-08-27T08:14:20Z</time>
      </trkpt>
      <trkpt lat="43.90399" lon="1.89674">
        <ele>144.6</ele>
        <time>2016-08-27T08:14:21Z</time>
      </trkpt>
      <trkpt lat="43.90396" lon="1.89679">
        <ele>144.6</ele>
        <time>2016-08-27T08:14:22Z</time>
      </trkpt>
      <trkpt lat="43.90391" lon="1.89683">
        <ele>144.6</ele>
        <time>2016-08-27T08:14:23Z</time>
      </trkpt>
      <trkpt lat="43.90387" lon="1.89687">
        <ele>144.7</ele>
        <time>2016-08-27T08:14:24Z</time>
      </trkpt>
      <trkpt lat="43.90383" lon="1.89691">
        <ele>144.8</ele>
        <time>2016-08-27T08:14:25Z</time>
      </trkpt>
      <trkpt lat="43.9038" lon="1.89694">
        <ele>144.9</ele>
        <time>2016-08-27T08:14:26Z</time>
      </trkpt>
      <trkpt lat="43.90375" lon="1.897">
        <ele>145</ele>
        <time>2016-08-27T08:14:28Z</time>
      </trkpt>
      <trkpt lat="43.90372" lon="1.89702">
        <ele>145</ele>
        <time>2016-08-27T08:14:29Z</time>
      </trkpt>
      <trkpt lat="43.90369" lon="1.89705">
        <ele>145.1</ele>
        <time>2016-08-27T08:14:30Z</time>
      </trkpt>
      <trkpt lat="43.90367" lon="1.89709">
        <ele>145.1</ele>
        <time>2016-08-27T08:14:31Z</time>
      </trkpt>
      <trkpt lat="43.90366" lon="1.89713">
        <ele>145.1</ele>
        <time>2016-08-27T08:14:32Z</time>
      </trkpt>
      <trkpt lat="43.90366" lon="1.89719">
        <ele>145.1</ele>
        <time>2016-08-27T08:14:33Z</time>
      </trkpt>
      <trkpt lat="43.90369" lon="1.89724">
        <ele>145.1</ele>
        <time>2016-08-27T08:14:34Z</time>
      </trkpt>
      <trkpt lat="43.90372" lon="1.89727">
        <ele>145</ele>
        <time>2016-08-27T08:14:35Z</time>
      </trkpt>
      <trkpt lat="43.90375" lon="1.89729">
        <ele>145</ele>
        <time>2016-08-27T08:14:36Z</time>
      </trkpt>
      <trkpt lat="43.90379" lon="1.89731">
        <ele>144.9</ele>
        <time>2016-08-27T08:14:37Z</time>
      </trkpt>
      <trkpt lat="43.90383" lon="1.89733">
        <ele>144.7</ele>
        <time>2016-08-27T08:14:38Z</time>
      </trkpt>
      <trkpt lat="43.90387" lon="1.89733">
        <ele>144.6</ele>
        <time>2016-08-27T08:14:39Z</time>
      </trkpt>
      <trkpt lat="43.90391" lon="1.89735">
        <ele>144.5</ele>
        <time>2016-08-27T08:14:40Z</time>
      </trkpt>
      <trkpt lat="43.90394" lon="1.89736">
        <ele>144.4</ele>
        <time>2016-08-27T08:14:41Z</time>
      </trkpt>
      <trkpt lat="43.90398" lon="1.89738">
        <ele>144.3</ele>
        <time>2016-08-27T08:14:42Z</time>
      </trkpt>
      <trkpt lat="43.90402" lon="1.8974">
        <ele>144.2</ele>
        <time>2016-08-27T08:14:43Z</time>
      </trkpt>
      <trkpt lat="43.90405" lon="1.89742">
        <ele>144.1</ele>
        <time>2016-08-27T08:14:44Z</time>
      </trkpt>
      <trkpt lat="43.90409" lon="1.89745">
        <ele>144</ele>
        <time>2016-08-27T08:14:45Z</time>
      </trkpt>
      <trkpt lat="43.90412" lon="1.89747">
        <ele>143.9</ele>
        <time>2016-08-27T08:14:46Z</time>
      </trkpt>
      <trkpt lat="43.90415" lon="1.89749">
        <ele>143.8</ele>
        <time>2016-08-27T08:14:47Z</time>
      </trkpt>
      <trkpt lat="43.90419" lon="1.89751">
        <ele>143.7</ele>
        <time>2016-08-27T08:14:48Z</time>
      </trkpt>
      <trkpt lat="43.90422" lon="1.89754">
        <ele>143.6</ele>
        <time>2016-08-27T08:14:49Z</time>
      </trkpt>
      <trkpt lat="43.90426" lon="1.89756">
        <ele>143.5</ele>
        <time>2016-08-27T08:14:50Z</time>
      </trkpt>
      <trkpt lat="43.9043" lon="1.89759">
        <ele>143.4</ele>
        <time>2016-08-27T08:14:51Z</time>
      </trkpt>
      <trkpt lat="43.90437" lon="1.89763">
        <ele>143.3</ele>
        <time>2016-08-27T08:14:52Z</time>
      </trkpt>
      <trkpt lat="43.90442" lon="1.89764">
        <ele>143.1</ele>
        <time>2016-08-27T08:14:53Z</time>
      </trkpt>
      <trkpt lat="43.90445" lon="1.89767">
        <ele>143.1</ele>
        <time>2016-08-27T08:14:54Z</time>
      </trkpt>
      <trkpt lat="43.90451" lon="1.89769">
        <ele>142.9</ele>
        <time>2016-08-27T08:14:55Z</time>
      </trkpt>
      <trkpt lat="43.90457" lon="1.89772">
        <ele>142.8</ele>
        <time>2016-08-27T08:14:56Z</time>
      </trkpt>
      <trkpt lat="43.90461" lon="1.89775">
        <ele>142.8</ele>
        <time>2016-08-27T08:14:57Z</time>
      </trkpt>
      <trkpt lat="43.90465" lon="1.89777">
        <ele>142.8</ele>
        <time>2016-08-27T08:14:58Z</time>
      </trkpt>
      <trkpt lat="43.90473" lon="1.89782">
        <ele>142.8</ele>
        <time>2016-08-27T08:14:59Z</time>
      </trkpt>
      <trkpt lat="43.90479" lon="1.89786">
        <ele>142.7</ele>
        <time>2016-08-27T08:15:00Z</time>
      </trkpt>
      <trkpt lat="43.90484" lon="1.8979">
        <ele>142.7</ele>
        <time>2016-08-27T08:15:01Z</time>
      </trkpt>
      <trkpt lat="43.90488" lon="1.89793">
        <ele>142.7</ele>
        <time>2016-08-27T08:15:02Z</time>
      </trkpt>
      <trkpt lat="43.90489" lon="1.89799">
        <ele>142.8</ele>
        <time>2016-08-27T08:15:03Z</time>
      </trkpt>
      <trkpt lat="43.90493" lon="1.89803">
        <ele>142.9</ele>
        <time>2016-08-27T08:15:04Z</time>
      </trkpt>
      <trkpt lat="43.90496" lon="1.89806">
        <ele>142.9</ele>
        <time>2016-08-27T08:15:05Z</time>
      </trkpt>
      <trkpt lat="43.90501" lon="1.89807">
        <ele>142.8</ele>
        <time>2016-08-27T08:15:06Z</time>
      </trkpt>
      <trkpt lat="43.90505" lon="1.89806">
        <ele>142.8</ele>
        <time>2016-08-27T08:15:07Z</time>
      </trkpt>
      <trkpt lat="43.9051" lon="1.89805">
        <ele>142.7</ele>
        <time>2016-08-27T08:15:08Z</time>
      </trkpt>
      <trkpt lat="43.90513" lon="1.89807">
        <ele>142.7</ele>
        <time>2016-08-27T08:15:09Z</time>
      </trkpt>
      <trkpt lat="43.90518" lon="1.89812">
        <ele>142.8</ele>
        <time>2016-08-27T08:15:11Z</time>
      </trkpt>
      <trkpt lat="43.90522" lon="1.89813">
        <ele>142.7</ele>
        <time>2016-08-27T08:15:12Z</time>
      </trkpt>
      <trkpt lat="43.90526" lon="1.89815">
        <ele>142.7</ele>
        <time>2016-08-27T08:15:13Z</time>
      </trkpt>
      <trkpt lat="43.90529" lon="1.89816">
        <ele>142.7</ele>
        <time>2016-08-27T08:15:14Z</time>
      </trkpt>
      <trkpt lat="43.90535" lon="1.89818">
        <ele>142.7</ele>
        <time>2016-08-27T08:15:15Z</time>
      </trkpt>
      <trkpt lat="43.9054" lon="1.89821">
        <ele>142.7</ele>
        <time>2016-08-27T08:15:16Z</time>
      </trkpt>
      <trkpt lat="43.90543" lon="1.89824">
        <ele>142.8</ele>
        <time>2016-08-27T08:15:17Z</time>
      </trkpt>
      <trkpt lat="43.90545" lon="1.89828">
        <ele>142.9</ele>
        <time>2016-08-27T08:15:18Z</time>
      </trkpt>
      <trkpt lat="43.90549" lon="1.8983">
        <ele>142.9</ele>
        <time>2016-08-27T08:15:19Z</time>
      </trkpt>
      <trkpt lat="43.90552" lon="1.89833">
        <ele>143</ele>
        <time>2016-08-27T08:15:20Z</time>
      </trkpt>
      <trkpt lat="43.90558" lon="1.89832">
        <ele>143</ele>
        <time>2016-08-27T08:15:21Z</time>
      </trkpt>
      <trkpt lat="43.9056" lon="1.89835">
        <ele>143</ele>
        <time>2016-08-27T08:15:22Z</time>
      </trkpt>
      <trkpt lat="43.90563" lon="1.89837">
        <ele>143.1</ele>
        <time>2016-08-27T08:15:23Z</time>
      </trkpt>
      <trkpt lat="43.9057" lon="1.89839">
        <ele>143.1</ele>
        <time>2016-08-27T08:15:24Z</time>
      </trkpt>
      <trkpt lat="43.90579" lon="1.89841">
        <ele>143.2</ele>
        <time>2016-08-27T08:15:25Z</time>
      </trkpt>
      <trkpt lat="43.90582" lon="1.89844">
        <ele>143.3</ele>
        <time>2016-08-27T08:15:26Z</time>
      </trkpt>
      <trkpt lat="43.90584" lon="1.89847">
        <ele>143.3</ele>
        <time>2016-08-27T08:15:27Z</time>
      </trkpt>
      <trkpt lat="43.90588" lon="1.89849">
        <ele>143.4</ele>
        <time>2016-08-27T08:15:28Z</time>
      </trkpt>
      <trkpt lat="43.90591" lon="1.89852">
        <ele>143.4</ele>
        <time>2016-08-27T08:15:29Z</time>
      </trkpt>
      <trkpt lat="43.90595" lon="1.89854">
        <ele>143.5</ele>
        <time>2016-08-27T08:15:30Z</time>
      </trkpt>
      <trkpt lat="43.90603" lon="1.89856">
        <ele>143.5</ele>
        <time>2016-08-27T08:15:31Z</time>
      </trkpt>
      <trkpt lat="43.90608" lon="1.89859">
        <ele>143.6</ele>
        <time>2016-08-27T08:15:32Z</time>
      </trkpt>
      <trkpt lat="43.90611" lon="1.89861">
        <ele>143.7</ele>
        <time>2016-08-27T08:15:33Z</time>
      </trkpt>
      <trkpt lat="43.90615" lon="1.89864">
        <ele>143.7</ele>
        <time>2016-08-27T08:15:34Z</time>
      </trkpt>
      <trkpt lat="43.90622" lon="1.89868">
        <ele>143.8</ele>
        <time>2016-08-27T08:15:36Z</time>
      </trkpt>
      <trkpt lat="43.90625" lon="1.8987">
        <ele>143.9</ele>
        <time>2016-08-27T08:15:37Z</time>
      </trkpt>
      <trkpt lat="43.90629" lon="1.89873">
        <ele>143.9</ele>
        <time>2016-08-27T08:15:38Z</time>
      </trkpt>
      <trkpt lat="43.90634" lon="1.89874">
        <ele>144</ele>
        <time>2016-08-27T08:15:39Z</time>
      </trkpt>
      <trkpt lat="43.90637" lon="1.89878">
        <ele>144</ele>
        <time>2016-08-27T08:15:40Z</time>
      </trkpt>
      <trkpt lat="43.90639" lon="1.8988">
        <ele>144.1</ele>
        <time>2016-08-27T08:15:41Z</time>
      </trkpt>
      <trkpt lat="43.90644" lon="1.89882">
        <ele>144.1</ele>
        <time>2016-08-27T08:15:42Z</time>
      </trkpt>
      <trkpt lat="43.9065" lon="1.89886">
        <ele>144.2</ele>
        <time>2016-08-27T08:15:43Z</time>
      </trkpt>
      <trkpt lat="43.90654" lon="1.89889">
        <ele>144.2</ele>
        <time>2016-08-27T08:15:44Z</time>
      </trkpt>
      <trkpt lat="43.90659" lon="1.89894">
        <ele>144.3</ele>
        <time>2016-08-27T08:15:46Z</time>
      </trkpt>
      <trkpt lat="43.90665" lon="1.89897">
        <ele>144.4</ele>
        <time>2016-08-27T08:15:47Z</time>
      </trkpt>
      <trkpt lat="43.9067" lon="1.899">
        <ele>144.5</ele>
        <time>2016-08-27T08:15:48Z</time>
      </trkpt>
      <trkpt lat="43.90674" lon="1.89901">
        <ele>144.5</ele>
        <time>2016-08-27T08:15:49Z</time>
      </trkpt>
      <trkpt lat="43.90679" lon="1.89904">
        <ele>144.6</ele>
        <time>2016-08-27T08:15:51Z</time>
      </trkpt>
      <trkpt lat="43.90683" lon="1.89907">
        <ele>144.6</ele>
        <time>2016-08-27T08:15:52Z</time>
      </trkpt>
      <trkpt lat="43.90688" lon="1.89909">
        <ele>144.7</ele>
        <time>2016-08-27T08:15:53Z</time>
      </trkpt>
      <trkpt lat="43.90694" lon="1.8991">
        <ele>144.8</ele>
        <time>2016-08-27T08:15:54Z</time>
      </trkpt>
      <trkpt lat="43.90698" lon="1.89912">
        <ele>144.8</ele>
        <time>2016-08-27T08:15:55Z</time>
      </trkpt>
      <trkpt lat="43.90705" lon="1.89914">
        <ele>144.9</ele>
        <time>2016-08-27T08:15:56Z</time>
      </trkpt>
      <trkpt lat="43.90709" lon="1.89916">
        <ele>145</ele>
        <time>2016-08-27T08:15:57Z</time>
      </trkpt>
      <trkpt lat="43.90714" lon="1.89919">
        <ele>144.9</ele>
        <time>2016-08-27T08:15:58Z</time>
      </trkpt>
      <trkpt lat="43.90721" lon="1.89921">
        <ele>144.7</ele>
        <time>2016-08-27T08:15:59Z</time>
      </trkpt>
      <trkpt lat="43.90726" lon="1.89922">
        <ele>144.6</ele>
        <time>2016-08-27T08:16:00Z</time>
      </trkpt>
      <trkpt lat="43.90731" lon="1.89923">
        <ele>144.5</ele>
        <time>2016-08-27T08:16:01Z</time>
      </trkpt>
      <trkpt lat="43.90736" lon="1.89926">
        <ele>144.5</ele>
        <time>2016-08-27T08:16:02Z</time>
      </trkpt>
      <trkpt lat="43.90742" lon="1.89928">
        <ele>144.4</ele>
        <time>2016-08-27T08:16:03Z</time>
      </trkpt>
      <trkpt lat="43.90748" lon="1.8993">
        <ele>144.4</ele>
        <time>2016-08-27T08:16:04Z</time>
      </trkpt>
      <trkpt lat="43.90754" lon="1.89933">
        <ele>144.3</ele>
        <time>2016-08-27T08:16:05Z</time>
      </trkpt>
      <trkpt lat="43.90758" lon="1.89936">
        <ele>144.4</ele>
        <time>2016-08-27T08:16:06Z</time>
      </trkpt>
      <trkpt lat="43.90763" lon="1.89939">
        <ele>144.4</ele>
        <time>2016-08-27T08:16:07Z</time>
      </trkpt>
      <trkpt lat="43.90768" lon="1.89942">
        <ele>144.5</ele>
        <time>2016-08-27T08:16:08Z</time>
      </trkpt>
      <trkpt lat="43.90773" lon="1.89945">
        <ele>144.5</ele>
        <time>2016-08-27T08:16:09Z</time>
      </trkpt>
      <trkpt lat="43.90777" lon="1.89949">
        <ele>144.6</ele>
        <time>2016-08-27T08:16:10Z</time>
      </trkpt>
      <trkpt lat="43.90783" lon="1.89951">
        <ele>144.7</ele>
        <time>2016-08-27T08:16:11Z</time>
      </trkpt>
      <trkpt lat="43.90786" lon="1.89954">
        <ele>144.8</ele>
        <time>2016-08-27T08:16:12Z</time>
      </trkpt>
      <trkpt lat="43.9079" lon="1.89956">
        <ele>144.9</ele>
        <time>2016-08-27T08:16:13Z</time>
      </trkpt>
      <trkpt lat="43.90795" lon="1.89959">
        <ele>144.9</ele>
        <time>2016-08-27T08:16:14Z</time>
      </trkpt>
      <trkpt lat="43.90799" lon="1.89961">
        <ele>144.8</ele>
        <time>2016-08-27T08:16:15Z</time>
      </trkpt>
      <trkpt lat="43.90804" lon="1.89964">
        <ele>144.6</ele>
        <time>2016-08-27T08:16:16Z</time>
      </trkpt>
      <trkpt lat="43.90808" lon="1.89967">
        <ele>144.4</ele>
        <time>2016-08-27T08:16:17Z</time>
      </trkpt>
      <trkpt lat="43.90814" lon="1.89969">
        <ele>144.3</ele>
        <time>2016-08-27T08:16:18Z</time>
      </trkpt>
      <trkpt lat="43.90818" lon="1.89971">
        <ele>144.1</ele>
        <time>2016-08-27T08:16:19Z</time>
      </trkpt>
      <trkpt lat="43.90822" lon="1.89978">
        <ele>144</ele>
        <time>2016-08-27T08:16:20Z</time>
      </trkpt>
      <trkpt lat="43.90828" lon="1.8998">
        <ele>143.8</ele>
        <time>2016-08-27T08:16:21Z</time>
      </trkpt>
      <trkpt lat="43.90832" lon="1.89984">
        <ele>143.7</ele>
        <time>2016-08-27T08:16:22Z</time>
      </trkpt>
      <trkpt lat="43.90836" lon="1.8999">
        <ele>143.6</ele>
        <time>2016-08-27T08:16:23Z</time>
      </trkpt>
      <trkpt lat="43.9084" lon="1.89994">
        <ele>143.5</ele>
        <time>2016-08-27T08:16:24Z</time>
      </trkpt>
      <trkpt lat="43.90842" lon="1.9">
        <ele>143.4</ele>
        <time>2016-08-27T08:16:25Z</time>
      </trkpt>
      <trkpt lat="43.90845" lon="1.90004">
        <ele>143.3</ele>
        <time>2016-08-27T08:16:26Z</time>
      </trkpt>
      <trkpt lat="43.9085" lon="1.90009">
        <ele>143.2</ele>
        <time>2016-08-27T08:16:27Z</time>
      </trkpt>
      <trkpt lat="43.90853" lon="1.90012">
        <ele>143.2</ele>
        <time>2016-08-27T08:16:28Z</time>
      </trkpt>
      <trkpt lat="43.90857" lon="1.90016">
        <ele>143.1</ele>
        <time>2016-08-27T08:16:29Z</time>
      </trkpt>
      <trkpt lat="43.90862" lon="1.9002">
        <ele>143.1</ele>
        <time>2016-08-27T08:16:30Z</time>
      </trkpt>
      <trkpt lat="43.90864" lon="1.90025">
        <ele>143.1</ele>
        <time>2016-08-27T08:16:31Z</time>
      </trkpt>
      <trkpt lat="43.90868" lon="1.90029">
        <ele>143</ele>
        <time>2016-08-27T08:16:32Z</time>
      </trkpt>
      <trkpt lat="43.90874" lon="1.90033">
        <ele>143</ele>
        <time>2016-08-27T08:16:33Z</time>
      </trkpt>
      <trkpt lat="43.9088" lon="1.90038">
        <ele>143</ele>
        <time>2016-08-27T08:16:34Z</time>
      </trkpt>
      <trkpt lat="43.90884" lon="1.90042">
        <ele>143</ele>
        <time>2016-08-27T08:16:35Z</time>
      </trkpt>
      <trkpt lat="43.9089" lon="1.90044">
        <ele>143.1</ele>
        <time>2016-08-27T08:16:36Z</time>
      </trkpt>
      <trkpt lat="43.90894" lon="1.90047">
        <ele>143.2</ele>
        <time>2016-08-27T08:16:37Z</time>
      </trkpt>
      <trkpt lat="43.909" lon="1.90045">
        <ele>143.1</ele>
        <time>2016-08-27T08:16:38Z</time>
      </trkpt>
      <trkpt lat="43.90905" lon="1.90043">
        <ele>143</ele>
        <time>2016-08-27T08:16:39Z</time>
      </trkpt>
      <trkpt lat="43.9091" lon="1.90043">
        <ele>143</ele>
        <time>2016-08-27T08:16:40Z</time>
      </trkpt>
      <trkpt lat="43.90915" lon="1.90043">
        <ele>143</ele>
        <time>2016-08-27T08:16:41Z</time>
      </trkpt>
      <trkpt lat="43.90918" lon="1.90043">
        <ele>143.1</ele>
        <time>2016-08-27T08:16:42Z</time>
      </trkpt>
      <trkpt lat="43.90923" lon="1.90043">
        <ele>143</ele>
        <time>2016-08-27T08:16:43Z</time>
      </trkpt>
      <trkpt lat="43.90928" lon="1.90045">
        <ele>143.1</ele>
        <time>2016-08-27T08:16:44Z</time>
      </trkpt>
      <trkpt lat="43.90933" lon="1.90047">
        <ele>143.1</ele>
        <time>2016-08-27T08:16:45Z</time>
      </trkpt>
      <trkpt lat="43.90941" lon="1.9005">
        <ele>143.2</ele>
        <time>2016-08-27T08:16:46Z</time>
      </trkpt>
      <trkpt lat="43.90947" lon="1.90054">
        <ele>143.3</ele>
        <time>2016-08-27T08:16:47Z</time>
      </trkpt>
      <trkpt lat="43.90953" lon="1.90056">
        <ele>143.3</ele>
        <time>2016-08-27T08:16:48Z</time>
      </trkpt>
      <trkpt lat="43.90958" lon="1.90059">
        <ele>143.4</ele>
        <time>2016-08-27T08:16:49Z</time>
      </trkpt>
      <trkpt lat="43.90963" lon="1.90062">
        <ele>143.5</ele>
        <time>2016-08-27T08:16:50Z</time>
      </trkpt>
      <trkpt lat="43.90969" lon="1.90065">
        <ele>143.6</ele>
        <time>2016-08-27T08:16:51Z</time>
      </trkpt>
      <trkpt lat="43.90972" lon="1.90067">
        <ele>143.7</ele>
        <time>2016-08-27T08:16:52Z</time>
      </trkpt>
      <trkpt lat="43.90974" lon="1.90068">
        <ele>143.7</ele>
        <time>2016-08-27T08:16:53Z</time>
      </trkpt>
      <trkpt lat="43.90976" lon="1.90073">
        <ele>143.8</ele>
        <time>2016-08-27T08:16:54Z</time>
      </trkpt>
      <trkpt lat="43.90996" lon="1.9007">
        <ele>143.8</ele>
        <time>2016-08-27T08:17:00Z</time>
      </trkpt>
      <trkpt lat="43.90999" lon="1.90064">
        <ele>143.8</ele>
        <time>2016-08-27T08:17:01Z</time>
      </trkpt>
      <trkpt lat="43.91003" lon="1.90057">
        <ele>143.7</ele>
        <time>2016-08-27T08:17:02Z</time>
      </trkpt>
      <trkpt lat="43.91007" lon="1.90052">
        <ele>143.7</ele>
        <time>2016-08-27T08:17:03Z</time>
      </trkpt>
      <trkpt lat="43.9101" lon="1.90047">
        <ele>143.7</ele>
        <time>2016-08-27T08:17:04Z</time>
      </trkpt>
      <trkpt lat="43.91015" lon="1.90043">
        <ele>143.7</ele>
        <time>2016-08-27T08:17:05Z</time>
      </trkpt>
      <trkpt lat="43.91019" lon="1.90041">
        <ele>143.7</ele>
        <time>2016-08-27T08:17:06Z</time>
      </trkpt>
      <trkpt lat="43.91024" lon="1.90041">
        <ele>143.8</ele>
        <time>2016-08-27T08:17:07Z</time>
      </trkpt>
      <trkpt lat="43.91028" lon="1.90043">
        <ele>143.8</ele>
        <time>2016-08-27T08:17:08Z</time>
      </trkpt>
      <trkpt lat="43.91034" lon="1.90044">
        <ele>143.9</ele>
        <time>2016-08-27T08:17:09Z</time>
      </trkpt>
      <trkpt lat="43.91038" lon="1.90044">
        <ele>144</ele>
        <time>2016-08-27T08:17:10Z</time>
      </trkpt>
      <trkpt lat="43.91042" lon="1.90043">
        <ele>144</ele>
        <time>2016-08-27T08:17:11Z</time>
      </trkpt>
      <trkpt lat="43.91048" lon="1.90042">
        <ele>143.9</ele>
        <time>2016-08-27T08:17:12Z</time>
      </trkpt>
      <trkpt lat="43.91053" lon="1.90041">
        <ele>143.9</ele>
        <time>2016-08-27T08:17:13Z</time>
      </trkpt>
      <trkpt lat="43.91058" lon="1.90039">
        <ele>143.8</ele>
        <time>2016-08-27T08:17:14Z</time>
      </trkpt>
      <trkpt lat="43.91063" lon="1.90037">
        <ele>143.7</ele>
        <time>2016-08-27T08:17:15Z</time>
      </trkpt>
      <trkpt lat="43.91069" lon="1.90035">
        <ele>143.6</ele>
        <time>2016-08-27T08:17:16Z</time>
      </trkpt>
      <trkpt lat="43.91074" lon="1.90033">
        <ele>143.5</ele>
        <time>2016-08-27T08:17:17Z</time>
      </trkpt>
      <trkpt lat="43.91079" lon="1.90032">
        <ele>143.4</ele>
        <time>2016-08-27T08:17:18Z</time>
      </trkpt>
      <trkpt lat="43.91084" lon="1.9003">
        <ele>143.3</ele>
        <time>2016-08-27T08:17:19Z</time>
      </trkpt>
      <trkpt lat="43.9109" lon="1.90028">
        <ele>143.2</ele>
        <time>2016-08-27T08:17:20Z</time>
      </trkpt>
      <trkpt lat="43.91095" lon="1.90026">
        <ele>143.1</ele>
        <time>2016-08-27T08:17:21Z</time>
      </trkpt>
      <trkpt lat="43.91099" lon="1.90024">
        <ele>143</ele>
        <time>2016-08-27T08:17:22Z</time>
      </trkpt>
      <trkpt lat="43.91105" lon="1.90021">
        <ele>142.8</ele>
        <time>2016-08-27T08:17:23Z</time>
      </trkpt>
      <trkpt lat="43.91108" lon="1.90019">
        <ele>142.7</ele>
        <time>2016-08-27T08:17:24Z</time>
      </trkpt>
      <trkpt lat="43.91112" lon="1.90016">
        <ele>142.6</ele>
        <time>2016-08-27T08:17:25Z</time>
      </trkpt>
      <trkpt lat="43.91116" lon="1.90015">
        <ele>142.5</ele>
        <time>2016-08-27T08:17:26Z</time>
      </trkpt>
      <trkpt lat="43.9112" lon="1.90014">
        <ele>142.4</ele>
        <time>2016-08-27T08:17:27Z</time>
      </trkpt>
      <trkpt lat="43.91125" lon="1.90011">
        <ele>142.3</ele>
        <time>2016-08-27T08:17:28Z</time>
      </trkpt>
      <trkpt lat="43.91129" lon="1.90008">
        <ele>142.3</ele>
        <time>2016-08-27T08:17:29Z</time>
      </trkpt>
      <trkpt lat="43.91133" lon="1.90006">
        <ele>142.4</ele>
        <time>2016-08-27T08:17:30Z</time>
      </trkpt>
      <trkpt lat="43.91149" lon="1.9">
        <ele>142.7</ele>
        <time>2016-08-27T08:17:33Z</time>
      </trkpt>
      <trkpt lat="43.91154" lon="1.89997">
        <ele>142.8</ele>
        <time>2016-08-27T08:17:34Z</time>
      </trkpt>
      <trkpt lat="43.91159" lon="1.89994">
        <ele>142.9</ele>
        <time>2016-08-27T08:17:35Z</time>
      </trkpt>
      <trkpt lat="43.91165" lon="1.89993">
        <ele>143.1</ele>
        <time>2016-08-27T08:17:36Z</time>
      </trkpt>
      <trkpt lat="43.9117" lon="1.8999">
        <ele>143.2</ele>
        <time>2016-08-27T08:17:37Z</time>
      </trkpt>
      <trkpt lat="43.91175" lon="1.89986">
        <ele>143.3</ele>
        <time>2016-08-27T08:17:38Z</time>
      </trkpt>
      <trkpt lat="43.9118" lon="1.89983">
        <ele>143.4</ele>
        <time>2016-08-27T08:17:39Z</time>
      </trkpt>
      <trkpt lat="43.91186" lon="1.8998">
        <ele>143.5</ele>
        <time>2016-08-27T08:17:40Z</time>
      </trkpt>
      <trkpt lat="43.91192" lon="1.89979">
        <ele>143.7</ele>
        <time>2016-08-27T08:17:41Z</time>
      </trkpt>
      <trkpt lat="43.91199" lon="1.89978">
        <ele>143.9</ele>
        <time>2016-08-27T08:17:42Z</time>
      </trkpt>
      <trkpt lat="43.91205" lon="1.89976">
        <ele>144.1</ele>
        <time>2016-08-27T08:17:43Z</time>
      </trkpt>
      <trkpt lat="43.91209" lon="1.89973">
        <ele>144.2</ele>
        <time>2016-08-27T08:17:44Z</time>
      </trkpt>
      <trkpt lat="43.91213" lon="1.89971">
        <ele>144.3</ele>
        <time>2016-08-27T08:17:45Z</time>
      </trkpt>
      <trkpt lat="43.9122" lon="1.8997">
        <ele>144.5</ele>
        <time>2016-08-27T08:17:46Z</time>
      </trkpt>
      <trkpt lat="43.91224" lon="1.89969">
        <ele>144.6</ele>
        <time>2016-08-27T08:17:47Z</time>
      </trkpt>
      <trkpt lat="43.91228" lon="1.89968">
        <ele>144.8</ele>
        <time>2016-08-27T08:17:48Z</time>
      </trkpt>
      <trkpt lat="43.91234" lon="1.89965">
        <ele>145</ele>
        <time>2016-08-27T08:17:49Z</time>
      </trkpt>
      <trkpt lat="43.91239" lon="1.89958">
        <ele>145.1</ele>
        <time>2016-08-27T08:17:51Z</time>
      </trkpt>
      <trkpt lat="43.91242" lon="1.89955">
        <ele>145.1</ele>
        <time>2016-08-27T08:17:52Z</time>
      </trkpt>
      <trkpt lat="43.9125" lon="1.89952">
        <ele>145.4</ele>
        <time>2016-08-27T08:17:53Z</time>
      </trkpt>
      <trkpt lat="43.91255" lon="1.8995">
        <ele>145.5</ele>
        <time>2016-08-27T08:17:54Z</time>
      </trkpt>
      <trkpt lat="43.91259" lon="1.89949">
        <ele>145.7</ele>
        <time>2016-08-27T08:17:55Z</time>
      </trkpt>
      <trkpt lat="43.91266" lon="1.89948">
        <ele>145.9</ele>
        <time>2016-08-27T08:17:56Z</time>
      </trkpt>
      <trkpt lat="43.91272" lon="1.89945">
        <ele>146</ele>
        <time>2016-08-27T08:17:57Z</time>
      </trkpt>
      <trkpt lat="43.91277" lon="1.89942">
        <ele>146.1</ele>
        <time>2016-08-27T08:17:58Z</time>
      </trkpt>
      <trkpt lat="43.91283" lon="1.8994">
        <ele>146.3</ele>
        <time>2016-08-27T08:17:59Z</time>
      </trkpt>
      <trkpt lat="43.91287" lon="1.89938">
        <ele>146.4</ele>
        <time>2016-08-27T08:18:00Z</time>
      </trkpt>
      <trkpt lat="43.91291" lon="1.89936">
        <ele>146.4</ele>
        <time>2016-08-27T08:18:01Z</time>
      </trkpt>
      <trkpt lat="43.91295" lon="1.89933">
        <ele>146.4</ele>
        <time>2016-08-27T08:18:02Z</time>
      </trkpt>
      <trkpt lat="43.91299" lon="1.8993">
        <ele>146.4</ele>
        <time>2016-08-27T08:18:03Z</time>
      </trkpt>
      <trkpt lat="43.91303" lon="1.89927">
        <ele>146.4</ele>
        <time>2016-08-27T08:18:04Z</time>
      </trkpt>
      <trkpt lat="43.91308" lon="1.89924">
        <ele>146.4</ele>
        <time>2016-08-27T08:18:05Z</time>
      </trkpt>
      <trkpt lat="43.91312" lon="1.89921">
        <ele>146.5</ele>
        <time>2016-08-27T08:18:06Z</time>
      </trkpt>
      <trkpt lat="43.91316" lon="1.89919">
        <ele>146.5</ele>
        <time>2016-08-27T08:18:07Z</time>
      </trkpt>
      <trkpt lat="43.9132" lon="1.89915">
        <ele>146.5</ele>
        <time>2016-08-27T08:18:08Z</time>
      </trkpt>
      <trkpt lat="43.91324" lon="1.89912">
        <ele>146.5</ele>
        <time>2016-08-27T08:18:09Z</time>
      </trkpt>
      <trkpt lat="43.91331" lon="1.89908">
        <ele>146.5</ele>
        <time>2016-08-27T08:18:10Z</time>
      </trkpt>
      <trkpt lat="43.91337" lon="1.89906">
        <ele>146.6</ele>
        <time>2016-08-27T08:18:11Z</time>
      </trkpt>
      <trkpt lat="43.91343" lon="1.89905">
        <ele>146.7</ele>
        <time>2016-08-27T08:18:12Z</time>
      </trkpt>
      <trkpt lat="43.91348" lon="1.89903">
        <ele>146.8</ele>
        <time>2016-08-27T08:18:13Z</time>
      </trkpt>
      <trkpt lat="43.91354" lon="1.89901">
        <ele>146.9</ele>
        <time>2016-08-27T08:18:14Z</time>
      </trkpt>
      <trkpt lat="43.91358" lon="1.89899">
        <ele>146.9</ele>
        <time>2016-08-27T08:18:15Z</time>
      </trkpt>
      <trkpt lat="43.91362" lon="1.89896">
        <ele>147</ele>
        <time>2016-08-27T08:18:16Z</time>
      </trkpt>
      <trkpt lat="43.91368" lon="1.89892">
        <ele>147.1</ele>
        <time>2016-08-27T08:18:17Z</time>
      </trkpt>
      <trkpt lat="43.91374" lon="1.89892">
        <ele>147.2</ele>
        <time>2016-08-27T08:18:18Z</time>
      </trkpt>
      <trkpt lat="43.91378" lon="1.8989">
        <ele>147.2</ele>
        <time>2016-08-27T08:18:19Z</time>
      </trkpt>
      <trkpt lat="43.91382" lon="1.89888">
        <ele>147.2</ele>
        <time>2016-08-27T08:18:20Z</time>
      </trkpt>
      <trkpt lat="43.91387" lon="1.89886">
        <ele>147.3</ele>
        <time>2016-08-27T08:18:21Z</time>
      </trkpt>
      <trkpt lat="43.91394" lon="1.89883">
        <ele>147.3</ele>
        <time>2016-08-27T08:18:22Z</time>
      </trkpt>
      <trkpt lat="43.91399" lon="1.8988">
        <ele>147.3</ele>
        <time>2016-08-27T08:18:23Z</time>
      </trkpt>
      <trkpt lat="43.91403" lon="1.89878">
        <ele>147.4</ele>
        <time>2016-08-27T08:18:24Z</time>
      </trkpt>
      <trkpt lat="43.91408" lon="1.89876">
        <ele>147.4</ele>
        <time>2016-08-27T08:18:25Z</time>
      </trkpt>
      <trkpt lat="43.91415" lon="1.89875">
        <ele>147.5</ele>
        <time>2016-08-27T08:18:26Z</time>
      </trkpt>
      <trkpt lat="43.9142" lon="1.89874">
        <ele>147.5</ele>
        <time>2016-08-27T08:18:27Z</time>
      </trkpt>
      <trkpt lat="43.91424" lon="1.89871">
        <ele>147.6</ele>
        <time>2016-08-27T08:18:28Z</time>
      </trkpt>
      <trkpt lat="43.91429" lon="1.89868">
        <ele>147.6</ele>
        <time>2016-08-27T08:18:29Z</time>
      </trkpt>
      <trkpt lat="43.91436" lon="1.89867">
        <ele>147.7</ele>
        <time>2016-08-27T08:18:30Z</time>
      </trkpt>
      <trkpt lat="43.91441" lon="1.89865">
        <ele>147.7</ele>
        <time>2016-08-27T08:18:31Z</time>
      </trkpt>
      <trkpt lat="43.91444" lon="1.89862">
        <ele>147.7</ele>
        <time>2016-08-27T08:18:32Z</time>
      </trkpt>
      <trkpt lat="43.91449" lon="1.8986">
        <ele>147.7</ele>
        <time>2016-08-27T08:18:33Z</time>
      </trkpt>
      <trkpt lat="43.91453" lon="1.89857">
        <ele>147.7</ele>
        <time>2016-08-27T08:18:34Z</time>
      </trkpt>
      <trkpt lat="43.91458" lon="1.89854">
        <ele>147.7</ele>
        <time>2016-08-27T08:18:35Z</time>
      </trkpt>
      <trkpt lat="43.91462" lon="1.89853">
        <ele>147.7</ele>
        <time>2016-08-27T08:18:36Z</time>
      </trkpt>
      <trkpt lat="43.91466" lon="1.8985">
        <ele>147.7</ele>
        <time>2016-08-27T08:18:37Z</time>
      </trkpt>
      <trkpt lat="43.91471" lon="1.89849">
        <ele>147.7</ele>
        <time>2016-08-27T08:18:38Z</time>
      </trkpt>
      <trkpt lat="43.91475" lon="1.89846">
        <ele>147.7</ele>
        <time>2016-08-27T08:18:39Z</time>
      </trkpt>
      <trkpt lat="43.91483" lon="1.89844">
        <ele>147.7</ele>
        <time>2016-08-27T08:18:40Z</time>
      </trkpt>
      <trkpt lat="43.91489" lon="1.89842">
        <ele>147.8</ele>
        <time>2016-08-27T08:18:41Z</time>
      </trkpt>
      <trkpt lat="43.91494" lon="1.89839">
        <ele>147.8</ele>
        <time>2016-08-27T08:18:42Z</time>
      </trkpt>
      <trkpt lat="43.91498" lon="1.89837">
        <ele>147.8</ele>
        <time>2016-08-27T08:18:43Z</time>
      </trkpt>
      <trkpt lat="43.91503" lon="1.89835">
        <ele>147.8</ele>
        <time>2016-08-27T08:18:44Z</time>
      </trkpt>
      <trkpt lat="43.9151" lon="1.89835">
        <ele>147.8</ele>
        <time>2016-08-27T08:18:45Z</time>
      </trkpt>
      <trkpt lat="43.91513" lon="1.89832">
        <ele>147.8</ele>
        <time>2016-08-27T08:18:46Z</time>
      </trkpt>
      <trkpt lat="43.91516" lon="1.89829">
        <ele>147.8</ele>
        <time>2016-08-27T08:18:47Z</time>
      </trkpt>
      <trkpt lat="43.91522" lon="1.89826">
        <ele>147.9</ele>
        <time>2016-08-27T08:18:48Z</time>
      </trkpt>
      <trkpt lat="43.91528" lon="1.89822">
        <ele>147.9</ele>
        <time>2016-08-27T08:18:49Z</time>
      </trkpt>
      <trkpt lat="43.91532" lon="1.89819">
        <ele>147.9</ele>
        <time>2016-08-27T08:18:50Z</time>
      </trkpt>
      <trkpt lat="43.91538" lon="1.89819">
        <ele>148</ele>
        <time>2016-08-27T08:18:51Z</time>
      </trkpt>
      <trkpt lat="43.91541" lon="1.89817">
        <ele>148</ele>
        <time>2016-08-27T08:18:52Z</time>
      </trkpt>
      <trkpt lat="43.91546" lon="1.89815">
        <ele>148</ele>
        <time>2016-08-27T08:18:53Z</time>
      </trkpt>
      <trkpt lat="43.91551" lon="1.89812">
        <ele>148</ele>
        <time>2016-08-27T08:18:54Z</time>
      </trkpt>
      <trkpt lat="43.91557" lon="1.8981">
        <ele>148</ele>
        <time>2016-08-27T08:18:55Z</time>
      </trkpt>
      <trkpt lat="43.91563" lon="1.89808">
        <ele>148</ele>
        <time>2016-08-27T08:18:56Z</time>
      </trkpt>
      <trkpt lat="43.91564" lon="1.89805">
        <ele>148</ele>
        <time>2016-08-27T08:18:57Z</time>
      </trkpt>
      <trkpt lat="43.91568" lon="1.89803">
        <ele>148</ele>
        <time>2016-08-27T08:18:58Z</time>
      </trkpt>
      <trkpt lat="43.91574" lon="1.89801">
        <ele>148</ele>
        <time>2016-08-27T08:18:59Z</time>
      </trkpt>
      <trkpt lat="43.91576" lon="1.89797">
        <ele>148</ele>
        <time>2016-08-27T08:19:00Z</time>
      </trkpt>
      <trkpt lat="43.91583" lon="1.89794">
        <ele>148</ele>
        <time>2016-08-27T08:19:01Z</time>
      </trkpt>
      <trkpt lat="43.91589" lon="1.89792">
        <ele>148</ele>
        <time>2016-08-27T08:19:02Z</time>
      </trkpt>
      <trkpt lat="43.91594" lon="1.89789">
        <ele>148</ele>
        <time>2016-08-27T08:19:03Z</time>
      </trkpt>
      <trkpt lat="43.916" lon="1.89787">
        <ele>147.9</ele>
        <time>2016-08-27T08:19:04Z</time>
      </trkpt>
      <trkpt lat="43.91607" lon="1.89785">
        <ele>147.9</ele>
        <time>2016-08-27T08:19:05Z</time>
      </trkpt>
      <trkpt lat="43.91612" lon="1.89783">
        <ele>147.9</ele>
        <time>2016-08-27T08:19:06Z</time>
      </trkpt>
      <trkpt lat="43.91619" lon="1.8978">
        <ele>147.9</ele>
        <time>2016-08-27T08:19:07Z</time>
      </trkpt>
      <trkpt lat="43.91623" lon="1.89777">
        <ele>147.8</ele>
        <time>2016-08-27T08:19:08Z</time>
      </trkpt>
      <trkpt lat="43.91626" lon="1.89774">
        <ele>147.8</ele>
        <time>2016-08-27T08:19:09Z</time>
      </trkpt>
      <trkpt lat="43.91633" lon="1.89771">
        <ele>147.9</ele>
        <time>2016-08-27T08:19:10Z</time>
      </trkpt>
      <trkpt lat="43.91639" lon="1.8977">
        <ele>148</ele>
        <time>2016-08-27T08:19:11Z</time>
      </trkpt>
      <trkpt lat="43.91646" lon="1.89765">
        <ele>148</ele>
        <time>2016-08-27T08:19:12Z</time>
      </trkpt>
      <trkpt lat="43.91651" lon="1.89763">
        <ele>148.1</ele>
        <time>2016-08-27T08:19:13Z</time>
      </trkpt>
      <trkpt lat="43.91656" lon="1.89761">
        <ele>148.1</ele>
        <time>2016-08-27T08:19:14Z</time>
      </trkpt>
      <trkpt lat="43.91662" lon="1.89759">
        <ele>148.2</ele>
        <time>2016-08-27T08:19:15Z</time>
      </trkpt>
      <trkpt lat="43.91666" lon="1.89756">
        <ele>148.3</ele>
        <time>2016-08-27T08:19:16Z</time>
      </trkpt>
      <trkpt lat="43.91671" lon="1.89754">
        <ele>148.4</ele>
        <time>2016-08-27T08:19:17Z</time>
      </trkpt>
      <trkpt lat="43.91676" lon="1.89751">
        <ele>148.4</ele>
        <time>2016-08-27T08:19:18Z</time>
      </trkpt>
      <trkpt lat="43.91681" lon="1.89749">
        <ele>148.5</ele>
        <time>2016-08-27T08:19:19Z</time>
      </trkpt>
      <trkpt lat="43.91686" lon="1.89748">
        <ele>148.6</ele>
        <time>2016-08-27T08:19:20Z</time>
      </trkpt>
      <trkpt lat="43.91692" lon="1.89744">
        <ele>148.7</ele>
        <time>2016-08-27T08:19:21Z</time>
      </trkpt>
      <trkpt lat="43.91699" lon="1.89741">
        <ele>148.8</ele>
        <time>2016-08-27T08:19:22Z</time>
      </trkpt>
      <trkpt lat="43.91704" lon="1.89738">
        <ele>148.9</ele>
        <time>2016-08-27T08:19:23Z</time>
      </trkpt>
      <trkpt lat="43.91708" lon="1.89736">
        <ele>149</ele>
        <time>2016-08-27T08:19:24Z</time>
      </trkpt>
      <trkpt lat="43.91712" lon="1.89734">
        <ele>149</ele>
        <time>2016-08-27T08:19:25Z</time>
      </trkpt>
      <trkpt lat="43.91718" lon="1.89731">
        <ele>149.1</ele>
        <time>2016-08-27T08:19:26Z</time>
      </trkpt>
      <trkpt lat="43.91723" lon="1.89728">
        <ele>149.1</ele>
        <time>2016-08-27T08:19:27Z</time>
      </trkpt>
      <trkpt lat="43.91727" lon="1.89725">
        <ele>149.2</ele>
        <time>2016-08-27T08:19:28Z</time>
      </trkpt>
      <trkpt lat="43.91731" lon="1.89723">
        <ele>149.2</ele>
        <time>2016-08-27T08:19:29Z</time>
      </trkpt>
      <trkpt lat="43.91737" lon="1.8972">
        <ele>149.3</ele>
        <time>2016-08-27T08:19:30Z</time>
      </trkpt>
      <trkpt lat="43.91743" lon="1.89717">
        <ele>149.4</ele>
        <time>2016-08-27T08:19:31Z</time>
      </trkpt>
      <trkpt lat="43.91747" lon="1.89716">
        <ele>149.4</ele>
        <time>2016-08-27T08:19:32Z</time>
      </trkpt>
      <trkpt lat="43.91752" lon="1.89715">
        <ele>149.5</ele>
        <time>2016-08-27T08:19:33Z</time>
      </trkpt>
      <trkpt lat="43.91758" lon="1.89714">
        <ele>149.6</ele>
        <time>2016-08-27T08:19:34Z</time>
      </trkpt>
      <trkpt lat="43.91761" lon="1.89711">
        <ele>149.6</ele>
        <time>2016-08-27T08:19:35Z</time>
      </trkpt>
      <trkpt lat="43.91764" lon="1.89708">
        <ele>149.7</ele>
        <time>2016-08-27T08:19:36Z</time>
      </trkpt>
      <trkpt lat="43.91767" lon="1.89706">
        <ele>149.6</ele>
        <time>2016-08-27T08:19:37Z</time>
      </trkpt>
      <trkpt lat="43.91772" lon="1.89704">
        <ele>149.7</ele>
        <time>2016-08-27T08:19:38Z</time>
      </trkpt>
      <trkpt lat="43.91776" lon="1.89703">
        <ele>149.7</ele>
        <time>2016-08-27T08:19:39Z</time>
      </trkpt>
      <trkpt lat="43.91781" lon="1.89701">
        <ele>149.7</ele>
        <time>2016-08-27T08:19:40Z</time>
      </trkpt>
      <trkpt lat="43.91785" lon="1.89699">
        <ele>149.7</ele>
        <time>2016-08-27T08:19:41Z</time>
      </trkpt>
      <trkpt lat="43.91789" lon="1.89697">
        <ele>149.7</ele>
        <time>2016-08-27T08:19:42Z</time>
      </trkpt>
      <trkpt lat="43.91795" lon="1.89694">
        <ele>149.7</ele>
        <time>2016-08-27T08:19:43Z</time>
      </trkpt>
      <trkpt lat="43.918" lon="1.89692">
        <ele>149.7</ele>
        <time>2016-08-27T08:19:44Z</time>
      </trkpt>
      <trkpt lat="43.91805" lon="1.89689">
        <ele>149.7</ele>
        <time>2016-08-27T08:19:45Z</time>
      </trkpt>
      <trkpt lat="43.91811" lon="1.89687">
        <ele>149.8</ele>
        <time>2016-08-27T08:19:46Z</time>
      </trkpt>
      <trkpt lat="43.91819" lon="1.89685">
        <ele>149.9</ele>
        <time>2016-08-27T08:19:47Z</time>
      </trkpt>
      <trkpt lat="43.91823" lon="1.89684">
        <ele>149.9</ele>
        <time>2016-08-27T08:19:48Z</time>
      </trkpt>
      <trkpt lat="43.91829" lon="1.89681">
        <ele>149.9</ele>
        <time>2016-08-27T08:19:49Z</time>
      </trkpt>
      <trkpt lat="43.91833" lon="1.89679">
        <ele>150</ele>
        <time>2016-08-27T08:19:50Z</time>
      </trkpt>
      <trkpt lat="43.91838" lon="1.89677">
        <ele>150</ele>
        <time>2016-08-27T08:19:51Z</time>
      </trkpt>
      <trkpt lat="43.91843" lon="1.89675">
        <ele>150.1</ele>
        <time>2016-08-27T08:19:52Z</time>
      </trkpt>
      <trkpt lat="43.91848" lon="1.89673">
        <ele>150.1</ele>
        <time>2016-08-27T08:19:53Z</time>
      </trkpt>
      <trkpt lat="43.91854" lon="1.89671">
        <ele>150.2</ele>
        <time>2016-08-27T08:19:54Z</time>
      </trkpt>
      <trkpt lat="43.91859" lon="1.89668">
        <ele>150.2</ele>
        <time>2016-08-27T08:19:55Z</time>
      </trkpt>
      <trkpt lat="43.91863" lon="1.89665">
        <ele>150.3</ele>
        <time>2016-08-27T08:19:56Z</time>
      </trkpt>
      <trkpt lat="43.91867" lon="1.89663">
        <ele>150.3</ele>
        <time>2016-08-27T08:19:57Z</time>
      </trkpt>
      <trkpt lat="43.91874" lon="1.89658">
        <ele>150.4</ele>
        <time>2016-08-27T08:19:58Z</time>
      </trkpt>
      <trkpt lat="43.91879" lon="1.89656">
        <ele>150.4</ele>
        <time>2016-08-27T08:19:59Z</time>
      </trkpt>
      <trkpt lat="43.91883" lon="1.89652">
        <ele>150.5</ele>
        <time>2016-08-27T08:20:00Z</time>
      </trkpt>
      <trkpt lat="43.91887" lon="1.8965">
        <ele>150.5</ele>
        <time>2016-08-27T08:20:01Z</time>
      </trkpt>
      <trkpt lat="43.91891" lon="1.89648">
        <ele>150.6</ele>
        <time>2016-08-27T08:20:02Z</time>
      </trkpt>
      <trkpt lat="43.91897" lon="1.89644">
        <ele>150.6</ele>
        <time>2016-08-27T08:20:03Z</time>
      </trkpt>
      <trkpt lat="43.91899" lon="1.8964">
        <ele>150.7</ele>
        <time>2016-08-27T08:20:04Z</time>
      </trkpt>
      <trkpt lat="43.91901" lon="1.89637">
        <ele>150.7</ele>
        <time>2016-08-27T08:20:05Z</time>
      </trkpt>
      <trkpt lat="43.91903" lon="1.89634">
        <ele>150.7</ele>
        <time>2016-08-27T08:20:06Z</time>
      </trkpt>
      <trkpt lat="43.91909" lon="1.89628">
        <ele>150.8</ele>
        <time>2016-08-27T08:20:08Z</time>
      </trkpt>
      <trkpt lat="43.91919" lon="1.89627">
        <ele>151.1</ele>
        <time>2016-08-27T08:20:09Z</time>
      </trkpt>
      <trkpt lat="43.91925" lon="1.89625">
        <ele>151.2</ele>
        <time>2016-08-27T08:20:10Z</time>
      </trkpt>
      <trkpt lat="43.9193" lon="1.89624">
        <ele>151.3</ele>
        <time>2016-08-27T08:20:11Z</time>
      </trkpt>
      <trkpt lat="43.91935" lon="1.89622">
        <ele>151.4</ele>
        <time>2016-08-27T08:20:12Z</time>
      </trkpt>
      <trkpt lat="43.91943" lon="1.89623">
        <ele>151.6</ele>
        <time>2016-08-27T08:20:13Z</time>
      </trkpt>
      <trkpt lat="43.91951" lon="1.89624">
        <ele>151.8</ele>
        <time>2016-08-27T08:20:14Z</time>
      </trkpt>
      <trkpt lat="43.91954" lon="1.89623">
        <ele>151.9</ele>
        <time>2016-08-27T08:20:15Z</time>
      </trkpt>
      <trkpt lat="43.9196" lon="1.8962">
        <ele>151.9</ele>
        <time>2016-08-27T08:20:16Z</time>
      </trkpt>
      <trkpt lat="43.91965" lon="1.89619">
        <ele>151.9</ele>
        <time>2016-08-27T08:20:17Z</time>
      </trkpt>
      <trkpt lat="43.91971" lon="1.89613">
        <ele>151.7</ele>
        <time>2016-08-27T08:20:18Z</time>
      </trkpt>
      <trkpt lat="43.91977" lon="1.89611">
        <ele>151.7</ele>
        <time>2016-08-27T08:20:19Z</time>
      </trkpt>
      <trkpt lat="43.91983" lon="1.89609">
        <ele>151.6</ele>
        <time>2016-08-27T08:20:20Z</time>
      </trkpt>
      <trkpt lat="43.91986" lon="1.89607">
        <ele>151.6</ele>
        <time>2016-08-27T08:20:21Z</time>
      </trkpt>
      <trkpt lat="43.91991" lon="1.89605">
        <ele>151.6</ele>
        <time>2016-08-27T08:20:22Z</time>
      </trkpt>
      <trkpt lat="43.91998" lon="1.89602">
        <ele>151.5</ele>
        <time>2016-08-27T08:20:23Z</time>
      </trkpt>
      <trkpt lat="43.92003" lon="1.89599">
        <ele>151.5</ele>
        <time>2016-08-27T08:20:24Z</time>
      </trkpt>
      <trkpt lat="43.92009" lon="1.89596">
        <ele>151.5</ele>
        <time>2016-08-27T08:20:25Z</time>
      </trkpt>
      <trkpt lat="43.92015" lon="1.89593">
        <ele>151.5</ele>
        <time>2016-08-27T08:20:26Z</time>
      </trkpt>
      <trkpt lat="43.9202" lon="1.89592">
        <ele>151.5</ele>
        <time>2016-08-27T08:20:27Z</time>
      </trkpt>
      <trkpt lat="43.92025" lon="1.8959">
        <ele>151.5</ele>
        <time>2016-08-27T08:20:28Z</time>
      </trkpt>
      <trkpt lat="43.92031" lon="1.89588">
        <ele>151.5</ele>
        <time>2016-08-27T08:20:29Z</time>
      </trkpt>
      <trkpt lat="43.92037" lon="1.89584">
        <ele>151.5</ele>
        <time>2016-08-27T08:20:30Z</time>
      </trkpt>
      <trkpt lat="43.9204" lon="1.89581">
        <ele>151.5</ele>
        <time>2016-08-27T08:20:31Z</time>
      </trkpt>
      <trkpt lat="43.92044" lon="1.89577">
        <ele>151.6</ele>
        <time>2016-08-27T08:20:32Z</time>
      </trkpt>
      <trkpt lat="43.92049" lon="1.89576">
        <ele>151.6</ele>
        <time>2016-08-27T08:20:33Z</time>
      </trkpt>
      <trkpt lat="43.92058" lon="1.89575">
        <ele>151.6</ele>
        <time>2016-08-27T08:20:34Z</time>
      </trkpt>
      <trkpt lat="43.92064" lon="1.89573">
        <ele>151.6</ele>
        <time>2016-08-27T08:20:35Z</time>
      </trkpt>
      <trkpt lat="43.92071" lon="1.8957">
        <ele>151.7</ele>
        <time>2016-08-27T08:20:36Z</time>
      </trkpt>
      <trkpt lat="43.92077" lon="1.89567">
        <ele>151.7</ele>
        <time>2016-08-27T08:20:37Z</time>
      </trkpt>
      <trkpt lat="43.92079" lon="1.89564">
        <ele>151.7</ele>
        <time>2016-08-27T08:20:38Z</time>
      </trkpt>
      <trkpt lat="43.92085" lon="1.8956">
        <ele>151.8</ele>
        <time>2016-08-27T08:20:39Z</time>
      </trkpt>
      <trkpt lat="43.92091" lon="1.89557">
        <ele>151.8</ele>
        <time>2016-08-27T08:20:40Z</time>
      </trkpt>
      <trkpt lat="43.92095" lon="1.89554">
        <ele>151.9</ele>
        <time>2016-08-27T08:20:41Z</time>
      </trkpt>
      <trkpt lat="43.921" lon="1.89551">
        <ele>151.9</ele>
        <time>2016-08-27T08:20:42Z</time>
      </trkpt>
      <trkpt lat="43.92106" lon="1.89548">
        <ele>151.9</ele>
        <time>2016-08-27T08:20:43Z</time>
      </trkpt>
      <trkpt lat="43.92112" lon="1.89543">
        <ele>152</ele>
        <time>2016-08-27T08:20:45Z</time>
      </trkpt>
      <trkpt lat="43.92117" lon="1.89539">
        <ele>152</ele>
        <time>2016-08-27T08:20:46Z</time>
      </trkpt>
      <trkpt lat="43.92123" lon="1.89537">
        <ele>152</ele>
        <time>2016-08-27T08:20:47Z</time>
      </trkpt>
      <trkpt lat="43.92128" lon="1.89535">
        <ele>152</ele>
        <time>2016-08-27T08:20:48Z</time>
      </trkpt>
      <trkpt lat="43.92138" lon="1.89533">
        <ele>152</ele>
        <time>2016-08-27T08:20:49Z</time>
      </trkpt>
      <trkpt lat="43.92145" lon="1.89532">
        <ele>152</ele>
        <time>2016-08-27T08:20:50Z</time>
      </trkpt>
      <trkpt lat="43.92148" lon="1.8953">
        <ele>152</ele>
        <time>2016-08-27T08:20:51Z</time>
      </trkpt>
      <trkpt lat="43.92153" lon="1.89528">
        <ele>152.1</ele>
        <time>2016-08-27T08:20:52Z</time>
      </trkpt>
      <trkpt lat="43.92156" lon="1.89525">
        <ele>152.1</ele>
        <time>2016-08-27T08:20:53Z</time>
      </trkpt>
      <trkpt lat="43.92161" lon="1.89521">
        <ele>152.1</ele>
        <time>2016-08-27T08:20:54Z</time>
      </trkpt>
      <trkpt lat="43.92166" lon="1.89519">
        <ele>152.1</ele>
        <time>2016-08-27T08:20:55Z</time>
      </trkpt>
      <trkpt lat="43.92172" lon="1.89517">
        <ele>152.2</ele>
        <time>2016-08-27T08:20:56Z</time>
      </trkpt>
      <trkpt lat="43.92175" lon="1.89514">
        <ele>152.2</ele>
        <time>2016-08-27T08:20:57Z</time>
      </trkpt>
      <trkpt lat="43.9218" lon="1.89511">
        <ele>152.2</ele>
        <time>2016-08-27T08:20:58Z</time>
      </trkpt>
      <trkpt lat="43.92185" lon="1.89508">
        <ele>152.3</ele>
        <time>2016-08-27T08:20:59Z</time>
      </trkpt>
      <trkpt lat="43.9219" lon="1.89506">
        <ele>152.3</ele>
        <time>2016-08-27T08:21:00Z</time>
      </trkpt>
      <trkpt lat="43.92196" lon="1.89504">
        <ele>152.4</ele>
        <time>2016-08-27T08:21:01Z</time>
      </trkpt>
      <trkpt lat="43.92202" lon="1.89501">
        <ele>152.5</ele>
        <time>2016-08-27T08:21:02Z</time>
      </trkpt>
      <trkpt lat="43.92209" lon="1.89499">
        <ele>152.5</ele>
        <time>2016-08-27T08:21:04Z</time>
      </trkpt>
      <trkpt lat="43.92217" lon="1.89496">
        <ele>152.7</ele>
        <time>2016-08-27T08:21:05Z</time>
      </trkpt>
      <trkpt lat="43.92224" lon="1.89494">
        <ele>153</ele>
        <time>2016-08-27T08:21:06Z</time>
      </trkpt>
      <trkpt lat="43.9223" lon="1.89491">
        <ele>153.1</ele>
        <time>2016-08-27T08:21:07Z</time>
      </trkpt>
      <trkpt lat="43.92231" lon="1.89486">
        <ele>153.2</ele>
        <time>2016-08-27T08:21:08Z</time>
      </trkpt>
      <trkpt lat="43.92237" lon="1.89485">
        <ele>153.4</ele>
        <time>2016-08-27T08:21:09Z</time>
      </trkpt>
      <trkpt lat="43.92242" lon="1.89482">
        <ele>153.5</ele>
        <time>2016-08-27T08:21:10Z</time>
      </trkpt>
      <trkpt lat="43.92246" lon="1.89479">
        <ele>153.6</ele>
        <time>2016-08-27T08:21:11Z</time>
      </trkpt>
      <trkpt lat="43.92252" lon="1.89475">
        <ele>153.8</ele>
        <time>2016-08-27T08:21:12Z</time>
      </trkpt>
      <trkpt lat="43.92254" lon="1.89472">
        <ele>153.9</ele>
        <time>2016-08-27T08:21:13Z</time>
      </trkpt>
      <trkpt lat="43.92259" lon="1.8947">
        <ele>154.1</ele>
        <time>2016-08-27T08:21:14Z</time>
      </trkpt>
      <trkpt lat="43.92265" lon="1.89466">
        <ele>154.3</ele>
        <time>2016-08-27T08:21:15Z</time>
      </trkpt>
      <trkpt lat="43.92271" lon="1.89465">
        <ele>154.4</ele>
        <time>2016-08-27T08:21:16Z</time>
      </trkpt>
      <trkpt lat="43.92277" lon="1.89464">
        <ele>154.6</ele>
        <time>2016-08-27T08:21:17Z</time>
      </trkpt>
      <trkpt lat="43.92283" lon="1.89462">
        <ele>154.8</ele>
        <time>2016-08-27T08:21:18Z</time>
      </trkpt>
      <trkpt lat="43.9229" lon="1.89461">
        <ele>154.9</ele>
        <time>2016-08-27T08:21:19Z</time>
      </trkpt>
      <trkpt lat="43.92296" lon="1.8946">
        <ele>154.9</ele>
        <time>2016-08-27T08:21:20Z</time>
      </trkpt>
      <trkpt lat="43.92305" lon="1.89459">
        <ele>154.8</ele>
        <time>2016-08-27T08:21:21Z</time>
      </trkpt>
      <trkpt lat="43.92309" lon="1.89454">
        <ele>154.7</ele>
        <time>2016-08-27T08:21:22Z</time>
      </trkpt>
      <trkpt lat="43.92313" lon="1.8945">
        <ele>154.6</ele>
        <time>2016-08-27T08:21:23Z</time>
      </trkpt>
      <trkpt lat="43.92316" lon="1.89446">
        <ele>154.4</ele>
        <time>2016-08-27T08:21:24Z</time>
      </trkpt>
      <trkpt lat="43.92319" lon="1.89442">
        <ele>154.3</ele>
        <time>2016-08-27T08:21:26Z</time>
      </trkpt>
      <trkpt lat="43.92324" lon="1.89438">
        <ele>154.1</ele>
        <time>2016-08-27T08:21:27Z</time>
      </trkpt>
      <trkpt lat="43.92328" lon="1.89436">
        <ele>154</ele>
        <time>2016-08-27T08:21:28Z</time>
      </trkpt>
      <trkpt lat="43.92336" lon="1.89435">
        <ele>153.9</ele>
        <time>2016-08-27T08:21:29Z</time>
      </trkpt>
      <trkpt lat="43.92342" lon="1.89433">
        <ele>153.8</ele>
        <time>2016-08-27T08:21:30Z</time>
      </trkpt>
      <trkpt lat="43.92346" lon="1.8943">
        <ele>153.7</ele>
        <time>2016-08-27T08:21:31Z</time>
      </trkpt>
      <trkpt lat="43.92352" lon="1.89428">
        <ele>153.5</ele>
        <time>2016-08-27T08:21:32Z</time>
      </trkpt>
      <trkpt lat="43.92356" lon="1.89426">
        <ele>153.4</ele>
        <time>2016-08-27T08:21:33Z</time>
      </trkpt>
      <trkpt lat="43.92359" lon="1.89422">
        <ele>153.3</ele>
        <time>2016-08-27T08:21:34Z</time>
      </trkpt>
      <trkpt lat="43.92365" lon="1.89421">
        <ele>153.2</ele>
        <time>2016-08-27T08:21:35Z</time>
      </trkpt>
      <trkpt lat="43.92369" lon="1.89419">
        <ele>153.1</ele>
        <time>2016-08-27T08:21:36Z</time>
      </trkpt>
      <trkpt lat="43.92373" lon="1.89417">
        <ele>153</ele>
        <time>2016-08-27T08:21:37Z</time>
      </trkpt>
      <trkpt lat="43.92377" lon="1.89415">
        <ele>153</ele>
        <time>2016-08-27T08:21:38Z</time>
      </trkpt>
      <trkpt lat="43.92381" lon="1.89412">
        <ele>152.9</ele>
        <time>2016-08-27T08:21:39Z</time>
      </trkpt>
      <trkpt lat="43.92389" lon="1.8941">
        <ele>153</ele>
        <time>2016-08-27T08:21:40Z</time>
      </trkpt>
      <trkpt lat="43.92393" lon="1.89408">
        <ele>153</ele>
        <time>2016-08-27T08:21:41Z</time>
      </trkpt>
      <trkpt lat="43.92399" lon="1.89406">
        <ele>153</ele>
        <time>2016-08-27T08:21:42Z</time>
      </trkpt>
      <trkpt lat="43.92402" lon="1.89404">
        <ele>153</ele>
        <time>2016-08-27T08:21:43Z</time>
      </trkpt>
      <trkpt lat="43.92409" lon="1.89404">
        <ele>153.1</ele>
        <time>2016-08-27T08:21:44Z</time>
      </trkpt>
      <trkpt lat="43.92415" lon="1.89402">
        <ele>153.1</ele>
        <time>2016-08-27T08:21:45Z</time>
      </trkpt>
      <trkpt lat="43.92419" lon="1.894">
        <ele>153.2</ele>
        <time>2016-08-27T08:21:46Z</time>
      </trkpt>
      <trkpt lat="43.92424" lon="1.89398">
        <ele>153.2</ele>
        <time>2016-08-27T08:21:47Z</time>
      </trkpt>
      <trkpt lat="43.92429" lon="1.89395">
        <ele>153.3</ele>
        <time>2016-08-27T08:21:48Z</time>
      </trkpt>
      <trkpt lat="43.92436" lon="1.89391">
        <ele>153.4</ele>
        <time>2016-08-27T08:21:49Z</time>
      </trkpt>
      <trkpt lat="43.9244" lon="1.89388">
        <ele>153.5</ele>
        <time>2016-08-27T08:21:50Z</time>
      </trkpt>
      <trkpt lat="43.92443" lon="1.89384">
        <ele>153.6</ele>
        <time>2016-08-27T08:21:51Z</time>
      </trkpt>
      <trkpt lat="43.92449" lon="1.8938">
        <ele>153.7</ele>
        <time>2016-08-27T08:21:52Z</time>
      </trkpt>
      <trkpt lat="43.92453" lon="1.89377">
        <ele>153.9</ele>
        <time>2016-08-27T08:21:53Z</time>
      </trkpt>
      <trkpt lat="43.92457" lon="1.89375">
        <ele>154</ele>
        <time>2016-08-27T08:21:54Z</time>
      </trkpt>
      <trkpt lat="43.9246" lon="1.89373">
        <ele>154</ele>
        <time>2016-08-27T08:21:55Z</time>
      </trkpt>
      <trkpt lat="43.92463" lon="1.89371">
        <ele>154</ele>
        <time>2016-08-27T08:21:56Z</time>
      </trkpt>
      <trkpt lat="43.92466" lon="1.89369">
        <ele>154</ele>
        <time>2016-08-27T08:21:57Z</time>
      </trkpt>
      <trkpt lat="43.92472" lon="1.89369">
        <ele>154</ele>
        <time>2016-08-27T08:21:58Z</time>
      </trkpt>
      <trkpt lat="43.92477" lon="1.89368">
        <ele>154</ele>
        <time>2016-08-27T08:21:59Z</time>
      </trkpt>
      <trkpt lat="43.92484" lon="1.89369">
        <ele>154</ele>
        <time>2016-08-27T08:22:00Z</time>
      </trkpt>
      <trkpt lat="43.9249" lon="1.89372">
        <ele>154</ele>
        <time>2016-08-27T08:22:01Z</time>
      </trkpt>
      <trkpt lat="43.92495" lon="1.89375">
        <ele>154</ele>
        <time>2016-08-27T08:22:02Z</time>
      </trkpt>
      <trkpt lat="43.92501" lon="1.89377">
        <ele>154</ele>
        <time>2016-08-27T08:22:03Z</time>
      </trkpt>
      <trkpt lat="43.92507" lon="1.89379">
        <ele>153.9</ele>
        <time>2016-08-27T08:22:04Z</time>
      </trkpt>
      <trkpt lat="43.92512" lon="1.89379">
        <ele>153.9</ele>
        <time>2016-08-27T08:22:05Z</time>
      </trkpt>
      <trkpt lat="43.92516" lon="1.89377">
        <ele>154</ele>
        <time>2016-08-27T08:22:06Z</time>
      </trkpt>
      <trkpt lat="43.9252" lon="1.89374">
        <ele>154</ele>
        <time>2016-08-27T08:22:07Z</time>
      </trkpt>
      <trkpt lat="43.92525" lon="1.89371">
        <ele>154</ele>
        <time>2016-08-27T08:22:08Z</time>
      </trkpt>
      <trkpt lat="43.92527" lon="1.89367">
        <ele>154</ele>
        <time>2016-08-27T08:22:09Z</time>
      </trkpt>
      <trkpt lat="43.9253" lon="1.89363">
        <ele>154</ele>
        <time>2016-08-27T08:22:10Z</time>
      </trkpt>
      <trkpt lat="43.92533" lon="1.89355">
        <ele>154</ele>
        <time>2016-08-27T08:22:11Z</time>
      </trkpt>
      <trkpt lat="43.92535" lon="1.8935">
        <ele>154</ele>
        <time>2016-08-27T08:22:12Z</time>
      </trkpt>
      <trkpt lat="43.92538" lon="1.89346">
        <ele>154</ele>
        <time>2016-08-27T08:22:13Z</time>
      </trkpt>
      <trkpt lat="43.92541" lon="1.89342">
        <ele>154</ele>
        <time>2016-08-27T08:22:14Z</time>
      </trkpt>
      <trkpt lat="43.92545" lon="1.89338">
        <ele>154</ele>
        <time>2016-08-27T08:22:15Z</time>
      </trkpt>
      <trkpt lat="43.92549" lon="1.89335">
        <ele>154.1</ele>
        <time>2016-08-27T08:22:16Z</time>
      </trkpt>
      <trkpt lat="43.92555" lon="1.89335">
        <ele>154.2</ele>
        <time>2016-08-27T08:22:17Z</time>
      </trkpt>
      <trkpt lat="43.92561" lon="1.89333">
        <ele>154.2</ele>
        <time>2016-08-27T08:22:18Z</time>
      </trkpt>
      <trkpt lat="43.92564" lon="1.8933">
        <ele>154.3</ele>
        <time>2016-08-27T08:22:19Z</time>
      </trkpt>
      <trkpt lat="43.92571" lon="1.89326">
        <ele>154.3</ele>
        <time>2016-08-27T08:22:20Z</time>
      </trkpt>
      <trkpt lat="43.92576" lon="1.89323">
        <ele>154.4</ele>
        <time>2016-08-27T08:22:21Z</time>
      </trkpt>
      <trkpt lat="43.9258" lon="1.89322">
        <ele>154.5</ele>
        <time>2016-08-27T08:22:22Z</time>
      </trkpt>
      <trkpt lat="43.92584" lon="1.89317">
        <ele>154.5</ele>
        <time>2016-08-27T08:22:24Z</time>
      </trkpt>
      <trkpt lat="43.92588" lon="1.89315">
        <ele>154.6</ele>
        <time>2016-08-27T08:22:25Z</time>
      </trkpt>
      <trkpt lat="43.92593" lon="1.89314">
        <ele>154.6</ele>
        <time>2016-08-27T08:22:26Z</time>
      </trkpt>
      <trkpt lat="43.92596" lon="1.89312">
        <ele>154.7</ele>
        <time>2016-08-27T08:22:27Z</time>
      </trkpt>
      <trkpt lat="43.926" lon="1.8931">
        <ele>154.7</ele>
        <time>2016-08-27T08:22:28Z</time>
      </trkpt>
      <trkpt lat="43.92604" lon="1.89308">
        <ele>154.8</ele>
        <time>2016-08-27T08:22:29Z</time>
      </trkpt>
      <trkpt lat="43.9261" lon="1.89308">
        <ele>154.8</ele>
        <time>2016-08-27T08:22:30Z</time>
      </trkpt>
      <trkpt lat="43.92612" lon="1.89306">
        <ele>154.8</ele>
        <time>2016-08-27T08:22:31Z</time>
      </trkpt>
      <trkpt lat="43.92616" lon="1.89304">
        <ele>154.9</ele>
        <time>2016-08-27T08:22:32Z</time>
      </trkpt>
      <trkpt lat="43.92619" lon="1.89302">
        <ele>154.9</ele>
        <time>2016-08-27T08:22:33Z</time>
      </trkpt>
      <trkpt lat="43.92623" lon="1.893">
        <ele>155</ele>
        <time>2016-08-27T08:22:34Z</time>
      </trkpt>
      <trkpt lat="43.92627" lon="1.89298">
        <ele>155</ele>
        <time>2016-08-27T08:22:35Z</time>
      </trkpt>
      <trkpt lat="43.9263" lon="1.89296">
        <ele>155.1</ele>
        <time>2016-08-27T08:22:36Z</time>
      </trkpt>
      <trkpt lat="43.92634" lon="1.89295">
        <ele>155.2</ele>
        <time>2016-08-27T08:22:37Z</time>
      </trkpt>
      <trkpt lat="43.92638" lon="1.89293">
        <ele>155.3</ele>
        <time>2016-08-27T08:22:38Z</time>
      </trkpt>
      <trkpt lat="43.92642" lon="1.89291">
        <ele>155.4</ele>
        <time>2016-08-27T08:22:39Z</time>
      </trkpt>
      <trkpt lat="43.92645" lon="1.8929">
        <ele>155.5</ele>
        <time>2016-08-27T08:22:40Z</time>
      </trkpt>
      <trkpt lat="43.92648" lon="1.89288">
        <ele>155.6</ele>
        <time>2016-08-27T08:22:41Z</time>
      </trkpt>
      <trkpt lat="43.92651" lon="1.89286">
        <ele>155.7</ele>
        <time>2016-08-27T08:22:42Z</time>
      </trkpt>
      <trkpt lat="43.92654" lon="1.89284">
        <ele>155.8</ele>
        <time>2016-08-27T08:22:43Z</time>
      </trkpt>
      <trkpt lat="43.92657" lon="1.89283">
        <ele>155.8</ele>
        <time>2016-08-27T08:22:44Z</time>
      </trkpt>
      <trkpt lat="43.92661" lon="1.89282">
        <ele>155.9</ele>
        <time>2016-08-27T08:22:45Z</time>
      </trkpt>
      <trkpt lat="43.92665" lon="1.8928">
        <ele>156</ele>
        <time>2016-08-27T08:22:46Z</time>
      </trkpt>
      <trkpt lat="43.92668" lon="1.89278">
        <ele>156.1</ele>
        <time>2016-08-27T08:22:47Z</time>
      </trkpt>
      <trkpt lat="43.92672" lon="1.89277">
        <ele>156.2</ele>
        <time>2016-08-27T08:22:48Z</time>
      </trkpt>
      <trkpt lat="43.92675" lon="1.89275">
        <ele>156.3</ele>
        <time>2016-08-27T08:22:49Z</time>
      </trkpt>
      <trkpt lat="43.92679" lon="1.89274">
        <ele>156.4</ele>
        <time>2016-08-27T08:22:50Z</time>
      </trkpt>
      <trkpt lat="43.92682" lon="1.89272">
        <ele>156.4</ele>
        <time>2016-08-27T08:22:51Z</time>
      </trkpt>
      <trkpt lat="43.92685" lon="1.8927">
        <ele>156.5</ele>
        <time>2016-08-27T08:22:52Z</time>
      </trkpt>
      <trkpt lat="43.92688" lon="1.89268">
        <ele>156.6</ele>
        <time>2016-08-27T08:22:53Z</time>
      </trkpt>
      <trkpt lat="43.92691" lon="1.89265">
        <ele>156.7</ele>
        <time>2016-08-27T08:22:54Z</time>
      </trkpt>
      <trkpt lat="43.92695" lon="1.89263">
        <ele>156.7</ele>
        <time>2016-08-27T08:22:55Z</time>
      </trkpt>
      <trkpt lat="43.92699" lon="1.89261">
        <ele>156.8</ele>
        <time>2016-08-27T08:22:56Z</time>
      </trkpt>
      <trkpt lat="43.92707" lon="1.89261">
        <ele>157</ele>
        <time>2016-08-27T08:22:57Z</time>
      </trkpt>
      <trkpt lat="43.92712" lon="1.89258">
        <ele>157</ele>
        <time>2016-08-27T08:22:58Z</time>
      </trkpt>
      <trkpt lat="43.92718" lon="1.89257">
        <ele>157</ele>
        <time>2016-08-27T08:22:59Z</time>
      </trkpt>
      <trkpt lat="43.92724" lon="1.89254">
        <ele>156.9</ele>
        <time>2016-08-27T08:23:00Z</time>
      </trkpt>
      <trkpt lat="43.92729" lon="1.89251">
        <ele>156.9</ele>
        <time>2016-08-27T08:23:01Z</time>
      </trkpt>
      <trkpt lat="43.92734" lon="1.89247">
        <ele>156.8</ele>
        <time>2016-08-27T08:23:02Z</time>
      </trkpt>
      <trkpt lat="43.9274" lon="1.89245">
        <ele>156.8</ele>
        <time>2016-08-27T08:23:03Z</time>
      </trkpt>
      <trkpt lat="43.92744" lon="1.89243">
        <ele>156.8</ele>
        <time>2016-08-27T08:23:04Z</time>
      </trkpt>
      <trkpt lat="43.92748" lon="1.8924">
        <ele>156.7</ele>
        <time>2016-08-27T08:23:05Z</time>
      </trkpt>
      <trkpt lat="43.92753" lon="1.89239">
        <ele>156.7</ele>
        <time>2016-08-27T08:23:06Z</time>
      </trkpt>
      <trkpt lat="43.92757" lon="1.89236">
        <ele>156.6</ele>
        <time>2016-08-27T08:23:07Z</time>
      </trkpt>
      <trkpt lat="43.92763" lon="1.89234">
        <ele>156.5</ele>
        <time>2016-08-27T08:23:08Z</time>
      </trkpt>
      <trkpt lat="43.92767" lon="1.89231">
        <ele>156.5</ele>
        <time>2016-08-27T08:23:09Z</time>
      </trkpt>
      <trkpt lat="43.92772" lon="1.89228">
        <ele>156.4</ele>
        <time>2016-08-27T08:23:10Z</time>
      </trkpt>
      <trkpt lat="43.92775" lon="1.89226">
        <ele>156.4</ele>
        <time>2016-08-27T08:23:11Z</time>
      </trkpt>
      <trkpt lat="43.92781" lon="1.89223">
        <ele>156.3</ele>
        <time>2016-08-27T08:23:12Z</time>
      </trkpt>
      <trkpt lat="43.92786" lon="1.8922">
        <ele>156.2</ele>
        <time>2016-08-27T08:23:13Z</time>
      </trkpt>
      <trkpt lat="43.92792" lon="1.8922">
        <ele>156.1</ele>
        <time>2016-08-27T08:23:14Z</time>
      </trkpt>
      <trkpt lat="43.92797" lon="1.89216">
        <ele>156.1</ele>
        <time>2016-08-27T08:23:15Z</time>
      </trkpt>
      <trkpt lat="43.92802" lon="1.89214">
        <ele>156.1</ele>
        <time>2016-08-27T08:23:16Z</time>
      </trkpt>
      <trkpt lat="43.92805" lon="1.89213">
        <ele>156</ele>
        <time>2016-08-27T08:23:17Z</time>
      </trkpt>
      <trkpt lat="43.92809" lon="1.89209">
        <ele>156</ele>
        <time>2016-08-27T08:23:18Z</time>
      </trkpt>
      <trkpt lat="43.92813" lon="1.89206">
        <ele>156</ele>
        <time>2016-08-27T08:23:19Z</time>
      </trkpt>
      <trkpt lat="43.92817" lon="1.89203">
        <ele>156</ele>
        <time>2016-08-27T08:23:20Z</time>
      </trkpt>
      <trkpt lat="43.92822" lon="1.89202">
        <ele>156.1</ele>
        <time>2016-08-27T08:23:21Z</time>
      </trkpt>
      <trkpt lat="43.92828" lon="1.89201">
        <ele>156.1</ele>
        <time>2016-08-27T08:23:22Z</time>
      </trkpt>
      <trkpt lat="43.92833" lon="1.89198">
        <ele>156.1</ele>
        <time>2016-08-27T08:23:23Z</time>
      </trkpt>
      <trkpt lat="43.92839" lon="1.89197">
        <ele>156.2</ele>
        <time>2016-08-27T08:23:24Z</time>
      </trkpt>
      <trkpt lat="43.92843" lon="1.89193">
        <ele>156.2</ele>
        <time>2016-08-27T08:23:25Z</time>
      </trkpt>
      <trkpt lat="43.92848" lon="1.89191">
        <ele>156.3</ele>
        <time>2016-08-27T08:23:26Z</time>
      </trkpt>
      <trkpt lat="43.92852" lon="1.8919">
        <ele>156.3</ele>
        <time>2016-08-27T08:23:27Z</time>
      </trkpt>
      <trkpt lat="43.92856" lon="1.89187">
        <ele>156.4</ele>
        <time>2016-08-27T08:23:28Z</time>
      </trkpt>
      <trkpt lat="43.92861" lon="1.89186">
        <ele>156.5</ele>
        <time>2016-08-27T08:23:29Z</time>
      </trkpt>
      <trkpt lat="43.92867" lon="1.89184">
        <ele>156.5</ele>
        <time>2016-08-27T08:23:30Z</time>
      </trkpt>
      <trkpt lat="43.92872" lon="1.89182">
        <ele>156.6</ele>
        <time>2016-08-27T08:23:31Z</time>
      </trkpt>
      <trkpt lat="43.92874" lon="1.89179">
        <ele>156.7</ele>
        <time>2016-08-27T08:23:32Z</time>
      </trkpt>
      <trkpt lat="43.9288" lon="1.89177">
        <ele>157</ele>
        <time>2016-08-27T08:23:33Z</time>
      </trkpt>
      <trkpt lat="43.92883" lon="1.89174">
        <ele>157.1</ele>
        <time>2016-08-27T08:23:34Z</time>
      </trkpt>
      <trkpt lat="43.92888" lon="1.89173">
        <ele>157.3</ele>
        <time>2016-08-27T08:23:35Z</time>
      </trkpt>
      <trkpt lat="43.92893" lon="1.89171">
        <ele>157.5</ele>
        <time>2016-08-27T08:23:36Z</time>
      </trkpt>
      <trkpt lat="43.92897" lon="1.89169">
        <ele>157.7</ele>
        <time>2016-08-27T08:23:37Z</time>
      </trkpt>
      <trkpt lat="43.92902" lon="1.89166">
        <ele>158</ele>
        <time>2016-08-27T08:23:38Z</time>
      </trkpt>
      <trkpt lat="43.92908" lon="1.89163">
        <ele>158.3</ele>
        <time>2016-08-27T08:23:39Z</time>
      </trkpt>
      <trkpt lat="43.92912" lon="1.89161">
        <ele>158.5</ele>
        <time>2016-08-27T08:23:40Z</time>
      </trkpt>
      <trkpt lat="43.92917" lon="1.89159">
        <ele>158.7</ele>
        <time>2016-08-27T08:23:41Z</time>
      </trkpt>
      <trkpt lat="43.92923" lon="1.89157">
        <ele>158.9</ele>
        <time>2016-08-27T08:23:42Z</time>
      </trkpt>
      <trkpt lat="43.92926" lon="1.89154">
        <ele>159.2</ele>
        <time>2016-08-27T08:23:43Z</time>
      </trkpt>
      <trkpt lat="43.92931" lon="1.8915">
        <ele>159.4</ele>
        <time>2016-08-27T08:23:44Z</time>
      </trkpt>
      <trkpt lat="43.92936" lon="1.89149">
        <ele>159.6</ele>
        <time>2016-08-27T08:23:45Z</time>
      </trkpt>
      <trkpt lat="43.9294" lon="1.89144">
        <ele>159.9</ele>
        <time>2016-08-27T08:23:46Z</time>
      </trkpt>
      <trkpt lat="43.92945" lon="1.89141">
        <ele>160.1</ele>
        <time>2016-08-27T08:23:47Z</time>
      </trkpt>
      <trkpt lat="43.92949" lon="1.89139">
        <ele>160.3</ele>
        <time>2016-08-27T08:23:48Z</time>
      </trkpt>
      <trkpt lat="43.92953" lon="1.89136">
        <ele>160.5</ele>
        <time>2016-08-27T08:23:49Z</time>
      </trkpt>
      <trkpt lat="43.92959" lon="1.89134">
        <ele>160.8</ele>
        <time>2016-08-27T08:23:50Z</time>
      </trkpt>
      <trkpt lat="43.92963" lon="1.89132">
        <ele>160.8</ele>
        <time>2016-08-27T08:23:51Z</time>
      </trkpt>
      <trkpt lat="43.92968" lon="1.8913">
        <ele>160.8</ele>
        <time>2016-08-27T08:23:52Z</time>
      </trkpt>
      <trkpt lat="43.92973" lon="1.89128">
        <ele>160.8</ele>
        <time>2016-08-27T08:23:53Z</time>
      </trkpt>
      <trkpt lat="43.92979" lon="1.89127">
        <ele>160.7</ele>
        <time>2016-08-27T08:23:54Z</time>
      </trkpt>
      <trkpt lat="43.92983" lon="1.89124">
        <ele>160.7</ele>
        <time>2016-08-27T08:23:55Z</time>
      </trkpt>
      <trkpt lat="43.92988" lon="1.89121">
        <ele>160.7</ele>
        <time>2016-08-27T08:23:56Z</time>
      </trkpt>
      <trkpt lat="43.92994" lon="1.8912">
        <ele>160.7</ele>
        <time>2016-08-27T08:23:57Z</time>
      </trkpt>
      <trkpt lat="43.92997" lon="1.89119">
        <ele>160.6</ele>
        <time>2016-08-27T08:23:58Z</time>
      </trkpt>
      <trkpt lat="43.93" lon="1.89117">
        <ele>160.6</ele>
        <time>2016-08-27T08:23:59Z</time>
      </trkpt>
      <trkpt lat="43.93006" lon="1.89115">
        <ele>160.6</ele>
        <time>2016-08-27T08:24:00Z</time>
      </trkpt>
      <trkpt lat="43.93011" lon="1.89114">
        <ele>160.5</ele>
        <time>2016-08-27T08:24:01Z</time>
      </trkpt>
      <trkpt lat="43.93017" lon="1.8911">
        <ele>160.5</ele>
        <time>2016-08-27T08:24:02Z</time>
      </trkpt>
      <trkpt lat="43.93022" lon="1.89108">
        <ele>160.5</ele>
        <time>2016-08-27T08:24:03Z</time>
      </trkpt>
      <trkpt lat="43.93026" lon="1.89106">
        <ele>160.5</ele>
        <time>2016-08-27T08:24:04Z</time>
      </trkpt>
      <trkpt lat="43.9303" lon="1.89104">
        <ele>160.4</ele>
        <time>2016-08-27T08:24:05Z</time>
      </trkpt>
      <trkpt lat="43.93036" lon="1.89103">
        <ele>160.3</ele>
        <time>2016-08-27T08:24:06Z</time>
      </trkpt>
      <trkpt lat="43.93042" lon="1.89102">
        <ele>160.3</ele>
        <time>2016-08-27T08:24:07Z</time>
      </trkpt>
      <trkpt lat="43.93047" lon="1.89099">
        <ele>160.3</ele>
        <time>2016-08-27T08:24:08Z</time>
      </trkpt>
      <trkpt lat="43.93053" lon="1.89097">
        <ele>160.2</ele>
        <time>2016-08-27T08:24:09Z</time>
      </trkpt>
      <trkpt lat="43.93057" lon="1.89095">
        <ele>160.2</ele>
        <time>2016-08-27T08:24:10Z</time>
      </trkpt>
      <trkpt lat="43.93063" lon="1.89092">
        <ele>160.2</ele>
        <time>2016-08-27T08:24:12Z</time>
      </trkpt>
      <trkpt lat="43.93068" lon="1.89089">
        <ele>160.2</ele>
        <time>2016-08-27T08:24:13Z</time>
      </trkpt>
      <trkpt lat="43.93073" lon="1.89087">
        <ele>160.3</ele>
        <time>2016-08-27T08:24:14Z</time>
      </trkpt>
      <trkpt lat="43.93077" lon="1.89084">
        <ele>160.3</ele>
        <time>2016-08-27T08:24:15Z</time>
      </trkpt>
      <trkpt lat="43.93082" lon="1.89081">
        <ele>160.3</ele>
        <time>2016-08-27T08:24:16Z</time>
      </trkpt>
      <trkpt lat="43.93086" lon="1.8908">
        <ele>160.3</ele>
        <time>2016-08-27T08:24:17Z</time>
      </trkpt>
      <trkpt lat="43.93092" lon="1.89079">
        <ele>160.3</ele>
        <time>2016-08-27T08:24:18Z</time>
      </trkpt>
      <trkpt lat="43.93096" lon="1.89077">
        <ele>160.3</ele>
        <time>2016-08-27T08:24:19Z</time>
      </trkpt>
      <trkpt lat="43.931" lon="1.89074">
        <ele>160.3</ele>
        <time>2016-08-27T08:24:20Z</time>
      </trkpt>
      <trkpt lat="43.93105" lon="1.89073">
        <ele>160.3</ele>
        <time>2016-08-27T08:24:21Z</time>
      </trkpt>
      <trkpt lat="43.93109" lon="1.89068">
        <ele>160.4</ele>
        <time>2016-08-27T08:24:22Z</time>
      </trkpt>
      <trkpt lat="43.93116" lon="1.89065">
        <ele>160.5</ele>
        <time>2016-08-27T08:24:23Z</time>
      </trkpt>
      <trkpt lat="43.93121" lon="1.89063">
        <ele>160.5</ele>
        <time>2016-08-27T08:24:24Z</time>
      </trkpt>
      <trkpt lat="43.93125" lon="1.8906">
        <ele>160.6</ele>
        <time>2016-08-27T08:24:25Z</time>
      </trkpt>
      <trkpt lat="43.93128" lon="1.89056">
        <ele>160.6</ele>
        <time>2016-08-27T08:24:26Z</time>
      </trkpt>
      <trkpt lat="43.93134" lon="1.89054">
        <ele>160.7</ele>
        <time>2016-08-27T08:24:27Z</time>
      </trkpt>
      <trkpt lat="43.93136" lon="1.89054">
        <ele>160.6</ele>
        <time>2016-08-27T08:24:28Z</time>
      </trkpt>
      <trkpt lat="43.93143" lon="1.89053">
        <ele>160.6</ele>
        <time>2016-08-27T08:24:29Z</time>
      </trkpt>
      <trkpt lat="43.9315" lon="1.89051">
        <ele>160.6</ele>
        <time>2016-08-27T08:24:31Z</time>
      </trkpt>
      <trkpt lat="43.93157" lon="1.89046">
        <ele>160.6</ele>
        <time>2016-08-27T08:24:32Z</time>
      </trkpt>
      <trkpt lat="43.93162" lon="1.89044">
        <ele>160.5</ele>
        <time>2016-08-27T08:24:33Z</time>
      </trkpt>
      <trkpt lat="43.93167" lon="1.89042">
        <ele>160.5</ele>
        <time>2016-08-27T08:24:34Z</time>
      </trkpt>
      <trkpt lat="43.93171" lon="1.89039">
        <ele>160.5</ele>
        <time>2016-08-27T08:24:35Z</time>
      </trkpt>
      <trkpt lat="43.93177" lon="1.89036">
        <ele>160.4</ele>
        <time>2016-08-27T08:24:36Z</time>
      </trkpt>
      <trkpt lat="43.93182" lon="1.89033">
        <ele>160.4</ele>
        <time>2016-08-27T08:24:37Z</time>
      </trkpt>
      <trkpt lat="43.93185" lon="1.89031">
        <ele>160.4</ele>
        <time>2016-08-27T08:24:38Z</time>
      </trkpt>
      <trkpt lat="43.93189" lon="1.89029">
        <ele>160.4</ele>
        <time>2016-08-27T08:24:39Z</time>
      </trkpt>
      <trkpt lat="43.93194" lon="1.89027">
        <ele>160.4</ele>
        <time>2016-08-27T08:24:40Z</time>
      </trkpt>
      <trkpt lat="43.93196" lon="1.89023">
        <ele>160.4</ele>
        <time>2016-08-27T08:24:41Z</time>
      </trkpt>
      <trkpt lat="43.93204" lon="1.89021">
        <ele>160.3</ele>
        <time>2016-08-27T08:24:42Z</time>
      </trkpt>
      <trkpt lat="43.93209" lon="1.89019">
        <ele>160.3</ele>
        <time>2016-08-27T08:24:43Z</time>
      </trkpt>
      <trkpt lat="43.93214" lon="1.89015">
        <ele>160.6</ele>
        <time>2016-08-27T08:24:45Z</time>
      </trkpt>
      <trkpt lat="43.93219" lon="1.89011">
        <ele>160.8</ele>
        <time>2016-08-27T08:24:46Z</time>
      </trkpt>
      <trkpt lat="43.93224" lon="1.89009">
        <ele>161</ele>
        <time>2016-08-27T08:24:47Z</time>
      </trkpt>
      <trkpt lat="43.93228" lon="1.89007">
        <ele>161.2</ele>
        <time>2016-08-27T08:24:48Z</time>
      </trkpt>
      <trkpt lat="43.93232" lon="1.89006">
        <ele>161.4</ele>
        <time>2016-08-27T08:24:49Z</time>
      </trkpt>
      <trkpt lat="43.93236" lon="1.89005">
        <ele>161.5</ele>
        <time>2016-08-27T08:24:50Z</time>
      </trkpt>
      <trkpt lat="43.9324" lon="1.89003">
        <ele>161.7</ele>
        <time>2016-08-27T08:24:51Z</time>
      </trkpt>
      <trkpt lat="43.93246" lon="1.89001">
        <ele>161.9</ele>
        <time>2016-08-27T08:24:52Z</time>
      </trkpt>
      <trkpt lat="43.9325" lon="1.89">
        <ele>162</ele>
        <time>2016-08-27T08:24:53Z</time>
      </trkpt>
      <trkpt lat="43.93256" lon="1.88997">
        <ele>162.2</ele>
        <time>2016-08-27T08:24:54Z</time>
      </trkpt>
      <trkpt lat="43.93261" lon="1.88994">
        <ele>162.3</ele>
        <time>2016-08-27T08:24:55Z</time>
      </trkpt>
      <trkpt lat="43.93266" lon="1.88991">
        <ele>162.4</ele>
        <time>2016-08-27T08:24:56Z</time>
      </trkpt>
      <trkpt lat="43.93274" lon="1.8899">
        <ele>162.6</ele>
        <time>2016-08-27T08:24:57Z</time>
      </trkpt>
      <trkpt lat="43.9328" lon="1.88988">
        <ele>162.7</ele>
        <time>2016-08-27T08:24:58Z</time>
      </trkpt>
      <trkpt lat="43.93287" lon="1.88983">
        <ele>162.8</ele>
        <time>2016-08-27T08:25:00Z</time>
      </trkpt>
      <trkpt lat="43.93293" lon="1.88982">
        <ele>162.9</ele>
        <time>2016-08-27T08:25:01Z</time>
      </trkpt>
      <trkpt lat="43.93295" lon="1.88979">
        <ele>162.8</ele>
        <time>2016-08-27T08:25:02Z</time>
      </trkpt>
      <trkpt lat="43.933" lon="1.88977">
        <ele>163</ele>
        <time>2016-08-27T08:25:03Z</time>
      </trkpt>
      <trkpt lat="43.93305" lon="1.88975">
        <ele>163.1</ele>
        <time>2016-08-27T08:25:04Z</time>
      </trkpt>
      <trkpt lat="43.93307" lon="1.88972">
        <ele>163</ele>
        <time>2016-08-27T08:25:05Z</time>
      </trkpt>
      <trkpt lat="43.9331" lon="1.8897">
        <ele>163.1</ele>
        <time>2016-08-27T08:25:06Z</time>
      </trkpt>
      <trkpt lat="43.93314" lon="1.8897">
        <ele>163.2</ele>
        <time>2016-08-27T08:25:07Z</time>
      </trkpt>
      <trkpt lat="43.93316" lon="1.88967">
        <ele>163.2</ele>
        <time>2016-08-27T08:25:08Z</time>
      </trkpt>
      <trkpt lat="43.93321" lon="1.88966">
        <ele>163.3</ele>
        <time>2016-08-27T08:25:09Z</time>
      </trkpt>
      <trkpt lat="43.93327" lon="1.88963">
        <ele>163.4</ele>
        <time>2016-08-27T08:25:10Z</time>
      </trkpt>
      <trkpt lat="43.93332" lon="1.88961">
        <ele>163.5</ele>
        <time>2016-08-27T08:25:11Z</time>
      </trkpt>
      <trkpt lat="43.93335" lon="1.88959">
        <ele>163.6</ele>
        <time>2016-08-27T08:25:12Z</time>
      </trkpt>
      <trkpt lat="43.93339" lon="1.88957">
        <ele>163.7</ele>
        <time>2016-08-27T08:25:13Z</time>
      </trkpt>
      <trkpt lat="43.93343" lon="1.88955">
        <ele>163.8</ele>
        <time>2016-08-27T08:25:14Z</time>
      </trkpt>
      <trkpt lat="43.93347" lon="1.88951">
        <ele>163.9</ele>
        <time>2016-08-27T08:25:15Z</time>
      </trkpt>
      <trkpt lat="43.93352" lon="1.88949">
        <ele>164</ele>
        <time>2016-08-27T08:25:16Z</time>
      </trkpt>
      <trkpt lat="43.93356" lon="1.88948">
        <ele>164.1</ele>
        <time>2016-08-27T08:25:17Z</time>
      </trkpt>
      <trkpt lat="43.9336" lon="1.88945">
        <ele>164.2</ele>
        <time>2016-08-27T08:25:18Z</time>
      </trkpt>
      <trkpt lat="43.93365" lon="1.88943">
        <ele>164.3</ele>
        <time>2016-08-27T08:25:19Z</time>
      </trkpt>
      <trkpt lat="43.9337" lon="1.88941">
        <ele>164.4</ele>
        <time>2016-08-27T08:25:20Z</time>
      </trkpt>
      <trkpt lat="43.93374" lon="1.88939">
        <ele>164.5</ele>
        <time>2016-08-27T08:25:21Z</time>
      </trkpt>
      <trkpt lat="43.93378" lon="1.88936">
        <ele>164.5</ele>
        <time>2016-08-27T08:25:22Z</time>
      </trkpt>
      <trkpt lat="43.93382" lon="1.88934">
        <ele>164.5</ele>
        <time>2016-08-27T08:25:23Z</time>
      </trkpt>
      <trkpt lat="43.93386" lon="1.88932">
        <ele>164.5</ele>
        <time>2016-08-27T08:25:24Z</time>
      </trkpt>
      <trkpt lat="43.9339" lon="1.88931">
        <ele>164.5</ele>
        <time>2016-08-27T08:25:25Z</time>
      </trkpt>
      <trkpt lat="43.93395" lon="1.88929">
        <ele>164.5</ele>
        <time>2016-08-27T08:25:26Z</time>
      </trkpt>
      <trkpt lat="43.934" lon="1.88927">
        <ele>164.6</ele>
        <time>2016-08-27T08:25:27Z</time>
      </trkpt>
      <trkpt lat="43.93404" lon="1.88926">
        <ele>164.6</ele>
        <time>2016-08-27T08:25:28Z</time>
      </trkpt>
      <trkpt lat="43.93408" lon="1.88924">
        <ele>164.6</ele>
        <time>2016-08-27T08:25:29Z</time>
      </trkpt>
      <trkpt lat="43.93412" lon="1.88922">
        <ele>164.6</ele>
        <time>2016-08-27T08:25:30Z</time>
      </trkpt>
      <trkpt lat="43.93415" lon="1.88921">
        <ele>164.6</ele>
        <time>2016-08-27T08:25:31Z</time>
      </trkpt>
      <trkpt lat="43.93419" lon="1.88919">
        <ele>164.6</ele>
        <time>2016-08-27T08:25:32Z</time>
      </trkpt>
      <trkpt lat="43.93424" lon="1.88918">
        <ele>164.6</ele>
        <time>2016-08-27T08:25:33Z</time>
      </trkpt>
      <trkpt lat="43.93429" lon="1.88917">
        <ele>164.7</ele>
        <time>2016-08-27T08:25:34Z</time>
      </trkpt>
      <trkpt lat="43.93433" lon="1.88917">
        <ele>164.7</ele>
        <time>2016-08-27T08:25:35Z</time>
      </trkpt>
      <trkpt lat="43.93437" lon="1.88912">
        <ele>164.6</ele>
        <time>2016-08-27T08:25:36Z</time>
      </trkpt>
      <trkpt lat="43.93442" lon="1.8891">
        <ele>164.6</ele>
        <time>2016-08-27T08:25:37Z</time>
      </trkpt>
      <trkpt lat="43.93446" lon="1.88908">
        <ele>164.6</ele>
        <time>2016-08-27T08:25:38Z</time>
      </trkpt>
      <trkpt lat="43.93449" lon="1.88906">
        <ele>164.6</ele>
        <time>2016-08-27T08:25:39Z</time>
      </trkpt>
      <trkpt lat="43.93452" lon="1.88904">
        <ele>164.6</ele>
        <time>2016-08-27T08:25:40Z</time>
      </trkpt>
      <trkpt lat="43.93456" lon="1.88902">
        <ele>164.6</ele>
        <time>2016-08-27T08:25:41Z</time>
      </trkpt>
      <trkpt lat="43.9346" lon="1.889">
        <ele>164.7</ele>
        <time>2016-08-27T08:25:42Z</time>
      </trkpt>
      <trkpt lat="43.93465" lon="1.88898">
        <ele>164.9</ele>
        <time>2016-08-27T08:25:43Z</time>
      </trkpt>
      <trkpt lat="43.93468" lon="1.88895">
        <ele>165</ele>
        <time>2016-08-27T08:25:44Z</time>
      </trkpt>
      <trkpt lat="43.93472" lon="1.88893">
        <ele>165.1</ele>
        <time>2016-08-27T08:25:45Z</time>
      </trkpt>
      <trkpt lat="43.93477" lon="1.8889">
        <ele>165.2</ele>
        <time>2016-08-27T08:25:46Z</time>
      </trkpt>
      <trkpt lat="43.9348" lon="1.88888">
        <ele>165.3</ele>
        <time>2016-08-27T08:25:47Z</time>
      </trkpt>
      <trkpt lat="43.93483" lon="1.88886">
        <ele>165.3</ele>
        <time>2016-08-27T08:25:48Z</time>
      </trkpt>
      <trkpt lat="43.93487" lon="1.88884">
        <ele>165.4</ele>
        <time>2016-08-27T08:25:49Z</time>
      </trkpt>
      <trkpt lat="43.9349" lon="1.88882">
        <ele>165.5</ele>
        <time>2016-08-27T08:25:50Z</time>
      </trkpt>
      <trkpt lat="43.93494" lon="1.8888">
        <ele>165.5</ele>
        <time>2016-08-27T08:25:51Z</time>
      </trkpt>
      <trkpt lat="43.93498" lon="1.88878">
        <ele>165.6</ele>
        <time>2016-08-27T08:25:52Z</time>
      </trkpt>
      <trkpt lat="43.93501" lon="1.88876">
        <ele>165.6</ele>
        <time>2016-08-27T08:25:53Z</time>
      </trkpt>
      <trkpt lat="43.93506" lon="1.88874">
        <ele>165.7</ele>
        <time>2016-08-27T08:25:54Z</time>
      </trkpt>
      <trkpt lat="43.93513" lon="1.88873">
        <ele>165.9</ele>
        <time>2016-08-27T08:25:55Z</time>
      </trkpt>
      <trkpt lat="43.93518" lon="1.88871">
        <ele>166.1</ele>
        <time>2016-08-27T08:25:56Z</time>
      </trkpt>
      <trkpt lat="43.93523" lon="1.88869">
        <ele>166.3</ele>
        <time>2016-08-27T08:25:57Z</time>
      </trkpt>
      <trkpt lat="43.93525" lon="1.88868">
        <ele>166.3</ele>
        <time>2016-08-27T08:25:58Z</time>
      </trkpt>
      <trkpt lat="43.93529" lon="1.88866">
        <ele>166.5</ele>
        <time>2016-08-27T08:25:59Z</time>
      </trkpt>
      <trkpt lat="43.93533" lon="1.88866">
        <ele>166.6</ele>
        <time>2016-08-27T08:26:00Z</time>
      </trkpt>
      <trkpt lat="43.93537" lon="1.88862">
        <ele>166.7</ele>
        <time>2016-08-27T08:26:01Z</time>
      </trkpt>
      <trkpt lat="43.93539" lon="1.88859">
        <ele>166.7</ele>
        <time>2016-08-27T08:26:02Z</time>
      </trkpt>
      <trkpt lat="43.93543" lon="1.88857">
        <ele>166.8</ele>
        <time>2016-08-27T08:26:03Z</time>
      </trkpt>
      <trkpt lat="43.93546" lon="1.88856">
        <ele>167</ele>
        <time>2016-08-27T08:26:04Z</time>
      </trkpt>
      <trkpt lat="43.93549" lon="1.88855">
        <ele>167.2</ele>
        <time>2016-08-27T08:26:05Z</time>
      </trkpt>
      <trkpt lat="43.93552" lon="1.88854">
        <ele>167.4</ele>
        <time>2016-08-27T08:26:06Z</time>
      </trkpt>
      <trkpt lat="43.93559" lon="1.88851">
        <ele>167.7</ele>
        <time>2016-08-27T08:26:08Z</time>
      </trkpt>
      <trkpt lat="43.93564" lon="1.88849">
        <ele>167.9</ele>
        <time>2016-08-27T08:26:09Z</time>
      </trkpt>
      <trkpt lat="43.93567" lon="1.88847">
        <ele>168.1</ele>
        <time>2016-08-27T08:26:10Z</time>
      </trkpt>
      <trkpt lat="43.93569" lon="1.88844">
        <ele>168.1</ele>
        <time>2016-08-27T08:26:11Z</time>
      </trkpt>
      <trkpt lat="43.93573" lon="1.88842">
        <ele>168.3</ele>
        <time>2016-08-27T08:26:13Z</time>
      </trkpt>
      <trkpt lat="43.93579" lon="1.8884">
        <ele>168.5</ele>
        <time>2016-08-27T08:26:15Z</time>
      </trkpt>
      <trkpt lat="43.93582" lon="1.88838">
        <ele>168.6</ele>
        <time>2016-08-27T08:26:16Z</time>
      </trkpt>
      <trkpt lat="43.93585" lon="1.88835">
        <ele>168.7</ele>
        <time>2016-08-27T08:26:17Z</time>
      </trkpt>
      <trkpt lat="43.93588" lon="1.88833">
        <ele>168.7</ele>
        <time>2016-08-27T08:26:18Z</time>
      </trkpt>
      <trkpt lat="43.93591" lon="1.88832">
        <ele>168.8</ele>
        <time>2016-08-27T08:26:19Z</time>
      </trkpt>
      <trkpt lat="43.93594" lon="1.88829">
        <ele>168.9</ele>
        <time>2016-08-27T08:26:20Z</time>
      </trkpt>
      <trkpt lat="43.93597" lon="1.88827">
        <ele>168.9</ele>
        <time>2016-08-27T08:26:21Z</time>
      </trkpt>
      <trkpt lat="43.936" lon="1.88826">
        <ele>169</ele>
        <time>2016-08-27T08:26:22Z</time>
      </trkpt>
      <trkpt lat="43.93604" lon="1.88825">
        <ele>169.1</ele>
        <time>2016-08-27T08:26:23Z</time>
      </trkpt>
      <trkpt lat="43.93607" lon="1.88825">
        <ele>169.2</ele>
        <time>2016-08-27T08:26:24Z</time>
      </trkpt>
      <trkpt lat="43.93611" lon="1.88824">
        <ele>169.3</ele>
        <time>2016-08-27T08:26:25Z</time>
      </trkpt>
      <trkpt lat="43.93614" lon="1.88824">
        <ele>169.4</ele>
        <time>2016-08-27T08:26:26Z</time>
      </trkpt>
      <trkpt lat="43.93617" lon="1.88822">
        <ele>169.5</ele>
        <time>2016-08-27T08:26:27Z</time>
      </trkpt>
      <trkpt lat="43.9362" lon="1.8882">
        <ele>169.5</ele>
        <time>2016-08-27T08:26:28Z</time>
      </trkpt>
      <trkpt lat="43.93623" lon="1.88818">
        <ele>169.5</ele>
        <time>2016-08-27T08:26:29Z</time>
      </trkpt>
      <trkpt lat="43.93627" lon="1.88816">
        <ele>169.5</ele>
        <time>2016-08-27T08:26:30Z</time>
      </trkpt>
      <trkpt lat="43.9363" lon="1.88814">
        <ele>169.6</ele>
        <time>2016-08-27T08:26:31Z</time>
      </trkpt>
      <trkpt lat="43.93635" lon="1.88813">
        <ele>169.8</ele>
        <time>2016-08-27T08:26:32Z</time>
      </trkpt>
      <trkpt lat="43.93639" lon="1.88812">
        <ele>170</ele>
        <time>2016-08-27T08:26:33Z</time>
      </trkpt>
      <trkpt lat="43.93643" lon="1.8881">
        <ele>170</ele>
        <time>2016-08-27T08:26:34Z</time>
      </trkpt>
      <trkpt lat="43.93647" lon="1.88808">
        <ele>170.2</ele>
        <time>2016-08-27T08:26:35Z</time>
      </trkpt>
      <trkpt lat="43.93651" lon="1.88807">
        <ele>170.3</ele>
        <time>2016-08-27T08:26:36Z</time>
      </trkpt>
      <trkpt lat="43.93656" lon="1.88805">
        <ele>170.4</ele>
        <time>2016-08-27T08:26:37Z</time>
      </trkpt>
      <trkpt lat="43.93661" lon="1.88803">
        <ele>170.5</ele>
        <time>2016-08-27T08:26:38Z</time>
      </trkpt>
      <trkpt lat="43.93665" lon="1.88801">
        <ele>170.5</ele>
        <time>2016-08-27T08:26:39Z</time>
      </trkpt>
      <trkpt lat="43.93669" lon="1.88798">
        <ele>170.6</ele>
        <time>2016-08-27T08:26:40Z</time>
      </trkpt>
      <trkpt lat="43.93672" lon="1.88796">
        <ele>170.6</ele>
        <time>2016-08-27T08:26:41Z</time>
      </trkpt>
      <trkpt lat="43.93677" lon="1.88793">
        <ele>170.6</ele>
        <time>2016-08-27T08:26:42Z</time>
      </trkpt>
      <trkpt lat="43.93681" lon="1.88791">
        <ele>170.7</ele>
        <time>2016-08-27T08:26:43Z</time>
      </trkpt>
      <trkpt lat="43.93685" lon="1.88789">
        <ele>170.8</ele>
        <time>2016-08-27T08:26:44Z</time>
      </trkpt>
      <trkpt lat="43.9369" lon="1.88786">
        <ele>170.9</ele>
        <time>2016-08-27T08:26:45Z</time>
      </trkpt>
      <trkpt lat="43.93694" lon="1.88784">
        <ele>171</ele>
        <time>2016-08-27T08:26:46Z</time>
      </trkpt>
      <trkpt lat="43.93698" lon="1.88782">
        <ele>171.1</ele>
        <time>2016-08-27T08:26:47Z</time>
      </trkpt>
      <trkpt lat="43.93702" lon="1.88781">
        <ele>171.2</ele>
        <time>2016-08-27T08:26:48Z</time>
      </trkpt>
      <trkpt lat="43.93707" lon="1.88779">
        <ele>171.3</ele>
        <time>2016-08-27T08:26:49Z</time>
      </trkpt>
      <trkpt lat="43.9371" lon="1.88778">
        <ele>171.5</ele>
        <time>2016-08-27T08:26:50Z</time>
      </trkpt>
      <trkpt lat="43.93716" lon="1.88777">
        <ele>171.9</ele>
        <time>2016-08-27T08:26:51Z</time>
      </trkpt>
      <trkpt lat="43.9372" lon="1.88776">
        <ele>172.2</ele>
        <time>2016-08-27T08:26:52Z</time>
      </trkpt>
      <trkpt lat="43.93724" lon="1.88774">
        <ele>172.4</ele>
        <time>2016-08-27T08:26:53Z</time>
      </trkpt>
      <trkpt lat="43.93728" lon="1.88772">
        <ele>172.7</ele>
        <time>2016-08-27T08:26:54Z</time>
      </trkpt>
      <trkpt lat="43.93731" lon="1.88771">
        <ele>172.9</ele>
        <time>2016-08-27T08:26:55Z</time>
      </trkpt>
      <trkpt lat="43.93735" lon="1.88769">
        <ele>173.2</ele>
        <time>2016-08-27T08:26:56Z</time>
      </trkpt>
      <trkpt lat="43.93739" lon="1.88768">
        <ele>173.4</ele>
        <time>2016-08-27T08:26:57Z</time>
      </trkpt>
      <trkpt lat="43.93743" lon="1.88767">
        <ele>173.8</ele>
        <time>2016-08-27T08:26:58Z</time>
      </trkpt>
      <trkpt lat="43.93747" lon="1.88766">
        <ele>174</ele>
        <time>2016-08-27T08:26:59Z</time>
      </trkpt>
      <trkpt lat="43.93751" lon="1.88765">
        <ele>174.3</ele>
        <time>2016-08-27T08:27:00Z</time>
      </trkpt>
      <trkpt lat="43.93755" lon="1.88763">
        <ele>174.5</ele>
        <time>2016-08-27T08:27:01Z</time>
      </trkpt>
      <trkpt lat="43.93759" lon="1.8876">
        <ele>174.7</ele>
        <time>2016-08-27T08:27:02Z</time>
      </trkpt>
      <trkpt lat="43.93762" lon="1.88758">
        <ele>174.9</ele>
        <time>2016-08-27T08:27:03Z</time>
      </trkpt>
      <trkpt lat="43.93766" lon="1.88757">
        <ele>175.1</ele>
        <time>2016-08-27T08:27:04Z</time>
      </trkpt>
      <trkpt lat="43.93769" lon="1.88755">
        <ele>175.3</ele>
        <time>2016-08-27T08:27:05Z</time>
      </trkpt>
      <trkpt lat="43.93773" lon="1.88754">
        <ele>175.6</ele>
        <time>2016-08-27T08:27:06Z</time>
      </trkpt>
      <trkpt lat="43.93775" lon="1.88752">
        <ele>175.7</ele>
        <time>2016-08-27T08:27:07Z</time>
      </trkpt>
      <trkpt lat="43.93778" lon="1.8875">
        <ele>175.8</ele>
        <time>2016-08-27T08:27:08Z</time>
      </trkpt>
      <trkpt lat="43.93781" lon="1.88748">
        <ele>176</ele>
        <time>2016-08-27T08:27:09Z</time>
      </trkpt>
      <trkpt lat="43.93785" lon="1.88745">
        <ele>176.2</ele>
        <time>2016-08-27T08:27:11Z</time>
      </trkpt>
      <trkpt lat="43.93789" lon="1.88743">
        <ele>176.4</ele>
        <time>2016-08-27T08:27:13Z</time>
      </trkpt>
      <trkpt lat="43.93791" lon="1.88742">
        <ele>176.6</ele>
        <time>2016-08-27T08:27:14Z</time>
      </trkpt>
      <trkpt lat="43.93796" lon="1.8874">
        <ele>176.9</ele>
        <time>2016-08-27T08:27:16Z</time>
      </trkpt>
      <trkpt lat="43.93799" lon="1.88738">
        <ele>177.1</ele>
        <time>2016-08-27T08:27:18Z</time>
      </trkpt>
      <trkpt lat="43.93801" lon="1.88736">
        <ele>177.2</ele>
        <time>2016-08-27T08:27:20Z</time>
      </trkpt>
      <trkpt lat="43.93805" lon="1.88733">
        <ele>177.4</ele>
        <time>2016-08-27T08:27:22Z</time>
      </trkpt>
      <trkpt lat="43.93808" lon="1.88732">
        <ele>177.7</ele>
        <time>2016-08-27T08:27:23Z</time>
      </trkpt>
      <trkpt lat="43.93812" lon="1.88731">
        <ele>177.9</ele>
        <time>2016-08-27T08:27:24Z</time>
      </trkpt>
      <trkpt lat="43.93815" lon="1.88729">
        <ele>178.1</ele>
        <time>2016-08-27T08:27:25Z</time>
      </trkpt>
      <trkpt lat="43.93818" lon="1.88727">
        <ele>178.3</ele>
        <time>2016-08-27T08:27:26Z</time>
      </trkpt>
      <trkpt lat="43.9382" lon="1.88725">
        <ele>178.5</ele>
        <time>2016-08-27T08:27:27Z</time>
      </trkpt>
      <trkpt lat="43.93823" lon="1.88724">
        <ele>178.7</ele>
        <time>2016-08-27T08:27:28Z</time>
      </trkpt>
      <trkpt lat="43.93826" lon="1.88722">
        <ele>178.9</ele>
        <time>2016-08-27T08:27:29Z</time>
      </trkpt>
      <trkpt lat="43.93829" lon="1.88721">
        <ele>179.1</ele>
        <time>2016-08-27T08:27:30Z</time>
      </trkpt>
      <trkpt lat="43.93831" lon="1.88719">
        <ele>179.3</ele>
        <time>2016-08-27T08:27:31Z</time>
      </trkpt>
      <trkpt lat="43.93835" lon="1.88718">
        <ele>179.5</ele>
        <time>2016-08-27T08:27:32Z</time>
      </trkpt>
      <trkpt lat="43.93838" lon="1.88717">
        <ele>179.8</ele>
        <time>2016-08-27T08:27:33Z</time>
      </trkpt>
      <trkpt lat="43.93841" lon="1.88716">
        <ele>180</ele>
        <time>2016-08-27T08:27:34Z</time>
      </trkpt>
      <trkpt lat="43.93844" lon="1.88714">
        <ele>180.2</ele>
        <time>2016-08-27T08:27:35Z</time>
      </trkpt>
      <trkpt lat="43.93847" lon="1.88713">
        <ele>180.5</ele>
        <time>2016-08-27T08:27:36Z</time>
      </trkpt>
      <trkpt lat="43.93849" lon="1.88712">
        <ele>180.7</ele>
        <time>2016-08-27T08:27:37Z</time>
      </trkpt>
      <trkpt lat="43.93853" lon="1.88711">
        <ele>181</ele>
        <time>2016-08-27T08:27:38Z</time>
      </trkpt>
      <trkpt lat="43.93855" lon="1.8871">
        <ele>181.2</ele>
        <time>2016-08-27T08:27:39Z</time>
      </trkpt>
      <trkpt lat="43.93859" lon="1.88708">
        <ele>181.4</ele>
        <time>2016-08-27T08:27:40Z</time>
      </trkpt>
      <trkpt lat="43.93862" lon="1.88707">
        <ele>181.7</ele>
        <time>2016-08-27T08:27:41Z</time>
      </trkpt>
      <trkpt lat="43.93866" lon="1.88706">
        <ele>182</ele>
        <time>2016-08-27T08:27:42Z</time>
      </trkpt>
      <trkpt lat="43.93871" lon="1.88706">
        <ele>182.4</ele>
        <time>2016-08-27T08:27:44Z</time>
      </trkpt>
      <trkpt lat="43.93874" lon="1.88705">
        <ele>182.7</ele>
        <time>2016-08-27T08:27:45Z</time>
      </trkpt>
      <trkpt lat="43.93876" lon="1.88703">
        <ele>182.8</ele>
        <time>2016-08-27T08:27:46Z</time>
      </trkpt>
      <trkpt lat="43.93879" lon="1.88701">
        <ele>183</ele>
        <time>2016-08-27T08:27:47Z</time>
      </trkpt>
      <trkpt lat="43.93882" lon="1.88699">
        <ele>183.3</ele>
        <time>2016-08-27T08:27:48Z</time>
      </trkpt>
      <trkpt lat="43.93884" lon="1.88697">
        <ele>183.6</ele>
        <time>2016-08-27T08:27:49Z</time>
      </trkpt>
      <trkpt lat="43.93887" lon="1.88696">
        <ele>183.9</ele>
        <time>2016-08-27T08:27:50Z</time>
      </trkpt>
      <trkpt lat="43.9389" lon="1.88694">
        <ele>184.3</ele>
        <time>2016-08-27T08:27:51Z</time>
      </trkpt>
      <trkpt lat="43.93893" lon="1.88693">
        <ele>184.5</ele>
        <time>2016-08-27T08:27:52Z</time>
      </trkpt>
      <trkpt lat="43.93896" lon="1.88692">
        <ele>184.9</ele>
        <time>2016-08-27T08:27:53Z</time>
      </trkpt>
      <trkpt lat="43.939" lon="1.88691">
        <ele>185.4</ele>
        <time>2016-08-27T08:27:55Z</time>
      </trkpt>
      <trkpt lat="43.93904" lon="1.88689">
        <ele>185.9</ele>
        <time>2016-08-27T08:27:58Z</time>
      </trkpt>
      <trkpt lat="43.93906" lon="1.88686">
        <ele>185.9</ele>
        <time>2016-08-27T08:28:00Z</time>
      </trkpt>
      <trkpt lat="43.93909" lon="1.88681">
        <ele>186</ele>
        <time>2016-08-27T08:28:02Z</time>
      </trkpt>
      <trkpt lat="43.93914" lon="1.8868">
        <ele>186.5</ele>
        <time>2016-08-27T08:28:04Z</time>
      </trkpt>
      <trkpt lat="43.93917" lon="1.8868">
        <ele>186.9</ele>
        <time>2016-08-27T08:28:05Z</time>
      </trkpt>
      <trkpt lat="43.9392" lon="1.88679">
        <ele>187.3</ele>
        <time>2016-08-27T08:28:06Z</time>
      </trkpt>
      <trkpt lat="43.93923" lon="1.88679">
        <ele>187.7</ele>
        <time>2016-08-27T08:28:07Z</time>
      </trkpt>
      <trkpt lat="43.93928" lon="1.88676">
        <ele>188.2</ele>
        <time>2016-08-27T08:28:09Z</time>
      </trkpt>
      <trkpt lat="43.93931" lon="1.88673">
        <ele>188.4</ele>
        <time>2016-08-27T08:28:11Z</time>
      </trkpt>
      <trkpt lat="43.93935" lon="1.88671">
        <ele>188.6</ele>
        <time>2016-08-27T08:28:13Z</time>
      </trkpt>
      <trkpt lat="43.93938" lon="1.88669">
        <ele>188.9</ele>
        <time>2016-08-27T08:28:15Z</time>
      </trkpt>
      <trkpt lat="43.93941" lon="1.88664">
        <ele>188.9</ele>
        <time>2016-08-27T08:28:17Z</time>
      </trkpt>
      <trkpt lat="43.93945" lon="1.8866">
        <ele>189</ele>
        <time>2016-08-27T08:28:19Z</time>
      </trkpt>
      <trkpt lat="43.93949" lon="1.88657">
        <ele>189.3</ele>
        <time>2016-08-27T08:28:21Z</time>
      </trkpt>
      <trkpt lat="43.93952" lon="1.88656">
        <ele>189.5</ele>
        <time>2016-08-27T08:28:22Z</time>
      </trkpt>
      <trkpt lat="43.93956" lon="1.88654">
        <ele>189.9</ele>
        <time>2016-08-27T08:28:24Z</time>
      </trkpt>
      <trkpt lat="43.9396" lon="1.88651">
        <ele>190</ele>
        <time>2016-08-27T08:28:26Z</time>
      </trkpt>
      <trkpt lat="43.93965" lon="1.88649">
        <ele>190</ele>
        <time>2016-08-27T08:28:28Z</time>
      </trkpt>
      <trkpt lat="43.93968" lon="1.88649">
        <ele>190.3</ele>
        <time>2016-08-27T08:28:29Z</time>
      </trkpt>
      <trkpt lat="43.93972" lon="1.88647">
        <ele>190.4</ele>
        <time>2016-08-27T08:28:31Z</time>
      </trkpt>
      <trkpt lat="43.93976" lon="1.88644">
        <ele>190.4</ele>
        <time>2016-08-27T08:28:33Z</time>
      </trkpt>
      <trkpt lat="43.9398" lon="1.8864">
        <ele>190.3</ele>
        <time>2016-08-27T08:28:35Z</time>
      </trkpt>
      <trkpt lat="43.93983" lon="1.88636">
        <ele>190.1</ele>
        <time>2016-08-27T08:28:37Z</time>
      </trkpt>
      <trkpt lat="43.93988" lon="1.88633">
        <ele>190.3</ele>
        <time>2016-08-27T08:28:39Z</time>
      </trkpt>
      <trkpt lat="43.93991" lon="1.88631">
        <ele>190.3</ele>
        <time>2016-08-27T08:28:40Z</time>
      </trkpt>
      <trkpt lat="43.93996" lon="1.88628">
        <ele>190.4</ele>
        <time>2016-08-27T08:28:42Z</time>
      </trkpt>
      <trkpt lat="43.93998" lon="1.88627">
        <ele>190.5</ele>
        <time>2016-08-27T08:28:43Z</time>
      </trkpt>
      <trkpt lat="43.94001" lon="1.88626">
        <ele>190.7</ele>
        <time>2016-08-27T08:28:44Z</time>
      </trkpt>
      <trkpt lat="43.94004" lon="1.88625">
        <ele>190.8</ele>
        <time>2016-08-27T08:28:45Z</time>
      </trkpt>
      <trkpt lat="43.94007" lon="1.88623">
        <ele>191</ele>
        <time>2016-08-27T08:28:46Z</time>
      </trkpt>
      <trkpt lat="43.9401" lon="1.88622">
        <ele>191</ele>
        <time>2016-08-27T08:28:47Z</time>
      </trkpt>
      <trkpt lat="43.94012" lon="1.8862">
        <ele>191.1</ele>
        <time>2016-08-27T08:28:48Z</time>
      </trkpt>
      <trkpt lat="43.94015" lon="1.88619">
        <ele>191.2</ele>
        <time>2016-08-27T08:28:49Z</time>
      </trkpt>
      <trkpt lat="43.94017" lon="1.88618">
        <ele>191.4</ele>
        <time>2016-08-27T08:28:50Z</time>
      </trkpt>
      <trkpt lat="43.9402" lon="1.88616">
        <ele>191.5</ele>
        <time>2016-08-27T08:28:51Z</time>
      </trkpt>
      <trkpt lat="43.94023" lon="1.88615">
        <ele>191.7</ele>
        <time>2016-08-27T08:28:52Z</time>
      </trkpt>
      <trkpt lat="43.94026" lon="1.88614">
        <ele>191.8</ele>
        <time>2016-08-27T08:28:53Z</time>
      </trkpt>
      <trkpt lat="43.94028" lon="1.88613">
        <ele>192</ele>
        <time>2016-08-27T08:28:54Z</time>
      </trkpt>
      <trkpt lat="43.94031" lon="1.88612">
        <ele>192.1</ele>
        <time>2016-08-27T08:28:55Z</time>
      </trkpt>
      <trkpt lat="43.94033" lon="1.8861">
        <ele>192.1</ele>
        <time>2016-08-27T08:28:56Z</time>
      </trkpt>
      <trkpt lat="43.94037" lon="1.88605">
        <ele>192.2</ele>
        <time>2016-08-27T08:28:58Z</time>
      </trkpt>
      <trkpt lat="43.94041" lon="1.88601">
        <ele>192.2</ele>
        <time>2016-08-27T08:29:00Z</time>
      </trkpt>
      <trkpt lat="43.94044" lon="1.88599">
        <ele>192.4</ele>
        <time>2016-08-27T08:29:01Z</time>
      </trkpt>
      <trkpt lat="43.94047" lon="1.88597">
        <ele>192.7</ele>
        <time>2016-08-27T08:29:02Z</time>
      </trkpt>
      <trkpt lat="43.94051" lon="1.88595">
        <ele>193.2</ele>
        <time>2016-08-27T08:29:04Z</time>
      </trkpt>
      <trkpt lat="43.94055" lon="1.88593">
        <ele>193.6</ele>
        <time>2016-08-27T08:29:06Z</time>
      </trkpt>
      <trkpt lat="43.94059" lon="1.88592">
        <ele>194.1</ele>
        <time>2016-08-27T08:29:08Z</time>
      </trkpt>
      <trkpt lat="43.94063" lon="1.8859">
        <ele>194.5</ele>
        <time>2016-08-27T08:29:10Z</time>
      </trkpt>
      <trkpt lat="43.94067" lon="1.88588">
        <ele>194.9</ele>
        <time>2016-08-27T08:29:12Z</time>
      </trkpt>
      <trkpt lat="43.94071" lon="1.88586">
        <ele>195.2</ele>
        <time>2016-08-27T08:29:14Z</time>
      </trkpt>
      <trkpt lat="43.94074" lon="1.88584">
        <ele>195.5</ele>
        <time>2016-08-27T08:29:16Z</time>
      </trkpt>
      <trkpt lat="43.94077" lon="1.8858">
        <ele>195.6</ele>
        <time>2016-08-27T08:29:18Z</time>
      </trkpt>
      <trkpt lat="43.9408" lon="1.88577">
        <ele>195.8</ele>
        <time>2016-08-27T08:29:20Z</time>
      </trkpt>
      <trkpt lat="43.94084" lon="1.88575">
        <ele>196.2</ele>
        <time>2016-08-27T08:29:22Z</time>
      </trkpt>
      <trkpt lat="43.94088" lon="1.88572">
        <ele>196.6</ele>
        <time>2016-08-27T08:29:24Z</time>
      </trkpt>
      <trkpt lat="43.94093" lon="1.8857">
        <ele>197</ele>
        <time>2016-08-27T08:29:26Z</time>
      </trkpt>
      <trkpt lat="43.94097" lon="1.88569">
        <ele>197.4</ele>
        <time>2016-08-27T08:29:28Z</time>
      </trkpt>
      <trkpt lat="43.94101" lon="1.88567">
        <ele>197.8</ele>
        <time>2016-08-27T08:29:30Z</time>
      </trkpt>
      <trkpt lat="43.94105" lon="1.88565">
        <ele>198.2</ele>
        <time>2016-08-27T08:29:32Z</time>
      </trkpt>
      <trkpt lat="43.94109" lon="1.88563">
        <ele>198.6</ele>
        <time>2016-08-27T08:29:34Z</time>
      </trkpt>
      <trkpt lat="43.94113" lon="1.88562">
        <ele>199</ele>
        <time>2016-08-27T08:29:36Z</time>
      </trkpt>
      <trkpt lat="43.94117" lon="1.88561">
        <ele>199.5</ele>
        <time>2016-08-27T08:29:38Z</time>
      </trkpt>
      <trkpt lat="43.94121" lon="1.88561">
        <ele>200</ele>
        <time>2016-08-27T08:29:40Z</time>
      </trkpt>
      <trkpt lat="43.94125" lon="1.8856">
        <ele>200.5</ele>
        <time>2016-08-27T08:29:42Z</time>
      </trkpt>
      <trkpt lat="43.94129" lon="1.88559">
        <ele>201</ele>
        <time>2016-08-27T08:29:44Z</time>
      </trkpt>
      <trkpt lat="43.94133" lon="1.88558">
        <ele>201.3</ele>
        <time>2016-08-27T08:29:46Z</time>
      </trkpt>
      <trkpt lat="43.94136" lon="1.88558">
        <ele>201.7</ele>
        <time>2016-08-27T08:29:48Z</time>
      </trkpt>
      <trkpt lat="43.9414" lon="1.88557">
        <ele>202.1</ele>
        <time>2016-08-27T08:29:50Z</time>
      </trkpt>
      <trkpt lat="43.94144" lon="1.88556">
        <ele>202.5</ele>
        <time>2016-08-27T08:29:52Z</time>
      </trkpt>
      <trkpt lat="43.94147" lon="1.88555">
        <ele>202.9</ele>
        <time>2016-08-27T08:29:54Z</time>
      </trkpt>
      <trkpt lat="43.94151" lon="1.88554">
        <ele>203.2</ele>
        <time>2016-08-27T08:29:56Z</time>
      </trkpt>
      <trkpt lat="43.94155" lon="1.88554">
        <ele>203.7</ele>
        <time>2016-08-27T08:29:58Z</time>
      </trkpt>
      <trkpt lat="43.94159" lon="1.88553">
        <ele>204.1</ele>
        <time>2016-08-27T08:30:00Z</time>
      </trkpt>
      <trkpt lat="43.94163" lon="1.88551">
        <ele>204.4</ele>
        <time>2016-08-27T08:30:02Z</time>
      </trkpt>
      <trkpt lat="43.94167" lon="1.8855">
        <ele>204.8</ele>
        <time>2016-08-27T08:30:04Z</time>
      </trkpt>
      <trkpt lat="43.94171" lon="1.88549">
        <ele>205.1</ele>
        <time>2016-08-27T08:30:06Z</time>
      </trkpt>
      <trkpt lat="43.94174" lon="1.88547">
        <ele>205.4</ele>
        <time>2016-08-27T08:30:08Z</time>
      </trkpt>
      <trkpt lat="43.94178" lon="1.88546">
        <ele>205.7</ele>
        <time>2016-08-27T08:30:10Z</time>
      </trkpt>
      <trkpt lat="43.94181" lon="1.88544">
        <ele>205.9</ele>
        <time>2016-08-27T08:30:12Z</time>
      </trkpt>
      <trkpt lat="43.94184" lon="1.88542">
        <ele>206.1</ele>
        <time>2016-08-27T08:30:14Z</time>
      </trkpt>
      <trkpt lat="43.94188" lon="1.88541">
        <ele>206.5</ele>
        <time>2016-08-27T08:30:16Z</time>
      </trkpt>
      <trkpt lat="43.94191" lon="1.88538">
        <ele>206.6</ele>
        <time>2016-08-27T08:30:18Z</time>
      </trkpt>
      <trkpt lat="43.94194" lon="1.88536">
        <ele>206.8</ele>
        <time>2016-08-27T08:30:20Z</time>
      </trkpt>
      <trkpt lat="43.94197" lon="1.88535">
        <ele>207</ele>
        <time>2016-08-27T08:30:22Z</time>
      </trkpt>
      <trkpt lat="43.94201" lon="1.88533">
        <ele>207.2</ele>
        <time>2016-08-27T08:30:24Z</time>
      </trkpt>
      <trkpt lat="43.94204" lon="1.8853">
        <ele>207.4</ele>
        <time>2016-08-27T08:30:26Z</time>
      </trkpt>
      <trkpt lat="43.94208" lon="1.88526">
        <ele>207.5</ele>
        <time>2016-08-27T08:30:28Z</time>
      </trkpt>
      <trkpt lat="43.94211" lon="1.88524">
        <ele>207.6</ele>
        <time>2016-08-27T08:30:30Z</time>
      </trkpt>
      <trkpt lat="43.94212" lon="1.88519">
        <ele>207.4</ele>
        <time>2016-08-27T08:30:33Z</time>
      </trkpt>
      <trkpt lat="43.94215" lon="1.88515">
        <ele>207.4</ele>
        <time>2016-08-27T08:30:36Z</time>
      </trkpt>
      <trkpt lat="43.94216" lon="1.88511">
        <ele>207.3</ele>
        <time>2016-08-27T08:30:38Z</time>
      </trkpt>
      <trkpt lat="43.9422" lon="1.8851">
        <ele>207.8</ele>
        <time>2016-08-27T08:30:40Z</time>
      </trkpt>
      <trkpt lat="43.94224" lon="1.88508">
        <ele>208.3</ele>
        <time>2016-08-27T08:30:42Z</time>
      </trkpt>
      <trkpt lat="43.94228" lon="1.88507">
        <ele>208.9</ele>
        <time>2016-08-27T08:30:44Z</time>
      </trkpt>
      <trkpt lat="43.94233" lon="1.88504">
        <ele>209.3</ele>
        <time>2016-08-27T08:30:46Z</time>
      </trkpt>
      <trkpt lat="43.94237" lon="1.88501">
        <ele>209.7</ele>
        <time>2016-08-27T08:30:48Z</time>
      </trkpt>
      <trkpt lat="43.9424" lon="1.88499">
        <ele>210</ele>
        <time>2016-08-27T08:30:49Z</time>
      </trkpt>
      <trkpt lat="43.94242" lon="1.88498">
        <ele>210.3</ele>
        <time>2016-08-27T08:30:50Z</time>
      </trkpt>
      <trkpt lat="43.94247" lon="1.88496">
        <ele>210.9</ele>
        <time>2016-08-27T08:30:52Z</time>
      </trkpt>
      <trkpt lat="43.94252" lon="1.88493">
        <ele>211.4</ele>
        <time>2016-08-27T08:30:54Z</time>
      </trkpt>
      <trkpt lat="43.94256" lon="1.8849">
        <ele>211.9</ele>
        <time>2016-08-27T08:30:56Z</time>
      </trkpt>
      <trkpt lat="43.94261" lon="1.88488">
        <ele>212.4</ele>
        <time>2016-08-27T08:30:58Z</time>
      </trkpt>
      <trkpt lat="43.94264" lon="1.88485">
        <ele>212.6</ele>
        <time>2016-08-27T08:31:00Z</time>
      </trkpt>
      <trkpt lat="43.94265" lon="1.88482">
        <ele>212.6</ele>
        <time>2016-08-27T08:31:02Z</time>
      </trkpt>
      <trkpt lat="43.94269" lon="1.8848">
        <ele>213</ele>
        <time>2016-08-27T08:31:04Z</time>
      </trkpt>
      <trkpt lat="43.94272" lon="1.8848">
        <ele>213.6</ele>
        <time>2016-08-27T08:31:05Z</time>
      </trkpt>
      <trkpt lat="43.94275" lon="1.88479">
        <ele>214</ele>
        <time>2016-08-27T08:31:06Z</time>
      </trkpt>
      <trkpt lat="43.94279" lon="1.88476">
        <ele>214.4</ele>
        <time>2016-08-27T08:31:08Z</time>
      </trkpt>
      <trkpt lat="43.94283" lon="1.88473">
        <ele>214.9</ele>
        <time>2016-08-27T08:31:10Z</time>
      </trkpt>
      <trkpt lat="43.94289" lon="1.88471">
        <ele>215.6</ele>
        <time>2016-08-27T08:31:12Z</time>
      </trkpt>
      <trkpt lat="43.94293" lon="1.8847">
        <ele>216.1</ele>
        <time>2016-08-27T08:31:14Z</time>
      </trkpt>
      <trkpt lat="43.94296" lon="1.88468">
        <ele>216.3</ele>
        <time>2016-08-27T08:31:15Z</time>
      </trkpt>
      <trkpt lat="43.943" lon="1.88465">
        <ele>216.6</ele>
        <time>2016-08-27T08:31:17Z</time>
      </trkpt>
      <trkpt lat="43.94305" lon="1.88463">
        <ele>217</ele>
        <time>2016-08-27T08:31:19Z</time>
      </trkpt>
      <trkpt lat="43.94309" lon="1.88463">
        <ele>217.6</ele>
        <time>2016-08-27T08:31:21Z</time>
      </trkpt>
      <trkpt lat="43.94312" lon="1.88462">
        <ele>217.9</ele>
        <time>2016-08-27T08:31:22Z</time>
      </trkpt>
      <trkpt lat="43.94315" lon="1.88461">
        <ele>218.2</ele>
        <time>2016-08-27T08:31:23Z</time>
      </trkpt>
      <trkpt lat="43.94317" lon="1.88459">
        <ele>218.4</ele>
        <time>2016-08-27T08:31:24Z</time>
      </trkpt>
      <trkpt lat="43.9432" lon="1.88457">
        <ele>218.6</ele>
        <time>2016-08-27T08:31:25Z</time>
      </trkpt>
      <trkpt lat="43.94324" lon="1.88454">
        <ele>219.1</ele>
        <time>2016-08-27T08:31:27Z</time>
      </trkpt>
      <trkpt lat="43.94329" lon="1.88453">
        <ele>219.7</ele>
        <time>2016-08-27T08:31:29Z</time>
      </trkpt>
      <trkpt lat="43.94333" lon="1.88451">
        <ele>220.3</ele>
        <time>2016-08-27T08:31:31Z</time>
      </trkpt>
      <trkpt lat="43.94338" lon="1.8845">
        <ele>220.9</ele>
        <time>2016-08-27T08:31:33Z</time>
      </trkpt>
      <trkpt lat="43.94343" lon="1.8845">
        <ele>221.5</ele>
        <time>2016-08-27T08:31:35Z</time>
      </trkpt>
      <trkpt lat="43.94346" lon="1.88449">
        <ele>221.8</ele>
        <time>2016-08-27T08:31:37Z</time>
      </trkpt>
      <trkpt lat="43.94347" lon="1.88444">
        <ele>221.8</ele>
        <time>2016-08-27T08:31:39Z</time>
      </trkpt>
      <trkpt lat="43.94351" lon="1.88442">
        <ele>222.3</ele>
        <time>2016-08-27T08:31:41Z</time>
      </trkpt>
      <trkpt lat="43.94356" lon="1.88441">
        <ele>222.9</ele>
        <time>2016-08-27T08:31:43Z</time>
      </trkpt>
      <trkpt lat="43.9436" lon="1.8844">
        <ele>223.4</ele>
        <time>2016-08-27T08:31:45Z</time>
      </trkpt>
      <trkpt lat="43.94366" lon="1.88439">
        <ele>224.1</ele>
        <time>2016-08-27T08:31:47Z</time>
      </trkpt>
      <trkpt lat="43.94368" lon="1.88439">
        <ele>224.4</ele>
        <time>2016-08-27T08:31:48Z</time>
      </trkpt>
      <trkpt lat="43.94371" lon="1.88438">
        <ele>224.8</ele>
        <time>2016-08-27T08:31:49Z</time>
      </trkpt>
      <trkpt lat="43.94376" lon="1.88438">
        <ele>225.4</ele>
        <time>2016-08-27T08:31:51Z</time>
      </trkpt>
      <trkpt lat="43.94381" lon="1.88436">
        <ele>225.8</ele>
        <time>2016-08-27T08:31:53Z</time>
      </trkpt>
      <trkpt lat="43.94387" lon="1.88435">
        <ele>226.4</ele>
        <time>2016-08-27T08:31:55Z</time>
      </trkpt>
      <trkpt lat="43.9439" lon="1.88435">
        <ele>226.7</ele>
        <time>2016-08-27T08:31:56Z</time>
      </trkpt>
      <trkpt lat="43.94394" lon="1.88435">
        <ele>227</ele>
        <time>2016-08-27T08:31:57Z</time>
      </trkpt>
      <trkpt lat="43.94397" lon="1.88435">
        <ele>227.4</ele>
        <time>2016-08-27T08:31:58Z</time>
      </trkpt>
      <trkpt lat="43.94401" lon="1.88435">
        <ele>227.8</ele>
        <time>2016-08-27T08:31:59Z</time>
      </trkpt>
      <trkpt lat="43.94404" lon="1.88435">
        <ele>228.1</ele>
        <time>2016-08-27T08:32:00Z</time>
      </trkpt>
      <trkpt lat="43.94408" lon="1.88435">
        <ele>228.4</ele>
        <time>2016-08-27T08:32:01Z</time>
      </trkpt>
      <trkpt lat="43.94411" lon="1.88436">
        <ele>228.8</ele>
        <time>2016-08-27T08:32:02Z</time>
      </trkpt>
      <trkpt lat="43.94415" lon="1.88437">
        <ele>229.2</ele>
        <time>2016-08-27T08:32:03Z</time>
      </trkpt>
      <trkpt lat="43.94419" lon="1.88437">
        <ele>229.6</ele>
        <time>2016-08-27T08:32:04Z</time>
      </trkpt>
      <trkpt lat="43.94423" lon="1.88437">
        <ele>230</ele>
        <time>2016-08-27T08:32:05Z</time>
      </trkpt>
      <trkpt lat="43.94426" lon="1.88437">
        <ele>230.3</ele>
        <time>2016-08-27T08:32:06Z</time>
      </trkpt>
      <trkpt lat="43.94429" lon="1.88438">
        <ele>230.6</ele>
        <time>2016-08-27T08:32:07Z</time>
      </trkpt>
      <trkpt lat="43.94432" lon="1.88438">
        <ele>230.9</ele>
        <time>2016-08-27T08:32:08Z</time>
      </trkpt>
      <trkpt lat="43.94437" lon="1.88439">
        <ele>231.4</ele>
        <time>2016-08-27T08:32:10Z</time>
      </trkpt>
      <trkpt lat="43.9444" lon="1.8844">
        <ele>231.7</ele>
        <time>2016-08-27T08:32:11Z</time>
      </trkpt>
      <trkpt lat="43.94443" lon="1.8844">
        <ele>232</ele>
        <time>2016-08-27T08:32:12Z</time>
      </trkpt>
      <trkpt lat="43.94446" lon="1.8844">
        <ele>232.3</ele>
        <time>2016-08-27T08:32:13Z</time>
      </trkpt>
      <trkpt lat="43.94449" lon="1.8844">
        <ele>232.6</ele>
        <time>2016-08-27T08:32:14Z</time>
      </trkpt>
      <trkpt lat="43.94454" lon="1.88441">
        <ele>233</ele>
        <time>2016-08-27T08:32:16Z</time>
      </trkpt>
      <trkpt lat="43.94459" lon="1.88442">
        <ele>233.4</ele>
        <time>2016-08-27T08:32:18Z</time>
      </trkpt>
      <trkpt lat="43.94465" lon="1.88444">
        <ele>233.6</ele>
        <time>2016-08-27T08:32:20Z</time>
      </trkpt>
      <trkpt lat="43.94468" lon="1.88444">
        <ele>233.7</ele>
        <time>2016-08-27T08:32:21Z</time>
      </trkpt>
      <trkpt lat="43.94471" lon="1.88443">
        <ele>233.8</ele>
        <time>2016-08-27T08:32:22Z</time>
      </trkpt>
      <trkpt lat="43.94474" lon="1.88443">
        <ele>233.9</ele>
        <time>2016-08-27T08:32:23Z</time>
      </trkpt>
      <trkpt lat="43.94477" lon="1.88443">
        <ele>234.1</ele>
        <time>2016-08-27T08:32:24Z</time>
      </trkpt>
      <trkpt lat="43.94482" lon="1.88445">
        <ele>234.2</ele>
        <time>2016-08-27T08:32:26Z</time>
      </trkpt>
      <trkpt lat="43.94485" lon="1.88446">
        <ele>234.3</ele>
        <time>2016-08-27T08:32:27Z</time>
      </trkpt>
      <trkpt lat="43.94488" lon="1.88447">
        <ele>234.4</ele>
        <time>2016-08-27T08:32:28Z</time>
      </trkpt>
      <trkpt lat="43.9449" lon="1.88448">
        <ele>234.5</ele>
        <time>2016-08-27T08:32:29Z</time>
      </trkpt>
      <trkpt lat="43.94493" lon="1.88449">
        <ele>234.5</ele>
        <time>2016-08-27T08:32:30Z</time>
      </trkpt>
      <trkpt lat="43.94497" lon="1.8845">
        <ele>234.6</ele>
        <time>2016-08-27T08:32:31Z</time>
      </trkpt>
      <trkpt lat="43.945" lon="1.88451">
        <ele>234.7</ele>
        <time>2016-08-27T08:32:32Z</time>
      </trkpt>
      <trkpt lat="43.94504" lon="1.88452">
        <ele>234.8</ele>
        <time>2016-08-27T08:32:33Z</time>
      </trkpt>
      <trkpt lat="43.9451" lon="1.88452">
        <ele>235.1</ele>
        <time>2016-08-27T08:32:35Z</time>
      </trkpt>
      <trkpt lat="43.94514" lon="1.88452">
        <ele>235.2</ele>
        <time>2016-08-27T08:32:36Z</time>
      </trkpt>
      <trkpt lat="43.94517" lon="1.88451">
        <ele>235.3</ele>
        <time>2016-08-27T08:32:37Z</time>
      </trkpt>
      <trkpt lat="43.9452" lon="1.88451">
        <ele>235.5</ele>
        <time>2016-08-27T08:32:38Z</time>
      </trkpt>
      <trkpt lat="43.94522" lon="1.88451">
        <ele>235.6</ele>
        <time>2016-08-27T08:32:39Z</time>
      </trkpt>
      <trkpt lat="43.94528" lon="1.8845">
        <ele>235.8</ele>
        <time>2016-08-27T08:32:41Z</time>
      </trkpt>
      <trkpt lat="43.94533" lon="1.8845">
        <ele>236</ele>
        <time>2016-08-27T08:32:43Z</time>
      </trkpt>
      <trkpt lat="43.94538" lon="1.88451">
        <ele>236.2</ele>
        <time>2016-08-27T08:32:45Z</time>
      </trkpt>
      <trkpt lat="43.94543" lon="1.88449">
        <ele>236.4</ele>
        <time>2016-08-27T08:32:47Z</time>
      </trkpt>
      <trkpt lat="43.94546" lon="1.88449">
        <ele>236.5</ele>
        <time>2016-08-27T08:32:48Z</time>
      </trkpt>
      <trkpt lat="43.94549" lon="1.88449">
        <ele>236.6</ele>
        <time>2016-08-27T08:32:49Z</time>
      </trkpt>
      <trkpt lat="43.94551" lon="1.88449">
        <ele>236.7</ele>
        <time>2016-08-27T08:32:50Z</time>
      </trkpt>
      <trkpt lat="43.94556" lon="1.88449">
        <ele>236.9</ele>
        <time>2016-08-27T08:32:52Z</time>
      </trkpt>
      <trkpt lat="43.94561" lon="1.88448">
        <ele>237.1</ele>
        <time>2016-08-27T08:32:54Z</time>
      </trkpt>
      <trkpt lat="43.94566" lon="1.88446">
        <ele>237.3</ele>
        <time>2016-08-27T08:32:56Z</time>
      </trkpt>
      <trkpt lat="43.94569" lon="1.88444">
        <ele>237.4</ele>
        <time>2016-08-27T08:32:57Z</time>
      </trkpt>
      <trkpt lat="43.94572" lon="1.88443">
        <ele>237.5</ele>
        <time>2016-08-27T08:32:58Z</time>
      </trkpt>
      <trkpt lat="43.94574" lon="1.88441">
        <ele>237.6</ele>
        <time>2016-08-27T08:32:59Z</time>
      </trkpt>
      <trkpt lat="43.94579" lon="1.88437">
        <ele>237.8</ele>
        <time>2016-08-27T08:33:01Z</time>
      </trkpt>
      <trkpt lat="43.94582" lon="1.88436">
        <ele>237.8</ele>
        <time>2016-08-27T08:33:02Z</time>
      </trkpt>
      <trkpt lat="43.94584" lon="1.88434">
        <ele>237.9</ele>
        <time>2016-08-27T08:33:03Z</time>
      </trkpt>
      <trkpt lat="43.94587" lon="1.88432">
        <ele>237.9</ele>
        <time>2016-08-27T08:33:04Z</time>
      </trkpt>
      <trkpt lat="43.9459" lon="1.88431">
        <ele>238</ele>
        <time>2016-08-27T08:33:05Z</time>
      </trkpt>
      <trkpt lat="43.94593" lon="1.88429">
        <ele>238</ele>
        <time>2016-08-27T08:33:06Z</time>
      </trkpt>
      <trkpt lat="43.94595" lon="1.88427">
        <ele>238</ele>
        <time>2016-08-27T08:33:07Z</time>
      </trkpt>
      <trkpt lat="43.94598" lon="1.88425">
        <ele>238</ele>
        <time>2016-08-27T08:33:08Z</time>
      </trkpt>
      <trkpt lat="43.94602" lon="1.88421">
        <ele>238</ele>
        <time>2016-08-27T08:33:10Z</time>
      </trkpt>
      <trkpt lat="43.94606" lon="1.88417">
        <ele>237.9</ele>
        <time>2016-08-27T08:33:12Z</time>
      </trkpt>
      <trkpt lat="43.9461" lon="1.88412">
        <ele>237.8</ele>
        <time>2016-08-27T08:33:14Z</time>
      </trkpt>
      <trkpt lat="43.94614" lon="1.88409">
        <ele>237.6</ele>
        <time>2016-08-27T08:33:16Z</time>
      </trkpt>
      <trkpt lat="43.94618" lon="1.88405">
        <ele>237.5</ele>
        <time>2016-08-27T08:33:18Z</time>
      </trkpt>
      <trkpt lat="43.94621" lon="1.88402">
        <ele>237.4</ele>
        <time>2016-08-27T08:33:19Z</time>
      </trkpt>
      <trkpt lat="43.94624" lon="1.884">
        <ele>237.2</ele>
        <time>2016-08-27T08:33:20Z</time>
      </trkpt>
      <trkpt lat="43.94626" lon="1.88398">
        <ele>237.3</ele>
        <time>2016-08-27T08:33:21Z</time>
      </trkpt>
      <trkpt lat="43.94629" lon="1.88396">
        <ele>237.5</ele>
        <time>2016-08-27T08:33:22Z</time>
      </trkpt>
      <trkpt lat="43.94632" lon="1.88393">
        <ele>237.7</ele>
        <time>2016-08-27T08:33:23Z</time>
      </trkpt>
      <trkpt lat="43.94634" lon="1.88391">
        <ele>237.9</ele>
        <time>2016-08-27T08:33:24Z</time>
      </trkpt>
      <trkpt lat="43.94636" lon="1.88388">
        <ele>238</ele>
        <time>2016-08-27T08:33:25Z</time>
      </trkpt>
      <trkpt lat="43.94641" lon="1.88383">
        <ele>238.3</ele>
        <time>2016-08-27T08:33:27Z</time>
      </trkpt>
      <trkpt lat="43.94643" lon="1.8838">
        <ele>238.4</ele>
        <time>2016-08-27T08:33:28Z</time>
      </trkpt>
      <trkpt lat="43.94645" lon="1.88377">
        <ele>238.5</ele>
        <time>2016-08-27T08:33:29Z</time>
      </trkpt>
      <trkpt lat="43.94647" lon="1.88375">
        <ele>238.6</ele>
        <time>2016-08-27T08:33:30Z</time>
      </trkpt>
      <trkpt lat="43.94649" lon="1.88372">
        <ele>238.7</ele>
        <time>2016-08-27T08:33:31Z</time>
      </trkpt>
      <trkpt lat="43.94651" lon="1.88369">
        <ele>238.9</ele>
        <time>2016-08-27T08:33:32Z</time>
      </trkpt>
      <trkpt lat="43.94654" lon="1.88367">
        <ele>239.1</ele>
        <time>2016-08-27T08:33:33Z</time>
      </trkpt>
      <trkpt lat="43.94656" lon="1.88363">
        <ele>239.3</ele>
        <time>2016-08-27T08:33:34Z</time>
      </trkpt>
      <trkpt lat="43.94659" lon="1.8836">
        <ele>239.4</ele>
        <time>2016-08-27T08:33:35Z</time>
      </trkpt>
      <trkpt lat="43.9466" lon="1.88357">
        <ele>239.5</ele>
        <time>2016-08-27T08:33:36Z</time>
      </trkpt>
      <trkpt lat="43.94662" lon="1.88353">
        <ele>239.6</ele>
        <time>2016-08-27T08:33:37Z</time>
      </trkpt>
      <trkpt lat="43.94664" lon="1.8835">
        <ele>239.8</ele>
        <time>2016-08-27T08:33:38Z</time>
      </trkpt>
      <trkpt lat="43.94666" lon="1.88347">
        <ele>239.9</ele>
        <time>2016-08-27T08:33:39Z</time>
      </trkpt>
      <trkpt lat="43.94668" lon="1.88345">
        <ele>240.1</ele>
        <time>2016-08-27T08:33:40Z</time>
      </trkpt>
      <trkpt lat="43.94671" lon="1.88343">
        <ele>240.4</ele>
        <time>2016-08-27T08:33:41Z</time>
      </trkpt>
      <trkpt lat="43.94675" lon="1.88338">
        <ele>240.8</ele>
        <time>2016-08-27T08:33:43Z</time>
      </trkpt>
      <trkpt lat="43.94676" lon="1.88334">
        <ele>240.9</ele>
        <time>2016-08-27T08:33:44Z</time>
      </trkpt>
      <trkpt lat="43.94678" lon="1.88331">
        <ele>241</ele>
        <time>2016-08-27T08:33:45Z</time>
      </trkpt>
      <trkpt lat="43.94681" lon="1.88326">
        <ele>241.4</ele>
        <time>2016-08-27T08:33:47Z</time>
      </trkpt>
      <trkpt lat="43.94683" lon="1.88321">
        <ele>241.6</ele>
        <time>2016-08-27T08:33:49Z</time>
      </trkpt>
      <trkpt lat="43.94685" lon="1.88318">
        <ele>241.8</ele>
        <time>2016-08-27T08:33:50Z</time>
      </trkpt>
      <trkpt lat="43.94689" lon="1.88315">
        <ele>242.3</ele>
        <time>2016-08-27T08:33:52Z</time>
      </trkpt>
      <trkpt lat="43.94693" lon="1.8831">
        <ele>242.8</ele>
        <time>2016-08-27T08:33:54Z</time>
      </trkpt>
      <trkpt lat="43.94695" lon="1.88307">
        <ele>243.1</ele>
        <time>2016-08-27T08:33:55Z</time>
      </trkpt>
      <trkpt lat="43.94697" lon="1.88304">
        <ele>243.3</ele>
        <time>2016-08-27T08:33:56Z</time>
      </trkpt>
      <trkpt lat="43.94701" lon="1.88299">
        <ele>243.9</ele>
        <time>2016-08-27T08:33:58Z</time>
      </trkpt>
      <trkpt lat="43.94707" lon="1.88295">
        <ele>244.8</ele>
        <time>2016-08-27T08:34:00Z</time>
      </trkpt>
      <trkpt lat="43.94709" lon="1.88292">
        <ele>245.1</ele>
        <time>2016-08-27T08:34:01Z</time>
      </trkpt>
      <trkpt lat="43.94711" lon="1.8829">
        <ele>245.5</ele>
        <time>2016-08-27T08:34:02Z</time>
      </trkpt>
      <trkpt lat="43.94712" lon="1.88286">
        <ele>245.8</ele>
        <time>2016-08-27T08:34:03Z</time>
      </trkpt>
      <trkpt lat="43.94713" lon="1.88283">
        <ele>245.9</ele>
        <time>2016-08-27T08:34:04Z</time>
      </trkpt>
      <trkpt lat="43.94715" lon="1.88276">
        <ele>246.4</ele>
        <time>2016-08-27T08:34:06Z</time>
      </trkpt>
      <trkpt lat="43.94719" lon="1.8827">
        <ele>247.1</ele>
        <time>2016-08-27T08:34:08Z</time>
      </trkpt>
      <trkpt lat="43.94721" lon="1.88263">
        <ele>247.6</ele>
        <time>2016-08-27T08:34:10Z</time>
      </trkpt>
      <trkpt lat="43.94723" lon="1.88256">
        <ele>248</ele>
        <time>2016-08-27T08:34:12Z</time>
      </trkpt>
      <trkpt lat="43.94725" lon="1.88253">
        <ele>248.2</ele>
        <time>2016-08-27T08:34:13Z</time>
      </trkpt>
      <trkpt lat="43.94726" lon="1.88249">
        <ele>248.4</ele>
        <time>2016-08-27T08:34:14Z</time>
      </trkpt>
      <trkpt lat="43.94727" lon="1.88241">
        <ele>248.6</ele>
        <time>2016-08-27T08:34:16Z</time>
      </trkpt>
      <trkpt lat="43.94728" lon="1.88234">
        <ele>248.7</ele>
        <time>2016-08-27T08:34:18Z</time>
      </trkpt>
      <trkpt lat="43.9473" lon="1.88229">
        <ele>249.4</ele>
        <time>2016-08-27T08:34:20Z</time>
      </trkpt>
      <trkpt lat="43.94732" lon="1.88222">
        <ele>249.6</ele>
        <time>2016-08-27T08:34:22Z</time>
      </trkpt>
      <trkpt lat="43.94732" lon="1.88218">
        <ele>249.7</ele>
        <time>2016-08-27T08:34:23Z</time>
      </trkpt>
      <trkpt lat="43.94733" lon="1.88214">
        <ele>249.9</ele>
        <time>2016-08-27T08:34:24Z</time>
      </trkpt>
      <trkpt lat="43.94734" lon="1.88207">
        <ele>250.2</ele>
        <time>2016-08-27T08:34:26Z</time>
      </trkpt>
      <trkpt lat="43.94734" lon="1.88202">
        <ele>250</ele>
        <time>2016-08-27T08:34:27Z</time>
      </trkpt>
      <trkpt lat="43.94735" lon="1.88195">
        <ele>250</ele>
        <time>2016-08-27T08:34:29Z</time>
      </trkpt>
      <trkpt lat="43.94735" lon="1.88188">
        <ele>250</ele>
        <time>2016-08-27T08:34:31Z</time>
      </trkpt>
      <trkpt lat="43.94735" lon="1.88184">
        <ele>250</ele>
        <time>2016-08-27T08:34:32Z</time>
      </trkpt>
      <trkpt lat="43.94736" lon="1.8818">
        <ele>250</ele>
        <time>2016-08-27T08:34:33Z</time>
      </trkpt>
      <trkpt lat="43.94736" lon="1.88173">
        <ele>250</ele>
        <time>2016-08-27T08:34:35Z</time>
      </trkpt>
      <trkpt lat="43.94737" lon="1.88166">
        <ele>250</ele>
        <time>2016-08-27T08:34:37Z</time>
      </trkpt>
      <trkpt lat="43.94737" lon="1.88162">
        <ele>250.1</ele>
        <time>2016-08-27T08:34:38Z</time>
      </trkpt>
      <trkpt lat="43.94739" lon="1.88155">
        <ele>250.2</ele>
        <time>2016-08-27T08:34:40Z</time>
      </trkpt>
      <trkpt lat="43.9474" lon="1.88148">
        <ele>250.3</ele>
        <time>2016-08-27T08:34:42Z</time>
      </trkpt>
      <trkpt lat="43.94741" lon="1.88141">
        <ele>250.4</ele>
        <time>2016-08-27T08:34:44Z</time>
      </trkpt>
      <trkpt lat="43.94743" lon="1.88135">
        <ele>250.7</ele>
        <time>2016-08-27T08:34:46Z</time>
      </trkpt>
      <trkpt lat="43.94745" lon="1.88128">
        <ele>251</ele>
        <time>2016-08-27T08:34:48Z</time>
      </trkpt>
      <trkpt lat="43.94746" lon="1.88124">
        <ele>251</ele>
        <time>2016-08-27T08:34:49Z</time>
      </trkpt>
      <trkpt lat="43.94746" lon="1.8812">
        <ele>250.9</ele>
        <time>2016-08-27T08:34:50Z</time>
      </trkpt>
      <trkpt lat="43.94747" lon="1.88117">
        <ele>250.9</ele>
        <time>2016-08-27T08:34:51Z</time>
      </trkpt>
      <trkpt lat="43.9475" lon="1.8811">
        <ele>251</ele>
        <time>2016-08-27T08:34:53Z</time>
      </trkpt>
      <trkpt lat="43.94753" lon="1.88105">
        <ele>251.2</ele>
        <time>2016-08-27T08:34:55Z</time>
      </trkpt>
      <trkpt lat="43.94755" lon="1.88099">
        <ele>251.4</ele>
        <time>2016-08-27T08:34:57Z</time>
      </trkpt>
      <trkpt lat="43.94759" lon="1.88094">
        <ele>251.7</ele>
        <time>2016-08-27T08:34:59Z</time>
      </trkpt>
      <trkpt lat="43.94762" lon="1.8809">
        <ele>252</ele>
        <time>2016-08-27T08:35:01Z</time>
      </trkpt>
      <trkpt lat="43.94766" lon="1.88085">
        <ele>252.3</ele>
        <time>2016-08-27T08:35:03Z</time>
      </trkpt>
      <trkpt lat="43.94769" lon="1.8808">
        <ele>252.5</ele>
        <time>2016-08-27T08:35:05Z</time>
      </trkpt>
      <trkpt lat="43.94771" lon="1.88077">
        <ele>252.7</ele>
        <time>2016-08-27T08:35:06Z</time>
      </trkpt>
      <trkpt lat="43.94773" lon="1.88074">
        <ele>252.8</ele>
        <time>2016-08-27T08:35:07Z</time>
      </trkpt>
      <trkpt lat="43.94775" lon="1.88072">
        <ele>253</ele>
        <time>2016-08-27T08:35:08Z</time>
      </trkpt>
      <trkpt lat="43.94777" lon="1.88069">
        <ele>253.1</ele>
        <time>2016-08-27T08:35:09Z</time>
      </trkpt>
      <trkpt lat="43.94779" lon="1.88067">
        <ele>253.3</ele>
        <time>2016-08-27T08:35:10Z</time>
      </trkpt>
      <trkpt lat="43.94784" lon="1.88062">
        <ele>253.6</ele>
        <time>2016-08-27T08:35:12Z</time>
      </trkpt>
      <trkpt lat="43.94788" lon="1.88058">
        <ele>253.9</ele>
        <time>2016-08-27T08:35:14Z</time>
      </trkpt>
      <trkpt lat="43.9479" lon="1.88054">
        <ele>253.9</ele>
        <time>2016-08-27T08:35:16Z</time>
      </trkpt>
      <trkpt lat="43.94793" lon="1.8805">
        <ele>254</ele>
        <time>2016-08-27T08:35:18Z</time>
      </trkpt>
      <trkpt lat="43.94792" lon="1.88046">
        <ele>253.6</ele>
        <time>2016-08-27T08:35:21Z</time>
      </trkpt>
      <trkpt lat="43.94794" lon="1.88041">
        <ele>253.3</ele>
        <time>2016-08-27T08:35:24Z</time>
      </trkpt>
      <trkpt lat="43.94795" lon="1.88036">
        <ele>253.2</ele>
        <time>2016-08-27T08:35:26Z</time>
      </trkpt>
      <trkpt lat="43.94798" lon="1.88033">
        <ele>253.4</ele>
        <time>2016-08-27T08:35:28Z</time>
      </trkpt>
      <trkpt lat="43.94802" lon="1.8803">
        <ele>253.9</ele>
        <time>2016-08-27T08:35:29Z</time>
      </trkpt>
      <trkpt lat="43.94806" lon="1.88027">
        <ele>254.4</ele>
        <time>2016-08-27T08:35:31Z</time>
      </trkpt>
      <trkpt lat="43.94809" lon="1.88025">
        <ele>254.7</ele>
        <time>2016-08-27T08:35:32Z</time>
      </trkpt>
      <trkpt lat="43.94811" lon="1.88023">
        <ele>255</ele>
        <time>2016-08-27T08:35:33Z</time>
      </trkpt>
      <trkpt lat="43.94814" lon="1.88021">
        <ele>255.4</ele>
        <time>2016-08-27T08:35:34Z</time>
      </trkpt>
      <trkpt lat="43.94816" lon="1.88019">
        <ele>255.7</ele>
        <time>2016-08-27T08:35:35Z</time>
      </trkpt>
      <trkpt lat="43.94819" lon="1.88017">
        <ele>256.1</ele>
        <time>2016-08-27T08:35:36Z</time>
      </trkpt>
      <trkpt lat="43.94821" lon="1.88015">
        <ele>256.4</ele>
        <time>2016-08-27T08:35:37Z</time>
      </trkpt>
      <trkpt lat="43.94824" lon="1.88013">
        <ele>256.7</ele>
        <time>2016-08-27T08:35:38Z</time>
      </trkpt>
      <trkpt lat="43.94826" lon="1.88011">
        <ele>257</ele>
        <time>2016-08-27T08:35:39Z</time>
      </trkpt>
      <trkpt lat="43.94829" lon="1.88009">
        <ele>257.4</ele>
        <time>2016-08-27T08:35:40Z</time>
      </trkpt>
      <trkpt lat="43.94831" lon="1.88007">
        <ele>257.7</ele>
        <time>2016-08-27T08:35:41Z</time>
      </trkpt>
      <trkpt lat="43.94834" lon="1.88005">
        <ele>258</ele>
        <time>2016-08-27T08:35:42Z</time>
      </trkpt>
      <trkpt lat="43.94838" lon="1.88001">
        <ele>258.5</ele>
        <time>2016-08-27T08:35:44Z</time>
      </trkpt>
      <trkpt lat="43.94841" lon="1.87997">
        <ele>258.9</ele>
        <time>2016-08-27T08:35:46Z</time>
      </trkpt>
      <trkpt lat="43.94845" lon="1.87993">
        <ele>259.3</ele>
        <time>2016-08-27T08:35:48Z</time>
      </trkpt>
      <trkpt lat="43.9485" lon="1.8799">
        <ele>260</ele>
        <time>2016-08-27T08:35:50Z</time>
      </trkpt>
      <trkpt lat="43.94852" lon="1.87988">
        <ele>260.3</ele>
        <time>2016-08-27T08:35:51Z</time>
      </trkpt>
      <trkpt lat="43.94856" lon="1.87983">
        <ele>260.8</ele>
        <time>2016-08-27T08:35:53Z</time>
      </trkpt>
      <trkpt lat="43.94859" lon="1.87979">
        <ele>261.2</ele>
        <time>2016-08-27T08:35:55Z</time>
      </trkpt>
      <trkpt lat="43.94863" lon="1.87975">
        <ele>261.6</ele>
        <time>2016-08-27T08:35:57Z</time>
      </trkpt>
      <trkpt lat="43.94865" lon="1.87974">
        <ele>262</ele>
        <time>2016-08-27T08:35:58Z</time>
      </trkpt>
      <trkpt lat="43.94869" lon="1.8797">
        <ele>262.6</ele>
        <time>2016-08-27T08:36:00Z</time>
      </trkpt>
      <trkpt lat="43.94873" lon="1.87966">
        <ele>263.1</ele>
        <time>2016-08-27T08:36:02Z</time>
      </trkpt>
      <trkpt lat="43.94877" lon="1.87962">
        <ele>263.7</ele>
        <time>2016-08-27T08:36:04Z</time>
      </trkpt>
      <trkpt lat="43.94882" lon="1.87958">
        <ele>264.2</ele>
        <time>2016-08-27T08:36:06Z</time>
      </trkpt>
      <trkpt lat="43.94884" lon="1.87955">
        <ele>264.7</ele>
        <time>2016-08-27T08:36:07Z</time>
      </trkpt>
      <trkpt lat="43.94888" lon="1.87952">
        <ele>265.4</ele>
        <time>2016-08-27T08:36:09Z</time>
      </trkpt>
      <trkpt lat="43.94891" lon="1.87949">
        <ele>266.1</ele>
        <time>2016-08-27T08:36:11Z</time>
      </trkpt>
      <trkpt lat="43.94895" lon="1.87946">
        <ele>266.7</ele>
        <time>2016-08-27T08:36:13Z</time>
      </trkpt>
      <trkpt lat="43.94897" lon="1.87943">
        <ele>267.1</ele>
        <time>2016-08-27T08:36:15Z</time>
      </trkpt>
      <trkpt lat="43.94899" lon="1.8794">
        <ele>267.4</ele>
        <time>2016-08-27T08:36:17Z</time>
      </trkpt>
      <trkpt lat="43.94902" lon="1.87938">
        <ele>267.9</ele>
        <time>2016-08-27T08:36:19Z</time>
      </trkpt>
      <trkpt lat="43.94905" lon="1.87936">
        <ele>268.5</ele>
        <time>2016-08-27T08:36:20Z</time>
      </trkpt>
      <trkpt lat="43.94908" lon="1.87934">
        <ele>268.9</ele>
        <time>2016-08-27T08:36:21Z</time>
      </trkpt>
      <trkpt lat="43.94911" lon="1.87932">
        <ele>269.3</ele>
        <time>2016-08-27T08:36:22Z</time>
      </trkpt>
      <trkpt lat="43.94914" lon="1.87928">
        <ele>270</ele>
        <time>2016-08-27T08:36:23Z</time>
      </trkpt>
      <trkpt lat="43.94917" lon="1.87926">
        <ele>270.3</ele>
        <time>2016-08-27T08:36:24Z</time>
      </trkpt>
      <trkpt lat="43.94922" lon="1.87921">
        <ele>271</ele>
        <time>2016-08-27T08:36:26Z</time>
      </trkpt>
      <trkpt lat="43.94927" lon="1.87917">
        <ele>271.8</ele>
        <time>2016-08-27T08:36:28Z</time>
      </trkpt>
      <trkpt lat="43.94929" lon="1.87914">
        <ele>272.1</ele>
        <time>2016-08-27T08:36:29Z</time>
      </trkpt>
      <trkpt lat="43.94932" lon="1.87912">
        <ele>272.4</ele>
        <time>2016-08-27T08:36:30Z</time>
      </trkpt>
      <trkpt lat="43.94934" lon="1.87909">
        <ele>272.7</ele>
        <time>2016-08-27T08:36:31Z</time>
      </trkpt>
      <trkpt lat="43.94938" lon="1.87905">
        <ele>273.2</ele>
        <time>2016-08-27T08:36:33Z</time>
      </trkpt>
      <trkpt lat="43.94942" lon="1.87901">
        <ele>273.7</ele>
        <time>2016-08-27T08:36:35Z</time>
      </trkpt>
      <trkpt lat="43.94946" lon="1.87897">
        <ele>274.2</ele>
        <time>2016-08-27T08:36:37Z</time>
      </trkpt>
      <trkpt lat="43.94951" lon="1.87893">
        <ele>274.7</ele>
        <time>2016-08-27T08:36:39Z</time>
      </trkpt>
      <trkpt lat="43.94954" lon="1.87891">
        <ele>275</ele>
        <time>2016-08-27T08:36:40Z</time>
      </trkpt>
      <trkpt lat="43.94957" lon="1.87889">
        <ele>275.3</ele>
        <time>2016-08-27T08:36:41Z</time>
      </trkpt>
      <trkpt lat="43.9496" lon="1.87887">
        <ele>275.5</ele>
        <time>2016-08-27T08:36:42Z</time>
      </trkpt>
      <trkpt lat="43.94963" lon="1.87885">
        <ele>275.7</ele>
        <time>2016-08-27T08:36:43Z</time>
      </trkpt>
      <trkpt lat="43.94966" lon="1.87883">
        <ele>275.8</ele>
        <time>2016-08-27T08:36:44Z</time>
      </trkpt>
      <trkpt lat="43.94969" lon="1.87882">
        <ele>276</ele>
        <time>2016-08-27T08:36:45Z</time>
      </trkpt>
      <trkpt lat="43.94972" lon="1.8788">
        <ele>276.1</ele>
        <time>2016-08-27T08:36:46Z</time>
      </trkpt>
      <trkpt lat="43.94975" lon="1.87878">
        <ele>276.3</ele>
        <time>2016-08-27T08:36:47Z</time>
      </trkpt>
      <trkpt lat="43.94978" lon="1.87876">
        <ele>276.4</ele>
        <time>2016-08-27T08:36:48Z</time>
      </trkpt>
      <trkpt lat="43.94981" lon="1.87874">
        <ele>276.5</ele>
        <time>2016-08-27T08:36:49Z</time>
      </trkpt>
      <trkpt lat="43.94985" lon="1.87872">
        <ele>276.6</ele>
        <time>2016-08-27T08:36:50Z</time>
      </trkpt>
      <trkpt lat="43.94988" lon="1.8787">
        <ele>276.5</ele>
        <time>2016-08-27T08:36:51Z</time>
      </trkpt>
      <trkpt lat="43.94992" lon="1.87868">
        <ele>276.6</ele>
        <time>2016-08-27T08:36:52Z</time>
      </trkpt>
      <trkpt lat="43.94995" lon="1.87866">
        <ele>276.6</ele>
        <time>2016-08-27T08:36:53Z</time>
      </trkpt>
      <trkpt lat="43.94998" lon="1.87864">
        <ele>276.6</ele>
        <time>2016-08-27T08:36:54Z</time>
      </trkpt>
      <trkpt lat="43.95001" lon="1.87862">
        <ele>276.6</ele>
        <time>2016-08-27T08:36:55Z</time>
      </trkpt>
      <trkpt lat="43.95005" lon="1.8786">
        <ele>276.6</ele>
        <time>2016-08-27T08:36:56Z</time>
      </trkpt>
      <trkpt lat="43.95008" lon="1.87859">
        <ele>276.7</ele>
        <time>2016-08-27T08:36:57Z</time>
      </trkpt>
      <trkpt lat="43.95011" lon="1.87857">
        <ele>276.7</ele>
        <time>2016-08-27T08:36:58Z</time>
      </trkpt>
      <trkpt lat="43.95015" lon="1.87855">
        <ele>276.7</ele>
        <time>2016-08-27T08:36:59Z</time>
      </trkpt>
      <trkpt lat="43.95018" lon="1.87853">
        <ele>276.8</ele>
        <time>2016-08-27T08:37:00Z</time>
      </trkpt>
      <trkpt lat="43.95022" lon="1.87851">
        <ele>276.8</ele>
        <time>2016-08-27T08:37:01Z</time>
      </trkpt>
      <trkpt lat="43.95025" lon="1.8785">
        <ele>276.8</ele>
        <time>2016-08-27T08:37:02Z</time>
      </trkpt>
      <trkpt lat="43.95029" lon="1.87848">
        <ele>276.9</ele>
        <time>2016-08-27T08:37:03Z</time>
      </trkpt>
      <trkpt lat="43.95032" lon="1.87847">
        <ele>276.9</ele>
        <time>2016-08-27T08:37:04Z</time>
      </trkpt>
      <trkpt lat="43.95035" lon="1.87845">
        <ele>277</ele>
        <time>2016-08-27T08:37:05Z</time>
      </trkpt>
      <trkpt lat="43.95038" lon="1.87844">
        <ele>277</ele>
        <time>2016-08-27T08:37:06Z</time>
      </trkpt>
      <trkpt lat="43.95041" lon="1.87843">
        <ele>277.1</ele>
        <time>2016-08-27T08:37:07Z</time>
      </trkpt>
      <trkpt lat="43.95044" lon="1.87842">
        <ele>277.2</ele>
        <time>2016-08-27T08:37:08Z</time>
      </trkpt>
      <trkpt lat="43.95047" lon="1.8784">
        <ele>277.4</ele>
        <time>2016-08-27T08:37:09Z</time>
      </trkpt>
      <trkpt lat="43.9505" lon="1.87839">
        <ele>277.5</ele>
        <time>2016-08-27T08:37:10Z</time>
      </trkpt>
      <trkpt lat="43.95052" lon="1.87837">
        <ele>277.6</ele>
        <time>2016-08-27T08:37:11Z</time>
      </trkpt>
      <trkpt lat="43.95055" lon="1.87836">
        <ele>277.7</ele>
        <time>2016-08-27T08:37:12Z</time>
      </trkpt>
      <trkpt lat="43.95058" lon="1.87834">
        <ele>277.9</ele>
        <time>2016-08-27T08:37:13Z</time>
      </trkpt>
      <trkpt lat="43.95061" lon="1.87833">
        <ele>278.1</ele>
        <time>2016-08-27T08:37:14Z</time>
      </trkpt>
      <trkpt lat="43.95065" lon="1.87831">
        <ele>278.2</ele>
        <time>2016-08-27T08:37:15Z</time>
      </trkpt>
      <trkpt lat="43.95068" lon="1.87829">
        <ele>278.4</ele>
        <time>2016-08-27T08:37:16Z</time>
      </trkpt>
      <trkpt lat="43.95071" lon="1.87828">
        <ele>278.5</ele>
        <time>2016-08-27T08:37:17Z</time>
      </trkpt>
      <trkpt lat="43.95074" lon="1.87826">
        <ele>278.7</ele>
        <time>2016-08-27T08:37:18Z</time>
      </trkpt>
      <trkpt lat="43.95077" lon="1.87825">
        <ele>278.9</ele>
        <time>2016-08-27T08:37:19Z</time>
      </trkpt>
      <trkpt lat="43.9508" lon="1.87823">
        <ele>279.1</ele>
        <time>2016-08-27T08:37:20Z</time>
      </trkpt>
      <trkpt lat="43.95083" lon="1.87821">
        <ele>279.4</ele>
        <time>2016-08-27T08:37:21Z</time>
      </trkpt>
      <trkpt lat="43.95087" lon="1.8782">
        <ele>279.6</ele>
        <time>2016-08-27T08:37:22Z</time>
      </trkpt>
      <trkpt lat="43.95091" lon="1.87818">
        <ele>279.9</ele>
        <time>2016-08-27T08:37:23Z</time>
      </trkpt>
      <trkpt lat="43.95094" lon="1.87816">
        <ele>280.1</ele>
        <time>2016-08-27T08:37:24Z</time>
      </trkpt>
      <trkpt lat="43.95098" lon="1.87814">
        <ele>280.4</ele>
        <time>2016-08-27T08:37:25Z</time>
      </trkpt>
      <trkpt lat="43.95101" lon="1.87813">
        <ele>280.7</ele>
        <time>2016-08-27T08:37:26Z</time>
      </trkpt>
      <trkpt lat="43.95105" lon="1.87811">
        <ele>281</ele>
        <time>2016-08-27T08:37:27Z</time>
      </trkpt>
      <trkpt lat="43.95109" lon="1.87809">
        <ele>281.3</ele>
        <time>2016-08-27T08:37:28Z</time>
      </trkpt>
      <trkpt lat="43.95112" lon="1.87807">
        <ele>281.6</ele>
        <time>2016-08-27T08:37:29Z</time>
      </trkpt>
      <trkpt lat="43.95116" lon="1.87805">
        <ele>281.8</ele>
        <time>2016-08-27T08:37:30Z</time>
      </trkpt>
      <trkpt lat="43.9512" lon="1.87803">
        <ele>282.1</ele>
        <time>2016-08-27T08:37:31Z</time>
      </trkpt>
      <trkpt lat="43.95123" lon="1.878">
        <ele>282.3</ele>
        <time>2016-08-27T08:37:32Z</time>
      </trkpt>
      <trkpt lat="43.95126" lon="1.87798">
        <ele>282.5</ele>
        <time>2016-08-27T08:37:33Z</time>
      </trkpt>
      <trkpt lat="43.95129" lon="1.87795">
        <ele>282.5</ele>
        <time>2016-08-27T08:37:34Z</time>
      </trkpt>
      <trkpt lat="43.95132" lon="1.87792">
        <ele>282.5</ele>
        <time>2016-08-27T08:37:35Z</time>
      </trkpt>
      <trkpt lat="43.95135" lon="1.87789">
        <ele>282.3</ele>
        <time>2016-08-27T08:37:36Z</time>
      </trkpt>
      <trkpt lat="43.95139" lon="1.87786">
        <ele>282.2</ele>
        <time>2016-08-27T08:37:37Z</time>
      </trkpt>
      <trkpt lat="43.95142" lon="1.87782">
        <ele>282</ele>
        <time>2016-08-27T08:37:38Z</time>
      </trkpt>
      <trkpt lat="43.95146" lon="1.87779">
        <ele>281.9</ele>
        <time>2016-08-27T08:37:39Z</time>
      </trkpt>
      <trkpt lat="43.95149" lon="1.87775">
        <ele>281.7</ele>
        <time>2016-08-27T08:37:40Z</time>
      </trkpt>
      <trkpt lat="43.95152" lon="1.87772">
        <ele>281.6</ele>
        <time>2016-08-27T08:37:41Z</time>
      </trkpt>
      <trkpt lat="43.95158" lon="1.87767">
        <ele>281.6</ele>
        <time>2016-08-27T08:37:42Z</time>
      </trkpt>
      <trkpt lat="43.9516" lon="1.87763">
        <ele>281.4</ele>
        <time>2016-08-27T08:37:43Z</time>
      </trkpt>
      <trkpt lat="43.95163" lon="1.87759">
        <ele>281.2</ele>
        <time>2016-08-27T08:37:44Z</time>
      </trkpt>
      <trkpt lat="43.95167" lon="1.87754">
        <ele>281.1</ele>
        <time>2016-08-27T08:37:45Z</time>
      </trkpt>
      <trkpt lat="43.95168" lon="1.8775">
        <ele>280.8</ele>
        <time>2016-08-27T08:37:46Z</time>
      </trkpt>
      <trkpt lat="43.95172" lon="1.87746">
        <ele>280.9</ele>
        <time>2016-08-27T08:37:47Z</time>
      </trkpt>
      <trkpt lat="43.95176" lon="1.87742">
        <ele>280.9</ele>
        <time>2016-08-27T08:37:48Z</time>
      </trkpt>
      <trkpt lat="43.95178" lon="1.87737">
        <ele>280.8</ele>
        <time>2016-08-27T08:37:49Z</time>
      </trkpt>
      <trkpt lat="43.95181" lon="1.87734">
        <ele>280.7</ele>
        <time>2016-08-27T08:37:50Z</time>
      </trkpt>
      <trkpt lat="43.95186" lon="1.87728">
        <ele>280.8</ele>
        <time>2016-08-27T08:37:51Z</time>
      </trkpt>
      <trkpt lat="43.95192" lon="1.87725">
        <ele>281.2</ele>
        <time>2016-08-27T08:37:52Z</time>
      </trkpt>
      <trkpt lat="43.95196" lon="1.87721">
        <ele>281.4</ele>
        <time>2016-08-27T08:37:53Z</time>
      </trkpt>
      <trkpt lat="43.95199" lon="1.87718">
        <ele>281.5</ele>
        <time>2016-08-27T08:37:54Z</time>
      </trkpt>
      <trkpt lat="43.95202" lon="1.87715">
        <ele>281.6</ele>
        <time>2016-08-27T08:37:55Z</time>
      </trkpt>
      <trkpt lat="43.95206" lon="1.8771">
        <ele>281.8</ele>
        <time>2016-08-27T08:37:56Z</time>
      </trkpt>
      <trkpt lat="43.95208" lon="1.87706">
        <ele>281.7</ele>
        <time>2016-08-27T08:37:57Z</time>
      </trkpt>
      <trkpt lat="43.9521" lon="1.87702">
        <ele>281.4</ele>
        <time>2016-08-27T08:37:58Z</time>
      </trkpt>
      <trkpt lat="43.95213" lon="1.87697">
        <ele>281.1</ele>
        <time>2016-08-27T08:37:59Z</time>
      </trkpt>
      <trkpt lat="43.95217" lon="1.8769">
        <ele>280.5</ele>
        <time>2016-08-27T08:38:00Z</time>
      </trkpt>
      <trkpt lat="43.95221" lon="1.87685">
        <ele>280.2</ele>
        <time>2016-08-27T08:38:01Z</time>
      </trkpt>
      <trkpt lat="43.95226" lon="1.87678">
        <ele>279.8</ele>
        <time>2016-08-27T08:38:02Z</time>
      </trkpt>
      <trkpt lat="43.9523" lon="1.87673">
        <ele>279.5</ele>
        <time>2016-08-27T08:38:03Z</time>
      </trkpt>
      <trkpt lat="43.95233" lon="1.87668">
        <ele>279.3</ele>
        <time>2016-08-27T08:38:04Z</time>
      </trkpt>
      <trkpt lat="43.95238" lon="1.87662">
        <ele>279.1</ele>
        <time>2016-08-27T08:38:05Z</time>
      </trkpt>
      <trkpt lat="43.9524" lon="1.87658">
        <ele>278.9</ele>
        <time>2016-08-27T08:38:06Z</time>
      </trkpt>
      <trkpt lat="43.95246" lon="1.87651">
        <ele>278.8</ele>
        <time>2016-08-27T08:38:07Z</time>
      </trkpt>
      <trkpt lat="43.95248" lon="1.87647">
        <ele>278.7</ele>
        <time>2016-08-27T08:38:08Z</time>
      </trkpt>
      <trkpt lat="43.95252" lon="1.87644">
        <ele>278.8</ele>
        <time>2016-08-27T08:38:09Z</time>
      </trkpt>
      <trkpt lat="43.95256" lon="1.87638">
        <ele>278.7</ele>
        <time>2016-08-27T08:38:10Z</time>
      </trkpt>
      <trkpt lat="43.9526" lon="1.87634">
        <ele>278.8</ele>
        <time>2016-08-27T08:38:11Z</time>
      </trkpt>
      <trkpt lat="43.95265" lon="1.87629">
        <ele>279</ele>
        <time>2016-08-27T08:38:12Z</time>
      </trkpt>
      <trkpt lat="43.9527" lon="1.87625">
        <ele>279.2</ele>
        <time>2016-08-27T08:38:13Z</time>
      </trkpt>
      <trkpt lat="43.95274" lon="1.87621">
        <ele>279.5</ele>
        <time>2016-08-27T08:38:14Z</time>
      </trkpt>
      <trkpt lat="43.95279" lon="1.87616">
        <ele>279.9</ele>
        <time>2016-08-27T08:38:15Z</time>
      </trkpt>
      <trkpt lat="43.95283" lon="1.87611">
        <ele>280.2</ele>
        <time>2016-08-27T08:38:16Z</time>
      </trkpt>
      <trkpt lat="43.95288" lon="1.87602">
        <ele>280.6</ele>
        <time>2016-08-27T08:38:17Z</time>
      </trkpt>
      <trkpt lat="43.95292" lon="1.87597">
        <ele>281</ele>
        <time>2016-08-27T08:38:18Z</time>
      </trkpt>
      <trkpt lat="43.95294" lon="1.8759">
        <ele>281.1</ele>
        <time>2016-08-27T08:38:19Z</time>
      </trkpt>
      <trkpt lat="43.95296" lon="1.87584">
        <ele>281.2</ele>
        <time>2016-08-27T08:38:20Z</time>
      </trkpt>
      <trkpt lat="43.95301" lon="1.8758">
        <ele>281.5</ele>
        <time>2016-08-27T08:38:21Z</time>
      </trkpt>
      <trkpt lat="43.95306" lon="1.87575">
        <ele>281.8</ele>
        <time>2016-08-27T08:38:22Z</time>
      </trkpt>
      <trkpt lat="43.9531" lon="1.87571">
        <ele>282</ele>
        <time>2016-08-27T08:38:23Z</time>
      </trkpt>
      <trkpt lat="43.95317" lon="1.87564">
        <ele>282.4</ele>
        <time>2016-08-27T08:38:24Z</time>
      </trkpt>
      <trkpt lat="43.95321" lon="1.87559">
        <ele>282.7</ele>
        <time>2016-08-27T08:38:25Z</time>
      </trkpt>
      <trkpt lat="43.95325" lon="1.87556">
        <ele>282.9</ele>
        <time>2016-08-27T08:38:26Z</time>
      </trkpt>
      <trkpt lat="43.95327" lon="1.87548">
        <ele>283.1</ele>
        <time>2016-08-27T08:38:28Z</time>
      </trkpt>
      <trkpt lat="43.95331" lon="1.87543">
        <ele>283.4</ele>
        <time>2016-08-27T08:38:29Z</time>
      </trkpt>
      <trkpt lat="43.95335" lon="1.87535">
        <ele>283.7</ele>
        <time>2016-08-27T08:38:31Z</time>
      </trkpt>
      <trkpt lat="43.95338" lon="1.87531">
        <ele>283.9</ele>
        <time>2016-08-27T08:38:32Z</time>
      </trkpt>
      <trkpt lat="43.95342" lon="1.87526">
        <ele>284.1</ele>
        <time>2016-08-27T08:38:33Z</time>
      </trkpt>
      <trkpt lat="43.95345" lon="1.87522">
        <ele>284.4</ele>
        <time>2016-08-27T08:38:34Z</time>
      </trkpt>
      <trkpt lat="43.95349" lon="1.87514">
        <ele>284.7</ele>
        <time>2016-08-27T08:38:36Z</time>
      </trkpt>
      <trkpt lat="43.95352" lon="1.87507">
        <ele>284.9</ele>
        <time>2016-08-27T08:38:38Z</time>
      </trkpt>
      <trkpt lat="43.95355" lon="1.87502">
        <ele>285</ele>
        <time>2016-08-27T08:38:39Z</time>
      </trkpt>
      <trkpt lat="43.95358" lon="1.87497">
        <ele>285.2</ele>
        <time>2016-08-27T08:38:40Z</time>
      </trkpt>
      <trkpt lat="43.95361" lon="1.87493">
        <ele>285.4</ele>
        <time>2016-08-27T08:38:41Z</time>
      </trkpt>
      <trkpt lat="43.95365" lon="1.87488">
        <ele>285.5</ele>
        <time>2016-08-27T08:38:42Z</time>
      </trkpt>
      <trkpt lat="43.95368" lon="1.87485">
        <ele>285.7</ele>
        <time>2016-08-27T08:38:43Z</time>
      </trkpt>
      <trkpt lat="43.9537" lon="1.8748">
        <ele>285.8</ele>
        <time>2016-08-27T08:38:44Z</time>
      </trkpt>
      <trkpt lat="43.95373" lon="1.87475">
        <ele>285.9</ele>
        <time>2016-08-27T08:38:45Z</time>
      </trkpt>
      <trkpt lat="43.95375" lon="1.87472">
        <ele>286</ele>
        <time>2016-08-27T08:38:46Z</time>
      </trkpt>
      <trkpt lat="43.95377" lon="1.87468">
        <ele>286.2</ele>
        <time>2016-08-27T08:38:47Z</time>
      </trkpt>
      <trkpt lat="43.9538" lon="1.87464">
        <ele>286.4</ele>
        <time>2016-08-27T08:38:48Z</time>
      </trkpt>
      <trkpt lat="43.95383" lon="1.8746">
        <ele>286.7</ele>
        <time>2016-08-27T08:38:49Z</time>
      </trkpt>
      <trkpt lat="43.95386" lon="1.87456">
        <ele>286.9</ele>
        <time>2016-08-27T08:38:50Z</time>
      </trkpt>
      <trkpt lat="43.95389" lon="1.87452">
        <ele>287.2</ele>
        <time>2016-08-27T08:38:51Z</time>
      </trkpt>
      <trkpt lat="43.95393" lon="1.87448">
        <ele>287.4</ele>
        <time>2016-08-27T08:38:52Z</time>
      </trkpt>
      <trkpt lat="43.95397" lon="1.87445">
        <ele>287.7</ele>
        <time>2016-08-27T08:38:53Z</time>
      </trkpt>
      <trkpt lat="43.954" lon="1.87441">
        <ele>287.9</ele>
        <time>2016-08-27T08:38:54Z</time>
      </trkpt>
      <trkpt lat="43.95404" lon="1.87437">
        <ele>288.2</ele>
        <time>2016-08-27T08:38:55Z</time>
      </trkpt>
      <trkpt lat="43.95408" lon="1.87434">
        <ele>288.4</ele>
        <time>2016-08-27T08:38:56Z</time>
      </trkpt>
      <trkpt lat="43.95411" lon="1.8743">
        <ele>288.6</ele>
        <time>2016-08-27T08:38:57Z</time>
      </trkpt>
      <trkpt lat="43.95415" lon="1.87426">
        <ele>288.8</ele>
        <time>2016-08-27T08:38:58Z</time>
      </trkpt>
      <trkpt lat="43.95418" lon="1.87422">
        <ele>288.9</ele>
        <time>2016-08-27T08:38:59Z</time>
      </trkpt>
      <trkpt lat="43.9542" lon="1.87418">
        <ele>289</ele>
        <time>2016-08-27T08:39:00Z</time>
      </trkpt>
      <trkpt lat="43.95423" lon="1.87415">
        <ele>289.2</ele>
        <time>2016-08-27T08:39:01Z</time>
      </trkpt>
      <trkpt lat="43.95427" lon="1.87413">
        <ele>289.3</ele>
        <time>2016-08-27T08:39:03Z</time>
      </trkpt>
      <trkpt lat="43.95429" lon="1.87409">
        <ele>289.4</ele>
        <time>2016-08-27T08:39:05Z</time>
      </trkpt>
      <trkpt lat="43.95432" lon="1.87402">
        <ele>289.4</ele>
        <time>2016-08-27T08:39:07Z</time>
      </trkpt>
      <trkpt lat="43.95435" lon="1.87398">
        <ele>289.5</ele>
        <time>2016-08-27T08:39:08Z</time>
      </trkpt>
      <trkpt lat="43.95439" lon="1.87394">
        <ele>289.6</ele>
        <time>2016-08-27T08:39:09Z</time>
      </trkpt>
      <trkpt lat="43.95443" lon="1.87389">
        <ele>289.7</ele>
        <time>2016-08-27T08:39:10Z</time>
      </trkpt>
      <trkpt lat="43.95446" lon="1.87385">
        <ele>289.7</ele>
        <time>2016-08-27T08:39:11Z</time>
      </trkpt>
      <trkpt lat="43.95449" lon="1.8738">
        <ele>289.7</ele>
        <time>2016-08-27T08:39:12Z</time>
      </trkpt>
      <trkpt lat="43.95453" lon="1.87376">
        <ele>289.7</ele>
        <time>2016-08-27T08:39:13Z</time>
      </trkpt>
      <trkpt lat="43.95456" lon="1.87371">
        <ele>289.8</ele>
        <time>2016-08-27T08:39:14Z</time>
      </trkpt>
      <trkpt lat="43.95461" lon="1.87366">
        <ele>289.8</ele>
        <time>2016-08-27T08:39:15Z</time>
      </trkpt>
      <trkpt lat="43.95469" lon="1.87358">
        <ele>289.8</ele>
        <time>2016-08-27T08:39:16Z</time>
      </trkpt>
      <trkpt lat="43.95472" lon="1.87352">
        <ele>289.8</ele>
        <time>2016-08-27T08:39:17Z</time>
      </trkpt>
      <trkpt lat="43.95477" lon="1.87348">
        <ele>289.8</ele>
        <time>2016-08-27T08:39:18Z</time>
      </trkpt>
      <trkpt lat="43.95481" lon="1.87343">
        <ele>289.7</ele>
        <time>2016-08-27T08:39:19Z</time>
      </trkpt>
      <trkpt lat="43.95485" lon="1.87338">
        <ele>289.7</ele>
        <time>2016-08-27T08:39:20Z</time>
      </trkpt>
      <trkpt lat="43.95488" lon="1.87335">
        <ele>289.6</ele>
        <time>2016-08-27T08:39:21Z</time>
      </trkpt>
      <trkpt lat="43.95493" lon="1.87329">
        <ele>289.5</ele>
        <time>2016-08-27T08:39:22Z</time>
      </trkpt>
      <trkpt lat="43.95497" lon="1.87323">
        <ele>289.4</ele>
        <time>2016-08-27T08:39:23Z</time>
      </trkpt>
      <trkpt lat="43.95503" lon="1.87319">
        <ele>289.4</ele>
        <time>2016-08-27T08:39:24Z</time>
      </trkpt>
      <trkpt lat="43.95508" lon="1.87315">
        <ele>289.4</ele>
        <time>2016-08-27T08:39:25Z</time>
      </trkpt>
      <trkpt lat="43.95511" lon="1.87311">
        <ele>289.3</ele>
        <time>2016-08-27T08:39:26Z</time>
      </trkpt>
      <trkpt lat="43.95516" lon="1.87309">
        <ele>289.3</ele>
        <time>2016-08-27T08:39:27Z</time>
      </trkpt>
      <trkpt lat="43.9552" lon="1.87307">
        <ele>289.3</ele>
        <time>2016-08-27T08:39:28Z</time>
      </trkpt>
      <trkpt lat="43.95524" lon="1.87304">
        <ele>289.3</ele>
        <time>2016-08-27T08:39:29Z</time>
      </trkpt>
      <trkpt lat="43.95529" lon="1.87302">
        <ele>289.3</ele>
        <time>2016-08-27T08:39:30Z</time>
      </trkpt>
      <trkpt lat="43.95533" lon="1.87301">
        <ele>289.3</ele>
        <time>2016-08-27T08:39:31Z</time>
      </trkpt>
      <trkpt lat="43.95543" lon="1.87296">
        <ele>289.3</ele>
        <time>2016-08-27T08:39:32Z</time>
      </trkpt>
      <trkpt lat="43.95547" lon="1.87297">
        <ele>289.5</ele>
        <time>2016-08-27T08:39:33Z</time>
      </trkpt>
      <trkpt lat="43.95552" lon="1.87291">
        <ele>289.4</ele>
        <time>2016-08-27T08:39:34Z</time>
      </trkpt>
      <trkpt lat="43.95554" lon="1.87289">
        <ele>289.3</ele>
        <time>2016-08-27T08:39:35Z</time>
      </trkpt>
      <trkpt lat="43.95558" lon="1.87287">
        <ele>289.4</ele>
        <time>2016-08-27T08:39:36Z</time>
      </trkpt>
      <trkpt lat="43.95562" lon="1.87283">
        <ele>289.4</ele>
        <time>2016-08-27T08:39:37Z</time>
      </trkpt>
      <trkpt lat="43.95565" lon="1.87281">
        <ele>289.4</ele>
        <time>2016-08-27T08:39:38Z</time>
      </trkpt>
      <trkpt lat="43.95569" lon="1.8728">
        <ele>289.6</ele>
        <time>2016-08-27T08:39:39Z</time>
      </trkpt>
      <trkpt lat="43.95573" lon="1.8728">
        <ele>289.7</ele>
        <time>2016-08-27T08:39:40Z</time>
      </trkpt>
      <trkpt lat="43.95578" lon="1.87278">
        <ele>289.9</ele>
        <time>2016-08-27T08:39:41Z</time>
      </trkpt>
      <trkpt lat="43.95582" lon="1.87276">
        <ele>290</ele>
        <time>2016-08-27T08:39:42Z</time>
      </trkpt>
      <trkpt lat="43.95587" lon="1.87274">
        <ele>290.1</ele>
        <time>2016-08-27T08:39:43Z</time>
      </trkpt>
      <trkpt lat="43.95591" lon="1.87272">
        <ele>290.2</ele>
        <time>2016-08-27T08:39:44Z</time>
      </trkpt>
      <trkpt lat="43.95595" lon="1.87271">
        <ele>290.4</ele>
        <time>2016-08-27T08:39:45Z</time>
      </trkpt>
      <trkpt lat="43.95598" lon="1.87269">
        <ele>290.5</ele>
        <time>2016-08-27T08:39:46Z</time>
      </trkpt>
      <trkpt lat="43.95601" lon="1.87268">
        <ele>290.6</ele>
        <time>2016-08-27T08:39:47Z</time>
      </trkpt>
      <trkpt lat="43.95606" lon="1.87266">
        <ele>290.8</ele>
        <time>2016-08-27T08:39:49Z</time>
      </trkpt>
      <trkpt lat="43.9561" lon="1.87263">
        <ele>290.9</ele>
        <time>2016-08-27T08:39:51Z</time>
      </trkpt>
      <trkpt lat="43.95613" lon="1.8726">
        <ele>291</ele>
        <time>2016-08-27T08:39:52Z</time>
      </trkpt>
      <trkpt lat="43.95617" lon="1.87256">
        <ele>291.1</ele>
        <time>2016-08-27T08:39:53Z</time>
      </trkpt>
      <trkpt lat="43.95627" lon="1.87249">
        <ele>291.4</ele>
        <time>2016-08-27T08:39:54Z</time>
      </trkpt>
      <trkpt lat="43.95632" lon="1.87246">
        <ele>291.2</ele>
        <time>2016-08-27T08:39:55Z</time>
      </trkpt>
      <trkpt lat="43.95637" lon="1.8724">
        <ele>291</ele>
        <time>2016-08-27T08:39:56Z</time>
      </trkpt>
      <trkpt lat="43.95642" lon="1.87236">
        <ele>290.8</ele>
        <time>2016-08-27T08:39:57Z</time>
      </trkpt>
      <trkpt lat="43.95647" lon="1.87229">
        <ele>290.6</ele>
        <time>2016-08-27T08:39:58Z</time>
      </trkpt>
      <trkpt lat="43.95653" lon="1.87223">
        <ele>290.5</ele>
        <time>2016-08-27T08:39:59Z</time>
      </trkpt>
      <trkpt lat="43.95661" lon="1.87215">
        <ele>290.5</ele>
        <time>2016-08-27T08:40:00Z</time>
      </trkpt>
      <trkpt lat="43.95667" lon="1.87209">
        <ele>290.5</ele>
        <time>2016-08-27T08:40:01Z</time>
      </trkpt>
      <trkpt lat="43.95671" lon="1.87206">
        <ele>290.4</ele>
        <time>2016-08-27T08:40:02Z</time>
      </trkpt>
      <trkpt lat="43.95676" lon="1.87201">
        <ele>290.3</ele>
        <time>2016-08-27T08:40:03Z</time>
      </trkpt>
      <trkpt lat="43.95683" lon="1.87194">
        <ele>290.3</ele>
        <time>2016-08-27T08:40:04Z</time>
      </trkpt>
      <trkpt lat="43.95688" lon="1.87189">
        <ele>290.2</ele>
        <time>2016-08-27T08:40:05Z</time>
      </trkpt>
      <trkpt lat="43.95692" lon="1.87182">
        <ele>290.3</ele>
        <time>2016-08-27T08:40:06Z</time>
      </trkpt>
      <trkpt lat="43.95692" lon="1.87177">
        <ele>290.3</ele>
        <time>2016-08-27T08:40:07Z</time>
      </trkpt>
      <trkpt lat="43.95699" lon="1.87172">
        <ele>290.4</ele>
        <time>2016-08-27T08:40:08Z</time>
      </trkpt>
      <trkpt lat="43.95704" lon="1.87166">
        <ele>290.4</ele>
        <time>2016-08-27T08:40:09Z</time>
      </trkpt>
      <trkpt lat="43.95717" lon="1.87161">
        <ele>289.8</ele>
        <time>2016-08-27T08:40:10Z</time>
      </trkpt>
      <trkpt lat="43.95724" lon="1.87155">
        <ele>289.3</ele>
        <time>2016-08-27T08:40:11Z</time>
      </trkpt>
      <trkpt lat="43.95732" lon="1.87149">
        <ele>288.7</ele>
        <time>2016-08-27T08:40:12Z</time>
      </trkpt>
      <trkpt lat="43.95742" lon="1.87144">
        <ele>288</ele>
        <time>2016-08-27T08:40:13Z</time>
      </trkpt>
      <trkpt lat="43.95749" lon="1.87139">
        <ele>287.4</ele>
        <time>2016-08-27T08:40:14Z</time>
      </trkpt>
      <trkpt lat="43.95754" lon="1.87134">
        <ele>287</ele>
        <time>2016-08-27T08:40:15Z</time>
      </trkpt>
      <trkpt lat="43.95763" lon="1.87129">
        <ele>286.4</ele>
        <time>2016-08-27T08:40:16Z</time>
      </trkpt>
      <trkpt lat="43.9577" lon="1.87124">
        <ele>285.8</ele>
        <time>2016-08-27T08:40:17Z</time>
      </trkpt>
      <trkpt lat="43.95779" lon="1.87118">
        <ele>285</ele>
        <time>2016-08-27T08:40:18Z</time>
      </trkpt>
      <trkpt lat="43.95787" lon="1.87112">
        <ele>284.3</ele>
        <time>2016-08-27T08:40:19Z</time>
      </trkpt>
      <trkpt lat="43.95793" lon="1.87109">
        <ele>283.8</ele>
        <time>2016-08-27T08:40:20Z</time>
      </trkpt>
      <trkpt lat="43.95799" lon="1.87105">
        <ele>283.5</ele>
        <time>2016-08-27T08:40:21Z</time>
      </trkpt>
      <trkpt lat="43.95806" lon="1.87099">
        <ele>283.2</ele>
        <time>2016-08-27T08:40:22Z</time>
      </trkpt>
      <trkpt lat="43.95814" lon="1.87094">
        <ele>282.9</ele>
        <time>2016-08-27T08:40:23Z</time>
      </trkpt>
      <trkpt lat="43.95821" lon="1.87087">
        <ele>282.5</ele>
        <time>2016-08-27T08:40:24Z</time>
      </trkpt>
      <trkpt lat="43.95829" lon="1.87083">
        <ele>282.1</ele>
        <time>2016-08-27T08:40:25Z</time>
      </trkpt>
      <trkpt lat="43.95837" lon="1.87078">
        <ele>281.7</ele>
        <time>2016-08-27T08:40:26Z</time>
      </trkpt>
      <trkpt lat="43.95842" lon="1.87074">
        <ele>281.4</ele>
        <time>2016-08-27T08:40:27Z</time>
      </trkpt>
      <trkpt lat="43.95849" lon="1.87072">
        <ele>281.1</ele>
        <time>2016-08-27T08:40:28Z</time>
      </trkpt>
      <trkpt lat="43.95853" lon="1.87069">
        <ele>280.9</ele>
        <time>2016-08-27T08:40:29Z</time>
      </trkpt>
      <trkpt lat="43.9586" lon="1.87066">
        <ele>280.5</ele>
        <time>2016-08-27T08:40:30Z</time>
      </trkpt>
      <trkpt lat="43.95868" lon="1.87063">
        <ele>280</ele>
        <time>2016-08-27T08:40:31Z</time>
      </trkpt>
      <trkpt lat="43.95877" lon="1.8706">
        <ele>279.7</ele>
        <time>2016-08-27T08:40:32Z</time>
      </trkpt>
      <trkpt lat="43.95883" lon="1.87058">
        <ele>279.8</ele>
        <time>2016-08-27T08:40:33Z</time>
      </trkpt>
      <trkpt lat="43.95889" lon="1.87055">
        <ele>279.8</ele>
        <time>2016-08-27T08:40:34Z</time>
      </trkpt>
      <trkpt lat="43.95895" lon="1.87053">
        <ele>279.9</ele>
        <time>2016-08-27T08:40:35Z</time>
      </trkpt>
      <trkpt lat="43.95903" lon="1.87049">
        <ele>279.9</ele>
        <time>2016-08-27T08:40:36Z</time>
      </trkpt>
      <trkpt lat="43.95909" lon="1.87047">
        <ele>280</ele>
        <time>2016-08-27T08:40:37Z</time>
      </trkpt>
      <trkpt lat="43.95911" lon="1.87044">
        <ele>279.9</ele>
        <time>2016-08-27T08:40:38Z</time>
      </trkpt>
      <trkpt lat="43.95915" lon="1.87042">
        <ele>280</ele>
        <time>2016-08-27T08:40:39Z</time>
      </trkpt>
      <trkpt lat="43.9592" lon="1.87041">
        <ele>280</ele>
        <time>2016-08-27T08:40:40Z</time>
      </trkpt>
      <trkpt lat="43.95925" lon="1.87039">
        <ele>280.1</ele>
        <time>2016-08-27T08:40:41Z</time>
      </trkpt>
      <trkpt lat="43.95931" lon="1.87037">
        <ele>280.1</ele>
        <time>2016-08-27T08:40:42Z</time>
      </trkpt>
      <trkpt lat="43.95937" lon="1.87036">
        <ele>280.1</ele>
        <time>2016-08-27T08:40:43Z</time>
      </trkpt>
      <trkpt lat="43.95943" lon="1.87035">
        <ele>280.2</ele>
        <time>2016-08-27T08:40:44Z</time>
      </trkpt>
      <trkpt lat="43.95948" lon="1.87034">
        <ele>280.2</ele>
        <time>2016-08-27T08:40:45Z</time>
      </trkpt>
      <trkpt lat="43.95957" lon="1.87034">
        <ele>280.4</ele>
        <time>2016-08-27T08:40:46Z</time>
      </trkpt>
      <trkpt lat="43.95963" lon="1.87034">
        <ele>280.4</ele>
        <time>2016-08-27T08:40:47Z</time>
      </trkpt>
      <trkpt lat="43.95967" lon="1.87032">
        <ele>280.3</ele>
        <time>2016-08-27T08:40:48Z</time>
      </trkpt>
      <trkpt lat="43.95972" lon="1.87031">
        <ele>280.2</ele>
        <time>2016-08-27T08:40:49Z</time>
      </trkpt>
      <trkpt lat="43.95975" lon="1.87029">
        <ele>280</ele>
        <time>2016-08-27T08:40:50Z</time>
      </trkpt>
      <trkpt lat="43.95978" lon="1.87026">
        <ele>279.9</ele>
        <time>2016-08-27T08:40:51Z</time>
      </trkpt>
      <trkpt lat="43.95987" lon="1.87023">
        <ele>279.7</ele>
        <time>2016-08-27T08:40:52Z</time>
      </trkpt>
      <trkpt lat="43.95992" lon="1.87021">
        <ele>279.6</ele>
        <time>2016-08-27T08:40:53Z</time>
      </trkpt>
      <trkpt lat="43.95998" lon="1.87018">
        <ele>279.5</ele>
        <time>2016-08-27T08:40:54Z</time>
      </trkpt>
      <trkpt lat="43.96002" lon="1.87011">
        <ele>279.2</ele>
        <time>2016-08-27T08:40:56Z</time>
      </trkpt>
      <trkpt lat="43.96005" lon="1.87006">
        <ele>279.1</ele>
        <time>2016-08-27T08:40:57Z</time>
      </trkpt>
      <trkpt lat="43.96012" lon="1.87001">
        <ele>279</ele>
        <time>2016-08-27T08:40:58Z</time>
      </trkpt>
      <trkpt lat="43.96017" lon="1.86996">
        <ele>278.9</ele>
        <time>2016-08-27T08:40:59Z</time>
      </trkpt>
      <trkpt lat="43.96023" lon="1.8699">
        <ele>278.9</ele>
        <time>2016-08-27T08:41:00Z</time>
      </trkpt>
      <trkpt lat="43.96028" lon="1.86986">
        <ele>278.9</ele>
        <time>2016-08-27T08:41:01Z</time>
      </trkpt>
      <trkpt lat="43.96032" lon="1.86982">
        <ele>279</ele>
        <time>2016-08-27T08:41:02Z</time>
      </trkpt>
      <trkpt lat="43.96036" lon="1.86977">
        <ele>279</ele>
        <time>2016-08-27T08:41:03Z</time>
      </trkpt>
      <trkpt lat="43.96041" lon="1.86971">
        <ele>279.1</ele>
        <time>2016-08-27T08:41:04Z</time>
      </trkpt>
      <trkpt lat="43.96046" lon="1.86966">
        <ele>279.2</ele>
        <time>2016-08-27T08:41:05Z</time>
      </trkpt>
      <trkpt lat="43.96051" lon="1.86959">
        <ele>279.2</ele>
        <time>2016-08-27T08:41:06Z</time>
      </trkpt>
      <trkpt lat="43.96056" lon="1.86955">
        <ele>279.2</ele>
        <time>2016-08-27T08:41:07Z</time>
      </trkpt>
      <trkpt lat="43.96062" lon="1.86948">
        <ele>279</ele>
        <time>2016-08-27T08:41:08Z</time>
      </trkpt>
      <trkpt lat="43.96067" lon="1.86943">
        <ele>278.9</ele>
        <time>2016-08-27T08:41:09Z</time>
      </trkpt>
      <trkpt lat="43.96071" lon="1.86938">
        <ele>278.7</ele>
        <time>2016-08-27T08:41:10Z</time>
      </trkpt>
      <trkpt lat="43.96076" lon="1.86936">
        <ele>278.8</ele>
        <time>2016-08-27T08:41:11Z</time>
      </trkpt>
      <trkpt lat="43.96081" lon="1.86933">
        <ele>278.8</ele>
        <time>2016-08-27T08:41:12Z</time>
      </trkpt>
      <trkpt lat="43.96086" lon="1.86926">
        <ele>278.8</ele>
        <time>2016-08-27T08:41:13Z</time>
      </trkpt>
      <trkpt lat="43.96093" lon="1.86921">
        <ele>278.8</ele>
        <time>2016-08-27T08:41:14Z</time>
      </trkpt>
      <trkpt lat="43.961" lon="1.86915">
        <ele>278.9</ele>
        <time>2016-08-27T08:41:15Z</time>
      </trkpt>
      <trkpt lat="43.96105" lon="1.86911">
        <ele>279</ele>
        <time>2016-08-27T08:41:16Z</time>
      </trkpt>
      <trkpt lat="43.96108" lon="1.86907">
        <ele>279</ele>
        <time>2016-08-27T08:41:17Z</time>
      </trkpt>
      <trkpt lat="43.96113" lon="1.86903">
        <ele>279.1</ele>
        <time>2016-08-27T08:41:18Z</time>
      </trkpt>
      <trkpt lat="43.96121" lon="1.86901">
        <ele>279.4</ele>
        <time>2016-08-27T08:41:19Z</time>
      </trkpt>
      <trkpt lat="43.96126" lon="1.86896">
        <ele>279.5</ele>
        <time>2016-08-27T08:41:20Z</time>
      </trkpt>
      <trkpt lat="43.96131" lon="1.86892">
        <ele>279.3</ele>
        <time>2016-08-27T08:41:21Z</time>
      </trkpt>
      <trkpt lat="43.96135" lon="1.86887">
        <ele>279.2</ele>
        <time>2016-08-27T08:41:22Z</time>
      </trkpt>
      <trkpt lat="43.96142" lon="1.86883">
        <ele>279.1</ele>
        <time>2016-08-27T08:41:23Z</time>
      </trkpt>
      <trkpt lat="43.96146" lon="1.86878">
        <ele>279</ele>
        <time>2016-08-27T08:41:24Z</time>
      </trkpt>
      <trkpt lat="43.96151" lon="1.86875">
        <ele>279</ele>
        <time>2016-08-27T08:41:25Z</time>
      </trkpt>
      <trkpt lat="43.96156" lon="1.8687">
        <ele>278.8</ele>
        <time>2016-08-27T08:41:26Z</time>
      </trkpt>
      <trkpt lat="43.96164" lon="1.86864">
        <ele>278.6</ele>
        <time>2016-08-27T08:41:27Z</time>
      </trkpt>
      <trkpt lat="43.9617" lon="1.86858">
        <ele>278.5</ele>
        <time>2016-08-27T08:41:28Z</time>
      </trkpt>
      <trkpt lat="43.96173" lon="1.86852">
        <ele>278.3</ele>
        <time>2016-08-27T08:41:29Z</time>
      </trkpt>
      <trkpt lat="43.96177" lon="1.86846">
        <ele>278.3</ele>
        <time>2016-08-27T08:41:30Z</time>
      </trkpt>
      <trkpt lat="43.96183" lon="1.86841">
        <ele>278.4</ele>
        <time>2016-08-27T08:41:31Z</time>
      </trkpt>
      <trkpt lat="43.96189" lon="1.86836">
        <ele>278.6</ele>
        <time>2016-08-27T08:41:32Z</time>
      </trkpt>
      <trkpt lat="43.96194" lon="1.86831">
        <ele>278.8</ele>
        <time>2016-08-27T08:41:33Z</time>
      </trkpt>
      <trkpt lat="43.96204" lon="1.86827">
        <ele>279.4</ele>
        <time>2016-08-27T08:41:34Z</time>
      </trkpt>
      <trkpt lat="43.96211" lon="1.86822">
        <ele>279.6</ele>
        <time>2016-08-27T08:41:35Z</time>
      </trkpt>
      <trkpt lat="43.96216" lon="1.86817">
        <ele>279.6</ele>
        <time>2016-08-27T08:41:36Z</time>
      </trkpt>
      <trkpt lat="43.96218" lon="1.86815">
        <ele>279.6</ele>
        <time>2016-08-27T08:41:37Z</time>
      </trkpt>
      <trkpt lat="43.96227" lon="1.86812">
        <ele>279.6</ele>
        <time>2016-08-27T08:41:38Z</time>
      </trkpt>
      <trkpt lat="43.96235" lon="1.86808">
        <ele>279.6</ele>
        <time>2016-08-27T08:41:39Z</time>
      </trkpt>
      <trkpt lat="43.96239" lon="1.86804">
        <ele>279.7</ele>
        <time>2016-08-27T08:41:40Z</time>
      </trkpt>
      <trkpt lat="43.96246" lon="1.868">
        <ele>279.8</ele>
        <time>2016-08-27T08:41:41Z</time>
      </trkpt>
      <trkpt lat="43.96254" lon="1.86797">
        <ele>279.8</ele>
        <time>2016-08-27T08:41:42Z</time>
      </trkpt>
      <trkpt lat="43.96262" lon="1.86794">
        <ele>279.9</ele>
        <time>2016-08-27T08:41:43Z</time>
      </trkpt>
      <trkpt lat="43.96271" lon="1.86793">
        <ele>279.9</ele>
        <time>2016-08-27T08:41:44Z</time>
      </trkpt>
      <trkpt lat="43.9628" lon="1.86791">
        <ele>280</ele>
        <time>2016-08-27T08:41:45Z</time>
      </trkpt>
      <trkpt lat="43.96287" lon="1.86789">
        <ele>280</ele>
        <time>2016-08-27T08:41:46Z</time>
      </trkpt>
      <trkpt lat="43.96298" lon="1.86789">
        <ele>279.7</ele>
        <time>2016-08-27T08:41:47Z</time>
      </trkpt>
      <trkpt lat="43.96305" lon="1.86787">
        <ele>279.4</ele>
        <time>2016-08-27T08:41:48Z</time>
      </trkpt>
      <trkpt lat="43.96312" lon="1.86787">
        <ele>279</ele>
        <time>2016-08-27T08:41:49Z</time>
      </trkpt>
      <trkpt lat="43.96321" lon="1.86783">
        <ele>278.6</ele>
        <time>2016-08-27T08:41:50Z</time>
      </trkpt>
      <trkpt lat="43.9634" lon="1.8677">
        <ele>277.7</ele>
        <time>2016-08-27T08:41:52Z</time>
      </trkpt>
      <trkpt lat="43.96348" lon="1.8676">
        <ele>277.3</ele>
        <time>2016-08-27T08:41:53Z</time>
      </trkpt>
      <trkpt lat="43.96357" lon="1.86752">
        <ele>276.9</ele>
        <time>2016-08-27T08:41:54Z</time>
      </trkpt>
      <trkpt lat="43.96366" lon="1.86744">
        <ele>276.4</ele>
        <time>2016-08-27T08:41:55Z</time>
      </trkpt>
      <trkpt lat="43.96375" lon="1.86735">
        <ele>276</ele>
        <time>2016-08-27T08:41:56Z</time>
      </trkpt>
      <trkpt lat="43.96385" lon="1.86727">
        <ele>275.5</ele>
        <time>2016-08-27T08:41:57Z</time>
      </trkpt>
      <trkpt lat="43.96395" lon="1.8672">
        <ele>275.2</ele>
        <time>2016-08-27T08:41:58Z</time>
      </trkpt>
      <trkpt lat="43.96404" lon="1.86716">
        <ele>274.8</ele>
        <time>2016-08-27T08:41:59Z</time>
      </trkpt>
      <trkpt lat="43.96414" lon="1.86711">
        <ele>274.6</ele>
        <time>2016-08-27T08:42:00Z</time>
      </trkpt>
      <trkpt lat="43.96422" lon="1.86708">
        <ele>274.3</ele>
        <time>2016-08-27T08:42:01Z</time>
      </trkpt>
      <trkpt lat="43.96431" lon="1.86705">
        <ele>274.1</ele>
        <time>2016-08-27T08:42:02Z</time>
      </trkpt>
      <trkpt lat="43.9644" lon="1.86707">
        <ele>273.7</ele>
        <time>2016-08-27T08:42:03Z</time>
      </trkpt>
      <trkpt lat="43.9645" lon="1.86706">
        <ele>273.4</ele>
        <time>2016-08-27T08:42:04Z</time>
      </trkpt>
      <trkpt lat="43.96461" lon="1.86705">
        <ele>273.1</ele>
        <time>2016-08-27T08:42:05Z</time>
      </trkpt>
      <trkpt lat="43.96471" lon="1.86706">
        <ele>272.5</ele>
        <time>2016-08-27T08:42:06Z</time>
      </trkpt>
      <trkpt lat="43.96478" lon="1.86701">
        <ele>272.4</ele>
        <time>2016-08-27T08:42:07Z</time>
      </trkpt>
      <trkpt lat="43.96486" lon="1.86699">
        <ele>272.1</ele>
        <time>2016-08-27T08:42:08Z</time>
      </trkpt>
      <trkpt lat="43.96495" lon="1.86697">
        <ele>271.8</ele>
        <time>2016-08-27T08:42:09Z</time>
      </trkpt>
      <trkpt lat="43.96503" lon="1.86693">
        <ele>271.7</ele>
        <time>2016-08-27T08:42:10Z</time>
      </trkpt>
      <trkpt lat="43.96509" lon="1.86688">
        <ele>272</ele>
        <time>2016-08-27T08:42:11Z</time>
      </trkpt>
      <trkpt lat="43.96516" lon="1.86683">
        <ele>272.1</ele>
        <time>2016-08-27T08:42:12Z</time>
      </trkpt>
      <trkpt lat="43.96522" lon="1.86674">
        <ele>272.8</ele>
        <time>2016-08-27T08:42:13Z</time>
      </trkpt>
      <trkpt lat="43.96528" lon="1.86664">
        <ele>273.7</ele>
        <time>2016-08-27T08:42:14Z</time>
      </trkpt>
      <trkpt lat="43.96533" lon="1.86655">
        <ele>274.6</ele>
        <time>2016-08-27T08:42:15Z</time>
      </trkpt>
      <trkpt lat="43.96537" lon="1.86646">
        <ele>275.6</ele>
        <time>2016-08-27T08:42:16Z</time>
      </trkpt>
      <trkpt lat="43.96536" lon="1.86635">
        <ele>276.8</ele>
        <time>2016-08-27T08:42:17Z</time>
      </trkpt>
      <trkpt lat="43.96542" lon="1.86625">
        <ele>277.9</ele>
        <time>2016-08-27T08:42:18Z</time>
      </trkpt>
      <trkpt lat="43.96547" lon="1.86616">
        <ele>277.3</ele>
        <time>2016-08-27T08:42:19Z</time>
      </trkpt>
      <trkpt lat="43.96557" lon="1.86606">
        <ele>275.6</ele>
        <time>2016-08-27T08:42:20Z</time>
      </trkpt>
      <trkpt lat="43.96565" lon="1.86597">
        <ele>274.7</ele>
        <time>2016-08-27T08:42:21Z</time>
      </trkpt>
      <trkpt lat="43.96569" lon="1.86587">
        <ele>274.5</ele>
        <time>2016-08-27T08:42:22Z</time>
      </trkpt>
      <trkpt lat="43.9658" lon="1.86579">
        <ele>273.1</ele>
        <time>2016-08-27T08:42:23Z</time>
      </trkpt>
      <trkpt lat="43.96589" lon="1.86572">
        <ele>272.2</ele>
        <time>2016-08-27T08:42:24Z</time>
      </trkpt>
      <trkpt lat="43.96598" lon="1.86565">
        <ele>271.4</ele>
        <time>2016-08-27T08:42:25Z</time>
      </trkpt>
      <trkpt lat="43.96607" lon="1.8656">
        <ele>270.6</ele>
        <time>2016-08-27T08:42:26Z</time>
      </trkpt>
      <trkpt lat="43.96616" lon="1.86556">
        <ele>269.6</ele>
        <time>2016-08-27T08:42:27Z</time>
      </trkpt>
      <trkpt lat="43.96622" lon="1.86553">
        <ele>269</ele>
        <time>2016-08-27T08:42:28Z</time>
      </trkpt>
      <trkpt lat="43.9663" lon="1.86548">
        <ele>268.6</ele>
        <time>2016-08-27T08:42:29Z</time>
      </trkpt>
      <trkpt lat="43.96636" lon="1.86545">
        <ele>268.3</ele>
        <time>2016-08-27T08:42:30Z</time>
      </trkpt>
      <trkpt lat="43.96646" lon="1.8654">
        <ele>267.7</ele>
        <time>2016-08-27T08:42:31Z</time>
      </trkpt>
      <trkpt lat="43.96653" lon="1.86535">
        <ele>267.4</ele>
        <time>2016-08-27T08:42:32Z</time>
      </trkpt>
      <trkpt lat="43.9666" lon="1.86531">
        <ele>266.8</ele>
        <time>2016-08-27T08:42:33Z</time>
      </trkpt>
      <trkpt lat="43.96666" lon="1.86528">
        <ele>266.6</ele>
        <time>2016-08-27T08:42:34Z</time>
      </trkpt>
      <trkpt lat="43.96673" lon="1.86521">
        <ele>266.3</ele>
        <time>2016-08-27T08:42:35Z</time>
      </trkpt>
      <trkpt lat="43.96681" lon="1.86516">
        <ele>265.9</ele>
        <time>2016-08-27T08:42:36Z</time>
      </trkpt>
      <trkpt lat="43.96686" lon="1.86512">
        <ele>265.6</ele>
        <time>2016-08-27T08:42:37Z</time>
      </trkpt>
      <trkpt lat="43.96693" lon="1.86507">
        <ele>265.3</ele>
        <time>2016-08-27T08:42:38Z</time>
      </trkpt>
      <trkpt lat="43.96701" lon="1.86502">
        <ele>264.8</ele>
        <time>2016-08-27T08:42:39Z</time>
      </trkpt>
      <trkpt lat="43.96706" lon="1.86496">
        <ele>264.6</ele>
        <time>2016-08-27T08:42:40Z</time>
      </trkpt>
      <trkpt lat="43.96713" lon="1.86492">
        <ele>264.3</ele>
        <time>2016-08-27T08:42:41Z</time>
      </trkpt>
      <trkpt lat="43.96722" lon="1.86484">
        <ele>264</ele>
        <time>2016-08-27T08:42:42Z</time>
      </trkpt>
      <trkpt lat="43.96731" lon="1.86479">
        <ele>263.4</ele>
        <time>2016-08-27T08:42:43Z</time>
      </trkpt>
      <trkpt lat="43.96738" lon="1.86474">
        <ele>263.3</ele>
        <time>2016-08-27T08:42:44Z</time>
      </trkpt>
      <trkpt lat="43.96744" lon="1.86468">
        <ele>263.2</ele>
        <time>2016-08-27T08:42:45Z</time>
      </trkpt>
      <trkpt lat="43.96753" lon="1.86463">
        <ele>262.7</ele>
        <time>2016-08-27T08:42:46Z</time>
      </trkpt>
      <trkpt lat="43.9676" lon="1.86456">
        <ele>262.6</ele>
        <time>2016-08-27T08:42:47Z</time>
      </trkpt>
      <trkpt lat="43.96772" lon="1.8645">
        <ele>261.7</ele>
        <time>2016-08-27T08:42:48Z</time>
      </trkpt>
      <trkpt lat="43.96782" lon="1.86447">
        <ele>260.9</ele>
        <time>2016-08-27T08:42:49Z</time>
      </trkpt>
      <trkpt lat="43.96791" lon="1.86443">
        <ele>260.2</ele>
        <time>2016-08-27T08:42:50Z</time>
      </trkpt>
      <trkpt lat="43.96798" lon="1.86438">
        <ele>260</ele>
        <time>2016-08-27T08:42:51Z</time>
      </trkpt>
      <trkpt lat="43.96805" lon="1.86432">
        <ele>259.7</ele>
        <time>2016-08-27T08:42:52Z</time>
      </trkpt>
      <trkpt lat="43.96814" lon="1.86429">
        <ele>259.2</ele>
        <time>2016-08-27T08:42:53Z</time>
      </trkpt>
      <trkpt lat="43.96821" lon="1.86423">
        <ele>258.8</ele>
        <time>2016-08-27T08:42:54Z</time>
      </trkpt>
      <trkpt lat="43.96828" lon="1.86417">
        <ele>258.5</ele>
        <time>2016-08-27T08:42:55Z</time>
      </trkpt>
      <trkpt lat="43.96836" lon="1.86408">
        <ele>258.2</ele>
        <time>2016-08-27T08:42:56Z</time>
      </trkpt>
      <trkpt lat="43.96843" lon="1.86399">
        <ele>257.8</ele>
        <time>2016-08-27T08:42:57Z</time>
      </trkpt>
      <trkpt lat="43.96852" lon="1.86391">
        <ele>257.2</ele>
        <time>2016-08-27T08:42:58Z</time>
      </trkpt>
      <trkpt lat="43.96862" lon="1.86381">
        <ele>256.4</ele>
        <time>2016-08-27T08:42:59Z</time>
      </trkpt>
      <trkpt lat="43.96869" lon="1.8637">
        <ele>255.4</ele>
        <time>2016-08-27T08:43:00Z</time>
      </trkpt>
      <trkpt lat="43.96876" lon="1.86364">
        <ele>254.1</ele>
        <time>2016-08-27T08:43:01Z</time>
      </trkpt>
      <trkpt lat="43.96882" lon="1.86353">
        <ele>252.4</ele>
        <time>2016-08-27T08:43:02Z</time>
      </trkpt>
      <trkpt lat="43.96888" lon="1.86343">
        <ele>251</ele>
        <time>2016-08-27T08:43:03Z</time>
      </trkpt>
      <trkpt lat="43.9689" lon="1.86338">
        <ele>250.3</ele>
        <time>2016-08-27T08:43:04Z</time>
      </trkpt>
      <trkpt lat="43.96895" lon="1.86329">
        <ele>249.2</ele>
        <time>2016-08-27T08:43:05Z</time>
      </trkpt>
      <trkpt lat="43.96895" lon="1.86321">
        <ele>248.6</ele>
        <time>2016-08-27T08:43:06Z</time>
      </trkpt>
      <trkpt lat="43.96895" lon="1.86306">
        <ele>247.9</ele>
        <time>2016-08-27T08:43:07Z</time>
      </trkpt>
      <trkpt lat="43.96897" lon="1.86296">
        <ele>247.1</ele>
        <time>2016-08-27T08:43:08Z</time>
      </trkpt>
      <trkpt lat="43.96905" lon="1.86284">
        <ele>245.5</ele>
        <time>2016-08-27T08:43:09Z</time>
      </trkpt>
      <trkpt lat="43.96909" lon="1.86273">
        <ele>244.2</ele>
        <time>2016-08-27T08:43:10Z</time>
      </trkpt>
      <trkpt lat="43.9691" lon="1.86263">
        <ele>243.4</ele>
        <time>2016-08-27T08:43:11Z</time>
      </trkpt>
      <trkpt lat="43.96913" lon="1.86253">
        <ele>242.4</ele>
        <time>2016-08-27T08:43:12Z</time>
      </trkpt>
      <trkpt lat="43.96918" lon="1.86241">
        <ele>241.2</ele>
        <time>2016-08-27T08:43:13Z</time>
      </trkpt>
      <trkpt lat="43.96919" lon="1.86229">
        <ele>240.4</ele>
        <time>2016-08-27T08:43:14Z</time>
      </trkpt>
      <trkpt lat="43.96924" lon="1.86215">
        <ele>239.3</ele>
        <time>2016-08-27T08:43:15Z</time>
      </trkpt>
      <trkpt lat="43.9693" lon="1.86202">
        <ele>238</ele>
        <time>2016-08-27T08:43:16Z</time>
      </trkpt>
      <trkpt lat="43.96933" lon="1.8619">
        <ele>236.6</ele>
        <time>2016-08-27T08:43:17Z</time>
      </trkpt>
      <trkpt lat="43.96938" lon="1.86175">
        <ele>234.6</ele>
        <time>2016-08-27T08:43:18Z</time>
      </trkpt>
      <trkpt lat="43.96942" lon="1.86162">
        <ele>233.1</ele>
        <time>2016-08-27T08:43:19Z</time>
      </trkpt>
      <trkpt lat="43.96946" lon="1.86149">
        <ele>231.4</ele>
        <time>2016-08-27T08:43:20Z</time>
      </trkpt>
      <trkpt lat="43.96952" lon="1.86137">
        <ele>229.8</ele>
        <time>2016-08-27T08:43:21Z</time>
      </trkpt>
      <trkpt lat="43.96961" lon="1.86124">
        <ele>228</ele>
        <time>2016-08-27T08:43:22Z</time>
      </trkpt>
      <trkpt lat="43.96968" lon="1.86114">
        <ele>227.5</ele>
        <time>2016-08-27T08:43:23Z</time>
      </trkpt>
      <trkpt lat="43.96975" lon="1.86103">
        <ele>226.9</ele>
        <time>2016-08-27T08:43:24Z</time>
      </trkpt>
      <trkpt lat="43.96985" lon="1.86088">
        <ele>226.4</ele>
        <time>2016-08-27T08:43:25Z</time>
      </trkpt>
      <trkpt lat="43.96994" lon="1.86077">
        <ele>226.1</ele>
        <time>2016-08-27T08:43:26Z</time>
      </trkpt>
      <trkpt lat="43.97001" lon="1.86066">
        <ele>225.9</ele>
        <time>2016-08-27T08:43:27Z</time>
      </trkpt>
      <trkpt lat="43.9701" lon="1.86052">
        <ele>225.6</ele>
        <time>2016-08-27T08:43:28Z</time>
      </trkpt>
      <trkpt lat="43.97017" lon="1.86038">
        <ele>225.4</ele>
        <time>2016-08-27T08:43:29Z</time>
      </trkpt>
      <trkpt lat="43.97025" lon="1.86028">
        <ele>225.5</ele>
        <time>2016-08-27T08:43:30Z</time>
      </trkpt>
      <trkpt lat="43.97031" lon="1.86016">
        <ele>225.4</ele>
        <time>2016-08-27T08:43:31Z</time>
      </trkpt>
      <trkpt lat="43.97039" lon="1.86006">
        <ele>225.6</ele>
        <time>2016-08-27T08:43:32Z</time>
      </trkpt>
      <trkpt lat="43.97045" lon="1.85995">
        <ele>225.5</ele>
        <time>2016-08-27T08:43:33Z</time>
      </trkpt>
      <trkpt lat="43.97051" lon="1.85983">
        <ele>225.7</ele>
        <time>2016-08-27T08:43:34Z</time>
      </trkpt>
      <trkpt lat="43.97058" lon="1.85972">
        <ele>226.1</ele>
        <time>2016-08-27T08:43:35Z</time>
      </trkpt>
      <trkpt lat="43.97065" lon="1.85961">
        <ele>226.5</ele>
        <time>2016-08-27T08:43:36Z</time>
      </trkpt>
      <trkpt lat="43.97073" lon="1.85951">
        <ele>227.2</ele>
        <time>2016-08-27T08:43:37Z</time>
      </trkpt>
      <trkpt lat="43.97079" lon="1.8594">
        <ele>227.7</ele>
        <time>2016-08-27T08:43:38Z</time>
      </trkpt>
      <trkpt lat="43.97082" lon="1.85929">
        <ele>227.8</ele>
        <time>2016-08-27T08:43:39Z</time>
      </trkpt>
      <trkpt lat="43.97087" lon="1.8591">
        <ele>227.9</ele>
        <time>2016-08-27T08:43:41Z</time>
      </trkpt>
      <trkpt lat="43.97089" lon="1.85902">
        <ele>228</ele>
        <time>2016-08-27T08:43:42Z</time>
      </trkpt>
      <trkpt lat="43.97094" lon="1.85894">
        <ele>228.3</ele>
        <time>2016-08-27T08:43:43Z</time>
      </trkpt>
      <trkpt lat="43.97097" lon="1.85884">
        <ele>228.5</ele>
        <time>2016-08-27T08:43:44Z</time>
      </trkpt>
      <trkpt lat="43.97099" lon="1.85874">
        <ele>228.5</ele>
        <time>2016-08-27T08:43:45Z</time>
      </trkpt>
      <trkpt lat="43.97103" lon="1.85863">
        <ele>228.8</ele>
        <time>2016-08-27T08:43:46Z</time>
      </trkpt>
      <trkpt lat="43.97107" lon="1.85853">
        <ele>229.1</ele>
        <time>2016-08-27T08:43:47Z</time>
      </trkpt>
      <trkpt lat="43.97113" lon="1.85843">
        <ele>229.5</ele>
        <time>2016-08-27T08:43:48Z</time>
      </trkpt>
      <trkpt lat="43.97119" lon="1.85833">
        <ele>230</ele>
        <time>2016-08-27T08:43:49Z</time>
      </trkpt>
      <trkpt lat="43.9712" lon="1.85819">
        <ele>229.8</ele>
        <time>2016-08-27T08:43:50Z</time>
      </trkpt>
      <trkpt lat="43.97126" lon="1.85807">
        <ele>230.2</ele>
        <time>2016-08-27T08:43:51Z</time>
      </trkpt>
      <trkpt lat="43.97129" lon="1.85794">
        <ele>229.8</ele>
        <time>2016-08-27T08:43:52Z</time>
      </trkpt>
      <trkpt lat="43.97135" lon="1.85784">
        <ele>229.3</ele>
        <time>2016-08-27T08:43:53Z</time>
      </trkpt>
      <trkpt lat="43.9714" lon="1.85772">
        <ele>228.8</ele>
        <time>2016-08-27T08:43:54Z</time>
      </trkpt>
      <trkpt lat="43.97144" lon="1.85761">
        <ele>228.3</ele>
        <time>2016-08-27T08:43:55Z</time>
      </trkpt>
      <trkpt lat="43.97149" lon="1.8575">
        <ele>227.9</ele>
        <time>2016-08-27T08:43:56Z</time>
      </trkpt>
      <trkpt lat="43.97154" lon="1.85739">
        <ele>227.6</ele>
        <time>2016-08-27T08:43:57Z</time>
      </trkpt>
      <trkpt lat="43.97159" lon="1.85727">
        <ele>227.3</ele>
        <time>2016-08-27T08:43:58Z</time>
      </trkpt>
      <trkpt lat="43.97165" lon="1.85715">
        <ele>227.1</ele>
        <time>2016-08-27T08:43:59Z</time>
      </trkpt>
      <trkpt lat="43.9717" lon="1.85705">
        <ele>226.9</ele>
        <time>2016-08-27T08:44:00Z</time>
      </trkpt>
      <trkpt lat="43.97175" lon="1.85694">
        <ele>226.5</ele>
        <time>2016-08-27T08:44:01Z</time>
      </trkpt>
      <trkpt lat="43.97182" lon="1.85684">
        <ele>226.2</ele>
        <time>2016-08-27T08:44:02Z</time>
      </trkpt>
      <trkpt lat="43.9719" lon="1.85675">
        <ele>226</ele>
        <time>2016-08-27T08:44:03Z</time>
      </trkpt>
      <trkpt lat="43.97197" lon="1.85668">
        <ele>225.9</ele>
        <time>2016-08-27T08:44:04Z</time>
      </trkpt>
      <trkpt lat="43.97205" lon="1.85662">
        <ele>225.8</ele>
        <time>2016-08-27T08:44:05Z</time>
      </trkpt>
      <trkpt lat="43.97213" lon="1.85657">
        <ele>225.7</ele>
        <time>2016-08-27T08:44:06Z</time>
      </trkpt>
      <trkpt lat="43.97222" lon="1.85654">
        <ele>225.5</ele>
        <time>2016-08-27T08:44:07Z</time>
      </trkpt>
      <trkpt lat="43.9723" lon="1.85651">
        <ele>225.3</ele>
        <time>2016-08-27T08:44:08Z</time>
      </trkpt>
      <trkpt lat="43.97239" lon="1.85649">
        <ele>225.2</ele>
        <time>2016-08-27T08:44:09Z</time>
      </trkpt>
      <trkpt lat="43.97247" lon="1.85647">
        <ele>225</ele>
        <time>2016-08-27T08:44:10Z</time>
      </trkpt>
      <trkpt lat="43.97256" lon="1.85645">
        <ele>224.9</ele>
        <time>2016-08-27T08:44:11Z</time>
      </trkpt>
      <trkpt lat="43.97264" lon="1.85643">
        <ele>224.9</ele>
        <time>2016-08-27T08:44:12Z</time>
      </trkpt>
      <trkpt lat="43.97274" lon="1.85639">
        <ele>224.8</ele>
        <time>2016-08-27T08:44:13Z</time>
      </trkpt>
      <trkpt lat="43.97283" lon="1.85635">
        <ele>224.8</ele>
        <time>2016-08-27T08:44:14Z</time>
      </trkpt>
      <trkpt lat="43.97292" lon="1.85631">
        <ele>224.8</ele>
        <time>2016-08-27T08:44:15Z</time>
      </trkpt>
      <trkpt lat="43.97301" lon="1.85631">
        <ele>224.6</ele>
        <time>2016-08-27T08:44:16Z</time>
      </trkpt>
      <trkpt lat="43.9731" lon="1.85628">
        <ele>224.3</ele>
        <time>2016-08-27T08:44:17Z</time>
      </trkpt>
      <trkpt lat="43.97318" lon="1.85627">
        <ele>224</ele>
        <time>2016-08-27T08:44:18Z</time>
      </trkpt>
      <trkpt lat="43.97326" lon="1.85625">
        <ele>223.8</ele>
        <time>2016-08-27T08:44:19Z</time>
      </trkpt>
      <trkpt lat="43.97334" lon="1.85623">
        <ele>223.4</ele>
        <time>2016-08-27T08:44:20Z</time>
      </trkpt>
      <trkpt lat="43.97344" lon="1.85623">
        <ele>223</ele>
        <time>2016-08-27T08:44:21Z</time>
      </trkpt>
      <trkpt lat="43.97353" lon="1.85623">
        <ele>222.7</ele>
        <time>2016-08-27T08:44:22Z</time>
      </trkpt>
      <trkpt lat="43.97361" lon="1.85624">
        <ele>222.5</ele>
        <time>2016-08-27T08:44:23Z</time>
      </trkpt>
      <trkpt lat="43.97372" lon="1.8562">
        <ele>221.8</ele>
        <time>2016-08-27T08:44:24Z</time>
      </trkpt>
      <trkpt lat="43.97383" lon="1.85616">
        <ele>221.1</ele>
        <time>2016-08-27T08:44:25Z</time>
      </trkpt>
      <trkpt lat="43.97393" lon="1.85613">
        <ele>220.5</ele>
        <time>2016-08-27T08:44:26Z</time>
      </trkpt>
      <trkpt lat="43.974" lon="1.8561">
        <ele>220.1</ele>
        <time>2016-08-27T08:44:27Z</time>
      </trkpt>
      <trkpt lat="43.97408" lon="1.8561">
        <ele>219.7</ele>
        <time>2016-08-27T08:44:28Z</time>
      </trkpt>
      <trkpt lat="43.97414" lon="1.85611">
        <ele>219.5</ele>
        <time>2016-08-27T08:44:29Z</time>
      </trkpt>
      <trkpt lat="43.97424" lon="1.85612">
        <ele>219.1</ele>
        <time>2016-08-27T08:44:30Z</time>
      </trkpt>
      <trkpt lat="43.97433" lon="1.85615">
        <ele>218.9</ele>
        <time>2016-08-27T08:44:31Z</time>
      </trkpt>
      <trkpt lat="43.9744" lon="1.85618">
        <ele>218.6</ele>
        <time>2016-08-27T08:44:32Z</time>
      </trkpt>
      <trkpt lat="43.97449" lon="1.8562">
        <ele>218.3</ele>
        <time>2016-08-27T08:44:33Z</time>
      </trkpt>
      <trkpt lat="43.97458" lon="1.85621">
        <ele>217.9</ele>
        <time>2016-08-27T08:44:34Z</time>
      </trkpt>
      <trkpt lat="43.97469" lon="1.85622">
        <ele>217.1</ele>
        <time>2016-08-27T08:44:35Z</time>
      </trkpt>
      <trkpt lat="43.97478" lon="1.85624">
        <ele>216.4</ele>
        <time>2016-08-27T08:44:36Z</time>
      </trkpt>
      <trkpt lat="43.97489" lon="1.85625">
        <ele>215.5</ele>
        <time>2016-08-27T08:44:37Z</time>
      </trkpt>
      <trkpt lat="43.975" lon="1.85624">
        <ele>214.5</ele>
        <time>2016-08-27T08:44:38Z</time>
      </trkpt>
      <trkpt lat="43.97512" lon="1.85622">
        <ele>213.5</ele>
        <time>2016-08-27T08:44:39Z</time>
      </trkpt>
      <trkpt lat="43.97524" lon="1.85617">
        <ele>212.5</ele>
        <time>2016-08-27T08:44:40Z</time>
      </trkpt>
      <trkpt lat="43.97536" lon="1.85613">
        <ele>211.6</ele>
        <time>2016-08-27T08:44:41Z</time>
      </trkpt>
      <trkpt lat="43.97549" lon="1.85606">
        <ele>210.8</ele>
        <time>2016-08-27T08:44:42Z</time>
      </trkpt>
      <trkpt lat="43.97557" lon="1.85596">
        <ele>210.4</ele>
        <time>2016-08-27T08:44:43Z</time>
      </trkpt>
      <trkpt lat="43.97564" lon="1.85586">
        <ele>210.1</ele>
        <time>2016-08-27T08:44:44Z</time>
      </trkpt>
      <trkpt lat="43.97572" lon="1.85575">
        <ele>209.9</ele>
        <time>2016-08-27T08:44:45Z</time>
      </trkpt>
      <trkpt lat="43.9758" lon="1.85568">
        <ele>209.6</ele>
        <time>2016-08-27T08:44:46Z</time>
      </trkpt>
      <trkpt lat="43.97588" lon="1.85557">
        <ele>209.4</ele>
        <time>2016-08-27T08:44:47Z</time>
      </trkpt>
      <trkpt lat="43.97595" lon="1.85545">
        <ele>209.4</ele>
        <time>2016-08-27T08:44:48Z</time>
      </trkpt>
      <trkpt lat="43.97599" lon="1.85533">
        <ele>209.1</ele>
        <time>2016-08-27T08:44:49Z</time>
      </trkpt>
      <trkpt lat="43.97605" lon="1.85521">
        <ele>208.7</ele>
        <time>2016-08-27T08:44:50Z</time>
      </trkpt>
      <trkpt lat="43.9761" lon="1.85511">
        <ele>208.3</ele>
        <time>2016-08-27T08:44:51Z</time>
      </trkpt>
      <trkpt lat="43.97618" lon="1.855">
        <ele>207.9</ele>
        <time>2016-08-27T08:44:52Z</time>
      </trkpt>
      <trkpt lat="43.97623" lon="1.85486">
        <ele>207.4</ele>
        <time>2016-08-27T08:44:53Z</time>
      </trkpt>
      <trkpt lat="43.9763" lon="1.85475">
        <ele>206.8</ele>
        <time>2016-08-27T08:44:54Z</time>
      </trkpt>
      <trkpt lat="43.97638" lon="1.85463">
        <ele>206</ele>
        <time>2016-08-27T08:44:55Z</time>
      </trkpt>
      <trkpt lat="43.97645" lon="1.85452">
        <ele>205.2</ele>
        <time>2016-08-27T08:44:56Z</time>
      </trkpt>
      <trkpt lat="43.9765" lon="1.85439">
        <ele>204.8</ele>
        <time>2016-08-27T08:44:57Z</time>
      </trkpt>
      <trkpt lat="43.97658" lon="1.85428">
        <ele>204</ele>
        <time>2016-08-27T08:44:58Z</time>
      </trkpt>
      <trkpt lat="43.97663" lon="1.85415">
        <ele>203.3</ele>
        <time>2016-08-27T08:44:59Z</time>
      </trkpt>
      <trkpt lat="43.9767" lon="1.85404">
        <ele>202.5</ele>
        <time>2016-08-27T08:45:00Z</time>
      </trkpt>
      <trkpt lat="43.97678" lon="1.85393">
        <ele>201.6</ele>
        <time>2016-08-27T08:45:01Z</time>
      </trkpt>
      <trkpt lat="43.97688" lon="1.85385">
        <ele>200.4</ele>
        <time>2016-08-27T08:45:02Z</time>
      </trkpt>
      <trkpt lat="43.97696" lon="1.85377">
        <ele>199.4</ele>
        <time>2016-08-27T08:45:03Z</time>
      </trkpt>
      <trkpt lat="43.97703" lon="1.8537">
        <ele>198.8</ele>
        <time>2016-08-27T08:45:04Z</time>
      </trkpt>
      <trkpt lat="43.97712" lon="1.85363">
        <ele>198.5</ele>
        <time>2016-08-27T08:45:05Z</time>
      </trkpt>
      <trkpt lat="43.97722" lon="1.85355">
        <ele>198.9</ele>
        <time>2016-08-27T08:45:06Z</time>
      </trkpt>
      <trkpt lat="43.97728" lon="1.85351">
        <ele>199.1</ele>
        <time>2016-08-27T08:45:07Z</time>
      </trkpt>
      <trkpt lat="43.97736" lon="1.85343">
        <ele>199.3</ele>
        <time>2016-08-27T08:45:08Z</time>
      </trkpt>
      <trkpt lat="43.97741" lon="1.85336">
        <ele>199.4</ele>
        <time>2016-08-27T08:45:09Z</time>
      </trkpt>
      <trkpt lat="43.97747" lon="1.85329">
        <ele>199.6</ele>
        <time>2016-08-27T08:45:10Z</time>
      </trkpt>
      <trkpt lat="43.97749" lon="1.85317">
        <ele>199.7</ele>
        <time>2016-08-27T08:45:11Z</time>
      </trkpt>
      <trkpt lat="43.97752" lon="1.85308">
        <ele>199.8</ele>
        <time>2016-08-27T08:45:12Z</time>
      </trkpt>
      <trkpt lat="43.97752" lon="1.85303">
        <ele>199.8</ele>
        <time>2016-08-27T08:45:13Z</time>
      </trkpt>
      <trkpt lat="43.97753" lon="1.85298">
        <ele>199.9</ele>
        <time>2016-08-27T08:45:14Z</time>
      </trkpt>
      <trkpt lat="43.97755" lon="1.85292">
        <ele>199.9</ele>
        <time>2016-08-27T08:45:15Z</time>
      </trkpt>
      <trkpt lat="43.97756" lon="1.85287">
        <ele>199.9</ele>
        <time>2016-08-27T08:45:16Z</time>
      </trkpt>
      <trkpt lat="43.97757" lon="1.85281">
        <ele>200</ele>
        <time>2016-08-27T08:45:17Z</time>
      </trkpt>
      <trkpt lat="43.97758" lon="1.85277">
        <ele>200.1</ele>
        <time>2016-08-27T08:45:18Z</time>
      </trkpt>
      <trkpt lat="43.97761" lon="1.8527">
        <ele>200.1</ele>
        <time>2016-08-27T08:45:19Z</time>
      </trkpt>
      <trkpt lat="43.97763" lon="1.85263">
        <ele>200.2</ele>
        <time>2016-08-27T08:45:21Z</time>
      </trkpt>
      <trkpt lat="43.97765" lon="1.85255">
        <ele>200.2</ele>
        <time>2016-08-27T08:45:22Z</time>
      </trkpt>
      <trkpt lat="43.97763" lon="1.85251">
        <ele>200.3</ele>
        <time>2016-08-27T08:45:23Z</time>
      </trkpt>
      <trkpt lat="43.97764" lon="1.85246">
        <ele>200.4</ele>
        <time>2016-08-27T08:45:24Z</time>
      </trkpt>
      <trkpt lat="43.97763" lon="1.85242">
        <ele>200.5</ele>
        <time>2016-08-27T08:45:26Z</time>
      </trkpt>
      <trkpt lat="43.97763" lon="1.85236">
        <ele>200.6</ele>
        <time>2016-08-27T08:45:28Z</time>
      </trkpt>
      <trkpt lat="43.97764" lon="1.8523">
        <ele>200.7</ele>
        <time>2016-08-27T08:45:30Z</time>
      </trkpt>
      <trkpt lat="43.97765" lon="1.85224">
        <ele>200.7</ele>
        <time>2016-08-27T08:45:32Z</time>
      </trkpt>
      <trkpt lat="43.97769" lon="1.85218">
        <ele>200.7</ele>
        <time>2016-08-27T08:45:34Z</time>
      </trkpt>
      <trkpt lat="43.97773" lon="1.85213">
        <ele>200.6</ele>
        <time>2016-08-27T08:45:36Z</time>
      </trkpt>
      <trkpt lat="43.97776" lon="1.85206">
        <ele>200.5</ele>
        <time>2016-08-27T08:45:38Z</time>
      </trkpt>
      <trkpt lat="43.97777" lon="1.85203">
        <ele>200.3</ele>
        <time>2016-08-27T08:45:39Z</time>
      </trkpt>
      <trkpt lat="43.97778" lon="1.85199">
        <ele>200.2</ele>
        <time>2016-08-27T08:45:40Z</time>
      </trkpt>
      <trkpt lat="43.97779" lon="1.85195">
        <ele>200</ele>
        <time>2016-08-27T08:45:41Z</time>
      </trkpt>
      <trkpt lat="43.97781" lon="1.85192">
        <ele>199.9</ele>
        <time>2016-08-27T08:45:42Z</time>
      </trkpt>
      <trkpt lat="43.97784" lon="1.85184">
        <ele>199.5</ele>
        <time>2016-08-27T08:45:44Z</time>
      </trkpt>
      <trkpt lat="43.97786" lon="1.85178">
        <ele>199.1</ele>
        <time>2016-08-27T08:45:46Z</time>
      </trkpt>
      <trkpt lat="43.97788" lon="1.85175">
        <ele>199</ele>
        <time>2016-08-27T08:45:47Z</time>
      </trkpt>
      <trkpt lat="43.97789" lon="1.85171">
        <ele>198.8</ele>
        <time>2016-08-27T08:45:48Z</time>
      </trkpt>
      <trkpt lat="43.9779" lon="1.85168">
        <ele>198.6</ele>
        <time>2016-08-27T08:45:49Z</time>
      </trkpt>
      <trkpt lat="43.97793" lon="1.85161">
        <ele>198.5</ele>
        <time>2016-08-27T08:45:51Z</time>
      </trkpt>
      <trkpt lat="43.97795" lon="1.85158">
        <ele>198.6</ele>
        <time>2016-08-27T08:45:52Z</time>
      </trkpt>
      <trkpt lat="43.97796" lon="1.85154">
        <ele>198.8</ele>
        <time>2016-08-27T08:45:53Z</time>
      </trkpt>
      <trkpt lat="43.97798" lon="1.8515">
        <ele>198.9</ele>
        <time>2016-08-27T08:45:54Z</time>
      </trkpt>
      <trkpt lat="43.97798" lon="1.85146">
        <ele>198.8</ele>
        <time>2016-08-27T08:45:55Z</time>
      </trkpt>
      <trkpt lat="43.97797" lon="1.85138">
        <ele>198.4</ele>
        <time>2016-08-27T08:45:57Z</time>
      </trkpt>
      <trkpt lat="43.97797" lon="1.85134">
        <ele>198.2</ele>
        <time>2016-08-27T08:45:58Z</time>
      </trkpt>
      <trkpt lat="43.97798" lon="1.8513">
        <ele>198.2</ele>
        <time>2016-08-27T08:45:59Z</time>
      </trkpt>
      <trkpt lat="43.97801" lon="1.85124">
        <ele>198.5</ele>
        <time>2016-08-27T08:46:01Z</time>
      </trkpt>
      <trkpt lat="43.97803" lon="1.85121">
        <ele>198.9</ele>
        <time>2016-08-27T08:46:02Z</time>
      </trkpt>
      <trkpt lat="43.97806" lon="1.85118">
        <ele>199.4</ele>
        <time>2016-08-27T08:46:03Z</time>
      </trkpt>
      <trkpt lat="43.97808" lon="1.85116">
        <ele>199.8</ele>
        <time>2016-08-27T08:46:04Z</time>
      </trkpt>
      <trkpt lat="43.9781" lon="1.85113">
        <ele>200.1</ele>
        <time>2016-08-27T08:46:05Z</time>
      </trkpt>
      <trkpt lat="43.97812" lon="1.85109">
        <ele>200.3</ele>
        <time>2016-08-27T08:46:06Z</time>
      </trkpt>
      <trkpt lat="43.97813" lon="1.85106">
        <ele>200.5</ele>
        <time>2016-08-27T08:46:07Z</time>
      </trkpt>
      <trkpt lat="43.97815" lon="1.85103">
        <ele>200.8</ele>
        <time>2016-08-27T08:46:08Z</time>
      </trkpt>
      <trkpt lat="43.97818" lon="1.85096">
        <ele>201.3</ele>
        <time>2016-08-27T08:46:10Z</time>
      </trkpt>
      <trkpt lat="43.9782" lon="1.85093">
        <ele>201.5</ele>
        <time>2016-08-27T08:46:11Z</time>
      </trkpt>
      <trkpt lat="43.97821" lon="1.8509">
        <ele>201.8</ele>
        <time>2016-08-27T08:46:12Z</time>
      </trkpt>
      <trkpt lat="43.97823" lon="1.85086">
        <ele>202.1</ele>
        <time>2016-08-27T08:46:13Z</time>
      </trkpt>
      <trkpt lat="43.97825" lon="1.85083">
        <ele>202.3</ele>
        <time>2016-08-27T08:46:14Z</time>
      </trkpt>
      <trkpt lat="43.97826" lon="1.8508">
        <ele>202.6</ele>
        <time>2016-08-27T08:46:15Z</time>
      </trkpt>
      <trkpt lat="43.97829" lon="1.85077">
        <ele>202.9</ele>
        <time>2016-08-27T08:46:16Z</time>
      </trkpt>
      <trkpt lat="43.97831" lon="1.85074">
        <ele>203.3</ele>
        <time>2016-08-27T08:46:17Z</time>
      </trkpt>
      <trkpt lat="43.97835" lon="1.85068">
        <ele>204</ele>
        <time>2016-08-27T08:46:19Z</time>
      </trkpt>
      <trkpt lat="43.97838" lon="1.85065">
        <ele>204.3</ele>
        <time>2016-08-27T08:46:20Z</time>
      </trkpt>
      <trkpt lat="43.9784" lon="1.85063">
        <ele>204.6</ele>
        <time>2016-08-27T08:46:21Z</time>
      </trkpt>
      <trkpt lat="43.97843" lon="1.85058">
        <ele>205.1</ele>
        <time>2016-08-27T08:46:23Z</time>
      </trkpt>
      <trkpt lat="43.97845" lon="1.85055">
        <ele>205.5</ele>
        <time>2016-08-27T08:46:24Z</time>
      </trkpt>
      <trkpt lat="43.97847" lon="1.85052">
        <ele>205.8</ele>
        <time>2016-08-27T08:46:25Z</time>
      </trkpt>
      <trkpt lat="43.9785" lon="1.85049">
        <ele>206.1</ele>
        <time>2016-08-27T08:46:26Z</time>
      </trkpt>
      <trkpt lat="43.97854" lon="1.85044">
        <ele>206.7</ele>
        <time>2016-08-27T08:46:28Z</time>
      </trkpt>
      <trkpt lat="43.97858" lon="1.85039">
        <ele>207.2</ele>
        <time>2016-08-27T08:46:30Z</time>
      </trkpt>
      <trkpt lat="43.97861" lon="1.85034">
        <ele>207.7</ele>
        <time>2016-08-27T08:46:32Z</time>
      </trkpt>
      <trkpt lat="43.97865" lon="1.85029">
        <ele>208.1</ele>
        <time>2016-08-27T08:46:34Z</time>
      </trkpt>
      <trkpt lat="43.97869" lon="1.85024">
        <ele>208.6</ele>
        <time>2016-08-27T08:46:36Z</time>
      </trkpt>
      <trkpt lat="43.97871" lon="1.8502">
        <ele>208.8</ele>
        <time>2016-08-27T08:46:37Z</time>
      </trkpt>
      <trkpt lat="43.97874" lon="1.85014">
        <ele>209.2</ele>
        <time>2016-08-27T08:46:39Z</time>
      </trkpt>
      <trkpt lat="43.97876" lon="1.85012">
        <ele>209.4</ele>
        <time>2016-08-27T08:46:40Z</time>
      </trkpt>
      <trkpt lat="43.97879" lon="1.8501">
        <ele>209.5</ele>
        <time>2016-08-27T08:46:41Z</time>
      </trkpt>
      <trkpt lat="43.97881" lon="1.85007">
        <ele>209.6</ele>
        <time>2016-08-27T08:46:42Z</time>
      </trkpt>
      <trkpt lat="43.97883" lon="1.85005">
        <ele>209.7</ele>
        <time>2016-08-27T08:46:43Z</time>
      </trkpt>
      <trkpt lat="43.97885" lon="1.85002">
        <ele>209.8</ele>
        <time>2016-08-27T08:46:44Z</time>
      </trkpt>
      <trkpt lat="43.97887" lon="1.84999">
        <ele>209.9</ele>
        <time>2016-08-27T08:46:45Z</time>
      </trkpt>
      <trkpt lat="43.97891" lon="1.84994">
        <ele>210</ele>
        <time>2016-08-27T08:46:47Z</time>
      </trkpt>
      <trkpt lat="43.97895" lon="1.84989">
        <ele>210.1</ele>
        <time>2016-08-27T08:46:49Z</time>
      </trkpt>
      <trkpt lat="43.97898" lon="1.84984">
        <ele>210.2</ele>
        <time>2016-08-27T08:46:51Z</time>
      </trkpt>
      <trkpt lat="43.97901" lon="1.84978">
        <ele>210.2</ele>
        <time>2016-08-27T08:46:53Z</time>
      </trkpt>
      <trkpt lat="43.97903" lon="1.84976">
        <ele>210.3</ele>
        <time>2016-08-27T08:46:54Z</time>
      </trkpt>
      <trkpt lat="43.97905" lon="1.84973">
        <ele>210.3</ele>
        <time>2016-08-27T08:46:55Z</time>
      </trkpt>
      <trkpt lat="43.9791" lon="1.84968">
        <ele>210.4</ele>
        <time>2016-08-27T08:46:57Z</time>
      </trkpt>
      <trkpt lat="43.97912" lon="1.84965">
        <ele>210.4</ele>
        <time>2016-08-27T08:46:58Z</time>
      </trkpt>
      <trkpt lat="43.97914" lon="1.84962">
        <ele>210.5</ele>
        <time>2016-08-27T08:46:59Z</time>
      </trkpt>
      <trkpt lat="43.97916" lon="1.8496">
        <ele>210.5</ele>
        <time>2016-08-27T08:47:00Z</time>
      </trkpt>
      <trkpt lat="43.97918" lon="1.84956">
        <ele>210.5</ele>
        <time>2016-08-27T08:47:01Z</time>
      </trkpt>
      <trkpt lat="43.97921" lon="1.84953">
        <ele>210.5</ele>
        <time>2016-08-27T08:47:02Z</time>
      </trkpt>
      <trkpt lat="43.97926" lon="1.84947">
        <ele>210.6</ele>
        <time>2016-08-27T08:47:04Z</time>
      </trkpt>
      <trkpt lat="43.97928" lon="1.84945">
        <ele>210.7</ele>
        <time>2016-08-27T08:47:05Z</time>
      </trkpt>
      <trkpt lat="43.97931" lon="1.84943">
        <ele>210.8</ele>
        <time>2016-08-27T08:47:06Z</time>
      </trkpt>
      <trkpt lat="43.97935" lon="1.84941">
        <ele>210.9</ele>
        <time>2016-08-27T08:47:07Z</time>
      </trkpt>
      <trkpt lat="43.97938" lon="1.84939">
        <ele>211.1</ele>
        <time>2016-08-27T08:47:08Z</time>
      </trkpt>
      <trkpt lat="43.97941" lon="1.84938">
        <ele>211.2</ele>
        <time>2016-08-27T08:47:09Z</time>
      </trkpt>
      <trkpt lat="43.97945" lon="1.84936">
        <ele>211.4</ele>
        <time>2016-08-27T08:47:10Z</time>
      </trkpt>
      <trkpt lat="43.97948" lon="1.84934">
        <ele>211.5</ele>
        <time>2016-08-27T08:47:11Z</time>
      </trkpt>
      <trkpt lat="43.97954" lon="1.84928">
        <ele>211.6</ele>
        <time>2016-08-27T08:47:13Z</time>
      </trkpt>
      <trkpt lat="43.97956" lon="1.84926">
        <ele>211.7</ele>
        <time>2016-08-27T08:47:14Z</time>
      </trkpt>
      <trkpt lat="43.97959" lon="1.84924">
        <ele>211.8</ele>
        <time>2016-08-27T08:47:15Z</time>
      </trkpt>
      <trkpt lat="43.97963" lon="1.8492">
        <ele>211.6</ele>
        <time>2016-08-27T08:47:17Z</time>
      </trkpt>
      <trkpt lat="43.97968" lon="1.84916">
        <ele>211.5</ele>
        <time>2016-08-27T08:47:19Z</time>
      </trkpt>
      <trkpt lat="43.9797" lon="1.84914">
        <ele>211.4</ele>
        <time>2016-08-27T08:47:20Z</time>
      </trkpt>
      <trkpt lat="43.97976" lon="1.8491">
        <ele>211.3</ele>
        <time>2016-08-27T08:47:21Z</time>
      </trkpt>
      <trkpt lat="43.97978" lon="1.84906">
        <ele>211.2</ele>
        <time>2016-08-27T08:47:22Z</time>
      </trkpt>
      <trkpt lat="43.97982" lon="1.84905">
        <ele>211.2</ele>
        <time>2016-08-27T08:47:23Z</time>
      </trkpt>
      <trkpt lat="43.97982" lon="1.849">
        <ele>211.1</ele>
        <time>2016-08-27T08:47:24Z</time>
      </trkpt>
      <trkpt lat="43.97983" lon="1.84896">
        <ele>211</ele>
        <time>2016-08-27T08:47:25Z</time>
      </trkpt>
      <trkpt lat="43.97984" lon="1.84891">
        <ele>211</ele>
        <time>2016-08-27T08:47:26Z</time>
      </trkpt>
      <trkpt lat="43.97987" lon="1.84888">
        <ele>210.9</ele>
        <time>2016-08-27T08:47:27Z</time>
      </trkpt>
      <trkpt lat="43.97989" lon="1.84884">
        <ele>210.9</ele>
        <time>2016-08-27T08:47:28Z</time>
      </trkpt>
      <trkpt lat="43.97991" lon="1.84878">
        <ele>210.8</ele>
        <time>2016-08-27T08:47:29Z</time>
      </trkpt>
      <trkpt lat="43.97995" lon="1.84874">
        <ele>210.9</ele>
        <time>2016-08-27T08:47:30Z</time>
      </trkpt>
      <trkpt lat="43.97999" lon="1.84868">
        <ele>211</ele>
        <time>2016-08-27T08:47:31Z</time>
      </trkpt>
      <trkpt lat="43.98004" lon="1.8486">
        <ele>211.1</ele>
        <time>2016-08-27T08:47:32Z</time>
      </trkpt>
      <trkpt lat="43.98009" lon="1.84854">
        <ele>211.3</ele>
        <time>2016-08-27T08:47:33Z</time>
      </trkpt>
      <trkpt lat="43.98023" lon="1.84829">
        <ele>211.8</ele>
        <time>2016-08-27T08:47:36Z</time>
      </trkpt>
      <trkpt lat="43.98026" lon="1.8482">
        <ele>212</ele>
        <time>2016-08-27T08:47:37Z</time>
      </trkpt>
      <trkpt lat="43.98031" lon="1.84807">
        <ele>212.3</ele>
        <time>2016-08-27T08:47:38Z</time>
      </trkpt>
      <trkpt lat="43.98034" lon="1.84798">
        <ele>212.5</ele>
        <time>2016-08-27T08:47:39Z</time>
      </trkpt>
      <trkpt lat="43.98039" lon="1.84787">
        <ele>213</ele>
        <time>2016-08-27T08:47:40Z</time>
      </trkpt>
      <trkpt lat="43.9804" lon="1.84777">
        <ele>213.5</ele>
        <time>2016-08-27T08:47:41Z</time>
      </trkpt>
      <trkpt lat="43.98044" lon="1.84767">
        <ele>213.5</ele>
        <time>2016-08-27T08:47:42Z</time>
      </trkpt>
      <trkpt lat="43.98052" lon="1.84741">
        <ele>213.3</ele>
        <time>2016-08-27T08:47:44Z</time>
      </trkpt>
      <trkpt lat="43.98055" lon="1.84728">
        <ele>213.2</ele>
        <time>2016-08-27T08:47:45Z</time>
      </trkpt>
      <trkpt lat="43.98059" lon="1.84713">
        <ele>213.3</ele>
        <time>2016-08-27T08:47:46Z</time>
      </trkpt>
      <trkpt lat="43.98062" lon="1.84701">
        <ele>213.6</ele>
        <time>2016-08-27T08:47:47Z</time>
      </trkpt>
      <trkpt lat="43.98063" lon="1.84689">
        <ele>214.1</ele>
        <time>2016-08-27T08:47:48Z</time>
      </trkpt>
      <trkpt lat="43.98067" lon="1.84673">
        <ele>214.4</ele>
        <time>2016-08-27T08:47:49Z</time>
      </trkpt>
      <trkpt lat="43.98072" lon="1.84659">
        <ele>214.7</ele>
        <time>2016-08-27T08:47:50Z</time>
      </trkpt>
      <trkpt lat="43.98076" lon="1.84647">
        <ele>214.9</ele>
        <time>2016-08-27T08:47:51Z</time>
      </trkpt>
      <trkpt lat="43.98078" lon="1.84634">
        <ele>215.5</ele>
        <time>2016-08-27T08:47:52Z</time>
      </trkpt>
      <trkpt lat="43.98083" lon="1.84621">
        <ele>215.7</ele>
        <time>2016-08-27T08:47:53Z</time>
      </trkpt>
      <trkpt lat="43.98089" lon="1.84609">
        <ele>215.7</ele>
        <time>2016-08-27T08:47:54Z</time>
      </trkpt>
      <trkpt lat="43.98093" lon="1.84596">
        <ele>215.9</ele>
        <time>2016-08-27T08:47:55Z</time>
      </trkpt>
      <trkpt lat="43.98099" lon="1.84585">
        <ele>216</ele>
        <time>2016-08-27T08:47:56Z</time>
      </trkpt>
      <trkpt lat="43.98102" lon="1.84573">
        <ele>216.4</ele>
        <time>2016-08-27T08:47:57Z</time>
      </trkpt>
      <trkpt lat="43.98105" lon="1.84563">
        <ele>216.7</ele>
        <time>2016-08-27T08:47:58Z</time>
      </trkpt>
      <trkpt lat="43.9811" lon="1.84548">
        <ele>217.3</ele>
        <time>2016-08-27T08:47:59Z</time>
      </trkpt>
      <trkpt lat="43.98115" lon="1.84536">
        <ele>217.5</ele>
        <time>2016-08-27T08:48:00Z</time>
      </trkpt>
      <trkpt lat="43.98121" lon="1.84521">
        <ele>217.4</ele>
        <time>2016-08-27T08:48:01Z</time>
      </trkpt>
      <trkpt lat="43.98126" lon="1.84507">
        <ele>216.9</ele>
        <time>2016-08-27T08:48:02Z</time>
      </trkpt>
      <trkpt lat="43.98139" lon="1.84465">
        <ele>213</ele>
        <time>2016-08-27T08:48:05Z</time>
      </trkpt>
      <trkpt lat="43.98142" lon="1.84451">
        <ele>211.9</ele>
        <time>2016-08-27T08:48:06Z</time>
      </trkpt>
      <trkpt lat="43.98147" lon="1.84436">
        <ele>210.5</ele>
        <time>2016-08-27T08:48:07Z</time>
      </trkpt>
      <trkpt lat="43.9815" lon="1.84421">
        <ele>209.7</ele>
        <time>2016-08-27T08:48:08Z</time>
      </trkpt>
      <trkpt lat="43.98155" lon="1.84406">
        <ele>208.5</ele>
        <time>2016-08-27T08:48:09Z</time>
      </trkpt>
      <trkpt lat="43.9816" lon="1.84391">
        <ele>207.3</ele>
        <time>2016-08-27T08:48:10Z</time>
      </trkpt>
      <trkpt lat="43.98163" lon="1.84377">
        <ele>206.9</ele>
        <time>2016-08-27T08:48:11Z</time>
      </trkpt>
      <trkpt lat="43.98164" lon="1.84363">
        <ele>207.3</ele>
        <time>2016-08-27T08:48:12Z</time>
      </trkpt>
      <trkpt lat="43.98166" lon="1.84347">
        <ele>207.5</ele>
        <time>2016-08-27T08:48:13Z</time>
      </trkpt>
      <trkpt lat="43.98166" lon="1.84333">
        <ele>208.2</ele>
        <time>2016-08-27T08:48:14Z</time>
      </trkpt>
      <trkpt lat="43.98169" lon="1.84318">
        <ele>208.2</ele>
        <time>2016-08-27T08:48:15Z</time>
      </trkpt>
      <trkpt lat="43.98174" lon="1.84304">
        <ele>207.9</ele>
        <time>2016-08-27T08:48:16Z</time>
      </trkpt>
      <trkpt lat="43.9818" lon="1.84291">
        <ele>207.5</ele>
        <time>2016-08-27T08:48:17Z</time>
      </trkpt>
      <trkpt lat="43.98186" lon="1.84279">
        <ele>207.1</ele>
        <time>2016-08-27T08:48:18Z</time>
      </trkpt>
      <trkpt lat="43.98192" lon="1.84266">
        <ele>206.6</ele>
        <time>2016-08-27T08:48:19Z</time>
      </trkpt>
      <trkpt lat="43.98198" lon="1.84255">
        <ele>206.4</ele>
        <time>2016-08-27T08:48:20Z</time>
      </trkpt>
      <trkpt lat="43.98203" lon="1.84243">
        <ele>206.3</ele>
        <time>2016-08-27T08:48:21Z</time>
      </trkpt>
      <trkpt lat="43.98209" lon="1.8423">
        <ele>206.2</ele>
        <time>2016-08-27T08:48:22Z</time>
      </trkpt>
      <trkpt lat="43.98215" lon="1.84218">
        <ele>205.1</ele>
        <time>2016-08-27T08:48:23Z</time>
      </trkpt>
      <trkpt lat="43.98222" lon="1.84206">
        <ele>203.8</ele>
        <time>2016-08-27T08:48:24Z</time>
      </trkpt>
      <trkpt lat="43.98227" lon="1.84194">
        <ele>202.2</ele>
        <time>2016-08-27T08:48:25Z</time>
      </trkpt>
      <trkpt lat="43.98231" lon="1.84181">
        <ele>201.2</ele>
        <time>2016-08-27T08:48:26Z</time>
      </trkpt>
      <trkpt lat="43.98237" lon="1.84168">
        <ele>199.5</ele>
        <time>2016-08-27T08:48:27Z</time>
      </trkpt>
      <trkpt lat="43.98243" lon="1.84155">
        <ele>197.7</ele>
        <time>2016-08-27T08:48:28Z</time>
      </trkpt>
      <trkpt lat="43.9825" lon="1.84143">
        <ele>195.7</ele>
        <time>2016-08-27T08:48:29Z</time>
      </trkpt>
      <trkpt lat="43.98255" lon="1.84132">
        <ele>194.2</ele>
        <time>2016-08-27T08:48:30Z</time>
      </trkpt>
      <trkpt lat="43.98261" lon="1.8412">
        <ele>192.1</ele>
        <time>2016-08-27T08:48:31Z</time>
      </trkpt>
      <trkpt lat="43.98267" lon="1.84109">
        <ele>189.9</ele>
        <time>2016-08-27T08:48:32Z</time>
      </trkpt>
      <trkpt lat="43.98275" lon="1.84099">
        <ele>187</ele>
        <time>2016-08-27T08:48:33Z</time>
      </trkpt>
      <trkpt lat="43.98283" lon="1.84089">
        <ele>184</ele>
        <time>2016-08-27T08:48:34Z</time>
      </trkpt>
      <trkpt lat="43.98292" lon="1.8408">
        <ele>180.9</ele>
        <time>2016-08-27T08:48:35Z</time>
      </trkpt>
      <trkpt lat="43.983" lon="1.84073">
        <ele>180</ele>
        <time>2016-08-27T08:48:36Z</time>
      </trkpt>
      <trkpt lat="43.98308" lon="1.84065">
        <ele>179.1</ele>
        <time>2016-08-27T08:48:37Z</time>
      </trkpt>
      <trkpt lat="43.98316" lon="1.84056">
        <ele>178.3</ele>
        <time>2016-08-27T08:48:38Z</time>
      </trkpt>
      <trkpt lat="43.98323" lon="1.84049">
        <ele>177.5</ele>
        <time>2016-08-27T08:48:39Z</time>
      </trkpt>
      <trkpt lat="43.98331" lon="1.84042">
        <ele>176.7</ele>
        <time>2016-08-27T08:48:40Z</time>
      </trkpt>
      <trkpt lat="43.98339" lon="1.84034">
        <ele>176.2</ele>
        <time>2016-08-27T08:48:41Z</time>
      </trkpt>
      <trkpt lat="43.98348" lon="1.84028">
        <ele>175.6</ele>
        <time>2016-08-27T08:48:42Z</time>
      </trkpt>
      <trkpt lat="43.98356" lon="1.84024">
        <ele>174.9</ele>
        <time>2016-08-27T08:48:43Z</time>
      </trkpt>
      <trkpt lat="43.98363" lon="1.8402">
        <ele>174.2</ele>
        <time>2016-08-27T08:48:44Z</time>
      </trkpt>
      <trkpt lat="43.98372" lon="1.84018">
        <ele>173.3</ele>
        <time>2016-08-27T08:48:45Z</time>
      </trkpt>
      <trkpt lat="43.9838" lon="1.84018">
        <ele>173.1</ele>
        <time>2016-08-27T08:48:46Z</time>
      </trkpt>
      <trkpt lat="43.98387" lon="1.84017">
        <ele>173.2</ele>
        <time>2016-08-27T08:48:47Z</time>
      </trkpt>
      <trkpt lat="43.98394" lon="1.84017">
        <ele>173.4</ele>
        <time>2016-08-27T08:48:48Z</time>
      </trkpt>
      <trkpt lat="43.98403" lon="1.84019">
        <ele>173.6</ele>
        <time>2016-08-27T08:48:49Z</time>
      </trkpt>
      <trkpt lat="43.98413" lon="1.84019">
        <ele>173.8</ele>
        <time>2016-08-27T08:48:50Z</time>
      </trkpt>
      <trkpt lat="43.98422" lon="1.84021">
        <ele>174</ele>
        <time>2016-08-27T08:48:51Z</time>
      </trkpt>
      <trkpt lat="43.98428" lon="1.84019">
        <ele>174.1</ele>
        <time>2016-08-27T08:48:52Z</time>
      </trkpt>
      <trkpt lat="43.98436" lon="1.84021">
        <ele>174.3</ele>
        <time>2016-08-27T08:48:53Z</time>
      </trkpt>
      <trkpt lat="43.98454" lon="1.84021">
        <ele>174.7</ele>
        <time>2016-08-27T08:48:55Z</time>
      </trkpt>
      <trkpt lat="43.98458" lon="1.84021">
        <ele>174.7</ele>
        <time>2016-08-27T08:48:56Z</time>
      </trkpt>
      <trkpt lat="43.98466" lon="1.84023">
        <ele>175</ele>
        <time>2016-08-27T08:48:57Z</time>
      </trkpt>
      <trkpt lat="43.98473" lon="1.84024">
        <ele>175.1</ele>
        <time>2016-08-27T08:48:58Z</time>
      </trkpt>
      <trkpt lat="43.9848" lon="1.84023">
        <ele>175.3</ele>
        <time>2016-08-27T08:48:59Z</time>
      </trkpt>
      <trkpt lat="43.98487" lon="1.84023">
        <ele>175.5</ele>
        <time>2016-08-27T08:49:00Z</time>
      </trkpt>
      <trkpt lat="43.98493" lon="1.84023">
        <ele>175.6</ele>
        <time>2016-08-27T08:49:02Z</time>
      </trkpt>
      <trkpt lat="43.985" lon="1.84026">
        <ele>175.8</ele>
        <time>2016-08-27T08:49:03Z</time>
      </trkpt>
      <trkpt lat="43.98505" lon="1.84025">
        <ele>175.9</ele>
        <time>2016-08-27T08:49:04Z</time>
      </trkpt>
      <trkpt lat="43.9851" lon="1.84024">
        <ele>176</ele>
        <time>2016-08-27T08:49:05Z</time>
      </trkpt>
      <trkpt lat="43.98518" lon="1.84025">
        <ele>176.2</ele>
        <time>2016-08-27T08:49:08Z</time>
      </trkpt>
      <trkpt lat="43.98526" lon="1.84027">
        <ele>176.4</ele>
        <time>2016-08-27T08:49:09Z</time>
      </trkpt>
      <trkpt lat="43.98531" lon="1.84028">
        <ele>176.6</ele>
        <time>2016-08-27T08:49:10Z</time>
      </trkpt>
      <trkpt lat="43.98534" lon="1.84026">
        <ele>176.6</ele>
        <time>2016-08-27T08:49:11Z</time>
      </trkpt>
      <trkpt lat="43.98539" lon="1.84028">
        <ele>176.8</ele>
        <time>2016-08-27T08:49:12Z</time>
      </trkpt>
      <trkpt lat="43.98546" lon="1.84029">
        <ele>176.7</ele>
        <time>2016-08-27T08:49:13Z</time>
      </trkpt>
      <trkpt lat="43.98553" lon="1.84032">
        <ele>176.5</ele>
        <time>2016-08-27T08:49:14Z</time>
      </trkpt>
      <trkpt lat="43.98556" lon="1.84032">
        <ele>176.4</ele>
        <time>2016-08-27T08:49:15Z</time>
      </trkpt>
      <trkpt lat="43.98562" lon="1.84036">
        <ele>176.2</ele>
        <time>2016-08-27T08:49:16Z</time>
      </trkpt>
      <trkpt lat="43.98567" lon="1.84039">
        <ele>176.1</ele>
        <time>2016-08-27T08:49:17Z</time>
      </trkpt>
      <trkpt lat="43.98572" lon="1.84043">
        <ele>175.9</ele>
        <time>2016-08-27T08:49:18Z</time>
      </trkpt>
      <trkpt lat="43.98575" lon="1.84046">
        <ele>175.8</ele>
        <time>2016-08-27T08:49:19Z</time>
      </trkpt>
      <trkpt lat="43.98578" lon="1.84049">
        <ele>175.7</ele>
        <time>2016-08-27T08:49:20Z</time>
      </trkpt>
      <trkpt lat="43.98581" lon="1.84049">
        <ele>175.6</ele>
        <time>2016-08-27T08:49:21Z</time>
      </trkpt>
      <trkpt lat="43.98584" lon="1.84053">
        <ele>175.6</ele>
        <time>2016-08-27T08:49:22Z</time>
      </trkpt>
      <trkpt lat="43.98588" lon="1.84056">
        <ele>175.4</ele>
        <time>2016-08-27T08:49:23Z</time>
      </trkpt>
      <trkpt lat="43.98592" lon="1.84059">
        <ele>175.3</ele>
        <time>2016-08-27T08:49:24Z</time>
      </trkpt>
      <trkpt lat="43.98598" lon="1.84063">
        <ele>175.1</ele>
        <time>2016-08-27T08:49:25Z</time>
      </trkpt>
      <trkpt lat="43.98602" lon="1.84064">
        <ele>175</ele>
        <time>2016-08-27T08:49:26Z</time>
      </trkpt>
      <trkpt lat="43.98605" lon="1.84064">
        <ele>174.9</ele>
        <time>2016-08-27T08:49:28Z</time>
      </trkpt>
      <trkpt lat="43.98608" lon="1.84068">
        <ele>174.9</ele>
        <time>2016-08-27T08:49:29Z</time>
      </trkpt>
      <trkpt lat="43.98611" lon="1.84077">
        <ele>174.8</ele>
        <time>2016-08-27T08:49:34Z</time>
      </trkpt>
      <trkpt lat="43.98612" lon="1.8408">
        <ele>174.9</ele>
        <time>2016-08-27T08:49:35Z</time>
      </trkpt>
      <trkpt lat="43.98614" lon="1.84083">
        <ele>174.8</ele>
        <time>2016-08-27T08:49:36Z</time>
      </trkpt>
      <trkpt lat="43.98616" lon="1.84087">
        <ele>174.8</ele>
        <time>2016-08-27T08:49:37Z</time>
      </trkpt>
      <trkpt lat="43.98618" lon="1.8409">
        <ele>174.8</ele>
        <time>2016-08-27T08:49:38Z</time>
      </trkpt>
      <trkpt lat="43.9862" lon="1.84093">
        <ele>174.8</ele>
        <time>2016-08-27T08:49:39Z</time>
      </trkpt>
      <trkpt lat="43.98622" lon="1.84096">
        <ele>174.7</ele>
        <time>2016-08-27T08:49:40Z</time>
      </trkpt>
      <trkpt lat="43.98624" lon="1.84099">
        <ele>174.7</ele>
        <time>2016-08-27T08:49:41Z</time>
      </trkpt>
      <trkpt lat="43.98626" lon="1.84102">
        <ele>174.8</ele>
        <time>2016-08-27T08:49:42Z</time>
      </trkpt>
      <trkpt lat="43.98627" lon="1.84106">
        <ele>174.9</ele>
        <time>2016-08-27T08:49:43Z</time>
      </trkpt>
      <trkpt lat="43.98631" lon="1.84111">
        <ele>175.2</ele>
        <time>2016-08-27T08:49:45Z</time>
      </trkpt>
      <trkpt lat="43.98633" lon="1.84114">
        <ele>175.3</ele>
        <time>2016-08-27T08:49:46Z</time>
      </trkpt>
      <trkpt lat="43.98635" lon="1.84116">
        <ele>175.5</ele>
        <time>2016-08-27T08:49:47Z</time>
      </trkpt>
      <trkpt lat="43.98637" lon="1.84122">
        <ele>175.7</ele>
        <time>2016-08-27T08:49:49Z</time>
      </trkpt>
      <trkpt lat="43.98637" lon="1.84128">
        <ele>175.8</ele>
        <time>2016-08-27T08:49:51Z</time>
      </trkpt>
      <trkpt lat="43.98639" lon="1.84134">
        <ele>176</ele>
        <time>2016-08-27T08:49:53Z</time>
      </trkpt>
      <trkpt lat="43.9864" lon="1.8414">
        <ele>176.2</ele>
        <time>2016-08-27T08:49:55Z</time>
      </trkpt>
      <trkpt lat="43.98642" lon="1.84147">
        <ele>176.4</ele>
        <time>2016-08-27T08:49:57Z</time>
      </trkpt>
      <trkpt lat="43.98643" lon="1.84151">
        <ele>176.6</ele>
        <time>2016-08-27T08:49:58Z</time>
      </trkpt>
      <trkpt lat="43.98646" lon="1.8416">
        <ele>177</ele>
        <time>2016-08-27T08:50:00Z</time>
      </trkpt>
      <trkpt lat="43.98649" lon="1.84168">
        <ele>177.4</ele>
        <time>2016-08-27T08:50:02Z</time>
      </trkpt>
      <trkpt lat="43.9865" lon="1.84172">
        <ele>177.6</ele>
        <time>2016-08-27T08:50:03Z</time>
      </trkpt>
      <trkpt lat="43.98651" lon="1.84176">
        <ele>177.7</ele>
        <time>2016-08-27T08:50:04Z</time>
      </trkpt>
      <trkpt lat="43.98652" lon="1.84179">
        <ele>177.9</ele>
        <time>2016-08-27T08:50:05Z</time>
      </trkpt>
      <trkpt lat="43.98653" lon="1.84183">
        <ele>178.1</ele>
        <time>2016-08-27T08:50:06Z</time>
      </trkpt>
      <trkpt lat="43.98655" lon="1.84186">
        <ele>178.3</ele>
        <time>2016-08-27T08:50:07Z</time>
      </trkpt>
      <trkpt lat="43.98656" lon="1.8419">
        <ele>178.5</ele>
        <time>2016-08-27T08:50:08Z</time>
      </trkpt>
      <trkpt lat="43.98657" lon="1.84194">
        <ele>178.7</ele>
        <time>2016-08-27T08:50:09Z</time>
      </trkpt>
      <trkpt lat="43.98658" lon="1.84198">
        <ele>178.9</ele>
        <time>2016-08-27T08:50:10Z</time>
      </trkpt>
      <trkpt lat="43.98659" lon="1.84201">
        <ele>179.1</ele>
        <time>2016-08-27T08:50:11Z</time>
      </trkpt>
      <trkpt lat="43.98662" lon="1.84207">
        <ele>179.5</ele>
        <time>2016-08-27T08:50:13Z</time>
      </trkpt>
      <trkpt lat="43.98664" lon="1.84212">
        <ele>179.7</ele>
        <time>2016-08-27T08:50:15Z</time>
      </trkpt>
      <trkpt lat="43.98666" lon="1.84218">
        <ele>179.9</ele>
        <time>2016-08-27T08:50:17Z</time>
      </trkpt>
      <trkpt lat="43.98667" lon="1.84223">
        <ele>180</ele>
        <time>2016-08-27T08:50:19Z</time>
      </trkpt>
      <trkpt lat="43.98668" lon="1.8423">
        <ele>180</ele>
        <time>2016-08-27T08:50:21Z</time>
      </trkpt>
      <trkpt lat="43.98672" lon="1.84236">
        <ele>180.3</ele>
        <time>2016-08-27T08:50:23Z</time>
      </trkpt>
      <trkpt lat="43.98675" lon="1.84239">
        <ele>180.5</ele>
        <time>2016-08-27T08:50:24Z</time>
      </trkpt>
      <trkpt lat="43.98678" lon="1.84242">
        <ele>180.7</ele>
        <time>2016-08-27T08:50:25Z</time>
      </trkpt>
      <trkpt lat="43.98681" lon="1.84245">
        <ele>180.9</ele>
        <time>2016-08-27T08:50:26Z</time>
      </trkpt>
      <trkpt lat="43.98683" lon="1.84248">
        <ele>181.1</ele>
        <time>2016-08-27T08:50:27Z</time>
      </trkpt>
      <trkpt lat="43.98686" lon="1.8425">
        <ele>181.2</ele>
        <time>2016-08-27T08:50:28Z</time>
      </trkpt>
      <trkpt lat="43.98688" lon="1.84253">
        <ele>181.4</ele>
        <time>2016-08-27T08:50:29Z</time>
      </trkpt>
      <trkpt lat="43.9869" lon="1.84256">
        <ele>181.5</ele>
        <time>2016-08-27T08:50:30Z</time>
      </trkpt>
      <trkpt lat="43.98693" lon="1.84259">
        <ele>181.6</ele>
        <time>2016-08-27T08:50:31Z</time>
      </trkpt>
      <trkpt lat="43.98695" lon="1.84261">
        <ele>181.8</ele>
        <time>2016-08-27T08:50:32Z</time>
      </trkpt>
      <trkpt lat="43.98697" lon="1.84264">
        <ele>181.9</ele>
        <time>2016-08-27T08:50:33Z</time>
      </trkpt>
      <trkpt lat="43.98701" lon="1.84265">
        <ele>182.1</ele>
        <time>2016-08-27T08:50:34Z</time>
      </trkpt>
      <trkpt lat="43.98703" lon="1.84267">
        <ele>182.2</ele>
        <time>2016-08-27T08:50:35Z</time>
      </trkpt>
      <trkpt lat="43.98708" lon="1.84269">
        <ele>182.5</ele>
        <time>2016-08-27T08:50:37Z</time>
      </trkpt>
      <trkpt lat="43.98713" lon="1.84271">
        <ele>183.1</ele>
        <time>2016-08-27T08:50:39Z</time>
      </trkpt>
      <trkpt lat="43.98717" lon="1.84274">
        <ele>183.5</ele>
        <time>2016-08-27T08:50:41Z</time>
      </trkpt>
      <trkpt lat="43.9872" lon="1.84276">
        <ele>183.8</ele>
        <time>2016-08-27T08:50:42Z</time>
      </trkpt>
      <trkpt lat="43.98725" lon="1.84276">
        <ele>184.4</ele>
        <time>2016-08-27T08:50:44Z</time>
      </trkpt>
      <trkpt lat="43.9873" lon="1.84276">
        <ele>185</ele>
        <time>2016-08-27T08:50:46Z</time>
      </trkpt>
      <trkpt lat="43.98734" lon="1.84277">
        <ele>185.5</ele>
        <time>2016-08-27T08:50:48Z</time>
      </trkpt>
      <trkpt lat="43.98738" lon="1.84278">
        <ele>186</ele>
        <time>2016-08-27T08:50:50Z</time>
      </trkpt>
      <trkpt lat="43.98743" lon="1.8428">
        <ele>186.5</ele>
        <time>2016-08-27T08:50:52Z</time>
      </trkpt>
      <trkpt lat="43.98747" lon="1.84281">
        <ele>187</ele>
        <time>2016-08-27T08:50:54Z</time>
      </trkpt>
      <trkpt lat="43.98751" lon="1.84278">
        <ele>187.5</ele>
        <time>2016-08-27T08:50:56Z</time>
      </trkpt>
      <trkpt lat="43.98754" lon="1.84279">
        <ele>187.9</ele>
        <time>2016-08-27T08:50:57Z</time>
      </trkpt>
      <trkpt lat="43.9876" lon="1.8428">
        <ele>188.5</ele>
        <time>2016-08-27T08:50:59Z</time>
      </trkpt>
      <trkpt lat="43.98766" lon="1.8428">
        <ele>189.3</ele>
        <time>2016-08-27T08:51:01Z</time>
      </trkpt>
      <trkpt lat="43.98769" lon="1.84279">
        <ele>189.7</ele>
        <time>2016-08-27T08:51:02Z</time>
      </trkpt>
      <trkpt lat="43.98772" lon="1.84279">
        <ele>190.1</ele>
        <time>2016-08-27T08:51:03Z</time>
      </trkpt>
      <trkpt lat="43.98775" lon="1.84279">
        <ele>190.4</ele>
        <time>2016-08-27T08:51:04Z</time>
      </trkpt>
      <trkpt lat="43.98778" lon="1.8428">
        <ele>190.8</ele>
        <time>2016-08-27T08:51:05Z</time>
      </trkpt>
      <trkpt lat="43.98781" lon="1.84281">
        <ele>191.1</ele>
        <time>2016-08-27T08:51:06Z</time>
      </trkpt>
      <trkpt lat="43.98786" lon="1.84281">
        <ele>191.7</ele>
        <time>2016-08-27T08:51:08Z</time>
      </trkpt>
      <trkpt lat="43.9879" lon="1.84282">
        <ele>192.1</ele>
        <time>2016-08-27T08:51:10Z</time>
      </trkpt>
      <trkpt lat="43.98792" lon="1.84285">
        <ele>192.3</ele>
        <time>2016-08-27T08:51:11Z</time>
      </trkpt>
      <trkpt lat="43.98795" lon="1.84286">
        <ele>192.4</ele>
        <time>2016-08-27T08:51:12Z</time>
      </trkpt>
      <trkpt lat="43.98801" lon="1.84288">
        <ele>192.7</ele>
        <time>2016-08-27T08:51:14Z</time>
      </trkpt>
      <trkpt lat="43.98805" lon="1.84288">
        <ele>192.9</ele>
        <time>2016-08-27T08:51:15Z</time>
      </trkpt>
      <trkpt lat="43.98807" lon="1.84289">
        <ele>193</ele>
        <time>2016-08-27T08:51:16Z</time>
      </trkpt>
      <trkpt lat="43.98814" lon="1.84291">
        <ele>193.4</ele>
        <time>2016-08-27T08:51:18Z</time>
      </trkpt>
      <trkpt lat="43.98817" lon="1.84291">
        <ele>193.6</ele>
        <time>2016-08-27T08:51:19Z</time>
      </trkpt>
      <trkpt lat="43.98821" lon="1.84292">
        <ele>193.7</ele>
        <time>2016-08-27T08:51:20Z</time>
      </trkpt>
      <trkpt lat="43.98824" lon="1.84292">
        <ele>193.9</ele>
        <time>2016-08-27T08:51:21Z</time>
      </trkpt>
      <trkpt lat="43.98828" lon="1.84292">
        <ele>194.1</ele>
        <time>2016-08-27T08:51:22Z</time>
      </trkpt>
      <trkpt lat="43.9883" lon="1.84293">
        <ele>194.1</ele>
        <time>2016-08-27T08:51:23Z</time>
      </trkpt>
      <trkpt lat="43.98833" lon="1.84295">
        <ele>194.1</ele>
        <time>2016-08-27T08:51:24Z</time>
      </trkpt>
      <trkpt lat="43.98839" lon="1.84298">
        <ele>194</ele>
        <time>2016-08-27T08:51:26Z</time>
      </trkpt>
      <trkpt lat="43.98842" lon="1.84299">
        <ele>194.1</ele>
        <time>2016-08-27T08:51:27Z</time>
      </trkpt>
      <trkpt lat="43.98846" lon="1.843">
        <ele>194.2</ele>
        <time>2016-08-27T08:51:28Z</time>
      </trkpt>
      <trkpt lat="43.98849" lon="1.843">
        <ele>194.2</ele>
        <time>2016-08-27T08:51:29Z</time>
      </trkpt>
      <trkpt lat="43.98856" lon="1.84301">
        <ele>194.6</ele>
        <time>2016-08-27T08:51:30Z</time>
      </trkpt>
      <trkpt lat="43.98867" lon="1.843">
        <ele>195.3</ele>
        <time>2016-08-27T08:51:31Z</time>
      </trkpt>
      <trkpt lat="43.98871" lon="1.84301">
        <ele>195.4</ele>
        <time>2016-08-27T08:51:32Z</time>
      </trkpt>
      <trkpt lat="43.98877" lon="1.84301">
        <ele>195.8</ele>
        <time>2016-08-27T08:51:34Z</time>
      </trkpt>
      <trkpt lat="43.98883" lon="1.84301">
        <ele>196</ele>
        <time>2016-08-27T08:51:35Z</time>
      </trkpt>
      <trkpt lat="43.98888" lon="1.84302">
        <ele>196</ele>
        <time>2016-08-27T08:51:36Z</time>
      </trkpt>
      <trkpt lat="43.98894" lon="1.84304">
        <ele>196.1</ele>
        <time>2016-08-27T08:51:37Z</time>
      </trkpt>
      <trkpt lat="43.98899" lon="1.84307">
        <ele>195.9</ele>
        <time>2016-08-27T08:51:38Z</time>
      </trkpt>
      <trkpt lat="43.98903" lon="1.84307">
        <ele>196</ele>
        <time>2016-08-27T08:51:39Z</time>
      </trkpt>
      <trkpt lat="43.98907" lon="1.84308">
        <ele>196.1</ele>
        <time>2016-08-27T08:51:40Z</time>
      </trkpt>
      <trkpt lat="43.98912" lon="1.84308">
        <ele>196.2</ele>
        <time>2016-08-27T08:51:41Z</time>
      </trkpt>
      <trkpt lat="43.9892" lon="1.84309">
        <ele>196.5</ele>
        <time>2016-08-27T08:51:42Z</time>
      </trkpt>
      <trkpt lat="43.98924" lon="1.84309">
        <ele>196.6</ele>
        <time>2016-08-27T08:51:44Z</time>
      </trkpt>
      <trkpt lat="43.98932" lon="1.84311">
        <ele>196.7</ele>
        <time>2016-08-27T08:51:46Z</time>
      </trkpt>
      <trkpt lat="43.98941" lon="1.84313">
        <ele>196.6</ele>
        <time>2016-08-27T08:51:47Z</time>
      </trkpt>
      <trkpt lat="43.98947" lon="1.84315">
        <ele>196.7</ele>
        <time>2016-08-27T08:51:48Z</time>
      </trkpt>
      <trkpt lat="43.98954" lon="1.84316">
        <ele>196.8</ele>
        <time>2016-08-27T08:51:49Z</time>
      </trkpt>
      <trkpt lat="43.98958" lon="1.84318">
        <ele>196.6</ele>
        <time>2016-08-27T08:51:50Z</time>
      </trkpt>
      <trkpt lat="43.98963" lon="1.84319">
        <ele>196.4</ele>
        <time>2016-08-27T08:51:51Z</time>
      </trkpt>
      <trkpt lat="43.98969" lon="1.84319">
        <ele>196.2</ele>
        <time>2016-08-27T08:51:52Z</time>
      </trkpt>
      <trkpt lat="43.98972" lon="1.84319">
        <ele>196.3</ele>
        <time>2016-08-27T08:51:53Z</time>
      </trkpt>
      <trkpt lat="43.98977" lon="1.84321">
        <ele>195.8</ele>
        <time>2016-08-27T08:51:54Z</time>
      </trkpt>
      <trkpt lat="43.98985" lon="1.8432">
        <ele>195.9</ele>
        <time>2016-08-27T08:51:55Z</time>
      </trkpt>
      <trkpt lat="43.9899" lon="1.84319">
        <ele>195.9</ele>
        <time>2016-08-27T08:51:56Z</time>
      </trkpt>
      <trkpt lat="43.98995" lon="1.84318">
        <ele>195.9</ele>
        <time>2016-08-27T08:51:57Z</time>
      </trkpt>
      <trkpt lat="43.98999" lon="1.84318">
        <ele>195.9</ele>
        <time>2016-08-27T08:51:58Z</time>
      </trkpt>
      <trkpt lat="43.99005" lon="1.84317">
        <ele>195.9</ele>
        <time>2016-08-27T08:51:59Z</time>
      </trkpt>
      <trkpt lat="43.99009" lon="1.84315">
        <ele>196.1</ele>
        <time>2016-08-27T08:52:00Z</time>
      </trkpt>
      <trkpt lat="43.99018" lon="1.84315">
        <ele>196.1</ele>
        <time>2016-08-27T08:52:01Z</time>
      </trkpt>
      <trkpt lat="43.99025" lon="1.84317">
        <ele>195.6</ele>
        <time>2016-08-27T08:52:02Z</time>
      </trkpt>
      <trkpt lat="43.99028" lon="1.84317">
        <ele>195.5</ele>
        <time>2016-08-27T08:52:03Z</time>
      </trkpt>
      <trkpt lat="43.99037" lon="1.84315">
        <ele>195.7</ele>
        <time>2016-08-27T08:52:05Z</time>
      </trkpt>
      <trkpt lat="43.99042" lon="1.84316">
        <ele>195.5</ele>
        <time>2016-08-27T08:52:06Z</time>
      </trkpt>
      <trkpt lat="43.99047" lon="1.84315">
        <ele>195.5</ele>
        <time>2016-08-27T08:52:07Z</time>
      </trkpt>
      <trkpt lat="43.99052" lon="1.84314">
        <ele>195.5</ele>
        <time>2016-08-27T08:52:08Z</time>
      </trkpt>
      <trkpt lat="43.99058" lon="1.84312">
        <ele>195.6</ele>
        <time>2016-08-27T08:52:09Z</time>
      </trkpt>
      <trkpt lat="43.99068" lon="1.84309">
        <ele>195.9</ele>
        <time>2016-08-27T08:52:11Z</time>
      </trkpt>
      <trkpt lat="43.99073" lon="1.84308">
        <ele>195.9</ele>
        <time>2016-08-27T08:52:12Z</time>
      </trkpt>
      <trkpt lat="43.9908" lon="1.84307">
        <ele>195.9</ele>
        <time>2016-08-27T08:52:13Z</time>
      </trkpt>
      <trkpt lat="43.99087" lon="1.84308">
        <ele>195.7</ele>
        <time>2016-08-27T08:52:14Z</time>
      </trkpt>
      <trkpt lat="43.99093" lon="1.84307">
        <ele>195.7</ele>
        <time>2016-08-27T08:52:15Z</time>
      </trkpt>
      <trkpt lat="43.99099" lon="1.84306">
        <ele>195.7</ele>
        <time>2016-08-27T08:52:16Z</time>
      </trkpt>
      <trkpt lat="43.99107" lon="1.84306">
        <ele>195.5</ele>
        <time>2016-08-27T08:52:17Z</time>
      </trkpt>
      <trkpt lat="43.99115" lon="1.84306">
        <ele>195.2</ele>
        <time>2016-08-27T08:52:18Z</time>
      </trkpt>
      <trkpt lat="43.9912" lon="1.84305">
        <ele>195.4</ele>
        <time>2016-08-27T08:52:19Z</time>
      </trkpt>
      <trkpt lat="43.99123" lon="1.84304">
        <ele>195.6</ele>
        <time>2016-08-27T08:52:20Z</time>
      </trkpt>
      <trkpt lat="43.99128" lon="1.84303">
        <ele>195.5</ele>
        <time>2016-08-27T08:52:21Z</time>
      </trkpt>
      <trkpt lat="43.99136" lon="1.84303">
        <ele>195</ele>
        <time>2016-08-27T08:52:22Z</time>
      </trkpt>
      <trkpt lat="43.99143" lon="1.84298">
        <ele>195.4</ele>
        <time>2016-08-27T08:52:23Z</time>
      </trkpt>
      <trkpt lat="43.99148" lon="1.84296">
        <ele>195.5</ele>
        <time>2016-08-27T08:52:24Z</time>
      </trkpt>
      <trkpt lat="43.99156" lon="1.84296">
        <ele>195</ele>
        <time>2016-08-27T08:52:25Z</time>
      </trkpt>
      <trkpt lat="43.99163" lon="1.84296">
        <ele>194.5</ele>
        <time>2016-08-27T08:52:26Z</time>
      </trkpt>
      <trkpt lat="43.99167" lon="1.84296">
        <ele>194.3</ele>
        <time>2016-08-27T08:52:27Z</time>
      </trkpt>
      <trkpt lat="43.99172" lon="1.84292">
        <ele>194.5</ele>
        <time>2016-08-27T08:52:28Z</time>
      </trkpt>
      <trkpt lat="43.99177" lon="1.84292">
        <ele>194.2</ele>
        <time>2016-08-27T08:52:29Z</time>
      </trkpt>
      <trkpt lat="43.99185" lon="1.84292">
        <ele>193.6</ele>
        <time>2016-08-27T08:52:30Z</time>
      </trkpt>
      <trkpt lat="43.99191" lon="1.84292">
        <ele>193.3</ele>
        <time>2016-08-27T08:52:31Z</time>
      </trkpt>
      <trkpt lat="43.99198" lon="1.84292">
        <ele>192.7</ele>
        <time>2016-08-27T08:52:32Z</time>
      </trkpt>
      <trkpt lat="43.99204" lon="1.8429">
        <ele>192.5</ele>
        <time>2016-08-27T08:52:33Z</time>
      </trkpt>
      <trkpt lat="43.9921" lon="1.84289">
        <ele>192.4</ele>
        <time>2016-08-27T08:52:34Z</time>
      </trkpt>
      <trkpt lat="43.99216" lon="1.84288">
        <ele>192.2</ele>
        <time>2016-08-27T08:52:35Z</time>
      </trkpt>
      <trkpt lat="43.99226" lon="1.84289">
        <ele>191.3</ele>
        <time>2016-08-27T08:52:36Z</time>
      </trkpt>
      <trkpt lat="43.99231" lon="1.84288">
        <ele>191.1</ele>
        <time>2016-08-27T08:52:37Z</time>
      </trkpt>
      <trkpt lat="43.99236" lon="1.84286">
        <ele>191.1</ele>
        <time>2016-08-27T08:52:38Z</time>
      </trkpt>
      <trkpt lat="43.99243" lon="1.84284">
        <ele>191</ele>
        <time>2016-08-27T08:52:39Z</time>
      </trkpt>
      <trkpt lat="43.99251" lon="1.84282">
        <ele>190.7</ele>
        <time>2016-08-27T08:52:40Z</time>
      </trkpt>
      <trkpt lat="43.99257" lon="1.84281">
        <ele>190.6</ele>
        <time>2016-08-27T08:52:41Z</time>
      </trkpt>
      <trkpt lat="43.99263" lon="1.84278">
        <ele>190.6</ele>
        <time>2016-08-27T08:52:42Z</time>
      </trkpt>
      <trkpt lat="43.99269" lon="1.84277">
        <ele>190.6</ele>
        <time>2016-08-27T08:52:43Z</time>
      </trkpt>
      <trkpt lat="43.99274" lon="1.84278">
        <ele>190</ele>
        <time>2016-08-27T08:52:44Z</time>
      </trkpt>
      <trkpt lat="43.99279" lon="1.84276">
        <ele>189.9</ele>
        <time>2016-08-27T08:52:45Z</time>
      </trkpt>
      <trkpt lat="43.99286" lon="1.84273">
        <ele>190.3</ele>
        <time>2016-08-27T08:52:46Z</time>
      </trkpt>
      <trkpt lat="43.9929" lon="1.84269">
        <ele>190.7</ele>
        <time>2016-08-27T08:52:47Z</time>
      </trkpt>
      <trkpt lat="43.99295" lon="1.84269">
        <ele>190.5</ele>
        <time>2016-08-27T08:52:48Z</time>
      </trkpt>
      <trkpt lat="43.99302" lon="1.84268">
        <ele>190.4</ele>
        <time>2016-08-27T08:52:49Z</time>
      </trkpt>
      <trkpt lat="43.99309" lon="1.84264">
        <ele>191</ele>
        <time>2016-08-27T08:52:50Z</time>
      </trkpt>
      <trkpt lat="43.99313" lon="1.84261">
        <ele>191.3</ele>
        <time>2016-08-27T08:52:51Z</time>
      </trkpt>
      <trkpt lat="43.99319" lon="1.84257">
        <ele>191.8</ele>
        <time>2016-08-27T08:52:52Z</time>
      </trkpt>
      <trkpt lat="43.99324" lon="1.84255">
        <ele>191.9</ele>
        <time>2016-08-27T08:52:53Z</time>
      </trkpt>
      <trkpt lat="43.99331" lon="1.84253">
        <ele>191.8</ele>
        <time>2016-08-27T08:52:54Z</time>
      </trkpt>
      <trkpt lat="43.99337" lon="1.8425">
        <ele>192.1</ele>
        <time>2016-08-27T08:52:55Z</time>
      </trkpt>
      <trkpt lat="43.9934" lon="1.84249">
        <ele>192.1</ele>
        <time>2016-08-27T08:52:56Z</time>
      </trkpt>
      <trkpt lat="43.99344" lon="1.84247">
        <ele>192.2</ele>
        <time>2016-08-27T08:52:57Z</time>
      </trkpt>
      <trkpt lat="43.99347" lon="1.84245">
        <ele>192.4</ele>
        <time>2016-08-27T08:52:58Z</time>
      </trkpt>
      <trkpt lat="43.99363" lon="1.84241">
        <ele>192.1</ele>
        <time>2016-08-27T08:53:01Z</time>
      </trkpt>
      <trkpt lat="43.9937" lon="1.84238">
        <ele>192.1</ele>
        <time>2016-08-27T08:53:02Z</time>
      </trkpt>
      <trkpt lat="43.99376" lon="1.8424">
        <ele>191.4</ele>
        <time>2016-08-27T08:53:03Z</time>
      </trkpt>
      <trkpt lat="43.99383" lon="1.84238">
        <ele>191.3</ele>
        <time>2016-08-27T08:53:04Z</time>
      </trkpt>
      <trkpt lat="43.99389" lon="1.84237">
        <ele>191.2</ele>
        <time>2016-08-27T08:53:05Z</time>
      </trkpt>
      <trkpt lat="43.99395" lon="1.84235">
        <ele>191.1</ele>
        <time>2016-08-27T08:53:06Z</time>
      </trkpt>
      <trkpt lat="43.99401" lon="1.84233">
        <ele>191</ele>
        <time>2016-08-27T08:53:07Z</time>
      </trkpt>
      <trkpt lat="43.99406" lon="1.84231">
        <ele>190.9</ele>
        <time>2016-08-27T08:53:08Z</time>
      </trkpt>
      <trkpt lat="43.99413" lon="1.8423">
        <ele>190.8</ele>
        <time>2016-08-27T08:53:09Z</time>
      </trkpt>
      <trkpt lat="43.99418" lon="1.84228">
        <ele>190.7</ele>
        <time>2016-08-27T08:53:10Z</time>
      </trkpt>
      <trkpt lat="43.99424" lon="1.84226">
        <ele>190.5</ele>
        <time>2016-08-27T08:53:11Z</time>
      </trkpt>
      <trkpt lat="43.99429" lon="1.84224">
        <ele>190.5</ele>
        <time>2016-08-27T08:53:12Z</time>
      </trkpt>
      <trkpt lat="43.99434" lon="1.84222">
        <ele>190.3</ele>
        <time>2016-08-27T08:53:13Z</time>
      </trkpt>
      <trkpt lat="43.99439" lon="1.84221">
        <ele>190.2</ele>
        <time>2016-08-27T08:53:14Z</time>
      </trkpt>
      <trkpt lat="43.99445" lon="1.84219">
        <ele>190</ele>
        <time>2016-08-27T08:53:15Z</time>
      </trkpt>
      <trkpt lat="43.9945" lon="1.84217">
        <ele>189.8</ele>
        <time>2016-08-27T08:53:16Z</time>
      </trkpt>
      <trkpt lat="43.99455" lon="1.84216">
        <ele>189.6</ele>
        <time>2016-08-27T08:53:17Z</time>
      </trkpt>
      <trkpt lat="43.9946" lon="1.84214">
        <ele>189.5</ele>
        <time>2016-08-27T08:53:18Z</time>
      </trkpt>
      <trkpt lat="43.99465" lon="1.84213">
        <ele>189.6</ele>
        <time>2016-08-27T08:53:19Z</time>
      </trkpt>
      <trkpt lat="43.9947" lon="1.84211">
        <ele>189.6</ele>
        <time>2016-08-27T08:53:20Z</time>
      </trkpt>
      <trkpt lat="43.99476" lon="1.84209">
        <ele>189.7</ele>
        <time>2016-08-27T08:53:21Z</time>
      </trkpt>
      <trkpt lat="43.99481" lon="1.84208">
        <ele>189.7</ele>
        <time>2016-08-27T08:53:22Z</time>
      </trkpt>
      <trkpt lat="43.99486" lon="1.84207">
        <ele>189.9</ele>
        <time>2016-08-27T08:53:23Z</time>
      </trkpt>
      <trkpt lat="43.99492" lon="1.84206">
        <ele>190</ele>
        <time>2016-08-27T08:53:24Z</time>
      </trkpt>
      <trkpt lat="43.99498" lon="1.84205">
        <ele>190.2</ele>
        <time>2016-08-27T08:53:25Z</time>
      </trkpt>
      <trkpt lat="43.99504" lon="1.84203">
        <ele>190.5</ele>
        <time>2016-08-27T08:53:26Z</time>
      </trkpt>
      <trkpt lat="43.99509" lon="1.84201">
        <ele>190.7</ele>
        <time>2016-08-27T08:53:27Z</time>
      </trkpt>
      <trkpt lat="43.99514" lon="1.842">
        <ele>190.9</ele>
        <time>2016-08-27T08:53:28Z</time>
      </trkpt>
      <trkpt lat="43.9952" lon="1.842">
        <ele>190.9</ele>
        <time>2016-08-27T08:53:29Z</time>
      </trkpt>
      <trkpt lat="43.99525" lon="1.84199">
        <ele>190.9</ele>
        <time>2016-08-27T08:53:30Z</time>
      </trkpt>
      <trkpt lat="43.9953" lon="1.84199">
        <ele>190.9</ele>
        <time>2016-08-27T08:53:31Z</time>
      </trkpt>
      <trkpt lat="43.99536" lon="1.84198">
        <ele>191</ele>
        <time>2016-08-27T08:53:32Z</time>
      </trkpt>
      <trkpt lat="43.99542" lon="1.84197">
        <ele>191.1</ele>
        <time>2016-08-27T08:53:33Z</time>
      </trkpt>
      <trkpt lat="43.99548" lon="1.84196">
        <ele>191.4</ele>
        <time>2016-08-27T08:53:34Z</time>
      </trkpt>
      <trkpt lat="43.99553" lon="1.84196">
        <ele>191.7</ele>
        <time>2016-08-27T08:53:35Z</time>
      </trkpt>
      <trkpt lat="43.99558" lon="1.84195">
        <ele>191.9</ele>
        <time>2016-08-27T08:53:36Z</time>
      </trkpt>
      <trkpt lat="43.99564" lon="1.84195">
        <ele>192.1</ele>
        <time>2016-08-27T08:53:37Z</time>
      </trkpt>
      <trkpt lat="43.99569" lon="1.84195">
        <ele>192.2</ele>
        <time>2016-08-27T08:53:38Z</time>
      </trkpt>
      <trkpt lat="43.99574" lon="1.84194">
        <ele>192.6</ele>
        <time>2016-08-27T08:53:39Z</time>
      </trkpt>
      <trkpt lat="43.99579" lon="1.84192">
        <ele>192.9</ele>
        <time>2016-08-27T08:53:40Z</time>
      </trkpt>
      <trkpt lat="43.99584" lon="1.84192">
        <ele>193.1</ele>
        <time>2016-08-27T08:53:41Z</time>
      </trkpt>
      <trkpt lat="43.9959" lon="1.84191">
        <ele>193.3</ele>
        <time>2016-08-27T08:53:42Z</time>
      </trkpt>
      <trkpt lat="43.99595" lon="1.84192">
        <ele>193.4</ele>
        <time>2016-08-27T08:53:43Z</time>
      </trkpt>
      <trkpt lat="43.996" lon="1.84191">
        <ele>193.6</ele>
        <time>2016-08-27T08:53:44Z</time>
      </trkpt>
      <trkpt lat="43.99605" lon="1.8419">
        <ele>193.9</ele>
        <time>2016-08-27T08:53:45Z</time>
      </trkpt>
      <trkpt lat="43.9961" lon="1.8419">
        <ele>194</ele>
        <time>2016-08-27T08:53:46Z</time>
      </trkpt>
      <trkpt lat="43.99615" lon="1.84189">
        <ele>194.2</ele>
        <time>2016-08-27T08:53:47Z</time>
      </trkpt>
      <trkpt lat="43.99621" lon="1.84188">
        <ele>194.5</ele>
        <time>2016-08-27T08:53:48Z</time>
      </trkpt>
      <trkpt lat="43.99626" lon="1.84188">
        <ele>194.7</ele>
        <time>2016-08-27T08:53:49Z</time>
      </trkpt>
      <trkpt lat="43.99631" lon="1.84187">
        <ele>194.8</ele>
        <time>2016-08-27T08:53:50Z</time>
      </trkpt>
      <trkpt lat="43.99637" lon="1.84187">
        <ele>194.9</ele>
        <time>2016-08-27T08:53:51Z</time>
      </trkpt>
      <trkpt lat="43.99643" lon="1.84186">
        <ele>195.1</ele>
        <time>2016-08-27T08:53:52Z</time>
      </trkpt>
      <trkpt lat="43.99648" lon="1.84185">
        <ele>195.3</ele>
        <time>2016-08-27T08:53:53Z</time>
      </trkpt>
      <trkpt lat="43.99653" lon="1.84186">
        <ele>195.3</ele>
        <time>2016-08-27T08:53:54Z</time>
      </trkpt>
      <trkpt lat="43.99657" lon="1.84186">
        <ele>195.2</ele>
        <time>2016-08-27T08:53:55Z</time>
      </trkpt>
      <trkpt lat="43.99661" lon="1.84185">
        <ele>195.4</ele>
        <time>2016-08-27T08:53:56Z</time>
      </trkpt>
      <trkpt lat="43.99668" lon="1.84184">
        <ele>195.7</ele>
        <time>2016-08-27T08:53:57Z</time>
      </trkpt>
      <trkpt lat="43.99673" lon="1.84184">
        <ele>195.7</ele>
        <time>2016-08-27T08:53:58Z</time>
      </trkpt>
      <trkpt lat="43.99679" lon="1.84183">
        <ele>195.9</ele>
        <time>2016-08-27T08:53:59Z</time>
      </trkpt>
      <trkpt lat="43.99687" lon="1.84183">
        <ele>195.9</ele>
        <time>2016-08-27T08:54:00Z</time>
      </trkpt>
      <trkpt lat="43.99691" lon="1.84181">
        <ele>196.2</ele>
        <time>2016-08-27T08:54:01Z</time>
      </trkpt>
      <trkpt lat="43.99697" lon="1.84182">
        <ele>196.2</ele>
        <time>2016-08-27T08:54:02Z</time>
      </trkpt>
      <trkpt lat="43.99704" lon="1.8418">
        <ele>196.3</ele>
        <time>2016-08-27T08:54:03Z</time>
      </trkpt>
      <trkpt lat="43.99708" lon="1.84177">
        <ele>196.7</ele>
        <time>2016-08-27T08:54:05Z</time>
      </trkpt>
      <trkpt lat="43.99714" lon="1.84176">
        <ele>196.6</ele>
        <time>2016-08-27T08:54:06Z</time>
      </trkpt>
      <trkpt lat="43.99719" lon="1.84173">
        <ele>196.7</ele>
        <time>2016-08-27T08:54:07Z</time>
      </trkpt>
      <trkpt lat="43.99723" lon="1.84174">
        <ele>196.4</ele>
        <time>2016-08-27T08:54:08Z</time>
      </trkpt>
      <trkpt lat="43.99728" lon="1.84172">
        <ele>196.3</ele>
        <time>2016-08-27T08:54:09Z</time>
      </trkpt>
      <trkpt lat="43.99734" lon="1.84173">
        <ele>196</ele>
        <time>2016-08-27T08:54:10Z</time>
      </trkpt>
      <trkpt lat="43.9974" lon="1.84174">
        <ele>195.5</ele>
        <time>2016-08-27T08:54:11Z</time>
      </trkpt>
      <trkpt lat="43.99747" lon="1.84175">
        <ele>195.1</ele>
        <time>2016-08-27T08:54:12Z</time>
      </trkpt>
      <trkpt lat="43.99754" lon="1.84177">
        <ele>194.5</ele>
        <time>2016-08-27T08:54:13Z</time>
      </trkpt>
      <trkpt lat="43.9976" lon="1.84176">
        <ele>194.3</ele>
        <time>2016-08-27T08:54:14Z</time>
      </trkpt>
      <trkpt lat="43.99764" lon="1.84177">
        <ele>194</ele>
        <time>2016-08-27T08:54:15Z</time>
      </trkpt>
      <trkpt lat="43.99769" lon="1.84176">
        <ele>193.9</ele>
        <time>2016-08-27T08:54:16Z</time>
      </trkpt>
      <trkpt lat="43.99775" lon="1.84175">
        <ele>193.6</ele>
        <time>2016-08-27T08:54:17Z</time>
      </trkpt>
      <trkpt lat="43.99781" lon="1.84174">
        <ele>193.5</ele>
        <time>2016-08-27T08:54:18Z</time>
      </trkpt>
      <trkpt lat="43.99787" lon="1.84173">
        <ele>193.3</ele>
        <time>2016-08-27T08:54:19Z</time>
      </trkpt>
      <trkpt lat="43.99792" lon="1.84172">
        <ele>193.2</ele>
        <time>2016-08-27T08:54:20Z</time>
      </trkpt>
      <trkpt lat="43.99797" lon="1.84171">
        <ele>193.2</ele>
        <time>2016-08-27T08:54:21Z</time>
      </trkpt>
      <trkpt lat="43.99802" lon="1.8417">
        <ele>193.3</ele>
        <time>2016-08-27T08:54:22Z</time>
      </trkpt>
      <trkpt lat="43.9981" lon="1.8417">
        <ele>193.1</ele>
        <time>2016-08-27T08:54:23Z</time>
      </trkpt>
      <trkpt lat="43.99814" lon="1.8417">
        <ele>193.1</ele>
        <time>2016-08-27T08:54:24Z</time>
      </trkpt>
      <trkpt lat="43.99819" lon="1.8417">
        <ele>192.9</ele>
        <time>2016-08-27T08:54:25Z</time>
      </trkpt>
      <trkpt lat="43.99824" lon="1.8417">
        <ele>192.8</ele>
        <time>2016-08-27T08:54:26Z</time>
      </trkpt>
      <trkpt lat="43.99829" lon="1.84168">
        <ele>192.9</ele>
        <time>2016-08-27T08:54:27Z</time>
      </trkpt>
      <trkpt lat="43.99835" lon="1.84167">
        <ele>192.9</ele>
        <time>2016-08-27T08:54:28Z</time>
      </trkpt>
      <trkpt lat="43.99839" lon="1.84168">
        <ele>192.7</ele>
        <time>2016-08-27T08:54:29Z</time>
      </trkpt>
      <trkpt lat="43.99842" lon="1.84167">
        <ele>192.7</ele>
        <time>2016-08-27T08:54:30Z</time>
      </trkpt>
      <trkpt lat="43.99847" lon="1.84167">
        <ele>192.6</ele>
        <time>2016-08-27T08:54:31Z</time>
      </trkpt>
      <trkpt lat="43.99853" lon="1.84165">
        <ele>192.7</ele>
        <time>2016-08-27T08:54:32Z</time>
      </trkpt>
      <trkpt lat="43.99858" lon="1.84164">
        <ele>192.8</ele>
        <time>2016-08-27T08:54:33Z</time>
      </trkpt>
      <trkpt lat="43.99864" lon="1.84164">
        <ele>192.6</ele>
        <time>2016-08-27T08:54:34Z</time>
      </trkpt>
      <trkpt lat="43.99871" lon="1.84164">
        <ele>192.5</ele>
        <time>2016-08-27T08:54:35Z</time>
      </trkpt>
      <trkpt lat="43.99876" lon="1.84163">
        <ele>192.5</ele>
        <time>2016-08-27T08:54:36Z</time>
      </trkpt>
      <trkpt lat="43.99879" lon="1.84164">
        <ele>192.5</ele>
        <time>2016-08-27T08:54:37Z</time>
      </trkpt>
      <trkpt lat="43.99885" lon="1.84164">
        <ele>192.6</ele>
        <time>2016-08-27T08:54:38Z</time>
      </trkpt>
      <trkpt lat="43.9989" lon="1.84164">
        <ele>192.7</ele>
        <time>2016-08-27T08:54:39Z</time>
      </trkpt>
      <trkpt lat="43.99895" lon="1.84161">
        <ele>193.1</ele>
        <time>2016-08-27T08:54:40Z</time>
      </trkpt>
      <trkpt lat="43.99901" lon="1.8416">
        <ele>193.3</ele>
        <time>2016-08-27T08:54:41Z</time>
      </trkpt>
      <trkpt lat="43.99908" lon="1.8416">
        <ele>193.4</ele>
        <time>2016-08-27T08:54:42Z</time>
      </trkpt>
      <trkpt lat="43.99915" lon="1.84159">
        <ele>193.6</ele>
        <time>2016-08-27T08:54:43Z</time>
      </trkpt>
      <trkpt lat="43.9992" lon="1.84159">
        <ele>193.7</ele>
        <time>2016-08-27T08:54:44Z</time>
      </trkpt>
      <trkpt lat="43.99926" lon="1.84157">
        <ele>194.1</ele>
        <time>2016-08-27T08:54:45Z</time>
      </trkpt>
      <trkpt lat="43.9993" lon="1.84158">
        <ele>194.1</ele>
        <time>2016-08-27T08:54:46Z</time>
      </trkpt>
      <trkpt lat="43.99936" lon="1.8416">
        <ele>193.9</ele>
        <time>2016-08-27T08:54:47Z</time>
      </trkpt>
      <trkpt lat="43.99941" lon="1.8416">
        <ele>194</ele>
        <time>2016-08-27T08:54:48Z</time>
      </trkpt>
      <trkpt lat="43.99948" lon="1.84158">
        <ele>194.2</ele>
        <time>2016-08-27T08:54:49Z</time>
      </trkpt>
      <trkpt lat="43.99954" lon="1.84159">
        <ele>194.2</ele>
        <time>2016-08-27T08:54:50Z</time>
      </trkpt>
      <trkpt lat="43.9996" lon="1.84159">
        <ele>194.3</ele>
        <time>2016-08-27T08:54:51Z</time>
      </trkpt>
      <trkpt lat="43.99964" lon="1.84159">
        <ele>194.3</ele>
        <time>2016-08-27T08:54:52Z</time>
      </trkpt>
      <trkpt lat="43.9997" lon="1.84159">
        <ele>194.3</ele>
        <time>2016-08-27T08:54:53Z</time>
      </trkpt>
      <trkpt lat="43.99974" lon="1.84158">
        <ele>194.4</ele>
        <time>2016-08-27T08:54:54Z</time>
      </trkpt>
      <trkpt lat="43.99978" lon="1.84156">
        <ele>194.5</ele>
        <time>2016-08-27T08:54:55Z</time>
      </trkpt>
      <trkpt lat="43.99984" lon="1.84156">
        <ele>194.5</ele>
        <time>2016-08-27T08:54:56Z</time>
      </trkpt>
      <trkpt lat="43.99989" lon="1.84156">
        <ele>194.5</ele>
        <time>2016-08-27T08:54:57Z</time>
      </trkpt>
      <trkpt lat="43.99994" lon="1.84156">
        <ele>194.5</ele>
        <time>2016-08-27T08:54:58Z</time>
      </trkpt>
      <trkpt lat="43.99999" lon="1.84155">
        <ele>194.6</ele>
        <time>2016-08-27T08:54:59Z</time>
      </trkpt>
      <trkpt lat="44.00003" lon="1.84153">
        <ele>194.8</ele>
        <time>2016-08-27T08:55:00Z</time>
      </trkpt>
      <trkpt lat="44.00008" lon="1.84151">
        <ele>195.1</ele>
        <time>2016-08-27T08:55:01Z</time>
      </trkpt>
      <trkpt lat="44.00013" lon="1.84149">
        <ele>195.2</ele>
        <time>2016-08-27T08:55:02Z</time>
      </trkpt>
      <trkpt lat="44.00019" lon="1.84148">
        <ele>195.3</ele>
        <time>2016-08-27T08:55:03Z</time>
      </trkpt>
      <trkpt lat="44.00026" lon="1.84147">
        <ele>195.4</ele>
        <time>2016-08-27T08:55:04Z</time>
      </trkpt>
      <trkpt lat="44.00032" lon="1.84147">
        <ele>195.4</ele>
        <time>2016-08-27T08:55:05Z</time>
      </trkpt>
      <trkpt lat="44.00036" lon="1.84148">
        <ele>195.3</ele>
        <time>2016-08-27T08:55:06Z</time>
      </trkpt>
      <trkpt lat="44.0004" lon="1.84146">
        <ele>195.5</ele>
        <time>2016-08-27T08:55:07Z</time>
      </trkpt>
      <trkpt lat="44.00045" lon="1.84146">
        <ele>195.4</ele>
        <time>2016-08-27T08:55:08Z</time>
      </trkpt>
      <trkpt lat="44.00051" lon="1.84146">
        <ele>195.4</ele>
        <time>2016-08-27T08:55:09Z</time>
      </trkpt>
      <trkpt lat="44.00058" lon="1.84145">
        <ele>195.4</ele>
        <time>2016-08-27T08:55:10Z</time>
      </trkpt>
      <trkpt lat="44.00064" lon="1.84141">
        <ele>195.8</ele>
        <time>2016-08-27T08:55:11Z</time>
      </trkpt>
      <trkpt lat="44.0007" lon="1.84143">
        <ele>195.5</ele>
        <time>2016-08-27T08:55:12Z</time>
      </trkpt>
      <trkpt lat="44.00077" lon="1.84145">
        <ele>195.3</ele>
        <time>2016-08-27T08:55:13Z</time>
      </trkpt>
      <trkpt lat="44.00084" lon="1.84143">
        <ele>195.4</ele>
        <time>2016-08-27T08:55:16Z</time>
      </trkpt>
      <trkpt lat="44.00088" lon="1.84144">
        <ele>195.3</ele>
        <time>2016-08-27T08:55:17Z</time>
      </trkpt>
      <trkpt lat="44.00095" lon="1.84142">
        <ele>195.5</ele>
        <time>2016-08-27T08:55:18Z</time>
      </trkpt>
      <trkpt lat="44.00101" lon="1.84139">
        <ele>195.8</ele>
        <time>2016-08-27T08:55:19Z</time>
      </trkpt>
      <trkpt lat="44.00109" lon="1.84141">
        <ele>195.4</ele>
        <time>2016-08-27T08:55:20Z</time>
      </trkpt>
      <trkpt lat="44.00114" lon="1.84142">
        <ele>195.3</ele>
        <time>2016-08-27T08:55:21Z</time>
      </trkpt>
      <trkpt lat="44.0012" lon="1.84141">
        <ele>195.3</ele>
        <time>2016-08-27T08:55:23Z</time>
      </trkpt>
      <trkpt lat="44.00124" lon="1.84141">
        <ele>195.3</ele>
        <time>2016-08-27T08:55:24Z</time>
      </trkpt>
      <trkpt lat="44.00128" lon="1.84142">
        <ele>195.3</ele>
        <time>2016-08-27T08:55:25Z</time>
      </trkpt>
      <trkpt lat="44.00137" lon="1.84141">
        <ele>195.6</ele>
        <time>2016-08-27T08:55:27Z</time>
      </trkpt>
      <trkpt lat="44.0014" lon="1.8414">
        <ele>195.8</ele>
        <time>2016-08-27T08:55:28Z</time>
      </trkpt>
      <trkpt lat="44.00144" lon="1.84139">
        <ele>196</ele>
        <time>2016-08-27T08:55:29Z</time>
      </trkpt>
      <trkpt lat="44.00147" lon="1.84137">
        <ele>196.3</ele>
        <time>2016-08-27T08:55:30Z</time>
      </trkpt>
      <trkpt lat="44.00152" lon="1.84136">
        <ele>196.5</ele>
        <time>2016-08-27T08:55:31Z</time>
      </trkpt>
      <trkpt lat="44.00155" lon="1.84133">
        <ele>196.9</ele>
        <time>2016-08-27T08:55:32Z</time>
      </trkpt>
      <trkpt lat="44.00158" lon="1.84131">
        <ele>197.2</ele>
        <time>2016-08-27T08:55:33Z</time>
      </trkpt>
      <trkpt lat="44.00163" lon="1.8413">
        <ele>197.4</ele>
        <time>2016-08-27T08:55:34Z</time>
      </trkpt>
      <trkpt lat="44.00167" lon="1.84129">
        <ele>197.6</ele>
        <time>2016-08-27T08:55:35Z</time>
      </trkpt>
      <trkpt lat="44.00175" lon="1.84128">
        <ele>197.9</ele>
        <time>2016-08-27T08:55:36Z</time>
      </trkpt>
      <trkpt lat="44.00182" lon="1.84129">
        <ele>198</ele>
        <time>2016-08-27T08:55:37Z</time>
      </trkpt>
      <trkpt lat="44.00189" lon="1.8413">
        <ele>198.1</ele>
        <time>2016-08-27T08:55:38Z</time>
      </trkpt>
      <trkpt lat="44.00195" lon="1.84131">
        <ele>198.1</ele>
        <time>2016-08-27T08:55:40Z</time>
      </trkpt>
      <trkpt lat="44.00201" lon="1.8413">
        <ele>198.3</ele>
        <time>2016-08-27T08:55:41Z</time>
      </trkpt>
      <trkpt lat="44.00205" lon="1.84129">
        <ele>198.5</ele>
        <time>2016-08-27T08:55:42Z</time>
      </trkpt>
      <trkpt lat="44.00209" lon="1.84129">
        <ele>198.7</ele>
        <time>2016-08-27T08:55:43Z</time>
      </trkpt>
      <trkpt lat="44.00214" lon="1.84129">
        <ele>199</ele>
        <time>2016-08-27T08:55:44Z</time>
      </trkpt>
      <trkpt lat="44.00218" lon="1.84129">
        <ele>199.2</ele>
        <time>2016-08-27T08:55:45Z</time>
      </trkpt>
      <trkpt lat="44.00223" lon="1.84128">
        <ele>199.5</ele>
        <time>2016-08-27T08:55:46Z</time>
      </trkpt>
      <trkpt lat="44.00228" lon="1.84128">
        <ele>199.8</ele>
        <time>2016-08-27T08:55:47Z</time>
      </trkpt>
      <trkpt lat="44.00233" lon="1.84127">
        <ele>200.2</ele>
        <time>2016-08-27T08:55:48Z</time>
      </trkpt>
      <trkpt lat="44.00238" lon="1.84127">
        <ele>200.5</ele>
        <time>2016-08-27T08:55:49Z</time>
      </trkpt>
      <trkpt lat="44.00243" lon="1.84126">
        <ele>201</ele>
        <time>2016-08-27T08:55:50Z</time>
      </trkpt>
      <trkpt lat="44.00248" lon="1.84126">
        <ele>201.3</ele>
        <time>2016-08-27T08:55:51Z</time>
      </trkpt>
      <trkpt lat="44.00253" lon="1.84125">
        <ele>201.7</ele>
        <time>2016-08-27T08:55:52Z</time>
      </trkpt>
      <trkpt lat="44.0026" lon="1.84125">
        <ele>202.1</ele>
        <time>2016-08-27T08:55:53Z</time>
      </trkpt>
      <trkpt lat="44.00267" lon="1.84124">
        <ele>202.5</ele>
        <time>2016-08-27T08:55:54Z</time>
      </trkpt>
      <trkpt lat="44.00273" lon="1.84124">
        <ele>202.9</ele>
        <time>2016-08-27T08:55:55Z</time>
      </trkpt>
      <trkpt lat="44.00276" lon="1.84122">
        <ele>203.2</ele>
        <time>2016-08-27T08:55:56Z</time>
      </trkpt>
      <trkpt lat="44.00283" lon="1.84122">
        <ele>203.6</ele>
        <time>2016-08-27T08:55:57Z</time>
      </trkpt>
      <trkpt lat="44.00288" lon="1.8412">
        <ele>204</ele>
        <time>2016-08-27T08:55:58Z</time>
      </trkpt>
      <trkpt lat="44.00294" lon="1.8412">
        <ele>204.2</ele>
        <time>2016-08-27T08:55:59Z</time>
      </trkpt>
      <trkpt lat="44.00298" lon="1.8412">
        <ele>204.1</ele>
        <time>2016-08-27T08:56:00Z</time>
      </trkpt>
      <trkpt lat="44.00303" lon="1.84119">
        <ele>204</ele>
        <time>2016-08-27T08:56:01Z</time>
      </trkpt>
      <trkpt lat="44.00309" lon="1.84119">
        <ele>203.8</ele>
        <time>2016-08-27T08:56:02Z</time>
      </trkpt>
      <trkpt lat="44.00315" lon="1.84119">
        <ele>203.6</ele>
        <time>2016-08-27T08:56:03Z</time>
      </trkpt>
      <trkpt lat="44.00322" lon="1.84119">
        <ele>203.4</ele>
        <time>2016-08-27T08:56:04Z</time>
      </trkpt>
      <trkpt lat="44.00329" lon="1.84119">
        <ele>203.2</ele>
        <time>2016-08-27T08:56:05Z</time>
      </trkpt>
      <trkpt lat="44.0034" lon="1.84117">
        <ele>203</ele>
        <time>2016-08-27T08:56:07Z</time>
      </trkpt>
      <trkpt lat="44.00347" lon="1.84118">
        <ele>202.7</ele>
        <time>2016-08-27T08:56:08Z</time>
      </trkpt>
      <trkpt lat="44.00353" lon="1.84119">
        <ele>202.5</ele>
        <time>2016-08-27T08:56:09Z</time>
      </trkpt>
      <trkpt lat="44.00359" lon="1.84119">
        <ele>202.3</ele>
        <time>2016-08-27T08:56:10Z</time>
      </trkpt>
      <trkpt lat="44.00362" lon="1.84118">
        <ele>202.2</ele>
        <time>2016-08-27T08:56:11Z</time>
      </trkpt>
      <trkpt lat="44.00368" lon="1.84119">
        <ele>202</ele>
        <time>2016-08-27T08:56:12Z</time>
      </trkpt>
      <trkpt lat="44.00372" lon="1.84118">
        <ele>201.9</ele>
        <time>2016-08-27T08:56:13Z</time>
      </trkpt>
      <trkpt lat="44.00377" lon="1.84116">
        <ele>202.1</ele>
        <time>2016-08-27T08:56:14Z</time>
      </trkpt>
      <trkpt lat="44.00381" lon="1.84114">
        <ele>202.5</ele>
        <time>2016-08-27T08:56:15Z</time>
      </trkpt>
      <trkpt lat="44.00385" lon="1.84114">
        <ele>202.5</ele>
        <time>2016-08-27T08:56:16Z</time>
      </trkpt>
      <trkpt lat="44.00389" lon="1.84114">
        <ele>202.6</ele>
        <time>2016-08-27T08:56:17Z</time>
      </trkpt>
      <trkpt lat="44.00394" lon="1.84115">
        <ele>202.7</ele>
        <time>2016-08-27T08:56:18Z</time>
      </trkpt>
      <trkpt lat="44.004" lon="1.84115">
        <ele>202.8</ele>
        <time>2016-08-27T08:56:19Z</time>
      </trkpt>
      <trkpt lat="44.00405" lon="1.84116">
        <ele>202.8</ele>
        <time>2016-08-27T08:56:20Z</time>
      </trkpt>
      <trkpt lat="44.0041" lon="1.84118">
        <ele>202.7</ele>
        <time>2016-08-27T08:56:21Z</time>
      </trkpt>
      <trkpt lat="44.00415" lon="1.84114">
        <ele>203.3</ele>
        <time>2016-08-27T08:56:22Z</time>
      </trkpt>
      <trkpt lat="44.00422" lon="1.84113">
        <ele>203.6</ele>
        <time>2016-08-27T08:56:23Z</time>
      </trkpt>
      <trkpt lat="44.00425" lon="1.84115">
        <ele>203.4</ele>
        <time>2016-08-27T08:56:24Z</time>
      </trkpt>
      <trkpt lat="44.00431" lon="1.84114">
        <ele>203.7</ele>
        <time>2016-08-27T08:56:25Z</time>
      </trkpt>
      <trkpt lat="44.00436" lon="1.84116">
        <ele>203.6</ele>
        <time>2016-08-27T08:56:26Z</time>
      </trkpt>
      <trkpt lat="44.00442" lon="1.84118">
        <ele>203.4</ele>
        <time>2016-08-27T08:56:27Z</time>
      </trkpt>
      <trkpt lat="44.00449" lon="1.84116">
        <ele>203.9</ele>
        <time>2016-08-27T08:56:28Z</time>
      </trkpt>
      <trkpt lat="44.00454" lon="1.84116">
        <ele>204</ele>
        <time>2016-08-27T08:56:29Z</time>
      </trkpt>
      <trkpt lat="44.00459" lon="1.84118">
        <ele>203.9</ele>
        <time>2016-08-27T08:56:30Z</time>
      </trkpt>
      <trkpt lat="44.00464" lon="1.84119">
        <ele>203.9</ele>
        <time>2016-08-27T08:56:31Z</time>
      </trkpt>
      <trkpt lat="44.00468" lon="1.84121">
        <ele>203.8</ele>
        <time>2016-08-27T08:56:32Z</time>
      </trkpt>
      <trkpt lat="44.00474" lon="1.84124">
        <ele>203.7</ele>
        <time>2016-08-27T08:56:33Z</time>
      </trkpt>
      <trkpt lat="44.00481" lon="1.84126">
        <ele>203.7</ele>
        <time>2016-08-27T08:56:34Z</time>
      </trkpt>
      <trkpt lat="44.00484" lon="1.84126">
        <ele>203.7</ele>
        <time>2016-08-27T08:56:35Z</time>
      </trkpt>
      <trkpt lat="44.00489" lon="1.84127">
        <ele>203.8</ele>
        <time>2016-08-27T08:56:36Z</time>
      </trkpt>
      <trkpt lat="44.00494" lon="1.84128">
        <ele>203.8</ele>
        <time>2016-08-27T08:56:37Z</time>
      </trkpt>
      <trkpt lat="44.00501" lon="1.8413">
        <ele>203.7</ele>
        <time>2016-08-27T08:56:38Z</time>
      </trkpt>
      <trkpt lat="44.00506" lon="1.84133">
        <ele>203.5</ele>
        <time>2016-08-27T08:56:39Z</time>
      </trkpt>
      <trkpt lat="44.00512" lon="1.84134">
        <ele>203.5</ele>
        <time>2016-08-27T08:56:40Z</time>
      </trkpt>
      <trkpt lat="44.00518" lon="1.84134">
        <ele>203.7</ele>
        <time>2016-08-27T08:56:41Z</time>
      </trkpt>
      <trkpt lat="44.00522" lon="1.84137">
        <ele>203.4</ele>
        <time>2016-08-27T08:56:42Z</time>
      </trkpt>
      <trkpt lat="44.00529" lon="1.84138">
        <ele>203.5</ele>
        <time>2016-08-27T08:56:43Z</time>
      </trkpt>
      <trkpt lat="44.00534" lon="1.84142">
        <ele>203.1</ele>
        <time>2016-08-27T08:56:44Z</time>
      </trkpt>
      <trkpt lat="44.00541" lon="1.84144">
        <ele>203</ele>
        <time>2016-08-27T08:56:45Z</time>
      </trkpt>
      <trkpt lat="44.00545" lon="1.84147">
        <ele>202.6</ele>
        <time>2016-08-27T08:56:46Z</time>
      </trkpt>
      <trkpt lat="44.0055" lon="1.84147">
        <ele>202.5</ele>
        <time>2016-08-27T08:56:47Z</time>
      </trkpt>
      <trkpt lat="44.00555" lon="1.84146">
        <ele>202.5</ele>
        <time>2016-08-27T08:56:48Z</time>
      </trkpt>
      <trkpt lat="44.00561" lon="1.84146">
        <ele>202.3</ele>
        <time>2016-08-27T08:56:49Z</time>
      </trkpt>
      <trkpt lat="44.00564" lon="1.84146">
        <ele>202.3</ele>
        <time>2016-08-27T08:56:50Z</time>
      </trkpt>
      <trkpt lat="44.00568" lon="1.84147">
        <ele>202.1</ele>
        <time>2016-08-27T08:56:51Z</time>
      </trkpt>
      <trkpt lat="44.00573" lon="1.84146">
        <ele>202.1</ele>
        <time>2016-08-27T08:56:52Z</time>
      </trkpt>
      <trkpt lat="44.00579" lon="1.84149">
        <ele>201.7</ele>
        <time>2016-08-27T08:56:53Z</time>
      </trkpt>
      <trkpt lat="44.00584" lon="1.8415">
        <ele>201.4</ele>
        <time>2016-08-27T08:56:54Z</time>
      </trkpt>
      <trkpt lat="44.00588" lon="1.84152">
        <ele>201.1</ele>
        <time>2016-08-27T08:56:55Z</time>
      </trkpt>
      <trkpt lat="44.00592" lon="1.84153">
        <ele>200.8</ele>
        <time>2016-08-27T08:56:56Z</time>
      </trkpt>
      <trkpt lat="44.00595" lon="1.84154">
        <ele>200.7</ele>
        <time>2016-08-27T08:56:57Z</time>
      </trkpt>
      <trkpt lat="44.00602" lon="1.84157">
        <ele>200.1</ele>
        <time>2016-08-27T08:56:58Z</time>
      </trkpt>
      <trkpt lat="44.00605" lon="1.84159">
        <ele>199.8</ele>
        <time>2016-08-27T08:56:59Z</time>
      </trkpt>
      <trkpt lat="44.00609" lon="1.84162">
        <ele>199.3</ele>
        <time>2016-08-27T08:57:00Z</time>
      </trkpt>
      <trkpt lat="44.00616" lon="1.84164">
        <ele>199</ele>
        <time>2016-08-27T08:57:01Z</time>
      </trkpt>
      <trkpt lat="44.00622" lon="1.84163">
        <ele>199</ele>
        <time>2016-08-27T08:57:02Z</time>
      </trkpt>
      <trkpt lat="44.00625" lon="1.84164">
        <ele>198.8</ele>
        <time>2016-08-27T08:57:03Z</time>
      </trkpt>
      <trkpt lat="44.00629" lon="1.84164">
        <ele>199.2</ele>
        <time>2016-08-27T08:57:04Z</time>
      </trkpt>
      <trkpt lat="44.00634" lon="1.84165">
        <ele>199.5</ele>
        <time>2016-08-27T08:57:05Z</time>
      </trkpt>
      <trkpt lat="44.0064" lon="1.84166">
        <ele>199.8</ele>
        <time>2016-08-27T08:57:06Z</time>
      </trkpt>
      <trkpt lat="44.00645" lon="1.84166">
        <ele>200.2</ele>
        <time>2016-08-27T08:57:07Z</time>
      </trkpt>
      <trkpt lat="44.00651" lon="1.84169">
        <ele>200.4</ele>
        <time>2016-08-27T08:57:08Z</time>
      </trkpt>
      <trkpt lat="44.00658" lon="1.8417">
        <ele>200.7</ele>
        <time>2016-08-27T08:57:09Z</time>
      </trkpt>
      <trkpt lat="44.00663" lon="1.84172">
        <ele>200.9</ele>
        <time>2016-08-27T08:57:10Z</time>
      </trkpt>
      <trkpt lat="44.00668" lon="1.84175">
        <ele>200.9</ele>
        <time>2016-08-27T08:57:11Z</time>
      </trkpt>
      <trkpt lat="44.00673" lon="1.84177">
        <ele>201</ele>
        <time>2016-08-27T08:57:12Z</time>
      </trkpt>
      <trkpt lat="44.00678" lon="1.84179">
        <ele>201.2</ele>
        <time>2016-08-27T08:57:13Z</time>
      </trkpt>
      <trkpt lat="44.00683" lon="1.8418">
        <ele>201.4</ele>
        <time>2016-08-27T08:57:14Z</time>
      </trkpt>
      <trkpt lat="44.00689" lon="1.84181">
        <ele>201.8</ele>
        <time>2016-08-27T08:57:15Z</time>
      </trkpt>
      <trkpt lat="44.00695" lon="1.84181">
        <ele>202.1</ele>
        <time>2016-08-27T08:57:16Z</time>
      </trkpt>
      <trkpt lat="44.007" lon="1.84179">
        <ele>202.8</ele>
        <time>2016-08-27T08:57:17Z</time>
      </trkpt>
      <trkpt lat="44.00705" lon="1.84179">
        <ele>203.2</ele>
        <time>2016-08-27T08:57:18Z</time>
      </trkpt>
      <trkpt lat="44.00707" lon="1.84179">
        <ele>203.4</ele>
        <time>2016-08-27T08:57:19Z</time>
      </trkpt>
      <trkpt lat="44.00713" lon="1.8418">
        <ele>203.9</ele>
        <time>2016-08-27T08:57:20Z</time>
      </trkpt>
      <trkpt lat="44.00718" lon="1.84182">
        <ele>204</ele>
        <time>2016-08-27T08:57:21Z</time>
      </trkpt>
      <trkpt lat="44.00722" lon="1.84183">
        <ele>204.2</ele>
        <time>2016-08-27T08:57:22Z</time>
      </trkpt>
      <trkpt lat="44.00725" lon="1.84183">
        <ele>204.4</ele>
        <time>2016-08-27T08:57:23Z</time>
      </trkpt>
      <trkpt lat="44.00731" lon="1.84186">
        <ele>204.5</ele>
        <time>2016-08-27T08:57:24Z</time>
      </trkpt>
      <trkpt lat="44.00736" lon="1.84187">
        <ele>204.7</ele>
        <time>2016-08-27T08:57:25Z</time>
      </trkpt>
      <trkpt lat="44.00742" lon="1.84188">
        <ele>205.2</ele>
        <time>2016-08-27T08:57:26Z</time>
      </trkpt>
      <trkpt lat="44.00748" lon="1.84191">
        <ele>205</ele>
        <time>2016-08-27T08:57:27Z</time>
      </trkpt>
      <trkpt lat="44.00752" lon="1.84192">
        <ele>205.2</ele>
        <time>2016-08-27T08:57:28Z</time>
      </trkpt>
      <trkpt lat="44.00755" lon="1.84193">
        <ele>205.3</ele>
        <time>2016-08-27T08:57:29Z</time>
      </trkpt>
      <trkpt lat="44.0076" lon="1.84194">
        <ele>205.5</ele>
        <time>2016-08-27T08:57:30Z</time>
      </trkpt>
      <trkpt lat="44.00764" lon="1.84195">
        <ele>205.7</ele>
        <time>2016-08-27T08:57:31Z</time>
      </trkpt>
      <trkpt lat="44.00769" lon="1.84195">
        <ele>205.9</ele>
        <time>2016-08-27T08:57:32Z</time>
      </trkpt>
      <trkpt lat="44.00774" lon="1.84197">
        <ele>206</ele>
        <time>2016-08-27T08:57:33Z</time>
      </trkpt>
      <trkpt lat="44.00778" lon="1.84198">
        <ele>206.1</ele>
        <time>2016-08-27T08:57:34Z</time>
      </trkpt>
      <trkpt lat="44.00782" lon="1.84197">
        <ele>206.6</ele>
        <time>2016-08-27T08:57:35Z</time>
      </trkpt>
      <trkpt lat="44.00786" lon="1.84198">
        <ele>206.7</ele>
        <time>2016-08-27T08:57:36Z</time>
      </trkpt>
      <trkpt lat="44.00793" lon="1.84201">
        <ele>206.6</ele>
        <time>2016-08-27T08:57:37Z</time>
      </trkpt>
      <trkpt lat="44.00799" lon="1.84203">
        <ele>206</ele>
        <time>2016-08-27T08:57:38Z</time>
      </trkpt>
      <trkpt lat="44.00804" lon="1.84205">
        <ele>205.6</ele>
        <time>2016-08-27T08:57:39Z</time>
      </trkpt>
      <trkpt lat="44.00811" lon="1.84206">
        <ele>205.2</ele>
        <time>2016-08-27T08:57:40Z</time>
      </trkpt>
      <trkpt lat="44.00816" lon="1.84207">
        <ele>204.9</ele>
        <time>2016-08-27T08:57:41Z</time>
      </trkpt>
      <trkpt lat="44.00822" lon="1.84209">
        <ele>204.6</ele>
        <time>2016-08-27T08:57:42Z</time>
      </trkpt>
      <trkpt lat="44.00831" lon="1.8421">
        <ele>204.4</ele>
        <time>2016-08-27T08:57:44Z</time>
      </trkpt>
      <trkpt lat="44.00837" lon="1.84212">
        <ele>204</ele>
        <time>2016-08-27T08:57:45Z</time>
      </trkpt>
      <trkpt lat="44.00842" lon="1.84215">
        <ele>203.7</ele>
        <time>2016-08-27T08:57:46Z</time>
      </trkpt>
      <trkpt lat="44.00846" lon="1.8422">
        <ele>203.1</ele>
        <time>2016-08-27T08:57:47Z</time>
      </trkpt>
      <trkpt lat="44.0085" lon="1.84221">
        <ele>202.9</ele>
        <time>2016-08-27T08:57:48Z</time>
      </trkpt>
      <trkpt lat="44.00854" lon="1.84224">
        <ele>202.6</ele>
        <time>2016-08-27T08:57:49Z</time>
      </trkpt>
      <trkpt lat="44.00857" lon="1.84226">
        <ele>202.4</ele>
        <time>2016-08-27T08:57:50Z</time>
      </trkpt>
      <trkpt lat="44.00862" lon="1.84227">
        <ele>202.2</ele>
        <time>2016-08-27T08:57:51Z</time>
      </trkpt>
      <trkpt lat="44.00865" lon="1.84229">
        <ele>202</ele>
        <time>2016-08-27T08:57:52Z</time>
      </trkpt>
      <trkpt lat="44.00871" lon="1.8423">
        <ele>202</ele>
        <time>2016-08-27T08:57:53Z</time>
      </trkpt>
      <trkpt lat="44.00876" lon="1.84232">
        <ele>201.7</ele>
        <time>2016-08-27T08:57:54Z</time>
      </trkpt>
      <trkpt lat="44.00881" lon="1.84236">
        <ele>201.3</ele>
        <time>2016-08-27T08:57:55Z</time>
      </trkpt>
      <trkpt lat="44.00887" lon="1.84238">
        <ele>201</ele>
        <time>2016-08-27T08:57:56Z</time>
      </trkpt>
      <trkpt lat="44.00893" lon="1.84239">
        <ele>200.8</ele>
        <time>2016-08-27T08:57:57Z</time>
      </trkpt>
      <trkpt lat="44.00902" lon="1.84245">
        <ele>200.2</ele>
        <time>2016-08-27T08:57:59Z</time>
      </trkpt>
      <trkpt lat="44.00909" lon="1.84247">
        <ele>200</ele>
        <time>2016-08-27T08:58:00Z</time>
      </trkpt>
      <trkpt lat="44.00915" lon="1.8425">
        <ele>199.8</ele>
        <time>2016-08-27T08:58:01Z</time>
      </trkpt>
      <trkpt lat="44.00919" lon="1.84252">
        <ele>199.6</ele>
        <time>2016-08-27T08:58:02Z</time>
      </trkpt>
      <trkpt lat="44.00925" lon="1.84257">
        <ele>199.2</ele>
        <time>2016-08-27T08:58:03Z</time>
      </trkpt>
      <trkpt lat="44.00933" lon="1.84258">
        <ele>199.1</ele>
        <time>2016-08-27T08:58:04Z</time>
      </trkpt>
      <trkpt lat="44.0094" lon="1.8426">
        <ele>199</ele>
        <time>2016-08-27T08:58:05Z</time>
      </trkpt>
      <trkpt lat="44.00943" lon="1.84261">
        <ele>198.8</ele>
        <time>2016-08-27T08:58:06Z</time>
      </trkpt>
      <trkpt lat="44.00949" lon="1.84261">
        <ele>198.8</ele>
        <time>2016-08-27T08:58:07Z</time>
      </trkpt>
      <trkpt lat="44.00955" lon="1.84262">
        <ele>198.8</ele>
        <time>2016-08-27T08:58:08Z</time>
      </trkpt>
      <trkpt lat="44.00962" lon="1.84268">
        <ele>198.6</ele>
        <time>2016-08-27T08:58:09Z</time>
      </trkpt>
      <trkpt lat="44.00966" lon="1.84272">
        <ele>198.4</ele>
        <time>2016-08-27T08:58:10Z</time>
      </trkpt>
      <trkpt lat="44.00972" lon="1.84273">
        <ele>198.5</ele>
        <time>2016-08-27T08:58:11Z</time>
      </trkpt>
      <trkpt lat="44.00975" lon="1.84276">
        <ele>198.4</ele>
        <time>2016-08-27T08:58:12Z</time>
      </trkpt>
      <trkpt lat="44.00986" lon="1.84281">
        <ele>198.4</ele>
        <time>2016-08-27T08:58:14Z</time>
      </trkpt>
      <trkpt lat="44.0099" lon="1.84283">
        <ele>198.4</ele>
        <time>2016-08-27T08:58:15Z</time>
      </trkpt>
      <trkpt lat="44.00995" lon="1.84286">
        <ele>198.3</ele>
        <time>2016-08-27T08:58:16Z</time>
      </trkpt>
      <trkpt lat="44.01003" lon="1.84289">
        <ele>198.2</ele>
        <time>2016-08-27T08:58:17Z</time>
      </trkpt>
      <trkpt lat="44.01008" lon="1.84293">
        <ele>198.2</ele>
        <time>2016-08-27T08:58:18Z</time>
      </trkpt>
      <trkpt lat="44.01012" lon="1.84296">
        <ele>198.3</ele>
        <time>2016-08-27T08:58:19Z</time>
      </trkpt>
      <trkpt lat="44.01018" lon="1.84299">
        <ele>198.4</ele>
        <time>2016-08-27T08:58:20Z</time>
      </trkpt>
      <trkpt lat="44.01024" lon="1.84303">
        <ele>198.6</ele>
        <time>2016-08-27T08:58:21Z</time>
      </trkpt>
      <trkpt lat="44.01029" lon="1.84305">
        <ele>198.7</ele>
        <time>2016-08-27T08:58:22Z</time>
      </trkpt>
      <trkpt lat="44.01031" lon="1.84309">
        <ele>198.7</ele>
        <time>2016-08-27T08:58:23Z</time>
      </trkpt>
      <trkpt lat="44.01036" lon="1.84309">
        <ele>198.9</ele>
        <time>2016-08-27T08:58:24Z</time>
      </trkpt>
      <trkpt lat="44.01042" lon="1.84312">
        <ele>199</ele>
        <time>2016-08-27T08:58:26Z</time>
      </trkpt>
      <trkpt lat="44.01047" lon="1.84312">
        <ele>199</ele>
        <time>2016-08-27T08:58:27Z</time>
      </trkpt>
      <trkpt lat="44.01053" lon="1.84314">
        <ele>199.1</ele>
        <time>2016-08-27T08:58:29Z</time>
      </trkpt>
      <trkpt lat="44.01055" lon="1.84315">
        <ele>199.1</ele>
        <time>2016-08-27T08:58:30Z</time>
      </trkpt>
      <trkpt lat="44.0106" lon="1.84318">
        <ele>199.1</ele>
        <time>2016-08-27T08:58:31Z</time>
      </trkpt>
      <trkpt lat="44.01065" lon="1.8432">
        <ele>199.2</ele>
        <time>2016-08-27T08:58:32Z</time>
      </trkpt>
      <trkpt lat="44.01068" lon="1.84321">
        <ele>199.2</ele>
        <time>2016-08-27T08:58:33Z</time>
      </trkpt>
      <trkpt lat="44.01073" lon="1.84322">
        <ele>199.2</ele>
        <time>2016-08-27T08:58:34Z</time>
      </trkpt>
      <trkpt lat="44.01077" lon="1.84323">
        <ele>199.3</ele>
        <time>2016-08-27T08:58:35Z</time>
      </trkpt>
      <trkpt lat="44.01081" lon="1.84324">
        <ele>199.3</ele>
        <time>2016-08-27T08:58:36Z</time>
      </trkpt>
      <trkpt lat="44.01085" lon="1.84325">
        <ele>199.3</ele>
        <time>2016-08-27T08:58:37Z</time>
      </trkpt>
      <trkpt lat="44.0109" lon="1.84327">
        <ele>199.3</ele>
        <time>2016-08-27T08:58:38Z</time>
      </trkpt>
      <trkpt lat="44.01093" lon="1.84328">
        <ele>199.3</ele>
        <time>2016-08-27T08:58:39Z</time>
      </trkpt>
      <trkpt lat="44.0111" lon="1.8434">
        <ele>199.3</ele>
        <time>2016-08-27T08:58:41Z</time>
      </trkpt>
      <trkpt lat="44.01114" lon="1.84341">
        <ele>199.4</ele>
        <time>2016-08-27T08:58:42Z</time>
      </trkpt>
      <trkpt lat="44.01118" lon="1.84343">
        <ele>199.4</ele>
        <time>2016-08-27T08:58:43Z</time>
      </trkpt>
      <trkpt lat="44.01123" lon="1.84346">
        <ele>199.3</ele>
        <time>2016-08-27T08:58:44Z</time>
      </trkpt>
      <trkpt lat="44.01128" lon="1.84348">
        <ele>199.3</ele>
        <time>2016-08-27T08:58:45Z</time>
      </trkpt>
      <trkpt lat="44.01132" lon="1.84352">
        <ele>199.3</ele>
        <time>2016-08-27T08:58:46Z</time>
      </trkpt>
      <trkpt lat="44.01134" lon="1.84353">
        <ele>199.2</ele>
        <time>2016-08-27T08:58:47Z</time>
      </trkpt>
      <trkpt lat="44.01139" lon="1.84356">
        <ele>199.1</ele>
        <time>2016-08-27T08:58:48Z</time>
      </trkpt>
      <trkpt lat="44.01145" lon="1.84358">
        <ele>199</ele>
        <time>2016-08-27T08:58:49Z</time>
      </trkpt>
      <trkpt lat="44.0115" lon="1.8436">
        <ele>198.9</ele>
        <time>2016-08-27T08:58:50Z</time>
      </trkpt>
      <trkpt lat="44.01156" lon="1.84362">
        <ele>198.8</ele>
        <time>2016-08-27T08:58:51Z</time>
      </trkpt>
      <trkpt lat="44.01162" lon="1.84367">
        <ele>198.5</ele>
        <time>2016-08-27T08:58:52Z</time>
      </trkpt>
      <trkpt lat="44.01168" lon="1.84369">
        <ele>198.2</ele>
        <time>2016-08-27T08:58:53Z</time>
      </trkpt>
      <trkpt lat="44.01176" lon="1.84373">
        <ele>197.9</ele>
        <time>2016-08-27T08:58:54Z</time>
      </trkpt>
      <trkpt lat="44.01182" lon="1.84375">
        <ele>197.7</ele>
        <time>2016-08-27T08:58:55Z</time>
      </trkpt>
      <trkpt lat="44.01188" lon="1.84376">
        <ele>197.5</ele>
        <time>2016-08-27T08:58:56Z</time>
      </trkpt>
      <trkpt lat="44.01193" lon="1.84378">
        <ele>197.4</ele>
        <time>2016-08-27T08:58:57Z</time>
      </trkpt>
      <trkpt lat="44.01197" lon="1.84383">
        <ele>197.4</ele>
        <time>2016-08-27T08:58:59Z</time>
      </trkpt>
      <trkpt lat="44.01203" lon="1.84386">
        <ele>197.3</ele>
        <time>2016-08-27T08:59:00Z</time>
      </trkpt>
      <trkpt lat="44.01208" lon="1.84389">
        <ele>197.2</ele>
        <time>2016-08-27T08:59:01Z</time>
      </trkpt>
      <trkpt lat="44.01211" lon="1.84391">
        <ele>197.2</ele>
        <time>2016-08-27T08:59:02Z</time>
      </trkpt>
      <trkpt lat="44.01214" lon="1.84392">
        <ele>197.2</ele>
        <time>2016-08-27T08:59:03Z</time>
      </trkpt>
      <trkpt lat="44.01219" lon="1.84393">
        <ele>197.3</ele>
        <time>2016-08-27T08:59:04Z</time>
      </trkpt>
      <trkpt lat="44.01223" lon="1.84397">
        <ele>197.3</ele>
        <time>2016-08-27T08:59:05Z</time>
      </trkpt>
      <trkpt lat="44.01228" lon="1.84399">
        <ele>197.4</ele>
        <time>2016-08-27T08:59:06Z</time>
      </trkpt>
      <trkpt lat="44.01234" lon="1.844">
        <ele>197.4</ele>
        <time>2016-08-27T08:59:07Z</time>
      </trkpt>
      <trkpt lat="44.0124" lon="1.84403">
        <ele>197.5</ele>
        <time>2016-08-27T08:59:08Z</time>
      </trkpt>
      <trkpt lat="44.01244" lon="1.84403">
        <ele>197.5</ele>
        <time>2016-08-27T08:59:09Z</time>
      </trkpt>
      <trkpt lat="44.01247" lon="1.84406">
        <ele>197.5</ele>
        <time>2016-08-27T08:59:10Z</time>
      </trkpt>
      <trkpt lat="44.01252" lon="1.84409">
        <ele>197.5</ele>
        <time>2016-08-27T08:59:11Z</time>
      </trkpt>
      <trkpt lat="44.01257" lon="1.84411">
        <ele>197.5</ele>
        <time>2016-08-27T08:59:12Z</time>
      </trkpt>
      <trkpt lat="44.01262" lon="1.84412">
        <ele>197.5</ele>
        <time>2016-08-27T08:59:13Z</time>
      </trkpt>
      <trkpt lat="44.01268" lon="1.84412">
        <ele>197.5</ele>
        <time>2016-08-27T08:59:14Z</time>
      </trkpt>
      <trkpt lat="44.01274" lon="1.84414">
        <ele>197.5</ele>
        <time>2016-08-27T08:59:15Z</time>
      </trkpt>
      <trkpt lat="44.01277" lon="1.84418">
        <ele>197.5</ele>
        <time>2016-08-27T08:59:16Z</time>
      </trkpt>
      <trkpt lat="44.01283" lon="1.84421">
        <ele>197.5</ele>
        <time>2016-08-27T08:59:17Z</time>
      </trkpt>
      <trkpt lat="44.01287" lon="1.84422">
        <ele>197.4</ele>
        <time>2016-08-27T08:59:18Z</time>
      </trkpt>
      <trkpt lat="44.01292" lon="1.84425">
        <ele>197.4</ele>
        <time>2016-08-27T08:59:19Z</time>
      </trkpt>
      <trkpt lat="44.01298" lon="1.84427">
        <ele>197.6</ele>
        <time>2016-08-27T08:59:21Z</time>
      </trkpt>
      <trkpt lat="44.01303" lon="1.84431">
        <ele>197.7</ele>
        <time>2016-08-27T08:59:22Z</time>
      </trkpt>
      <trkpt lat="44.01306" lon="1.84433">
        <ele>197.8</ele>
        <time>2016-08-27T08:59:23Z</time>
      </trkpt>
      <trkpt lat="44.01309" lon="1.84435">
        <ele>197.9</ele>
        <time>2016-08-27T08:59:24Z</time>
      </trkpt>
      <trkpt lat="44.01314" lon="1.84438">
        <ele>198</ele>
        <time>2016-08-27T08:59:25Z</time>
      </trkpt>
      <trkpt lat="44.01317" lon="1.84438">
        <ele>198.2</ele>
        <time>2016-08-27T08:59:26Z</time>
      </trkpt>
      <trkpt lat="44.01321" lon="1.84439">
        <ele>198.3</ele>
        <time>2016-08-27T08:59:27Z</time>
      </trkpt>
      <trkpt lat="44.01325" lon="1.84441">
        <ele>198.4</ele>
        <time>2016-08-27T08:59:28Z</time>
      </trkpt>
      <trkpt lat="44.01329" lon="1.84443">
        <ele>198.5</ele>
        <time>2016-08-27T08:59:29Z</time>
      </trkpt>
      <trkpt lat="44.01335" lon="1.84445">
        <ele>198.7</ele>
        <time>2016-08-27T08:59:30Z</time>
      </trkpt>
      <trkpt lat="44.01341" lon="1.84447">
        <ele>198.9</ele>
        <time>2016-08-27T08:59:31Z</time>
      </trkpt>
      <trkpt lat="44.01345" lon="1.8445">
        <ele>199</ele>
        <time>2016-08-27T08:59:32Z</time>
      </trkpt>
      <trkpt lat="44.01351" lon="1.8445">
        <ele>199.2</ele>
        <time>2016-08-27T08:59:33Z</time>
      </trkpt>
      <trkpt lat="44.01354" lon="1.84454">
        <ele>199.3</ele>
        <time>2016-08-27T08:59:35Z</time>
      </trkpt>
      <trkpt lat="44.01359" lon="1.84457">
        <ele>199.4</ele>
        <time>2016-08-27T08:59:36Z</time>
      </trkpt>
      <trkpt lat="44.01365" lon="1.84459">
        <ele>199.6</ele>
        <time>2016-08-27T08:59:37Z</time>
      </trkpt>
      <trkpt lat="44.01369" lon="1.84464">
        <ele>199.8</ele>
        <time>2016-08-27T08:59:38Z</time>
      </trkpt>
      <trkpt lat="44.01374" lon="1.84465">
        <ele>200</ele>
        <time>2016-08-27T08:59:39Z</time>
      </trkpt>
      <trkpt lat="44.01378" lon="1.84468">
        <ele>200</ele>
        <time>2016-08-27T08:59:40Z</time>
      </trkpt>
      <trkpt lat="44.01387" lon="1.84473">
        <ele>199.9</ele>
        <time>2016-08-27T08:59:41Z</time>
      </trkpt>
      <trkpt lat="44.01394" lon="1.84477">
        <ele>199.8</ele>
        <time>2016-08-27T08:59:42Z</time>
      </trkpt>
      <trkpt lat="44.014" lon="1.8448">
        <ele>199.8</ele>
        <time>2016-08-27T08:59:43Z</time>
      </trkpt>
      <trkpt lat="44.01403" lon="1.84476">
        <ele>199.7</ele>
        <time>2016-08-27T08:59:44Z</time>
      </trkpt>
      <trkpt lat="44.01406" lon="1.84477">
        <ele>199.7</ele>
        <time>2016-08-27T08:59:45Z</time>
      </trkpt>
      <trkpt lat="44.01412" lon="1.84481">
        <ele>199.7</ele>
        <time>2016-08-27T08:59:46Z</time>
      </trkpt>
      <trkpt lat="44.01416" lon="1.84483">
        <ele>199.7</ele>
        <time>2016-08-27T08:59:47Z</time>
      </trkpt>
      <trkpt lat="44.01422" lon="1.84485">
        <ele>199.6</ele>
        <time>2016-08-27T08:59:49Z</time>
      </trkpt>
      <trkpt lat="44.01428" lon="1.84487">
        <ele>199.6</ele>
        <time>2016-08-27T08:59:51Z</time>
      </trkpt>
      <trkpt lat="44.01434" lon="1.8449">
        <ele>199.6</ele>
        <time>2016-08-27T08:59:52Z</time>
      </trkpt>
      <trkpt lat="44.01439" lon="1.84491">
        <ele>199.5</ele>
        <time>2016-08-27T08:59:53Z</time>
      </trkpt>
      <trkpt lat="44.01443" lon="1.84492">
        <ele>199.5</ele>
        <time>2016-08-27T08:59:54Z</time>
      </trkpt>
      <trkpt lat="44.01447" lon="1.84494">
        <ele>199.5</ele>
        <time>2016-08-27T08:59:55Z</time>
      </trkpt>
      <trkpt lat="44.01452" lon="1.84495">
        <ele>199.5</ele>
        <time>2016-08-27T08:59:56Z</time>
      </trkpt>
      <trkpt lat="44.01456" lon="1.84497">
        <ele>199.5</ele>
        <time>2016-08-27T08:59:57Z</time>
      </trkpt>
      <trkpt lat="44.01469" lon="1.84501">
        <ele>199.8</ele>
        <time>2016-08-27T08:59:58Z</time>
      </trkpt>
      <trkpt lat="44.01475" lon="1.84507">
        <ele>200</ele>
        <time>2016-08-27T08:59:59Z</time>
      </trkpt>
      <trkpt lat="44.0148" lon="1.8451">
        <ele>200.1</ele>
        <time>2016-08-27T09:00:00Z</time>
      </trkpt>
      <trkpt lat="44.01484" lon="1.84513">
        <ele>200.2</ele>
        <time>2016-08-27T09:00:01Z</time>
      </trkpt>
      <trkpt lat="44.0149" lon="1.84514">
        <ele>200.3</ele>
        <time>2016-08-27T09:00:02Z</time>
      </trkpt>
      <trkpt lat="44.01495" lon="1.84515">
        <ele>200.4</ele>
        <time>2016-08-27T09:00:03Z</time>
      </trkpt>
      <trkpt lat="44.015" lon="1.84518">
        <ele>200.4</ele>
        <time>2016-08-27T09:00:04Z</time>
      </trkpt>
      <trkpt lat="44.01505" lon="1.84521">
        <ele>200.5</ele>
        <time>2016-08-27T09:00:05Z</time>
      </trkpt>
      <trkpt lat="44.01511" lon="1.84522">
        <ele>200.5</ele>
        <time>2016-08-27T09:00:06Z</time>
      </trkpt>
      <trkpt lat="44.01515" lon="1.84525">
        <ele>200.5</ele>
        <time>2016-08-27T09:00:07Z</time>
      </trkpt>
      <trkpt lat="44.0152" lon="1.84527">
        <ele>200.5</ele>
        <time>2016-08-27T09:00:08Z</time>
      </trkpt>
      <trkpt lat="44.01525" lon="1.84529">
        <ele>200.5</ele>
        <time>2016-08-27T09:00:09Z</time>
      </trkpt>
      <trkpt lat="44.0153" lon="1.84533">
        <ele>200.3</ele>
        <time>2016-08-27T09:00:10Z</time>
      </trkpt>
      <trkpt lat="44.01534" lon="1.84536">
        <ele>200.2</ele>
        <time>2016-08-27T09:00:11Z</time>
      </trkpt>
      <trkpt lat="44.01539" lon="1.84538">
        <ele>200.2</ele>
        <time>2016-08-27T09:00:12Z</time>
      </trkpt>
      <trkpt lat="44.01544" lon="1.84539">
        <ele>200.1</ele>
        <time>2016-08-27T09:00:13Z</time>
      </trkpt>
      <trkpt lat="44.01548" lon="1.84542">
        <ele>200</ele>
        <time>2016-08-27T09:00:14Z</time>
      </trkpt>
      <trkpt lat="44.01552" lon="1.84544">
        <ele>200</ele>
        <time>2016-08-27T09:00:15Z</time>
      </trkpt>
      <trkpt lat="44.01559" lon="1.84547">
        <ele>200</ele>
        <time>2016-08-27T09:00:16Z</time>
      </trkpt>
      <trkpt lat="44.01564" lon="1.8455">
        <ele>200</ele>
        <time>2016-08-27T09:00:17Z</time>
      </trkpt>
      <trkpt lat="44.01568" lon="1.84552">
        <ele>200</ele>
        <time>2016-08-27T09:00:18Z</time>
      </trkpt>
      <trkpt lat="44.01572" lon="1.84554">
        <ele>200.1</ele>
        <time>2016-08-27T09:00:19Z</time>
      </trkpt>
      <trkpt lat="44.01578" lon="1.84555">
        <ele>200.1</ele>
        <time>2016-08-27T09:00:20Z</time>
      </trkpt>
      <trkpt lat="44.01582" lon="1.84556">
        <ele>200.1</ele>
        <time>2016-08-27T09:00:21Z</time>
      </trkpt>
      <trkpt lat="44.01586" lon="1.84558">
        <ele>200.1</ele>
        <time>2016-08-27T09:00:22Z</time>
      </trkpt>
      <trkpt lat="44.01591" lon="1.84561">
        <ele>200.1</ele>
        <time>2016-08-27T09:00:23Z</time>
      </trkpt>
      <trkpt lat="44.01597" lon="1.84564">
        <ele>200.2</ele>
        <time>2016-08-27T09:00:24Z</time>
      </trkpt>
      <trkpt lat="44.01601" lon="1.84564">
        <ele>200.2</ele>
        <time>2016-08-27T09:00:25Z</time>
      </trkpt>
      <trkpt lat="44.01606" lon="1.84565">
        <ele>200.2</ele>
        <time>2016-08-27T09:00:26Z</time>
      </trkpt>
      <trkpt lat="44.01609" lon="1.84565">
        <ele>200.2</ele>
        <time>2016-08-27T09:00:27Z</time>
      </trkpt>
      <trkpt lat="44.01614" lon="1.84567">
        <ele>200.3</ele>
        <time>2016-08-27T09:00:28Z</time>
      </trkpt>
      <trkpt lat="44.0162" lon="1.84569">
        <ele>200.3</ele>
        <time>2016-08-27T09:00:29Z</time>
      </trkpt>
      <trkpt lat="44.01625" lon="1.84574">
        <ele>200.4</ele>
        <time>2016-08-27T09:00:30Z</time>
      </trkpt>
      <trkpt lat="44.01631" lon="1.84579">
        <ele>200.7</ele>
        <time>2016-08-27T09:00:31Z</time>
      </trkpt>
      <trkpt lat="44.01636" lon="1.84582">
        <ele>201</ele>
        <time>2016-08-27T09:00:32Z</time>
      </trkpt>
      <trkpt lat="44.0164" lon="1.84583">
        <ele>201.2</ele>
        <time>2016-08-27T09:00:33Z</time>
      </trkpt>
      <trkpt lat="44.01646" lon="1.84586">
        <ele>201.5</ele>
        <time>2016-08-27T09:00:35Z</time>
      </trkpt>
      <trkpt lat="44.0165" lon="1.84588">
        <ele>201.7</ele>
        <time>2016-08-27T09:00:36Z</time>
      </trkpt>
      <trkpt lat="44.01654" lon="1.84589">
        <ele>201.8</ele>
        <time>2016-08-27T09:00:37Z</time>
      </trkpt>
      <trkpt lat="44.01659" lon="1.84592">
        <ele>202</ele>
        <time>2016-08-27T09:00:38Z</time>
      </trkpt>
      <trkpt lat="44.0166" lon="1.84596">
        <ele>202</ele>
        <time>2016-08-27T09:00:39Z</time>
      </trkpt>
      <trkpt lat="44.01664" lon="1.84597">
        <ele>202.1</ele>
        <time>2016-08-27T09:00:40Z</time>
      </trkpt>
      <trkpt lat="44.0167" lon="1.846">
        <ele>202.2</ele>
        <time>2016-08-27T09:00:41Z</time>
      </trkpt>
      <trkpt lat="44.01674" lon="1.846">
        <ele>202.3</ele>
        <time>2016-08-27T09:00:42Z</time>
      </trkpt>
      <trkpt lat="44.01678" lon="1.84602">
        <ele>202.4</ele>
        <time>2016-08-27T09:00:43Z</time>
      </trkpt>
      <trkpt lat="44.01683" lon="1.84604">
        <ele>202.5</ele>
        <time>2016-08-27T09:00:44Z</time>
      </trkpt>
      <trkpt lat="44.01686" lon="1.84604">
        <ele>202.6</ele>
        <time>2016-08-27T09:00:45Z</time>
      </trkpt>
      <trkpt lat="44.01691" lon="1.84606">
        <ele>202.7</ele>
        <time>2016-08-27T09:00:46Z</time>
      </trkpt>
      <trkpt lat="44.01695" lon="1.84608">
        <ele>202.7</ele>
        <time>2016-08-27T09:00:47Z</time>
      </trkpt>
      <trkpt lat="44.01699" lon="1.84611">
        <ele>202.6</ele>
        <time>2016-08-27T09:00:48Z</time>
      </trkpt>
      <trkpt lat="44.01703" lon="1.84613">
        <ele>202.6</ele>
        <time>2016-08-27T09:00:49Z</time>
      </trkpt>
      <trkpt lat="44.01712" lon="1.84621">
        <ele>202.5</ele>
        <time>2016-08-27T09:00:51Z</time>
      </trkpt>
      <trkpt lat="44.01717" lon="1.84622">
        <ele>202.8</ele>
        <time>2016-08-27T09:00:52Z</time>
      </trkpt>
      <trkpt lat="44.01721" lon="1.84624">
        <ele>202.9</ele>
        <time>2016-08-27T09:00:53Z</time>
      </trkpt>
      <trkpt lat="44.01726" lon="1.84627">
        <ele>203.2</ele>
        <time>2016-08-27T09:00:54Z</time>
      </trkpt>
      <trkpt lat="44.01731" lon="1.84629">
        <ele>203.5</ele>
        <time>2016-08-27T09:00:55Z</time>
      </trkpt>
      <trkpt lat="44.01736" lon="1.84631">
        <ele>203.8</ele>
        <time>2016-08-27T09:00:56Z</time>
      </trkpt>
      <trkpt lat="44.0174" lon="1.84632">
        <ele>204.1</ele>
        <time>2016-08-27T09:00:57Z</time>
      </trkpt>
      <trkpt lat="44.01747" lon="1.84634">
        <ele>204.4</ele>
        <time>2016-08-27T09:00:59Z</time>
      </trkpt>
      <trkpt lat="44.01754" lon="1.84635">
        <ele>204.9</ele>
        <time>2016-08-27T09:01:00Z</time>
      </trkpt>
      <trkpt lat="44.0176" lon="1.84637">
        <ele>205.1</ele>
        <time>2016-08-27T09:01:01Z</time>
      </trkpt>
      <trkpt lat="44.01763" lon="1.84638">
        <ele>205.2</ele>
        <time>2016-08-27T09:01:02Z</time>
      </trkpt>
      <trkpt lat="44.01768" lon="1.84641">
        <ele>205.3</ele>
        <time>2016-08-27T09:01:03Z</time>
      </trkpt>
      <trkpt lat="44.01772" lon="1.84644">
        <ele>205.4</ele>
        <time>2016-08-27T09:01:04Z</time>
      </trkpt>
      <trkpt lat="44.01778" lon="1.84645">
        <ele>205.6</ele>
        <time>2016-08-27T09:01:05Z</time>
      </trkpt>
      <trkpt lat="44.01782" lon="1.84647">
        <ele>205.7</ele>
        <time>2016-08-27T09:01:06Z</time>
      </trkpt>
      <trkpt lat="44.01785" lon="1.84649">
        <ele>205.7</ele>
        <time>2016-08-27T09:01:07Z</time>
      </trkpt>
      <trkpt lat="44.01788" lon="1.8465">
        <ele>205.8</ele>
        <time>2016-08-27T09:01:08Z</time>
      </trkpt>
      <trkpt lat="44.01793" lon="1.84653">
        <ele>205.8</ele>
        <time>2016-08-27T09:01:09Z</time>
      </trkpt>
      <trkpt lat="44.01796" lon="1.84654">
        <ele>206.2</ele>
        <time>2016-08-27T09:01:11Z</time>
      </trkpt>
      <trkpt lat="44.01804" lon="1.84658">
        <ele>206.8</ele>
        <time>2016-08-27T09:01:13Z</time>
      </trkpt>
      <trkpt lat="44.01809" lon="1.84661">
        <ele>207.1</ele>
        <time>2016-08-27T09:01:14Z</time>
      </trkpt>
      <trkpt lat="44.0182" lon="1.84662">
        <ele>208.3</ele>
        <time>2016-08-27T09:01:17Z</time>
      </trkpt>
      <trkpt lat="44.01825" lon="1.84668">
        <ele>208.1</ele>
        <time>2016-08-27T09:01:20Z</time>
      </trkpt>
      <trkpt lat="44.0183" lon="1.84669">
        <ele>208.5</ele>
        <time>2016-08-27T09:01:21Z</time>
      </trkpt>
      <trkpt lat="44.01834" lon="1.84672">
        <ele>208.7</ele>
        <time>2016-08-27T09:01:22Z</time>
      </trkpt>
      <trkpt lat="44.01839" lon="1.84673">
        <ele>209</ele>
        <time>2016-08-27T09:01:24Z</time>
      </trkpt>
      <trkpt lat="44.01843" lon="1.84675">
        <ele>209</ele>
        <time>2016-08-27T09:01:25Z</time>
      </trkpt>
      <trkpt lat="44.01846" lon="1.84677">
        <ele>209</ele>
        <time>2016-08-27T09:01:26Z</time>
      </trkpt>
      <trkpt lat="44.01848" lon="1.84679">
        <ele>209</ele>
        <time>2016-08-27T09:01:27Z</time>
      </trkpt>
      <trkpt lat="44.01851" lon="1.84681">
        <ele>209</ele>
        <time>2016-08-27T09:01:28Z</time>
      </trkpt>
      <trkpt lat="44.01854" lon="1.84682">
        <ele>209.1</ele>
        <time>2016-08-27T09:01:29Z</time>
      </trkpt>
      <trkpt lat="44.01857" lon="1.84683">
        <ele>209.1</ele>
        <time>2016-08-27T09:01:30Z</time>
      </trkpt>
      <trkpt lat="44.01862" lon="1.84685">
        <ele>209.3</ele>
        <time>2016-08-27T09:01:32Z</time>
      </trkpt>
      <trkpt lat="44.01865" lon="1.84687">
        <ele>209.2</ele>
        <time>2016-08-27T09:01:33Z</time>
      </trkpt>
      <trkpt lat="44.01868" lon="1.84688">
        <ele>209.2</ele>
        <time>2016-08-27T09:01:34Z</time>
      </trkpt>
      <trkpt lat="44.01871" lon="1.84691">
        <ele>208.9</ele>
        <time>2016-08-27T09:01:35Z</time>
      </trkpt>
      <trkpt lat="44.01875" lon="1.84692">
        <ele>209.1</ele>
        <time>2016-08-27T09:01:36Z</time>
      </trkpt>
      <trkpt lat="44.01878" lon="1.84693">
        <ele>209.3</ele>
        <time>2016-08-27T09:01:37Z</time>
      </trkpt>
      <trkpt lat="44.01882" lon="1.84693">
        <ele>209.7</ele>
        <time>2016-08-27T09:01:38Z</time>
      </trkpt>
      <trkpt lat="44.01885" lon="1.84694">
        <ele>209.9</ele>
        <time>2016-08-27T09:01:39Z</time>
      </trkpt>
      <trkpt lat="44.01889" lon="1.84696">
        <ele>210</ele>
        <time>2016-08-27T09:01:40Z</time>
      </trkpt>
      <trkpt lat="44.01892" lon="1.84696">
        <ele>210.3</ele>
        <time>2016-08-27T09:01:41Z</time>
      </trkpt>
      <trkpt lat="44.01894" lon="1.84697">
        <ele>210.5</ele>
        <time>2016-08-27T09:01:42Z</time>
      </trkpt>
      <trkpt lat="44.01897" lon="1.84698">
        <ele>210.5</ele>
        <time>2016-08-27T09:01:43Z</time>
      </trkpt>
      <trkpt lat="44.01899" lon="1.847">
        <ele>210.4</ele>
        <time>2016-08-27T09:01:44Z</time>
      </trkpt>
      <trkpt lat="44.01902" lon="1.84703">
        <ele>210.2</ele>
        <time>2016-08-27T09:01:45Z</time>
      </trkpt>
      <trkpt lat="44.01905" lon="1.84706">
        <ele>210.1</ele>
        <time>2016-08-27T09:01:46Z</time>
      </trkpt>
      <trkpt lat="44.01909" lon="1.84708">
        <ele>210.1</ele>
        <time>2016-08-27T09:01:47Z</time>
      </trkpt>
      <trkpt lat="44.01912" lon="1.84709">
        <ele>210.4</ele>
        <time>2016-08-27T09:01:48Z</time>
      </trkpt>
      <trkpt lat="44.01916" lon="1.8471">
        <ele>210.8</ele>
        <time>2016-08-27T09:01:49Z</time>
      </trkpt>
      <trkpt lat="44.01919" lon="1.8471">
        <ele>211.2</ele>
        <time>2016-08-27T09:01:50Z</time>
      </trkpt>
      <trkpt lat="44.01923" lon="1.84712">
        <ele>211.5</ele>
        <time>2016-08-27T09:01:51Z</time>
      </trkpt>
      <trkpt lat="44.01927" lon="1.84713">
        <ele>211.8</ele>
        <time>2016-08-27T09:01:52Z</time>
      </trkpt>
      <trkpt lat="44.0193" lon="1.84714">
        <ele>212.2</ele>
        <time>2016-08-27T09:01:53Z</time>
      </trkpt>
      <trkpt lat="44.01934" lon="1.84714">
        <ele>212.6</ele>
        <time>2016-08-27T09:01:54Z</time>
      </trkpt>
      <trkpt lat="44.01937" lon="1.84715">
        <ele>212.9</ele>
        <time>2016-08-27T09:01:55Z</time>
      </trkpt>
      <trkpt lat="44.0194" lon="1.84715">
        <ele>213.2</ele>
        <time>2016-08-27T09:01:56Z</time>
      </trkpt>
      <trkpt lat="44.01943" lon="1.84715">
        <ele>213.6</ele>
        <time>2016-08-27T09:01:57Z</time>
      </trkpt>
      <trkpt lat="44.01946" lon="1.84714">
        <ele>214</ele>
        <time>2016-08-27T09:01:58Z</time>
      </trkpt>
      <trkpt lat="44.01949" lon="1.84715">
        <ele>214.2</ele>
        <time>2016-08-27T09:01:59Z</time>
      </trkpt>
      <trkpt lat="44.01952" lon="1.84716">
        <ele>214.4</ele>
        <time>2016-08-27T09:02:00Z</time>
      </trkpt>
      <trkpt lat="44.01957" lon="1.84718">
        <ele>214.8</ele>
        <time>2016-08-27T09:02:02Z</time>
      </trkpt>
      <trkpt lat="44.0196" lon="1.84718">
        <ele>215</ele>
        <time>2016-08-27T09:02:03Z</time>
      </trkpt>
      <trkpt lat="44.01963" lon="1.84717">
        <ele>215.2</ele>
        <time>2016-08-27T09:02:04Z</time>
      </trkpt>
      <trkpt lat="44.01966" lon="1.84717">
        <ele>215.4</ele>
        <time>2016-08-27T09:02:05Z</time>
      </trkpt>
      <trkpt lat="44.01969" lon="1.84717">
        <ele>215.5</ele>
        <time>2016-08-27T09:02:06Z</time>
      </trkpt>
      <trkpt lat="44.01972" lon="1.84716">
        <ele>215.6</ele>
        <time>2016-08-27T09:02:07Z</time>
      </trkpt>
      <trkpt lat="44.01976" lon="1.84716">
        <ele>215.8</ele>
        <time>2016-08-27T09:02:08Z</time>
      </trkpt>
      <trkpt lat="44.0198" lon="1.84716">
        <ele>216</ele>
        <time>2016-08-27T09:02:09Z</time>
      </trkpt>
      <trkpt lat="44.01984" lon="1.84715">
        <ele>216.2</ele>
        <time>2016-08-27T09:02:10Z</time>
      </trkpt>
      <trkpt lat="44.01987" lon="1.84714">
        <ele>216.4</ele>
        <time>2016-08-27T09:02:11Z</time>
      </trkpt>
      <trkpt lat="44.01991" lon="1.84713">
        <ele>216.6</ele>
        <time>2016-08-27T09:02:12Z</time>
      </trkpt>
      <trkpt lat="44.01995" lon="1.84713">
        <ele>216.9</ele>
        <time>2016-08-27T09:02:13Z</time>
      </trkpt>
      <trkpt lat="44.01999" lon="1.84712">
        <ele>217.1</ele>
        <time>2016-08-27T09:02:14Z</time>
      </trkpt>
      <trkpt lat="44.02002" lon="1.84711">
        <ele>217.3</ele>
        <time>2016-08-27T09:02:15Z</time>
      </trkpt>
      <trkpt lat="44.02006" lon="1.8471">
        <ele>217.5</ele>
        <time>2016-08-27T09:02:16Z</time>
      </trkpt>
      <trkpt lat="44.0201" lon="1.84709">
        <ele>217.8</ele>
        <time>2016-08-27T09:02:17Z</time>
      </trkpt>
      <trkpt lat="44.02014" lon="1.84709">
        <ele>218</ele>
        <time>2016-08-27T09:02:18Z</time>
      </trkpt>
      <trkpt lat="44.02018" lon="1.84709">
        <ele>218.1</ele>
        <time>2016-08-27T09:02:19Z</time>
      </trkpt>
      <trkpt lat="44.02022" lon="1.84709">
        <ele>218.2</ele>
        <time>2016-08-27T09:02:20Z</time>
      </trkpt>
      <trkpt lat="44.02031" lon="1.84711">
        <ele>218.3</ele>
        <time>2016-08-27T09:02:21Z</time>
      </trkpt>
      <trkpt lat="44.02035" lon="1.84709">
        <ele>218.7</ele>
        <time>2016-08-27T09:02:23Z</time>
      </trkpt>
      <trkpt lat="44.02039" lon="1.84708">
        <ele>218.9</ele>
        <time>2016-08-27T09:02:24Z</time>
      </trkpt>
      <trkpt lat="44.02041" lon="1.84705">
        <ele>219.5</ele>
        <time>2016-08-27T09:02:25Z</time>
      </trkpt>
      <trkpt lat="44.02045" lon="1.84704">
        <ele>219.8</ele>
        <time>2016-08-27T09:02:26Z</time>
      </trkpt>
      <trkpt lat="44.02049" lon="1.84702">
        <ele>220.1</ele>
        <time>2016-08-27T09:02:27Z</time>
      </trkpt>
      <trkpt lat="44.02051" lon="1.847">
        <ele>220.5</ele>
        <time>2016-08-27T09:02:28Z</time>
      </trkpt>
      <trkpt lat="44.02055" lon="1.84696">
        <ele>221.1</ele>
        <time>2016-08-27T09:02:30Z</time>
      </trkpt>
      <trkpt lat="44.02058" lon="1.84695">
        <ele>221.3</ele>
        <time>2016-08-27T09:02:31Z</time>
      </trkpt>
      <trkpt lat="44.02062" lon="1.84693">
        <ele>221.6</ele>
        <time>2016-08-27T09:02:32Z</time>
      </trkpt>
      <trkpt lat="44.02065" lon="1.84691">
        <ele>222</ele>
        <time>2016-08-27T09:02:33Z</time>
      </trkpt>
      <trkpt lat="44.02068" lon="1.84689">
        <ele>222.3</ele>
        <time>2016-08-27T09:02:34Z</time>
      </trkpt>
      <trkpt lat="44.02072" lon="1.84688">
        <ele>222.6</ele>
        <time>2016-08-27T09:02:35Z</time>
      </trkpt>
      <trkpt lat="44.02075" lon="1.84687">
        <ele>222.7</ele>
        <time>2016-08-27T09:02:36Z</time>
      </trkpt>
      <trkpt lat="44.02079" lon="1.84684">
        <ele>223.2</ele>
        <time>2016-08-27T09:02:38Z</time>
      </trkpt>
      <trkpt lat="44.0208" lon="1.84681">
        <ele>223.6</ele>
        <time>2016-08-27T09:02:39Z</time>
      </trkpt>
      <trkpt lat="44.02082" lon="1.84677">
        <ele>224.1</ele>
        <time>2016-08-27T09:02:40Z</time>
      </trkpt>
      <trkpt lat="44.02083" lon="1.84674">
        <ele>224.6</ele>
        <time>2016-08-27T09:02:41Z</time>
      </trkpt>
      <trkpt lat="44.02085" lon="1.8467">
        <ele>225</ele>
        <time>2016-08-27T09:02:42Z</time>
      </trkpt>
      <trkpt lat="44.02087" lon="1.84667">
        <ele>225.4</ele>
        <time>2016-08-27T09:02:43Z</time>
      </trkpt>
      <trkpt lat="44.0209" lon="1.84665">
        <ele>225.7</ele>
        <time>2016-08-27T09:02:44Z</time>
      </trkpt>
      <trkpt lat="44.02092" lon="1.84663">
        <ele>226</ele>
        <time>2016-08-27T09:02:45Z</time>
      </trkpt>
      <trkpt lat="44.02095" lon="1.84661">
        <ele>226.3</ele>
        <time>2016-08-27T09:02:46Z</time>
      </trkpt>
      <trkpt lat="44.02097" lon="1.84659">
        <ele>226.5</ele>
        <time>2016-08-27T09:02:47Z</time>
      </trkpt>
      <trkpt lat="44.021" lon="1.84657">
        <ele>226.7</ele>
        <time>2016-08-27T09:02:48Z</time>
      </trkpt>
      <trkpt lat="44.02103" lon="1.84654">
        <ele>227</ele>
        <time>2016-08-27T09:02:49Z</time>
      </trkpt>
      <trkpt lat="44.02106" lon="1.84652">
        <ele>227.2</ele>
        <time>2016-08-27T09:02:50Z</time>
      </trkpt>
      <trkpt lat="44.02108" lon="1.8465">
        <ele>227.5</ele>
        <time>2016-08-27T09:02:51Z</time>
      </trkpt>
      <trkpt lat="44.02111" lon="1.84647">
        <ele>227.7</ele>
        <time>2016-08-27T09:02:52Z</time>
      </trkpt>
      <trkpt lat="44.02115" lon="1.84644">
        <ele>228.1</ele>
        <time>2016-08-27T09:02:53Z</time>
      </trkpt>
      <trkpt lat="44.02118" lon="1.84641">
        <ele>228.4</ele>
        <time>2016-08-27T09:02:54Z</time>
      </trkpt>
      <trkpt lat="44.02122" lon="1.84638">
        <ele>228.6</ele>
        <time>2016-08-27T09:02:55Z</time>
      </trkpt>
      <trkpt lat="44.02125" lon="1.84635">
        <ele>228.8</ele>
        <time>2016-08-27T09:02:56Z</time>
      </trkpt>
      <trkpt lat="44.0213" lon="1.84632">
        <ele>228.7</ele>
        <time>2016-08-27T09:02:57Z</time>
      </trkpt>
      <trkpt lat="44.02134" lon="1.84629">
        <ele>228.6</ele>
        <time>2016-08-27T09:02:58Z</time>
      </trkpt>
      <trkpt lat="44.02138" lon="1.84626">
        <ele>228.5</ele>
        <time>2016-08-27T09:02:59Z</time>
      </trkpt>
      <trkpt lat="44.02142" lon="1.84623">
        <ele>228.4</ele>
        <time>2016-08-27T09:03:00Z</time>
      </trkpt>
      <trkpt lat="44.02145" lon="1.84619">
        <ele>228.3</ele>
        <time>2016-08-27T09:03:01Z</time>
      </trkpt>
      <trkpt lat="44.02147" lon="1.84615">
        <ele>228.3</ele>
        <time>2016-08-27T09:03:02Z</time>
      </trkpt>
      <trkpt lat="44.0215" lon="1.84611">
        <ele>228.3</ele>
        <time>2016-08-27T09:03:03Z</time>
      </trkpt>
      <trkpt lat="44.02154" lon="1.84608">
        <ele>228.2</ele>
        <time>2016-08-27T09:03:04Z</time>
      </trkpt>
      <trkpt lat="44.0216" lon="1.84602">
        <ele>227.9</ele>
        <time>2016-08-27T09:03:05Z</time>
      </trkpt>
      <trkpt lat="44.02162" lon="1.84598">
        <ele>228</ele>
        <time>2016-08-27T09:03:06Z</time>
      </trkpt>
      <trkpt lat="44.02164" lon="1.84594">
        <ele>228.1</ele>
        <time>2016-08-27T09:03:07Z</time>
      </trkpt>
      <trkpt lat="44.02167" lon="1.84594">
        <ele>227.7</ele>
        <time>2016-08-27T09:03:08Z</time>
      </trkpt>
      <trkpt lat="44.02169" lon="1.84592">
        <ele>227.6</ele>
        <time>2016-08-27T09:03:09Z</time>
      </trkpt>
      <trkpt lat="44.02172" lon="1.8459">
        <ele>227.4</ele>
        <time>2016-08-27T09:03:10Z</time>
      </trkpt>
      <trkpt lat="44.02176" lon="1.84589">
        <ele>227</ele>
        <time>2016-08-27T09:03:11Z</time>
      </trkpt>
      <trkpt lat="44.02181" lon="1.84586">
        <ele>226.6</ele>
        <time>2016-08-27T09:03:12Z</time>
      </trkpt>
      <trkpt lat="44.02184" lon="1.84583">
        <ele>226.5</ele>
        <time>2016-08-27T09:03:13Z</time>
      </trkpt>
      <trkpt lat="44.02187" lon="1.8458">
        <ele>226.3</ele>
        <time>2016-08-27T09:03:14Z</time>
      </trkpt>
      <trkpt lat="44.02189" lon="1.84577">
        <ele>226.3</ele>
        <time>2016-08-27T09:03:15Z</time>
      </trkpt>
      <trkpt lat="44.02193" lon="1.84574">
        <ele>226</ele>
        <time>2016-08-27T09:03:16Z</time>
      </trkpt>
      <trkpt lat="44.02197" lon="1.8457">
        <ele>225.7</ele>
        <time>2016-08-27T09:03:17Z</time>
      </trkpt>
      <trkpt lat="44.02203" lon="1.84566">
        <ele>225.3</ele>
        <time>2016-08-27T09:03:18Z</time>
      </trkpt>
      <trkpt lat="44.02207" lon="1.84563">
        <ele>224.9</ele>
        <time>2016-08-27T09:03:19Z</time>
      </trkpt>
      <trkpt lat="44.0221" lon="1.84559">
        <ele>224.9</ele>
        <time>2016-08-27T09:03:20Z</time>
      </trkpt>
      <trkpt lat="44.02214" lon="1.84555">
        <ele>224.9</ele>
        <time>2016-08-27T09:03:21Z</time>
      </trkpt>
      <trkpt lat="44.02218" lon="1.8455">
        <ele>225</ele>
        <time>2016-08-27T09:03:22Z</time>
      </trkpt>
      <trkpt lat="44.0222" lon="1.84546">
        <ele>225.2</ele>
        <time>2016-08-27T09:03:23Z</time>
      </trkpt>
      <trkpt lat="44.02223" lon="1.84542">
        <ele>225.3</ele>
        <time>2016-08-27T09:03:24Z</time>
      </trkpt>
      <trkpt lat="44.02227" lon="1.84538">
        <ele>225.4</ele>
        <time>2016-08-27T09:03:25Z</time>
      </trkpt>
      <trkpt lat="44.0223" lon="1.84534">
        <ele>225.5</ele>
        <time>2016-08-27T09:03:26Z</time>
      </trkpt>
      <trkpt lat="44.02232" lon="1.84531">
        <ele>225.7</ele>
        <time>2016-08-27T09:03:27Z</time>
      </trkpt>
      <trkpt lat="44.02235" lon="1.84526">
        <ele>225.9</ele>
        <time>2016-08-27T09:03:28Z</time>
      </trkpt>
      <trkpt lat="44.02239" lon="1.84523">
        <ele>226</ele>
        <time>2016-08-27T09:03:29Z</time>
      </trkpt>
      <trkpt lat="44.02244" lon="1.84519">
        <ele>226</ele>
        <time>2016-08-27T09:03:30Z</time>
      </trkpt>
      <trkpt lat="44.02248" lon="1.84514">
        <ele>226.1</ele>
        <time>2016-08-27T09:03:31Z</time>
      </trkpt>
      <trkpt lat="44.02253" lon="1.84511">
        <ele>226</ele>
        <time>2016-08-27T09:03:32Z</time>
      </trkpt>
      <trkpt lat="44.02256" lon="1.84507">
        <ele>226.1</ele>
        <time>2016-08-27T09:03:33Z</time>
      </trkpt>
      <trkpt lat="44.02259" lon="1.84504">
        <ele>226.2</ele>
        <time>2016-08-27T09:03:34Z</time>
      </trkpt>
      <trkpt lat="44.02264" lon="1.845">
        <ele>226.2</ele>
        <time>2016-08-27T09:03:35Z</time>
      </trkpt>
      <trkpt lat="44.02268" lon="1.84496">
        <ele>226.1</ele>
        <time>2016-08-27T09:03:36Z</time>
      </trkpt>
      <trkpt lat="44.02273" lon="1.84493">
        <ele>226.1</ele>
        <time>2016-08-27T09:03:37Z</time>
      </trkpt>
      <trkpt lat="44.02279" lon="1.84489">
        <ele>226</ele>
        <time>2016-08-27T09:03:38Z</time>
      </trkpt>
      <trkpt lat="44.02286" lon="1.84486">
        <ele>225.7</ele>
        <time>2016-08-27T09:03:39Z</time>
      </trkpt>
      <trkpt lat="44.02292" lon="1.84481">
        <ele>225.6</ele>
        <time>2016-08-27T09:03:40Z</time>
      </trkpt>
      <trkpt lat="44.02295" lon="1.84477">
        <ele>225.6</ele>
        <time>2016-08-27T09:03:41Z</time>
      </trkpt>
      <trkpt lat="44.02301" lon="1.84474">
        <ele>225.3</ele>
        <time>2016-08-27T09:03:42Z</time>
      </trkpt>
      <trkpt lat="44.02306" lon="1.8447">
        <ele>225.1</ele>
        <time>2016-08-27T09:03:43Z</time>
      </trkpt>
      <trkpt lat="44.02312" lon="1.84465">
        <ele>225</ele>
        <time>2016-08-27T09:03:44Z</time>
      </trkpt>
      <trkpt lat="44.02317" lon="1.8446">
        <ele>224.8</ele>
        <time>2016-08-27T09:03:45Z</time>
      </trkpt>
      <trkpt lat="44.02323" lon="1.84456">
        <ele>224.5</ele>
        <time>2016-08-27T09:03:46Z</time>
      </trkpt>
      <trkpt lat="44.02329" lon="1.84451">
        <ele>224.2</ele>
        <time>2016-08-27T09:03:47Z</time>
      </trkpt>
      <trkpt lat="44.02334" lon="1.84448">
        <ele>223.9</ele>
        <time>2016-08-27T09:03:48Z</time>
      </trkpt>
      <trkpt lat="44.02337" lon="1.84444">
        <ele>223.9</ele>
        <time>2016-08-27T09:03:49Z</time>
      </trkpt>
      <trkpt lat="44.02346" lon="1.8444">
        <ele>223.3</ele>
        <time>2016-08-27T09:03:50Z</time>
      </trkpt>
      <trkpt lat="44.02353" lon="1.84435">
        <ele>222.9</ele>
        <time>2016-08-27T09:03:51Z</time>
      </trkpt>
      <trkpt lat="44.02358" lon="1.84432">
        <ele>222.5</ele>
        <time>2016-08-27T09:03:52Z</time>
      </trkpt>
      <trkpt lat="44.02365" lon="1.84429">
        <ele>222</ele>
        <time>2016-08-27T09:03:53Z</time>
      </trkpt>
      <trkpt lat="44.02371" lon="1.84426">
        <ele>221.5</ele>
        <time>2016-08-27T09:03:54Z</time>
      </trkpt>
      <trkpt lat="44.02376" lon="1.84424">
        <ele>221.2</ele>
        <time>2016-08-27T09:03:55Z</time>
      </trkpt>
      <trkpt lat="44.02382" lon="1.84422">
        <ele>221</ele>
        <time>2016-08-27T09:03:56Z</time>
      </trkpt>
      <trkpt lat="44.02386" lon="1.84422">
        <ele>220.8</ele>
        <time>2016-08-27T09:03:57Z</time>
      </trkpt>
      <trkpt lat="44.02406" lon="1.84427">
        <ele>219.6</ele>
        <time>2016-08-27T09:04:00Z</time>
      </trkpt>
      <trkpt lat="44.02412" lon="1.8443">
        <ele>219.2</ele>
        <time>2016-08-27T09:04:01Z</time>
      </trkpt>
      <trkpt lat="44.02417" lon="1.84435">
        <ele>218.8</ele>
        <time>2016-08-27T09:04:02Z</time>
      </trkpt>
      <trkpt lat="44.0242" lon="1.84441">
        <ele>218.5</ele>
        <time>2016-08-27T09:04:03Z</time>
      </trkpt>
      <trkpt lat="44.02427" lon="1.84444">
        <ele>218</ele>
        <time>2016-08-27T09:04:04Z</time>
      </trkpt>
      <trkpt lat="44.02431" lon="1.8445">
        <ele>217.6</ele>
        <time>2016-08-27T09:04:05Z</time>
      </trkpt>
      <trkpt lat="44.02436" lon="1.84455">
        <ele>217.2</ele>
        <time>2016-08-27T09:04:06Z</time>
      </trkpt>
      <trkpt lat="44.02438" lon="1.84462">
        <ele>217</ele>
        <time>2016-08-27T09:04:07Z</time>
      </trkpt>
      <trkpt lat="44.02441" lon="1.8447">
        <ele>216.9</ele>
        <time>2016-08-27T09:04:08Z</time>
      </trkpt>
      <trkpt lat="44.02443" lon="1.84478">
        <ele>216.8</ele>
        <time>2016-08-27T09:04:09Z</time>
      </trkpt>
      <trkpt lat="44.02444" lon="1.84486">
        <ele>216.8</ele>
        <time>2016-08-27T09:04:10Z</time>
      </trkpt>
      <trkpt lat="44.02447" lon="1.84492">
        <ele>216.8</ele>
        <time>2016-08-27T09:04:11Z</time>
      </trkpt>
      <trkpt lat="44.0245" lon="1.84499">
        <ele>216.7</ele>
        <time>2016-08-27T09:04:12Z</time>
      </trkpt>
      <trkpt lat="44.02452" lon="1.84505">
        <ele>216.7</ele>
        <time>2016-08-27T09:04:13Z</time>
      </trkpt>
      <trkpt lat="44.02453" lon="1.84509">
        <ele>216.8</ele>
        <time>2016-08-27T09:04:14Z</time>
      </trkpt>
      <trkpt lat="44.02452" lon="1.84515">
        <ele>216.8</ele>
        <time>2016-08-27T09:04:15Z</time>
      </trkpt>
      <trkpt lat="44.02452" lon="1.8452">
        <ele>216.9</ele>
        <time>2016-08-27T09:04:16Z</time>
      </trkpt>
      <trkpt lat="44.0245" lon="1.84525">
        <ele>217</ele>
        <time>2016-08-27T09:04:17Z</time>
      </trkpt>
      <trkpt lat="44.02449" lon="1.84529">
        <ele>217</ele>
        <time>2016-08-27T09:04:18Z</time>
      </trkpt>
      <trkpt lat="44.02448" lon="1.84537">
        <ele>217.1</ele>
        <time>2016-08-27T09:04:19Z</time>
      </trkpt>
      <trkpt lat="44.02447" lon="1.84544">
        <ele>217.2</ele>
        <time>2016-08-27T09:04:20Z</time>
      </trkpt>
      <trkpt lat="44.02446" lon="1.84549">
        <ele>217.3</ele>
        <time>2016-08-27T09:04:21Z</time>
      </trkpt>
      <trkpt lat="44.02445" lon="1.84555">
        <ele>217.4</ele>
        <time>2016-08-27T09:04:22Z</time>
      </trkpt>
      <trkpt lat="44.02442" lon="1.84559">
        <ele>217.4</ele>
        <time>2016-08-27T09:04:23Z</time>
      </trkpt>
      <trkpt lat="44.02441" lon="1.84564">
        <ele>217.5</ele>
        <time>2016-08-27T09:04:24Z</time>
      </trkpt>
      <trkpt lat="44.0244" lon="1.84569">
        <ele>217.5</ele>
        <time>2016-08-27T09:04:25Z</time>
      </trkpt>
      <trkpt lat="44.02438" lon="1.84574">
        <ele>217.6</ele>
        <time>2016-08-27T09:04:26Z</time>
      </trkpt>
      <trkpt lat="44.02437" lon="1.84578">
        <ele>217.6</ele>
        <time>2016-08-27T09:04:27Z</time>
      </trkpt>
      <trkpt lat="44.02436" lon="1.84582">
        <ele>217.6</ele>
        <time>2016-08-27T09:04:28Z</time>
      </trkpt>
      <trkpt lat="44.02434" lon="1.84586">
        <ele>217.6</ele>
        <time>2016-08-27T09:04:29Z</time>
      </trkpt>
      <trkpt lat="44.02434" lon="1.8459">
        <ele>217.6</ele>
        <time>2016-08-27T09:04:30Z</time>
      </trkpt>
      <trkpt lat="44.02433" lon="1.84595">
        <ele>217.6</ele>
        <time>2016-08-27T09:04:31Z</time>
      </trkpt>
      <trkpt lat="44.02433" lon="1.846">
        <ele>217.6</ele>
        <time>2016-08-27T09:04:32Z</time>
      </trkpt>
      <trkpt lat="44.02432" lon="1.84605">
        <ele>217.6</ele>
        <time>2016-08-27T09:04:33Z</time>
      </trkpt>
      <trkpt lat="44.02432" lon="1.84609">
        <ele>217.6</ele>
        <time>2016-08-27T09:04:34Z</time>
      </trkpt>
      <trkpt lat="44.02431" lon="1.84614">
        <ele>217.6</ele>
        <time>2016-08-27T09:04:35Z</time>
      </trkpt>
      <trkpt lat="44.0243" lon="1.84618">
        <ele>217.6</ele>
        <time>2016-08-27T09:04:36Z</time>
      </trkpt>
      <trkpt lat="44.02429" lon="1.84623">
        <ele>217.6</ele>
        <time>2016-08-27T09:04:37Z</time>
      </trkpt>
      <trkpt lat="44.02428" lon="1.84627">
        <ele>217.6</ele>
        <time>2016-08-27T09:04:38Z</time>
      </trkpt>
      <trkpt lat="44.02428" lon="1.84631">
        <ele>217.7</ele>
        <time>2016-08-27T09:04:39Z</time>
      </trkpt>
      <trkpt lat="44.02428" lon="1.84639">
        <ele>217.9</ele>
        <time>2016-08-27T09:04:41Z</time>
      </trkpt>
      <trkpt lat="44.02427" lon="1.84642">
        <ele>217.9</ele>
        <time>2016-08-27T09:04:42Z</time>
      </trkpt>
      <trkpt lat="44.02427" lon="1.84646">
        <ele>218</ele>
        <time>2016-08-27T09:04:43Z</time>
      </trkpt>
      <trkpt lat="44.02426" lon="1.8465">
        <ele>218.1</ele>
        <time>2016-08-27T09:04:44Z</time>
      </trkpt>
      <trkpt lat="44.02425" lon="1.84654">
        <ele>218.1</ele>
        <time>2016-08-27T09:04:45Z</time>
      </trkpt>
      <trkpt lat="44.02424" lon="1.84659">
        <ele>218.1</ele>
        <time>2016-08-27T09:04:46Z</time>
      </trkpt>
      <trkpt lat="44.02423" lon="1.84663">
        <ele>218.2</ele>
        <time>2016-08-27T09:04:47Z</time>
      </trkpt>
      <trkpt lat="44.02422" lon="1.84668">
        <ele>218.2</ele>
        <time>2016-08-27T09:04:48Z</time>
      </trkpt>
      <trkpt lat="44.02421" lon="1.84672">
        <ele>218.2</ele>
        <time>2016-08-27T09:04:49Z</time>
      </trkpt>
      <trkpt lat="44.02421" lon="1.84676">
        <ele>218.3</ele>
        <time>2016-08-27T09:04:50Z</time>
      </trkpt>
      <trkpt lat="44.0242" lon="1.84681">
        <ele>218.3</ele>
        <time>2016-08-27T09:04:51Z</time>
      </trkpt>
      <trkpt lat="44.02419" lon="1.84685">
        <ele>218.3</ele>
        <time>2016-08-27T09:04:52Z</time>
      </trkpt>
      <trkpt lat="44.02418" lon="1.84689">
        <ele>218.3</ele>
        <time>2016-08-27T09:04:53Z</time>
      </trkpt>
      <trkpt lat="44.02418" lon="1.84693">
        <ele>218.3</ele>
        <time>2016-08-27T09:04:54Z</time>
      </trkpt>
      <trkpt lat="44.02417" lon="1.84698">
        <ele>218.4</ele>
        <time>2016-08-27T09:04:55Z</time>
      </trkpt>
      <trkpt lat="44.02417" lon="1.84702">
        <ele>218.4</ele>
        <time>2016-08-27T09:04:56Z</time>
      </trkpt>
      <trkpt lat="44.02416" lon="1.84706">
        <ele>218.4</ele>
        <time>2016-08-27T09:04:57Z</time>
      </trkpt>
      <trkpt lat="44.02416" lon="1.84711">
        <ele>218.4</ele>
        <time>2016-08-27T09:04:58Z</time>
      </trkpt>
      <trkpt lat="44.02415" lon="1.84715">
        <ele>218.4</ele>
        <time>2016-08-27T09:04:59Z</time>
      </trkpt>
      <trkpt lat="44.02415" lon="1.84719">
        <ele>218.5</ele>
        <time>2016-08-27T09:05:00Z</time>
      </trkpt>
      <trkpt lat="44.02414" lon="1.84724">
        <ele>218.5</ele>
        <time>2016-08-27T09:05:01Z</time>
      </trkpt>
      <trkpt lat="44.02414" lon="1.84728">
        <ele>218.6</ele>
        <time>2016-08-27T09:05:02Z</time>
      </trkpt>
      <trkpt lat="44.02414" lon="1.84732">
        <ele>218.6</ele>
        <time>2016-08-27T09:05:03Z</time>
      </trkpt>
      <trkpt lat="44.02414" lon="1.84736">
        <ele>218.7</ele>
        <time>2016-08-27T09:05:04Z</time>
      </trkpt>
      <trkpt lat="44.02414" lon="1.84741">
        <ele>218.8</ele>
        <time>2016-08-27T09:05:05Z</time>
      </trkpt>
      <trkpt lat="44.02415" lon="1.84745">
        <ele>218.9</ele>
        <time>2016-08-27T09:05:06Z</time>
      </trkpt>
      <trkpt lat="44.02415" lon="1.84748">
        <ele>219</ele>
        <time>2016-08-27T09:05:07Z</time>
      </trkpt>
      <trkpt lat="44.02416" lon="1.84752">
        <ele>219.2</ele>
        <time>2016-08-27T09:05:08Z</time>
      </trkpt>
      <trkpt lat="44.02417" lon="1.84756">
        <ele>219.4</ele>
        <time>2016-08-27T09:05:09Z</time>
      </trkpt>
      <trkpt lat="44.02418" lon="1.84759">
        <ele>219.6</ele>
        <time>2016-08-27T09:05:10Z</time>
      </trkpt>
      <trkpt lat="44.0242" lon="1.84766">
        <ele>220</ele>
        <time>2016-08-27T09:05:12Z</time>
      </trkpt>
      <trkpt lat="44.02422" lon="1.84772">
        <ele>220.3</ele>
        <time>2016-08-27T09:05:14Z</time>
      </trkpt>
      <trkpt lat="44.02422" lon="1.84776">
        <ele>220.5</ele>
        <time>2016-08-27T09:05:15Z</time>
      </trkpt>
      <trkpt lat="44.02423" lon="1.8478">
        <ele>220.7</ele>
        <time>2016-08-27T09:05:16Z</time>
      </trkpt>
      <trkpt lat="44.02424" lon="1.84784">
        <ele>220.8</ele>
        <time>2016-08-27T09:05:17Z</time>
      </trkpt>
      <trkpt lat="44.02424" lon="1.84788">
        <ele>221</ele>
        <time>2016-08-27T09:05:18Z</time>
      </trkpt>
      <trkpt lat="44.02426" lon="1.84791">
        <ele>221.3</ele>
        <time>2016-08-27T09:05:19Z</time>
      </trkpt>
      <trkpt lat="44.02428" lon="1.84794">
        <ele>221.6</ele>
        <time>2016-08-27T09:05:20Z</time>
      </trkpt>
      <trkpt lat="44.02429" lon="1.84797">
        <ele>221.8</ele>
        <time>2016-08-27T09:05:21Z</time>
      </trkpt>
      <trkpt lat="44.02432" lon="1.84802">
        <ele>222.2</ele>
        <time>2016-08-27T09:05:23Z</time>
      </trkpt>
      <trkpt lat="44.02435" lon="1.84806">
        <ele>222.7</ele>
        <time>2016-08-27T09:05:25Z</time>
      </trkpt>
      <trkpt lat="44.02439" lon="1.84809">
        <ele>223.2</ele>
        <time>2016-08-27T09:05:28Z</time>
      </trkpt>
      <trkpt lat="44.02441" lon="1.84805">
        <ele>223.5</ele>
        <time>2016-08-27T09:05:30Z</time>
      </trkpt>
      <trkpt lat="44.02445" lon="1.84806">
        <ele>224.1</ele>
        <time>2016-08-27T09:05:32Z</time>
      </trkpt>
      <trkpt lat="44.0245" lon="1.84809">
        <ele>224.8</ele>
        <time>2016-08-27T09:05:34Z</time>
      </trkpt>
      <trkpt lat="44.02454" lon="1.84813">
        <ele>225.4</ele>
        <time>2016-08-27T09:05:36Z</time>
      </trkpt>
      <trkpt lat="44.0246" lon="1.84814">
        <ele>226.2</ele>
        <time>2016-08-27T09:05:38Z</time>
      </trkpt>
      <trkpt lat="44.02463" lon="1.84815">
        <ele>226.8</ele>
        <time>2016-08-27T09:05:39Z</time>
      </trkpt>
      <trkpt lat="44.02467" lon="1.84816">
        <ele>227.5</ele>
        <time>2016-08-27T09:05:40Z</time>
      </trkpt>
      <trkpt lat="44.02471" lon="1.84816">
        <ele>228</ele>
        <time>2016-08-27T09:05:41Z</time>
      </trkpt>
      <trkpt lat="44.02474" lon="1.84817">
        <ele>228.5</ele>
        <time>2016-08-27T09:05:42Z</time>
      </trkpt>
      <trkpt lat="44.02477" lon="1.84819">
        <ele>229</ele>
        <time>2016-08-27T09:05:43Z</time>
      </trkpt>
      <trkpt lat="44.0248" lon="1.8482">
        <ele>229.4</ele>
        <time>2016-08-27T09:05:44Z</time>
      </trkpt>
      <trkpt lat="44.02483" lon="1.84821">
        <ele>229.9</ele>
        <time>2016-08-27T09:05:45Z</time>
      </trkpt>
      <trkpt lat="44.02486" lon="1.84821">
        <ele>230.4</ele>
        <time>2016-08-27T09:05:46Z</time>
      </trkpt>
      <trkpt lat="44.02489" lon="1.84822">
        <ele>230.8</ele>
        <time>2016-08-27T09:05:47Z</time>
      </trkpt>
      <trkpt lat="44.02491" lon="1.84824">
        <ele>231.2</ele>
        <time>2016-08-27T09:05:48Z</time>
      </trkpt>
      <trkpt lat="44.02494" lon="1.84826">
        <ele>231.6</ele>
        <time>2016-08-27T09:05:49Z</time>
      </trkpt>
      <trkpt lat="44.02498" lon="1.84828">
        <ele>232</ele>
        <time>2016-08-27T09:05:50Z</time>
      </trkpt>
      <trkpt lat="44.02501" lon="1.84829">
        <ele>232.5</ele>
        <time>2016-08-27T09:05:51Z</time>
      </trkpt>
      <trkpt lat="44.02505" lon="1.8483">
        <ele>233.1</ele>
        <time>2016-08-27T09:05:52Z</time>
      </trkpt>
      <trkpt lat="44.02508" lon="1.84831">
        <ele>233.6</ele>
        <time>2016-08-27T09:05:53Z</time>
      </trkpt>
      <trkpt lat="44.02511" lon="1.84832">
        <ele>234</ele>
        <time>2016-08-27T09:05:54Z</time>
      </trkpt>
      <trkpt lat="44.02515" lon="1.84833">
        <ele>234.4</ele>
        <time>2016-08-27T09:05:55Z</time>
      </trkpt>
      <trkpt lat="44.02518" lon="1.84835">
        <ele>234.8</ele>
        <time>2016-08-27T09:05:56Z</time>
      </trkpt>
      <trkpt lat="44.0252" lon="1.84837">
        <ele>235.1</ele>
        <time>2016-08-27T09:05:57Z</time>
      </trkpt>
      <trkpt lat="44.02523" lon="1.84838">
        <ele>235.5</ele>
        <time>2016-08-27T09:05:58Z</time>
      </trkpt>
      <trkpt lat="44.02526" lon="1.84839">
        <ele>235.8</ele>
        <time>2016-08-27T09:05:59Z</time>
      </trkpt>
      <trkpt lat="44.02528" lon="1.8484">
        <ele>236.1</ele>
        <time>2016-08-27T09:06:00Z</time>
      </trkpt>
      <trkpt lat="44.02531" lon="1.84841">
        <ele>236.5</ele>
        <time>2016-08-27T09:06:01Z</time>
      </trkpt>
      <trkpt lat="44.02534" lon="1.84841">
        <ele>236.9</ele>
        <time>2016-08-27T09:06:02Z</time>
      </trkpt>
      <trkpt lat="44.02539" lon="1.84842">
        <ele>237.6</ele>
        <time>2016-08-27T09:06:04Z</time>
      </trkpt>
      <trkpt lat="44.02544" lon="1.84843">
        <ele>238.2</ele>
        <time>2016-08-27T09:06:06Z</time>
      </trkpt>
      <trkpt lat="44.02549" lon="1.84843">
        <ele>238.5</ele>
        <time>2016-08-27T09:06:08Z</time>
      </trkpt>
      <trkpt lat="44.02553" lon="1.84846">
        <ele>238.7</ele>
        <time>2016-08-27T09:06:10Z</time>
      </trkpt>
      <trkpt lat="44.02556" lon="1.84848">
        <ele>238.9</ele>
        <time>2016-08-27T09:06:12Z</time>
      </trkpt>
      <trkpt lat="44.0256" lon="1.84849">
        <ele>239.2</ele>
        <time>2016-08-27T09:06:14Z</time>
      </trkpt>
      <trkpt lat="44.02564" lon="1.84849">
        <ele>239.5</ele>
        <time>2016-08-27T09:06:16Z</time>
      </trkpt>
      <trkpt lat="44.02567" lon="1.8485">
        <ele>239.7</ele>
        <time>2016-08-27T09:06:18Z</time>
      </trkpt>
      <trkpt lat="44.02571" lon="1.84852">
        <ele>239.9</ele>
        <time>2016-08-27T09:06:20Z</time>
      </trkpt>
      <trkpt lat="44.02576" lon="1.84852">
        <ele>240.3</ele>
        <time>2016-08-27T09:06:22Z</time>
      </trkpt>
      <trkpt lat="44.0258" lon="1.84853">
        <ele>240.7</ele>
        <time>2016-08-27T09:06:24Z</time>
      </trkpt>
      <trkpt lat="44.02584" lon="1.84853">
        <ele>241</ele>
        <time>2016-08-27T09:06:26Z</time>
      </trkpt>
      <trkpt lat="44.02589" lon="1.84854">
        <ele>241.4</ele>
        <time>2016-08-27T09:06:28Z</time>
      </trkpt>
      <trkpt lat="44.02593" lon="1.84856">
        <ele>241.7</ele>
        <time>2016-08-27T09:06:30Z</time>
      </trkpt>
      <trkpt lat="44.02597" lon="1.84856">
        <ele>241.9</ele>
        <time>2016-08-27T09:06:32Z</time>
      </trkpt>
      <trkpt lat="44.02594" lon="1.84855">
        <ele>241.7</ele>
        <time>2016-08-27T09:06:34Z</time>
      </trkpt>
      <trkpt lat="44.0259" lon="1.84854">
        <ele>241.5</ele>
        <time>2016-08-27T09:06:36Z</time>
      </trkpt>
      <trkpt lat="44.02592" lon="1.84858">
        <ele>241.4</ele>
        <time>2016-08-27T09:06:56Z</time>
      </trkpt>
      <trkpt lat="44.02589" lon="1.84859">
        <ele>241.1</ele>
        <time>2016-08-27T09:07:10Z</time>
      </trkpt>
      <trkpt lat="44.0259" lon="1.84855">
        <ele>241.4</ele>
        <time>2016-08-27T09:07:17Z</time>
      </trkpt>
      <trkpt lat="44.02593" lon="1.84854">
        <ele>241.8</ele>
        <time>2016-08-27T09:07:32Z</time>
      </trkpt>
      <trkpt lat="44.02596" lon="1.84853">
        <ele>242</ele>
        <time>2016-08-27T09:07:34Z</time>
      </trkpt>
      <trkpt lat="44.02602" lon="1.84854">
        <ele>242.5</ele>
        <time>2016-08-27T09:07:36Z</time>
      </trkpt>
      <trkpt lat="44.02605" lon="1.84853">
        <ele>242.8</ele>
        <time>2016-08-27T09:07:37Z</time>
      </trkpt>
      <trkpt lat="44.02608" lon="1.84852">
        <ele>243.2</ele>
        <time>2016-08-27T09:07:38Z</time>
      </trkpt>
      <trkpt lat="44.02611" lon="1.8485">
        <ele>243.5</ele>
        <time>2016-08-27T09:07:39Z</time>
      </trkpt>
      <trkpt lat="44.02617" lon="1.84847">
        <ele>244.3</ele>
        <time>2016-08-27T09:07:41Z</time>
      </trkpt>
      <trkpt lat="44.02621" lon="1.84846">
        <ele>244.7</ele>
        <time>2016-08-27T09:07:42Z</time>
      </trkpt>
      <trkpt lat="44.02623" lon="1.84844">
        <ele>245</ele>
        <time>2016-08-27T09:07:43Z</time>
      </trkpt>
      <trkpt lat="44.02627" lon="1.84842">
        <ele>245.4</ele>
        <time>2016-08-27T09:07:44Z</time>
      </trkpt>
      <trkpt lat="44.02629" lon="1.84841">
        <ele>245.5</ele>
        <time>2016-08-27T09:07:45Z</time>
      </trkpt>
      <trkpt lat="44.02632" lon="1.84839">
        <ele>245.7</ele>
        <time>2016-08-27T09:07:46Z</time>
      </trkpt>
      <trkpt lat="44.02636" lon="1.84834">
        <ele>246</ele>
        <time>2016-08-27T09:07:48Z</time>
      </trkpt>
      <trkpt lat="44.02639" lon="1.84832">
        <ele>246.2</ele>
        <time>2016-08-27T09:07:49Z</time>
      </trkpt>
      <trkpt lat="44.02641" lon="1.84831">
        <ele>246.3</ele>
        <time>2016-08-27T09:07:50Z</time>
      </trkpt>
      <trkpt lat="44.02645" lon="1.84826">
        <ele>246.7</ele>
        <time>2016-08-27T09:07:52Z</time>
      </trkpt>
      <trkpt lat="44.02648" lon="1.84821">
        <ele>247.1</ele>
        <time>2016-08-27T09:07:54Z</time>
      </trkpt>
      <trkpt lat="44.02652" lon="1.84815">
        <ele>247.5</ele>
        <time>2016-08-27T09:07:56Z</time>
      </trkpt>
      <trkpt lat="44.02654" lon="1.8481">
        <ele>248</ele>
        <time>2016-08-27T09:07:58Z</time>
      </trkpt>
      <trkpt lat="44.02656" lon="1.84804">
        <ele>248.4</ele>
        <time>2016-08-27T09:08:00Z</time>
      </trkpt>
      <trkpt lat="44.02659" lon="1.84801">
        <ele>248.7</ele>
        <time>2016-08-27T09:08:02Z</time>
      </trkpt>
      <trkpt lat="44.02662" lon="1.84797">
        <ele>249.1</ele>
        <time>2016-08-27T09:08:04Z</time>
      </trkpt>
      <trkpt lat="44.02666" lon="1.84792">
        <ele>249.4</ele>
        <time>2016-08-27T09:08:06Z</time>
      </trkpt>
      <trkpt lat="44.0267" lon="1.84788">
        <ele>249.7</ele>
        <time>2016-08-27T09:08:08Z</time>
      </trkpt>
      <trkpt lat="44.02673" lon="1.84785">
        <ele>249.8</ele>
        <time>2016-08-27T09:08:09Z</time>
      </trkpt>
      <trkpt lat="44.02677" lon="1.8478">
        <ele>250.1</ele>
        <time>2016-08-27T09:08:11Z</time>
      </trkpt>
      <trkpt lat="44.0268" lon="1.84775">
        <ele>250.3</ele>
        <time>2016-08-27T09:08:13Z</time>
      </trkpt>
      <trkpt lat="44.02682" lon="1.84769">
        <ele>250.6</ele>
        <time>2016-08-27T09:08:15Z</time>
      </trkpt>
      <trkpt lat="44.02684" lon="1.84764">
        <ele>250.9</ele>
        <time>2016-08-27T09:08:17Z</time>
      </trkpt>
      <trkpt lat="44.02688" lon="1.8476">
        <ele>251.1</ele>
        <time>2016-08-27T09:08:19Z</time>
      </trkpt>
      <trkpt lat="44.02691" lon="1.84755">
        <ele>251.4</ele>
        <time>2016-08-27T09:08:21Z</time>
      </trkpt>
      <trkpt lat="44.02694" lon="1.84751">
        <ele>251.6</ele>
        <time>2016-08-27T09:08:23Z</time>
      </trkpt>
      <trkpt lat="44.02696" lon="1.84748">
        <ele>251.8</ele>
        <time>2016-08-27T09:08:24Z</time>
      </trkpt>
      <trkpt lat="44.02699" lon="1.84743">
        <ele>252.1</ele>
        <time>2016-08-27T09:08:26Z</time>
      </trkpt>
      <trkpt lat="44.02704" lon="1.84739">
        <ele>252.4</ele>
        <time>2016-08-27T09:08:28Z</time>
      </trkpt>
      <trkpt lat="44.0271" lon="1.84736">
        <ele>252.7</ele>
        <time>2016-08-27T09:08:30Z</time>
      </trkpt>
      <trkpt lat="44.02715" lon="1.84733">
        <ele>253</ele>
        <time>2016-08-27T09:08:32Z</time>
      </trkpt>
      <trkpt lat="44.02718" lon="1.84732">
        <ele>253.1</ele>
        <time>2016-08-27T09:08:33Z</time>
      </trkpt>
      <trkpt lat="44.0272" lon="1.8473">
        <ele>253.3</ele>
        <time>2016-08-27T09:08:34Z</time>
      </trkpt>
      <trkpt lat="44.02726" lon="1.84728">
        <ele>253.5</ele>
        <time>2016-08-27T09:08:36Z</time>
      </trkpt>
      <trkpt lat="44.02731" lon="1.84726">
        <ele>253.8</ele>
        <time>2016-08-27T09:08:38Z</time>
      </trkpt>
      <trkpt lat="44.02734" lon="1.84726">
        <ele>253.9</ele>
        <time>2016-08-27T09:08:39Z</time>
      </trkpt>
      <trkpt lat="44.02737" lon="1.84726">
        <ele>253.9</ele>
        <time>2016-08-27T09:08:40Z</time>
      </trkpt>
      <trkpt lat="44.02741" lon="1.84726">
        <ele>254</ele>
        <time>2016-08-27T09:08:41Z</time>
      </trkpt>
      <trkpt lat="44.02744" lon="1.84727">
        <ele>254.1</ele>
        <time>2016-08-27T09:08:42Z</time>
      </trkpt>
      <trkpt lat="44.02747" lon="1.84727">
        <ele>254.1</ele>
        <time>2016-08-27T09:08:43Z</time>
      </trkpt>
      <trkpt lat="44.02751" lon="1.84728">
        <ele>254.2</ele>
        <time>2016-08-27T09:08:44Z</time>
      </trkpt>
      <trkpt lat="44.02754" lon="1.8473">
        <ele>254.2</ele>
        <time>2016-08-27T09:08:45Z</time>
      </trkpt>
      <trkpt lat="44.02757" lon="1.84731">
        <ele>254.2</ele>
        <time>2016-08-27T09:08:46Z</time>
      </trkpt>
      <trkpt lat="44.02759" lon="1.84733">
        <ele>254.2</ele>
        <time>2016-08-27T09:08:47Z</time>
      </trkpt>
      <trkpt lat="44.02764" lon="1.84737">
        <ele>254.2</ele>
        <time>2016-08-27T09:08:49Z</time>
      </trkpt>
      <trkpt lat="44.02767" lon="1.8474">
        <ele>254.2</ele>
        <time>2016-08-27T09:08:51Z</time>
      </trkpt>
      <trkpt lat="44.0277" lon="1.84743">
        <ele>254.1</ele>
        <time>2016-08-27T09:08:53Z</time>
      </trkpt>
      <trkpt lat="44.02773" lon="1.84748">
        <ele>254</ele>
        <time>2016-08-27T09:08:55Z</time>
      </trkpt>
      <trkpt lat="44.02775" lon="1.84752">
        <ele>253.9</ele>
        <time>2016-08-27T09:08:57Z</time>
      </trkpt>
      <trkpt lat="44.02778" lon="1.84757">
        <ele>253.8</ele>
        <time>2016-08-27T09:08:59Z</time>
      </trkpt>
      <trkpt lat="44.0278" lon="1.84762">
        <ele>253.7</ele>
        <time>2016-08-27T09:09:01Z</time>
      </trkpt>
      <trkpt lat="44.02783" lon="1.84767">
        <ele>253.6</ele>
        <time>2016-08-27T09:09:03Z</time>
      </trkpt>
      <trkpt lat="44.02787" lon="1.84771">
        <ele>253.6</ele>
        <time>2016-08-27T09:09:05Z</time>
      </trkpt>
      <trkpt lat="44.02791" lon="1.84776">
        <ele>253.5</ele>
        <time>2016-08-27T09:09:07Z</time>
      </trkpt>
      <trkpt lat="44.02793" lon="1.84779">
        <ele>253.6</ele>
        <time>2016-08-27T09:09:08Z</time>
      </trkpt>
      <trkpt lat="44.02794" lon="1.84782">
        <ele>253.7</ele>
        <time>2016-08-27T09:09:09Z</time>
      </trkpt>
      <trkpt lat="44.02796" lon="1.84785">
        <ele>253.7</ele>
        <time>2016-08-27T09:09:10Z</time>
      </trkpt>
      <trkpt lat="44.02798" lon="1.84789">
        <ele>253.8</ele>
        <time>2016-08-27T09:09:11Z</time>
      </trkpt>
      <trkpt lat="44.02801" lon="1.84793">
        <ele>254</ele>
        <time>2016-08-27T09:09:13Z</time>
      </trkpt>
      <trkpt lat="44.02804" lon="1.84798">
        <ele>254</ele>
        <time>2016-08-27T09:09:15Z</time>
      </trkpt>
      <trkpt lat="44.02807" lon="1.84803">
        <ele>254</ele>
        <time>2016-08-27T09:09:17Z</time>
      </trkpt>
      <trkpt lat="44.0281" lon="1.84809">
        <ele>254</ele>
        <time>2016-08-27T09:09:19Z</time>
      </trkpt>
      <trkpt lat="44.02813" lon="1.84814">
        <ele>254</ele>
        <time>2016-08-27T09:09:21Z</time>
      </trkpt>
      <trkpt lat="44.02817" lon="1.84818">
        <ele>254.3</ele>
        <time>2016-08-27T09:09:23Z</time>
      </trkpt>
      <trkpt lat="44.02822" lon="1.84823">
        <ele>254.5</ele>
        <time>2016-08-27T09:09:25Z</time>
      </trkpt>
      <trkpt lat="44.02824" lon="1.84825">
        <ele>254.6</ele>
        <time>2016-08-27T09:09:26Z</time>
      </trkpt>
      <trkpt lat="44.02827" lon="1.84828">
        <ele>254.9</ele>
        <time>2016-08-27T09:09:27Z</time>
      </trkpt>
      <trkpt lat="44.0283" lon="1.8483">
        <ele>255.1</ele>
        <time>2016-08-27T09:09:28Z</time>
      </trkpt>
      <trkpt lat="44.02834" lon="1.84832">
        <ele>255.4</ele>
        <time>2016-08-27T09:09:29Z</time>
      </trkpt>
      <trkpt lat="44.02838" lon="1.84833">
        <ele>255.9</ele>
        <time>2016-08-27T09:09:30Z</time>
      </trkpt>
      <trkpt lat="44.02841" lon="1.84834">
        <ele>256.2</ele>
        <time>2016-08-27T09:09:31Z</time>
      </trkpt>
      <trkpt lat="44.02846" lon="1.84836">
        <ele>256.6</ele>
        <time>2016-08-27T09:09:32Z</time>
      </trkpt>
      <trkpt lat="44.02849" lon="1.84837">
        <ele>257</ele>
        <time>2016-08-27T09:09:33Z</time>
      </trkpt>
      <trkpt lat="44.02852" lon="1.84837">
        <ele>257.3</ele>
        <time>2016-08-27T09:09:34Z</time>
      </trkpt>
      <trkpt lat="44.02855" lon="1.84837">
        <ele>257.7</ele>
        <time>2016-08-27T09:09:35Z</time>
      </trkpt>
      <trkpt lat="44.02858" lon="1.84838">
        <ele>258</ele>
        <time>2016-08-27T09:09:36Z</time>
      </trkpt>
      <trkpt lat="44.02861" lon="1.84839">
        <ele>258.3</ele>
        <time>2016-08-27T09:09:37Z</time>
      </trkpt>
      <trkpt lat="44.02864" lon="1.8484">
        <ele>258.7</ele>
        <time>2016-08-27T09:09:38Z</time>
      </trkpt>
      <trkpt lat="44.02868" lon="1.8484">
        <ele>259.2</ele>
        <time>2016-08-27T09:09:39Z</time>
      </trkpt>
      <trkpt lat="44.02871" lon="1.8484">
        <ele>259.7</ele>
        <time>2016-08-27T09:09:40Z</time>
      </trkpt>
      <trkpt lat="44.02876" lon="1.84842">
        <ele>260</ele>
        <time>2016-08-27T09:09:41Z</time>
      </trkpt>
      <trkpt lat="44.0288" lon="1.84842">
        <ele>260.2</ele>
        <time>2016-08-27T09:09:42Z</time>
      </trkpt>
      <trkpt lat="44.02883" lon="1.84839">
        <ele>260.5</ele>
        <time>2016-08-27T09:09:43Z</time>
      </trkpt>
      <trkpt lat="44.02887" lon="1.84838">
        <ele>260.7</ele>
        <time>2016-08-27T09:09:44Z</time>
      </trkpt>
      <trkpt lat="44.0289" lon="1.84834">
        <ele>261.1</ele>
        <time>2016-08-27T09:09:46Z</time>
      </trkpt>
      <trkpt lat="44.02893" lon="1.84831">
        <ele>261.4</ele>
        <time>2016-08-27T09:09:48Z</time>
      </trkpt>
      <trkpt lat="44.02897" lon="1.84829">
        <ele>261.7</ele>
        <time>2016-08-27T09:09:50Z</time>
      </trkpt>
      <trkpt lat="44.02902" lon="1.84824">
        <ele>262.2</ele>
        <time>2016-08-27T09:09:52Z</time>
      </trkpt>
      <trkpt lat="44.02904" lon="1.84822">
        <ele>262.5</ele>
        <time>2016-08-27T09:09:53Z</time>
      </trkpt>
      <trkpt lat="44.02907" lon="1.8482">
        <ele>262.7</ele>
        <time>2016-08-27T09:09:54Z</time>
      </trkpt>
      <trkpt lat="44.02909" lon="1.84818">
        <ele>262.9</ele>
        <time>2016-08-27T09:09:55Z</time>
      </trkpt>
      <trkpt lat="44.02912" lon="1.84812">
        <ele>263.5</ele>
        <time>2016-08-27T09:09:57Z</time>
      </trkpt>
      <trkpt lat="44.02914" lon="1.84809">
        <ele>263.7</ele>
        <time>2016-08-27T09:09:58Z</time>
      </trkpt>
      <trkpt lat="44.02917" lon="1.84803">
        <ele>264.3</ele>
        <time>2016-08-27T09:10:00Z</time>
      </trkpt>
      <trkpt lat="44.02921" lon="1.84799">
        <ele>264.8</ele>
        <time>2016-08-27T09:10:02Z</time>
      </trkpt>
      <trkpt lat="44.02923" lon="1.84796">
        <ele>265</ele>
        <time>2016-08-27T09:10:03Z</time>
      </trkpt>
      <trkpt lat="44.02925" lon="1.84792">
        <ele>265.4</ele>
        <time>2016-08-27T09:10:04Z</time>
      </trkpt>
      <trkpt lat="44.02926" lon="1.84789">
        <ele>265.5</ele>
        <time>2016-08-27T09:10:05Z</time>
      </trkpt>
      <trkpt lat="44.02928" lon="1.84785">
        <ele>265.7</ele>
        <time>2016-08-27T09:10:06Z</time>
      </trkpt>
      <trkpt lat="44.02929" lon="1.84781">
        <ele>265.8</ele>
        <time>2016-08-27T09:10:07Z</time>
      </trkpt>
      <trkpt lat="44.0293" lon="1.84777">
        <ele>265.9</ele>
        <time>2016-08-27T09:10:08Z</time>
      </trkpt>
      <trkpt lat="44.02931" lon="1.84773">
        <ele>266.1</ele>
        <time>2016-08-27T09:10:09Z</time>
      </trkpt>
      <trkpt lat="44.02933" lon="1.84769">
        <ele>266.2</ele>
        <time>2016-08-27T09:10:10Z</time>
      </trkpt>
      <trkpt lat="44.02934" lon="1.84765">
        <ele>266.4</ele>
        <time>2016-08-27T09:10:11Z</time>
      </trkpt>
      <trkpt lat="44.02936" lon="1.84761">
        <ele>266.6</ele>
        <time>2016-08-27T09:10:12Z</time>
      </trkpt>
      <trkpt lat="44.02938" lon="1.84757">
        <ele>266.8</ele>
        <time>2016-08-27T09:10:13Z</time>
      </trkpt>
      <trkpt lat="44.0294" lon="1.84754">
        <ele>266.9</ele>
        <time>2016-08-27T09:10:14Z</time>
      </trkpt>
      <trkpt lat="44.02942" lon="1.84751">
        <ele>267.1</ele>
        <time>2016-08-27T09:10:15Z</time>
      </trkpt>
      <trkpt lat="44.02945" lon="1.84744">
        <ele>267.4</ele>
        <time>2016-08-27T09:10:17Z</time>
      </trkpt>
      <trkpt lat="44.02948" lon="1.84739">
        <ele>267.7</ele>
        <time>2016-08-27T09:10:19Z</time>
      </trkpt>
      <trkpt lat="44.0295" lon="1.84734">
        <ele>267.9</ele>
        <time>2016-08-27T09:10:21Z</time>
      </trkpt>
      <trkpt lat="44.02954" lon="1.8473">
        <ele>268.2</ele>
        <time>2016-08-27T09:10:23Z</time>
      </trkpt>
      <trkpt lat="44.02954" lon="1.84725">
        <ele>268.4</ele>
        <time>2016-08-27T09:10:25Z</time>
      </trkpt>
      <trkpt lat="44.02955" lon="1.8472">
        <ele>268.5</ele>
        <time>2016-08-27T09:10:27Z</time>
      </trkpt>
      <trkpt lat="44.02956" lon="1.84716">
        <ele>268.7</ele>
        <time>2016-08-27T09:10:29Z</time>
      </trkpt>
      <trkpt lat="44.02958" lon="1.84711">
        <ele>268.9</ele>
        <time>2016-08-27T09:10:31Z</time>
      </trkpt>
      <trkpt lat="44.02962" lon="1.84706">
        <ele>269.1</ele>
        <time>2016-08-27T09:10:33Z</time>
      </trkpt>
      <trkpt lat="44.02965" lon="1.84701">
        <ele>269.2</ele>
        <time>2016-08-27T09:10:35Z</time>
      </trkpt>
      <trkpt lat="44.02967" lon="1.84696">
        <ele>269.4</ele>
        <time>2016-08-27T09:10:37Z</time>
      </trkpt>
      <trkpt lat="44.02967" lon="1.84689">
        <ele>269.5</ele>
        <time>2016-08-27T09:10:39Z</time>
      </trkpt>
      <trkpt lat="44.02967" lon="1.84685">
        <ele>269.6</ele>
        <time>2016-08-27T09:10:40Z</time>
      </trkpt>
      <trkpt lat="44.02967" lon="1.84678">
        <ele>269.7</ele>
        <time>2016-08-27T09:10:42Z</time>
      </trkpt>
      <trkpt lat="44.02969" lon="1.84671">
        <ele>269.9</ele>
        <time>2016-08-27T09:10:44Z</time>
      </trkpt>
      <trkpt lat="44.0297" lon="1.84664">
        <ele>270.1</ele>
        <time>2016-08-27T09:10:46Z</time>
      </trkpt>
      <trkpt lat="44.0297" lon="1.84657">
        <ele>270.3</ele>
        <time>2016-08-27T09:10:48Z</time>
      </trkpt>
      <trkpt lat="44.0297" lon="1.84649">
        <ele>270.5</ele>
        <time>2016-08-27T09:10:50Z</time>
      </trkpt>
      <trkpt lat="44.02971" lon="1.84645">
        <ele>270.6</ele>
        <time>2016-08-27T09:10:51Z</time>
      </trkpt>
      <trkpt lat="44.02971" lon="1.84638">
        <ele>270.8</ele>
        <time>2016-08-27T09:10:53Z</time>
      </trkpt>
      <trkpt lat="44.02971" lon="1.84631">
        <ele>271</ele>
        <time>2016-08-27T09:10:55Z</time>
      </trkpt>
      <trkpt lat="44.02972" lon="1.84624">
        <ele>271.1</ele>
        <time>2016-08-27T09:10:57Z</time>
      </trkpt>
      <trkpt lat="44.02973" lon="1.8462">
        <ele>271.2</ele>
        <time>2016-08-27T09:10:58Z</time>
      </trkpt>
      <trkpt lat="44.02973" lon="1.84613">
        <ele>271.1</ele>
        <time>2016-08-27T09:11:00Z</time>
      </trkpt>
      <trkpt lat="44.02975" lon="1.84607">
        <ele>271.1</ele>
        <time>2016-08-27T09:11:02Z</time>
      </trkpt>
      <trkpt lat="44.02976" lon="1.84601">
        <ele>271.1</ele>
        <time>2016-08-27T09:11:04Z</time>
      </trkpt>
      <trkpt lat="44.02976" lon="1.84593">
        <ele>270.9</ele>
        <time>2016-08-27T09:11:06Z</time>
      </trkpt>
      <trkpt lat="44.02976" lon="1.84587">
        <ele>270.8</ele>
        <time>2016-08-27T09:11:08Z</time>
      </trkpt>
      <trkpt lat="44.02976" lon="1.8458">
        <ele>270.8</ele>
        <time>2016-08-27T09:11:10Z</time>
      </trkpt>
      <trkpt lat="44.02977" lon="1.84576">
        <ele>270.8</ele>
        <time>2016-08-27T09:11:11Z</time>
      </trkpt>
      <trkpt lat="44.02978" lon="1.84569">
        <ele>270.8</ele>
        <time>2016-08-27T09:11:13Z</time>
      </trkpt>
      <trkpt lat="44.02981" lon="1.84563">
        <ele>271</ele>
        <time>2016-08-27T09:11:15Z</time>
      </trkpt>
      <trkpt lat="44.02983" lon="1.84556">
        <ele>271.2</ele>
        <time>2016-08-27T09:11:17Z</time>
      </trkpt>
      <trkpt lat="44.02985" lon="1.84553">
        <ele>271.3</ele>
        <time>2016-08-27T09:11:18Z</time>
      </trkpt>
      <trkpt lat="44.02987" lon="1.84547">
        <ele>271.5</ele>
        <time>2016-08-27T09:11:20Z</time>
      </trkpt>
      <trkpt lat="44.02991" lon="1.84544">
        <ele>271.9</ele>
        <time>2016-08-27T09:11:22Z</time>
      </trkpt>
      <trkpt lat="44.02995" lon="1.84541">
        <ele>272.3</ele>
        <time>2016-08-27T09:11:24Z</time>
      </trkpt>
      <trkpt lat="44.02997" lon="1.84537">
        <ele>272.3</ele>
        <time>2016-08-27T09:11:26Z</time>
      </trkpt>
      <trkpt lat="44.02998" lon="1.84533">
        <ele>272.1</ele>
        <time>2016-08-27T09:11:29Z</time>
      </trkpt>
      <trkpt lat="44.03001" lon="1.8453">
        <ele>272.3</ele>
        <time>2016-08-27T09:11:31Z</time>
      </trkpt>
      <trkpt lat="44.03004" lon="1.84526">
        <ele>272.3</ele>
        <time>2016-08-27T09:11:33Z</time>
      </trkpt>
      <trkpt lat="44.03007" lon="1.84521">
        <ele>272.3</ele>
        <time>2016-08-27T09:11:35Z</time>
      </trkpt>
      <trkpt lat="44.0301" lon="1.84515">
        <ele>272.2</ele>
        <time>2016-08-27T09:11:37Z</time>
      </trkpt>
      <trkpt lat="44.03014" lon="1.8451">
        <ele>272.4</ele>
        <time>2016-08-27T09:11:39Z</time>
      </trkpt>
      <trkpt lat="44.03018" lon="1.84505">
        <ele>272.5</ele>
        <time>2016-08-27T09:11:41Z</time>
      </trkpt>
      <trkpt lat="44.03019" lon="1.84502">
        <ele>272.5</ele>
        <time>2016-08-27T09:11:42Z</time>
      </trkpt>
      <trkpt lat="44.03022" lon="1.84499">
        <ele>272.5</ele>
        <time>2016-08-27T09:11:43Z</time>
      </trkpt>
      <trkpt lat="44.03027" lon="1.84492">
        <ele>272.7</ele>
        <time>2016-08-27T09:11:45Z</time>
      </trkpt>
      <trkpt lat="44.0303" lon="1.84489">
        <ele>272.8</ele>
        <time>2016-08-27T09:11:46Z</time>
      </trkpt>
      <trkpt lat="44.03032" lon="1.84487">
        <ele>272.9</ele>
        <time>2016-08-27T09:11:47Z</time>
      </trkpt>
      <trkpt lat="44.03035" lon="1.84484">
        <ele>273</ele>
        <time>2016-08-27T09:11:48Z</time>
      </trkpt>
      <trkpt lat="44.03037" lon="1.84482">
        <ele>273.2</ele>
        <time>2016-08-27T09:11:49Z</time>
      </trkpt>
      <trkpt lat="44.0304" lon="1.84479">
        <ele>273.3</ele>
        <time>2016-08-27T09:11:50Z</time>
      </trkpt>
      <trkpt lat="44.03043" lon="1.84477">
        <ele>273.5</ele>
        <time>2016-08-27T09:11:51Z</time>
      </trkpt>
      <trkpt lat="44.03045" lon="1.84475">
        <ele>273.5</ele>
        <time>2016-08-27T09:11:52Z</time>
      </trkpt>
      <trkpt lat="44.03049" lon="1.84473">
        <ele>273.6</ele>
        <time>2016-08-27T09:11:53Z</time>
      </trkpt>
      <trkpt lat="44.03051" lon="1.8447">
        <ele>273.7</ele>
        <time>2016-08-27T09:11:54Z</time>
      </trkpt>
      <trkpt lat="44.03053" lon="1.84468">
        <ele>273.7</ele>
        <time>2016-08-27T09:11:55Z</time>
      </trkpt>
      <trkpt lat="44.03055" lon="1.84465">
        <ele>273.7</ele>
        <time>2016-08-27T09:11:56Z</time>
      </trkpt>
      <trkpt lat="44.03058" lon="1.84464">
        <ele>273.9</ele>
        <time>2016-08-27T09:11:57Z</time>
      </trkpt>
      <trkpt lat="44.03061" lon="1.84463">
        <ele>274.1</ele>
        <time>2016-08-27T09:11:58Z</time>
      </trkpt>
      <trkpt lat="44.03062" lon="1.84468">
        <ele>274.5</ele>
        <time>2016-08-27T09:11:59Z</time>
      </trkpt>
      <trkpt lat="44.03063" lon="1.84472">
        <ele>274.8</ele>
        <time>2016-08-27T09:12:00Z</time>
      </trkpt>
      <trkpt lat="44.03062" lon="1.84476">
        <ele>275</ele>
        <time>2016-08-27T09:12:02Z</time>
      </trkpt>
      <trkpt lat="44.03061" lon="1.8448">
        <ele>275.1</ele>
        <time>2016-08-27T09:12:05Z</time>
      </trkpt>
      <trkpt lat="44.03057" lon="1.84482">
        <ele>274.9</ele>
        <time>2016-08-27T09:12:07Z</time>
      </trkpt>
      <trkpt lat="44.03054" lon="1.84484">
        <ele>274.8</ele>
        <time>2016-08-27T09:12:09Z</time>
      </trkpt>
      <trkpt lat="44.0305" lon="1.84488">
        <ele>274.8</ele>
        <time>2016-08-27T09:12:11Z</time>
      </trkpt>
      <trkpt lat="44.03047" lon="1.84492">
        <ele>274.8</ele>
        <time>2016-08-27T09:12:13Z</time>
      </trkpt>
      <trkpt lat="44.03046" lon="1.84497">
        <ele>275.1</ele>
        <time>2016-08-27T09:12:15Z</time>
      </trkpt>
      <trkpt lat="44.03046" lon="1.84502">
        <ele>275.4</ele>
        <time>2016-08-27T09:12:17Z</time>
      </trkpt>
      <trkpt lat="44.03046" lon="1.84508">
        <ele>275.8</ele>
        <time>2016-08-27T09:12:19Z</time>
      </trkpt>
      <trkpt lat="44.03046" lon="1.84514">
        <ele>276.3</ele>
        <time>2016-08-27T09:12:21Z</time>
      </trkpt>
      <trkpt lat="44.03047" lon="1.8452">
        <ele>276.7</ele>
        <time>2016-08-27T09:12:23Z</time>
      </trkpt>
      <trkpt lat="44.03046" lon="1.84524">
        <ele>277</ele>
        <time>2016-08-27T09:12:26Z</time>
      </trkpt>
      <trkpt lat="44.03044" lon="1.84528">
        <ele>277.2</ele>
        <time>2016-08-27T09:12:29Z</time>
      </trkpt>
      <trkpt lat="44.03044" lon="1.84533">
        <ele>277.5</ele>
        <time>2016-08-27T09:12:32Z</time>
      </trkpt>
      <trkpt lat="44.03043" lon="1.84537">
        <ele>277.7</ele>
        <time>2016-08-27T09:12:34Z</time>
      </trkpt>
      <trkpt lat="44.03041" lon="1.84541">
        <ele>277.9</ele>
        <time>2016-08-27T09:12:36Z</time>
      </trkpt>
      <trkpt lat="44.03039" lon="1.84546">
        <ele>277.6</ele>
        <time>2016-08-27T09:12:38Z</time>
      </trkpt>
      <trkpt lat="44.03038" lon="1.84551">
        <ele>277.4</ele>
        <time>2016-08-27T09:12:40Z</time>
      </trkpt>
      <trkpt lat="44.03039" lon="1.84558">
        <ele>277.5</ele>
        <time>2016-08-27T09:12:42Z</time>
      </trkpt>
      <trkpt lat="44.0304" lon="1.84563">
        <ele>277.6</ele>
        <time>2016-08-27T09:12:44Z</time>
      </trkpt>
      <trkpt lat="44.03042" lon="1.84568">
        <ele>277.7</ele>
        <time>2016-08-27T09:12:46Z</time>
      </trkpt>
      <trkpt lat="44.03043" lon="1.84573">
        <ele>277.7</ele>
        <time>2016-08-27T09:12:48Z</time>
      </trkpt>
      <trkpt lat="44.03044" lon="1.84577">
        <ele>277.6</ele>
        <time>2016-08-27T09:12:50Z</time>
      </trkpt>
      <trkpt lat="44.03047" lon="1.84577">
        <ele>277.7</ele>
        <time>2016-08-27T09:12:52Z</time>
      </trkpt>
      <trkpt lat="44.03051" lon="1.84577">
        <ele>277.8</ele>
        <time>2016-08-27T09:12:54Z</time>
      </trkpt>
      <trkpt lat="44.03054" lon="1.84577">
        <ele>277.9</ele>
        <time>2016-08-27T09:12:56Z</time>
      </trkpt>
      <trkpt lat="44.03057" lon="1.84575">
        <ele>278</ele>
        <time>2016-08-27T09:12:57Z</time>
      </trkpt>
      <trkpt lat="44.0306" lon="1.84571">
        <ele>278.1</ele>
        <time>2016-08-27T09:12:59Z</time>
      </trkpt>
      <trkpt lat="44.03063" lon="1.84568">
        <ele>278.3</ele>
        <time>2016-08-27T09:13:01Z</time>
      </trkpt>
      <trkpt lat="44.03067" lon="1.84565">
        <ele>278.5</ele>
        <time>2016-08-27T09:13:03Z</time>
      </trkpt>
      <trkpt lat="44.0307" lon="1.84561">
        <ele>278.6</ele>
        <time>2016-08-27T09:13:05Z</time>
      </trkpt>
      <trkpt lat="44.0307" lon="1.84556">
        <ele>278.7</ele>
        <time>2016-08-27T09:13:07Z</time>
      </trkpt>
      <trkpt lat="44.03068" lon="1.84551">
        <ele>278.8</ele>
        <time>2016-08-27T09:13:09Z</time>
      </trkpt>
      <trkpt lat="44.03066" lon="1.84547">
        <ele>278.8</ele>
        <time>2016-08-27T09:13:11Z</time>
      </trkpt>
      <trkpt lat="44.03063" lon="1.84544">
        <ele>278.7</ele>
        <time>2016-08-27T09:13:13Z</time>
      </trkpt>
      <trkpt lat="44.03061" lon="1.8454">
        <ele>278.6</ele>
        <time>2016-08-27T09:13:15Z</time>
      </trkpt>
      <trkpt lat="44.0306" lon="1.84535">
        <ele>278.3</ele>
        <time>2016-08-27T09:13:17Z</time>
      </trkpt>
      <trkpt lat="44.03057" lon="1.84531">
        <ele>277.9</ele>
        <time>2016-08-27T09:13:19Z</time>
      </trkpt>
      <trkpt lat="44.03054" lon="1.84527">
        <ele>277.5</ele>
        <time>2016-08-27T09:13:21Z</time>
      </trkpt>
      <trkpt lat="44.03051" lon="1.84524">
        <ele>277.2</ele>
        <time>2016-08-27T09:13:23Z</time>
      </trkpt>
      <trkpt lat="44.03048" lon="1.84521">
        <ele>276.9</ele>
        <time>2016-08-27T09:13:25Z</time>
      </trkpt>
      <trkpt lat="44.03046" lon="1.84518">
        <ele>276.5</ele>
        <time>2016-08-27T09:13:27Z</time>
      </trkpt>
      <trkpt lat="44.03045" lon="1.84514">
        <ele>276.1</ele>
        <time>2016-08-27T09:13:29Z</time>
      </trkpt>
      <trkpt lat="44.03043" lon="1.84509">
        <ele>275.7</ele>
        <time>2016-08-27T09:13:31Z</time>
      </trkpt>
      <trkpt lat="44.03044" lon="1.84503">
        <ele>275.4</ele>
        <time>2016-08-27T09:13:33Z</time>
      </trkpt>
      <trkpt lat="44.03045" lon="1.84496">
        <ele>274.9</ele>
        <time>2016-08-27T09:13:35Z</time>
      </trkpt>
      <trkpt lat="44.03046" lon="1.84492">
        <ele>274.7</ele>
        <time>2016-08-27T09:13:36Z</time>
      </trkpt>
      <trkpt lat="44.03047" lon="1.84489">
        <ele>274.6</ele>
        <time>2016-08-27T09:13:37Z</time>
      </trkpt>
      <trkpt lat="44.0305" lon="1.84486">
        <ele>274.6</ele>
        <time>2016-08-27T09:13:38Z</time>
      </trkpt>
      <trkpt lat="44.03053" lon="1.84483">
        <ele>274.6</ele>
        <time>2016-08-27T09:13:39Z</time>
      </trkpt>
      <trkpt lat="44.03057" lon="1.84481">
        <ele>274.8</ele>
        <time>2016-08-27T09:13:40Z</time>
      </trkpt>
      <trkpt lat="44.03061" lon="1.8448">
        <ele>275.1</ele>
        <time>2016-08-27T09:13:41Z</time>
      </trkpt>
      <trkpt lat="44.03065" lon="1.8448">
        <ele>275.4</ele>
        <time>2016-08-27T09:13:42Z</time>
      </trkpt>
      <trkpt lat="44.03069" lon="1.84478">
        <ele>275.7</ele>
        <time>2016-08-27T09:13:43Z</time>
      </trkpt>
      <trkpt lat="44.03074" lon="1.84476">
        <ele>275.9</ele>
        <time>2016-08-27T09:13:44Z</time>
      </trkpt>
      <trkpt lat="44.03078" lon="1.84475">
        <ele>276.2</ele>
        <time>2016-08-27T09:13:45Z</time>
      </trkpt>
      <trkpt lat="44.03082" lon="1.84473">
        <ele>276.5</ele>
        <time>2016-08-27T09:13:46Z</time>
      </trkpt>
      <trkpt lat="44.03086" lon="1.84473">
        <ele>276.8</ele>
        <time>2016-08-27T09:13:47Z</time>
      </trkpt>
      <trkpt lat="44.03089" lon="1.84475">
        <ele>277.1</ele>
        <time>2016-08-27T09:13:48Z</time>
      </trkpt>
      <trkpt lat="44.03091" lon="1.84478">
        <ele>277.4</ele>
        <time>2016-08-27T09:13:49Z</time>
      </trkpt>
      <trkpt lat="44.03093" lon="1.84484">
        <ele>277.8</ele>
        <time>2016-08-27T09:13:51Z</time>
      </trkpt>
      <trkpt lat="44.03093" lon="1.8449">
        <ele>278.1</ele>
        <time>2016-08-27T09:13:53Z</time>
      </trkpt>
      <trkpt lat="44.03094" lon="1.84495">
        <ele>278.3</ele>
        <time>2016-08-27T09:13:55Z</time>
      </trkpt>
      <trkpt lat="44.03096" lon="1.84499">
        <ele>278.6</ele>
        <time>2016-08-27T09:13:58Z</time>
      </trkpt>
      <trkpt lat="44.03099" lon="1.84501">
        <ele>278.8</ele>
        <time>2016-08-27T09:14:01Z</time>
      </trkpt>
      <trkpt lat="44.03102" lon="1.84503">
        <ele>279.1</ele>
        <time>2016-08-27T09:14:04Z</time>
      </trkpt>
      <trkpt lat="44.03099" lon="1.84503">
        <ele>278.8</ele>
        <time>2016-08-27T09:14:06Z</time>
      </trkpt>
      <trkpt lat="44.03096" lon="1.84501">
        <ele>278.6</ele>
        <time>2016-08-27T09:14:10Z</time>
      </trkpt>
      <trkpt lat="44.03095" lon="1.84493">
        <ele>278.2</ele>
        <time>2016-08-27T09:14:13Z</time>
      </trkpt>
      <trkpt lat="44.03095" lon="1.84483">
        <ele>277.9</ele>
        <time>2016-08-27T09:14:15Z</time>
      </trkpt>
      <trkpt lat="44.03095" lon="1.84479">
        <ele>277.8</ele>
        <time>2016-08-27T09:14:16Z</time>
      </trkpt>
      <trkpt lat="44.03096" lon="1.84476">
        <ele>277.8</ele>
        <time>2016-08-27T09:14:17Z</time>
      </trkpt>
      <trkpt lat="44.03098" lon="1.84471">
        <ele>277.8</ele>
        <time>2016-08-27T09:14:19Z</time>
      </trkpt>
      <trkpt lat="44.03096" lon="1.8447">
        <ele>277.6</ele>
        <time>2016-08-27T09:14:24Z</time>
      </trkpt>
      <trkpt lat="44.03091" lon="1.84474">
        <ele>277.3</ele>
        <time>2016-08-27T09:17:18Z</time>
      </trkpt>
      <trkpt lat="44.03088" lon="1.8447">
        <ele>276.8</ele>
        <time>2016-08-27T09:17:21Z</time>
      </trkpt>
      <trkpt lat="44.03086" lon="1.84466">
        <ele>276.5</ele>
        <time>2016-08-27T09:17:24Z</time>
      </trkpt>
      <trkpt lat="44.03084" lon="1.84464">
        <ele>276.3</ele>
        <time>2016-08-27T09:17:28Z</time>
      </trkpt>
      <trkpt lat="44.03085" lon="1.8446">
        <ele>276.2</ele>
        <time>2016-08-27T09:23:21Z</time>
      </trkpt>
      <trkpt lat="44.03073" lon="1.84472">
        <ele>275.7</ele>
        <time>2016-08-27T09:24:37Z</time>
      </trkpt>
      <trkpt lat="44.03069" lon="1.84471">
        <ele>275.3</ele>
        <time>2016-08-27T09:24:40Z</time>
      </trkpt>
      <trkpt lat="44.03069" lon="1.84467">
        <ele>275</ele>
        <time>2016-08-27T09:24:42Z</time>
      </trkpt>
      <trkpt lat="44.03069" lon="1.84463">
        <ele>274.9</ele>
        <time>2016-08-27T09:24:44Z</time>
      </trkpt>
      <trkpt lat="44.0307" lon="1.84458">
        <ele>274.7</ele>
        <time>2016-08-27T09:24:46Z</time>
      </trkpt>
      <trkpt lat="44.03071" lon="1.84453">
        <ele>274.4</ele>
        <time>2016-08-27T09:24:48Z</time>
      </trkpt>
      <trkpt lat="44.03074" lon="1.84448">
        <ele>274.3</ele>
        <time>2016-08-27T09:24:50Z</time>
      </trkpt>
      <trkpt lat="44.03078" lon="1.84444">
        <ele>274.3</ele>
        <time>2016-08-27T09:24:52Z</time>
      </trkpt>
      <trkpt lat="44.0308" lon="1.84441">
        <ele>274.3</ele>
        <time>2016-08-27T09:24:53Z</time>
      </trkpt>
      <trkpt lat="44.03084" lon="1.84436">
        <ele>274.3</ele>
        <time>2016-08-27T09:24:55Z</time>
      </trkpt>
      <trkpt lat="44.03088" lon="1.84434">
        <ele>274.5</ele>
        <time>2016-08-27T09:24:57Z</time>
      </trkpt>
      <trkpt lat="44.03093" lon="1.84431">
        <ele>274.8</ele>
        <time>2016-08-27T09:24:59Z</time>
      </trkpt>
      <trkpt lat="44.03097" lon="1.84424">
        <ele>274.8</ele>
        <time>2016-08-27T09:25:01Z</time>
      </trkpt>
      <trkpt lat="44.03099" lon="1.84421">
        <ele>274.7</ele>
        <time>2016-08-27T09:25:02Z</time>
      </trkpt>
      <trkpt lat="44.03102" lon="1.84419">
        <ele>274.8</ele>
        <time>2016-08-27T09:25:03Z</time>
      </trkpt>
      <trkpt lat="44.03106" lon="1.84414">
        <ele>274.8</ele>
        <time>2016-08-27T09:25:05Z</time>
      </trkpt>
      <trkpt lat="44.03108" lon="1.84411">
        <ele>274.8</ele>
        <time>2016-08-27T09:25:06Z</time>
      </trkpt>
      <trkpt lat="44.0311" lon="1.84408">
        <ele>274.8</ele>
        <time>2016-08-27T09:25:07Z</time>
      </trkpt>
      <trkpt lat="44.03112" lon="1.84406">
        <ele>274.9</ele>
        <time>2016-08-27T09:25:08Z</time>
      </trkpt>
      <trkpt lat="44.03115" lon="1.844">
        <ele>274.8</ele>
        <time>2016-08-27T09:25:10Z</time>
      </trkpt>
      <trkpt lat="44.03119" lon="1.84395">
        <ele>274.8</ele>
        <time>2016-08-27T09:25:12Z</time>
      </trkpt>
      <trkpt lat="44.03123" lon="1.84391">
        <ele>274.9</ele>
        <time>2016-08-27T09:25:14Z</time>
      </trkpt>
      <trkpt lat="44.03125" lon="1.84389">
        <ele>275</ele>
        <time>2016-08-27T09:25:15Z</time>
      </trkpt>
      <trkpt lat="44.03129" lon="1.84384">
        <ele>275.1</ele>
        <time>2016-08-27T09:25:17Z</time>
      </trkpt>
      <trkpt lat="44.03133" lon="1.8438">
        <ele>275.1</ele>
        <time>2016-08-27T09:25:19Z</time>
      </trkpt>
      <trkpt lat="44.03136" lon="1.84374">
        <ele>275.2</ele>
        <time>2016-08-27T09:25:21Z</time>
      </trkpt>
      <trkpt lat="44.03138" lon="1.84371">
        <ele>275.4</ele>
        <time>2016-08-27T09:25:22Z</time>
      </trkpt>
      <trkpt lat="44.03142" lon="1.84367">
        <ele>275.9</ele>
        <time>2016-08-27T09:25:24Z</time>
      </trkpt>
      <trkpt lat="44.03144" lon="1.84363">
        <ele>276.1</ele>
        <time>2016-08-27T09:25:26Z</time>
      </trkpt>
      <trkpt lat="44.03147" lon="1.84358">
        <ele>276.4</ele>
        <time>2016-08-27T09:25:28Z</time>
      </trkpt>
      <trkpt lat="44.0315" lon="1.84353">
        <ele>276.7</ele>
        <time>2016-08-27T09:25:30Z</time>
      </trkpt>
      <trkpt lat="44.03153" lon="1.84347">
        <ele>277</ele>
        <time>2016-08-27T09:25:32Z</time>
      </trkpt>
      <trkpt lat="44.03154" lon="1.84344">
        <ele>277.2</ele>
        <time>2016-08-27T09:25:33Z</time>
      </trkpt>
      <trkpt lat="44.03156" lon="1.84341">
        <ele>277.4</ele>
        <time>2016-08-27T09:25:34Z</time>
      </trkpt>
      <trkpt lat="44.03159" lon="1.84338">
        <ele>277.6</ele>
        <time>2016-08-27T09:25:35Z</time>
      </trkpt>
      <trkpt lat="44.03161" lon="1.84335">
        <ele>277.8</ele>
        <time>2016-08-27T09:25:36Z</time>
      </trkpt>
      <trkpt lat="44.03162" lon="1.84332">
        <ele>278</ele>
        <time>2016-08-27T09:25:37Z</time>
      </trkpt>
      <trkpt lat="44.03164" lon="1.84329">
        <ele>278.2</ele>
        <time>2016-08-27T09:25:38Z</time>
      </trkpt>
      <trkpt lat="44.03166" lon="1.84326">
        <ele>278.4</ele>
        <time>2016-08-27T09:25:39Z</time>
      </trkpt>
      <trkpt lat="44.03167" lon="1.84322">
        <ele>278.6</ele>
        <time>2016-08-27T09:25:40Z</time>
      </trkpt>
      <trkpt lat="44.03169" lon="1.84319">
        <ele>278.7</ele>
        <time>2016-08-27T09:25:41Z</time>
      </trkpt>
      <trkpt lat="44.0317" lon="1.84315">
        <ele>278.9</ele>
        <time>2016-08-27T09:25:42Z</time>
      </trkpt>
      <trkpt lat="44.03172" lon="1.84309">
        <ele>279.1</ele>
        <time>2016-08-27T09:25:44Z</time>
      </trkpt>
      <trkpt lat="44.03173" lon="1.84302">
        <ele>279.2</ele>
        <time>2016-08-27T09:25:46Z</time>
      </trkpt>
      <trkpt lat="44.03176" lon="1.84295">
        <ele>279.5</ele>
        <time>2016-08-27T09:25:48Z</time>
      </trkpt>
      <trkpt lat="44.03177" lon="1.84291">
        <ele>279.7</ele>
        <time>2016-08-27T09:25:49Z</time>
      </trkpt>
      <trkpt lat="44.03178" lon="1.84287">
        <ele>280.2</ele>
        <time>2016-08-27T09:25:50Z</time>
      </trkpt>
      <trkpt lat="44.0318" lon="1.8428">
        <ele>281.4</ele>
        <time>2016-08-27T09:25:52Z</time>
      </trkpt>
      <trkpt lat="44.03181" lon="1.84276">
        <ele>281.9</ele>
        <time>2016-08-27T09:25:53Z</time>
      </trkpt>
      <trkpt lat="44.03183" lon="1.84272">
        <ele>282.5</ele>
        <time>2016-08-27T09:25:54Z</time>
      </trkpt>
      <trkpt lat="44.03184" lon="1.84266">
        <ele>283.4</ele>
        <time>2016-08-27T09:25:56Z</time>
      </trkpt>
      <trkpt lat="44.03187" lon="1.84259">
        <ele>284.4</ele>
        <time>2016-08-27T09:25:58Z</time>
      </trkpt>
      <trkpt lat="44.03187" lon="1.84254">
        <ele>285.2</ele>
        <time>2016-08-27T09:26:00Z</time>
      </trkpt>
      <trkpt lat="44.03187" lon="1.84248">
        <ele>285.9</ele>
        <time>2016-08-27T09:26:02Z</time>
      </trkpt>
      <trkpt lat="44.03188" lon="1.84241">
        <ele>286.7</ele>
        <time>2016-08-27T09:26:04Z</time>
      </trkpt>
      <trkpt lat="44.03187" lon="1.84234">
        <ele>287.5</ele>
        <time>2016-08-27T09:26:06Z</time>
      </trkpt>
      <trkpt lat="44.03186" lon="1.84227">
        <ele>288.2</ele>
        <time>2016-08-27T09:26:08Z</time>
      </trkpt>
      <trkpt lat="44.03185" lon="1.84219">
        <ele>289</ele>
        <time>2016-08-27T09:26:10Z</time>
      </trkpt>
      <trkpt lat="44.03184" lon="1.84211">
        <ele>289.8</ele>
        <time>2016-08-27T09:26:12Z</time>
      </trkpt>
      <trkpt lat="44.03183" lon="1.84208">
        <ele>290.1</ele>
        <time>2016-08-27T09:26:13Z</time>
      </trkpt>
      <trkpt lat="44.03182" lon="1.84201">
        <ele>290.4</ele>
        <time>2016-08-27T09:26:15Z</time>
      </trkpt>
      <trkpt lat="44.0318" lon="1.84194">
        <ele>290.6</ele>
        <time>2016-08-27T09:26:17Z</time>
      </trkpt>
      <trkpt lat="44.03176" lon="1.84188">
        <ele>290.6</ele>
        <time>2016-08-27T09:26:19Z</time>
      </trkpt>
      <trkpt lat="44.03174" lon="1.84185">
        <ele>290.5</ele>
        <time>2016-08-27T09:26:20Z</time>
      </trkpt>
      <trkpt lat="44.03172" lon="1.84182">
        <ele>290.5</ele>
        <time>2016-08-27T09:26:21Z</time>
      </trkpt>
      <trkpt lat="44.03169" lon="1.84177">
        <ele>290.4</ele>
        <time>2016-08-27T09:26:23Z</time>
      </trkpt>
      <trkpt lat="44.03167" lon="1.84174">
        <ele>290.3</ele>
        <time>2016-08-27T09:26:24Z</time>
      </trkpt>
      <trkpt lat="44.03165" lon="1.84172">
        <ele>290.1</ele>
        <time>2016-08-27T09:26:25Z</time>
      </trkpt>
      <trkpt lat="44.0316" lon="1.84168">
        <ele>289.7</ele>
        <time>2016-08-27T09:26:27Z</time>
      </trkpt>
      <trkpt lat="44.03157" lon="1.84164">
        <ele>289.4</ele>
        <time>2016-08-27T09:26:29Z</time>
      </trkpt>
      <trkpt lat="44.03153" lon="1.84161">
        <ele>289.1</ele>
        <time>2016-08-27T09:26:31Z</time>
      </trkpt>
      <trkpt lat="44.03151" lon="1.84158">
        <ele>288.9</ele>
        <time>2016-08-27T09:26:32Z</time>
      </trkpt>
      <trkpt lat="44.03148" lon="1.84153">
        <ele>288.6</ele>
        <time>2016-08-27T09:26:34Z</time>
      </trkpt>
      <trkpt lat="44.03145" lon="1.84148">
        <ele>288.4</ele>
        <time>2016-08-27T09:26:36Z</time>
      </trkpt>
      <trkpt lat="44.03142" lon="1.84142">
        <ele>288.3</ele>
        <time>2016-08-27T09:26:38Z</time>
      </trkpt>
      <trkpt lat="44.0314" lon="1.84136">
        <ele>288.1</ele>
        <time>2016-08-27T09:26:40Z</time>
      </trkpt>
      <trkpt lat="44.03138" lon="1.84132">
        <ele>288.1</ele>
        <time>2016-08-27T09:26:41Z</time>
      </trkpt>
      <trkpt lat="44.03136" lon="1.84124">
        <ele>287.9</ele>
        <time>2016-08-27T09:26:43Z</time>
      </trkpt>
      <trkpt lat="44.03133" lon="1.8412">
        <ele>287.4</ele>
        <time>2016-08-27T09:26:44Z</time>
      </trkpt>
      <trkpt lat="44.0313" lon="1.84116">
        <ele>286.8</ele>
        <time>2016-08-27T09:26:45Z</time>
      </trkpt>
      <trkpt lat="44.03128" lon="1.84112">
        <ele>286.4</ele>
        <time>2016-08-27T09:26:46Z</time>
      </trkpt>
      <trkpt lat="44.03128" lon="1.84109">
        <ele>286.3</ele>
        <time>2016-08-27T09:26:47Z</time>
      </trkpt>
      <trkpt lat="44.03128" lon="1.84105">
        <ele>286.3</ele>
        <time>2016-08-27T09:26:48Z</time>
      </trkpt>
      <trkpt lat="44.03129" lon="1.84101">
        <ele>286.4</ele>
        <time>2016-08-27T09:26:49Z</time>
      </trkpt>
      <trkpt lat="44.0313" lon="1.84097">
        <ele>286.5</ele>
        <time>2016-08-27T09:26:50Z</time>
      </trkpt>
      <trkpt lat="44.0313" lon="1.84093">
        <ele>286.5</ele>
        <time>2016-08-27T09:26:51Z</time>
      </trkpt>
      <trkpt lat="44.03131" lon="1.8409">
        <ele>286.6</ele>
        <time>2016-08-27T09:26:52Z</time>
      </trkpt>
      <trkpt lat="44.03132" lon="1.84083">
        <ele>286.6</ele>
        <time>2016-08-27T09:26:54Z</time>
      </trkpt>
      <trkpt lat="44.03133" lon="1.84076">
        <ele>286.8</ele>
        <time>2016-08-27T09:26:56Z</time>
      </trkpt>
      <trkpt lat="44.03135" lon="1.8407">
        <ele>287</ele>
        <time>2016-08-27T09:26:58Z</time>
      </trkpt>
      <trkpt lat="44.03138" lon="1.84064">
        <ele>287.5</ele>
        <time>2016-08-27T09:27:00Z</time>
      </trkpt>
      <trkpt lat="44.0314" lon="1.84061">
        <ele>287.7</ele>
        <time>2016-08-27T09:27:01Z</time>
      </trkpt>
      <trkpt lat="44.03141" lon="1.84054">
        <ele>287.9</ele>
        <time>2016-08-27T09:27:03Z</time>
      </trkpt>
      <trkpt lat="44.03141" lon="1.84049">
        <ele>287.8</ele>
        <time>2016-08-27T09:27:05Z</time>
      </trkpt>
      <trkpt lat="44.03142" lon="1.84043">
        <ele>287.9</ele>
        <time>2016-08-27T09:27:07Z</time>
      </trkpt>
      <trkpt lat="44.03143" lon="1.84036">
        <ele>287.8</ele>
        <time>2016-08-27T09:27:09Z</time>
      </trkpt>
      <trkpt lat="44.03146" lon="1.8403">
        <ele>288.3</ele>
        <time>2016-08-27T09:27:11Z</time>
      </trkpt>
      <trkpt lat="44.03149" lon="1.84026">
        <ele>288.6</ele>
        <time>2016-08-27T09:27:12Z</time>
      </trkpt>
      <trkpt lat="44.0315" lon="1.84023">
        <ele>288.8</ele>
        <time>2016-08-27T09:27:13Z</time>
      </trkpt>
      <trkpt lat="44.03152" lon="1.84019">
        <ele>289</ele>
        <time>2016-08-27T09:27:14Z</time>
      </trkpt>
      <trkpt lat="44.03155" lon="1.84012">
        <ele>289.3</ele>
        <time>2016-08-27T09:27:16Z</time>
      </trkpt>
      <trkpt lat="44.03157" lon="1.84006">
        <ele>289.7</ele>
        <time>2016-08-27T09:27:18Z</time>
      </trkpt>
      <trkpt lat="44.03159" lon="1.83999">
        <ele>289.8</ele>
        <time>2016-08-27T09:27:20Z</time>
      </trkpt>
      <trkpt lat="44.0316" lon="1.83995">
        <ele>289.8</ele>
        <time>2016-08-27T09:27:21Z</time>
      </trkpt>
      <trkpt lat="44.03161" lon="1.83988">
        <ele>290</ele>
        <time>2016-08-27T09:27:23Z</time>
      </trkpt>
      <trkpt lat="44.03163" lon="1.83983">
        <ele>290.3</ele>
        <time>2016-08-27T09:27:25Z</time>
      </trkpt>
      <trkpt lat="44.03165" lon="1.83977">
        <ele>290.4</ele>
        <time>2016-08-27T09:27:27Z</time>
      </trkpt>
      <trkpt lat="44.03166" lon="1.83969">
        <ele>290.6</ele>
        <time>2016-08-27T09:27:29Z</time>
      </trkpt>
      <trkpt lat="44.03167" lon="1.83962">
        <ele>290.6</ele>
        <time>2016-08-27T09:27:31Z</time>
      </trkpt>
      <trkpt lat="44.03168" lon="1.83958">
        <ele>290.7</ele>
        <time>2016-08-27T09:27:32Z</time>
      </trkpt>
      <trkpt lat="44.0317" lon="1.83951">
        <ele>290.9</ele>
        <time>2016-08-27T09:27:34Z</time>
      </trkpt>
      <trkpt lat="44.03171" lon="1.83944">
        <ele>290.9</ele>
        <time>2016-08-27T09:27:36Z</time>
      </trkpt>
      <trkpt lat="44.03171" lon="1.8394">
        <ele>290.8</ele>
        <time>2016-08-27T09:27:37Z</time>
      </trkpt>
      <trkpt lat="44.03172" lon="1.83936">
        <ele>290.9</ele>
        <time>2016-08-27T09:27:38Z</time>
      </trkpt>
      <trkpt lat="44.03173" lon="1.83932">
        <ele>291</ele>
        <time>2016-08-27T09:27:39Z</time>
      </trkpt>
      <trkpt lat="44.03175" lon="1.83925">
        <ele>291.3</ele>
        <time>2016-08-27T09:27:41Z</time>
      </trkpt>
      <trkpt lat="44.03176" lon="1.83922">
        <ele>291.4</ele>
        <time>2016-08-27T09:27:42Z</time>
      </trkpt>
      <trkpt lat="44.03178" lon="1.83918">
        <ele>291.6</ele>
        <time>2016-08-27T09:27:43Z</time>
      </trkpt>
      <trkpt lat="44.0318" lon="1.83911">
        <ele>291.9</ele>
        <time>2016-08-27T09:27:45Z</time>
      </trkpt>
      <trkpt lat="44.03182" lon="1.83904">
        <ele>292</ele>
        <time>2016-08-27T09:27:47Z</time>
      </trkpt>
      <trkpt lat="44.03184" lon="1.83897">
        <ele>292.3</ele>
        <time>2016-08-27T09:27:49Z</time>
      </trkpt>
      <trkpt lat="44.03185" lon="1.8389">
        <ele>292.4</ele>
        <time>2016-08-27T09:27:51Z</time>
      </trkpt>
      <trkpt lat="44.03187" lon="1.83886">
        <ele>292.6</ele>
        <time>2016-08-27T09:27:52Z</time>
      </trkpt>
      <trkpt lat="44.03188" lon="1.83882">
        <ele>292.7</ele>
        <time>2016-08-27T09:27:53Z</time>
      </trkpt>
      <trkpt lat="44.03189" lon="1.83879">
        <ele>292.9</ele>
        <time>2016-08-27T09:27:54Z</time>
      </trkpt>
      <trkpt lat="44.03191" lon="1.83875">
        <ele>293.1</ele>
        <time>2016-08-27T09:27:55Z</time>
      </trkpt>
      <trkpt lat="44.03192" lon="1.83871">
        <ele>293.4</ele>
        <time>2016-08-27T09:27:56Z</time>
      </trkpt>
      <trkpt lat="44.03193" lon="1.83867">
        <ele>293.5</ele>
        <time>2016-08-27T09:27:57Z</time>
      </trkpt>
      <trkpt lat="44.03194" lon="1.83863">
        <ele>293.7</ele>
        <time>2016-08-27T09:27:58Z</time>
      </trkpt>
      <trkpt lat="44.03196" lon="1.83858">
        <ele>294</ele>
        <time>2016-08-27T09:27:59Z</time>
      </trkpt>
      <trkpt lat="44.03197" lon="1.83854">
        <ele>294.3</ele>
        <time>2016-08-27T09:28:00Z</time>
      </trkpt>
      <trkpt lat="44.03198" lon="1.8385">
        <ele>294.4</ele>
        <time>2016-08-27T09:28:01Z</time>
      </trkpt>
      <trkpt lat="44.03199" lon="1.83846">
        <ele>294.6</ele>
        <time>2016-08-27T09:28:02Z</time>
      </trkpt>
      <trkpt lat="44.032" lon="1.83842">
        <ele>294.8</ele>
        <time>2016-08-27T09:28:03Z</time>
      </trkpt>
      <trkpt lat="44.03201" lon="1.83838">
        <ele>295</ele>
        <time>2016-08-27T09:28:04Z</time>
      </trkpt>
      <trkpt lat="44.03203" lon="1.83833">
        <ele>295.4</ele>
        <time>2016-08-27T09:28:05Z</time>
      </trkpt>
      <trkpt lat="44.03205" lon="1.83829">
        <ele>295.6</ele>
        <time>2016-08-27T09:28:06Z</time>
      </trkpt>
      <trkpt lat="44.03206" lon="1.83825">
        <ele>295.9</ele>
        <time>2016-08-27T09:28:07Z</time>
      </trkpt>
      <trkpt lat="44.03207" lon="1.83821">
        <ele>296</ele>
        <time>2016-08-27T09:28:08Z</time>
      </trkpt>
      <trkpt lat="44.03207" lon="1.83816">
        <ele>296.1</ele>
        <time>2016-08-27T09:28:09Z</time>
      </trkpt>
      <trkpt lat="44.03208" lon="1.83813">
        <ele>296.2</ele>
        <time>2016-08-27T09:28:10Z</time>
      </trkpt>
      <trkpt lat="44.03208" lon="1.83808">
        <ele>296.1</ele>
        <time>2016-08-27T09:28:11Z</time>
      </trkpt>
      <trkpt lat="44.03209" lon="1.83801">
        <ele>296.2</ele>
        <time>2016-08-27T09:28:13Z</time>
      </trkpt>
      <trkpt lat="44.03212" lon="1.83796">
        <ele>296.6</ele>
        <time>2016-08-27T09:28:15Z</time>
      </trkpt>
      <trkpt lat="44.03214" lon="1.83793">
        <ele>296.8</ele>
        <time>2016-08-27T09:28:16Z</time>
      </trkpt>
      <trkpt lat="44.03216" lon="1.83791">
        <ele>297.1</ele>
        <time>2016-08-27T09:28:17Z</time>
      </trkpt>
      <trkpt lat="44.03219" lon="1.83787">
        <ele>297.2</ele>
        <time>2016-08-27T09:28:18Z</time>
      </trkpt>
      <trkpt lat="44.0322" lon="1.83784">
        <ele>297.3</ele>
        <time>2016-08-27T09:28:19Z</time>
      </trkpt>
      <trkpt lat="44.03223" lon="1.83778">
        <ele>297.3</ele>
        <time>2016-08-27T09:28:21Z</time>
      </trkpt>
      <trkpt lat="44.03223" lon="1.83774">
        <ele>297.1</ele>
        <time>2016-08-27T09:28:22Z</time>
      </trkpt>
      <trkpt lat="44.03225" lon="1.83768">
        <ele>297</ele>
        <time>2016-08-27T09:28:24Z</time>
      </trkpt>
      <trkpt lat="44.03228" lon="1.83763">
        <ele>297.1</ele>
        <time>2016-08-27T09:28:26Z</time>
      </trkpt>
      <trkpt lat="44.0323" lon="1.8376">
        <ele>297.2</ele>
        <time>2016-08-27T09:28:28Z</time>
      </trkpt>
      <trkpt lat="44.03227" lon="1.83762">
        <ele>297</ele>
        <time>2016-08-27T09:28:31Z</time>
      </trkpt>
      <trkpt lat="44.03227" lon="1.83766">
        <ele>297.2</ele>
        <time>2016-08-27T09:28:39Z</time>
      </trkpt>
      <trkpt lat="44.0323" lon="1.83765">
        <ele>297.5</ele>
        <time>2016-08-27T09:28:42Z</time>
      </trkpt>
      <trkpt lat="44.03234" lon="1.83762">
        <ele>297.8</ele>
        <time>2016-08-27T09:28:45Z</time>
      </trkpt>
      <trkpt lat="44.03236" lon="1.83758">
        <ele>297.8</ele>
        <time>2016-08-27T09:28:48Z</time>
      </trkpt>
      <trkpt lat="44.03238" lon="1.83753">
        <ele>297.8</ele>
        <time>2016-08-27T09:28:51Z</time>
      </trkpt>
      <trkpt lat="44.03241" lon="1.83749">
        <ele>297.8</ele>
        <time>2016-08-27T09:28:53Z</time>
      </trkpt>
      <trkpt lat="44.03244" lon="1.83743">
        <ele>297.8</ele>
        <time>2016-08-27T09:28:55Z</time>
      </trkpt>
      <trkpt lat="44.03246" lon="1.83741">
        <ele>297.9</ele>
        <time>2016-08-27T09:28:56Z</time>
      </trkpt>
      <trkpt lat="44.03248" lon="1.83738">
        <ele>298</ele>
        <time>2016-08-27T09:28:57Z</time>
      </trkpt>
      <trkpt lat="44.03252" lon="1.83733">
        <ele>298</ele>
        <time>2016-08-27T09:28:59Z</time>
      </trkpt>
      <trkpt lat="44.03254" lon="1.83731">
        <ele>298</ele>
        <time>2016-08-27T09:29:00Z</time>
      </trkpt>
      <trkpt lat="44.03256" lon="1.83729">
        <ele>298.1</ele>
        <time>2016-08-27T09:29:01Z</time>
      </trkpt>
      <trkpt lat="44.03259" lon="1.83726">
        <ele>298.2</ele>
        <time>2016-08-27T09:29:02Z</time>
      </trkpt>
      <trkpt lat="44.03263" lon="1.83722">
        <ele>298.4</ele>
        <time>2016-08-27T09:29:04Z</time>
      </trkpt>
      <trkpt lat="44.03266" lon="1.83721">
        <ele>298.5</ele>
        <time>2016-08-27T09:29:05Z</time>
      </trkpt>
      <trkpt lat="44.03268" lon="1.83719">
        <ele>298.7</ele>
        <time>2016-08-27T09:29:06Z</time>
      </trkpt>
      <trkpt lat="44.03271" lon="1.83718">
        <ele>298.8</ele>
        <time>2016-08-27T09:29:07Z</time>
      </trkpt>
      <trkpt lat="44.03274" lon="1.83716">
        <ele>299</ele>
        <time>2016-08-27T09:29:08Z</time>
      </trkpt>
      <trkpt lat="44.03277" lon="1.83714">
        <ele>299.1</ele>
        <time>2016-08-27T09:29:09Z</time>
      </trkpt>
      <trkpt lat="44.03279" lon="1.83713">
        <ele>299.2</ele>
        <time>2016-08-27T09:29:10Z</time>
      </trkpt>
      <trkpt lat="44.03282" lon="1.83711">
        <ele>299.3</ele>
        <time>2016-08-27T09:29:11Z</time>
      </trkpt>
      <trkpt lat="44.03285" lon="1.8371">
        <ele>299.4</ele>
        <time>2016-08-27T09:29:12Z</time>
      </trkpt>
      <trkpt lat="44.03287" lon="1.83708">
        <ele>299.6</ele>
        <time>2016-08-27T09:29:13Z</time>
      </trkpt>
      <trkpt lat="44.0329" lon="1.83706">
        <ele>299.6</ele>
        <time>2016-08-27T09:29:14Z</time>
      </trkpt>
      <trkpt lat="44.03293" lon="1.83704">
        <ele>299.6</ele>
        <time>2016-08-27T09:29:15Z</time>
      </trkpt>
      <trkpt lat="44.03295" lon="1.83702">
        <ele>299.7</ele>
        <time>2016-08-27T09:29:16Z</time>
      </trkpt>
      <trkpt lat="44.03298" lon="1.83699">
        <ele>299.9</ele>
        <time>2016-08-27T09:29:17Z</time>
      </trkpt>
      <trkpt lat="44.03301" lon="1.83697">
        <ele>300.1</ele>
        <time>2016-08-27T09:29:18Z</time>
      </trkpt>
      <trkpt lat="44.03304" lon="1.83696">
        <ele>300.6</ele>
        <time>2016-08-27T09:29:19Z</time>
      </trkpt>
      <trkpt lat="44.03307" lon="1.83694">
        <ele>301</ele>
        <time>2016-08-27T09:29:20Z</time>
      </trkpt>
      <trkpt lat="44.0331" lon="1.83693">
        <ele>301.4</ele>
        <time>2016-08-27T09:29:21Z</time>
      </trkpt>
      <trkpt lat="44.03313" lon="1.83691">
        <ele>301.7</ele>
        <time>2016-08-27T09:29:22Z</time>
      </trkpt>
      <trkpt lat="44.03317" lon="1.83686">
        <ele>302</ele>
        <time>2016-08-27T09:29:24Z</time>
      </trkpt>
      <trkpt lat="44.03319" lon="1.83683">
        <ele>302</ele>
        <time>2016-08-27T09:29:25Z</time>
      </trkpt>
      <trkpt lat="44.03321" lon="1.8368">
        <ele>302.1</ele>
        <time>2016-08-27T09:29:26Z</time>
      </trkpt>
      <trkpt lat="44.03323" lon="1.83677">
        <ele>302.1</ele>
        <time>2016-08-27T09:29:27Z</time>
      </trkpt>
      <trkpt lat="44.03327" lon="1.83671">
        <ele>302.4</ele>
        <time>2016-08-27T09:29:29Z</time>
      </trkpt>
      <trkpt lat="44.03331" lon="1.83666">
        <ele>302.8</ele>
        <time>2016-08-27T09:29:31Z</time>
      </trkpt>
      <trkpt lat="44.03332" lon="1.83662">
        <ele>302.8</ele>
        <time>2016-08-27T09:29:32Z</time>
      </trkpt>
      <trkpt lat="44.03334" lon="1.83659">
        <ele>303</ele>
        <time>2016-08-27T09:29:33Z</time>
      </trkpt>
      <trkpt lat="44.03338" lon="1.83652">
        <ele>303.4</ele>
        <time>2016-08-27T09:29:35Z</time>
      </trkpt>
      <trkpt lat="44.03341" lon="1.8365">
        <ele>303.7</ele>
        <time>2016-08-27T09:29:36Z</time>
      </trkpt>
      <trkpt lat="44.03344" lon="1.83643">
        <ele>304</ele>
        <time>2016-08-27T09:29:38Z</time>
      </trkpt>
      <trkpt lat="44.03347" lon="1.83636">
        <ele>304.1</ele>
        <time>2016-08-27T09:29:40Z</time>
      </trkpt>
      <trkpt lat="44.03348" lon="1.8363">
        <ele>303.9</ele>
        <time>2016-08-27T09:29:42Z</time>
      </trkpt>
      <trkpt lat="44.03349" lon="1.83622">
        <ele>303.6</ele>
        <time>2016-08-27T09:29:44Z</time>
      </trkpt>
      <trkpt lat="44.03349" lon="1.83618">
        <ele>303.6</ele>
        <time>2016-08-27T09:29:45Z</time>
      </trkpt>
      <trkpt lat="44.0335" lon="1.83614">
        <ele>303.5</ele>
        <time>2016-08-27T09:29:46Z</time>
      </trkpt>
      <trkpt lat="44.03349" lon="1.83609">
        <ele>303.3</ele>
        <time>2016-08-27T09:29:47Z</time>
      </trkpt>
      <trkpt lat="44.03349" lon="1.836">
        <ele>302.8</ele>
        <time>2016-08-27T09:29:49Z</time>
      </trkpt>
      <trkpt lat="44.03349" lon="1.83596">
        <ele>302.7</ele>
        <time>2016-08-27T09:29:50Z</time>
      </trkpt>
      <trkpt lat="44.0335" lon="1.83591">
        <ele>302.6</ele>
        <time>2016-08-27T09:29:51Z</time>
      </trkpt>
      <trkpt lat="44.0335" lon="1.83586">
        <ele>302.5</ele>
        <time>2016-08-27T09:29:52Z</time>
      </trkpt>
      <trkpt lat="44.03351" lon="1.83581">
        <ele>302.5</ele>
        <time>2016-08-27T09:29:53Z</time>
      </trkpt>
      <trkpt lat="44.03351" lon="1.83578">
        <ele>302.5</ele>
        <time>2016-08-27T09:29:54Z</time>
      </trkpt>
      <trkpt lat="44.03351" lon="1.83573">
        <ele>302.4</ele>
        <time>2016-08-27T09:29:55Z</time>
      </trkpt>
      <trkpt lat="44.03352" lon="1.83569">
        <ele>302.4</ele>
        <time>2016-08-27T09:29:56Z</time>
      </trkpt>
      <trkpt lat="44.03352" lon="1.83564">
        <ele>302.2</ele>
        <time>2016-08-27T09:29:57Z</time>
      </trkpt>
      <trkpt lat="44.03352" lon="1.8356">
        <ele>302.2</ele>
        <time>2016-08-27T09:29:58Z</time>
      </trkpt>
      <trkpt lat="44.03353" lon="1.83556">
        <ele>302.3</ele>
        <time>2016-08-27T09:29:59Z</time>
      </trkpt>
      <trkpt lat="44.03353" lon="1.83552">
        <ele>302.3</ele>
        <time>2016-08-27T09:30:00Z</time>
      </trkpt>
      <trkpt lat="44.03353" lon="1.83547">
        <ele>302</ele>
        <time>2016-08-27T09:30:01Z</time>
      </trkpt>
      <trkpt lat="44.03353" lon="1.83544">
        <ele>301.9</ele>
        <time>2016-08-27T09:30:02Z</time>
      </trkpt>
      <trkpt lat="44.03351" lon="1.83538">
        <ele>301</ele>
        <time>2016-08-27T09:30:03Z</time>
      </trkpt>
      <trkpt lat="44.03351" lon="1.83534">
        <ele>300.8</ele>
        <time>2016-08-27T09:30:04Z</time>
      </trkpt>
      <trkpt lat="44.03351" lon="1.83529">
        <ele>300.5</ele>
        <time>2016-08-27T09:30:05Z</time>
      </trkpt>
      <trkpt lat="44.03351" lon="1.83524">
        <ele>300.4</ele>
        <time>2016-08-27T09:30:06Z</time>
      </trkpt>
      <trkpt lat="44.03352" lon="1.83519">
        <ele>300.5</ele>
        <time>2016-08-27T09:30:07Z</time>
      </trkpt>
      <trkpt lat="44.03353" lon="1.83515">
        <ele>300.8</ele>
        <time>2016-08-27T09:30:08Z</time>
      </trkpt>
      <trkpt lat="44.03354" lon="1.83511">
        <ele>301.2</ele>
        <time>2016-08-27T09:30:09Z</time>
      </trkpt>
      <trkpt lat="44.03356" lon="1.83508">
        <ele>301.4</ele>
        <time>2016-08-27T09:30:10Z</time>
      </trkpt>
      <trkpt lat="44.03357" lon="1.83504">
        <ele>301.7</ele>
        <time>2016-08-27T09:30:11Z</time>
      </trkpt>
      <trkpt lat="44.03358" lon="1.83501">
        <ele>302.1</ele>
        <time>2016-08-27T09:30:12Z</time>
      </trkpt>
      <trkpt lat="44.0336" lon="1.83497">
        <ele>302.7</ele>
        <time>2016-08-27T09:30:13Z</time>
      </trkpt>
      <trkpt lat="44.03362" lon="1.83494">
        <ele>303.2</ele>
        <time>2016-08-27T09:30:14Z</time>
      </trkpt>
      <trkpt lat="44.03366" lon="1.83491">
        <ele>304.3</ele>
        <time>2016-08-27T09:30:15Z</time>
      </trkpt>
      <trkpt lat="44.03368" lon="1.83489">
        <ele>304.9</ele>
        <time>2016-08-27T09:30:16Z</time>
      </trkpt>
      <trkpt lat="44.03371" lon="1.83485">
        <ele>305.7</ele>
        <time>2016-08-27T09:30:17Z</time>
      </trkpt>
      <trkpt lat="44.03373" lon="1.83482">
        <ele>306.3</ele>
        <time>2016-08-27T09:30:18Z</time>
      </trkpt>
      <trkpt lat="44.03375" lon="1.83478">
        <ele>307</ele>
        <time>2016-08-27T09:30:19Z</time>
      </trkpt>
      <trkpt lat="44.03377" lon="1.83476">
        <ele>307.1</ele>
        <time>2016-08-27T09:30:20Z</time>
      </trkpt>
      <trkpt lat="44.0338" lon="1.83472">
        <ele>307.5</ele>
        <time>2016-08-27T09:30:21Z</time>
      </trkpt>
      <trkpt lat="44.03383" lon="1.83468">
        <ele>307.7</ele>
        <time>2016-08-27T09:30:22Z</time>
      </trkpt>
      <trkpt lat="44.03385" lon="1.83466">
        <ele>307.9</ele>
        <time>2016-08-27T09:30:23Z</time>
      </trkpt>
      <trkpt lat="44.03388" lon="1.8346">
        <ele>308.2</ele>
        <time>2016-08-27T09:30:24Z</time>
      </trkpt>
      <trkpt lat="44.0339" lon="1.83458">
        <ele>308.3</ele>
        <time>2016-08-27T09:30:25Z</time>
      </trkpt>
      <trkpt lat="44.03394" lon="1.83454">
        <ele>308</ele>
        <time>2016-08-27T09:30:26Z</time>
      </trkpt>
      <trkpt lat="44.03396" lon="1.83451">
        <ele>307.8</ele>
        <time>2016-08-27T09:30:27Z</time>
      </trkpt>
      <trkpt lat="44.034" lon="1.83448">
        <ele>307.7</ele>
        <time>2016-08-27T09:30:28Z</time>
      </trkpt>
      <trkpt lat="44.03403" lon="1.83446">
        <ele>307.8</ele>
        <time>2016-08-27T09:30:29Z</time>
      </trkpt>
      <trkpt lat="44.03407" lon="1.83443">
        <ele>308</ele>
        <time>2016-08-27T09:30:30Z</time>
      </trkpt>
      <trkpt lat="44.0341" lon="1.83441">
        <ele>308.1</ele>
        <time>2016-08-27T09:30:31Z</time>
      </trkpt>
      <trkpt lat="44.03413" lon="1.83439">
        <ele>308.1</ele>
        <time>2016-08-27T09:30:32Z</time>
      </trkpt>
      <trkpt lat="44.03415" lon="1.83437">
        <ele>308</ele>
        <time>2016-08-27T09:30:33Z</time>
      </trkpt>
      <trkpt lat="44.03419" lon="1.83433">
        <ele>308.1</ele>
        <time>2016-08-27T09:30:35Z</time>
      </trkpt>
      <trkpt lat="44.03426" lon="1.83433">
        <ele>309.2</ele>
        <time>2016-08-27T09:30:37Z</time>
      </trkpt>
      <trkpt lat="44.03429" lon="1.83434">
        <ele>309.9</ele>
        <time>2016-08-27T09:30:38Z</time>
      </trkpt>
      <trkpt lat="44.03433" lon="1.83434">
        <ele>310.6</ele>
        <time>2016-08-27T09:30:39Z</time>
      </trkpt>
      <trkpt lat="44.03438" lon="1.83435">
        <ele>311.6</ele>
        <time>2016-08-27T09:30:41Z</time>
      </trkpt>
      <trkpt lat="44.03443" lon="1.83436">
        <ele>312.7</ele>
        <time>2016-08-27T09:30:43Z</time>
      </trkpt>
      <trkpt lat="44.03446" lon="1.83438">
        <ele>313.4</ele>
        <time>2016-08-27T09:30:44Z</time>
      </trkpt>
      <trkpt lat="44.03452" lon="1.8344">
        <ele>314.8</ele>
        <time>2016-08-27T09:30:46Z</time>
      </trkpt>
      <trkpt lat="44.03455" lon="1.83441">
        <ele>315.5</ele>
        <time>2016-08-27T09:30:47Z</time>
      </trkpt>
      <trkpt lat="44.03458" lon="1.83444">
        <ele>316.4</ele>
        <time>2016-08-27T09:30:48Z</time>
      </trkpt>
      <trkpt lat="44.03461" lon="1.83446">
        <ele>316.8</ele>
        <time>2016-08-27T09:30:49Z</time>
      </trkpt>
      <trkpt lat="44.03464" lon="1.83449">
        <ele>317</ele>
        <time>2016-08-27T09:30:50Z</time>
      </trkpt>
      <trkpt lat="44.03467" lon="1.83451">
        <ele>317.2</ele>
        <time>2016-08-27T09:30:51Z</time>
      </trkpt>
      <trkpt lat="44.0347" lon="1.83452">
        <ele>317.2</ele>
        <time>2016-08-27T09:30:52Z</time>
      </trkpt>
      <trkpt lat="44.03473" lon="1.83454">
        <ele>317.4</ele>
        <time>2016-08-27T09:30:53Z</time>
      </trkpt>
      <trkpt lat="44.03476" lon="1.83456">
        <ele>317.5</ele>
        <time>2016-08-27T09:30:54Z</time>
      </trkpt>
      <trkpt lat="44.03479" lon="1.83458">
        <ele>317.7</ele>
        <time>2016-08-27T09:30:55Z</time>
      </trkpt>
      <trkpt lat="44.03482" lon="1.8346">
        <ele>317.8</ele>
        <time>2016-08-27T09:30:56Z</time>
      </trkpt>
      <trkpt lat="44.03485" lon="1.83461">
        <ele>317.8</ele>
        <time>2016-08-27T09:30:57Z</time>
      </trkpt>
      <trkpt lat="44.03488" lon="1.83464">
        <ele>318</ele>
        <time>2016-08-27T09:30:58Z</time>
      </trkpt>
      <trkpt lat="44.03491" lon="1.83466">
        <ele>318</ele>
        <time>2016-08-27T09:30:59Z</time>
      </trkpt>
      <trkpt lat="44.03494" lon="1.83467">
        <ele>318.1</ele>
        <time>2016-08-27T09:31:00Z</time>
      </trkpt>
      <trkpt lat="44.03497" lon="1.83468">
        <ele>318</ele>
        <time>2016-08-27T09:31:01Z</time>
      </trkpt>
      <trkpt lat="44.035" lon="1.83469">
        <ele>318</ele>
        <time>2016-08-27T09:31:02Z</time>
      </trkpt>
      <trkpt lat="44.03503" lon="1.8347">
        <ele>318</ele>
        <time>2016-08-27T09:31:03Z</time>
      </trkpt>
      <trkpt lat="44.03505" lon="1.83471">
        <ele>318.2</ele>
        <time>2016-08-27T09:31:04Z</time>
      </trkpt>
      <trkpt lat="44.0351" lon="1.83474">
        <ele>318.3</ele>
        <time>2016-08-27T09:31:06Z</time>
      </trkpt>
      <trkpt lat="44.03514" lon="1.83477">
        <ele>318.6</ele>
        <time>2016-08-27T09:31:08Z</time>
      </trkpt>
      <trkpt lat="44.03518" lon="1.83479">
        <ele>318.8</ele>
        <time>2016-08-27T09:31:10Z</time>
      </trkpt>
      <trkpt lat="44.03521" lon="1.83482">
        <ele>319.2</ele>
        <time>2016-08-27T09:31:12Z</time>
      </trkpt>
      <trkpt lat="44.03525" lon="1.83483">
        <ele>319.2</ele>
        <time>2016-08-27T09:31:18Z</time>
      </trkpt>
      <trkpt lat="44.03527" lon="1.8348">
        <ele>318.7</ele>
        <time>2016-08-27T09:31:22Z</time>
      </trkpt>
      <trkpt lat="44.03531" lon="1.8348">
        <ele>318.6</ele>
        <time>2016-08-27T09:31:24Z</time>
      </trkpt>
      <trkpt lat="44.03533" lon="1.83481">
        <ele>318.5</ele>
        <time>2016-08-27T09:31:25Z</time>
      </trkpt>
      <trkpt lat="44.03541" lon="1.8348">
        <ele>318.2</ele>
        <time>2016-08-27T09:31:27Z</time>
      </trkpt>
      <trkpt lat="44.03544" lon="1.83479">
        <ele>318.2</ele>
        <time>2016-08-27T09:31:28Z</time>
      </trkpt>
      <trkpt lat="44.03547" lon="1.83479">
        <ele>318.2</ele>
        <time>2016-08-27T09:31:29Z</time>
      </trkpt>
      <trkpt lat="44.0355" lon="1.83478">
        <ele>318.2</ele>
        <time>2016-08-27T09:31:30Z</time>
      </trkpt>
      <trkpt lat="44.03555" lon="1.83476">
        <ele>318</ele>
        <time>2016-08-27T09:31:32Z</time>
      </trkpt>
      <trkpt lat="44.03559" lon="1.83474">
        <ele>317.8</ele>
        <time>2016-08-27T09:31:34Z</time>
      </trkpt>
      <trkpt lat="44.03565" lon="1.83473">
        <ele>317.7</ele>
        <time>2016-08-27T09:31:36Z</time>
      </trkpt>
      <trkpt lat="44.03568" lon="1.83473">
        <ele>317.8</ele>
        <time>2016-08-27T09:31:37Z</time>
      </trkpt>
      <trkpt lat="44.03571" lon="1.83472">
        <ele>317.9</ele>
        <time>2016-08-27T09:31:38Z</time>
      </trkpt>
      <trkpt lat="44.03573" lon="1.83471">
        <ele>317.8</ele>
        <time>2016-08-27T09:31:39Z</time>
      </trkpt>
      <trkpt lat="44.03576" lon="1.8347">
        <ele>317.6</ele>
        <time>2016-08-27T09:31:40Z</time>
      </trkpt>
      <trkpt lat="44.03579" lon="1.83469">
        <ele>317.5</ele>
        <time>2016-08-27T09:31:41Z</time>
      </trkpt>
      <trkpt lat="44.03584" lon="1.83467">
        <ele>317.3</ele>
        <time>2016-08-27T09:31:43Z</time>
      </trkpt>
      <trkpt lat="44.03588" lon="1.83464">
        <ele>316.9</ele>
        <time>2016-08-27T09:31:45Z</time>
      </trkpt>
      <trkpt lat="44.03593" lon="1.83462">
        <ele>316.5</ele>
        <time>2016-08-27T09:31:47Z</time>
      </trkpt>
      <trkpt lat="44.03596" lon="1.83461">
        <ele>316.4</ele>
        <time>2016-08-27T09:31:48Z</time>
      </trkpt>
      <trkpt lat="44.03601" lon="1.83458">
        <ele>316.1</ele>
        <time>2016-08-27T09:31:50Z</time>
      </trkpt>
      <trkpt lat="44.03604" lon="1.83457">
        <ele>316</ele>
        <time>2016-08-27T09:31:51Z</time>
      </trkpt>
      <trkpt lat="44.03608" lon="1.83456">
        <ele>315.8</ele>
        <time>2016-08-27T09:31:53Z</time>
      </trkpt>
      <trkpt lat="44.03611" lon="1.83455">
        <ele>315.8</ele>
        <time>2016-08-27T09:31:55Z</time>
      </trkpt>
      <trkpt lat="44.03615" lon="1.83454">
        <ele>315.8</ele>
        <time>2016-08-27T09:31:57Z</time>
      </trkpt>
      <trkpt lat="44.03618" lon="1.83454">
        <ele>315.8</ele>
        <time>2016-08-27T09:31:59Z</time>
      </trkpt>
      <trkpt lat="44.03622" lon="1.8345">
        <ele>315.2</ele>
        <time>2016-08-27T09:32:01Z</time>
      </trkpt>
      <trkpt lat="44.03626" lon="1.83445">
        <ele>314.5</ele>
        <time>2016-08-27T09:32:03Z</time>
      </trkpt>
      <trkpt lat="44.0363" lon="1.8344">
        <ele>314.3</ele>
        <time>2016-08-27T09:32:05Z</time>
      </trkpt>
      <trkpt lat="44.03631" lon="1.83436">
        <ele>314.1</ele>
        <time>2016-08-27T09:32:06Z</time>
      </trkpt>
      <trkpt lat="44.03633" lon="1.83433">
        <ele>313.9</ele>
        <time>2016-08-27T09:32:07Z</time>
      </trkpt>
      <trkpt lat="44.03635" lon="1.83431">
        <ele>314</ele>
        <time>2016-08-27T09:32:08Z</time>
      </trkpt>
      <trkpt lat="44.03641" lon="1.83427">
        <ele>314.7</ele>
        <time>2016-08-27T09:32:10Z</time>
      </trkpt>
      <trkpt lat="44.03646" lon="1.83424">
        <ele>315.4</ele>
        <time>2016-08-27T09:32:12Z</time>
      </trkpt>
      <trkpt lat="44.0365" lon="1.8342">
        <ele>315.9</ele>
        <time>2016-08-27T09:32:14Z</time>
      </trkpt>
      <trkpt lat="44.03654" lon="1.83414">
        <ele>316</ele>
        <time>2016-08-27T09:32:16Z</time>
      </trkpt>
      <trkpt lat="44.03656" lon="1.83411">
        <ele>316.1</ele>
        <time>2016-08-27T09:32:17Z</time>
      </trkpt>
      <trkpt lat="44.03658" lon="1.83408">
        <ele>316.2</ele>
        <time>2016-08-27T09:32:18Z</time>
      </trkpt>
      <trkpt lat="44.03662" lon="1.83403">
        <ele>316.7</ele>
        <time>2016-08-27T09:32:20Z</time>
      </trkpt>
      <trkpt lat="44.03664" lon="1.83401">
        <ele>316.8</ele>
        <time>2016-08-27T09:32:21Z</time>
      </trkpt>
      <trkpt lat="44.03666" lon="1.83397">
        <ele>316.9</ele>
        <time>2016-08-27T09:32:22Z</time>
      </trkpt>
      <trkpt lat="44.03668" lon="1.83394">
        <ele>317</ele>
        <time>2016-08-27T09:32:23Z</time>
      </trkpt>
      <trkpt lat="44.03672" lon="1.83387">
        <ele>317.4</ele>
        <time>2016-08-27T09:32:25Z</time>
      </trkpt>
      <trkpt lat="44.03674" lon="1.83384">
        <ele>317.7</ele>
        <time>2016-08-27T09:32:26Z</time>
      </trkpt>
      <trkpt lat="44.03679" lon="1.83378">
        <ele>318.4</ele>
        <time>2016-08-27T09:32:28Z</time>
      </trkpt>
      <trkpt lat="44.03681" lon="1.83374">
        <ele>318.7</ele>
        <time>2016-08-27T09:32:29Z</time>
      </trkpt>
      <trkpt lat="44.03683" lon="1.83371">
        <ele>319.3</ele>
        <time>2016-08-27T09:32:30Z</time>
      </trkpt>
      <trkpt lat="44.03685" lon="1.83368">
        <ele>320.1</ele>
        <time>2016-08-27T09:32:31Z</time>
      </trkpt>
      <trkpt lat="44.0369" lon="1.83362">
        <ele>321.8</ele>
        <time>2016-08-27T09:32:33Z</time>
      </trkpt>
      <trkpt lat="44.03692" lon="1.83359">
        <ele>322.5</ele>
        <time>2016-08-27T09:32:34Z</time>
      </trkpt>
      <trkpt lat="44.03694" lon="1.83356">
        <ele>323.2</ele>
        <time>2016-08-27T09:32:35Z</time>
      </trkpt>
      <trkpt lat="44.03695" lon="1.83352">
        <ele>323.9</ele>
        <time>2016-08-27T09:32:36Z</time>
      </trkpt>
      <trkpt lat="44.03698" lon="1.83349">
        <ele>324.7</ele>
        <time>2016-08-27T09:32:37Z</time>
      </trkpt>
      <trkpt lat="44.03701" lon="1.83343">
        <ele>326.2</ele>
        <time>2016-08-27T09:32:39Z</time>
      </trkpt>
      <trkpt lat="44.03703" lon="1.83339">
        <ele>326.7</ele>
        <time>2016-08-27T09:32:40Z</time>
      </trkpt>
      <trkpt lat="44.03703" lon="1.83335">
        <ele>327</ele>
        <time>2016-08-27T09:32:41Z</time>
      </trkpt>
      <trkpt lat="44.03704" lon="1.83328">
        <ele>327.5</ele>
        <time>2016-08-27T09:32:43Z</time>
      </trkpt>
      <trkpt lat="44.03705" lon="1.83324">
        <ele>327.9</ele>
        <time>2016-08-27T09:32:44Z</time>
      </trkpt>
      <trkpt lat="44.03705" lon="1.8332">
        <ele>328.1</ele>
        <time>2016-08-27T09:32:45Z</time>
      </trkpt>
      <trkpt lat="44.03705" lon="1.83312">
        <ele>328.3</ele>
        <time>2016-08-27T09:32:47Z</time>
      </trkpt>
      <trkpt lat="44.03706" lon="1.83308">
        <ele>328.5</ele>
        <time>2016-08-27T09:32:48Z</time>
      </trkpt>
      <trkpt lat="44.03706" lon="1.83304">
        <ele>328.9</ele>
        <time>2016-08-27T09:32:49Z</time>
      </trkpt>
      <trkpt lat="44.03708" lon="1.83296">
        <ele>329.6</ele>
        <time>2016-08-27T09:32:51Z</time>
      </trkpt>
      <trkpt lat="44.03708" lon="1.83288">
        <ele>329.9</ele>
        <time>2016-08-27T09:32:53Z</time>
      </trkpt>
      <trkpt lat="44.03708" lon="1.83284">
        <ele>329.9</ele>
        <time>2016-08-27T09:32:54Z</time>
      </trkpt>
      <trkpt lat="44.03707" lon="1.83276">
        <ele>329.6</ele>
        <time>2016-08-27T09:32:56Z</time>
      </trkpt>
      <trkpt lat="44.03705" lon="1.83268">
        <ele>329.1</ele>
        <time>2016-08-27T09:32:58Z</time>
      </trkpt>
      <trkpt lat="44.03704" lon="1.83264">
        <ele>328.8</ele>
        <time>2016-08-27T09:32:59Z</time>
      </trkpt>
      <trkpt lat="44.03701" lon="1.83257">
        <ele>327.8</ele>
        <time>2016-08-27T09:33:01Z</time>
      </trkpt>
      <trkpt lat="44.037" lon="1.83253">
        <ele>327.4</ele>
        <time>2016-08-27T09:33:02Z</time>
      </trkpt>
      <trkpt lat="44.03699" lon="1.83249">
        <ele>327.3</ele>
        <time>2016-08-27T09:33:03Z</time>
      </trkpt>
      <trkpt lat="44.03699" lon="1.83245">
        <ele>327.3</ele>
        <time>2016-08-27T09:33:04Z</time>
      </trkpt>
      <trkpt lat="44.03699" lon="1.83241">
        <ele>327.2</ele>
        <time>2016-08-27T09:33:05Z</time>
      </trkpt>
      <trkpt lat="44.03698" lon="1.83237">
        <ele>326.9</ele>
        <time>2016-08-27T09:33:06Z</time>
      </trkpt>
      <trkpt lat="44.03697" lon="1.83233">
        <ele>326.6</ele>
        <time>2016-08-27T09:33:07Z</time>
      </trkpt>
      <trkpt lat="44.03695" lon="1.8323">
        <ele>326</ele>
        <time>2016-08-27T09:33:08Z</time>
      </trkpt>
      <trkpt lat="44.03693" lon="1.83226">
        <ele>325.3</ele>
        <time>2016-08-27T09:33:09Z</time>
      </trkpt>
      <trkpt lat="44.03692" lon="1.83221">
        <ele>324.9</ele>
        <time>2016-08-27T09:33:10Z</time>
      </trkpt>
      <trkpt lat="44.03692" lon="1.83213">
        <ele>325.2</ele>
        <time>2016-08-27T09:33:12Z</time>
      </trkpt>
      <trkpt lat="44.03693" lon="1.83209">
        <ele>325.8</ele>
        <time>2016-08-27T09:33:13Z</time>
      </trkpt>
      <trkpt lat="44.03695" lon="1.83206">
        <ele>326</ele>
        <time>2016-08-27T09:33:14Z</time>
      </trkpt>
      <trkpt lat="44.03697" lon="1.83199">
        <ele>326.3</ele>
        <time>2016-08-27T09:33:16Z</time>
      </trkpt>
      <trkpt lat="44.03698" lon="1.83195">
        <ele>326.2</ele>
        <time>2016-08-27T09:33:17Z</time>
      </trkpt>
      <trkpt lat="44.03699" lon="1.83191">
        <ele>326.1</ele>
        <time>2016-08-27T09:33:18Z</time>
      </trkpt>
      <trkpt lat="44.037" lon="1.83187">
        <ele>326.1</ele>
        <time>2016-08-27T09:33:19Z</time>
      </trkpt>
      <trkpt lat="44.03701" lon="1.83184">
        <ele>326.1</ele>
        <time>2016-08-27T09:33:20Z</time>
      </trkpt>
      <trkpt lat="44.03703" lon="1.83178">
        <ele>326.1</ele>
        <time>2016-08-27T09:33:22Z</time>
      </trkpt>
      <trkpt lat="44.03706" lon="1.83175">
        <ele>326.9</ele>
        <time>2016-08-27T09:33:23Z</time>
      </trkpt>
      <trkpt lat="44.0371" lon="1.8317">
        <ele>327.1</ele>
        <time>2016-08-27T09:33:25Z</time>
      </trkpt>
      <trkpt lat="44.03711" lon="1.83166">
        <ele>326.9</ele>
        <time>2016-08-27T09:33:26Z</time>
      </trkpt>
      <trkpt lat="44.03714" lon="1.83159">
        <ele>326.8</ele>
        <time>2016-08-27T09:33:28Z</time>
      </trkpt>
      <trkpt lat="44.03716" lon="1.83156">
        <ele>326.9</ele>
        <time>2016-08-27T09:33:29Z</time>
      </trkpt>
      <trkpt lat="44.0372" lon="1.8315">
        <ele>327</ele>
        <time>2016-08-27T09:33:31Z</time>
      </trkpt>
      <trkpt lat="44.03724" lon="1.83146">
        <ele>327.4</ele>
        <time>2016-08-27T09:33:33Z</time>
      </trkpt>
      <trkpt lat="44.03729" lon="1.83142">
        <ele>328.1</ele>
        <time>2016-08-27T09:33:35Z</time>
      </trkpt>
      <trkpt lat="44.03734" lon="1.83139">
        <ele>328.7</ele>
        <time>2016-08-27T09:33:37Z</time>
      </trkpt>
      <trkpt lat="44.03736" lon="1.83136">
        <ele>329</ele>
        <time>2016-08-27T09:33:39Z</time>
      </trkpt>
      <trkpt lat="44.03739" lon="1.83135">
        <ele>329.6</ele>
        <time>2016-08-27T09:33:41Z</time>
      </trkpt>
      <trkpt lat="44.03742" lon="1.83132">
        <ele>330</ele>
        <time>2016-08-27T09:33:43Z</time>
      </trkpt>
      <trkpt lat="44.03745" lon="1.83129">
        <ele>330.1</ele>
        <time>2016-08-27T09:33:45Z</time>
      </trkpt>
      <trkpt lat="44.03747" lon="1.83125">
        <ele>330.1</ele>
        <time>2016-08-27T09:33:47Z</time>
      </trkpt>
      <trkpt lat="44.03749" lon="1.83121">
        <ele>330.1</ele>
        <time>2016-08-27T09:33:49Z</time>
      </trkpt>
      <trkpt lat="44.03753" lon="1.83119">
        <ele>330.6</ele>
        <time>2016-08-27T09:33:51Z</time>
      </trkpt>
      <trkpt lat="44.03757" lon="1.83115">
        <ele>331</ele>
        <time>2016-08-27T09:33:53Z</time>
      </trkpt>
      <trkpt lat="44.0376" lon="1.83111">
        <ele>330.9</ele>
        <time>2016-08-27T09:33:55Z</time>
      </trkpt>
      <trkpt lat="44.03762" lon="1.83108">
        <ele>331</ele>
        <time>2016-08-27T09:33:56Z</time>
      </trkpt>
      <trkpt lat="44.03766" lon="1.83104">
        <ele>331.3</ele>
        <time>2016-08-27T09:33:58Z</time>
      </trkpt>
      <trkpt lat="44.03771" lon="1.83101">
        <ele>332</ele>
        <time>2016-08-27T09:34:00Z</time>
      </trkpt>
      <trkpt lat="44.03774" lon="1.831">
        <ele>332.6</ele>
        <time>2016-08-27T09:34:01Z</time>
      </trkpt>
      <trkpt lat="44.03779" lon="1.83098">
        <ele>333.6</ele>
        <time>2016-08-27T09:34:03Z</time>
      </trkpt>
      <trkpt lat="44.03783" lon="1.83096">
        <ele>334.4</ele>
        <time>2016-08-27T09:34:05Z</time>
      </trkpt>
      <trkpt lat="44.03788" lon="1.83095">
        <ele>335.4</ele>
        <time>2016-08-27T09:34:07Z</time>
      </trkpt>
      <trkpt lat="44.03791" lon="1.83094">
        <ele>336</ele>
        <time>2016-08-27T09:34:08Z</time>
      </trkpt>
      <trkpt lat="44.03794" lon="1.83094">
        <ele>336.3</ele>
        <time>2016-08-27T09:34:09Z</time>
      </trkpt>
      <trkpt lat="44.03797" lon="1.83093">
        <ele>336.5</ele>
        <time>2016-08-27T09:34:10Z</time>
      </trkpt>
      <trkpt lat="44.03801" lon="1.83094">
        <ele>336.9</ele>
        <time>2016-08-27T09:34:12Z</time>
      </trkpt>
      <trkpt lat="44.03804" lon="1.83094">
        <ele>337.2</ele>
        <time>2016-08-27T09:34:13Z</time>
      </trkpt>
      <trkpt lat="44.03809" lon="1.83095">
        <ele>337.7</ele>
        <time>2016-08-27T09:34:15Z</time>
      </trkpt>
      <trkpt lat="44.03812" lon="1.83095">
        <ele>337.9</ele>
        <time>2016-08-27T09:34:16Z</time>
      </trkpt>
      <trkpt lat="44.03815" lon="1.83095">
        <ele>338.2</ele>
        <time>2016-08-27T09:34:17Z</time>
      </trkpt>
      <trkpt lat="44.0382" lon="1.83097">
        <ele>338.9</ele>
        <time>2016-08-27T09:34:19Z</time>
      </trkpt>
      <trkpt lat="44.03824" lon="1.831">
        <ele>339.7</ele>
        <time>2016-08-27T09:34:21Z</time>
      </trkpt>
      <trkpt lat="44.03827" lon="1.83102">
        <ele>340.2</ele>
        <time>2016-08-27T09:34:22Z</time>
      </trkpt>
      <trkpt lat="44.03829" lon="1.83104">
        <ele>340.6</ele>
        <time>2016-08-27T09:34:23Z</time>
      </trkpt>
      <trkpt lat="44.03834" lon="1.83106">
        <ele>341.4</ele>
        <time>2016-08-27T09:34:25Z</time>
      </trkpt>
      <trkpt lat="44.03839" lon="1.8311">
        <ele>342.2</ele>
        <time>2016-08-27T09:34:27Z</time>
      </trkpt>
      <trkpt lat="44.03841" lon="1.83112">
        <ele>342.7</ele>
        <time>2016-08-27T09:34:28Z</time>
      </trkpt>
      <trkpt lat="44.03844" lon="1.83114">
        <ele>343.3</ele>
        <time>2016-08-27T09:34:29Z</time>
      </trkpt>
      <trkpt lat="44.03847" lon="1.83117">
        <ele>343.8</ele>
        <time>2016-08-27T09:34:30Z</time>
      </trkpt>
      <trkpt lat="44.0385" lon="1.83119">
        <ele>344.4</ele>
        <time>2016-08-27T09:34:31Z</time>
      </trkpt>
      <trkpt lat="44.03853" lon="1.83121">
        <ele>344.9</ele>
        <time>2016-08-27T09:34:32Z</time>
      </trkpt>
      <trkpt lat="44.03857" lon="1.83124">
        <ele>345.5</ele>
        <time>2016-08-27T09:34:33Z</time>
      </trkpt>
      <trkpt lat="44.0386" lon="1.83126">
        <ele>346</ele>
        <time>2016-08-27T09:34:34Z</time>
      </trkpt>
      <trkpt lat="44.03863" lon="1.83128">
        <ele>346.4</ele>
        <time>2016-08-27T09:34:35Z</time>
      </trkpt>
      <trkpt lat="44.03867" lon="1.83129">
        <ele>346.9</ele>
        <time>2016-08-27T09:34:36Z</time>
      </trkpt>
      <trkpt lat="44.03871" lon="1.83131">
        <ele>347.3</ele>
        <time>2016-08-27T09:34:37Z</time>
      </trkpt>
      <trkpt lat="44.03874" lon="1.83132">
        <ele>347.6</ele>
        <time>2016-08-27T09:34:38Z</time>
      </trkpt>
      <trkpt lat="44.03878" lon="1.83133">
        <ele>347.7</ele>
        <time>2016-08-27T09:34:39Z</time>
      </trkpt>
      <trkpt lat="44.03881" lon="1.83133">
        <ele>347.7</ele>
        <time>2016-08-27T09:34:40Z</time>
      </trkpt>
      <trkpt lat="44.03884" lon="1.83134">
        <ele>347.7</ele>
        <time>2016-08-27T09:34:41Z</time>
      </trkpt>
      <trkpt lat="44.03887" lon="1.83135">
        <ele>347.7</ele>
        <time>2016-08-27T09:34:42Z</time>
      </trkpt>
      <trkpt lat="44.03891" lon="1.83135">
        <ele>347.6</ele>
        <time>2016-08-27T09:34:43Z</time>
      </trkpt>
      <trkpt lat="44.03894" lon="1.83136">
        <ele>347.6</ele>
        <time>2016-08-27T09:34:44Z</time>
      </trkpt>
      <trkpt lat="44.03897" lon="1.83136">
        <ele>347.5</ele>
        <time>2016-08-27T09:34:45Z</time>
      </trkpt>
      <trkpt lat="44.039" lon="1.83136">
        <ele>347.4</ele>
        <time>2016-08-27T09:34:46Z</time>
      </trkpt>
      <trkpt lat="44.03905" lon="1.83135">
        <ele>347.1</ele>
        <time>2016-08-27T09:34:47Z</time>
      </trkpt>
      <trkpt lat="44.03909" lon="1.83134">
        <ele>346.9</ele>
        <time>2016-08-27T09:34:48Z</time>
      </trkpt>
      <trkpt lat="44.03912" lon="1.83133">
        <ele>346.7</ele>
        <time>2016-08-27T09:34:49Z</time>
      </trkpt>
      <trkpt lat="44.03916" lon="1.83132">
        <ele>346.4</ele>
        <time>2016-08-27T09:34:50Z</time>
      </trkpt>
      <trkpt lat="44.03919" lon="1.83131">
        <ele>346.2</ele>
        <time>2016-08-27T09:34:51Z</time>
      </trkpt>
      <trkpt lat="44.03922" lon="1.83128">
        <ele>345.7</ele>
        <time>2016-08-27T09:34:52Z</time>
      </trkpt>
      <trkpt lat="44.03925" lon="1.83125">
        <ele>345.2</ele>
        <time>2016-08-27T09:34:53Z</time>
      </trkpt>
      <trkpt lat="44.03929" lon="1.83123">
        <ele>344.7</ele>
        <time>2016-08-27T09:34:54Z</time>
      </trkpt>
      <trkpt lat="44.03932" lon="1.8312">
        <ele>344.2</ele>
        <time>2016-08-27T09:34:55Z</time>
      </trkpt>
      <trkpt lat="44.03935" lon="1.83117">
        <ele>343.6</ele>
        <time>2016-08-27T09:34:56Z</time>
      </trkpt>
      <trkpt lat="44.03938" lon="1.83113">
        <ele>342.9</ele>
        <time>2016-08-27T09:34:57Z</time>
      </trkpt>
      <trkpt lat="44.03941" lon="1.83109">
        <ele>342.1</ele>
        <time>2016-08-27T09:34:58Z</time>
      </trkpt>
      <trkpt lat="44.03944" lon="1.83104">
        <ele>341.3</ele>
        <time>2016-08-27T09:34:59Z</time>
      </trkpt>
      <trkpt lat="44.03949" lon="1.83094">
        <ele>339.6</ele>
        <time>2016-08-27T09:35:00Z</time>
      </trkpt>
      <trkpt lat="44.03953" lon="1.8309">
        <ele>338.7</ele>
        <time>2016-08-27T09:35:01Z</time>
      </trkpt>
      <trkpt lat="44.03956" lon="1.83084">
        <ele>337.7</ele>
        <time>2016-08-27T09:35:02Z</time>
      </trkpt>
      <trkpt lat="44.0396" lon="1.83079">
        <ele>337.1</ele>
        <time>2016-08-27T09:35:04Z</time>
      </trkpt>
      <trkpt lat="44.03963" lon="1.83074">
        <ele>336.8</ele>
        <time>2016-08-27T09:35:05Z</time>
      </trkpt>
      <trkpt lat="44.03967" lon="1.83071">
        <ele>337.1</ele>
        <time>2016-08-27T09:35:06Z</time>
      </trkpt>
      <trkpt lat="44.0397" lon="1.83068">
        <ele>337</ele>
        <time>2016-08-27T09:35:07Z</time>
      </trkpt>
      <trkpt lat="44.03971" lon="1.83065">
        <ele>336.7</ele>
        <time>2016-08-27T09:35:08Z</time>
      </trkpt>
      <trkpt lat="44.03974" lon="1.83062">
        <ele>336.8</ele>
        <time>2016-08-27T09:35:09Z</time>
      </trkpt>
      <trkpt lat="44.03977" lon="1.83059">
        <ele>336.9</ele>
        <time>2016-08-27T09:35:10Z</time>
      </trkpt>
      <trkpt lat="44.0398" lon="1.83055">
        <ele>337</ele>
        <time>2016-08-27T09:35:11Z</time>
      </trkpt>
      <trkpt lat="44.03982" lon="1.83052">
        <ele>336.9</ele>
        <time>2016-08-27T09:35:12Z</time>
      </trkpt>
      <trkpt lat="44.03985" lon="1.83048">
        <ele>337</ele>
        <time>2016-08-27T09:35:13Z</time>
      </trkpt>
      <trkpt lat="44.03987" lon="1.83043">
        <ele>336.7</ele>
        <time>2016-08-27T09:35:14Z</time>
      </trkpt>
      <trkpt lat="44.03992" lon="1.83039">
        <ele>337.1</ele>
        <time>2016-08-27T09:35:15Z</time>
      </trkpt>
      <trkpt lat="44.03997" lon="1.83034">
        <ele>337.3</ele>
        <time>2016-08-27T09:35:16Z</time>
      </trkpt>
      <trkpt lat="44.04001" lon="1.83029">
        <ele>337.7</ele>
        <time>2016-08-27T09:35:17Z</time>
      </trkpt>
      <trkpt lat="44.04004" lon="1.83027">
        <ele>338</ele>
        <time>2016-08-27T09:35:18Z</time>
      </trkpt>
      <trkpt lat="44.04008" lon="1.83023">
        <ele>338.3</ele>
        <time>2016-08-27T09:35:19Z</time>
      </trkpt>
      <trkpt lat="44.04012" lon="1.83022">
        <ele>339</ele>
        <time>2016-08-27T09:35:21Z</time>
      </trkpt>
      <trkpt lat="44.04018" lon="1.83021">
        <ele>339.9</ele>
        <time>2016-08-27T09:35:23Z</time>
      </trkpt>
      <trkpt lat="44.04021" lon="1.83019">
        <ele>340.2</ele>
        <time>2016-08-27T09:35:24Z</time>
      </trkpt>
      <trkpt lat="44.04025" lon="1.83016">
        <ele>340.8</ele>
        <time>2016-08-27T09:35:25Z</time>
      </trkpt>
      <trkpt lat="44.04029" lon="1.83015">
        <ele>341.5</ele>
        <time>2016-08-27T09:35:26Z</time>
      </trkpt>
      <trkpt lat="44.04033" lon="1.83014">
        <ele>342.2</ele>
        <time>2016-08-27T09:35:27Z</time>
      </trkpt>
      <trkpt lat="44.04036" lon="1.83014">
        <ele>342.8</ele>
        <time>2016-08-27T09:35:28Z</time>
      </trkpt>
      <trkpt lat="44.0404" lon="1.83011">
        <ele>343.4</ele>
        <time>2016-08-27T09:35:29Z</time>
      </trkpt>
      <trkpt lat="44.04044" lon="1.8301">
        <ele>343.6</ele>
        <time>2016-08-27T09:35:30Z</time>
      </trkpt>
      <trkpt lat="44.04049" lon="1.83006">
        <ele>343.4</ele>
        <time>2016-08-27T09:35:31Z</time>
      </trkpt>
      <trkpt lat="44.04053" lon="1.83004">
        <ele>343.4</ele>
        <time>2016-08-27T09:35:32Z</time>
      </trkpt>
      <trkpt lat="44.04057" lon="1.83002">
        <ele>343.3</ele>
        <time>2016-08-27T09:35:33Z</time>
      </trkpt>
      <trkpt lat="44.04062" lon="1.83">
        <ele>343.3</ele>
        <time>2016-08-27T09:35:34Z</time>
      </trkpt>
      <trkpt lat="44.04066" lon="1.82998">
        <ele>343.2</ele>
        <time>2016-08-27T09:35:35Z</time>
      </trkpt>
      <trkpt lat="44.0407" lon="1.82996">
        <ele>343.1</ele>
        <time>2016-08-27T09:35:36Z</time>
      </trkpt>
      <trkpt lat="44.04075" lon="1.82994">
        <ele>343</ele>
        <time>2016-08-27T09:35:37Z</time>
      </trkpt>
      <trkpt lat="44.04083" lon="1.82991">
        <ele>342.9</ele>
        <time>2016-08-27T09:35:38Z</time>
      </trkpt>
      <trkpt lat="44.04087" lon="1.82987">
        <ele>342.5</ele>
        <time>2016-08-27T09:35:39Z</time>
      </trkpt>
      <trkpt lat="44.04093" lon="1.82985">
        <ele>342.5</ele>
        <time>2016-08-27T09:35:40Z</time>
      </trkpt>
      <trkpt lat="44.04095" lon="1.82981">
        <ele>342.1</ele>
        <time>2016-08-27T09:35:41Z</time>
      </trkpt>
      <trkpt lat="44.041" lon="1.82978">
        <ele>341.8</ele>
        <time>2016-08-27T09:35:42Z</time>
      </trkpt>
      <trkpt lat="44.04104" lon="1.82976">
        <ele>341.8</ele>
        <time>2016-08-27T09:35:43Z</time>
      </trkpt>
      <trkpt lat="44.04109" lon="1.82975">
        <ele>341.7</ele>
        <time>2016-08-27T09:35:44Z</time>
      </trkpt>
      <trkpt lat="44.04112" lon="1.82973">
        <ele>341.6</ele>
        <time>2016-08-27T09:35:45Z</time>
      </trkpt>
      <trkpt lat="44.04117" lon="1.82971">
        <ele>341.4</ele>
        <time>2016-08-27T09:35:46Z</time>
      </trkpt>
      <trkpt lat="44.0412" lon="1.82968">
        <ele>341.1</ele>
        <time>2016-08-27T09:35:47Z</time>
      </trkpt>
      <trkpt lat="44.04125" lon="1.82967">
        <ele>341.1</ele>
        <time>2016-08-27T09:35:48Z</time>
      </trkpt>
      <trkpt lat="44.04131" lon="1.82966">
        <ele>341.6</ele>
        <time>2016-08-27T09:35:49Z</time>
      </trkpt>
      <trkpt lat="44.04135" lon="1.82964">
        <ele>341.6</ele>
        <time>2016-08-27T09:35:50Z</time>
      </trkpt>
      <trkpt lat="44.04138" lon="1.82964">
        <ele>341.9</ele>
        <time>2016-08-27T09:35:51Z</time>
      </trkpt>
      <trkpt lat="44.04143" lon="1.82961">
        <ele>342</ele>
        <time>2016-08-27T09:35:52Z</time>
      </trkpt>
      <trkpt lat="44.04147" lon="1.82958">
        <ele>342</ele>
        <time>2016-08-27T09:35:53Z</time>
      </trkpt>
      <trkpt lat="44.0415" lon="1.82955">
        <ele>341.9</ele>
        <time>2016-08-27T09:35:54Z</time>
      </trkpt>
      <trkpt lat="44.04154" lon="1.82951">
        <ele>341.8</ele>
        <time>2016-08-27T09:35:55Z</time>
      </trkpt>
      <trkpt lat="44.04158" lon="1.82947">
        <ele>341.8</ele>
        <time>2016-08-27T09:35:56Z</time>
      </trkpt>
      <trkpt lat="44.04162" lon="1.82943">
        <ele>341.8</ele>
        <time>2016-08-27T09:35:57Z</time>
      </trkpt>
      <trkpt lat="44.04166" lon="1.82941">
        <ele>341.9</ele>
        <time>2016-08-27T09:35:58Z</time>
      </trkpt>
      <trkpt lat="44.04169" lon="1.82938">
        <ele>342</ele>
        <time>2016-08-27T09:35:59Z</time>
      </trkpt>
      <trkpt lat="44.04172" lon="1.82935">
        <ele>341.9</ele>
        <time>2016-08-27T09:36:00Z</time>
      </trkpt>
      <trkpt lat="44.04176" lon="1.82931">
        <ele>342</ele>
        <time>2016-08-27T09:36:01Z</time>
      </trkpt>
      <trkpt lat="44.0418" lon="1.82927">
        <ele>342.1</ele>
        <time>2016-08-27T09:36:02Z</time>
      </trkpt>
      <trkpt lat="44.04184" lon="1.82923">
        <ele>342.2</ele>
        <time>2016-08-27T09:36:03Z</time>
      </trkpt>
      <trkpt lat="44.04188" lon="1.82917">
        <ele>342.2</ele>
        <time>2016-08-27T09:36:04Z</time>
      </trkpt>
      <trkpt lat="44.04191" lon="1.82913">
        <ele>342.3</ele>
        <time>2016-08-27T09:36:05Z</time>
      </trkpt>
      <trkpt lat="44.04195" lon="1.82911">
        <ele>342.6</ele>
        <time>2016-08-27T09:36:06Z</time>
      </trkpt>
      <trkpt lat="44.04201" lon="1.82908">
        <ele>343.2</ele>
        <time>2016-08-27T09:36:07Z</time>
      </trkpt>
      <trkpt lat="44.04205" lon="1.82905">
        <ele>343.6</ele>
        <time>2016-08-27T09:36:08Z</time>
      </trkpt>
      <trkpt lat="44.0421" lon="1.829">
        <ele>343.9</ele>
        <time>2016-08-27T09:36:09Z</time>
      </trkpt>
      <trkpt lat="44.04213" lon="1.82895">
        <ele>343.8</ele>
        <time>2016-08-27T09:36:10Z</time>
      </trkpt>
      <trkpt lat="44.04216" lon="1.82891">
        <ele>343.8</ele>
        <time>2016-08-27T09:36:11Z</time>
      </trkpt>
      <trkpt lat="44.04221" lon="1.82887">
        <ele>344.1</ele>
        <time>2016-08-27T09:36:12Z</time>
      </trkpt>
      <trkpt lat="44.04225" lon="1.82883">
        <ele>344.3</ele>
        <time>2016-08-27T09:36:13Z</time>
      </trkpt>
      <trkpt lat="44.04229" lon="1.82878">
        <ele>344.4</ele>
        <time>2016-08-27T09:36:14Z</time>
      </trkpt>
      <trkpt lat="44.04233" lon="1.82872">
        <ele>344.5</ele>
        <time>2016-08-27T09:36:15Z</time>
      </trkpt>
      <trkpt lat="44.04238" lon="1.82868">
        <ele>344.8</ele>
        <time>2016-08-27T09:36:16Z</time>
      </trkpt>
      <trkpt lat="44.04243" lon="1.82863">
        <ele>345.1</ele>
        <time>2016-08-27T09:36:17Z</time>
      </trkpt>
      <trkpt lat="44.04247" lon="1.82857">
        <ele>345.2</ele>
        <time>2016-08-27T09:36:18Z</time>
      </trkpt>
      <trkpt lat="44.04252" lon="1.82852">
        <ele>345.6</ele>
        <time>2016-08-27T09:36:19Z</time>
      </trkpt>
      <trkpt lat="44.04256" lon="1.82846">
        <ele>345.8</ele>
        <time>2016-08-27T09:36:20Z</time>
      </trkpt>
      <trkpt lat="44.04261" lon="1.82842">
        <ele>346.2</ele>
        <time>2016-08-27T09:36:21Z</time>
      </trkpt>
      <trkpt lat="44.04266" lon="1.82839">
        <ele>346.7</ele>
        <time>2016-08-27T09:36:22Z</time>
      </trkpt>
      <trkpt lat="44.04271" lon="1.82836">
        <ele>347.1</ele>
        <time>2016-08-27T09:36:23Z</time>
      </trkpt>
      <trkpt lat="44.04274" lon="1.82834">
        <ele>347.4</ele>
        <time>2016-08-27T09:36:24Z</time>
      </trkpt>
      <trkpt lat="44.04278" lon="1.82831">
        <ele>347.8</ele>
        <time>2016-08-27T09:36:25Z</time>
      </trkpt>
      <trkpt lat="44.04285" lon="1.82829">
        <ele>348.5</ele>
        <time>2016-08-27T09:36:26Z</time>
      </trkpt>
      <trkpt lat="44.0429" lon="1.82828">
        <ele>349.1</ele>
        <time>2016-08-27T09:36:27Z</time>
      </trkpt>
      <trkpt lat="44.04294" lon="1.82826">
        <ele>349.3</ele>
        <time>2016-08-27T09:36:28Z</time>
      </trkpt>
      <trkpt lat="44.043" lon="1.82826">
        <ele>349.3</ele>
        <time>2016-08-27T09:36:29Z</time>
      </trkpt>
      <trkpt lat="44.04304" lon="1.82825">
        <ele>349.4</ele>
        <time>2016-08-27T09:36:30Z</time>
      </trkpt>
      <trkpt lat="44.04309" lon="1.82825">
        <ele>349.4</ele>
        <time>2016-08-27T09:36:31Z</time>
      </trkpt>
      <trkpt lat="44.04314" lon="1.82826">
        <ele>349.5</ele>
        <time>2016-08-27T09:36:32Z</time>
      </trkpt>
      <trkpt lat="44.04318" lon="1.82827">
        <ele>349.6</ele>
        <time>2016-08-27T09:36:33Z</time>
      </trkpt>
      <trkpt lat="44.04322" lon="1.82829">
        <ele>349.7</ele>
        <time>2016-08-27T09:36:34Z</time>
      </trkpt>
      <trkpt lat="44.04326" lon="1.8283">
        <ele>349.8</ele>
        <time>2016-08-27T09:36:35Z</time>
      </trkpt>
      <trkpt lat="44.04332" lon="1.82829">
        <ele>349.8</ele>
        <time>2016-08-27T09:36:36Z</time>
      </trkpt>
      <trkpt lat="44.04337" lon="1.8283">
        <ele>349.9</ele>
        <time>2016-08-27T09:36:37Z</time>
      </trkpt>
      <trkpt lat="44.04341" lon="1.82831">
        <ele>350</ele>
        <time>2016-08-27T09:36:38Z</time>
      </trkpt>
      <trkpt lat="44.04348" lon="1.82824">
        <ele>349.8</ele>
        <time>2016-08-27T09:36:39Z</time>
      </trkpt>
      <trkpt lat="44.04353" lon="1.82824">
        <ele>349.9</ele>
        <time>2016-08-27T09:36:40Z</time>
      </trkpt>
      <trkpt lat="44.04358" lon="1.82825">
        <ele>350</ele>
        <time>2016-08-27T09:36:41Z</time>
      </trkpt>
      <trkpt lat="44.04363" lon="1.82826">
        <ele>350.1</ele>
        <time>2016-08-27T09:36:42Z</time>
      </trkpt>
      <trkpt lat="44.04367" lon="1.82827">
        <ele>350.2</ele>
        <time>2016-08-27T09:36:43Z</time>
      </trkpt>
      <trkpt lat="44.04373" lon="1.82827">
        <ele>350.2</ele>
        <time>2016-08-27T09:36:44Z</time>
      </trkpt>
      <trkpt lat="44.04378" lon="1.82826">
        <ele>350.3</ele>
        <time>2016-08-27T09:36:45Z</time>
      </trkpt>
      <trkpt lat="44.04383" lon="1.82823">
        <ele>350.3</ele>
        <time>2016-08-27T09:36:46Z</time>
      </trkpt>
      <trkpt lat="44.04389" lon="1.82822">
        <ele>350.3</ele>
        <time>2016-08-27T09:36:47Z</time>
      </trkpt>
      <trkpt lat="44.04392" lon="1.82825">
        <ele>350.5</ele>
        <time>2016-08-27T09:36:48Z</time>
      </trkpt>
      <trkpt lat="44.04397" lon="1.82825">
        <ele>350.6</ele>
        <time>2016-08-27T09:36:49Z</time>
      </trkpt>
      <trkpt lat="44.04402" lon="1.82824">
        <ele>350.6</ele>
        <time>2016-08-27T09:36:50Z</time>
      </trkpt>
      <trkpt lat="44.04408" lon="1.82823">
        <ele>350.7</ele>
        <time>2016-08-27T09:36:51Z</time>
      </trkpt>
      <trkpt lat="44.04414" lon="1.82823">
        <ele>350.7</ele>
        <time>2016-08-27T09:36:52Z</time>
      </trkpt>
      <trkpt lat="44.04419" lon="1.82821">
        <ele>350.8</ele>
        <time>2016-08-27T09:36:53Z</time>
      </trkpt>
      <trkpt lat="44.04424" lon="1.8282">
        <ele>350.8</ele>
        <time>2016-08-27T09:36:54Z</time>
      </trkpt>
      <trkpt lat="44.04429" lon="1.82821">
        <ele>350.9</ele>
        <time>2016-08-27T09:36:55Z</time>
      </trkpt>
      <trkpt lat="44.04433" lon="1.82821">
        <ele>351</ele>
        <time>2016-08-27T09:36:56Z</time>
      </trkpt>
      <trkpt lat="44.04437" lon="1.8282">
        <ele>351</ele>
        <time>2016-08-27T09:36:57Z</time>
      </trkpt>
      <trkpt lat="44.04441" lon="1.82818">
        <ele>351</ele>
        <time>2016-08-27T09:36:58Z</time>
      </trkpt>
      <trkpt lat="44.04444" lon="1.82818">
        <ele>351</ele>
        <time>2016-08-27T09:36:59Z</time>
      </trkpt>
      <trkpt lat="44.04451" lon="1.82818">
        <ele>351.1</ele>
        <time>2016-08-27T09:37:01Z</time>
      </trkpt>
      <trkpt lat="44.04456" lon="1.82818">
        <ele>351.2</ele>
        <time>2016-08-27T09:37:02Z</time>
      </trkpt>
      <trkpt lat="44.0446" lon="1.82818">
        <ele>351.3</ele>
        <time>2016-08-27T09:37:03Z</time>
      </trkpt>
      <trkpt lat="44.04465" lon="1.82813">
        <ele>351.4</ele>
        <time>2016-08-27T09:37:04Z</time>
      </trkpt>
      <trkpt lat="44.04468" lon="1.82812">
        <ele>351.6</ele>
        <time>2016-08-27T09:37:05Z</time>
      </trkpt>
      <trkpt lat="44.04472" lon="1.82811">
        <ele>351.7</ele>
        <time>2016-08-27T09:37:06Z</time>
      </trkpt>
      <trkpt lat="44.04478" lon="1.82808">
        <ele>352</ele>
        <time>2016-08-27T09:37:08Z</time>
      </trkpt>
      <trkpt lat="44.04481" lon="1.82807">
        <ele>352.1</ele>
        <time>2016-08-27T09:37:09Z</time>
      </trkpt>
      <trkpt lat="44.04484" lon="1.82807">
        <ele>352.2</ele>
        <time>2016-08-27T09:37:10Z</time>
      </trkpt>
      <trkpt lat="44.04487" lon="1.82806">
        <ele>352.4</ele>
        <time>2016-08-27T09:37:11Z</time>
      </trkpt>
      <trkpt lat="44.04491" lon="1.82805">
        <ele>352.6</ele>
        <time>2016-08-27T09:37:12Z</time>
      </trkpt>
      <trkpt lat="44.04495" lon="1.82803">
        <ele>352.7</ele>
        <time>2016-08-27T09:37:13Z</time>
      </trkpt>
      <trkpt lat="44.04499" lon="1.82802">
        <ele>352.9</ele>
        <time>2016-08-27T09:37:14Z</time>
      </trkpt>
      <trkpt lat="44.04503" lon="1.82801">
        <ele>353.1</ele>
        <time>2016-08-27T09:37:15Z</time>
      </trkpt>
      <trkpt lat="44.04507" lon="1.828">
        <ele>353.3</ele>
        <time>2016-08-27T09:37:16Z</time>
      </trkpt>
      <trkpt lat="44.0451" lon="1.828">
        <ele>353.5</ele>
        <time>2016-08-27T09:37:17Z</time>
      </trkpt>
      <trkpt lat="44.04514" lon="1.828">
        <ele>353.7</ele>
        <time>2016-08-27T09:37:18Z</time>
      </trkpt>
      <trkpt lat="44.04518" lon="1.82799">
        <ele>353.9</ele>
        <time>2016-08-27T09:37:19Z</time>
      </trkpt>
      <trkpt lat="44.04522" lon="1.82798">
        <ele>354.1</ele>
        <time>2016-08-27T09:37:20Z</time>
      </trkpt>
      <trkpt lat="44.04525" lon="1.82796">
        <ele>354.2</ele>
        <time>2016-08-27T09:37:21Z</time>
      </trkpt>
      <trkpt lat="44.04529" lon="1.82795">
        <ele>354.4</ele>
        <time>2016-08-27T09:37:22Z</time>
      </trkpt>
      <trkpt lat="44.04533" lon="1.82792">
        <ele>354.5</ele>
        <time>2016-08-27T09:37:23Z</time>
      </trkpt>
      <trkpt lat="44.04536" lon="1.8279">
        <ele>354.6</ele>
        <time>2016-08-27T09:37:24Z</time>
      </trkpt>
      <trkpt lat="44.0454" lon="1.82787">
        <ele>354.7</ele>
        <time>2016-08-27T09:37:25Z</time>
      </trkpt>
      <trkpt lat="44.04543" lon="1.82785">
        <ele>354.8</ele>
        <time>2016-08-27T09:37:26Z</time>
      </trkpt>
      <trkpt lat="44.04546" lon="1.82783">
        <ele>354.9</ele>
        <time>2016-08-27T09:37:27Z</time>
      </trkpt>
      <trkpt lat="44.04549" lon="1.8278">
        <ele>355.1</ele>
        <time>2016-08-27T09:37:28Z</time>
      </trkpt>
      <trkpt lat="44.04552" lon="1.82778">
        <ele>355.2</ele>
        <time>2016-08-27T09:37:29Z</time>
      </trkpt>
      <trkpt lat="44.04555" lon="1.82776">
        <ele>355.4</ele>
        <time>2016-08-27T09:37:30Z</time>
      </trkpt>
      <trkpt lat="44.04557" lon="1.82774">
        <ele>355.5</ele>
        <time>2016-08-27T09:37:31Z</time>
      </trkpt>
      <trkpt lat="44.0456" lon="1.82771">
        <ele>355.6</ele>
        <time>2016-08-27T09:37:32Z</time>
      </trkpt>
      <trkpt lat="44.04563" lon="1.8277">
        <ele>355.8</ele>
        <time>2016-08-27T09:37:33Z</time>
      </trkpt>
      <trkpt lat="44.04566" lon="1.82768">
        <ele>356</ele>
        <time>2016-08-27T09:37:34Z</time>
      </trkpt>
      <trkpt lat="44.04569" lon="1.82766">
        <ele>356.2</ele>
        <time>2016-08-27T09:37:35Z</time>
      </trkpt>
      <trkpt lat="44.04572" lon="1.82764">
        <ele>356.4</ele>
        <time>2016-08-27T09:37:36Z</time>
      </trkpt>
      <trkpt lat="44.04575" lon="1.82762">
        <ele>356.5</ele>
        <time>2016-08-27T09:37:37Z</time>
      </trkpt>
      <trkpt lat="44.04577" lon="1.8276">
        <ele>356.6</ele>
        <time>2016-08-27T09:37:38Z</time>
      </trkpt>
      <trkpt lat="44.04581" lon="1.82756">
        <ele>356.8</ele>
        <time>2016-08-27T09:37:40Z</time>
      </trkpt>
      <trkpt lat="44.04585" lon="1.8275">
        <ele>356.9</ele>
        <time>2016-08-27T09:37:42Z</time>
      </trkpt>
      <trkpt lat="44.04586" lon="1.82745">
        <ele>356.8</ele>
        <time>2016-08-27T09:37:44Z</time>
      </trkpt>
      <trkpt lat="44.04588" lon="1.82742">
        <ele>356.8</ele>
        <time>2016-08-27T09:37:46Z</time>
      </trkpt>
      <trkpt lat="44.04592" lon="1.82739">
        <ele>357.1</ele>
        <time>2016-08-27T09:37:48Z</time>
      </trkpt>
      <trkpt lat="44.04594" lon="1.82736">
        <ele>357.2</ele>
        <time>2016-08-27T09:37:49Z</time>
      </trkpt>
      <trkpt lat="44.04598" lon="1.82732">
        <ele>357.4</ele>
        <time>2016-08-27T09:37:51Z</time>
      </trkpt>
      <trkpt lat="44.04602" lon="1.82727">
        <ele>357.6</ele>
        <time>2016-08-27T09:37:53Z</time>
      </trkpt>
      <trkpt lat="44.04607" lon="1.82723">
        <ele>357.8</ele>
        <time>2016-08-27T09:37:55Z</time>
      </trkpt>
      <trkpt lat="44.04612" lon="1.82717">
        <ele>358.1</ele>
        <time>2016-08-27T09:37:57Z</time>
      </trkpt>
      <trkpt lat="44.04614" lon="1.82714">
        <ele>358.2</ele>
        <time>2016-08-27T09:37:58Z</time>
      </trkpt>
      <trkpt lat="44.04619" lon="1.82707">
        <ele>358.4</ele>
        <time>2016-08-27T09:38:00Z</time>
      </trkpt>
      <trkpt lat="44.04621" lon="1.82704">
        <ele>358.4</ele>
        <time>2016-08-27T09:38:01Z</time>
      </trkpt>
      <trkpt lat="44.04622" lon="1.827">
        <ele>358.4</ele>
        <time>2016-08-27T09:38:02Z</time>
      </trkpt>
      <trkpt lat="44.04623" lon="1.82696">
        <ele>358.4</ele>
        <time>2016-08-27T09:38:03Z</time>
      </trkpt>
      <trkpt lat="44.04625" lon="1.82688">
        <ele>358.3</ele>
        <time>2016-08-27T09:38:05Z</time>
      </trkpt>
      <trkpt lat="44.04626" lon="1.82683">
        <ele>358.3</ele>
        <time>2016-08-27T09:38:06Z</time>
      </trkpt>
      <trkpt lat="44.04629" lon="1.82675">
        <ele>358.3</ele>
        <time>2016-08-27T09:38:08Z</time>
      </trkpt>
      <trkpt lat="44.0463" lon="1.82671">
        <ele>358.4</ele>
        <time>2016-08-27T09:38:09Z</time>
      </trkpt>
      <trkpt lat="44.04632" lon="1.82667">
        <ele>358.5</ele>
        <time>2016-08-27T09:38:10Z</time>
      </trkpt>
      <trkpt lat="44.04635" lon="1.82662">
        <ele>358.6</ele>
        <time>2016-08-27T09:38:11Z</time>
      </trkpt>
      <trkpt lat="44.04636" lon="1.82659">
        <ele>358.7</ele>
        <time>2016-08-27T09:38:12Z</time>
      </trkpt>
      <trkpt lat="44.04638" lon="1.82653">
        <ele>358.7</ele>
        <time>2016-08-27T09:38:13Z</time>
      </trkpt>
      <trkpt lat="44.0464" lon="1.82649">
        <ele>358.7</ele>
        <time>2016-08-27T09:38:14Z</time>
      </trkpt>
      <trkpt lat="44.04642" lon="1.82645">
        <ele>358.9</ele>
        <time>2016-08-27T09:38:15Z</time>
      </trkpt>
      <trkpt lat="44.04644" lon="1.82641">
        <ele>359</ele>
        <time>2016-08-27T09:38:16Z</time>
      </trkpt>
      <trkpt lat="44.04647" lon="1.82638">
        <ele>359.1</ele>
        <time>2016-08-27T09:38:17Z</time>
      </trkpt>
      <trkpt lat="44.04648" lon="1.82635">
        <ele>359.2</ele>
        <time>2016-08-27T09:38:18Z</time>
      </trkpt>
      <trkpt lat="44.0465" lon="1.8263">
        <ele>359.2</ele>
        <time>2016-08-27T09:38:19Z</time>
      </trkpt>
      <trkpt lat="44.04652" lon="1.82626">
        <ele>359.2</ele>
        <time>2016-08-27T09:38:20Z</time>
      </trkpt>
      <trkpt lat="44.04653" lon="1.82622">
        <ele>359.3</ele>
        <time>2016-08-27T09:38:21Z</time>
      </trkpt>
      <trkpt lat="44.04655" lon="1.82619">
        <ele>359.4</ele>
        <time>2016-08-27T09:38:22Z</time>
      </trkpt>
      <trkpt lat="44.04658" lon="1.82615">
        <ele>359.6</ele>
        <time>2016-08-27T09:38:23Z</time>
      </trkpt>
      <trkpt lat="44.0466" lon="1.82611">
        <ele>359.8</ele>
        <time>2016-08-27T09:38:24Z</time>
      </trkpt>
      <trkpt lat="44.04663" lon="1.82608">
        <ele>360</ele>
        <time>2016-08-27T09:38:25Z</time>
      </trkpt>
      <trkpt lat="44.04665" lon="1.82605">
        <ele>360.2</ele>
        <time>2016-08-27T09:38:26Z</time>
      </trkpt>
      <trkpt lat="44.04666" lon="1.82601">
        <ele>360.2</ele>
        <time>2016-08-27T09:38:27Z</time>
      </trkpt>
      <trkpt lat="44.04668" lon="1.82598">
        <ele>360.3</ele>
        <time>2016-08-27T09:38:28Z</time>
      </trkpt>
      <trkpt lat="44.04671" lon="1.82592">
        <ele>360.5</ele>
        <time>2016-08-27T09:38:30Z</time>
      </trkpt>
      <trkpt lat="44.04673" lon="1.82589">
        <ele>360.6</ele>
        <time>2016-08-27T09:38:31Z</time>
      </trkpt>
      <trkpt lat="44.04675" lon="1.82587">
        <ele>360.7</ele>
        <time>2016-08-27T09:38:32Z</time>
      </trkpt>
      <trkpt lat="44.04678" lon="1.82584">
        <ele>360.9</ele>
        <time>2016-08-27T09:38:33Z</time>
      </trkpt>
      <trkpt lat="44.04682" lon="1.82579">
        <ele>361.1</ele>
        <time>2016-08-27T09:38:35Z</time>
      </trkpt>
      <trkpt lat="44.04684" lon="1.82576">
        <ele>361.2</ele>
        <time>2016-08-27T09:38:36Z</time>
      </trkpt>
      <trkpt lat="44.04685" lon="1.82573">
        <ele>361.2</ele>
        <time>2016-08-27T09:38:37Z</time>
      </trkpt>
      <trkpt lat="44.04687" lon="1.82569">
        <ele>361.2</ele>
        <time>2016-08-27T09:38:38Z</time>
      </trkpt>
      <trkpt lat="44.04688" lon="1.82565">
        <ele>361.2</ele>
        <time>2016-08-27T09:38:39Z</time>
      </trkpt>
      <trkpt lat="44.0469" lon="1.82562">
        <ele>361.2</ele>
        <time>2016-08-27T09:38:40Z</time>
      </trkpt>
      <trkpt lat="44.04692" lon="1.82557">
        <ele>361.3</ele>
        <time>2016-08-27T09:38:41Z</time>
      </trkpt>
      <trkpt lat="44.04694" lon="1.82554">
        <ele>361.3</ele>
        <time>2016-08-27T09:38:42Z</time>
      </trkpt>
      <trkpt lat="44.04696" lon="1.82551">
        <ele>361.4</ele>
        <time>2016-08-27T09:38:43Z</time>
      </trkpt>
      <trkpt lat="44.04698" lon="1.82547">
        <ele>361.4</ele>
        <time>2016-08-27T09:38:44Z</time>
      </trkpt>
      <trkpt lat="44.047" lon="1.82543">
        <ele>361.4</ele>
        <time>2016-08-27T09:38:45Z</time>
      </trkpt>
      <trkpt lat="44.04702" lon="1.8254">
        <ele>361.4</ele>
        <time>2016-08-27T09:38:46Z</time>
      </trkpt>
      <trkpt lat="44.04703" lon="1.82536">
        <ele>361.2</ele>
        <time>2016-08-27T09:38:47Z</time>
      </trkpt>
      <trkpt lat="44.04705" lon="1.82533">
        <ele>361.2</ele>
        <time>2016-08-27T09:38:48Z</time>
      </trkpt>
      <trkpt lat="44.04706" lon="1.82528">
        <ele>361</ele>
        <time>2016-08-27T09:38:49Z</time>
      </trkpt>
      <trkpt lat="44.04708" lon="1.82523">
        <ele>360.8</ele>
        <time>2016-08-27T09:38:50Z</time>
      </trkpt>
      <trkpt lat="44.04709" lon="1.82519">
        <ele>360.7</ele>
        <time>2016-08-27T09:38:51Z</time>
      </trkpt>
      <trkpt lat="44.04711" lon="1.82514">
        <ele>360.7</ele>
        <time>2016-08-27T09:38:52Z</time>
      </trkpt>
      <trkpt lat="44.04712" lon="1.8251">
        <ele>360.7</ele>
        <time>2016-08-27T09:38:53Z</time>
      </trkpt>
      <trkpt lat="44.04714" lon="1.82506">
        <ele>360.7</ele>
        <time>2016-08-27T09:38:54Z</time>
      </trkpt>
      <trkpt lat="44.04716" lon="1.82501">
        <ele>360.8</ele>
        <time>2016-08-27T09:38:55Z</time>
      </trkpt>
      <trkpt lat="44.04718" lon="1.82497">
        <ele>360.9</ele>
        <time>2016-08-27T09:38:56Z</time>
      </trkpt>
      <trkpt lat="44.0472" lon="1.82493">
        <ele>361</ele>
        <time>2016-08-27T09:38:57Z</time>
      </trkpt>
      <trkpt lat="44.04722" lon="1.82489">
        <ele>361.1</ele>
        <time>2016-08-27T09:38:58Z</time>
      </trkpt>
      <trkpt lat="44.04724" lon="1.82485">
        <ele>361.2</ele>
        <time>2016-08-27T09:38:59Z</time>
      </trkpt>
      <trkpt lat="44.04725" lon="1.8248">
        <ele>361.1</ele>
        <time>2016-08-27T09:39:00Z</time>
      </trkpt>
      <trkpt lat="44.04727" lon="1.82475">
        <ele>361.1</ele>
        <time>2016-08-27T09:39:01Z</time>
      </trkpt>
      <trkpt lat="44.04728" lon="1.8247">
        <ele>361.1</ele>
        <time>2016-08-27T09:39:02Z</time>
      </trkpt>
      <trkpt lat="44.0473" lon="1.82465">
        <ele>361.2</ele>
        <time>2016-08-27T09:39:03Z</time>
      </trkpt>
      <trkpt lat="44.04731" lon="1.8246">
        <ele>361.2</ele>
        <time>2016-08-27T09:39:04Z</time>
      </trkpt>
      <trkpt lat="44.04733" lon="1.82456">
        <ele>361.3</ele>
        <time>2016-08-27T09:39:05Z</time>
      </trkpt>
      <trkpt lat="44.04733" lon="1.82452">
        <ele>361.2</ele>
        <time>2016-08-27T09:39:06Z</time>
      </trkpt>
      <trkpt lat="44.04734" lon="1.82447">
        <ele>361.1</ele>
        <time>2016-08-27T09:39:07Z</time>
      </trkpt>
      <trkpt lat="44.04735" lon="1.82443">
        <ele>361.1</ele>
        <time>2016-08-27T09:39:08Z</time>
      </trkpt>
      <trkpt lat="44.04736" lon="1.82438">
        <ele>361.1</ele>
        <time>2016-08-27T09:39:09Z</time>
      </trkpt>
      <trkpt lat="44.04738" lon="1.82435">
        <ele>361.4</ele>
        <time>2016-08-27T09:39:10Z</time>
      </trkpt>
      <trkpt lat="44.04741" lon="1.82431">
        <ele>361.6</ele>
        <time>2016-08-27T09:39:11Z</time>
      </trkpt>
      <trkpt lat="44.04742" lon="1.82428">
        <ele>361.8</ele>
        <time>2016-08-27T09:39:12Z</time>
      </trkpt>
      <trkpt lat="44.04743" lon="1.82424">
        <ele>361.8</ele>
        <time>2016-08-27T09:39:13Z</time>
      </trkpt>
      <trkpt lat="44.04744" lon="1.82419">
        <ele>361.8</ele>
        <time>2016-08-27T09:39:14Z</time>
      </trkpt>
      <trkpt lat="44.04744" lon="1.82415">
        <ele>361.5</ele>
        <time>2016-08-27T09:39:15Z</time>
      </trkpt>
      <trkpt lat="44.04744" lon="1.82411">
        <ele>361.4</ele>
        <time>2016-08-27T09:39:16Z</time>
      </trkpt>
      <trkpt lat="44.04746" lon="1.82406">
        <ele>361.5</ele>
        <time>2016-08-27T09:39:17Z</time>
      </trkpt>
      <trkpt lat="44.04747" lon="1.82403">
        <ele>361.6</ele>
        <time>2016-08-27T09:39:18Z</time>
      </trkpt>
      <trkpt lat="44.04749" lon="1.82399">
        <ele>361.8</ele>
        <time>2016-08-27T09:39:19Z</time>
      </trkpt>
      <trkpt lat="44.04751" lon="1.82395">
        <ele>362.1</ele>
        <time>2016-08-27T09:39:20Z</time>
      </trkpt>
      <trkpt lat="44.04753" lon="1.82392">
        <ele>362.3</ele>
        <time>2016-08-27T09:39:21Z</time>
      </trkpt>
      <trkpt lat="44.04756" lon="1.82389">
        <ele>362.7</ele>
        <time>2016-08-27T09:39:22Z</time>
      </trkpt>
      <trkpt lat="44.04758" lon="1.82385">
        <ele>363</ele>
        <time>2016-08-27T09:39:23Z</time>
      </trkpt>
      <trkpt lat="44.04761" lon="1.82382">
        <ele>363.4</ele>
        <time>2016-08-27T09:39:24Z</time>
      </trkpt>
      <trkpt lat="44.04764" lon="1.82378">
        <ele>363.7</ele>
        <time>2016-08-27T09:39:25Z</time>
      </trkpt>
      <trkpt lat="44.04766" lon="1.82375">
        <ele>364.1</ele>
        <time>2016-08-27T09:39:26Z</time>
      </trkpt>
      <trkpt lat="44.04769" lon="1.82372">
        <ele>364.6</ele>
        <time>2016-08-27T09:39:27Z</time>
      </trkpt>
      <trkpt lat="44.04772" lon="1.82369">
        <ele>365</ele>
        <time>2016-08-27T09:39:28Z</time>
      </trkpt>
      <trkpt lat="44.04774" lon="1.82366">
        <ele>365.5</ele>
        <time>2016-08-27T09:39:29Z</time>
      </trkpt>
      <trkpt lat="44.04778" lon="1.82364">
        <ele>366.1</ele>
        <time>2016-08-27T09:39:30Z</time>
      </trkpt>
      <trkpt lat="44.04781" lon="1.82361">
        <ele>366.6</ele>
        <time>2016-08-27T09:39:31Z</time>
      </trkpt>
      <trkpt lat="44.04784" lon="1.82358">
        <ele>367.1</ele>
        <time>2016-08-27T09:39:32Z</time>
      </trkpt>
      <trkpt lat="44.04787" lon="1.82356">
        <ele>367.6</ele>
        <time>2016-08-27T09:39:33Z</time>
      </trkpt>
      <trkpt lat="44.0479" lon="1.82353">
        <ele>368.1</ele>
        <time>2016-08-27T09:39:34Z</time>
      </trkpt>
      <trkpt lat="44.04793" lon="1.82351">
        <ele>368.5</ele>
        <time>2016-08-27T09:39:35Z</time>
      </trkpt>
      <trkpt lat="44.04796" lon="1.8235">
        <ele>368.7</ele>
        <time>2016-08-27T09:39:36Z</time>
      </trkpt>
      <trkpt lat="44.048" lon="1.82349">
        <ele>369</ele>
        <time>2016-08-27T09:39:37Z</time>
      </trkpt>
      <trkpt lat="44.04804" lon="1.82348">
        <ele>369.2</ele>
        <time>2016-08-27T09:39:38Z</time>
      </trkpt>
      <trkpt lat="44.04808" lon="1.82347">
        <ele>369.3</ele>
        <time>2016-08-27T09:39:39Z</time>
      </trkpt>
      <trkpt lat="44.04811" lon="1.82345">
        <ele>369.5</ele>
        <time>2016-08-27T09:39:40Z</time>
      </trkpt>
      <trkpt lat="44.04815" lon="1.82343">
        <ele>369.6</ele>
        <time>2016-08-27T09:39:41Z</time>
      </trkpt>
      <trkpt lat="44.04818" lon="1.82341">
        <ele>369.7</ele>
        <time>2016-08-27T09:39:42Z</time>
      </trkpt>
      <trkpt lat="44.04821" lon="1.82339">
        <ele>369.7</ele>
        <time>2016-08-27T09:39:43Z</time>
      </trkpt>
      <trkpt lat="44.04824" lon="1.82337">
        <ele>369.8</ele>
        <time>2016-08-27T09:39:44Z</time>
      </trkpt>
      <trkpt lat="44.04827" lon="1.82335">
        <ele>369.8</ele>
        <time>2016-08-27T09:39:45Z</time>
      </trkpt>
      <trkpt lat="44.0483" lon="1.82334">
        <ele>369.9</ele>
        <time>2016-08-27T09:39:46Z</time>
      </trkpt>
      <trkpt lat="44.04834" lon="1.82333">
        <ele>369.9</ele>
        <time>2016-08-27T09:39:47Z</time>
      </trkpt>
      <trkpt lat="44.04837" lon="1.82331">
        <ele>370</ele>
        <time>2016-08-27T09:39:48Z</time>
      </trkpt>
      <trkpt lat="44.0484" lon="1.8233">
        <ele>370.1</ele>
        <time>2016-08-27T09:39:49Z</time>
      </trkpt>
      <trkpt lat="44.04844" lon="1.82329">
        <ele>370.1</ele>
        <time>2016-08-27T09:39:50Z</time>
      </trkpt>
      <trkpt lat="44.04846" lon="1.82327">
        <ele>370.1</ele>
        <time>2016-08-27T09:39:51Z</time>
      </trkpt>
      <trkpt lat="44.04851" lon="1.82324">
        <ele>370</ele>
        <time>2016-08-27T09:39:52Z</time>
      </trkpt>
      <trkpt lat="44.04856" lon="1.82323">
        <ele>370.1</ele>
        <time>2016-08-27T09:39:53Z</time>
      </trkpt>
      <trkpt lat="44.04861" lon="1.82322">
        <ele>370.1</ele>
        <time>2016-08-27T09:39:54Z</time>
      </trkpt>
      <trkpt lat="44.04865" lon="1.8232">
        <ele>370</ele>
        <time>2016-08-27T09:39:55Z</time>
      </trkpt>
      <trkpt lat="44.04869" lon="1.82317">
        <ele>369.9</ele>
        <time>2016-08-27T09:39:57Z</time>
      </trkpt>
      <trkpt lat="44.04873" lon="1.82315">
        <ele>369.7</ele>
        <time>2016-08-27T09:39:59Z</time>
      </trkpt>
      <trkpt lat="44.04875" lon="1.82312">
        <ele>369.5</ele>
        <time>2016-08-27T09:40:00Z</time>
      </trkpt>
      <trkpt lat="44.04879" lon="1.8231">
        <ele>369.6</ele>
        <time>2016-08-27T09:40:01Z</time>
      </trkpt>
      <trkpt lat="44.04882" lon="1.82309">
        <ele>369.8</ele>
        <time>2016-08-27T09:40:02Z</time>
      </trkpt>
      <trkpt lat="44.04886" lon="1.82307">
        <ele>370</ele>
        <time>2016-08-27T09:40:03Z</time>
      </trkpt>
      <trkpt lat="44.0489" lon="1.82306">
        <ele>370.2</ele>
        <time>2016-08-27T09:40:04Z</time>
      </trkpt>
      <trkpt lat="44.04894" lon="1.82305">
        <ele>370.5</ele>
        <time>2016-08-27T09:40:05Z</time>
      </trkpt>
      <trkpt lat="44.04898" lon="1.82304">
        <ele>370.7</ele>
        <time>2016-08-27T09:40:06Z</time>
      </trkpt>
      <trkpt lat="44.04901" lon="1.82303">
        <ele>370.9</ele>
        <time>2016-08-27T09:40:07Z</time>
      </trkpt>
      <trkpt lat="44.04904" lon="1.82301">
        <ele>371</ele>
        <time>2016-08-27T09:40:08Z</time>
      </trkpt>
      <trkpt lat="44.04907" lon="1.823">
        <ele>371.2</ele>
        <time>2016-08-27T09:40:09Z</time>
      </trkpt>
      <trkpt lat="44.04911" lon="1.82299">
        <ele>371.3</ele>
        <time>2016-08-27T09:40:10Z</time>
      </trkpt>
      <trkpt lat="44.04914" lon="1.82297">
        <ele>371.5</ele>
        <time>2016-08-27T09:40:11Z</time>
      </trkpt>
      <trkpt lat="44.04918" lon="1.82296">
        <ele>371.7</ele>
        <time>2016-08-27T09:40:12Z</time>
      </trkpt>
      <trkpt lat="44.04921" lon="1.82296">
        <ele>371.9</ele>
        <time>2016-08-27T09:40:13Z</time>
      </trkpt>
      <trkpt lat="44.04924" lon="1.82294">
        <ele>372.1</ele>
        <time>2016-08-27T09:40:14Z</time>
      </trkpt>
      <trkpt lat="44.04927" lon="1.82293">
        <ele>372.2</ele>
        <time>2016-08-27T09:40:15Z</time>
      </trkpt>
      <trkpt lat="44.0493" lon="1.82292">
        <ele>372.3</ele>
        <time>2016-08-27T09:40:16Z</time>
      </trkpt>
      <trkpt lat="44.04933" lon="1.82291">
        <ele>372.5</ele>
        <time>2016-08-27T09:40:17Z</time>
      </trkpt>
      <trkpt lat="44.04936" lon="1.82289">
        <ele>372.7</ele>
        <time>2016-08-27T09:40:18Z</time>
      </trkpt>
      <trkpt lat="44.0494" lon="1.82289">
        <ele>373</ele>
        <time>2016-08-27T09:40:19Z</time>
      </trkpt>
      <trkpt lat="44.04943" lon="1.82289">
        <ele>373.3</ele>
        <time>2016-08-27T09:40:20Z</time>
      </trkpt>
      <trkpt lat="44.04947" lon="1.82289">
        <ele>373.7</ele>
        <time>2016-08-27T09:40:21Z</time>
      </trkpt>
      <trkpt lat="44.04951" lon="1.82288">
        <ele>374</ele>
        <time>2016-08-27T09:40:22Z</time>
      </trkpt>
      <trkpt lat="44.04955" lon="1.82288">
        <ele>374.4</ele>
        <time>2016-08-27T09:40:23Z</time>
      </trkpt>
      <trkpt lat="44.0496" lon="1.82288">
        <ele>374.8</ele>
        <time>2016-08-27T09:40:24Z</time>
      </trkpt>
      <trkpt lat="44.04963" lon="1.82288">
        <ele>375</ele>
        <time>2016-08-27T09:40:25Z</time>
      </trkpt>
      <trkpt lat="44.04967" lon="1.82289">
        <ele>375.2</ele>
        <time>2016-08-27T09:40:26Z</time>
      </trkpt>
      <trkpt lat="44.04971" lon="1.8229">
        <ele>375.4</ele>
        <time>2016-08-27T09:40:27Z</time>
      </trkpt>
      <trkpt lat="44.04974" lon="1.8229">
        <ele>375.6</ele>
        <time>2016-08-27T09:40:28Z</time>
      </trkpt>
      <trkpt lat="44.04978" lon="1.82291">
        <ele>375.8</ele>
        <time>2016-08-27T09:40:29Z</time>
      </trkpt>
      <trkpt lat="44.04982" lon="1.8229">
        <ele>376</ele>
        <time>2016-08-27T09:40:30Z</time>
      </trkpt>
      <trkpt lat="44.04987" lon="1.82291">
        <ele>376.3</ele>
        <time>2016-08-27T09:40:31Z</time>
      </trkpt>
      <trkpt lat="44.04991" lon="1.82292">
        <ele>376.6</ele>
        <time>2016-08-27T09:40:32Z</time>
      </trkpt>
      <trkpt lat="44.04994" lon="1.82293">
        <ele>376.9</ele>
        <time>2016-08-27T09:40:33Z</time>
      </trkpt>
      <trkpt lat="44.04998" lon="1.82294">
        <ele>377.2</ele>
        <time>2016-08-27T09:40:34Z</time>
      </trkpt>
      <trkpt lat="44.05002" lon="1.82294">
        <ele>377.3</ele>
        <time>2016-08-27T09:40:35Z</time>
      </trkpt>
      <trkpt lat="44.05006" lon="1.82295">
        <ele>377.6</ele>
        <time>2016-08-27T09:40:36Z</time>
      </trkpt>
      <trkpt lat="44.05009" lon="1.82296">
        <ele>377.9</ele>
        <time>2016-08-27T09:40:37Z</time>
      </trkpt>
      <trkpt lat="44.05014" lon="1.82297">
        <ele>378.2</ele>
        <time>2016-08-27T09:40:38Z</time>
      </trkpt>
      <trkpt lat="44.05017" lon="1.82297">
        <ele>378.3</ele>
        <time>2016-08-27T09:40:39Z</time>
      </trkpt>
      <trkpt lat="44.05021" lon="1.82297">
        <ele>378.6</ele>
        <time>2016-08-27T09:40:40Z</time>
      </trkpt>
      <trkpt lat="44.05025" lon="1.82298">
        <ele>378.8</ele>
        <time>2016-08-27T09:40:41Z</time>
      </trkpt>
      <trkpt lat="44.05029" lon="1.82299">
        <ele>379</ele>
        <time>2016-08-27T09:40:42Z</time>
      </trkpt>
      <trkpt lat="44.05033" lon="1.82299">
        <ele>379.2</ele>
        <time>2016-08-27T09:40:43Z</time>
      </trkpt>
      <trkpt lat="44.05037" lon="1.82299">
        <ele>379.4</ele>
        <time>2016-08-27T09:40:44Z</time>
      </trkpt>
      <trkpt lat="44.0504" lon="1.82299">
        <ele>379.6</ele>
        <time>2016-08-27T09:40:45Z</time>
      </trkpt>
      <trkpt lat="44.05044" lon="1.82299">
        <ele>379.6</ele>
        <time>2016-08-27T09:40:46Z</time>
      </trkpt>
      <trkpt lat="44.05047" lon="1.82298">
        <ele>379.6</ele>
        <time>2016-08-27T09:40:47Z</time>
      </trkpt>
      <trkpt lat="44.05051" lon="1.82297">
        <ele>379.5</ele>
        <time>2016-08-27T09:40:48Z</time>
      </trkpt>
      <trkpt lat="44.05055" lon="1.82296">
        <ele>379.5</ele>
        <time>2016-08-27T09:40:50Z</time>
      </trkpt>
      <trkpt lat="44.0506" lon="1.82293">
        <ele>379.3</ele>
        <time>2016-08-27T09:40:51Z</time>
      </trkpt>
      <trkpt lat="44.05064" lon="1.82292">
        <ele>379.3</ele>
        <time>2016-08-27T09:40:52Z</time>
      </trkpt>
      <trkpt lat="44.05068" lon="1.8229">
        <ele>379.2</ele>
        <time>2016-08-27T09:40:53Z</time>
      </trkpt>
      <trkpt lat="44.05072" lon="1.82287">
        <ele>379.1</ele>
        <time>2016-08-27T09:40:54Z</time>
      </trkpt>
      <trkpt lat="44.05077" lon="1.82284">
        <ele>379.1</ele>
        <time>2016-08-27T09:40:55Z</time>
      </trkpt>
      <trkpt lat="44.05082" lon="1.8228">
        <ele>379</ele>
        <time>2016-08-27T09:40:57Z</time>
      </trkpt>
      <trkpt lat="44.05086" lon="1.82277">
        <ele>378.9</ele>
        <time>2016-08-27T09:40:58Z</time>
      </trkpt>
      <trkpt lat="44.0509" lon="1.82275">
        <ele>378.9</ele>
        <time>2016-08-27T09:41:00Z</time>
      </trkpt>
      <trkpt lat="44.05094" lon="1.82272">
        <ele>378.9</ele>
        <time>2016-08-27T09:41:01Z</time>
      </trkpt>
      <trkpt lat="44.05096" lon="1.82269">
        <ele>378.8</ele>
        <time>2016-08-27T09:41:02Z</time>
      </trkpt>
      <trkpt lat="44.05098" lon="1.82264">
        <ele>378.7</ele>
        <time>2016-08-27T09:41:03Z</time>
      </trkpt>
      <trkpt lat="44.05101" lon="1.82261">
        <ele>378.7</ele>
        <time>2016-08-27T09:41:04Z</time>
      </trkpt>
      <trkpt lat="44.05104" lon="1.82258">
        <ele>378.6</ele>
        <time>2016-08-27T09:41:05Z</time>
      </trkpt>
      <trkpt lat="44.05107" lon="1.82255">
        <ele>378.6</ele>
        <time>2016-08-27T09:41:06Z</time>
      </trkpt>
      <trkpt lat="44.05111" lon="1.82252">
        <ele>378.6</ele>
        <time>2016-08-27T09:41:07Z</time>
      </trkpt>
      <trkpt lat="44.05114" lon="1.8225">
        <ele>378.7</ele>
        <time>2016-08-27T09:41:08Z</time>
      </trkpt>
      <trkpt lat="44.05118" lon="1.82247">
        <ele>378.7</ele>
        <time>2016-08-27T09:41:09Z</time>
      </trkpt>
      <trkpt lat="44.05121" lon="1.82244">
        <ele>378.7</ele>
        <time>2016-08-27T09:41:10Z</time>
      </trkpt>
      <trkpt lat="44.05124" lon="1.82241">
        <ele>378.8</ele>
        <time>2016-08-27T09:41:11Z</time>
      </trkpt>
      <trkpt lat="44.05127" lon="1.82237">
        <ele>378.8</ele>
        <time>2016-08-27T09:41:12Z</time>
      </trkpt>
      <trkpt lat="44.05129" lon="1.82234">
        <ele>378.9</ele>
        <time>2016-08-27T09:41:13Z</time>
      </trkpt>
      <trkpt lat="44.05132" lon="1.82231">
        <ele>379</ele>
        <time>2016-08-27T09:41:14Z</time>
      </trkpt>
      <trkpt lat="44.05136" lon="1.82229">
        <ele>379.2</ele>
        <time>2016-08-27T09:41:15Z</time>
      </trkpt>
      <trkpt lat="44.05139" lon="1.82226">
        <ele>379.4</ele>
        <time>2016-08-27T09:41:16Z</time>
      </trkpt>
      <trkpt lat="44.05142" lon="1.82223">
        <ele>379.6</ele>
        <time>2016-08-27T09:41:17Z</time>
      </trkpt>
      <trkpt lat="44.05145" lon="1.8222">
        <ele>379.8</ele>
        <time>2016-08-27T09:41:18Z</time>
      </trkpt>
      <trkpt lat="44.05146" lon="1.82216">
        <ele>380</ele>
        <time>2016-08-27T09:41:19Z</time>
      </trkpt>
      <trkpt lat="44.05148" lon="1.82211">
        <ele>380.1</ele>
        <time>2016-08-27T09:41:20Z</time>
      </trkpt>
      <trkpt lat="44.05149" lon="1.82207">
        <ele>380.3</ele>
        <time>2016-08-27T09:41:21Z</time>
      </trkpt>
      <trkpt lat="44.05151" lon="1.82202">
        <ele>380.6</ele>
        <time>2016-08-27T09:41:22Z</time>
      </trkpt>
      <trkpt lat="44.05153" lon="1.82198">
        <ele>380.7</ele>
        <time>2016-08-27T09:41:23Z</time>
      </trkpt>
      <trkpt lat="44.05154" lon="1.82193">
        <ele>380.9</ele>
        <time>2016-08-27T09:41:24Z</time>
      </trkpt>
      <trkpt lat="44.05154" lon="1.82188">
        <ele>380.9</ele>
        <time>2016-08-27T09:41:25Z</time>
      </trkpt>
      <trkpt lat="44.05154" lon="1.82183">
        <ele>381</ele>
        <time>2016-08-27T09:41:26Z</time>
      </trkpt>
      <trkpt lat="44.05154" lon="1.82178">
        <ele>381.1</ele>
        <time>2016-08-27T09:41:27Z</time>
      </trkpt>
      <trkpt lat="44.05155" lon="1.82173">
        <ele>381.2</ele>
        <time>2016-08-27T09:41:28Z</time>
      </trkpt>
      <trkpt lat="44.05155" lon="1.82169">
        <ele>381.3</ele>
        <time>2016-08-27T09:41:29Z</time>
      </trkpt>
      <trkpt lat="44.05155" lon="1.82163">
        <ele>381.3</ele>
        <time>2016-08-27T09:41:30Z</time>
      </trkpt>
      <trkpt lat="44.05154" lon="1.82159">
        <ele>381.3</ele>
        <time>2016-08-27T09:41:31Z</time>
      </trkpt>
      <trkpt lat="44.05153" lon="1.82154">
        <ele>381.1</ele>
        <time>2016-08-27T09:41:32Z</time>
      </trkpt>
      <trkpt lat="44.05152" lon="1.8215">
        <ele>381</ele>
        <time>2016-08-27T09:41:33Z</time>
      </trkpt>
      <trkpt lat="44.05151" lon="1.82146">
        <ele>380.9</ele>
        <time>2016-08-27T09:41:34Z</time>
      </trkpt>
      <trkpt lat="44.0515" lon="1.82142">
        <ele>380.8</ele>
        <time>2016-08-27T09:41:35Z</time>
      </trkpt>
      <trkpt lat="44.05149" lon="1.82138">
        <ele>380.6</ele>
        <time>2016-08-27T09:41:36Z</time>
      </trkpt>
      <trkpt lat="44.05148" lon="1.82135">
        <ele>380.3</ele>
        <time>2016-08-27T09:41:37Z</time>
      </trkpt>
      <trkpt lat="44.05147" lon="1.82131">
        <ele>380.2</ele>
        <time>2016-08-27T09:41:38Z</time>
      </trkpt>
      <trkpt lat="44.05147" lon="1.82126">
        <ele>380.2</ele>
        <time>2016-08-27T09:41:39Z</time>
      </trkpt>
      <trkpt lat="44.05146" lon="1.82122">
        <ele>380.3</ele>
        <time>2016-08-27T09:41:40Z</time>
      </trkpt>
      <trkpt lat="44.05147" lon="1.82118">
        <ele>380.7</ele>
        <time>2016-08-27T09:41:41Z</time>
      </trkpt>
      <trkpt lat="44.05148" lon="1.82114">
        <ele>381</ele>
        <time>2016-08-27T09:41:42Z</time>
      </trkpt>
      <trkpt lat="44.05148" lon="1.8211">
        <ele>381.2</ele>
        <time>2016-08-27T09:41:43Z</time>
      </trkpt>
      <trkpt lat="44.05148" lon="1.82106">
        <ele>381.5</ele>
        <time>2016-08-27T09:41:44Z</time>
      </trkpt>
      <trkpt lat="44.05148" lon="1.82102">
        <ele>381.7</ele>
        <time>2016-08-27T09:41:45Z</time>
      </trkpt>
      <trkpt lat="44.05148" lon="1.82094">
        <ele>382.3</ele>
        <time>2016-08-27T09:41:47Z</time>
      </trkpt>
      <trkpt lat="44.05149" lon="1.8209">
        <ele>382.6</ele>
        <time>2016-08-27T09:41:48Z</time>
      </trkpt>
      <trkpt lat="44.05149" lon="1.82086">
        <ele>382.8</ele>
        <time>2016-08-27T09:41:49Z</time>
      </trkpt>
      <trkpt lat="44.05149" lon="1.82082">
        <ele>383.2</ele>
        <time>2016-08-27T09:41:50Z</time>
      </trkpt>
      <trkpt lat="44.0515" lon="1.82078">
        <ele>383.5</ele>
        <time>2016-08-27T09:41:51Z</time>
      </trkpt>
      <trkpt lat="44.0515" lon="1.82074">
        <ele>383.9</ele>
        <time>2016-08-27T09:41:52Z</time>
      </trkpt>
      <trkpt lat="44.05151" lon="1.8207">
        <ele>384.2</ele>
        <time>2016-08-27T09:41:53Z</time>
      </trkpt>
      <trkpt lat="44.0515" lon="1.82066">
        <ele>384.3</ele>
        <time>2016-08-27T09:41:54Z</time>
      </trkpt>
      <trkpt lat="44.05151" lon="1.82062">
        <ele>384.6</ele>
        <time>2016-08-27T09:41:55Z</time>
      </trkpt>
      <trkpt lat="44.0515" lon="1.82058">
        <ele>384.7</ele>
        <time>2016-08-27T09:41:56Z</time>
      </trkpt>
      <trkpt lat="44.05151" lon="1.8205">
        <ele>385.3</ele>
        <time>2016-08-27T09:41:58Z</time>
      </trkpt>
      <trkpt lat="44.05154" lon="1.82047">
        <ele>386.3</ele>
        <time>2016-08-27T09:42:00Z</time>
      </trkpt>
      <trkpt lat="44.05155" lon="1.82042">
        <ele>386.9</ele>
        <time>2016-08-27T09:42:02Z</time>
      </trkpt>
      <trkpt lat="44.05155" lon="1.82036">
        <ele>387.4</ele>
        <time>2016-08-27T09:42:04Z</time>
      </trkpt>
      <trkpt lat="44.05156" lon="1.8203">
        <ele>388.4</ele>
        <time>2016-08-27T09:42:06Z</time>
      </trkpt>
      <trkpt lat="44.05155" lon="1.82024">
        <ele>388.8</ele>
        <time>2016-08-27T09:42:08Z</time>
      </trkpt>
      <trkpt lat="44.05153" lon="1.82018">
        <ele>389.2</ele>
        <time>2016-08-27T09:42:10Z</time>
      </trkpt>
      <trkpt lat="44.05154" lon="1.82014">
        <ele>389.7</ele>
        <time>2016-08-27T09:42:11Z</time>
      </trkpt>
      <trkpt lat="44.05153" lon="1.8201">
        <ele>389.9</ele>
        <time>2016-08-27T09:42:12Z</time>
      </trkpt>
      <trkpt lat="44.05151" lon="1.82007">
        <ele>390</ele>
        <time>2016-08-27T09:42:13Z</time>
      </trkpt>
      <trkpt lat="44.05149" lon="1.82004">
        <ele>390.1</ele>
        <time>2016-08-27T09:42:14Z</time>
      </trkpt>
      <trkpt lat="44.05145" lon="1.81996">
        <ele>390.3</ele>
        <time>2016-08-27T09:42:16Z</time>
      </trkpt>
      <trkpt lat="44.05141" lon="1.81987">
        <ele>390.7</ele>
        <time>2016-08-27T09:42:18Z</time>
      </trkpt>
      <trkpt lat="44.05139" lon="1.81982">
        <ele>390.9</ele>
        <time>2016-08-27T09:42:19Z</time>
      </trkpt>
      <trkpt lat="44.05136" lon="1.81978">
        <ele>391</ele>
        <time>2016-08-27T09:42:20Z</time>
      </trkpt>
      <trkpt lat="44.05133" lon="1.81973">
        <ele>391.2</ele>
        <time>2016-08-27T09:42:21Z</time>
      </trkpt>
      <trkpt lat="44.05131" lon="1.81968">
        <ele>391.4</ele>
        <time>2016-08-27T09:42:22Z</time>
      </trkpt>
      <trkpt lat="44.05128" lon="1.81963">
        <ele>391.8</ele>
        <time>2016-08-27T09:42:23Z</time>
      </trkpt>
      <trkpt lat="44.05126" lon="1.81959">
        <ele>392.1</ele>
        <time>2016-08-27T09:42:24Z</time>
      </trkpt>
      <trkpt lat="44.05124" lon="1.81954">
        <ele>391.8</ele>
        <time>2016-08-27T09:42:25Z</time>
      </trkpt>
      <trkpt lat="44.05123" lon="1.81948">
        <ele>391.6</ele>
        <time>2016-08-27T09:42:27Z</time>
      </trkpt>
      <trkpt lat="44.05123" lon="1.81944">
        <ele>391.5</ele>
        <time>2016-08-27T09:42:28Z</time>
      </trkpt>
      <trkpt lat="44.05123" lon="1.81939">
        <ele>391.3</ele>
        <time>2016-08-27T09:42:29Z</time>
      </trkpt>
      <trkpt lat="44.05123" lon="1.81933">
        <ele>391.2</ele>
        <time>2016-08-27T09:42:30Z</time>
      </trkpt>
      <trkpt lat="44.05122" lon="1.81928">
        <ele>391.1</ele>
        <time>2016-08-27T09:42:31Z</time>
      </trkpt>
      <trkpt lat="44.05123" lon="1.81922">
        <ele>391.1</ele>
        <time>2016-08-27T09:42:32Z</time>
      </trkpt>
      <trkpt lat="44.05123" lon="1.81916">
        <ele>391.2</ele>
        <time>2016-08-27T09:42:33Z</time>
      </trkpt>
      <trkpt lat="44.05125" lon="1.81911">
        <ele>391.3</ele>
        <time>2016-08-27T09:42:34Z</time>
      </trkpt>
      <trkpt lat="44.05126" lon="1.81907">
        <ele>391.5</ele>
        <time>2016-08-27T09:42:35Z</time>
      </trkpt>
      <trkpt lat="44.05128" lon="1.81903">
        <ele>391.7</ele>
        <time>2016-08-27T09:42:36Z</time>
      </trkpt>
      <trkpt lat="44.0513" lon="1.81899">
        <ele>391.8</ele>
        <time>2016-08-27T09:42:37Z</time>
      </trkpt>
      <trkpt lat="44.05131" lon="1.81895">
        <ele>392</ele>
        <time>2016-08-27T09:42:38Z</time>
      </trkpt>
      <trkpt lat="44.05133" lon="1.81892">
        <ele>392.1</ele>
        <time>2016-08-27T09:42:39Z</time>
      </trkpt>
      <trkpt lat="44.05136" lon="1.81889">
        <ele>392.4</ele>
        <time>2016-08-27T09:42:40Z</time>
      </trkpt>
      <trkpt lat="44.05138" lon="1.81888">
        <ele>392.7</ele>
        <time>2016-08-27T09:42:41Z</time>
      </trkpt>
      <trkpt lat="44.05142" lon="1.81887">
        <ele>393</ele>
        <time>2016-08-27T09:42:42Z</time>
      </trkpt>
      <trkpt lat="44.05145" lon="1.81886">
        <ele>393.4</ele>
        <time>2016-08-27T09:42:43Z</time>
      </trkpt>
      <trkpt lat="44.05148" lon="1.81885">
        <ele>393.7</ele>
        <time>2016-08-27T09:42:44Z</time>
      </trkpt>
      <trkpt lat="44.05151" lon="1.81884">
        <ele>394</ele>
        <time>2016-08-27T09:42:45Z</time>
      </trkpt>
      <trkpt lat="44.05155" lon="1.81882">
        <ele>394.4</ele>
        <time>2016-08-27T09:42:46Z</time>
      </trkpt>
      <trkpt lat="44.05158" lon="1.81882">
        <ele>394.7</ele>
        <time>2016-08-27T09:42:47Z</time>
      </trkpt>
      <trkpt lat="44.05161" lon="1.81879">
        <ele>395</ele>
        <time>2016-08-27T09:42:48Z</time>
      </trkpt>
      <trkpt lat="44.05165" lon="1.81875">
        <ele>395.3</ele>
        <time>2016-08-27T09:42:50Z</time>
      </trkpt>
      <trkpt lat="44.05168" lon="1.8187">
        <ele>395.2</ele>
        <time>2016-08-27T09:42:52Z</time>
      </trkpt>
      <trkpt lat="44.05173" lon="1.81866">
        <ele>395.3</ele>
        <time>2016-08-27T09:42:54Z</time>
      </trkpt>
      <trkpt lat="44.05178" lon="1.81862">
        <ele>395.4</ele>
        <time>2016-08-27T09:42:56Z</time>
      </trkpt>
      <trkpt lat="44.0518" lon="1.8186">
        <ele>395.4</ele>
        <time>2016-08-27T09:42:57Z</time>
      </trkpt>
      <trkpt lat="44.05183" lon="1.81858">
        <ele>395.4</ele>
        <time>2016-08-27T09:42:58Z</time>
      </trkpt>
      <trkpt lat="44.05186" lon="1.81857">
        <ele>395.6</ele>
        <time>2016-08-27T09:42:59Z</time>
      </trkpt>
      <trkpt lat="44.05188" lon="1.81854">
        <ele>395.6</ele>
        <time>2016-08-27T09:43:00Z</time>
      </trkpt>
      <trkpt lat="44.05191" lon="1.81852">
        <ele>395.5</ele>
        <time>2016-08-27T09:43:01Z</time>
      </trkpt>
      <trkpt lat="44.05193" lon="1.81849">
        <ele>395.5</ele>
        <time>2016-08-27T09:43:02Z</time>
      </trkpt>
      <trkpt lat="44.05195" lon="1.81846">
        <ele>395.3</ele>
        <time>2016-08-27T09:43:03Z</time>
      </trkpt>
      <trkpt lat="44.05197" lon="1.81843">
        <ele>395.1</ele>
        <time>2016-08-27T09:43:04Z</time>
      </trkpt>
      <trkpt lat="44.05198" lon="1.8184">
        <ele>394.9</ele>
        <time>2016-08-27T09:43:05Z</time>
      </trkpt>
      <trkpt lat="44.052" lon="1.81837">
        <ele>394.8</ele>
        <time>2016-08-27T09:43:06Z</time>
      </trkpt>
      <trkpt lat="44.05203" lon="1.81834">
        <ele>394.6</ele>
        <time>2016-08-27T09:43:07Z</time>
      </trkpt>
      <trkpt lat="44.05206" lon="1.81831">
        <ele>394.5</ele>
        <time>2016-08-27T09:43:09Z</time>
      </trkpt>
      <trkpt lat="44.05209" lon="1.81827">
        <ele>394.3</ele>
        <time>2016-08-27T09:43:11Z</time>
      </trkpt>
      <trkpt lat="44.05212" lon="1.81824">
        <ele>394.5</ele>
        <time>2016-08-27T09:43:13Z</time>
      </trkpt>
      <trkpt lat="44.05214" lon="1.81821">
        <ele>394.5</ele>
        <time>2016-08-27T09:43:15Z</time>
      </trkpt>
      <trkpt lat="44.05212" lon="1.81818">
        <ele>393.8</ele>
        <time>2016-08-27T09:43:26Z</time>
      </trkpt>
      <trkpt lat="44.05211" lon="1.81815">
        <ele>393.3</ele>
        <time>2016-08-27T09:43:30Z</time>
      </trkpt>
      <trkpt lat="44.05213" lon="1.8181">
        <ele>393.2</ele>
        <time>2016-08-27T09:43:33Z</time>
      </trkpt>
      <trkpt lat="44.05218" lon="1.81809">
        <ele>393.8</ele>
        <time>2016-08-27T09:43:35Z</time>
      </trkpt>
      <trkpt lat="44.05222" lon="1.81804">
        <ele>394.2</ele>
        <time>2016-08-27T09:43:37Z</time>
      </trkpt>
      <trkpt lat="44.05225" lon="1.818">
        <ele>394.2</ele>
        <time>2016-08-27T09:43:38Z</time>
      </trkpt>
      <trkpt lat="44.05228" lon="1.81791">
        <ele>393.9</ele>
        <time>2016-08-27T09:43:40Z</time>
      </trkpt>
      <trkpt lat="44.05229" lon="1.81786">
        <ele>393.8</ele>
        <time>2016-08-27T09:43:41Z</time>
      </trkpt>
      <trkpt lat="44.05232" lon="1.81777">
        <ele>393.5</ele>
        <time>2016-08-27T09:43:43Z</time>
      </trkpt>
      <trkpt lat="44.05233" lon="1.81774">
        <ele>393.5</ele>
        <time>2016-08-27T09:43:44Z</time>
      </trkpt>
      <trkpt lat="44.05235" lon="1.81767">
        <ele>393.4</ele>
        <time>2016-08-27T09:43:46Z</time>
      </trkpt>
      <trkpt lat="44.05237" lon="1.81761">
        <ele>393.3</ele>
        <time>2016-08-27T09:43:48Z</time>
      </trkpt>
      <trkpt lat="44.0524" lon="1.81754">
        <ele>393.2</ele>
        <time>2016-08-27T09:43:50Z</time>
      </trkpt>
      <trkpt lat="44.05241" lon="1.81751">
        <ele>393.2</ele>
        <time>2016-08-27T09:43:51Z</time>
      </trkpt>
      <trkpt lat="44.05244" lon="1.81744">
        <ele>393.4</ele>
        <time>2016-08-27T09:43:53Z</time>
      </trkpt>
      <trkpt lat="44.05246" lon="1.81741">
        <ele>393.5</ele>
        <time>2016-08-27T09:43:54Z</time>
      </trkpt>
      <trkpt lat="44.05249" lon="1.81737">
        <ele>393.6</ele>
        <time>2016-08-27T09:43:55Z</time>
      </trkpt>
      <trkpt lat="44.05253" lon="1.81729">
        <ele>393.9</ele>
        <time>2016-08-27T09:43:57Z</time>
      </trkpt>
      <trkpt lat="44.05257" lon="1.81723">
        <ele>394.1</ele>
        <time>2016-08-27T09:43:58Z</time>
      </trkpt>
      <trkpt lat="44.05259" lon="1.8172">
        <ele>394.3</ele>
        <time>2016-08-27T09:43:59Z</time>
      </trkpt>
      <trkpt lat="44.05261" lon="1.81717">
        <ele>394.5</ele>
        <time>2016-08-27T09:44:00Z</time>
      </trkpt>
      <trkpt lat="44.05264" lon="1.81713">
        <ele>394.8</ele>
        <time>2016-08-27T09:44:01Z</time>
      </trkpt>
      <trkpt lat="44.05267" lon="1.8171">
        <ele>395.1</ele>
        <time>2016-08-27T09:44:02Z</time>
      </trkpt>
      <trkpt lat="44.05269" lon="1.81707">
        <ele>395.2</ele>
        <time>2016-08-27T09:44:03Z</time>
      </trkpt>
      <trkpt lat="44.05272" lon="1.81704">
        <ele>395.4</ele>
        <time>2016-08-27T09:44:04Z</time>
      </trkpt>
      <trkpt lat="44.05275" lon="1.81701">
        <ele>395.7</ele>
        <time>2016-08-27T09:44:05Z</time>
      </trkpt>
      <trkpt lat="44.05277" lon="1.81698">
        <ele>395.8</ele>
        <time>2016-08-27T09:44:06Z</time>
      </trkpt>
      <trkpt lat="44.05279" lon="1.81695">
        <ele>396</ele>
        <time>2016-08-27T09:44:07Z</time>
      </trkpt>
      <trkpt lat="44.05282" lon="1.81691">
        <ele>396.1</ele>
        <time>2016-08-27T09:44:08Z</time>
      </trkpt>
      <trkpt lat="44.05284" lon="1.81689">
        <ele>396.3</ele>
        <time>2016-08-27T09:44:09Z</time>
      </trkpt>
      <trkpt lat="44.05286" lon="1.81686">
        <ele>396.4</ele>
        <time>2016-08-27T09:44:10Z</time>
      </trkpt>
      <trkpt lat="44.05288" lon="1.81682">
        <ele>396.4</ele>
        <time>2016-08-27T09:44:11Z</time>
      </trkpt>
      <trkpt lat="44.0529" lon="1.81679">
        <ele>396.4</ele>
        <time>2016-08-27T09:44:12Z</time>
      </trkpt>
      <trkpt lat="44.05292" lon="1.81675">
        <ele>396.4</ele>
        <time>2016-08-27T09:44:13Z</time>
      </trkpt>
      <trkpt lat="44.05296" lon="1.81669">
        <ele>396.6</ele>
        <time>2016-08-27T09:44:15Z</time>
      </trkpt>
      <trkpt lat="44.05298" lon="1.81666">
        <ele>396.7</ele>
        <time>2016-08-27T09:44:16Z</time>
      </trkpt>
      <trkpt lat="44.05301" lon="1.81663">
        <ele>396.9</ele>
        <time>2016-08-27T09:44:17Z</time>
      </trkpt>
      <trkpt lat="44.05303" lon="1.8166">
        <ele>397.1</ele>
        <time>2016-08-27T09:44:18Z</time>
      </trkpt>
      <trkpt lat="44.05308" lon="1.81654">
        <ele>397.6</ele>
        <time>2016-08-27T09:44:20Z</time>
      </trkpt>
      <trkpt lat="44.05312" lon="1.81649">
        <ele>398</ele>
        <time>2016-08-27T09:44:22Z</time>
      </trkpt>
      <trkpt lat="44.05314" lon="1.81646">
        <ele>398.1</ele>
        <time>2016-08-27T09:44:23Z</time>
      </trkpt>
      <trkpt lat="44.05316" lon="1.81642">
        <ele>398.2</ele>
        <time>2016-08-27T09:44:24Z</time>
      </trkpt>
      <trkpt lat="44.05318" lon="1.8164">
        <ele>398.4</ele>
        <time>2016-08-27T09:44:25Z</time>
      </trkpt>
      <trkpt lat="44.05322" lon="1.81634">
        <ele>398.7</ele>
        <time>2016-08-27T09:44:27Z</time>
      </trkpt>
      <trkpt lat="44.05326" lon="1.81628">
        <ele>399.1</ele>
        <time>2016-08-27T09:44:29Z</time>
      </trkpt>
      <trkpt lat="44.05328" lon="1.81622">
        <ele>398.9</ele>
        <time>2016-08-27T09:44:31Z</time>
      </trkpt>
      <trkpt lat="44.0533" lon="1.81615">
        <ele>398.9</ele>
        <time>2016-08-27T09:44:33Z</time>
      </trkpt>
      <trkpt lat="44.05333" lon="1.8161">
        <ele>399.2</ele>
        <time>2016-08-27T09:44:35Z</time>
      </trkpt>
      <trkpt lat="44.05336" lon="1.81607">
        <ele>399.6</ele>
        <time>2016-08-27T09:44:36Z</time>
      </trkpt>
      <trkpt lat="44.05338" lon="1.81603">
        <ele>399.9</ele>
        <time>2016-08-27T09:44:37Z</time>
      </trkpt>
      <trkpt lat="44.05341" lon="1.816">
        <ele>400.2</ele>
        <time>2016-08-27T09:44:38Z</time>
      </trkpt>
      <trkpt lat="44.05343" lon="1.81596">
        <ele>400.5</ele>
        <time>2016-08-27T09:44:39Z</time>
      </trkpt>
      <trkpt lat="44.05346" lon="1.81592">
        <ele>400.8</ele>
        <time>2016-08-27T09:44:40Z</time>
      </trkpt>
      <trkpt lat="44.0535" lon="1.81583">
        <ele>401.4</ele>
        <time>2016-08-27T09:44:42Z</time>
      </trkpt>
      <trkpt lat="44.05352" lon="1.81579">
        <ele>401.6</ele>
        <time>2016-08-27T09:44:43Z</time>
      </trkpt>
      <trkpt lat="44.05354" lon="1.81574">
        <ele>401.7</ele>
        <time>2016-08-27T09:44:44Z</time>
      </trkpt>
      <trkpt lat="44.05357" lon="1.81565">
        <ele>402</ele>
        <time>2016-08-27T09:44:46Z</time>
      </trkpt>
      <trkpt lat="44.05359" lon="1.81559">
        <ele>402.4</ele>
        <time>2016-08-27T09:44:47Z</time>
      </trkpt>
      <trkpt lat="44.05361" lon="1.81555">
        <ele>402.6</ele>
        <time>2016-08-27T09:44:48Z</time>
      </trkpt>
      <trkpt lat="44.05364" lon="1.81548">
        <ele>403.1</ele>
        <time>2016-08-27T09:44:49Z</time>
      </trkpt>
      <trkpt lat="44.05366" lon="1.81544">
        <ele>403.3</ele>
        <time>2016-08-27T09:44:50Z</time>
      </trkpt>
      <trkpt lat="44.05368" lon="1.81538">
        <ele>403.9</ele>
        <time>2016-08-27T09:44:51Z</time>
      </trkpt>
      <trkpt lat="44.05371" lon="1.81533">
        <ele>404.4</ele>
        <time>2016-08-27T09:44:52Z</time>
      </trkpt>
      <trkpt lat="44.05373" lon="1.81528">
        <ele>405.1</ele>
        <time>2016-08-27T09:44:53Z</time>
      </trkpt>
      <trkpt lat="44.05375" lon="1.81524">
        <ele>405.6</ele>
        <time>2016-08-27T09:44:54Z</time>
      </trkpt>
      <trkpt lat="44.05378" lon="1.81519">
        <ele>406.3</ele>
        <time>2016-08-27T09:44:55Z</time>
      </trkpt>
      <trkpt lat="44.0538" lon="1.81514">
        <ele>406.6</ele>
        <time>2016-08-27T09:44:56Z</time>
      </trkpt>
      <trkpt lat="44.05382" lon="1.8151">
        <ele>406.9</ele>
        <time>2016-08-27T09:44:57Z</time>
      </trkpt>
      <trkpt lat="44.05384" lon="1.81505">
        <ele>407.2</ele>
        <time>2016-08-27T09:44:58Z</time>
      </trkpt>
      <trkpt lat="44.05386" lon="1.81501">
        <ele>407.4</ele>
        <time>2016-08-27T09:44:59Z</time>
      </trkpt>
      <trkpt lat="44.05387" lon="1.81496">
        <ele>407.6</ele>
        <time>2016-08-27T09:45:00Z</time>
      </trkpt>
      <trkpt lat="44.05389" lon="1.81492">
        <ele>407.8</ele>
        <time>2016-08-27T09:45:01Z</time>
      </trkpt>
      <trkpt lat="44.0539" lon="1.81487">
        <ele>408</ele>
        <time>2016-08-27T09:45:02Z</time>
      </trkpt>
      <trkpt lat="44.05392" lon="1.81483">
        <ele>408.1</ele>
        <time>2016-08-27T09:45:03Z</time>
      </trkpt>
      <trkpt lat="44.05393" lon="1.81479">
        <ele>408.2</ele>
        <time>2016-08-27T09:45:04Z</time>
      </trkpt>
      <trkpt lat="44.05393" lon="1.81474">
        <ele>408</ele>
        <time>2016-08-27T09:45:05Z</time>
      </trkpt>
      <trkpt lat="44.05394" lon="1.8147">
        <ele>408</ele>
        <time>2016-08-27T09:45:06Z</time>
      </trkpt>
      <trkpt lat="44.05395" lon="1.81466">
        <ele>408.1</ele>
        <time>2016-08-27T09:45:07Z</time>
      </trkpt>
      <trkpt lat="44.05396" lon="1.81461">
        <ele>408.2</ele>
        <time>2016-08-27T09:45:08Z</time>
      </trkpt>
      <trkpt lat="44.05398" lon="1.81458">
        <ele>408.4</ele>
        <time>2016-08-27T09:45:09Z</time>
      </trkpt>
      <trkpt lat="44.054" lon="1.81454">
        <ele>408.5</ele>
        <time>2016-08-27T09:45:10Z</time>
      </trkpt>
      <trkpt lat="44.05402" lon="1.8145">
        <ele>408.8</ele>
        <time>2016-08-27T09:45:11Z</time>
      </trkpt>
      <trkpt lat="44.05405" lon="1.81446">
        <ele>409.1</ele>
        <time>2016-08-27T09:45:12Z</time>
      </trkpt>
      <trkpt lat="44.05407" lon="1.81443">
        <ele>409.4</ele>
        <time>2016-08-27T09:45:13Z</time>
      </trkpt>
      <trkpt lat="44.05409" lon="1.81439">
        <ele>409.7</ele>
        <time>2016-08-27T09:45:14Z</time>
      </trkpt>
      <trkpt lat="44.05411" lon="1.81435">
        <ele>409.8</ele>
        <time>2016-08-27T09:45:15Z</time>
      </trkpt>
      <trkpt lat="44.05413" lon="1.81432">
        <ele>410.1</ele>
        <time>2016-08-27T09:45:16Z</time>
      </trkpt>
      <trkpt lat="44.05416" lon="1.81429">
        <ele>410.4</ele>
        <time>2016-08-27T09:45:17Z</time>
      </trkpt>
      <trkpt lat="44.05418" lon="1.81424">
        <ele>410.5</ele>
        <time>2016-08-27T09:45:18Z</time>
      </trkpt>
      <trkpt lat="44.05419" lon="1.8142">
        <ele>410.6</ele>
        <time>2016-08-27T09:45:19Z</time>
      </trkpt>
      <trkpt lat="44.0542" lon="1.81416">
        <ele>410.6</ele>
        <time>2016-08-27T09:45:20Z</time>
      </trkpt>
      <trkpt lat="44.05421" lon="1.81411">
        <ele>410.4</ele>
        <time>2016-08-27T09:45:21Z</time>
      </trkpt>
      <trkpt lat="44.05421" lon="1.81406">
        <ele>410.2</ele>
        <time>2016-08-27T09:45:22Z</time>
      </trkpt>
      <trkpt lat="44.05421" lon="1.81402">
        <ele>410.1</ele>
        <time>2016-08-27T09:45:23Z</time>
      </trkpt>
      <trkpt lat="44.05422" lon="1.81397">
        <ele>410</ele>
        <time>2016-08-27T09:45:24Z</time>
      </trkpt>
      <trkpt lat="44.05425" lon="1.81393">
        <ele>410.2</ele>
        <time>2016-08-27T09:45:25Z</time>
      </trkpt>
      <trkpt lat="44.05426" lon="1.81389">
        <ele>410.3</ele>
        <time>2016-08-27T09:45:26Z</time>
      </trkpt>
      <trkpt lat="44.05427" lon="1.81385">
        <ele>410.2</ele>
        <time>2016-08-27T09:45:27Z</time>
      </trkpt>
      <trkpt lat="44.05428" lon="1.81381">
        <ele>410.2</ele>
        <time>2016-08-27T09:45:28Z</time>
      </trkpt>
      <trkpt lat="44.05429" lon="1.81376">
        <ele>410.1</ele>
        <time>2016-08-27T09:45:29Z</time>
      </trkpt>
      <trkpt lat="44.0543" lon="1.81371">
        <ele>409.8</ele>
        <time>2016-08-27T09:45:30Z</time>
      </trkpt>
      <trkpt lat="44.05432" lon="1.81365">
        <ele>409.4</ele>
        <time>2016-08-27T09:45:31Z</time>
      </trkpt>
      <trkpt lat="44.05434" lon="1.8136">
        <ele>409.1</ele>
        <time>2016-08-27T09:45:32Z</time>
      </trkpt>
      <trkpt lat="44.05436" lon="1.81354">
        <ele>408.8</ele>
        <time>2016-08-27T09:45:33Z</time>
      </trkpt>
      <trkpt lat="44.05438" lon="1.81348">
        <ele>408.5</ele>
        <time>2016-08-27T09:45:34Z</time>
      </trkpt>
      <trkpt lat="44.0544" lon="1.81343">
        <ele>408.2</ele>
        <time>2016-08-27T09:45:35Z</time>
      </trkpt>
      <trkpt lat="44.05443" lon="1.81335">
        <ele>407.9</ele>
        <time>2016-08-27T09:45:36Z</time>
      </trkpt>
      <trkpt lat="44.05445" lon="1.81331">
        <ele>407.6</ele>
        <time>2016-08-27T09:45:37Z</time>
      </trkpt>
      <trkpt lat="44.05455" lon="1.81303">
        <ele>405.9</ele>
        <time>2016-08-27T09:45:39Z</time>
      </trkpt>
      <trkpt lat="44.05455" lon="1.81287">
        <ele>404.1</ele>
        <time>2016-08-27T09:45:41Z</time>
      </trkpt>
      <trkpt lat="44.05457" lon="1.81279">
        <ele>403.7</ele>
        <time>2016-08-27T09:45:42Z</time>
      </trkpt>
      <trkpt lat="44.05459" lon="1.81273">
        <ele>403.5</ele>
        <time>2016-08-27T09:45:43Z</time>
      </trkpt>
      <trkpt lat="44.05458" lon="1.81266">
        <ele>402.8</ele>
        <time>2016-08-27T09:45:44Z</time>
      </trkpt>
      <trkpt lat="44.05463" lon="1.81257">
        <ele>403.4</ele>
        <time>2016-08-27T09:45:45Z</time>
      </trkpt>
      <trkpt lat="44.05465" lon="1.81251">
        <ele>403.2</ele>
        <time>2016-08-27T09:45:46Z</time>
      </trkpt>
      <trkpt lat="44.05467" lon="1.81246">
        <ele>403.2</ele>
        <time>2016-08-27T09:45:47Z</time>
      </trkpt>
      <trkpt lat="44.05468" lon="1.81239">
        <ele>403</ele>
        <time>2016-08-27T09:45:48Z</time>
      </trkpt>
      <trkpt lat="44.05469" lon="1.81233">
        <ele>402.7</ele>
        <time>2016-08-27T09:45:49Z</time>
      </trkpt>
      <trkpt lat="44.05471" lon="1.81227">
        <ele>402.6</ele>
        <time>2016-08-27T09:45:50Z</time>
      </trkpt>
      <trkpt lat="44.05471" lon="1.81221">
        <ele>402.2</ele>
        <time>2016-08-27T09:45:51Z</time>
      </trkpt>
      <trkpt lat="44.05473" lon="1.81214">
        <ele>401.9</ele>
        <time>2016-08-27T09:45:52Z</time>
      </trkpt>
      <trkpt lat="44.05474" lon="1.81208">
        <ele>401.8</ele>
        <time>2016-08-27T09:45:53Z</time>
      </trkpt>
      <trkpt lat="44.05476" lon="1.81201">
        <ele>402.6</ele>
        <time>2016-08-27T09:45:54Z</time>
      </trkpt>
      <trkpt lat="44.05483" lon="1.81189">
        <ele>404.5</ele>
        <time>2016-08-27T09:45:55Z</time>
      </trkpt>
      <trkpt lat="44.05488" lon="1.81174">
        <ele>405.9</ele>
        <time>2016-08-27T09:45:57Z</time>
      </trkpt>
      <trkpt lat="44.0549" lon="1.81167">
        <ele>406.5</ele>
        <time>2016-08-27T09:45:58Z</time>
      </trkpt>
      <trkpt lat="44.0549" lon="1.8116">
        <ele>406.7</ele>
        <time>2016-08-27T09:45:59Z</time>
      </trkpt>
      <trkpt lat="44.05493" lon="1.81151">
        <ele>407.3</ele>
        <time>2016-08-27T09:46:00Z</time>
      </trkpt>
      <trkpt lat="44.05494" lon="1.81145">
        <ele>407.6</ele>
        <time>2016-08-27T09:46:01Z</time>
      </trkpt>
      <trkpt lat="44.05496" lon="1.8114">
        <ele>407.8</ele>
        <time>2016-08-27T09:46:02Z</time>
      </trkpt>
      <trkpt lat="44.05498" lon="1.81135">
        <ele>408.2</ele>
        <time>2016-08-27T09:46:03Z</time>
      </trkpt>
      <trkpt lat="44.055" lon="1.81129">
        <ele>408.5</ele>
        <time>2016-08-27T09:46:04Z</time>
      </trkpt>
      <trkpt lat="44.05501" lon="1.81123">
        <ele>408.6</ele>
        <time>2016-08-27T09:46:05Z</time>
      </trkpt>
      <trkpt lat="44.05503" lon="1.81118">
        <ele>408.8</ele>
        <time>2016-08-27T09:46:06Z</time>
      </trkpt>
      <trkpt lat="44.05505" lon="1.81111">
        <ele>408.9</ele>
        <time>2016-08-27T09:46:07Z</time>
      </trkpt>
      <trkpt lat="44.05506" lon="1.81105">
        <ele>409</ele>
        <time>2016-08-27T09:46:08Z</time>
      </trkpt>
      <trkpt lat="44.05507" lon="1.81098">
        <ele>409.1</ele>
        <time>2016-08-27T09:46:09Z</time>
      </trkpt>
      <trkpt lat="44.05509" lon="1.81092">
        <ele>409.2</ele>
        <time>2016-08-27T09:46:10Z</time>
      </trkpt>
      <trkpt lat="44.05511" lon="1.81085">
        <ele>409.4</ele>
        <time>2016-08-27T09:46:11Z</time>
      </trkpt>
      <trkpt lat="44.05512" lon="1.81079">
        <ele>409.5</ele>
        <time>2016-08-27T09:46:12Z</time>
      </trkpt>
      <trkpt lat="44.05514" lon="1.81072">
        <ele>409.6</ele>
        <time>2016-08-27T09:46:13Z</time>
      </trkpt>
      <trkpt lat="44.05514" lon="1.81066">
        <ele>409.6</ele>
        <time>2016-08-27T09:46:14Z</time>
      </trkpt>
      <trkpt lat="44.05514" lon="1.81058">
        <ele>409.5</ele>
        <time>2016-08-27T09:46:15Z</time>
      </trkpt>
      <trkpt lat="44.05514" lon="1.81052">
        <ele>409.5</ele>
        <time>2016-08-27T09:46:16Z</time>
      </trkpt>
      <trkpt lat="44.05515" lon="1.81046">
        <ele>409.5</ele>
        <time>2016-08-27T09:46:17Z</time>
      </trkpt>
      <trkpt lat="44.05516" lon="1.81039">
        <ele>409.5</ele>
        <time>2016-08-27T09:46:18Z</time>
      </trkpt>
      <trkpt lat="44.05515" lon="1.81034">
        <ele>409.4</ele>
        <time>2016-08-27T09:46:19Z</time>
      </trkpt>
      <trkpt lat="44.05518" lon="1.81029">
        <ele>409.8</ele>
        <time>2016-08-27T09:46:20Z</time>
      </trkpt>
      <trkpt lat="44.05521" lon="1.81024">
        <ele>410.1</ele>
        <time>2016-08-27T09:46:21Z</time>
      </trkpt>
      <trkpt lat="44.05523" lon="1.8102">
        <ele>410.3</ele>
        <time>2016-08-27T09:46:22Z</time>
      </trkpt>
      <trkpt lat="44.05525" lon="1.81014">
        <ele>410.6</ele>
        <time>2016-08-27T09:46:23Z</time>
      </trkpt>
      <trkpt lat="44.05526" lon="1.81008">
        <ele>410.6</ele>
        <time>2016-08-27T09:46:24Z</time>
      </trkpt>
      <trkpt lat="44.05527" lon="1.81003">
        <ele>410.8</ele>
        <time>2016-08-27T09:46:25Z</time>
      </trkpt>
      <trkpt lat="44.05527" lon="1.80996">
        <ele>410.9</ele>
        <time>2016-08-27T09:46:26Z</time>
      </trkpt>
      <trkpt lat="44.05528" lon="1.8099">
        <ele>411</ele>
        <time>2016-08-27T09:46:27Z</time>
      </trkpt>
      <trkpt lat="44.05528" lon="1.80984">
        <ele>411.1</ele>
        <time>2016-08-27T09:46:28Z</time>
      </trkpt>
      <trkpt lat="44.05528" lon="1.80975">
        <ele>411.1</ele>
        <time>2016-08-27T09:46:29Z</time>
      </trkpt>
      <trkpt lat="44.05528" lon="1.80968">
        <ele>411.1</ele>
        <time>2016-08-27T09:46:30Z</time>
      </trkpt>
      <trkpt lat="44.05528" lon="1.80961">
        <ele>411.2</ele>
        <time>2016-08-27T09:46:31Z</time>
      </trkpt>
      <trkpt lat="44.05526" lon="1.80954">
        <ele>411.1</ele>
        <time>2016-08-27T09:46:32Z</time>
      </trkpt>
      <trkpt lat="44.05525" lon="1.80947">
        <ele>411.2</ele>
        <time>2016-08-27T09:46:33Z</time>
      </trkpt>
      <trkpt lat="44.05524" lon="1.80941">
        <ele>411.4</ele>
        <time>2016-08-27T09:46:34Z</time>
      </trkpt>
      <trkpt lat="44.05522" lon="1.80933">
        <ele>411.4</ele>
        <time>2016-08-27T09:46:35Z</time>
      </trkpt>
      <trkpt lat="44.05521" lon="1.80927">
        <ele>411.5</ele>
        <time>2016-08-27T09:46:36Z</time>
      </trkpt>
      <trkpt lat="44.05523" lon="1.8092">
        <ele>412</ele>
        <time>2016-08-27T09:46:37Z</time>
      </trkpt>
      <trkpt lat="44.05524" lon="1.80914">
        <ele>412.4</ele>
        <time>2016-08-27T09:46:38Z</time>
      </trkpt>
      <trkpt lat="44.05524" lon="1.80907">
        <ele>412.6</ele>
        <time>2016-08-27T09:46:39Z</time>
      </trkpt>
      <trkpt lat="44.05522" lon="1.80902">
        <ele>412.7</ele>
        <time>2016-08-27T09:46:40Z</time>
      </trkpt>
      <trkpt lat="44.05523" lon="1.80895">
        <ele>413</ele>
        <time>2016-08-27T09:46:41Z</time>
      </trkpt>
      <trkpt lat="44.05522" lon="1.8089">
        <ele>413.1</ele>
        <time>2016-08-27T09:46:42Z</time>
      </trkpt>
      <trkpt lat="44.05519" lon="1.80882">
        <ele>413</ele>
        <time>2016-08-27T09:46:43Z</time>
      </trkpt>
      <trkpt lat="44.05518" lon="1.80877">
        <ele>413.1</ele>
        <time>2016-08-27T09:46:44Z</time>
      </trkpt>
      <trkpt lat="44.05519" lon="1.80871">
        <ele>413.4</ele>
        <time>2016-08-27T09:46:45Z</time>
      </trkpt>
      <trkpt lat="44.05519" lon="1.80866">
        <ele>413.4</ele>
        <time>2016-08-27T09:46:46Z</time>
      </trkpt>
      <trkpt lat="44.05519" lon="1.8086">
        <ele>413.4</ele>
        <time>2016-08-27T09:46:47Z</time>
      </trkpt>
      <trkpt lat="44.05518" lon="1.80854">
        <ele>413.5</ele>
        <time>2016-08-27T09:46:48Z</time>
      </trkpt>
      <trkpt lat="44.05517" lon="1.80847">
        <ele>413.4</ele>
        <time>2016-08-27T09:46:49Z</time>
      </trkpt>
      <trkpt lat="44.05516" lon="1.80842">
        <ele>413.4</ele>
        <time>2016-08-27T09:46:50Z</time>
      </trkpt>
      <trkpt lat="44.05515" lon="1.80836">
        <ele>413.4</ele>
        <time>2016-08-27T09:46:51Z</time>
      </trkpt>
      <trkpt lat="44.05514" lon="1.8083">
        <ele>413.4</ele>
        <time>2016-08-27T09:46:52Z</time>
      </trkpt>
      <trkpt lat="44.05514" lon="1.80825">
        <ele>413.4</ele>
        <time>2016-08-27T09:46:53Z</time>
      </trkpt>
      <trkpt lat="44.05513" lon="1.8082">
        <ele>413.5</ele>
        <time>2016-08-27T09:46:54Z</time>
      </trkpt>
      <trkpt lat="44.05512" lon="1.80814">
        <ele>413.5</ele>
        <time>2016-08-27T09:46:55Z</time>
      </trkpt>
      <trkpt lat="44.05512" lon="1.80809">
        <ele>413.6</ele>
        <time>2016-08-27T09:46:56Z</time>
      </trkpt>
      <trkpt lat="44.05512" lon="1.80804">
        <ele>413.7</ele>
        <time>2016-08-27T09:46:57Z</time>
      </trkpt>
      <trkpt lat="44.05512" lon="1.80798">
        <ele>413.8</ele>
        <time>2016-08-27T09:46:58Z</time>
      </trkpt>
      <trkpt lat="44.05513" lon="1.80793">
        <ele>413.9</ele>
        <time>2016-08-27T09:46:59Z</time>
      </trkpt>
      <trkpt lat="44.05513" lon="1.80787">
        <ele>414.1</ele>
        <time>2016-08-27T09:47:00Z</time>
      </trkpt>
      <trkpt lat="44.05513" lon="1.80781">
        <ele>414.2</ele>
        <time>2016-08-27T09:47:01Z</time>
      </trkpt>
      <trkpt lat="44.05512" lon="1.80775">
        <ele>414.4</ele>
        <time>2016-08-27T09:47:02Z</time>
      </trkpt>
      <trkpt lat="44.0551" lon="1.80769">
        <ele>414.5</ele>
        <time>2016-08-27T09:47:03Z</time>
      </trkpt>
      <trkpt lat="44.05509" lon="1.80763">
        <ele>414.6</ele>
        <time>2016-08-27T09:47:04Z</time>
      </trkpt>
      <trkpt lat="44.05507" lon="1.80759">
        <ele>414.6</ele>
        <time>2016-08-27T09:47:05Z</time>
      </trkpt>
      <trkpt lat="44.05507" lon="1.80754">
        <ele>414.8</ele>
        <time>2016-08-27T09:47:06Z</time>
      </trkpt>
      <trkpt lat="44.05505" lon="1.80746">
        <ele>414.9</ele>
        <time>2016-08-27T09:47:07Z</time>
      </trkpt>
      <trkpt lat="44.05504" lon="1.80739">
        <ele>415.1</ele>
        <time>2016-08-27T09:47:08Z</time>
      </trkpt>
      <trkpt lat="44.05502" lon="1.80733">
        <ele>415.3</ele>
        <time>2016-08-27T09:47:09Z</time>
      </trkpt>
      <trkpt lat="44.05502" lon="1.80726">
        <ele>415.5</ele>
        <time>2016-08-27T09:47:10Z</time>
      </trkpt>
      <trkpt lat="44.05501" lon="1.8072">
        <ele>415.6</ele>
        <time>2016-08-27T09:47:11Z</time>
      </trkpt>
      <trkpt lat="44.05502" lon="1.80712">
        <ele>416</ele>
        <time>2016-08-27T09:47:12Z</time>
      </trkpt>
      <trkpt lat="44.05502" lon="1.80706">
        <ele>416.1</ele>
        <time>2016-08-27T09:47:13Z</time>
      </trkpt>
      <trkpt lat="44.055" lon="1.80699">
        <ele>416.1</ele>
        <time>2016-08-27T09:47:14Z</time>
      </trkpt>
      <trkpt lat="44.055" lon="1.80694">
        <ele>416.2</ele>
        <time>2016-08-27T09:47:15Z</time>
      </trkpt>
      <trkpt lat="44.055" lon="1.80689">
        <ele>416.3</ele>
        <time>2016-08-27T09:47:16Z</time>
      </trkpt>
      <trkpt lat="44.055" lon="1.80684">
        <ele>416.3</ele>
        <time>2016-08-27T09:47:17Z</time>
      </trkpt>
      <trkpt lat="44.055" lon="1.80677">
        <ele>416.4</ele>
        <time>2016-08-27T09:47:18Z</time>
      </trkpt>
      <trkpt lat="44.05501" lon="1.80672">
        <ele>416.5</ele>
        <time>2016-08-27T09:47:19Z</time>
      </trkpt>
      <trkpt lat="44.05501" lon="1.80666">
        <ele>416.5</ele>
        <time>2016-08-27T09:47:20Z</time>
      </trkpt>
      <trkpt lat="44.05501" lon="1.80661">
        <ele>416.6</ele>
        <time>2016-08-27T09:47:21Z</time>
      </trkpt>
      <trkpt lat="44.05501" lon="1.80657">
        <ele>416.7</ele>
        <time>2016-08-27T09:47:22Z</time>
      </trkpt>
      <trkpt lat="44.05502" lon="1.80651">
        <ele>416.7</ele>
        <time>2016-08-27T09:47:23Z</time>
      </trkpt>
      <trkpt lat="44.05503" lon="1.80646">
        <ele>416.8</ele>
        <time>2016-08-27T09:47:24Z</time>
      </trkpt>
      <trkpt lat="44.05505" lon="1.80638">
        <ele>417</ele>
        <time>2016-08-27T09:47:26Z</time>
      </trkpt>
      <trkpt lat="44.05508" lon="1.80633">
        <ele>417.1</ele>
        <time>2016-08-27T09:47:27Z</time>
      </trkpt>
      <trkpt lat="44.0551" lon="1.80627">
        <ele>417.2</ele>
        <time>2016-08-27T09:47:28Z</time>
      </trkpt>
      <trkpt lat="44.05511" lon="1.80621">
        <ele>417.2</ele>
        <time>2016-08-27T09:47:29Z</time>
      </trkpt>
      <trkpt lat="44.05516" lon="1.80616">
        <ele>417.2</ele>
        <time>2016-08-27T09:47:30Z</time>
      </trkpt>
      <trkpt lat="44.0552" lon="1.80611">
        <ele>417.2</ele>
        <time>2016-08-27T09:47:31Z</time>
      </trkpt>
      <trkpt lat="44.05523" lon="1.80606">
        <ele>417.2</ele>
        <time>2016-08-27T09:47:32Z</time>
      </trkpt>
      <trkpt lat="44.05527" lon="1.806">
        <ele>417.1</ele>
        <time>2016-08-27T09:47:33Z</time>
      </trkpt>
      <trkpt lat="44.05531" lon="1.80596">
        <ele>417</ele>
        <time>2016-08-27T09:47:34Z</time>
      </trkpt>
      <trkpt lat="44.05535" lon="1.8059">
        <ele>416.8</ele>
        <time>2016-08-27T09:47:35Z</time>
      </trkpt>
      <trkpt lat="44.05539" lon="1.80585">
        <ele>416.6</ele>
        <time>2016-08-27T09:47:36Z</time>
      </trkpt>
      <trkpt lat="44.05543" lon="1.80579">
        <ele>416.4</ele>
        <time>2016-08-27T09:47:37Z</time>
      </trkpt>
      <trkpt lat="44.05546" lon="1.80576">
        <ele>416.3</ele>
        <time>2016-08-27T09:47:38Z</time>
      </trkpt>
      <trkpt lat="44.05549" lon="1.80571">
        <ele>416.3</ele>
        <time>2016-08-27T09:47:39Z</time>
      </trkpt>
      <trkpt lat="44.05552" lon="1.80568">
        <ele>416.3</ele>
        <time>2016-08-27T09:47:40Z</time>
      </trkpt>
      <trkpt lat="44.05557" lon="1.80562">
        <ele>416.2</ele>
        <time>2016-08-27T09:47:41Z</time>
      </trkpt>
      <trkpt lat="44.05563" lon="1.80557">
        <ele>416.3</ele>
        <time>2016-08-27T09:47:42Z</time>
      </trkpt>
      <trkpt lat="44.05567" lon="1.80552">
        <ele>416.3</ele>
        <time>2016-08-27T09:47:43Z</time>
      </trkpt>
      <trkpt lat="44.05571" lon="1.80547">
        <ele>416.2</ele>
        <time>2016-08-27T09:47:44Z</time>
      </trkpt>
      <trkpt lat="44.05576" lon="1.80541">
        <ele>416.2</ele>
        <time>2016-08-27T09:47:45Z</time>
      </trkpt>
      <trkpt lat="44.05582" lon="1.80533">
        <ele>416.2</ele>
        <time>2016-08-27T09:47:46Z</time>
      </trkpt>
      <trkpt lat="44.05587" lon="1.80527">
        <ele>416.2</ele>
        <time>2016-08-27T09:47:47Z</time>
      </trkpt>
      <trkpt lat="44.05591" lon="1.8052">
        <ele>416.1</ele>
        <time>2016-08-27T09:47:48Z</time>
      </trkpt>
      <trkpt lat="44.05596" lon="1.80515">
        <ele>416</ele>
        <time>2016-08-27T09:47:49Z</time>
      </trkpt>
      <trkpt lat="44.05598" lon="1.8051">
        <ele>415.9</ele>
        <time>2016-08-27T09:47:50Z</time>
      </trkpt>
      <trkpt lat="44.05603" lon="1.80506">
        <ele>415.8</ele>
        <time>2016-08-27T09:47:51Z</time>
      </trkpt>
      <trkpt lat="44.05607" lon="1.805">
        <ele>415.7</ele>
        <time>2016-08-27T09:47:52Z</time>
      </trkpt>
      <trkpt lat="44.05611" lon="1.80495">
        <ele>415.5</ele>
        <time>2016-08-27T09:47:53Z</time>
      </trkpt>
      <trkpt lat="44.05612" lon="1.80491">
        <ele>415.4</ele>
        <time>2016-08-27T09:47:54Z</time>
      </trkpt>
      <trkpt lat="44.05621" lon="1.80482">
        <ele>415.1</ele>
        <time>2016-08-27T09:47:56Z</time>
      </trkpt>
      <trkpt lat="44.05627" lon="1.80475">
        <ele>414.8</ele>
        <time>2016-08-27T09:47:57Z</time>
      </trkpt>
      <trkpt lat="44.05632" lon="1.80468">
        <ele>414.6</ele>
        <time>2016-08-27T09:47:58Z</time>
      </trkpt>
      <trkpt lat="44.05639" lon="1.80462">
        <ele>414.3</ele>
        <time>2016-08-27T09:47:59Z</time>
      </trkpt>
      <trkpt lat="44.05642" lon="1.80459">
        <ele>414.2</ele>
        <time>2016-08-27T09:48:00Z</time>
      </trkpt>
      <trkpt lat="44.05649" lon="1.80454">
        <ele>414.1</ele>
        <time>2016-08-27T09:48:01Z</time>
      </trkpt>
      <trkpt lat="44.05654" lon="1.8045">
        <ele>414</ele>
        <time>2016-08-27T09:48:02Z</time>
      </trkpt>
      <trkpt lat="44.05659" lon="1.80445">
        <ele>413.9</ele>
        <time>2016-08-27T09:48:03Z</time>
      </trkpt>
      <trkpt lat="44.05664" lon="1.80442">
        <ele>413.8</ele>
        <time>2016-08-27T09:48:04Z</time>
      </trkpt>
      <trkpt lat="44.05669" lon="1.80436">
        <ele>413.6</ele>
        <time>2016-08-27T09:48:05Z</time>
      </trkpt>
      <trkpt lat="44.05674" lon="1.80433">
        <ele>413.5</ele>
        <time>2016-08-27T09:48:06Z</time>
      </trkpt>
      <trkpt lat="44.05677" lon="1.80431">
        <ele>413.4</ele>
        <time>2016-08-27T09:48:07Z</time>
      </trkpt>
      <trkpt lat="44.05681" lon="1.80428">
        <ele>413.3</ele>
        <time>2016-08-27T09:48:08Z</time>
      </trkpt>
      <trkpt lat="44.05685" lon="1.80425">
        <ele>413.2</ele>
        <time>2016-08-27T09:48:09Z</time>
      </trkpt>
      <trkpt lat="44.05689" lon="1.80423">
        <ele>413.2</ele>
        <time>2016-08-27T09:48:10Z</time>
      </trkpt>
      <trkpt lat="44.05694" lon="1.80418">
        <ele>413</ele>
        <time>2016-08-27T09:48:11Z</time>
      </trkpt>
      <trkpt lat="44.05696" lon="1.80416">
        <ele>412.9</ele>
        <time>2016-08-27T09:48:12Z</time>
      </trkpt>
      <trkpt lat="44.05701" lon="1.80413">
        <ele>412.8</ele>
        <time>2016-08-27T09:48:13Z</time>
      </trkpt>
      <trkpt lat="44.05706" lon="1.80408">
        <ele>412.6</ele>
        <time>2016-08-27T09:48:14Z</time>
      </trkpt>
      <trkpt lat="44.05713" lon="1.80404">
        <ele>412.6</ele>
        <time>2016-08-27T09:48:15Z</time>
      </trkpt>
      <trkpt lat="44.05717" lon="1.80404">
        <ele>412.7</ele>
        <time>2016-08-27T09:48:16Z</time>
      </trkpt>
      <trkpt lat="44.05722" lon="1.804">
        <ele>412.8</ele>
        <time>2016-08-27T09:48:17Z</time>
      </trkpt>
      <trkpt lat="44.05727" lon="1.80397">
        <ele>412.8</ele>
        <time>2016-08-27T09:48:18Z</time>
      </trkpt>
      <trkpt lat="44.05733" lon="1.80394">
        <ele>413</ele>
        <time>2016-08-27T09:48:19Z</time>
      </trkpt>
      <trkpt lat="44.05739" lon="1.80391">
        <ele>413.1</ele>
        <time>2016-08-27T09:48:20Z</time>
      </trkpt>
      <trkpt lat="44.05744" lon="1.80388">
        <ele>413.2</ele>
        <time>2016-08-27T09:48:21Z</time>
      </trkpt>
      <trkpt lat="44.05749" lon="1.80385">
        <ele>413.3</ele>
        <time>2016-08-27T09:48:22Z</time>
      </trkpt>
      <trkpt lat="44.05753" lon="1.80381">
        <ele>413.4</ele>
        <time>2016-08-27T09:48:23Z</time>
      </trkpt>
      <trkpt lat="44.05758" lon="1.80379">
        <ele>413.5</ele>
        <time>2016-08-27T09:48:24Z</time>
      </trkpt>
      <trkpt lat="44.05762" lon="1.80376">
        <ele>413.6</ele>
        <time>2016-08-27T09:48:25Z</time>
      </trkpt>
      <trkpt lat="44.05767" lon="1.80372">
        <ele>413.7</ele>
        <time>2016-08-27T09:48:26Z</time>
      </trkpt>
      <trkpt lat="44.05774" lon="1.80368">
        <ele>413.8</ele>
        <time>2016-08-27T09:48:27Z</time>
      </trkpt>
      <trkpt lat="44.0578" lon="1.80364">
        <ele>413.9</ele>
        <time>2016-08-27T09:48:28Z</time>
      </trkpt>
      <trkpt lat="44.05783" lon="1.80361">
        <ele>413.9</ele>
        <time>2016-08-27T09:48:29Z</time>
      </trkpt>
      <trkpt lat="44.05786" lon="1.80358">
        <ele>413.9</ele>
        <time>2016-08-27T09:48:30Z</time>
      </trkpt>
      <trkpt lat="44.05793" lon="1.80356">
        <ele>414.1</ele>
        <time>2016-08-27T09:48:31Z</time>
      </trkpt>
      <trkpt lat="44.05799" lon="1.80353">
        <ele>414</ele>
        <time>2016-08-27T09:48:32Z</time>
      </trkpt>
      <trkpt lat="44.05804" lon="1.8035">
        <ele>413.9</ele>
        <time>2016-08-27T09:48:33Z</time>
      </trkpt>
      <trkpt lat="44.05807" lon="1.80347">
        <ele>413.8</ele>
        <time>2016-08-27T09:48:34Z</time>
      </trkpt>
      <trkpt lat="44.0581" lon="1.80344">
        <ele>413.6</ele>
        <time>2016-08-27T09:48:35Z</time>
      </trkpt>
      <trkpt lat="44.0582" lon="1.80337">
        <ele>413.4</ele>
        <time>2016-08-27T09:48:37Z</time>
      </trkpt>
      <trkpt lat="44.05826" lon="1.80333">
        <ele>413.2</ele>
        <time>2016-08-27T09:48:38Z</time>
      </trkpt>
      <trkpt lat="44.05831" lon="1.80331">
        <ele>413.1</ele>
        <time>2016-08-27T09:48:39Z</time>
      </trkpt>
      <trkpt lat="44.05835" lon="1.8033">
        <ele>413.1</ele>
        <time>2016-08-27T09:48:40Z</time>
      </trkpt>
      <trkpt lat="44.05839" lon="1.80326">
        <ele>412.9</ele>
        <time>2016-08-27T09:48:41Z</time>
      </trkpt>
      <trkpt lat="44.05843" lon="1.80321">
        <ele>412.6</ele>
        <time>2016-08-27T09:48:42Z</time>
      </trkpt>
      <trkpt lat="44.05848" lon="1.80319">
        <ele>412.5</ele>
        <time>2016-08-27T09:48:43Z</time>
      </trkpt>
      <trkpt lat="44.05853" lon="1.80317">
        <ele>412.4</ele>
        <time>2016-08-27T09:48:44Z</time>
      </trkpt>
      <trkpt lat="44.05857" lon="1.80313">
        <ele>412.2</ele>
        <time>2016-08-27T09:48:45Z</time>
      </trkpt>
      <trkpt lat="44.05863" lon="1.8031">
        <ele>412.1</ele>
        <time>2016-08-27T09:48:46Z</time>
      </trkpt>
      <trkpt lat="44.05868" lon="1.80308">
        <ele>412</ele>
        <time>2016-08-27T09:48:47Z</time>
      </trkpt>
      <trkpt lat="44.05871" lon="1.80305">
        <ele>411.8</ele>
        <time>2016-08-27T09:48:48Z</time>
      </trkpt>
      <trkpt lat="44.05874" lon="1.80302">
        <ele>411.6</ele>
        <time>2016-08-27T09:48:49Z</time>
      </trkpt>
      <trkpt lat="44.05881" lon="1.80297">
        <ele>411.8</ele>
        <time>2016-08-27T09:48:50Z</time>
      </trkpt>
      <trkpt lat="44.05887" lon="1.80294">
        <ele>412.1</ele>
        <time>2016-08-27T09:48:51Z</time>
      </trkpt>
      <trkpt lat="44.05893" lon="1.80292">
        <ele>412.5</ele>
        <time>2016-08-27T09:48:52Z</time>
      </trkpt>
      <trkpt lat="44.05897" lon="1.80289">
        <ele>412.7</ele>
        <time>2016-08-27T09:48:53Z</time>
      </trkpt>
      <trkpt lat="44.05903" lon="1.80285">
        <ele>412.9</ele>
        <time>2016-08-27T09:48:54Z</time>
      </trkpt>
      <trkpt lat="44.05909" lon="1.80281">
        <ele>413.2</ele>
        <time>2016-08-27T09:48:55Z</time>
      </trkpt>
      <trkpt lat="44.05912" lon="1.80278">
        <ele>413.3</ele>
        <time>2016-08-27T09:48:56Z</time>
      </trkpt>
      <trkpt lat="44.05919" lon="1.80275">
        <ele>413.7</ele>
        <time>2016-08-27T09:48:57Z</time>
      </trkpt>
      <trkpt lat="44.05924" lon="1.80271">
        <ele>413.8</ele>
        <time>2016-08-27T09:48:58Z</time>
      </trkpt>
      <trkpt lat="44.05926" lon="1.80268">
        <ele>413.9</ele>
        <time>2016-08-27T09:48:59Z</time>
      </trkpt>
      <trkpt lat="44.05929" lon="1.80267">
        <ele>414.1</ele>
        <time>2016-08-27T09:49:00Z</time>
      </trkpt>
      <trkpt lat="44.05931" lon="1.80263">
        <ele>414</ele>
        <time>2016-08-27T09:49:01Z</time>
      </trkpt>
      <trkpt lat="44.05936" lon="1.80259">
        <ele>414.1</ele>
        <time>2016-08-27T09:49:02Z</time>
      </trkpt>
      <trkpt lat="44.0594" lon="1.80256">
        <ele>414.3</ele>
        <time>2016-08-27T09:49:03Z</time>
      </trkpt>
      <trkpt lat="44.05945" lon="1.80254">
        <ele>414.6</ele>
        <time>2016-08-27T09:49:04Z</time>
      </trkpt>
      <trkpt lat="44.05948" lon="1.8025">
        <ele>414.6</ele>
        <time>2016-08-27T09:49:05Z</time>
      </trkpt>
      <trkpt lat="44.05951" lon="1.80248">
        <ele>414.8</ele>
        <time>2016-08-27T09:49:06Z</time>
      </trkpt>
      <trkpt lat="44.05956" lon="1.80245">
        <ele>415</ele>
        <time>2016-08-27T09:49:07Z</time>
      </trkpt>
      <trkpt lat="44.0596" lon="1.80243">
        <ele>415.2</ele>
        <time>2016-08-27T09:49:08Z</time>
      </trkpt>
      <trkpt lat="44.05963" lon="1.80241">
        <ele>415.2</ele>
        <time>2016-08-27T09:49:09Z</time>
      </trkpt>
      <trkpt lat="44.05968" lon="1.80236">
        <ele>415.2</ele>
        <time>2016-08-27T09:49:10Z</time>
      </trkpt>
      <trkpt lat="44.05973" lon="1.80234">
        <ele>415.3</ele>
        <time>2016-08-27T09:49:11Z</time>
      </trkpt>
      <trkpt lat="44.05978" lon="1.80234">
        <ele>415.5</ele>
        <time>2016-08-27T09:49:13Z</time>
      </trkpt>
      <trkpt lat="44.05981" lon="1.80232">
        <ele>415.5</ele>
        <time>2016-08-27T09:49:14Z</time>
      </trkpt>
      <trkpt lat="44.05984" lon="1.80228">
        <ele>415.5</ele>
        <time>2016-08-27T09:49:15Z</time>
      </trkpt>
      <trkpt lat="44.05988" lon="1.80226">
        <ele>415.5</ele>
        <time>2016-08-27T09:49:16Z</time>
      </trkpt>
      <trkpt lat="44.05992" lon="1.80223">
        <ele>415.5</ele>
        <time>2016-08-27T09:49:17Z</time>
      </trkpt>
      <trkpt lat="44.05997" lon="1.8022">
        <ele>415.6</ele>
        <time>2016-08-27T09:49:18Z</time>
      </trkpt>
      <trkpt lat="44.06002" lon="1.80218">
        <ele>415.7</ele>
        <time>2016-08-27T09:49:19Z</time>
      </trkpt>
      <trkpt lat="44.06005" lon="1.80217">
        <ele>415.8</ele>
        <time>2016-08-27T09:49:20Z</time>
      </trkpt>
      <trkpt lat="44.06009" lon="1.80215">
        <ele>415.9</ele>
        <time>2016-08-27T09:49:21Z</time>
      </trkpt>
      <trkpt lat="44.06015" lon="1.80212">
        <ele>416</ele>
        <time>2016-08-27T09:49:22Z</time>
      </trkpt>
      <trkpt lat="44.0602" lon="1.8021">
        <ele>416.1</ele>
        <time>2016-08-27T09:49:23Z</time>
      </trkpt>
      <trkpt lat="44.06023" lon="1.80211">
        <ele>416.3</ele>
        <time>2016-08-27T09:49:24Z</time>
      </trkpt>
      <trkpt lat="44.06027" lon="1.80209">
        <ele>416.4</ele>
        <time>2016-08-27T09:49:25Z</time>
      </trkpt>
      <trkpt lat="44.06034" lon="1.80209">
        <ele>416.7</ele>
        <time>2016-08-27T09:49:26Z</time>
      </trkpt>
      <trkpt lat="44.06039" lon="1.80209">
        <ele>416.9</ele>
        <time>2016-08-27T09:49:27Z</time>
      </trkpt>
      <trkpt lat="44.06043" lon="1.80209">
        <ele>417</ele>
        <time>2016-08-27T09:49:28Z</time>
      </trkpt>
      <trkpt lat="44.06047" lon="1.8021">
        <ele>417.1</ele>
        <time>2016-08-27T09:49:29Z</time>
      </trkpt>
      <trkpt lat="44.06052" lon="1.80209">
        <ele>417</ele>
        <time>2016-08-27T09:49:30Z</time>
      </trkpt>
      <trkpt lat="44.06057" lon="1.80207">
        <ele>417</ele>
        <time>2016-08-27T09:49:31Z</time>
      </trkpt>
      <trkpt lat="44.0606" lon="1.80208">
        <ele>417</ele>
        <time>2016-08-27T09:49:32Z</time>
      </trkpt>
      <trkpt lat="44.06065" lon="1.80208">
        <ele>417</ele>
        <time>2016-08-27T09:49:33Z</time>
      </trkpt>
      <trkpt lat="44.06069" lon="1.80206">
        <ele>417</ele>
        <time>2016-08-27T09:49:34Z</time>
      </trkpt>
      <trkpt lat="44.06075" lon="1.80205">
        <ele>416.9</ele>
        <time>2016-08-27T09:49:35Z</time>
      </trkpt>
      <trkpt lat="44.0608" lon="1.80203">
        <ele>416.9</ele>
        <time>2016-08-27T09:49:36Z</time>
      </trkpt>
      <trkpt lat="44.06084" lon="1.80203">
        <ele>416.9</ele>
        <time>2016-08-27T09:49:37Z</time>
      </trkpt>
      <trkpt lat="44.06089" lon="1.80203">
        <ele>416.9</ele>
        <time>2016-08-27T09:49:38Z</time>
      </trkpt>
      <trkpt lat="44.06094" lon="1.80203">
        <ele>416.9</ele>
        <time>2016-08-27T09:49:39Z</time>
      </trkpt>
      <trkpt lat="44.06098" lon="1.80204">
        <ele>416.9</ele>
        <time>2016-08-27T09:49:40Z</time>
      </trkpt>
      <trkpt lat="44.06102" lon="1.80204">
        <ele>416.9</ele>
        <time>2016-08-27T09:49:41Z</time>
      </trkpt>
      <trkpt lat="44.06108" lon="1.80202">
        <ele>416.9</ele>
        <time>2016-08-27T09:49:43Z</time>
      </trkpt>
      <trkpt lat="44.06112" lon="1.80202">
        <ele>416.9</ele>
        <time>2016-08-27T09:49:44Z</time>
      </trkpt>
      <trkpt lat="44.06116" lon="1.80201">
        <ele>416.9</ele>
        <time>2016-08-27T09:49:45Z</time>
      </trkpt>
      <trkpt lat="44.06119" lon="1.80202">
        <ele>416.9</ele>
        <time>2016-08-27T09:49:46Z</time>
      </trkpt>
      <trkpt lat="44.06122" lon="1.80202">
        <ele>416.9</ele>
        <time>2016-08-27T09:49:47Z</time>
      </trkpt>
      <trkpt lat="44.06127" lon="1.80201">
        <ele>417</ele>
        <time>2016-08-27T09:49:49Z</time>
      </trkpt>
      <trkpt lat="44.0613" lon="1.80201">
        <ele>417</ele>
        <time>2016-08-27T09:49:50Z</time>
      </trkpt>
      <trkpt lat="44.06134" lon="1.80202">
        <ele>417.1</ele>
        <time>2016-08-27T09:49:51Z</time>
      </trkpt>
      <trkpt lat="44.06138" lon="1.80203">
        <ele>417.2</ele>
        <time>2016-08-27T09:49:52Z</time>
      </trkpt>
      <trkpt lat="44.06142" lon="1.80203">
        <ele>417.3</ele>
        <time>2016-08-27T09:49:53Z</time>
      </trkpt>
      <trkpt lat="44.06145" lon="1.80204">
        <ele>417.4</ele>
        <time>2016-08-27T09:49:54Z</time>
      </trkpt>
      <trkpt lat="44.06149" lon="1.80201">
        <ele>417.5</ele>
        <time>2016-08-27T09:49:55Z</time>
      </trkpt>
      <trkpt lat="44.06153" lon="1.80201">
        <ele>417.5</ele>
        <time>2016-08-27T09:49:56Z</time>
      </trkpt>
      <trkpt lat="44.06156" lon="1.802">
        <ele>417.6</ele>
        <time>2016-08-27T09:49:57Z</time>
      </trkpt>
      <trkpt lat="44.0616" lon="1.80199">
        <ele>417.6</ele>
        <time>2016-08-27T09:49:58Z</time>
      </trkpt>
      <trkpt lat="44.06164" lon="1.80198">
        <ele>417.7</ele>
        <time>2016-08-27T09:49:59Z</time>
      </trkpt>
      <trkpt lat="44.06168" lon="1.80198">
        <ele>417.8</ele>
        <time>2016-08-27T09:50:00Z</time>
      </trkpt>
      <trkpt lat="44.06171" lon="1.80198">
        <ele>417.8</ele>
        <time>2016-08-27T09:50:01Z</time>
      </trkpt>
      <trkpt lat="44.06175" lon="1.80198">
        <ele>417.9</ele>
        <time>2016-08-27T09:50:02Z</time>
      </trkpt>
      <trkpt lat="44.06179" lon="1.80197">
        <ele>418</ele>
        <time>2016-08-27T09:50:03Z</time>
      </trkpt>
      <trkpt lat="44.06183" lon="1.80197">
        <ele>418.1</ele>
        <time>2016-08-27T09:50:04Z</time>
      </trkpt>
      <trkpt lat="44.06188" lon="1.80197">
        <ele>418.2</ele>
        <time>2016-08-27T09:50:05Z</time>
      </trkpt>
      <trkpt lat="44.06192" lon="1.80198">
        <ele>418.3</ele>
        <time>2016-08-27T09:50:06Z</time>
      </trkpt>
      <trkpt lat="44.06196" lon="1.80198">
        <ele>418.3</ele>
        <time>2016-08-27T09:50:07Z</time>
      </trkpt>
      <trkpt lat="44.06199" lon="1.80197">
        <ele>418.4</ele>
        <time>2016-08-27T09:50:08Z</time>
      </trkpt>
      <trkpt lat="44.06203" lon="1.80197">
        <ele>418.5</ele>
        <time>2016-08-27T09:50:09Z</time>
      </trkpt>
      <trkpt lat="44.06209" lon="1.80194">
        <ele>418.5</ele>
        <time>2016-08-27T09:50:10Z</time>
      </trkpt>
      <trkpt lat="44.06213" lon="1.80195">
        <ele>418.7</ele>
        <time>2016-08-27T09:50:11Z</time>
      </trkpt>
      <trkpt lat="44.06216" lon="1.80196">
        <ele>418.8</ele>
        <time>2016-08-27T09:50:12Z</time>
      </trkpt>
      <trkpt lat="44.0622" lon="1.80196">
        <ele>418.9</ele>
        <time>2016-08-27T09:50:13Z</time>
      </trkpt>
      <trkpt lat="44.06224" lon="1.80192">
        <ele>418.9</ele>
        <time>2016-08-27T09:50:14Z</time>
      </trkpt>
      <trkpt lat="44.0623" lon="1.8019">
        <ele>419</ele>
        <time>2016-08-27T09:50:15Z</time>
      </trkpt>
      <trkpt lat="44.06236" lon="1.80188">
        <ele>419.2</ele>
        <time>2016-08-27T09:50:17Z</time>
      </trkpt>
      <trkpt lat="44.06243" lon="1.80188">
        <ele>419.4</ele>
        <time>2016-08-27T09:50:19Z</time>
      </trkpt>
      <trkpt lat="44.06246" lon="1.80188">
        <ele>419.5</ele>
        <time>2016-08-27T09:50:20Z</time>
      </trkpt>
      <trkpt lat="44.0625" lon="1.80187">
        <ele>419.6</ele>
        <time>2016-08-27T09:50:21Z</time>
      </trkpt>
      <trkpt lat="44.06253" lon="1.80187">
        <ele>419.7</ele>
        <time>2016-08-27T09:50:22Z</time>
      </trkpt>
      <trkpt lat="44.06256" lon="1.80187">
        <ele>419.8</ele>
        <time>2016-08-27T09:50:23Z</time>
      </trkpt>
      <trkpt lat="44.0626" lon="1.80187">
        <ele>420</ele>
        <time>2016-08-27T09:50:24Z</time>
      </trkpt>
      <trkpt lat="44.06264" lon="1.80187">
        <ele>420.1</ele>
        <time>2016-08-27T09:50:25Z</time>
      </trkpt>
      <trkpt lat="44.06268" lon="1.80187">
        <ele>420.2</ele>
        <time>2016-08-27T09:50:26Z</time>
      </trkpt>
      <trkpt lat="44.06272" lon="1.80187">
        <ele>420.4</ele>
        <time>2016-08-27T09:50:27Z</time>
      </trkpt>
      <trkpt lat="44.06276" lon="1.80186">
        <ele>420.5</ele>
        <time>2016-08-27T09:50:28Z</time>
      </trkpt>
      <trkpt lat="44.0628" lon="1.80186">
        <ele>420.6</ele>
        <time>2016-08-27T09:50:29Z</time>
      </trkpt>
      <trkpt lat="44.06284" lon="1.80186">
        <ele>420.7</ele>
        <time>2016-08-27T09:50:30Z</time>
      </trkpt>
      <trkpt lat="44.06288" lon="1.80186">
        <ele>420.9</ele>
        <time>2016-08-27T09:50:31Z</time>
      </trkpt>
      <trkpt lat="44.06292" lon="1.80186">
        <ele>421</ele>
        <time>2016-08-27T09:50:32Z</time>
      </trkpt>
      <trkpt lat="44.06296" lon="1.80185">
        <ele>421.1</ele>
        <time>2016-08-27T09:50:33Z</time>
      </trkpt>
      <trkpt lat="44.06299" lon="1.80184">
        <ele>421.3</ele>
        <time>2016-08-27T09:50:34Z</time>
      </trkpt>
      <trkpt lat="44.06303" lon="1.80184">
        <ele>421.4</ele>
        <time>2016-08-27T09:50:35Z</time>
      </trkpt>
      <trkpt lat="44.06307" lon="1.80184">
        <ele>421.6</ele>
        <time>2016-08-27T09:50:36Z</time>
      </trkpt>
      <trkpt lat="44.06311" lon="1.80185">
        <ele>421.7</ele>
        <time>2016-08-27T09:50:37Z</time>
      </trkpt>
      <trkpt lat="44.06315" lon="1.80185">
        <ele>421.8</ele>
        <time>2016-08-27T09:50:38Z</time>
      </trkpt>
      <trkpt lat="44.06319" lon="1.80185">
        <ele>422</ele>
        <time>2016-08-27T09:50:39Z</time>
      </trkpt>
      <trkpt lat="44.06322" lon="1.80185">
        <ele>422.1</ele>
        <time>2016-08-27T09:50:40Z</time>
      </trkpt>
      <trkpt lat="44.06326" lon="1.80184">
        <ele>422.2</ele>
        <time>2016-08-27T09:50:41Z</time>
      </trkpt>
      <trkpt lat="44.0633" lon="1.80184">
        <ele>422.4</ele>
        <time>2016-08-27T09:50:42Z</time>
      </trkpt>
      <trkpt lat="44.06333" lon="1.80184">
        <ele>422.5</ele>
        <time>2016-08-27T09:50:43Z</time>
      </trkpt>
      <trkpt lat="44.06337" lon="1.80184">
        <ele>422.6</ele>
        <time>2016-08-27T09:50:44Z</time>
      </trkpt>
      <trkpt lat="44.0634" lon="1.80184">
        <ele>422.7</ele>
        <time>2016-08-27T09:50:45Z</time>
      </trkpt>
      <trkpt lat="44.06343" lon="1.80184">
        <ele>422.8</ele>
        <time>2016-08-27T09:50:46Z</time>
      </trkpt>
      <trkpt lat="44.06346" lon="1.80185">
        <ele>422.9</ele>
        <time>2016-08-27T09:50:47Z</time>
      </trkpt>
      <trkpt lat="44.06351" lon="1.80186">
        <ele>423.1</ele>
        <time>2016-08-27T09:50:49Z</time>
      </trkpt>
      <trkpt lat="44.06354" lon="1.80186">
        <ele>423.2</ele>
        <time>2016-08-27T09:50:50Z</time>
      </trkpt>
      <trkpt lat="44.06358" lon="1.80187">
        <ele>423.4</ele>
        <time>2016-08-27T09:50:52Z</time>
      </trkpt>
      <trkpt lat="44.06363" lon="1.80187">
        <ele>423.6</ele>
        <time>2016-08-27T09:50:54Z</time>
      </trkpt>
      <trkpt lat="44.06367" lon="1.80186">
        <ele>423.7</ele>
        <time>2016-08-27T09:50:56Z</time>
      </trkpt>
      <trkpt lat="44.06372" lon="1.80187">
        <ele>423.9</ele>
        <time>2016-08-27T09:50:58Z</time>
      </trkpt>
      <trkpt lat="44.06379" lon="1.80186">
        <ele>424.1</ele>
        <time>2016-08-27T09:51:00Z</time>
      </trkpt>
      <trkpt lat="44.06382" lon="1.80185">
        <ele>424.1</ele>
        <time>2016-08-27T09:51:01Z</time>
      </trkpt>
      <trkpt lat="44.06385" lon="1.80184">
        <ele>424.2</ele>
        <time>2016-08-27T09:51:02Z</time>
      </trkpt>
      <trkpt lat="44.06392" lon="1.80183">
        <ele>424.3</ele>
        <time>2016-08-27T09:51:04Z</time>
      </trkpt>
      <trkpt lat="44.06396" lon="1.80182">
        <ele>424.3</ele>
        <time>2016-08-27T09:51:05Z</time>
      </trkpt>
      <trkpt lat="44.06399" lon="1.80182">
        <ele>424.4</ele>
        <time>2016-08-27T09:51:06Z</time>
      </trkpt>
      <trkpt lat="44.06402" lon="1.80182">
        <ele>424.4</ele>
        <time>2016-08-27T09:51:07Z</time>
      </trkpt>
      <trkpt lat="44.06406" lon="1.80181">
        <ele>424.5</ele>
        <time>2016-08-27T09:51:08Z</time>
      </trkpt>
      <trkpt lat="44.06409" lon="1.80181">
        <ele>424.5</ele>
        <time>2016-08-27T09:51:09Z</time>
      </trkpt>
      <trkpt lat="44.06413" lon="1.80184">
        <ele>424.6</ele>
        <time>2016-08-27T09:51:11Z</time>
      </trkpt>
      <trkpt lat="44.06418" lon="1.80185">
        <ele>424.7</ele>
        <time>2016-08-27T09:51:13Z</time>
      </trkpt>
      <trkpt lat="44.06422" lon="1.80185">
        <ele>424.7</ele>
        <time>2016-08-27T09:51:15Z</time>
      </trkpt>
      <trkpt lat="44.06426" lon="1.80188">
        <ele>424.8</ele>
        <time>2016-08-27T09:51:17Z</time>
      </trkpt>
      <trkpt lat="44.06429" lon="1.80187">
        <ele>424.8</ele>
        <time>2016-08-27T09:51:18Z</time>
      </trkpt>
      <trkpt lat="44.06432" lon="1.80187">
        <ele>424.9</ele>
        <time>2016-08-27T09:51:19Z</time>
      </trkpt>
      <trkpt lat="44.06436" lon="1.80187">
        <ele>424.9</ele>
        <time>2016-08-27T09:51:20Z</time>
      </trkpt>
      <trkpt lat="44.0644" lon="1.80187">
        <ele>425</ele>
        <time>2016-08-27T09:51:21Z</time>
      </trkpt>
      <trkpt lat="44.06451" lon="1.80183">
        <ele>425.2</ele>
        <time>2016-08-27T09:51:22Z</time>
      </trkpt>
      <trkpt lat="44.06458" lon="1.80181">
        <ele>425.3</ele>
        <time>2016-08-27T09:51:24Z</time>
      </trkpt>
      <trkpt lat="44.06461" lon="1.8018">
        <ele>425.4</ele>
        <time>2016-08-27T09:51:25Z</time>
      </trkpt>
      <trkpt lat="44.06465" lon="1.80181">
        <ele>425.4</ele>
        <time>2016-08-27T09:51:26Z</time>
      </trkpt>
      <trkpt lat="44.06468" lon="1.80181">
        <ele>425.4</ele>
        <time>2016-08-27T09:51:27Z</time>
      </trkpt>
      <trkpt lat="44.06471" lon="1.80184">
        <ele>425.4</ele>
        <time>2016-08-27T09:51:28Z</time>
      </trkpt>
      <trkpt lat="44.06474" lon="1.80183">
        <ele>425.4</ele>
        <time>2016-08-27T09:51:29Z</time>
      </trkpt>
      <trkpt lat="44.0648" lon="1.80183">
        <ele>425.4</ele>
        <time>2016-08-27T09:51:30Z</time>
      </trkpt>
      <trkpt lat="44.06485" lon="1.80182">
        <ele>425.4</ele>
        <time>2016-08-27T09:51:31Z</time>
      </trkpt>
      <trkpt lat="44.06489" lon="1.80183">
        <ele>425.5</ele>
        <time>2016-08-27T09:51:32Z</time>
      </trkpt>
      <trkpt lat="44.06494" lon="1.80185">
        <ele>425.5</ele>
        <time>2016-08-27T09:51:33Z</time>
      </trkpt>
      <trkpt lat="44.06496" lon="1.80188">
        <ele>425.5</ele>
        <time>2016-08-27T09:51:34Z</time>
      </trkpt>
      <trkpt lat="44.065" lon="1.8019">
        <ele>425.5</ele>
        <time>2016-08-27T09:51:35Z</time>
      </trkpt>
      <trkpt lat="44.06503" lon="1.80193">
        <ele>425.5</ele>
        <time>2016-08-27T09:51:36Z</time>
      </trkpt>
      <trkpt lat="44.06506" lon="1.80194">
        <ele>425.6</ele>
        <time>2016-08-27T09:51:37Z</time>
      </trkpt>
      <trkpt lat="44.0651" lon="1.80195">
        <ele>425.6</ele>
        <time>2016-08-27T09:51:38Z</time>
      </trkpt>
      <trkpt lat="44.06516" lon="1.80198">
        <ele>425.6</ele>
        <time>2016-08-27T09:51:39Z</time>
      </trkpt>
      <trkpt lat="44.0652" lon="1.80198">
        <ele>425.7</ele>
        <time>2016-08-27T09:51:40Z</time>
      </trkpt>
      <trkpt lat="44.06523" lon="1.80199">
        <ele>425.7</ele>
        <time>2016-08-27T09:51:41Z</time>
      </trkpt>
      <trkpt lat="44.06526" lon="1.80198">
        <ele>425.7</ele>
        <time>2016-08-27T09:51:42Z</time>
      </trkpt>
      <trkpt lat="44.0653" lon="1.80198">
        <ele>425.8</ele>
        <time>2016-08-27T09:51:43Z</time>
      </trkpt>
      <trkpt lat="44.06533" lon="1.80196">
        <ele>425.8</ele>
        <time>2016-08-27T09:51:44Z</time>
      </trkpt>
      <trkpt lat="44.06537" lon="1.80196">
        <ele>425.8</ele>
        <time>2016-08-27T09:51:45Z</time>
      </trkpt>
      <trkpt lat="44.0654" lon="1.80196">
        <ele>425.8</ele>
        <time>2016-08-27T09:51:46Z</time>
      </trkpt>
      <trkpt lat="44.06544" lon="1.80195">
        <ele>425.8</ele>
        <time>2016-08-27T09:51:47Z</time>
      </trkpt>
      <trkpt lat="44.06547" lon="1.80195">
        <ele>425.8</ele>
        <time>2016-08-27T09:51:48Z</time>
      </trkpt>
      <trkpt lat="44.06551" lon="1.80194">
        <ele>425.8</ele>
        <time>2016-08-27T09:51:49Z</time>
      </trkpt>
      <trkpt lat="44.06555" lon="1.80194">
        <ele>425.7</ele>
        <time>2016-08-27T09:51:50Z</time>
      </trkpt>
      <trkpt lat="44.06558" lon="1.80193">
        <ele>425.7</ele>
        <time>2016-08-27T09:51:51Z</time>
      </trkpt>
      <trkpt lat="44.06568" lon="1.80188">
        <ele>425.5</ele>
        <time>2016-08-27T09:51:52Z</time>
      </trkpt>
      <trkpt lat="44.06571" lon="1.80187">
        <ele>425.5</ele>
        <time>2016-08-27T09:51:53Z</time>
      </trkpt>
      <trkpt lat="44.06576" lon="1.80186">
        <ele>425.4</ele>
        <time>2016-08-27T09:51:54Z</time>
      </trkpt>
      <trkpt lat="44.06579" lon="1.80185">
        <ele>425.3</ele>
        <time>2016-08-27T09:51:55Z</time>
      </trkpt>
      <trkpt lat="44.06584" lon="1.80184">
        <ele>425.3</ele>
        <time>2016-08-27T09:51:56Z</time>
      </trkpt>
      <trkpt lat="44.06588" lon="1.80182">
        <ele>425.2</ele>
        <time>2016-08-27T09:51:57Z</time>
      </trkpt>
      <trkpt lat="44.06594" lon="1.8018">
        <ele>425</ele>
        <time>2016-08-27T09:51:58Z</time>
      </trkpt>
      <trkpt lat="44.066" lon="1.80178">
        <ele>424.9</ele>
        <time>2016-08-27T09:51:59Z</time>
      </trkpt>
      <trkpt lat="44.06603" lon="1.80177">
        <ele>424.8</ele>
        <time>2016-08-27T09:52:00Z</time>
      </trkpt>
      <trkpt lat="44.0661" lon="1.80175">
        <ele>424.6</ele>
        <time>2016-08-27T09:52:02Z</time>
      </trkpt>
      <trkpt lat="44.06613" lon="1.80174">
        <ele>424.5</ele>
        <time>2016-08-27T09:52:03Z</time>
      </trkpt>
      <trkpt lat="44.06616" lon="1.80173">
        <ele>424.4</ele>
        <time>2016-08-27T09:52:04Z</time>
      </trkpt>
      <trkpt lat="44.06621" lon="1.80168">
        <ele>424.1</ele>
        <time>2016-08-27T09:52:05Z</time>
      </trkpt>
      <trkpt lat="44.06626" lon="1.80164">
        <ele>423.9</ele>
        <time>2016-08-27T09:52:06Z</time>
      </trkpt>
      <trkpt lat="44.06629" lon="1.80161">
        <ele>423.8</ele>
        <time>2016-08-27T09:52:07Z</time>
      </trkpt>
      <trkpt lat="44.06634" lon="1.8016">
        <ele>423.8</ele>
        <time>2016-08-27T09:52:09Z</time>
      </trkpt>
      <trkpt lat="44.06638" lon="1.80159">
        <ele>423.7</ele>
        <time>2016-08-27T09:52:10Z</time>
      </trkpt>
      <trkpt lat="44.06644" lon="1.80156">
        <ele>423.6</ele>
        <time>2016-08-27T09:52:11Z</time>
      </trkpt>
      <trkpt lat="44.06651" lon="1.80152">
        <ele>423.4</ele>
        <time>2016-08-27T09:52:12Z</time>
      </trkpt>
      <trkpt lat="44.06657" lon="1.8015">
        <ele>423.3</ele>
        <time>2016-08-27T09:52:13Z</time>
      </trkpt>
      <trkpt lat="44.0666" lon="1.80148">
        <ele>423.1</ele>
        <time>2016-08-27T09:52:14Z</time>
      </trkpt>
      <trkpt lat="44.06664" lon="1.80146">
        <ele>423</ele>
        <time>2016-08-27T09:52:15Z</time>
      </trkpt>
      <trkpt lat="44.06669" lon="1.80144">
        <ele>422.8</ele>
        <time>2016-08-27T09:52:16Z</time>
      </trkpt>
      <trkpt lat="44.06673" lon="1.80145">
        <ele>422.9</ele>
        <time>2016-08-27T09:52:17Z</time>
      </trkpt>
      <trkpt lat="44.06678" lon="1.80142">
        <ele>422.7</ele>
        <time>2016-08-27T09:52:18Z</time>
      </trkpt>
      <trkpt lat="44.06682" lon="1.80139">
        <ele>422.5</ele>
        <time>2016-08-27T09:52:19Z</time>
      </trkpt>
      <trkpt lat="44.06686" lon="1.80137">
        <ele>422.3</ele>
        <time>2016-08-27T09:52:20Z</time>
      </trkpt>
      <trkpt lat="44.0669" lon="1.80134">
        <ele>422</ele>
        <time>2016-08-27T09:52:21Z</time>
      </trkpt>
      <trkpt lat="44.06696" lon="1.80129">
        <ele>421.5</ele>
        <time>2016-08-27T09:52:22Z</time>
      </trkpt>
      <trkpt lat="44.06701" lon="1.80125">
        <ele>421.1</ele>
        <time>2016-08-27T09:52:23Z</time>
      </trkpt>
      <trkpt lat="44.06707" lon="1.80122">
        <ele>420.9</ele>
        <time>2016-08-27T09:52:24Z</time>
      </trkpt>
      <trkpt lat="44.06712" lon="1.80116">
        <ele>420.6</ele>
        <time>2016-08-27T09:52:25Z</time>
      </trkpt>
      <trkpt lat="44.06718" lon="1.80111">
        <ele>420.5</ele>
        <time>2016-08-27T09:52:26Z</time>
      </trkpt>
      <trkpt lat="44.06724" lon="1.80108">
        <ele>420.4</ele>
        <time>2016-08-27T09:52:27Z</time>
      </trkpt>
      <trkpt lat="44.06728" lon="1.80107">
        <ele>420.4</ele>
        <time>2016-08-27T09:52:28Z</time>
      </trkpt>
      <trkpt lat="44.06732" lon="1.80104">
        <ele>420.4</ele>
        <time>2016-08-27T09:52:29Z</time>
      </trkpt>
      <trkpt lat="44.06737" lon="1.80102">
        <ele>420.3</ele>
        <time>2016-08-27T09:52:30Z</time>
      </trkpt>
      <trkpt lat="44.06744" lon="1.801">
        <ele>420.3</ele>
        <time>2016-08-27T09:52:31Z</time>
      </trkpt>
      <trkpt lat="44.06751" lon="1.80098">
        <ele>420.2</ele>
        <time>2016-08-27T09:52:32Z</time>
      </trkpt>
      <trkpt lat="44.06757" lon="1.80096">
        <ele>420.1</ele>
        <time>2016-08-27T09:52:33Z</time>
      </trkpt>
      <trkpt lat="44.06765" lon="1.80091">
        <ele>419.9</ele>
        <time>2016-08-27T09:52:34Z</time>
      </trkpt>
      <trkpt lat="44.06771" lon="1.80089">
        <ele>419.8</ele>
        <time>2016-08-27T09:52:35Z</time>
      </trkpt>
      <trkpt lat="44.06777" lon="1.80088">
        <ele>419.7</ele>
        <time>2016-08-27T09:52:36Z</time>
      </trkpt>
      <trkpt lat="44.06784" lon="1.80086">
        <ele>419.6</ele>
        <time>2016-08-27T09:52:37Z</time>
      </trkpt>
      <trkpt lat="44.06788" lon="1.80089">
        <ele>419.9</ele>
        <time>2016-08-27T09:52:38Z</time>
      </trkpt>
      <trkpt lat="44.06796" lon="1.80088">
        <ele>419.9</ele>
        <time>2016-08-27T09:52:39Z</time>
      </trkpt>
      <trkpt lat="44.06804" lon="1.80088">
        <ele>419.7</ele>
        <time>2016-08-27T09:52:40Z</time>
      </trkpt>
      <trkpt lat="44.0681" lon="1.80087">
        <ele>419.6</ele>
        <time>2016-08-27T09:52:41Z</time>
      </trkpt>
      <trkpt lat="44.06817" lon="1.80087">
        <ele>419.6</ele>
        <time>2016-08-27T09:52:42Z</time>
      </trkpt>
      <trkpt lat="44.06824" lon="1.80085">
        <ele>419.3</ele>
        <time>2016-08-27T09:52:43Z</time>
      </trkpt>
      <trkpt lat="44.06831" lon="1.80084">
        <ele>419.1</ele>
        <time>2016-08-27T09:52:44Z</time>
      </trkpt>
      <trkpt lat="44.06836" lon="1.8008">
        <ele>418.6</ele>
        <time>2016-08-27T09:52:45Z</time>
      </trkpt>
      <trkpt lat="44.06843" lon="1.80077">
        <ele>418.3</ele>
        <time>2016-08-27T09:52:46Z</time>
      </trkpt>
      <trkpt lat="44.06848" lon="1.80074">
        <ele>417.9</ele>
        <time>2016-08-27T09:52:47Z</time>
      </trkpt>
      <trkpt lat="44.06853" lon="1.80072">
        <ele>417.7</ele>
        <time>2016-08-27T09:52:48Z</time>
      </trkpt>
      <trkpt lat="44.06858" lon="1.8007">
        <ele>417.3</ele>
        <time>2016-08-27T09:52:49Z</time>
      </trkpt>
      <trkpt lat="44.06863" lon="1.80068">
        <ele>417.1</ele>
        <time>2016-08-27T09:52:50Z</time>
      </trkpt>
      <trkpt lat="44.06867" lon="1.80068">
        <ele>416.9</ele>
        <time>2016-08-27T09:52:51Z</time>
      </trkpt>
      <trkpt lat="44.06873" lon="1.80067">
        <ele>416.8</ele>
        <time>2016-08-27T09:52:52Z</time>
      </trkpt>
      <trkpt lat="44.06877" lon="1.80068">
        <ele>416.9</ele>
        <time>2016-08-27T09:52:53Z</time>
      </trkpt>
      <trkpt lat="44.06882" lon="1.80065">
        <ele>416.7</ele>
        <time>2016-08-27T09:52:55Z</time>
      </trkpt>
      <trkpt lat="44.06885" lon="1.80064">
        <ele>416.8</ele>
        <time>2016-08-27T09:52:56Z</time>
      </trkpt>
      <trkpt lat="44.0689" lon="1.80062">
        <ele>416.7</ele>
        <time>2016-08-27T09:52:57Z</time>
      </trkpt>
      <trkpt lat="44.06896" lon="1.80058">
        <ele>416.5</ele>
        <time>2016-08-27T09:52:59Z</time>
      </trkpt>
      <trkpt lat="44.06901" lon="1.80058">
        <ele>416.5</ele>
        <time>2016-08-27T09:53:00Z</time>
      </trkpt>
      <trkpt lat="44.06905" lon="1.80056">
        <ele>416.5</ele>
        <time>2016-08-27T09:53:01Z</time>
      </trkpt>
      <trkpt lat="44.06909" lon="1.80057">
        <ele>416.7</ele>
        <time>2016-08-27T09:53:02Z</time>
      </trkpt>
      <trkpt lat="44.06912" lon="1.80057">
        <ele>416.8</ele>
        <time>2016-08-27T09:53:03Z</time>
      </trkpt>
      <trkpt lat="44.06917" lon="1.80055">
        <ele>416.7</ele>
        <time>2016-08-27T09:53:04Z</time>
      </trkpt>
      <trkpt lat="44.0692" lon="1.80054">
        <ele>416.6</ele>
        <time>2016-08-27T09:53:05Z</time>
      </trkpt>
      <trkpt lat="44.06926" lon="1.80056">
        <ele>417.1</ele>
        <time>2016-08-27T09:53:06Z</time>
      </trkpt>
      <trkpt lat="44.06927" lon="1.80051">
        <ele>416.4</ele>
        <time>2016-08-27T09:53:07Z</time>
      </trkpt>
      <trkpt lat="44.06933" lon="1.80052">
        <ele>416.7</ele>
        <time>2016-08-27T09:53:08Z</time>
      </trkpt>
      <trkpt lat="44.06938" lon="1.80052">
        <ele>416.8</ele>
        <time>2016-08-27T09:53:09Z</time>
      </trkpt>
      <trkpt lat="44.06943" lon="1.80051">
        <ele>416.9</ele>
        <time>2016-08-27T09:53:10Z</time>
      </trkpt>
      <trkpt lat="44.06947" lon="1.8005">
        <ele>416.9</ele>
        <time>2016-08-27T09:53:11Z</time>
      </trkpt>
      <trkpt lat="44.06951" lon="1.80049">
        <ele>416.8</ele>
        <time>2016-08-27T09:53:12Z</time>
      </trkpt>
      <trkpt lat="44.06957" lon="1.80047">
        <ele>416.7</ele>
        <time>2016-08-27T09:53:13Z</time>
      </trkpt>
      <trkpt lat="44.06966" lon="1.80046">
        <ele>417.1</ele>
        <time>2016-08-27T09:53:16Z</time>
      </trkpt>
      <trkpt lat="44.06972" lon="1.80044">
        <ele>417.2</ele>
        <time>2016-08-27T09:53:17Z</time>
      </trkpt>
      <trkpt lat="44.06977" lon="1.80044">
        <ele>417.4</ele>
        <time>2016-08-27T09:53:18Z</time>
      </trkpt>
      <trkpt lat="44.06981" lon="1.80043">
        <ele>417.6</ele>
        <time>2016-08-27T09:53:19Z</time>
      </trkpt>
      <trkpt lat="44.06985" lon="1.80044">
        <ele>417.9</ele>
        <time>2016-08-27T09:53:20Z</time>
      </trkpt>
      <trkpt lat="44.06989" lon="1.80046">
        <ele>418.3</ele>
        <time>2016-08-27T09:53:21Z</time>
      </trkpt>
      <trkpt lat="44.06993" lon="1.80047">
        <ele>418.7</ele>
        <time>2016-08-27T09:53:22Z</time>
      </trkpt>
      <trkpt lat="44.06997" lon="1.80049">
        <ele>419.1</ele>
        <time>2016-08-27T09:53:23Z</time>
      </trkpt>
      <trkpt lat="44.07" lon="1.80051">
        <ele>419.6</ele>
        <time>2016-08-27T09:53:24Z</time>
      </trkpt>
      <trkpt lat="44.07004" lon="1.80054">
        <ele>420.1</ele>
        <time>2016-08-27T09:53:25Z</time>
      </trkpt>
      <trkpt lat="44.07007" lon="1.80056">
        <ele>420.5</ele>
        <time>2016-08-27T09:53:26Z</time>
      </trkpt>
      <trkpt lat="44.0701" lon="1.80061">
        <ele>421.2</ele>
        <time>2016-08-27T09:53:27Z</time>
      </trkpt>
      <trkpt lat="44.07013" lon="1.80065">
        <ele>421.7</ele>
        <time>2016-08-27T09:53:28Z</time>
      </trkpt>
      <trkpt lat="44.07017" lon="1.80074">
        <ele>422.8</ele>
        <time>2016-08-27T09:53:29Z</time>
      </trkpt>
      <trkpt lat="44.07023" lon="1.8008">
        <ele>423.7</ele>
        <time>2016-08-27T09:53:30Z</time>
      </trkpt>
      <trkpt lat="44.07024" lon="1.80088">
        <ele>424.4</ele>
        <time>2016-08-27T09:53:31Z</time>
      </trkpt>
      <trkpt lat="44.07028" lon="1.80097">
        <ele>425.3</ele>
        <time>2016-08-27T09:53:32Z</time>
      </trkpt>
      <trkpt lat="44.0703" lon="1.80104">
        <ele>426.1</ele>
        <time>2016-08-27T09:53:33Z</time>
      </trkpt>
      <trkpt lat="44.07034" lon="1.80111">
        <ele>426.7</ele>
        <time>2016-08-27T09:53:34Z</time>
      </trkpt>
      <trkpt lat="44.07038" lon="1.80116">
        <ele>427.2</ele>
        <time>2016-08-27T09:53:35Z</time>
      </trkpt>
      <trkpt lat="44.07042" lon="1.80119">
        <ele>427.4</ele>
        <time>2016-08-27T09:53:36Z</time>
      </trkpt>
      <trkpt lat="44.07045" lon="1.80123">
        <ele>427.3</ele>
        <time>2016-08-27T09:53:37Z</time>
      </trkpt>
      <trkpt lat="44.07051" lon="1.80128">
        <ele>426.6</ele>
        <time>2016-08-27T09:53:38Z</time>
      </trkpt>
      <trkpt lat="44.07057" lon="1.80132">
        <ele>426</ele>
        <time>2016-08-27T09:53:39Z</time>
      </trkpt>
      <trkpt lat="44.07062" lon="1.80136">
        <ele>425.6</ele>
        <time>2016-08-27T09:53:40Z</time>
      </trkpt>
      <trkpt lat="44.07068" lon="1.80138">
        <ele>424.7</ele>
        <time>2016-08-27T09:53:42Z</time>
      </trkpt>
      <trkpt lat="44.07072" lon="1.80136">
        <ele>423.8</ele>
        <time>2016-08-27T09:53:43Z</time>
      </trkpt>
      <trkpt lat="44.07075" lon="1.80135">
        <ele>423.2</ele>
        <time>2016-08-27T09:53:44Z</time>
      </trkpt>
      <trkpt lat="44.07079" lon="1.80139">
        <ele>422.8</ele>
        <time>2016-08-27T09:53:45Z</time>
      </trkpt>
      <trkpt lat="44.07083" lon="1.8014">
        <ele>422.2</ele>
        <time>2016-08-27T09:53:46Z</time>
      </trkpt>
      <trkpt lat="44.07089" lon="1.80143">
        <ele>421.4</ele>
        <time>2016-08-27T09:53:47Z</time>
      </trkpt>
      <trkpt lat="44.07094" lon="1.80145">
        <ele>420.7</ele>
        <time>2016-08-27T09:53:48Z</time>
      </trkpt>
      <trkpt lat="44.07101" lon="1.80146">
        <ele>419.5</ele>
        <time>2016-08-27T09:53:49Z</time>
      </trkpt>
      <trkpt lat="44.07106" lon="1.80146">
        <ele>418.5</ele>
        <time>2016-08-27T09:53:50Z</time>
      </trkpt>
      <trkpt lat="44.0711" lon="1.80147">
        <ele>417.9</ele>
        <time>2016-08-27T09:53:51Z</time>
      </trkpt>
      <trkpt lat="44.07116" lon="1.80143">
        <ele>416.4</ele>
        <time>2016-08-27T09:53:52Z</time>
      </trkpt>
      <trkpt lat="44.07124" lon="1.80144">
        <ele>415.1</ele>
        <time>2016-08-27T09:53:53Z</time>
      </trkpt>
      <trkpt lat="44.07129" lon="1.80144">
        <ele>414.9</ele>
        <time>2016-08-27T09:53:54Z</time>
      </trkpt>
      <trkpt lat="44.07133" lon="1.80147">
        <ele>415.2</ele>
        <time>2016-08-27T09:53:55Z</time>
      </trkpt>
      <trkpt lat="44.07136" lon="1.80149">
        <ele>415.5</ele>
        <time>2016-08-27T09:53:56Z</time>
      </trkpt>
      <trkpt lat="44.07141" lon="1.80148">
        <ele>415.5</ele>
        <time>2016-08-27T09:53:58Z</time>
      </trkpt>
      <trkpt lat="44.07144" lon="1.80149">
        <ele>415.7</ele>
        <time>2016-08-27T09:53:59Z</time>
      </trkpt>
      <trkpt lat="44.07147" lon="1.80151">
        <ele>415.9</ele>
        <time>2016-08-27T09:54:01Z</time>
      </trkpt>
      <trkpt lat="44.0715" lon="1.80151">
        <ele>416</ele>
        <time>2016-08-27T09:54:07Z</time>
      </trkpt>
      <trkpt lat="44.07154" lon="1.80149">
        <ele>415.9</ele>
        <time>2016-08-27T09:54:10Z</time>
      </trkpt>
      <trkpt lat="44.07158" lon="1.80146">
        <ele>415.7</ele>
        <time>2016-08-27T09:54:12Z</time>
      </trkpt>
      <trkpt lat="44.07162" lon="1.80146">
        <ele>415.8</ele>
        <time>2016-08-27T09:54:14Z</time>
      </trkpt>
      <trkpt lat="44.07166" lon="1.8015">
        <ele>416.2</ele>
        <time>2016-08-27T09:54:16Z</time>
      </trkpt>
      <trkpt lat="44.07169" lon="1.80152">
        <ele>416.4</ele>
        <time>2016-08-27T09:54:17Z</time>
      </trkpt>
      <trkpt lat="44.07171" lon="1.80153">
        <ele>416.6</ele>
        <time>2016-08-27T09:54:18Z</time>
      </trkpt>
      <trkpt lat="44.07175" lon="1.80155">
        <ele>416.8</ele>
        <time>2016-08-27T09:54:19Z</time>
      </trkpt>
      <trkpt lat="44.07179" lon="1.80157">
        <ele>417.1</ele>
        <time>2016-08-27T09:54:20Z</time>
      </trkpt>
      <trkpt lat="44.07183" lon="1.80159">
        <ele>417.4</ele>
        <time>2016-08-27T09:54:21Z</time>
      </trkpt>
      <trkpt lat="44.07187" lon="1.80162">
        <ele>417.7</ele>
        <time>2016-08-27T09:54:22Z</time>
      </trkpt>
      <trkpt lat="44.0719" lon="1.80165">
        <ele>418</ele>
        <time>2016-08-27T09:54:23Z</time>
      </trkpt>
      <trkpt lat="44.07194" lon="1.80168">
        <ele>418.3</ele>
        <time>2016-08-27T09:54:24Z</time>
      </trkpt>
      <trkpt lat="44.07197" lon="1.80171">
        <ele>418.7</ele>
        <time>2016-08-27T09:54:25Z</time>
      </trkpt>
      <trkpt lat="44.072" lon="1.80175">
        <ele>419</ele>
        <time>2016-08-27T09:54:26Z</time>
      </trkpt>
      <trkpt lat="44.07203" lon="1.80179">
        <ele>419.4</ele>
        <time>2016-08-27T09:54:27Z</time>
      </trkpt>
      <trkpt lat="44.07206" lon="1.80181">
        <ele>419.7</ele>
        <time>2016-08-27T09:54:28Z</time>
      </trkpt>
      <trkpt lat="44.0721" lon="1.80184">
        <ele>419.9</ele>
        <time>2016-08-27T09:54:29Z</time>
      </trkpt>
      <trkpt lat="44.07213" lon="1.80187">
        <ele>419.9</ele>
        <time>2016-08-27T09:54:30Z</time>
      </trkpt>
      <trkpt lat="44.07216" lon="1.80189">
        <ele>419.9</ele>
        <time>2016-08-27T09:54:31Z</time>
      </trkpt>
      <trkpt lat="44.07219" lon="1.80191">
        <ele>419.8</ele>
        <time>2016-08-27T09:54:32Z</time>
      </trkpt>
      <trkpt lat="44.07223" lon="1.80193">
        <ele>419.7</ele>
        <time>2016-08-27T09:54:33Z</time>
      </trkpt>
      <trkpt lat="44.07226" lon="1.80195">
        <ele>419.6</ele>
        <time>2016-08-27T09:54:34Z</time>
      </trkpt>
      <trkpt lat="44.0723" lon="1.80197">
        <ele>419.5</ele>
        <time>2016-08-27T09:54:35Z</time>
      </trkpt>
      <trkpt lat="44.07234" lon="1.80199">
        <ele>419.4</ele>
        <time>2016-08-27T09:54:36Z</time>
      </trkpt>
      <trkpt lat="44.07237" lon="1.80201">
        <ele>419.4</ele>
        <time>2016-08-27T09:54:37Z</time>
      </trkpt>
      <trkpt lat="44.07241" lon="1.80204">
        <ele>419.3</ele>
        <time>2016-08-27T09:54:38Z</time>
      </trkpt>
      <trkpt lat="44.07244" lon="1.80205">
        <ele>419.2</ele>
        <time>2016-08-27T09:54:39Z</time>
      </trkpt>
      <trkpt lat="44.07248" lon="1.80207">
        <ele>419</ele>
        <time>2016-08-27T09:54:40Z</time>
      </trkpt>
      <trkpt lat="44.07252" lon="1.80208">
        <ele>418.8</ele>
        <time>2016-08-27T09:54:41Z</time>
      </trkpt>
      <trkpt lat="44.07256" lon="1.8021">
        <ele>418.7</ele>
        <time>2016-08-27T09:54:42Z</time>
      </trkpt>
      <trkpt lat="44.07259" lon="1.80211">
        <ele>418.5</ele>
        <time>2016-08-27T09:54:43Z</time>
      </trkpt>
      <trkpt lat="44.07263" lon="1.80213">
        <ele>418.4</ele>
        <time>2016-08-27T09:54:44Z</time>
      </trkpt>
      <trkpt lat="44.07266" lon="1.80216">
        <ele>418.4</ele>
        <time>2016-08-27T09:54:45Z</time>
      </trkpt>
      <trkpt lat="44.07269" lon="1.80218">
        <ele>418.4</ele>
        <time>2016-08-27T09:54:46Z</time>
      </trkpt>
      <trkpt lat="44.07271" lon="1.80219">
        <ele>418.2</ele>
        <time>2016-08-27T09:54:47Z</time>
      </trkpt>
      <trkpt lat="44.07274" lon="1.8022">
        <ele>418.1</ele>
        <time>2016-08-27T09:54:48Z</time>
      </trkpt>
      <trkpt lat="44.07278" lon="1.8022">
        <ele>417.9</ele>
        <time>2016-08-27T09:54:49Z</time>
      </trkpt>
      <trkpt lat="44.07285" lon="1.80221">
        <ele>417.5</ele>
        <time>2016-08-27T09:54:50Z</time>
      </trkpt>
      <trkpt lat="44.07289" lon="1.8022">
        <ele>417.1</ele>
        <time>2016-08-27T09:54:51Z</time>
      </trkpt>
      <trkpt lat="44.07293" lon="1.80221">
        <ele>417</ele>
        <time>2016-08-27T09:54:52Z</time>
      </trkpt>
      <trkpt lat="44.07298" lon="1.80222">
        <ele>416.9</ele>
        <time>2016-08-27T09:54:54Z</time>
      </trkpt>
      <trkpt lat="44.07301" lon="1.80223">
        <ele>416.8</ele>
        <time>2016-08-27T09:54:55Z</time>
      </trkpt>
      <trkpt lat="44.07307" lon="1.80224">
        <ele>416.7</ele>
        <time>2016-08-27T09:54:57Z</time>
      </trkpt>
      <trkpt lat="44.0731" lon="1.80225">
        <ele>416.7</ele>
        <time>2016-08-27T09:54:58Z</time>
      </trkpt>
      <trkpt lat="44.07314" lon="1.80227">
        <ele>416.7</ele>
        <time>2016-08-27T09:54:59Z</time>
      </trkpt>
      <trkpt lat="44.07317" lon="1.80229">
        <ele>416.8</ele>
        <time>2016-08-27T09:55:00Z</time>
      </trkpt>
      <trkpt lat="44.0732" lon="1.80231">
        <ele>416.8</ele>
        <time>2016-08-27T09:55:01Z</time>
      </trkpt>
      <trkpt lat="44.07323" lon="1.80232">
        <ele>416.8</ele>
        <time>2016-08-27T09:55:02Z</time>
      </trkpt>
      <trkpt lat="44.07326" lon="1.80233">
        <ele>416.8</ele>
        <time>2016-08-27T09:55:03Z</time>
      </trkpt>
      <trkpt lat="44.0733" lon="1.80234">
        <ele>416.7</ele>
        <time>2016-08-27T09:55:04Z</time>
      </trkpt>
      <trkpt lat="44.07333" lon="1.80235">
        <ele>416.7</ele>
        <time>2016-08-27T09:55:05Z</time>
      </trkpt>
      <trkpt lat="44.07336" lon="1.80236">
        <ele>416.8</ele>
        <time>2016-08-27T09:55:06Z</time>
      </trkpt>
      <trkpt lat="44.07339" lon="1.80239">
        <ele>416.9</ele>
        <time>2016-08-27T09:55:07Z</time>
      </trkpt>
      <trkpt lat="44.07342" lon="1.8024">
        <ele>417</ele>
        <time>2016-08-27T09:55:08Z</time>
      </trkpt>
      <trkpt lat="44.07345" lon="1.80242">
        <ele>417.1</ele>
        <time>2016-08-27T09:55:09Z</time>
      </trkpt>
      <trkpt lat="44.07348" lon="1.80244">
        <ele>417.1</ele>
        <time>2016-08-27T09:55:10Z</time>
      </trkpt>
      <trkpt lat="44.07351" lon="1.80246">
        <ele>417.2</ele>
        <time>2016-08-27T09:55:11Z</time>
      </trkpt>
      <trkpt lat="44.07354" lon="1.80248">
        <ele>417.4</ele>
        <time>2016-08-27T09:55:12Z</time>
      </trkpt>
      <trkpt lat="44.07356" lon="1.8025">
        <ele>417.5</ele>
        <time>2016-08-27T09:55:13Z</time>
      </trkpt>
      <trkpt lat="44.07358" lon="1.80251">
        <ele>417.6</ele>
        <time>2016-08-27T09:55:14Z</time>
      </trkpt>
      <trkpt lat="44.07361" lon="1.80253">
        <ele>417.7</ele>
        <time>2016-08-27T09:55:15Z</time>
      </trkpt>
      <trkpt lat="44.07364" lon="1.80253">
        <ele>417.7</ele>
        <time>2016-08-27T09:55:16Z</time>
      </trkpt>
      <trkpt lat="44.07367" lon="1.80254">
        <ele>417.6</ele>
        <time>2016-08-27T09:55:17Z</time>
      </trkpt>
      <trkpt lat="44.0737" lon="1.80254">
        <ele>417.7</ele>
        <time>2016-08-27T09:55:18Z</time>
      </trkpt>
      <trkpt lat="44.07381" lon="1.80247">
        <ele>416.4</ele>
        <time>2016-08-27T09:55:19Z</time>
      </trkpt>
      <trkpt lat="44.07386" lon="1.80247">
        <ele>416.1</ele>
        <time>2016-08-27T09:55:20Z</time>
      </trkpt>
      <trkpt lat="44.0739" lon="1.80247">
        <ele>415.9</ele>
        <time>2016-08-27T09:55:21Z</time>
      </trkpt>
      <trkpt lat="44.07395" lon="1.80248">
        <ele>415.8</ele>
        <time>2016-08-27T09:55:22Z</time>
      </trkpt>
      <trkpt lat="44.07398" lon="1.80249">
        <ele>415.8</ele>
        <time>2016-08-27T09:55:23Z</time>
      </trkpt>
      <trkpt lat="44.07403" lon="1.8025">
        <ele>415.7</ele>
        <time>2016-08-27T09:55:24Z</time>
      </trkpt>
      <trkpt lat="44.07407" lon="1.8025">
        <ele>415.5</ele>
        <time>2016-08-27T09:55:25Z</time>
      </trkpt>
      <trkpt lat="44.07412" lon="1.80251">
        <ele>415.3</ele>
        <time>2016-08-27T09:55:26Z</time>
      </trkpt>
      <trkpt lat="44.07417" lon="1.80252">
        <ele>415.2</ele>
        <time>2016-08-27T09:55:27Z</time>
      </trkpt>
      <trkpt lat="44.07421" lon="1.80252">
        <ele>414.9</ele>
        <time>2016-08-27T09:55:28Z</time>
      </trkpt>
      <trkpt lat="44.07425" lon="1.80252">
        <ele>414.7</ele>
        <time>2016-08-27T09:55:29Z</time>
      </trkpt>
      <trkpt lat="44.0743" lon="1.80251">
        <ele>414.4</ele>
        <time>2016-08-27T09:55:30Z</time>
      </trkpt>
      <trkpt lat="44.07435" lon="1.80251">
        <ele>414.2</ele>
        <time>2016-08-27T09:55:31Z</time>
      </trkpt>
      <trkpt lat="44.07441" lon="1.80249">
        <ele>413.8</ele>
        <time>2016-08-27T09:55:32Z</time>
      </trkpt>
      <trkpt lat="44.07445" lon="1.80249">
        <ele>413.6</ele>
        <time>2016-08-27T09:55:33Z</time>
      </trkpt>
      <trkpt lat="44.07451" lon="1.8025">
        <ele>413.4</ele>
        <time>2016-08-27T09:55:34Z</time>
      </trkpt>
      <trkpt lat="44.07457" lon="1.8025">
        <ele>413.1</ele>
        <time>2016-08-27T09:55:35Z</time>
      </trkpt>
      <trkpt lat="44.07462" lon="1.80251">
        <ele>413</ele>
        <time>2016-08-27T09:55:36Z</time>
      </trkpt>
      <trkpt lat="44.07467" lon="1.80253">
        <ele>413</ele>
        <time>2016-08-27T09:55:37Z</time>
      </trkpt>
      <trkpt lat="44.07476" lon="1.80255">
        <ele>412.8</ele>
        <time>2016-08-27T09:55:39Z</time>
      </trkpt>
      <trkpt lat="44.07481" lon="1.80254">
        <ele>412.6</ele>
        <time>2016-08-27T09:55:40Z</time>
      </trkpt>
      <trkpt lat="44.07488" lon="1.80256">
        <ele>412.6</ele>
        <time>2016-08-27T09:55:41Z</time>
      </trkpt>
      <trkpt lat="44.07494" lon="1.80258">
        <ele>412.5</ele>
        <time>2016-08-27T09:55:42Z</time>
      </trkpt>
      <trkpt lat="44.07501" lon="1.80261">
        <ele>412.6</ele>
        <time>2016-08-27T09:55:44Z</time>
      </trkpt>
      <trkpt lat="44.07504" lon="1.80263">
        <ele>412.6</ele>
        <time>2016-08-27T09:55:45Z</time>
      </trkpt>
      <trkpt lat="44.07508" lon="1.80265">
        <ele>412.7</ele>
        <time>2016-08-27T09:55:46Z</time>
      </trkpt>
      <trkpt lat="44.07512" lon="1.80267">
        <ele>412.7</ele>
        <time>2016-08-27T09:55:47Z</time>
      </trkpt>
      <trkpt lat="44.07519" lon="1.80268">
        <ele>412.6</ele>
        <time>2016-08-27T09:55:48Z</time>
      </trkpt>
      <trkpt lat="44.07524" lon="1.80271">
        <ele>412.7</ele>
        <time>2016-08-27T09:55:49Z</time>
      </trkpt>
      <trkpt lat="44.0753" lon="1.80273">
        <ele>412.7</ele>
        <time>2016-08-27T09:55:50Z</time>
      </trkpt>
      <trkpt lat="44.07536" lon="1.80275">
        <ele>412.8</ele>
        <time>2016-08-27T09:55:51Z</time>
      </trkpt>
      <trkpt lat="44.07543" lon="1.80275">
        <ele>412.5</ele>
        <time>2016-08-27T09:55:52Z</time>
      </trkpt>
      <trkpt lat="44.0755" lon="1.80274">
        <ele>412.4</ele>
        <time>2016-08-27T09:55:53Z</time>
      </trkpt>
      <trkpt lat="44.07557" lon="1.80274">
        <ele>412.2</ele>
        <time>2016-08-27T09:55:54Z</time>
      </trkpt>
      <trkpt lat="44.07564" lon="1.80274">
        <ele>412.1</ele>
        <time>2016-08-27T09:55:55Z</time>
      </trkpt>
      <trkpt lat="44.0757" lon="1.80271">
        <ele>411.7</ele>
        <time>2016-08-27T09:55:56Z</time>
      </trkpt>
      <trkpt lat="44.07577" lon="1.80271">
        <ele>411.6</ele>
        <time>2016-08-27T09:55:57Z</time>
      </trkpt>
      <trkpt lat="44.07582" lon="1.8027">
        <ele>411.4</ele>
        <time>2016-08-27T09:55:58Z</time>
      </trkpt>
      <trkpt lat="44.07589" lon="1.80272">
        <ele>411.5</ele>
        <time>2016-08-27T09:55:59Z</time>
      </trkpt>
      <trkpt lat="44.07594" lon="1.80271">
        <ele>411.3</ele>
        <time>2016-08-27T09:56:00Z</time>
      </trkpt>
      <trkpt lat="44.07601" lon="1.80267">
        <ele>410.9</ele>
        <time>2016-08-27T09:56:01Z</time>
      </trkpt>
      <trkpt lat="44.0761" lon="1.80264">
        <ele>410.5</ele>
        <time>2016-08-27T09:56:02Z</time>
      </trkpt>
      <trkpt lat="44.07616" lon="1.80261">
        <ele>410.3</ele>
        <time>2016-08-27T09:56:03Z</time>
      </trkpt>
      <trkpt lat="44.07625" lon="1.80258">
        <ele>410</ele>
        <time>2016-08-27T09:56:04Z</time>
      </trkpt>
      <trkpt lat="44.07632" lon="1.80257">
        <ele>410.2</ele>
        <time>2016-08-27T09:56:05Z</time>
      </trkpt>
      <trkpt lat="44.07637" lon="1.80255">
        <ele>410.3</ele>
        <time>2016-08-27T09:56:06Z</time>
      </trkpt>
      <trkpt lat="44.07642" lon="1.80253">
        <ele>410.5</ele>
        <time>2016-08-27T09:56:07Z</time>
      </trkpt>
      <trkpt lat="44.07646" lon="1.80252">
        <ele>410.6</ele>
        <time>2016-08-27T09:56:08Z</time>
      </trkpt>
      <trkpt lat="44.07652" lon="1.8025">
        <ele>410.8</ele>
        <time>2016-08-27T09:56:09Z</time>
      </trkpt>
      <trkpt lat="44.07657" lon="1.80247">
        <ele>410.9</ele>
        <time>2016-08-27T09:56:10Z</time>
      </trkpt>
      <trkpt lat="44.07659" lon="1.80244">
        <ele>410.9</ele>
        <time>2016-08-27T09:56:11Z</time>
      </trkpt>
      <trkpt lat="44.07664" lon="1.80244">
        <ele>411.2</ele>
        <time>2016-08-27T09:56:12Z</time>
      </trkpt>
      <trkpt lat="44.0767" lon="1.80243">
        <ele>411.4</ele>
        <time>2016-08-27T09:56:13Z</time>
      </trkpt>
      <trkpt lat="44.07675" lon="1.8024">
        <ele>411.6</ele>
        <time>2016-08-27T09:56:14Z</time>
      </trkpt>
      <trkpt lat="44.07681" lon="1.80238">
        <ele>411.8</ele>
        <time>2016-08-27T09:56:15Z</time>
      </trkpt>
      <trkpt lat="44.07686" lon="1.80235">
        <ele>412</ele>
        <time>2016-08-27T09:56:16Z</time>
      </trkpt>
      <trkpt lat="44.07692" lon="1.80233">
        <ele>412.3</ele>
        <time>2016-08-27T09:56:17Z</time>
      </trkpt>
      <trkpt lat="44.07697" lon="1.8023">
        <ele>412.6</ele>
        <time>2016-08-27T09:56:18Z</time>
      </trkpt>
      <trkpt lat="44.077" lon="1.80228">
        <ele>412.7</ele>
        <time>2016-08-27T09:56:19Z</time>
      </trkpt>
      <trkpt lat="44.07704" lon="1.80225">
        <ele>412.9</ele>
        <time>2016-08-27T09:56:20Z</time>
      </trkpt>
      <trkpt lat="44.07707" lon="1.80227">
        <ele>413.1</ele>
        <time>2016-08-27T09:56:21Z</time>
      </trkpt>
      <trkpt lat="44.0771" lon="1.80225">
        <ele>413.3</ele>
        <time>2016-08-27T09:56:22Z</time>
      </trkpt>
      <trkpt lat="44.07714" lon="1.80224">
        <ele>413.4</ele>
        <time>2016-08-27T09:56:23Z</time>
      </trkpt>
      <trkpt lat="44.07718" lon="1.80221">
        <ele>413.6</ele>
        <time>2016-08-27T09:56:25Z</time>
      </trkpt>
      <trkpt lat="44.07723" lon="1.80218">
        <ele>413.9</ele>
        <time>2016-08-27T09:56:26Z</time>
      </trkpt>
      <trkpt lat="44.07727" lon="1.80215">
        <ele>414.1</ele>
        <time>2016-08-27T09:56:27Z</time>
      </trkpt>
      <trkpt lat="44.07733" lon="1.80212">
        <ele>414.4</ele>
        <time>2016-08-27T09:56:29Z</time>
      </trkpt>
      <trkpt lat="44.07735" lon="1.80209">
        <ele>414.6</ele>
        <time>2016-08-27T09:56:30Z</time>
      </trkpt>
      <trkpt lat="44.07738" lon="1.80207">
        <ele>414.8</ele>
        <time>2016-08-27T09:56:31Z</time>
      </trkpt>
      <trkpt lat="44.07741" lon="1.80205">
        <ele>415.1</ele>
        <time>2016-08-27T09:56:32Z</time>
      </trkpt>
      <trkpt lat="44.07746" lon="1.80204">
        <ele>415.5</ele>
        <time>2016-08-27T09:56:33Z</time>
      </trkpt>
      <trkpt lat="44.0775" lon="1.802">
        <ele>416</ele>
        <time>2016-08-27T09:56:34Z</time>
      </trkpt>
      <trkpt lat="44.07753" lon="1.80198">
        <ele>416.3</ele>
        <time>2016-08-27T09:56:35Z</time>
      </trkpt>
      <trkpt lat="44.07757" lon="1.80196">
        <ele>416.7</ele>
        <time>2016-08-27T09:56:36Z</time>
      </trkpt>
      <trkpt lat="44.07761" lon="1.80193">
        <ele>417.1</ele>
        <time>2016-08-27T09:56:37Z</time>
      </trkpt>
      <trkpt lat="44.07765" lon="1.80191">
        <ele>417.4</ele>
        <time>2016-08-27T09:56:38Z</time>
      </trkpt>
      <trkpt lat="44.07768" lon="1.8019">
        <ele>417.7</ele>
        <time>2016-08-27T09:56:39Z</time>
      </trkpt>
      <trkpt lat="44.07773" lon="1.80187">
        <ele>418.1</ele>
        <time>2016-08-27T09:56:40Z</time>
      </trkpt>
      <trkpt lat="44.07778" lon="1.80183">
        <ele>418.7</ele>
        <time>2016-08-27T09:56:42Z</time>
      </trkpt>
      <trkpt lat="44.07779" lon="1.80179">
        <ele>419</ele>
        <time>2016-08-27T09:56:43Z</time>
      </trkpt>
      <trkpt lat="44.07784" lon="1.80175">
        <ele>419.6</ele>
        <time>2016-08-27T09:56:44Z</time>
      </trkpt>
      <trkpt lat="44.07788" lon="1.80172">
        <ele>420</ele>
        <time>2016-08-27T09:56:45Z</time>
      </trkpt>
      <trkpt lat="44.07797" lon="1.80171">
        <ele>420.2</ele>
        <time>2016-08-27T09:56:46Z</time>
      </trkpt>
      <trkpt lat="44.07803" lon="1.80168">
        <ele>420.2</ele>
        <time>2016-08-27T09:56:47Z</time>
      </trkpt>
      <trkpt lat="44.07806" lon="1.80165">
        <ele>420.4</ele>
        <time>2016-08-27T09:56:48Z</time>
      </trkpt>
      <trkpt lat="44.07811" lon="1.80162">
        <ele>420.5</ele>
        <time>2016-08-27T09:56:49Z</time>
      </trkpt>
      <trkpt lat="44.07815" lon="1.80159">
        <ele>420.6</ele>
        <time>2016-08-27T09:56:50Z</time>
      </trkpt>
      <trkpt lat="44.07821" lon="1.80155">
        <ele>420.9</ele>
        <time>2016-08-27T09:56:51Z</time>
      </trkpt>
      <trkpt lat="44.07828" lon="1.80152">
        <ele>421.1</ele>
        <time>2016-08-27T09:56:52Z</time>
      </trkpt>
      <trkpt lat="44.07833" lon="1.8015">
        <ele>421.2</ele>
        <time>2016-08-27T09:56:53Z</time>
      </trkpt>
      <trkpt lat="44.07841" lon="1.80147">
        <ele>421.5</ele>
        <time>2016-08-27T09:56:54Z</time>
      </trkpt>
      <trkpt lat="44.07847" lon="1.80145">
        <ele>421.7</ele>
        <time>2016-08-27T09:56:55Z</time>
      </trkpt>
      <trkpt lat="44.07848" lon="1.80137">
        <ele>422.4</ele>
        <time>2016-08-27T09:56:56Z</time>
      </trkpt>
      <trkpt lat="44.07854" lon="1.80136">
        <ele>422.6</ele>
        <time>2016-08-27T09:56:57Z</time>
      </trkpt>
      <trkpt lat="44.07859" lon="1.80133">
        <ele>423</ele>
        <time>2016-08-27T09:56:58Z</time>
      </trkpt>
      <trkpt lat="44.07866" lon="1.80129">
        <ele>423.5</ele>
        <time>2016-08-27T09:56:59Z</time>
      </trkpt>
      <trkpt lat="44.07874" lon="1.80128">
        <ele>423.7</ele>
        <time>2016-08-27T09:57:00Z</time>
      </trkpt>
      <trkpt lat="44.07883" lon="1.80125">
        <ele>423.4</ele>
        <time>2016-08-27T09:57:01Z</time>
      </trkpt>
      <trkpt lat="44.07891" lon="1.80122">
        <ele>422.8</ele>
        <time>2016-08-27T09:57:02Z</time>
      </trkpt>
      <trkpt lat="44.07903" lon="1.80119">
        <ele>421.9</ele>
        <time>2016-08-27T09:57:03Z</time>
      </trkpt>
      <trkpt lat="44.07911" lon="1.80119">
        <ele>421.1</ele>
        <time>2016-08-27T09:57:04Z</time>
      </trkpt>
      <trkpt lat="44.0792" lon="1.80117">
        <ele>420.5</ele>
        <time>2016-08-27T09:57:05Z</time>
      </trkpt>
      <trkpt lat="44.07928" lon="1.80116">
        <ele>419.8</ele>
        <time>2016-08-27T09:57:06Z</time>
      </trkpt>
      <trkpt lat="44.07939" lon="1.80114">
        <ele>418.8</ele>
        <time>2016-08-27T09:57:07Z</time>
      </trkpt>
      <trkpt lat="44.07949" lon="1.80114">
        <ele>418</ele>
        <time>2016-08-27T09:57:08Z</time>
      </trkpt>
      <trkpt lat="44.07957" lon="1.80115">
        <ele>417.2</ele>
        <time>2016-08-27T09:57:09Z</time>
      </trkpt>
      <trkpt lat="44.07967" lon="1.80118">
        <ele>416.2</ele>
        <time>2016-08-27T09:57:10Z</time>
      </trkpt>
      <trkpt lat="44.07976" lon="1.80119">
        <ele>415.3</ele>
        <time>2016-08-27T09:57:11Z</time>
      </trkpt>
      <trkpt lat="44.07983" lon="1.8012">
        <ele>414.7</ele>
        <time>2016-08-27T09:57:12Z</time>
      </trkpt>
      <trkpt lat="44.07992" lon="1.8012">
        <ele>413.8</ele>
        <time>2016-08-27T09:57:13Z</time>
      </trkpt>
      <trkpt lat="44.08001" lon="1.80122">
        <ele>413</ele>
        <time>2016-08-27T09:57:14Z</time>
      </trkpt>
      <trkpt lat="44.08006" lon="1.80125">
        <ele>412.4</ele>
        <time>2016-08-27T09:57:15Z</time>
      </trkpt>
      <trkpt lat="44.08012" lon="1.80126">
        <ele>411.7</ele>
        <time>2016-08-27T09:57:16Z</time>
      </trkpt>
      <trkpt lat="44.0802" lon="1.80131">
        <ele>410.8</ele>
        <time>2016-08-27T09:57:17Z</time>
      </trkpt>
      <trkpt lat="44.08027" lon="1.80134">
        <ele>409.9</ele>
        <time>2016-08-27T09:57:18Z</time>
      </trkpt>
      <trkpt lat="44.08035" lon="1.80137">
        <ele>409.1</ele>
        <time>2016-08-27T09:57:19Z</time>
      </trkpt>
      <trkpt lat="44.08043" lon="1.80139">
        <ele>408.4</ele>
        <time>2016-08-27T09:57:20Z</time>
      </trkpt>
      <trkpt lat="44.08053" lon="1.80141">
        <ele>407.9</ele>
        <time>2016-08-27T09:57:21Z</time>
      </trkpt>
      <trkpt lat="44.08059" lon="1.80143">
        <ele>407.6</ele>
        <time>2016-08-27T09:57:22Z</time>
      </trkpt>
      <trkpt lat="44.08067" lon="1.80145">
        <ele>407.3</ele>
        <time>2016-08-27T09:57:23Z</time>
      </trkpt>
      <trkpt lat="44.08072" lon="1.80143">
        <ele>407.1</ele>
        <time>2016-08-27T09:57:24Z</time>
      </trkpt>
      <trkpt lat="44.0808" lon="1.80144">
        <ele>406.7</ele>
        <time>2016-08-27T09:57:25Z</time>
      </trkpt>
      <trkpt lat="44.08087" lon="1.80145">
        <ele>406.5</ele>
        <time>2016-08-27T09:57:26Z</time>
      </trkpt>
      <trkpt lat="44.08092" lon="1.80146">
        <ele>406.3</ele>
        <time>2016-08-27T09:57:27Z</time>
      </trkpt>
      <trkpt lat="44.08097" lon="1.80148">
        <ele>406.1</ele>
        <time>2016-08-27T09:57:28Z</time>
      </trkpt>
      <trkpt lat="44.08102" lon="1.80149">
        <ele>406</ele>
        <time>2016-08-27T09:57:29Z</time>
      </trkpt>
      <trkpt lat="44.08111" lon="1.8015">
        <ele>405.7</ele>
        <time>2016-08-27T09:57:30Z</time>
      </trkpt>
      <trkpt lat="44.08117" lon="1.80149">
        <ele>405.4</ele>
        <time>2016-08-27T09:57:31Z</time>
      </trkpt>
      <trkpt lat="44.08123" lon="1.8015">
        <ele>405.2</ele>
        <time>2016-08-27T09:57:32Z</time>
      </trkpt>
      <trkpt lat="44.08128" lon="1.8015">
        <ele>405.3</ele>
        <time>2016-08-27T09:57:33Z</time>
      </trkpt>
      <trkpt lat="44.08132" lon="1.8015">
        <ele>405.4</ele>
        <time>2016-08-27T09:57:34Z</time>
      </trkpt>
      <trkpt lat="44.08137" lon="1.80149">
        <ele>405.5</ele>
        <time>2016-08-27T09:57:35Z</time>
      </trkpt>
      <trkpt lat="44.08144" lon="1.80148">
        <ele>405.7</ele>
        <time>2016-08-27T09:57:36Z</time>
      </trkpt>
      <trkpt lat="44.08152" lon="1.80146">
        <ele>405.8</ele>
        <time>2016-08-27T09:57:38Z</time>
      </trkpt>
      <trkpt lat="44.08157" lon="1.80146">
        <ele>406</ele>
        <time>2016-08-27T09:57:39Z</time>
      </trkpt>
      <trkpt lat="44.0816" lon="1.80147">
        <ele>406.1</ele>
        <time>2016-08-27T09:57:40Z</time>
      </trkpt>
      <trkpt lat="44.08164" lon="1.80148">
        <ele>406.3</ele>
        <time>2016-08-27T09:57:41Z</time>
      </trkpt>
      <trkpt lat="44.08167" lon="1.80148">
        <ele>406.4</ele>
        <time>2016-08-27T09:57:42Z</time>
      </trkpt>
      <trkpt lat="44.08173" lon="1.80149">
        <ele>406.6</ele>
        <time>2016-08-27T09:57:43Z</time>
      </trkpt>
      <trkpt lat="44.08176" lon="1.80149">
        <ele>406.7</ele>
        <time>2016-08-27T09:57:44Z</time>
      </trkpt>
      <trkpt lat="44.0818" lon="1.80148">
        <ele>406.8</ele>
        <time>2016-08-27T09:57:45Z</time>
      </trkpt>
      <trkpt lat="44.08185" lon="1.80147">
        <ele>406.9</ele>
        <time>2016-08-27T09:57:46Z</time>
      </trkpt>
      <trkpt lat="44.08189" lon="1.80146">
        <ele>406.9</ele>
        <time>2016-08-27T09:57:47Z</time>
      </trkpt>
      <trkpt lat="44.08193" lon="1.80146">
        <ele>407</ele>
        <time>2016-08-27T09:57:48Z</time>
      </trkpt>
      <trkpt lat="44.08198" lon="1.80146">
        <ele>407.2</ele>
        <time>2016-08-27T09:57:49Z</time>
      </trkpt>
      <trkpt lat="44.08204" lon="1.80146">
        <ele>407.4</ele>
        <time>2016-08-27T09:57:50Z</time>
      </trkpt>
      <trkpt lat="44.0821" lon="1.80145">
        <ele>407.5</ele>
        <time>2016-08-27T09:57:51Z</time>
      </trkpt>
      <trkpt lat="44.08213" lon="1.80143">
        <ele>407.6</ele>
        <time>2016-08-27T09:57:52Z</time>
      </trkpt>
      <trkpt lat="44.08217" lon="1.80144">
        <ele>408</ele>
        <time>2016-08-27T09:57:53Z</time>
      </trkpt>
      <trkpt lat="44.08225" lon="1.80147">
        <ele>408.7</ele>
        <time>2016-08-27T09:57:55Z</time>
      </trkpt>
      <trkpt lat="44.08228" lon="1.80145">
        <ele>408.9</ele>
        <time>2016-08-27T09:57:56Z</time>
      </trkpt>
      <trkpt lat="44.08232" lon="1.80143">
        <ele>409</ele>
        <time>2016-08-27T09:57:57Z</time>
      </trkpt>
      <trkpt lat="44.08235" lon="1.80141">
        <ele>409.1</ele>
        <time>2016-08-27T09:57:58Z</time>
      </trkpt>
      <trkpt lat="44.08239" lon="1.80141">
        <ele>409.3</ele>
        <time>2016-08-27T09:57:59Z</time>
      </trkpt>
      <trkpt lat="44.08243" lon="1.80139">
        <ele>409.5</ele>
        <time>2016-08-27T09:58:00Z</time>
      </trkpt>
      <trkpt lat="44.08249" lon="1.80144">
        <ele>410.3</ele>
        <time>2016-08-27T09:58:01Z</time>
      </trkpt>
      <trkpt lat="44.08253" lon="1.80146">
        <ele>410.7</ele>
        <time>2016-08-27T09:58:02Z</time>
      </trkpt>
      <trkpt lat="44.08257" lon="1.80146">
        <ele>411</ele>
        <time>2016-08-27T09:58:03Z</time>
      </trkpt>
      <trkpt lat="44.08261" lon="1.80145">
        <ele>411.3</ele>
        <time>2016-08-27T09:58:04Z</time>
      </trkpt>
      <trkpt lat="44.08267" lon="1.80142">
        <ele>411.4</ele>
        <time>2016-08-27T09:58:05Z</time>
      </trkpt>
      <trkpt lat="44.08273" lon="1.80139">
        <ele>411.7</ele>
        <time>2016-08-27T09:58:06Z</time>
      </trkpt>
      <trkpt lat="44.08283" lon="1.80141">
        <ele>412.5</ele>
        <time>2016-08-27T09:58:08Z</time>
      </trkpt>
      <trkpt lat="44.08288" lon="1.80142">
        <ele>413</ele>
        <time>2016-08-27T09:58:09Z</time>
      </trkpt>
      <trkpt lat="44.08293" lon="1.80142">
        <ele>413.2</ele>
        <time>2016-08-27T09:58:10Z</time>
      </trkpt>
      <trkpt lat="44.08298" lon="1.80142">
        <ele>413.1</ele>
        <time>2016-08-27T09:58:12Z</time>
      </trkpt>
      <trkpt lat="44.08302" lon="1.80144">
        <ele>413.1</ele>
        <time>2016-08-27T09:58:13Z</time>
      </trkpt>
      <trkpt lat="44.08313" lon="1.80145">
        <ele>413</ele>
        <time>2016-08-27T09:58:15Z</time>
      </trkpt>
      <trkpt lat="44.08316" lon="1.80148">
        <ele>413.1</ele>
        <time>2016-08-27T09:58:16Z</time>
      </trkpt>
      <trkpt lat="44.08321" lon="1.80152">
        <ele>413.3</ele>
        <time>2016-08-27T09:58:18Z</time>
      </trkpt>
      <trkpt lat="44.08325" lon="1.80155">
        <ele>413.3</ele>
        <time>2016-08-27T09:58:19Z</time>
      </trkpt>
      <trkpt lat="44.0833" lon="1.80159">
        <ele>413.4</ele>
        <time>2016-08-27T09:58:20Z</time>
      </trkpt>
      <trkpt lat="44.08335" lon="1.80162">
        <ele>413.5</ele>
        <time>2016-08-27T09:58:21Z</time>
      </trkpt>
      <trkpt lat="44.0834" lon="1.80164">
        <ele>413.4</ele>
        <time>2016-08-27T09:58:22Z</time>
      </trkpt>
      <trkpt lat="44.08348" lon="1.80166">
        <ele>413.3</ele>
        <time>2016-08-27T09:58:23Z</time>
      </trkpt>
      <trkpt lat="44.08353" lon="1.80168">
        <ele>413.2</ele>
        <time>2016-08-27T09:58:24Z</time>
      </trkpt>
      <trkpt lat="44.08359" lon="1.80172">
        <ele>413.2</ele>
        <time>2016-08-27T09:58:25Z</time>
      </trkpt>
      <trkpt lat="44.08364" lon="1.80175">
        <ele>413.2</ele>
        <time>2016-08-27T09:58:26Z</time>
      </trkpt>
      <trkpt lat="44.08371" lon="1.80177">
        <ele>413</ele>
        <time>2016-08-27T09:58:27Z</time>
      </trkpt>
      <trkpt lat="44.08376" lon="1.8018">
        <ele>412.9</ele>
        <time>2016-08-27T09:58:28Z</time>
      </trkpt>
      <trkpt lat="44.08382" lon="1.80184">
        <ele>412.7</ele>
        <time>2016-08-27T09:58:29Z</time>
      </trkpt>
      <trkpt lat="44.0839" lon="1.80187">
        <ele>412.4</ele>
        <time>2016-08-27T09:58:30Z</time>
      </trkpt>
      <trkpt lat="44.08397" lon="1.80189">
        <ele>412.1</ele>
        <time>2016-08-27T09:58:31Z</time>
      </trkpt>
      <trkpt lat="44.08403" lon="1.8019">
        <ele>411.9</ele>
        <time>2016-08-27T09:58:32Z</time>
      </trkpt>
      <trkpt lat="44.0841" lon="1.80191">
        <ele>411.6</ele>
        <time>2016-08-27T09:58:33Z</time>
      </trkpt>
      <trkpt lat="44.08415" lon="1.80193">
        <ele>411.5</ele>
        <time>2016-08-27T09:58:34Z</time>
      </trkpt>
      <trkpt lat="44.0842" lon="1.80195">
        <ele>411.4</ele>
        <time>2016-08-27T09:58:35Z</time>
      </trkpt>
      <trkpt lat="44.08427" lon="1.80195">
        <ele>411.1</ele>
        <time>2016-08-27T09:58:36Z</time>
      </trkpt>
      <trkpt lat="44.08433" lon="1.80196">
        <ele>410.9</ele>
        <time>2016-08-27T09:58:37Z</time>
      </trkpt>
      <trkpt lat="44.08437" lon="1.80198">
        <ele>410.9</ele>
        <time>2016-08-27T09:58:38Z</time>
      </trkpt>
      <trkpt lat="44.08444" lon="1.80198">
        <ele>410.6</ele>
        <time>2016-08-27T09:58:39Z</time>
      </trkpt>
      <trkpt lat="44.08451" lon="1.80201">
        <ele>410.5</ele>
        <time>2016-08-27T09:58:40Z</time>
      </trkpt>
      <trkpt lat="44.08456" lon="1.80202">
        <ele>410.4</ele>
        <time>2016-08-27T09:58:41Z</time>
      </trkpt>
      <trkpt lat="44.0846" lon="1.80202">
        <ele>410.3</ele>
        <time>2016-08-27T09:58:42Z</time>
      </trkpt>
      <trkpt lat="44.08469" lon="1.802">
        <ele>409.7</ele>
        <time>2016-08-27T09:58:43Z</time>
      </trkpt>
      <trkpt lat="44.08474" lon="1.802">
        <ele>409.5</ele>
        <time>2016-08-27T09:58:44Z</time>
      </trkpt>
      <trkpt lat="44.08482" lon="1.802">
        <ele>409.2</ele>
        <time>2016-08-27T09:58:45Z</time>
      </trkpt>
      <trkpt lat="44.08486" lon="1.802">
        <ele>409.1</ele>
        <time>2016-08-27T09:58:46Z</time>
      </trkpt>
      <trkpt lat="44.0849" lon="1.80206">
        <ele>409.6</ele>
        <time>2016-08-27T09:58:47Z</time>
      </trkpt>
      <trkpt lat="44.08494" lon="1.80209">
        <ele>409.7</ele>
        <time>2016-08-27T09:58:48Z</time>
      </trkpt>
      <trkpt lat="44.08503" lon="1.80209">
        <ele>409.4</ele>
        <time>2016-08-27T09:58:49Z</time>
      </trkpt>
      <trkpt lat="44.08511" lon="1.80209">
        <ele>409.2</ele>
        <time>2016-08-27T09:58:50Z</time>
      </trkpt>
      <trkpt lat="44.08517" lon="1.80209">
        <ele>408.9</ele>
        <time>2016-08-27T09:58:51Z</time>
      </trkpt>
      <trkpt lat="44.08524" lon="1.80207">
        <ele>408.4</ele>
        <time>2016-08-27T09:58:52Z</time>
      </trkpt>
      <trkpt lat="44.08532" lon="1.80207">
        <ele>408.2</ele>
        <time>2016-08-27T09:58:53Z</time>
      </trkpt>
      <trkpt lat="44.0854" lon="1.80208">
        <ele>408</ele>
        <time>2016-08-27T09:58:54Z</time>
      </trkpt>
      <trkpt lat="44.08545" lon="1.80208">
        <ele>407.9</ele>
        <time>2016-08-27T09:58:55Z</time>
      </trkpt>
      <trkpt lat="44.08553" lon="1.80208">
        <ele>407.7</ele>
        <time>2016-08-27T09:58:56Z</time>
      </trkpt>
      <trkpt lat="44.08563" lon="1.80212">
        <ele>407.8</ele>
        <time>2016-08-27T09:58:58Z</time>
      </trkpt>
      <trkpt lat="44.08568" lon="1.80212">
        <ele>407.7</ele>
        <time>2016-08-27T09:58:59Z</time>
      </trkpt>
      <trkpt lat="44.08573" lon="1.80217">
        <ele>407.9</ele>
        <time>2016-08-27T09:59:00Z</time>
      </trkpt>
      <trkpt lat="44.08577" lon="1.80221">
        <ele>408.1</ele>
        <time>2016-08-27T09:59:01Z</time>
      </trkpt>
      <trkpt lat="44.08582" lon="1.80229">
        <ele>408.5</ele>
        <time>2016-08-27T09:59:02Z</time>
      </trkpt>
      <trkpt lat="44.08585" lon="1.80235">
        <ele>408.8</ele>
        <time>2016-08-27T09:59:03Z</time>
      </trkpt>
      <trkpt lat="44.08589" lon="1.80241">
        <ele>409.1</ele>
        <time>2016-08-27T09:59:04Z</time>
      </trkpt>
      <trkpt lat="44.08588" lon="1.8025">
        <ele>409.8</ele>
        <time>2016-08-27T09:59:05Z</time>
      </trkpt>
      <trkpt lat="44.0859" lon="1.80258">
        <ele>410.2</ele>
        <time>2016-08-27T09:59:06Z</time>
      </trkpt>
      <trkpt lat="44.08587" lon="1.80269">
        <ele>411.2</ele>
        <time>2016-08-27T09:59:07Z</time>
      </trkpt>
      <trkpt lat="44.08586" lon="1.80279">
        <ele>411.9</ele>
        <time>2016-08-27T09:59:08Z</time>
      </trkpt>
      <trkpt lat="44.08583" lon="1.80287">
        <ele>412.7</ele>
        <time>2016-08-27T09:59:09Z</time>
      </trkpt>
      <trkpt lat="44.08582" lon="1.80297">
        <ele>413.1</ele>
        <time>2016-08-27T09:59:10Z</time>
      </trkpt>
      <trkpt lat="44.08578" lon="1.80306">
        <ele>413.3</ele>
        <time>2016-08-27T09:59:11Z</time>
      </trkpt>
      <trkpt lat="44.08576" lon="1.80313">
        <ele>413.5</ele>
        <time>2016-08-27T09:59:12Z</time>
      </trkpt>
      <trkpt lat="44.08574" lon="1.8032">
        <ele>413.7</ele>
        <time>2016-08-27T09:59:13Z</time>
      </trkpt>
      <trkpt lat="44.08569" lon="1.80328">
        <ele>414.2</ele>
        <time>2016-08-27T09:59:14Z</time>
      </trkpt>
      <trkpt lat="44.08565" lon="1.80337">
        <ele>414.7</ele>
        <time>2016-08-27T09:59:15Z</time>
      </trkpt>
      <trkpt lat="44.08564" lon="1.80345">
        <ele>414.8</ele>
        <time>2016-08-27T09:59:16Z</time>
      </trkpt>
      <trkpt lat="44.08559" lon="1.80357">
        <ele>415.6</ele>
        <time>2016-08-27T09:59:17Z</time>
      </trkpt>
      <trkpt lat="44.08555" lon="1.80366">
        <ele>416.1</ele>
        <time>2016-08-27T09:59:18Z</time>
      </trkpt>
      <trkpt lat="44.08555" lon="1.80373">
        <ele>416.2</ele>
        <time>2016-08-27T09:59:19Z</time>
      </trkpt>
      <trkpt lat="44.08553" lon="1.80381">
        <ele>416.2</ele>
        <time>2016-08-27T09:59:20Z</time>
      </trkpt>
      <trkpt lat="44.08553" lon="1.8039">
        <ele>416</ele>
        <time>2016-08-27T09:59:21Z</time>
      </trkpt>
      <trkpt lat="44.0855" lon="1.80402">
        <ele>416</ele>
        <time>2016-08-27T09:59:22Z</time>
      </trkpt>
      <trkpt lat="44.08546" lon="1.80411">
        <ele>416.2</ele>
        <time>2016-08-27T09:59:23Z</time>
      </trkpt>
      <trkpt lat="44.08543" lon="1.8042">
        <ele>416.2</ele>
        <time>2016-08-27T09:59:24Z</time>
      </trkpt>
      <trkpt lat="44.08539" lon="1.80427">
        <ele>416.3</ele>
        <time>2016-08-27T09:59:25Z</time>
      </trkpt>
      <trkpt lat="44.08536" lon="1.80435">
        <ele>416.4</ele>
        <time>2016-08-27T09:59:26Z</time>
      </trkpt>
      <trkpt lat="44.08532" lon="1.80441">
        <ele>416.6</ele>
        <time>2016-08-27T09:59:27Z</time>
      </trkpt>
      <trkpt lat="44.08531" lon="1.80459">
        <ele>416.1</ele>
        <time>2016-08-27T09:59:29Z</time>
      </trkpt>
      <trkpt lat="44.08528" lon="1.80467">
        <ele>415.6</ele>
        <time>2016-08-27T09:59:30Z</time>
      </trkpt>
      <trkpt lat="44.08522" lon="1.80476">
        <ele>415.4</ele>
        <time>2016-08-27T09:59:31Z</time>
      </trkpt>
      <trkpt lat="44.08519" lon="1.80485">
        <ele>414.7</ele>
        <time>2016-08-27T09:59:32Z</time>
      </trkpt>
      <trkpt lat="44.08516" lon="1.80494">
        <ele>414.1</ele>
        <time>2016-08-27T09:59:33Z</time>
      </trkpt>
      <trkpt lat="44.08513" lon="1.80504">
        <ele>413.4</ele>
        <time>2016-08-27T09:59:34Z</time>
      </trkpt>
      <trkpt lat="44.0851" lon="1.80514">
        <ele>412.6</ele>
        <time>2016-08-27T09:59:35Z</time>
      </trkpt>
      <trkpt lat="44.08506" lon="1.80523">
        <ele>412</ele>
        <time>2016-08-27T09:59:36Z</time>
      </trkpt>
      <trkpt lat="44.08505" lon="1.80534">
        <ele>411</ele>
        <time>2016-08-27T09:59:37Z</time>
      </trkpt>
      <trkpt lat="44.08502" lon="1.80543">
        <ele>410.2</ele>
        <time>2016-08-27T09:59:38Z</time>
      </trkpt>
      <trkpt lat="44.08499" lon="1.80551">
        <ele>409.8</ele>
        <time>2016-08-27T09:59:39Z</time>
      </trkpt>
      <trkpt lat="44.08498" lon="1.8056">
        <ele>409.2</ele>
        <time>2016-08-27T09:59:40Z</time>
      </trkpt>
      <trkpt lat="44.08499" lon="1.80567">
        <ele>408.5</ele>
        <time>2016-08-27T09:59:41Z</time>
      </trkpt>
      <trkpt lat="44.08501" lon="1.80577">
        <ele>407.5</ele>
        <time>2016-08-27T09:59:42Z</time>
      </trkpt>
      <trkpt lat="44.08502" lon="1.80584">
        <ele>406.8</ele>
        <time>2016-08-27T09:59:43Z</time>
      </trkpt>
      <trkpt lat="44.08502" lon="1.80589">
        <ele>406.4</ele>
        <time>2016-08-27T09:59:44Z</time>
      </trkpt>
      <trkpt lat="44.08505" lon="1.80597">
        <ele>405.6</ele>
        <time>2016-08-27T09:59:45Z</time>
      </trkpt>
      <trkpt lat="44.0851" lon="1.80605">
        <ele>404.7</ele>
        <time>2016-08-27T09:59:46Z</time>
      </trkpt>
      <trkpt lat="44.08515" lon="1.80611">
        <ele>404</ele>
        <time>2016-08-27T09:59:47Z</time>
      </trkpt>
      <trkpt lat="44.08519" lon="1.80618">
        <ele>403.4</ele>
        <time>2016-08-27T09:59:48Z</time>
      </trkpt>
      <trkpt lat="44.08524" lon="1.80623">
        <ele>402.8</ele>
        <time>2016-08-27T09:59:49Z</time>
      </trkpt>
      <trkpt lat="44.0853" lon="1.80628">
        <ele>402.5</ele>
        <time>2016-08-27T09:59:50Z</time>
      </trkpt>
      <trkpt lat="44.08532" lon="1.80632">
        <ele>402.6</ele>
        <time>2016-08-27T09:59:51Z</time>
      </trkpt>
      <trkpt lat="44.08538" lon="1.80637">
        <ele>402.6</ele>
        <time>2016-08-27T09:59:52Z</time>
      </trkpt>
      <trkpt lat="44.08545" lon="1.80639">
        <ele>402.6</ele>
        <time>2016-08-27T09:59:53Z</time>
      </trkpt>
      <trkpt lat="44.08554" lon="1.80642">
        <ele>402.8</ele>
        <time>2016-08-27T09:59:54Z</time>
      </trkpt>
      <trkpt lat="44.08559" lon="1.80643">
        <ele>403</ele>
        <time>2016-08-27T09:59:55Z</time>
      </trkpt>
      <trkpt lat="44.08565" lon="1.80645">
        <ele>403.1</ele>
        <time>2016-08-27T09:59:56Z</time>
      </trkpt>
      <trkpt lat="44.0857" lon="1.80644">
        <ele>403.2</ele>
        <time>2016-08-27T09:59:57Z</time>
      </trkpt>
      <trkpt lat="44.08578" lon="1.80645">
        <ele>403.4</ele>
        <time>2016-08-27T09:59:58Z</time>
      </trkpt>
      <trkpt lat="44.08587" lon="1.80645">
        <ele>403.5</ele>
        <time>2016-08-27T09:59:59Z</time>
      </trkpt>
      <trkpt lat="44.08595" lon="1.80645">
        <ele>403.7</ele>
        <time>2016-08-27T10:00:00Z</time>
      </trkpt>
      <trkpt lat="44.08602" lon="1.80645">
        <ele>403.8</ele>
        <time>2016-08-27T10:00:01Z</time>
      </trkpt>
      <trkpt lat="44.08606" lon="1.80642">
        <ele>403.7</ele>
        <time>2016-08-27T10:00:02Z</time>
      </trkpt>
      <trkpt lat="44.08611" lon="1.8064">
        <ele>403.7</ele>
        <time>2016-08-27T10:00:03Z</time>
      </trkpt>
      <trkpt lat="44.0862" lon="1.80641">
        <ele>403.9</ele>
        <time>2016-08-27T10:00:05Z</time>
      </trkpt>
      <trkpt lat="44.08625" lon="1.80638">
        <ele>403.8</ele>
        <time>2016-08-27T10:00:06Z</time>
      </trkpt>
      <trkpt lat="44.0863" lon="1.80636">
        <ele>403.8</ele>
        <time>2016-08-27T10:00:07Z</time>
      </trkpt>
      <trkpt lat="44.08635" lon="1.80634">
        <ele>403.8</ele>
        <time>2016-08-27T10:00:08Z</time>
      </trkpt>
      <trkpt lat="44.0864" lon="1.80631">
        <ele>403.7</ele>
        <time>2016-08-27T10:00:09Z</time>
      </trkpt>
      <trkpt lat="44.08644" lon="1.80629">
        <ele>403.7</ele>
        <time>2016-08-27T10:00:10Z</time>
      </trkpt>
      <trkpt lat="44.08651" lon="1.80631">
        <ele>404.1</ele>
        <time>2016-08-27T10:00:11Z</time>
      </trkpt>
      <trkpt lat="44.08656" lon="1.80628">
        <ele>403.9</ele>
        <time>2016-08-27T10:00:12Z</time>
      </trkpt>
      <trkpt lat="44.08662" lon="1.80627">
        <ele>404</ele>
        <time>2016-08-27T10:00:13Z</time>
      </trkpt>
      <trkpt lat="44.08668" lon="1.80624">
        <ele>403.9</ele>
        <time>2016-08-27T10:00:15Z</time>
      </trkpt>
      <trkpt lat="44.08674" lon="1.80619">
        <ele>403.8</ele>
        <time>2016-08-27T10:00:16Z</time>
      </trkpt>
      <trkpt lat="44.0868" lon="1.80617">
        <ele>403.8</ele>
        <time>2016-08-27T10:00:17Z</time>
      </trkpt>
      <trkpt lat="44.08684" lon="1.80615">
        <ele>403.7</ele>
        <time>2016-08-27T10:00:18Z</time>
      </trkpt>
      <trkpt lat="44.08686" lon="1.80609">
        <ele>403.4</ele>
        <time>2016-08-27T10:00:20Z</time>
      </trkpt>
      <trkpt lat="44.08698" lon="1.8061">
        <ele>403.6</ele>
        <time>2016-08-27T10:00:21Z</time>
      </trkpt>
      <trkpt lat="44.08705" lon="1.80608">
        <ele>403.5</ele>
        <time>2016-08-27T10:00:22Z</time>
      </trkpt>
      <trkpt lat="44.0871" lon="1.80607">
        <ele>403.5</ele>
        <time>2016-08-27T10:00:23Z</time>
      </trkpt>
      <trkpt lat="44.08716" lon="1.80604">
        <ele>403.5</ele>
        <time>2016-08-27T10:00:24Z</time>
      </trkpt>
      <trkpt lat="44.08723" lon="1.80602">
        <ele>403.6</ele>
        <time>2016-08-27T10:00:25Z</time>
      </trkpt>
      <trkpt lat="44.08729" lon="1.80599">
        <ele>403.6</ele>
        <time>2016-08-27T10:00:26Z</time>
      </trkpt>
      <trkpt lat="44.08735" lon="1.80595">
        <ele>403.5</ele>
        <time>2016-08-27T10:00:27Z</time>
      </trkpt>
      <trkpt lat="44.08746" lon="1.80595">
        <ele>403.8</ele>
        <time>2016-08-27T10:00:29Z</time>
      </trkpt>
      <trkpt lat="44.0875" lon="1.80594">
        <ele>403.9</ele>
        <time>2016-08-27T10:00:30Z</time>
      </trkpt>
      <trkpt lat="44.08754" lon="1.80591">
        <ele>403.8</ele>
        <time>2016-08-27T10:00:31Z</time>
      </trkpt>
      <trkpt lat="44.08759" lon="1.80586">
        <ele>403.6</ele>
        <time>2016-08-27T10:00:32Z</time>
      </trkpt>
      <trkpt lat="44.08764" lon="1.80583">
        <ele>403.5</ele>
        <time>2016-08-27T10:00:33Z</time>
      </trkpt>
      <trkpt lat="44.08768" lon="1.80582">
        <ele>403.5</ele>
        <time>2016-08-27T10:00:34Z</time>
      </trkpt>
      <trkpt lat="44.08773" lon="1.80577">
        <ele>403.3</ele>
        <time>2016-08-27T10:00:35Z</time>
      </trkpt>
      <trkpt lat="44.08778" lon="1.80573">
        <ele>403.2</ele>
        <time>2016-08-27T10:00:37Z</time>
      </trkpt>
      <trkpt lat="44.08786" lon="1.80569">
        <ele>403.1</ele>
        <time>2016-08-27T10:00:39Z</time>
      </trkpt>
      <trkpt lat="44.08791" lon="1.80565">
        <ele>402.9</ele>
        <time>2016-08-27T10:00:40Z</time>
      </trkpt>
      <trkpt lat="44.08797" lon="1.80563">
        <ele>403.2</ele>
        <time>2016-08-27T10:00:41Z</time>
      </trkpt>
      <trkpt lat="44.08802" lon="1.80561">
        <ele>403.5</ele>
        <time>2016-08-27T10:00:42Z</time>
      </trkpt>
      <trkpt lat="44.08807" lon="1.8056">
        <ele>403.8</ele>
        <time>2016-08-27T10:00:43Z</time>
      </trkpt>
      <trkpt lat="44.08812" lon="1.80559">
        <ele>404.1</ele>
        <time>2016-08-27T10:00:44Z</time>
      </trkpt>
      <trkpt lat="44.08817" lon="1.80557">
        <ele>404.4</ele>
        <time>2016-08-27T10:00:45Z</time>
      </trkpt>
      <trkpt lat="44.08827" lon="1.80554">
        <ele>404.9</ele>
        <time>2016-08-27T10:00:47Z</time>
      </trkpt>
      <trkpt lat="44.0883" lon="1.80555">
        <ele>405.2</ele>
        <time>2016-08-27T10:00:48Z</time>
      </trkpt>
      <trkpt lat="44.08833" lon="1.80554">
        <ele>405.4</ele>
        <time>2016-08-27T10:00:49Z</time>
      </trkpt>
      <trkpt lat="44.08838" lon="1.80555">
        <ele>405.9</ele>
        <time>2016-08-27T10:00:50Z</time>
      </trkpt>
      <trkpt lat="44.08842" lon="1.80552">
        <ele>406</ele>
        <time>2016-08-27T10:00:51Z</time>
      </trkpt>
      <trkpt lat="44.08848" lon="1.8055">
        <ele>406.3</ele>
        <time>2016-08-27T10:00:52Z</time>
      </trkpt>
      <trkpt lat="44.08851" lon="1.8055">
        <ele>406.6</ele>
        <time>2016-08-27T10:00:53Z</time>
      </trkpt>
      <trkpt lat="44.08854" lon="1.8055">
        <ele>406.9</ele>
        <time>2016-08-27T10:00:54Z</time>
      </trkpt>
      <trkpt lat="44.08858" lon="1.80548">
        <ele>407</ele>
        <time>2016-08-27T10:00:55Z</time>
      </trkpt>
      <trkpt lat="44.08862" lon="1.80547">
        <ele>407.2</ele>
        <time>2016-08-27T10:00:56Z</time>
      </trkpt>
      <trkpt lat="44.08867" lon="1.80547">
        <ele>407.6</ele>
        <time>2016-08-27T10:00:57Z</time>
      </trkpt>
      <trkpt lat="44.0887" lon="1.80547">
        <ele>408</ele>
        <time>2016-08-27T10:00:58Z</time>
      </trkpt>
      <trkpt lat="44.08874" lon="1.80546">
        <ele>408.2</ele>
        <time>2016-08-27T10:00:59Z</time>
      </trkpt>
      <trkpt lat="44.08878" lon="1.80545">
        <ele>408.3</ele>
        <time>2016-08-27T10:01:00Z</time>
      </trkpt>
      <trkpt lat="44.08882" lon="1.80544">
        <ele>408.3</ele>
        <time>2016-08-27T10:01:01Z</time>
      </trkpt>
      <trkpt lat="44.08886" lon="1.80543">
        <ele>408.4</ele>
        <time>2016-08-27T10:01:02Z</time>
      </trkpt>
      <trkpt lat="44.08891" lon="1.80543">
        <ele>408.5</ele>
        <time>2016-08-27T10:01:03Z</time>
      </trkpt>
      <trkpt lat="44.08898" lon="1.80544">
        <ele>408.7</ele>
        <time>2016-08-27T10:01:04Z</time>
      </trkpt>
      <trkpt lat="44.08902" lon="1.80543">
        <ele>408.7</ele>
        <time>2016-08-27T10:01:05Z</time>
      </trkpt>
      <trkpt lat="44.08906" lon="1.80545">
        <ele>408.9</ele>
        <time>2016-08-27T10:01:06Z</time>
      </trkpt>
      <trkpt lat="44.0891" lon="1.80547">
        <ele>409.2</ele>
        <time>2016-08-27T10:01:07Z</time>
      </trkpt>
      <trkpt lat="44.08914" lon="1.80548">
        <ele>409.3</ele>
        <time>2016-08-27T10:01:08Z</time>
      </trkpt>
      <trkpt lat="44.08917" lon="1.80546">
        <ele>409.3</ele>
        <time>2016-08-27T10:01:09Z</time>
      </trkpt>
      <trkpt lat="44.0892" lon="1.80548">
        <ele>409.5</ele>
        <time>2016-08-27T10:01:10Z</time>
      </trkpt>
      <trkpt lat="44.08923" lon="1.8055">
        <ele>409.6</ele>
        <time>2016-08-27T10:01:11Z</time>
      </trkpt>
      <trkpt lat="44.08926" lon="1.8055">
        <ele>409.7</ele>
        <time>2016-08-27T10:01:12Z</time>
      </trkpt>
      <trkpt lat="44.0893" lon="1.80554">
        <ele>410</ele>
        <time>2016-08-27T10:01:14Z</time>
      </trkpt>
      <trkpt lat="44.08932" lon="1.80555">
        <ele>410.1</ele>
        <time>2016-08-27T10:01:15Z</time>
      </trkpt>
      <trkpt lat="44.08937" lon="1.80555">
        <ele>410.2</ele>
        <time>2016-08-27T10:01:16Z</time>
      </trkpt>
      <trkpt lat="44.08939" lon="1.80553">
        <ele>410.1</ele>
        <time>2016-08-27T10:01:17Z</time>
      </trkpt>
      <trkpt lat="44.08943" lon="1.80552">
        <ele>410.2</ele>
        <time>2016-08-27T10:01:19Z</time>
      </trkpt>
      <trkpt lat="44.08949" lon="1.80552">
        <ele>410.3</ele>
        <time>2016-08-27T10:01:21Z</time>
      </trkpt>
      <trkpt lat="44.08952" lon="1.80552">
        <ele>410.4</ele>
        <time>2016-08-27T10:01:22Z</time>
      </trkpt>
      <trkpt lat="44.08955" lon="1.80553">
        <ele>410.5</ele>
        <time>2016-08-27T10:01:23Z</time>
      </trkpt>
      <trkpt lat="44.08958" lon="1.80554">
        <ele>410.6</ele>
        <time>2016-08-27T10:01:24Z</time>
      </trkpt>
      <trkpt lat="44.08961" lon="1.80555">
        <ele>410.6</ele>
        <time>2016-08-27T10:01:25Z</time>
      </trkpt>
      <trkpt lat="44.08964" lon="1.80556">
        <ele>410.7</ele>
        <time>2016-08-27T10:01:26Z</time>
      </trkpt>
      <trkpt lat="44.08967" lon="1.80557">
        <ele>410.8</ele>
        <time>2016-08-27T10:01:27Z</time>
      </trkpt>
      <trkpt lat="44.08974" lon="1.8056">
        <ele>410.9</ele>
        <time>2016-08-27T10:01:28Z</time>
      </trkpt>
      <trkpt lat="44.08977" lon="1.80562">
        <ele>411</ele>
        <time>2016-08-27T10:01:29Z</time>
      </trkpt>
      <trkpt lat="44.08982" lon="1.80564">
        <ele>411.1</ele>
        <time>2016-08-27T10:01:30Z</time>
      </trkpt>
      <trkpt lat="44.08986" lon="1.80565">
        <ele>411.2</ele>
        <time>2016-08-27T10:01:31Z</time>
      </trkpt>
      <trkpt lat="44.08991" lon="1.80567">
        <ele>411.2</ele>
        <time>2016-08-27T10:01:32Z</time>
      </trkpt>
      <trkpt lat="44.08995" lon="1.80569">
        <ele>411.3</ele>
        <time>2016-08-27T10:01:33Z</time>
      </trkpt>
      <trkpt lat="44.08997" lon="1.80572">
        <ele>411.4</ele>
        <time>2016-08-27T10:01:34Z</time>
      </trkpt>
      <trkpt lat="44.08997" lon="1.80576">
        <ele>411.5</ele>
        <time>2016-08-27T10:01:35Z</time>
      </trkpt>
      <trkpt lat="44.08999" lon="1.80582">
        <ele>411.7</ele>
        <time>2016-08-27T10:01:36Z</time>
      </trkpt>
      <trkpt lat="44.09002" lon="1.80587">
        <ele>411.9</ele>
        <time>2016-08-27T10:01:37Z</time>
      </trkpt>
      <trkpt lat="44.09005" lon="1.80591">
        <ele>411.9</ele>
        <time>2016-08-27T10:01:38Z</time>
      </trkpt>
      <trkpt lat="44.09011" lon="1.80592">
        <ele>411.9</ele>
        <time>2016-08-27T10:01:39Z</time>
      </trkpt>
      <trkpt lat="44.09017" lon="1.80593">
        <ele>411.9</ele>
        <time>2016-08-27T10:01:40Z</time>
      </trkpt>
      <trkpt lat="44.09023" lon="1.80592">
        <ele>411.8</ele>
        <time>2016-08-27T10:01:41Z</time>
      </trkpt>
      <trkpt lat="44.09027" lon="1.80594">
        <ele>411.8</ele>
        <time>2016-08-27T10:01:42Z</time>
      </trkpt>
      <trkpt lat="44.09032" lon="1.80596">
        <ele>411.8</ele>
        <time>2016-08-27T10:01:43Z</time>
      </trkpt>
      <trkpt lat="44.09033" lon="1.80599">
        <ele>411.8</ele>
        <time>2016-08-27T10:01:44Z</time>
      </trkpt>
      <trkpt lat="44.09037" lon="1.80603">
        <ele>411.8</ele>
        <time>2016-08-27T10:01:45Z</time>
      </trkpt>
      <trkpt lat="44.09042" lon="1.80606">
        <ele>411.8</ele>
        <time>2016-08-27T10:01:46Z</time>
      </trkpt>
      <trkpt lat="44.09049" lon="1.80609">
        <ele>411.3</ele>
        <time>2016-08-27T10:01:47Z</time>
      </trkpt>
      <trkpt lat="44.09052" lon="1.80611">
        <ele>411.2</ele>
        <time>2016-08-27T10:01:48Z</time>
      </trkpt>
      <trkpt lat="44.09068" lon="1.80617">
        <ele>410.4</ele>
        <time>2016-08-27T10:01:50Z</time>
      </trkpt>
      <trkpt lat="44.09076" lon="1.8062">
        <ele>410.1</ele>
        <time>2016-08-27T10:01:51Z</time>
      </trkpt>
      <trkpt lat="44.09085" lon="1.80624">
        <ele>409.9</ele>
        <time>2016-08-27T10:01:52Z</time>
      </trkpt>
      <trkpt lat="44.09094" lon="1.80627">
        <ele>409.5</ele>
        <time>2016-08-27T10:01:53Z</time>
      </trkpt>
      <trkpt lat="44.0911" lon="1.80634">
        <ele>408.9</ele>
        <time>2016-08-27T10:01:55Z</time>
      </trkpt>
      <trkpt lat="44.09118" lon="1.8064">
        <ele>408.8</ele>
        <time>2016-08-27T10:01:56Z</time>
      </trkpt>
      <trkpt lat="44.09136" lon="1.80655">
        <ele>407.7</ele>
        <time>2016-08-27T10:01:58Z</time>
      </trkpt>
      <trkpt lat="44.09145" lon="1.80664">
        <ele>407.1</ele>
        <time>2016-08-27T10:01:59Z</time>
      </trkpt>
      <trkpt lat="44.09155" lon="1.80672">
        <ele>406.3</ele>
        <time>2016-08-27T10:02:00Z</time>
      </trkpt>
      <trkpt lat="44.09162" lon="1.8068">
        <ele>406.1</ele>
        <time>2016-08-27T10:02:01Z</time>
      </trkpt>
      <trkpt lat="44.0917" lon="1.80687">
        <ele>405.8</ele>
        <time>2016-08-27T10:02:02Z</time>
      </trkpt>
      <trkpt lat="44.09178" lon="1.80695">
        <ele>405.5</ele>
        <time>2016-08-27T10:02:03Z</time>
      </trkpt>
      <trkpt lat="44.09189" lon="1.80702">
        <ele>405.1</ele>
        <time>2016-08-27T10:02:04Z</time>
      </trkpt>
      <trkpt lat="44.09197" lon="1.8071">
        <ele>405</ele>
        <time>2016-08-27T10:02:05Z</time>
      </trkpt>
      <trkpt lat="44.09209" lon="1.8072">
        <ele>404.3</ele>
        <time>2016-08-27T10:02:06Z</time>
      </trkpt>
      <trkpt lat="44.09217" lon="1.80726">
        <ele>403.4</ele>
        <time>2016-08-27T10:02:07Z</time>
      </trkpt>
      <trkpt lat="44.09227" lon="1.80734">
        <ele>402.2</ele>
        <time>2016-08-27T10:02:08Z</time>
      </trkpt>
      <trkpt lat="44.09238" lon="1.8074">
        <ele>400.9</ele>
        <time>2016-08-27T10:02:09Z</time>
      </trkpt>
      <trkpt lat="44.0925" lon="1.80745">
        <ele>399.6</ele>
        <time>2016-08-27T10:02:10Z</time>
      </trkpt>
      <trkpt lat="44.09261" lon="1.8075">
        <ele>398.2</ele>
        <time>2016-08-27T10:02:11Z</time>
      </trkpt>
      <trkpt lat="44.09274" lon="1.80754">
        <ele>396.7</ele>
        <time>2016-08-27T10:02:12Z</time>
      </trkpt>
      <trkpt lat="44.09286" lon="1.80755">
        <ele>395.1</ele>
        <time>2016-08-27T10:02:13Z</time>
      </trkpt>
      <trkpt lat="44.09298" lon="1.80751">
        <ele>393.6</ele>
        <time>2016-08-27T10:02:14Z</time>
      </trkpt>
      <trkpt lat="44.09309" lon="1.80748">
        <ele>392.4</ele>
        <time>2016-08-27T10:02:15Z</time>
      </trkpt>
      <trkpt lat="44.09322" lon="1.8074">
        <ele>390.5</ele>
        <time>2016-08-27T10:02:16Z</time>
      </trkpt>
      <trkpt lat="44.09335" lon="1.8073">
        <ele>388.5</ele>
        <time>2016-08-27T10:02:17Z</time>
      </trkpt>
      <trkpt lat="44.09348" lon="1.80723">
        <ele>386.5</ele>
        <time>2016-08-27T10:02:18Z</time>
      </trkpt>
      <trkpt lat="44.09362" lon="1.80715">
        <ele>384.2</ele>
        <time>2016-08-27T10:02:19Z</time>
      </trkpt>
      <trkpt lat="44.09374" lon="1.80707">
        <ele>381.9</ele>
        <time>2016-08-27T10:02:20Z</time>
      </trkpt>
      <trkpt lat="44.09387" lon="1.80701">
        <ele>380.8</ele>
        <time>2016-08-27T10:02:21Z</time>
      </trkpt>
      <trkpt lat="44.09402" lon="1.80697">
        <ele>380</ele>
        <time>2016-08-27T10:02:22Z</time>
      </trkpt>
      <trkpt lat="44.09417" lon="1.80695">
        <ele>379.5</ele>
        <time>2016-08-27T10:02:23Z</time>
      </trkpt>
      <trkpt lat="44.0943" lon="1.80695">
        <ele>379.1</ele>
        <time>2016-08-27T10:02:24Z</time>
      </trkpt>
      <trkpt lat="44.09445" lon="1.80693">
        <ele>378.6</ele>
        <time>2016-08-27T10:02:25Z</time>
      </trkpt>
      <trkpt lat="44.09459" lon="1.80688">
        <ele>377.8</ele>
        <time>2016-08-27T10:02:26Z</time>
      </trkpt>
      <trkpt lat="44.09473" lon="1.80682">
        <ele>376.8</ele>
        <time>2016-08-27T10:02:27Z</time>
      </trkpt>
      <trkpt lat="44.09486" lon="1.80675">
        <ele>375.7</ele>
        <time>2016-08-27T10:02:28Z</time>
      </trkpt>
      <trkpt lat="44.095" lon="1.80665">
        <ele>374.3</ele>
        <time>2016-08-27T10:02:29Z</time>
      </trkpt>
      <trkpt lat="44.0951" lon="1.80651">
        <ele>372.6</ele>
        <time>2016-08-27T10:02:30Z</time>
      </trkpt>
      <trkpt lat="44.09523" lon="1.80641">
        <ele>371.2</ele>
        <time>2016-08-27T10:02:31Z</time>
      </trkpt>
      <trkpt lat="44.09535" lon="1.80628">
        <ele>369.5</ele>
        <time>2016-08-27T10:02:32Z</time>
      </trkpt>
      <trkpt lat="44.09549" lon="1.80618">
        <ele>368</ele>
        <time>2016-08-27T10:02:33Z</time>
      </trkpt>
      <trkpt lat="44.09563" lon="1.80607">
        <ele>366.4</ele>
        <time>2016-08-27T10:02:34Z</time>
      </trkpt>
      <trkpt lat="44.09576" lon="1.80596">
        <ele>364.7</ele>
        <time>2016-08-27T10:02:35Z</time>
      </trkpt>
      <trkpt lat="44.09589" lon="1.80586">
        <ele>363</ele>
        <time>2016-08-27T10:02:36Z</time>
      </trkpt>
      <trkpt lat="44.09603" lon="1.80575">
        <ele>361.1</ele>
        <time>2016-08-27T10:02:37Z</time>
      </trkpt>
      <trkpt lat="44.09616" lon="1.80563">
        <ele>359.1</ele>
        <time>2016-08-27T10:02:38Z</time>
      </trkpt>
      <trkpt lat="44.09628" lon="1.80551">
        <ele>357.1</ele>
        <time>2016-08-27T10:02:39Z</time>
      </trkpt>
      <trkpt lat="44.09639" lon="1.80538">
        <ele>356.1</ele>
        <time>2016-08-27T10:02:40Z</time>
      </trkpt>
      <trkpt lat="44.09648" lon="1.80497">
        <ele>354</ele>
        <time>2016-08-27T10:02:42Z</time>
      </trkpt>
      <trkpt lat="44.09653" lon="1.80478">
        <ele>353.4</ele>
        <time>2016-08-27T10:02:43Z</time>
      </trkpt>
      <trkpt lat="44.09656" lon="1.80459">
        <ele>352.7</ele>
        <time>2016-08-27T10:02:44Z</time>
      </trkpt>
      <trkpt lat="44.09657" lon="1.80439">
        <ele>352.6</ele>
        <time>2016-08-27T10:02:45Z</time>
      </trkpt>
      <trkpt lat="44.09655" lon="1.80416">
        <ele>352</ele>
        <time>2016-08-27T10:02:46Z</time>
      </trkpt>
      <trkpt lat="44.09655" lon="1.80396">
        <ele>351.7</ele>
        <time>2016-08-27T10:02:47Z</time>
      </trkpt>
      <trkpt lat="44.0965" lon="1.80379">
        <ele>350.5</ele>
        <time>2016-08-27T10:02:48Z</time>
      </trkpt>
      <trkpt lat="44.09647" lon="1.8036">
        <ele>349.8</ele>
        <time>2016-08-27T10:02:49Z</time>
      </trkpt>
      <trkpt lat="44.09642" lon="1.8034">
        <ele>348.4</ele>
        <time>2016-08-27T10:02:50Z</time>
      </trkpt>
      <trkpt lat="44.09637" lon="1.80322">
        <ele>347.3</ele>
        <time>2016-08-27T10:02:51Z</time>
      </trkpt>
      <trkpt lat="44.09633" lon="1.80302">
        <ele>346.2</ele>
        <time>2016-08-27T10:02:52Z</time>
      </trkpt>
      <trkpt lat="44.09629" lon="1.80283">
        <ele>344.9</ele>
        <time>2016-08-27T10:02:53Z</time>
      </trkpt>
      <trkpt lat="44.09625" lon="1.80266">
        <ele>344</ele>
        <time>2016-08-27T10:02:54Z</time>
      </trkpt>
      <trkpt lat="44.09619" lon="1.80249">
        <ele>343.4</ele>
        <time>2016-08-27T10:02:55Z</time>
      </trkpt>
      <trkpt lat="44.09615" lon="1.80231">
        <ele>342.9</ele>
        <time>2016-08-27T10:02:56Z</time>
      </trkpt>
      <trkpt lat="44.0961" lon="1.80214">
        <ele>342.2</ele>
        <time>2016-08-27T10:02:57Z</time>
      </trkpt>
      <trkpt lat="44.09606" lon="1.80196">
        <ele>341.4</ele>
        <time>2016-08-27T10:02:58Z</time>
      </trkpt>
      <trkpt lat="44.09603" lon="1.80178">
        <ele>340.6</ele>
        <time>2016-08-27T10:02:59Z</time>
      </trkpt>
      <trkpt lat="44.09598" lon="1.80158">
        <ele>339.4</ele>
        <time>2016-08-27T10:03:00Z</time>
      </trkpt>
      <trkpt lat="44.09598" lon="1.80138">
        <ele>338.8</ele>
        <time>2016-08-27T10:03:01Z</time>
      </trkpt>
      <trkpt lat="44.09599" lon="1.80117">
        <ele>338.2</ele>
        <time>2016-08-27T10:03:02Z</time>
      </trkpt>
      <trkpt lat="44.09598" lon="1.80096">
        <ele>337</ele>
        <time>2016-08-27T10:03:03Z</time>
      </trkpt>
      <trkpt lat="44.09596" lon="1.80077">
        <ele>335.9</ele>
        <time>2016-08-27T10:03:04Z</time>
      </trkpt>
      <trkpt lat="44.09597" lon="1.80058">
        <ele>335.1</ele>
        <time>2016-08-27T10:03:05Z</time>
      </trkpt>
      <trkpt lat="44.09598" lon="1.80038">
        <ele>334.3</ele>
        <time>2016-08-27T10:03:06Z</time>
      </trkpt>
      <trkpt lat="44.09597" lon="1.80018">
        <ele>333.6</ele>
        <time>2016-08-27T10:03:07Z</time>
      </trkpt>
      <trkpt lat="44.096" lon="1.79999">
        <ele>333</ele>
        <time>2016-08-27T10:03:08Z</time>
      </trkpt>
      <trkpt lat="44.09604" lon="1.79983">
        <ele>332.5</ele>
        <time>2016-08-27T10:03:09Z</time>
      </trkpt>
      <trkpt lat="44.09609" lon="1.79966">
        <ele>331.7</ele>
        <time>2016-08-27T10:03:10Z</time>
      </trkpt>
      <trkpt lat="44.09614" lon="1.79947">
        <ele>331.6</ele>
        <time>2016-08-27T10:03:11Z</time>
      </trkpt>
      <trkpt lat="44.09618" lon="1.79927">
        <ele>331.9</ele>
        <time>2016-08-27T10:03:12Z</time>
      </trkpt>
      <trkpt lat="44.09622" lon="1.79908">
        <ele>331.9</ele>
        <time>2016-08-27T10:03:13Z</time>
      </trkpt>
      <trkpt lat="44.09628" lon="1.79889">
        <ele>332</ele>
        <time>2016-08-27T10:03:14Z</time>
      </trkpt>
      <trkpt lat="44.09633" lon="1.7987">
        <ele>332.8</ele>
        <time>2016-08-27T10:03:15Z</time>
      </trkpt>
      <trkpt lat="44.09638" lon="1.79853">
        <ele>334.2</ele>
        <time>2016-08-27T10:03:16Z</time>
      </trkpt>
      <trkpt lat="44.09647" lon="1.79836">
        <ele>335.3</ele>
        <time>2016-08-27T10:03:17Z</time>
      </trkpt>
      <trkpt lat="44.09659" lon="1.79825">
        <ele>335.5</ele>
        <time>2016-08-27T10:03:18Z</time>
      </trkpt>
      <trkpt lat="44.0967" lon="1.79817">
        <ele>335.2</ele>
        <time>2016-08-27T10:03:19Z</time>
      </trkpt>
      <trkpt lat="44.09681" lon="1.79809">
        <ele>334.6</ele>
        <time>2016-08-27T10:03:20Z</time>
      </trkpt>
      <trkpt lat="44.09692" lon="1.79804">
        <ele>333.8</ele>
        <time>2016-08-27T10:03:21Z</time>
      </trkpt>
      <trkpt lat="44.09702" lon="1.798">
        <ele>332.9</ele>
        <time>2016-08-27T10:03:22Z</time>
      </trkpt>
      <trkpt lat="44.09713" lon="1.79801">
        <ele>332.1</ele>
        <time>2016-08-27T10:03:23Z</time>
      </trkpt>
      <trkpt lat="44.09724" lon="1.79803">
        <ele>331.5</ele>
        <time>2016-08-27T10:03:24Z</time>
      </trkpt>
      <trkpt lat="44.09735" lon="1.79806">
        <ele>331</ele>
        <time>2016-08-27T10:03:25Z</time>
      </trkpt>
      <trkpt lat="44.09746" lon="1.79808">
        <ele>330.5</ele>
        <time>2016-08-27T10:03:26Z</time>
      </trkpt>
      <trkpt lat="44.09757" lon="1.79813">
        <ele>330.4</ele>
        <time>2016-08-27T10:03:27Z</time>
      </trkpt>
      <trkpt lat="44.09766" lon="1.79816">
        <ele>330.3</ele>
        <time>2016-08-27T10:03:28Z</time>
      </trkpt>
      <trkpt lat="44.09777" lon="1.79819">
        <ele>330.2</ele>
        <time>2016-08-27T10:03:29Z</time>
      </trkpt>
      <trkpt lat="44.09786" lon="1.79822">
        <ele>330.2</ele>
        <time>2016-08-27T10:03:30Z</time>
      </trkpt>
      <trkpt lat="44.09796" lon="1.79826">
        <ele>330.4</ele>
        <time>2016-08-27T10:03:31Z</time>
      </trkpt>
      <trkpt lat="44.09805" lon="1.79828">
        <ele>330.1</ele>
        <time>2016-08-27T10:03:32Z</time>
      </trkpt>
      <trkpt lat="44.09815" lon="1.79831">
        <ele>329.8</ele>
        <time>2016-08-27T10:03:33Z</time>
      </trkpt>
      <trkpt lat="44.09825" lon="1.79835">
        <ele>329.7</ele>
        <time>2016-08-27T10:03:34Z</time>
      </trkpt>
      <trkpt lat="44.09834" lon="1.79837">
        <ele>329.4</ele>
        <time>2016-08-27T10:03:35Z</time>
      </trkpt>
      <trkpt lat="44.09843" lon="1.7984">
        <ele>329</ele>
        <time>2016-08-27T10:03:36Z</time>
      </trkpt>
      <trkpt lat="44.09853" lon="1.79842">
        <ele>328.7</ele>
        <time>2016-08-27T10:03:37Z</time>
      </trkpt>
      <trkpt lat="44.09861" lon="1.79844">
        <ele>328.3</ele>
        <time>2016-08-27T10:03:38Z</time>
      </trkpt>
      <trkpt lat="44.09869" lon="1.79847">
        <ele>328.1</ele>
        <time>2016-08-27T10:03:39Z</time>
      </trkpt>
      <trkpt lat="44.09875" lon="1.7985">
        <ele>328.1</ele>
        <time>2016-08-27T10:03:40Z</time>
      </trkpt>
      <trkpt lat="44.09886" lon="1.79853">
        <ele>328.1</ele>
        <time>2016-08-27T10:03:41Z</time>
      </trkpt>
      <trkpt lat="44.09895" lon="1.79856">
        <ele>327.9</ele>
        <time>2016-08-27T10:03:42Z</time>
      </trkpt>
      <trkpt lat="44.09903" lon="1.79858">
        <ele>327.9</ele>
        <time>2016-08-27T10:03:43Z</time>
      </trkpt>
      <trkpt lat="44.0992" lon="1.7986">
        <ele>327.1</ele>
        <time>2016-08-27T10:03:45Z</time>
      </trkpt>
      <trkpt lat="44.09929" lon="1.79863">
        <ele>326.9</ele>
        <time>2016-08-27T10:03:46Z</time>
      </trkpt>
      <trkpt lat="44.09945" lon="1.79861">
        <ele>325.8</ele>
        <time>2016-08-27T10:03:48Z</time>
      </trkpt>
      <trkpt lat="44.09953" lon="1.79858">
        <ele>325.1</ele>
        <time>2016-08-27T10:03:49Z</time>
      </trkpt>
      <trkpt lat="44.09963" lon="1.79856">
        <ele>324.5</ele>
        <time>2016-08-27T10:03:50Z</time>
      </trkpt>
      <trkpt lat="44.09973" lon="1.79854">
        <ele>324.2</ele>
        <time>2016-08-27T10:03:51Z</time>
      </trkpt>
      <trkpt lat="44.09982" lon="1.79851">
        <ele>323.8</ele>
        <time>2016-08-27T10:03:52Z</time>
      </trkpt>
      <trkpt lat="44.09989" lon="1.79845">
        <ele>323.3</ele>
        <time>2016-08-27T10:03:53Z</time>
      </trkpt>
      <trkpt lat="44.09995" lon="1.79839">
        <ele>322.7</ele>
        <time>2016-08-27T10:03:54Z</time>
      </trkpt>
      <trkpt lat="44.10002" lon="1.79833">
        <ele>322.2</ele>
        <time>2016-08-27T10:03:55Z</time>
      </trkpt>
      <trkpt lat="44.10007" lon="1.79823">
        <ele>321.4</ele>
        <time>2016-08-27T10:03:56Z</time>
      </trkpt>
      <trkpt lat="44.10013" lon="1.79815">
        <ele>320.8</ele>
        <time>2016-08-27T10:03:57Z</time>
      </trkpt>
      <trkpt lat="44.1002" lon="1.79805">
        <ele>320.1</ele>
        <time>2016-08-27T10:03:58Z</time>
      </trkpt>
      <trkpt lat="44.10026" lon="1.79796">
        <ele>319.5</ele>
        <time>2016-08-27T10:03:59Z</time>
      </trkpt>
      <trkpt lat="44.10031" lon="1.79786">
        <ele>318.8</ele>
        <time>2016-08-27T10:04:00Z</time>
      </trkpt>
      <trkpt lat="44.10036" lon="1.79775">
        <ele>318.3</ele>
        <time>2016-08-27T10:04:01Z</time>
      </trkpt>
      <trkpt lat="44.10042" lon="1.79763">
        <ele>317.7</ele>
        <time>2016-08-27T10:04:02Z</time>
      </trkpt>
      <trkpt lat="44.10048" lon="1.79751">
        <ele>317.1</ele>
        <time>2016-08-27T10:04:03Z</time>
      </trkpt>
      <trkpt lat="44.10053" lon="1.79739">
        <ele>316.6</ele>
        <time>2016-08-27T10:04:04Z</time>
      </trkpt>
      <trkpt lat="44.1006" lon="1.79728">
        <ele>316.1</ele>
        <time>2016-08-27T10:04:05Z</time>
      </trkpt>
      <trkpt lat="44.10066" lon="1.79716">
        <ele>315.5</ele>
        <time>2016-08-27T10:04:06Z</time>
      </trkpt>
      <trkpt lat="44.10072" lon="1.79706">
        <ele>314.9</ele>
        <time>2016-08-27T10:04:07Z</time>
      </trkpt>
      <trkpt lat="44.10078" lon="1.79696">
        <ele>314.1</ele>
        <time>2016-08-27T10:04:08Z</time>
      </trkpt>
      <trkpt lat="44.10084" lon="1.79684">
        <ele>313.4</ele>
        <time>2016-08-27T10:04:09Z</time>
      </trkpt>
      <trkpt lat="44.1009" lon="1.79672">
        <ele>312.6</ele>
        <time>2016-08-27T10:04:10Z</time>
      </trkpt>
      <trkpt lat="44.10097" lon="1.79659">
        <ele>311.9</ele>
        <time>2016-08-27T10:04:11Z</time>
      </trkpt>
      <trkpt lat="44.10104" lon="1.79647">
        <ele>311.2</ele>
        <time>2016-08-27T10:04:12Z</time>
      </trkpt>
      <trkpt lat="44.10111" lon="1.79637">
        <ele>310.6</ele>
        <time>2016-08-27T10:04:13Z</time>
      </trkpt>
      <trkpt lat="44.1012" lon="1.79627">
        <ele>310.1</ele>
        <time>2016-08-27T10:04:14Z</time>
      </trkpt>
      <trkpt lat="44.10129" lon="1.79621">
        <ele>309.6</ele>
        <time>2016-08-27T10:04:15Z</time>
      </trkpt>
      <trkpt lat="44.10141" lon="1.79613">
        <ele>308.9</ele>
        <time>2016-08-27T10:04:16Z</time>
      </trkpt>
      <trkpt lat="44.10152" lon="1.79607">
        <ele>308.4</ele>
        <time>2016-08-27T10:04:17Z</time>
      </trkpt>
      <trkpt lat="44.10162" lon="1.79604">
        <ele>308.1</ele>
        <time>2016-08-27T10:04:18Z</time>
      </trkpt>
      <trkpt lat="44.10173" lon="1.79599">
        <ele>307.7</ele>
        <time>2016-08-27T10:04:19Z</time>
      </trkpt>
      <trkpt lat="44.10184" lon="1.79594">
        <ele>307.4</ele>
        <time>2016-08-27T10:04:20Z</time>
      </trkpt>
      <trkpt lat="44.10196" lon="1.79591">
        <ele>307.1</ele>
        <time>2016-08-27T10:04:21Z</time>
      </trkpt>
      <trkpt lat="44.10206" lon="1.79588">
        <ele>307</ele>
        <time>2016-08-27T10:04:22Z</time>
      </trkpt>
      <trkpt lat="44.10218" lon="1.79583">
        <ele>306.7</ele>
        <time>2016-08-27T10:04:23Z</time>
      </trkpt>
      <trkpt lat="44.1023" lon="1.79579">
        <ele>306.7</ele>
        <time>2016-08-27T10:04:24Z</time>
      </trkpt>
      <trkpt lat="44.1024" lon="1.79575">
        <ele>306.6</ele>
        <time>2016-08-27T10:04:25Z</time>
      </trkpt>
      <trkpt lat="44.10248" lon="1.79568">
        <ele>306.3</ele>
        <time>2016-08-27T10:04:26Z</time>
      </trkpt>
      <trkpt lat="44.10256" lon="1.7956">
        <ele>306.1</ele>
        <time>2016-08-27T10:04:27Z</time>
      </trkpt>
      <trkpt lat="44.1026" lon="1.79546">
        <ele>305.4</ele>
        <time>2016-08-27T10:04:28Z</time>
      </trkpt>
      <trkpt lat="44.10265" lon="1.79529">
        <ele>305.6</ele>
        <time>2016-08-27T10:04:29Z</time>
      </trkpt>
      <trkpt lat="44.10269" lon="1.79513">
        <ele>306.1</ele>
        <time>2016-08-27T10:04:30Z</time>
      </trkpt>
      <trkpt lat="44.10269" lon="1.79499">
        <ele>306.3</ele>
        <time>2016-08-27T10:04:31Z</time>
      </trkpt>
      <trkpt lat="44.10266" lon="1.79486">
        <ele>306.2</ele>
        <time>2016-08-27T10:04:32Z</time>
      </trkpt>
      <trkpt lat="44.10264" lon="1.79471">
        <ele>306.2</ele>
        <time>2016-08-27T10:04:33Z</time>
      </trkpt>
      <trkpt lat="44.10263" lon="1.79458">
        <ele>306.2</ele>
        <time>2016-08-27T10:04:34Z</time>
      </trkpt>
      <trkpt lat="44.1026" lon="1.79446">
        <ele>306.5</ele>
        <time>2016-08-27T10:04:35Z</time>
      </trkpt>
      <trkpt lat="44.10256" lon="1.79435">
        <ele>306.7</ele>
        <time>2016-08-27T10:04:36Z</time>
      </trkpt>
      <trkpt lat="44.10253" lon="1.79425">
        <ele>306.9</ele>
        <time>2016-08-27T10:04:37Z</time>
      </trkpt>
      <trkpt lat="44.10248" lon="1.79417">
        <ele>306.7</ele>
        <time>2016-08-27T10:04:38Z</time>
      </trkpt>
      <trkpt lat="44.10245" lon="1.79407">
        <ele>307</ele>
        <time>2016-08-27T10:04:39Z</time>
      </trkpt>
      <trkpt lat="44.10242" lon="1.79397">
        <ele>307.2</ele>
        <time>2016-08-27T10:04:40Z</time>
      </trkpt>
      <trkpt lat="44.10241" lon="1.79387">
        <ele>307.8</ele>
        <time>2016-08-27T10:04:41Z</time>
      </trkpt>
      <trkpt lat="44.10239" lon="1.79377">
        <ele>308.1</ele>
        <time>2016-08-27T10:04:42Z</time>
      </trkpt>
      <trkpt lat="44.10236" lon="1.79369">
        <ele>308.3</ele>
        <time>2016-08-27T10:04:43Z</time>
      </trkpt>
      <trkpt lat="44.10234" lon="1.7936">
        <ele>308.7</ele>
        <time>2016-08-27T10:04:44Z</time>
      </trkpt>
      <trkpt lat="44.10233" lon="1.79354">
        <ele>308.9</ele>
        <time>2016-08-27T10:04:45Z</time>
      </trkpt>
      <trkpt lat="44.10232" lon="1.79345">
        <ele>309.4</ele>
        <time>2016-08-27T10:04:46Z</time>
      </trkpt>
      <trkpt lat="44.10231" lon="1.79339">
        <ele>309.7</ele>
        <time>2016-08-27T10:04:47Z</time>
      </trkpt>
      <trkpt lat="44.1023" lon="1.79332">
        <ele>310</ele>
        <time>2016-08-27T10:04:48Z</time>
      </trkpt>
      <trkpt lat="44.10229" lon="1.79327">
        <ele>310.3</ele>
        <time>2016-08-27T10:04:49Z</time>
      </trkpt>
      <trkpt lat="44.10227" lon="1.79322">
        <ele>310.5</ele>
        <time>2016-08-27T10:04:50Z</time>
      </trkpt>
      <trkpt lat="44.10226" lon="1.79317">
        <ele>310.8</ele>
        <time>2016-08-27T10:04:51Z</time>
      </trkpt>
      <trkpt lat="44.10226" lon="1.79311">
        <ele>311.2</ele>
        <time>2016-08-27T10:04:52Z</time>
      </trkpt>
      <trkpt lat="44.10225" lon="1.79306">
        <ele>311.4</ele>
        <time>2016-08-27T10:04:53Z</time>
      </trkpt>
      <trkpt lat="44.10225" lon="1.79301">
        <ele>311.8</ele>
        <time>2016-08-27T10:04:54Z</time>
      </trkpt>
      <trkpt lat="44.10224" lon="1.79296">
        <ele>312.1</ele>
        <time>2016-08-27T10:04:55Z</time>
      </trkpt>
      <trkpt lat="44.10224" lon="1.7929">
        <ele>312.3</ele>
        <time>2016-08-27T10:04:56Z</time>
      </trkpt>
      <trkpt lat="44.10224" lon="1.79286">
        <ele>312</ele>
        <time>2016-08-27T10:04:57Z</time>
      </trkpt>
      <trkpt lat="44.10224" lon="1.79281">
        <ele>311.8</ele>
        <time>2016-08-27T10:04:58Z</time>
      </trkpt>
      <trkpt lat="44.10224" lon="1.79277">
        <ele>311.5</ele>
        <time>2016-08-27T10:04:59Z</time>
      </trkpt>
      <trkpt lat="44.10224" lon="1.79273">
        <ele>311.3</ele>
        <time>2016-08-27T10:05:00Z</time>
      </trkpt>
      <trkpt lat="44.10224" lon="1.79266">
        <ele>310.9</ele>
        <time>2016-08-27T10:05:02Z</time>
      </trkpt>
      <trkpt lat="44.10224" lon="1.79259">
        <ele>310.5</ele>
        <time>2016-08-27T10:05:04Z</time>
      </trkpt>
      <trkpt lat="44.10226" lon="1.79253">
        <ele>310.2</ele>
        <time>2016-08-27T10:05:06Z</time>
      </trkpt>
      <trkpt lat="44.10227" lon="1.79246">
        <ele>309.9</ele>
        <time>2016-08-27T10:05:08Z</time>
      </trkpt>
      <trkpt lat="44.10229" lon="1.79241">
        <ele>309.6</ele>
        <time>2016-08-27T10:05:10Z</time>
      </trkpt>
      <trkpt lat="44.10232" lon="1.79236">
        <ele>309.4</ele>
        <time>2016-08-27T10:05:12Z</time>
      </trkpt>
      <trkpt lat="44.10234" lon="1.7924">
        <ele>309.7</ele>
        <time>2016-08-27T10:05:19Z</time>
      </trkpt>
      <trkpt lat="44.10235" lon="1.79233">
        <ele>309.3</ele>
        <time>2016-08-27T10:05:45Z</time>
      </trkpt>
      <trkpt lat="44.10236" lon="1.79227">
        <ele>309</ele>
        <time>2016-08-27T10:05:47Z</time>
      </trkpt>
      <trkpt lat="44.10237" lon="1.79222">
        <ele>308.8</ele>
        <time>2016-08-27T10:05:48Z</time>
      </trkpt>
      <trkpt lat="44.10239" lon="1.79216">
        <ele>308.5</ele>
        <time>2016-08-27T10:05:49Z</time>
      </trkpt>
      <trkpt lat="44.10241" lon="1.79209">
        <ele>308.2</ele>
        <time>2016-08-27T10:05:50Z</time>
      </trkpt>
      <trkpt lat="44.10246" lon="1.79193">
        <ele>308</ele>
        <time>2016-08-27T10:05:51Z</time>
      </trkpt>
      <trkpt lat="44.10249" lon="1.79185">
        <ele>307.9</ele>
        <time>2016-08-27T10:05:52Z</time>
      </trkpt>
      <trkpt lat="44.10252" lon="1.79177">
        <ele>307.8</ele>
        <time>2016-08-27T10:05:53Z</time>
      </trkpt>
      <trkpt lat="44.10254" lon="1.79169">
        <ele>307.7</ele>
        <time>2016-08-27T10:05:54Z</time>
      </trkpt>
      <trkpt lat="44.10256" lon="1.79161">
        <ele>307.5</ele>
        <time>2016-08-27T10:05:55Z</time>
      </trkpt>
      <trkpt lat="44.10259" lon="1.79151">
        <ele>307.3</ele>
        <time>2016-08-27T10:05:56Z</time>
      </trkpt>
      <trkpt lat="44.10262" lon="1.79141">
        <ele>307.1</ele>
        <time>2016-08-27T10:05:57Z</time>
      </trkpt>
      <trkpt lat="44.10266" lon="1.79132">
        <ele>306.9</ele>
        <time>2016-08-27T10:05:58Z</time>
      </trkpt>
      <trkpt lat="44.10268" lon="1.79122">
        <ele>306.7</ele>
        <time>2016-08-27T10:05:59Z</time>
      </trkpt>
      <trkpt lat="44.10271" lon="1.79114">
        <ele>306.7</ele>
        <time>2016-08-27T10:06:00Z</time>
      </trkpt>
      <trkpt lat="44.10275" lon="1.79103">
        <ele>306.7</ele>
        <time>2016-08-27T10:06:01Z</time>
      </trkpt>
      <trkpt lat="44.10277" lon="1.79095">
        <ele>306.7</ele>
        <time>2016-08-27T10:06:02Z</time>
      </trkpt>
      <trkpt lat="44.1028" lon="1.79085">
        <ele>306.6</ele>
        <time>2016-08-27T10:06:03Z</time>
      </trkpt>
      <trkpt lat="44.10284" lon="1.79075">
        <ele>306.5</ele>
        <time>2016-08-27T10:06:04Z</time>
      </trkpt>
      <trkpt lat="44.10288" lon="1.79067">
        <ele>306.4</ele>
        <time>2016-08-27T10:06:05Z</time>
      </trkpt>
      <trkpt lat="44.1029" lon="1.7906">
        <ele>306.2</ele>
        <time>2016-08-27T10:06:06Z</time>
      </trkpt>
      <trkpt lat="44.10295" lon="1.79052">
        <ele>306.2</ele>
        <time>2016-08-27T10:06:07Z</time>
      </trkpt>
      <trkpt lat="44.10298" lon="1.79044">
        <ele>306.1</ele>
        <time>2016-08-27T10:06:08Z</time>
      </trkpt>
      <trkpt lat="44.10302" lon="1.79033">
        <ele>306.2</ele>
        <time>2016-08-27T10:06:09Z</time>
      </trkpt>
      <trkpt lat="44.10307" lon="1.79017">
        <ele>306.5</ele>
        <time>2016-08-27T10:06:11Z</time>
      </trkpt>
      <trkpt lat="44.10309" lon="1.79009">
        <ele>306.7</ele>
        <time>2016-08-27T10:06:12Z</time>
      </trkpt>
      <trkpt lat="44.1031" lon="1.79001">
        <ele>306.8</ele>
        <time>2016-08-27T10:06:13Z</time>
      </trkpt>
      <trkpt lat="44.10314" lon="1.78993">
        <ele>307</ele>
        <time>2016-08-27T10:06:14Z</time>
      </trkpt>
      <trkpt lat="44.10315" lon="1.78987">
        <ele>307.1</ele>
        <time>2016-08-27T10:06:15Z</time>
      </trkpt>
      <trkpt lat="44.10317" lon="1.78979">
        <ele>307.3</ele>
        <time>2016-08-27T10:06:16Z</time>
      </trkpt>
      <trkpt lat="44.1032" lon="1.78967">
        <ele>307.5</ele>
        <time>2016-08-27T10:06:17Z</time>
      </trkpt>
      <trkpt lat="44.10324" lon="1.78963">
        <ele>307.7</ele>
        <time>2016-08-27T10:06:18Z</time>
      </trkpt>
      <trkpt lat="44.10331" lon="1.78958">
        <ele>307.9</ele>
        <time>2016-08-27T10:06:19Z</time>
      </trkpt>
      <trkpt lat="44.10335" lon="1.78951">
        <ele>308.2</ele>
        <time>2016-08-27T10:06:20Z</time>
      </trkpt>
      <trkpt lat="44.10338" lon="1.78941">
        <ele>308.6</ele>
        <time>2016-08-27T10:06:21Z</time>
      </trkpt>
      <trkpt lat="44.1034" lon="1.78934">
        <ele>308.8</ele>
        <time>2016-08-27T10:06:22Z</time>
      </trkpt>
      <trkpt lat="44.10342" lon="1.78929">
        <ele>309</ele>
        <time>2016-08-27T10:06:23Z</time>
      </trkpt>
      <trkpt lat="44.10344" lon="1.78923">
        <ele>309.2</ele>
        <time>2016-08-27T10:06:24Z</time>
      </trkpt>
      <trkpt lat="44.10347" lon="1.78915">
        <ele>309.5</ele>
        <time>2016-08-27T10:06:25Z</time>
      </trkpt>
      <trkpt lat="44.1035" lon="1.78908">
        <ele>309.9</ele>
        <time>2016-08-27T10:06:26Z</time>
      </trkpt>
      <trkpt lat="44.10352" lon="1.78902">
        <ele>310.1</ele>
        <time>2016-08-27T10:06:27Z</time>
      </trkpt>
      <trkpt lat="44.10352" lon="1.78896">
        <ele>310.3</ele>
        <time>2016-08-27T10:06:28Z</time>
      </trkpt>
      <trkpt lat="44.10354" lon="1.7889">
        <ele>310.5</ele>
        <time>2016-08-27T10:06:29Z</time>
      </trkpt>
      <trkpt lat="44.10357" lon="1.78884">
        <ele>310.9</ele>
        <time>2016-08-27T10:06:30Z</time>
      </trkpt>
      <trkpt lat="44.10359" lon="1.78877">
        <ele>311.2</ele>
        <time>2016-08-27T10:06:31Z</time>
      </trkpt>
      <trkpt lat="44.10362" lon="1.78871">
        <ele>311.4</ele>
        <time>2016-08-27T10:06:32Z</time>
      </trkpt>
      <trkpt lat="44.10364" lon="1.78869">
        <ele>311.5</ele>
        <time>2016-08-27T10:06:33Z</time>
      </trkpt>
      <trkpt lat="44.10367" lon="1.78867">
        <ele>311.7</ele>
        <time>2016-08-27T10:06:34Z</time>
      </trkpt>
      <trkpt lat="44.1037" lon="1.78861">
        <ele>311.9</ele>
        <time>2016-08-27T10:06:35Z</time>
      </trkpt>
      <trkpt lat="44.10377" lon="1.78851">
        <ele>312.4</ele>
        <time>2016-08-27T10:06:37Z</time>
      </trkpt>
      <trkpt lat="44.10381" lon="1.78848">
        <ele>312.6</ele>
        <time>2016-08-27T10:06:38Z</time>
      </trkpt>
      <trkpt lat="44.10385" lon="1.78845">
        <ele>312.8</ele>
        <time>2016-08-27T10:06:39Z</time>
      </trkpt>
      <trkpt lat="44.10391" lon="1.7884">
        <ele>313.1</ele>
        <time>2016-08-27T10:06:40Z</time>
      </trkpt>
      <trkpt lat="44.10395" lon="1.78838">
        <ele>313.3</ele>
        <time>2016-08-27T10:06:41Z</time>
      </trkpt>
      <trkpt lat="44.10398" lon="1.78839">
        <ele>313.4</ele>
        <time>2016-08-27T10:06:42Z</time>
      </trkpt>
      <trkpt lat="44.10402" lon="1.78838">
        <ele>313.6</ele>
        <time>2016-08-27T10:06:43Z</time>
      </trkpt>
      <trkpt lat="44.10406" lon="1.78838">
        <ele>313.8</ele>
        <time>2016-08-27T10:06:44Z</time>
      </trkpt>
      <trkpt lat="44.10411" lon="1.78836">
        <ele>314</ele>
        <time>2016-08-27T10:06:46Z</time>
      </trkpt>
      <trkpt lat="44.10416" lon="1.78835">
        <ele>314.2</ele>
        <time>2016-08-27T10:06:47Z</time>
      </trkpt>
      <trkpt lat="44.10425" lon="1.78836">
        <ele>314.6</ele>
        <time>2016-08-27T10:06:49Z</time>
      </trkpt>
      <trkpt lat="44.10429" lon="1.78836">
        <ele>314.8</ele>
        <time>2016-08-27T10:06:50Z</time>
      </trkpt>
      <trkpt lat="44.10433" lon="1.78837">
        <ele>314.9</ele>
        <time>2016-08-27T10:06:51Z</time>
      </trkpt>
      <trkpt lat="44.10437" lon="1.78837">
        <ele>315.1</ele>
        <time>2016-08-27T10:06:52Z</time>
      </trkpt>
      <trkpt lat="44.10441" lon="1.78839">
        <ele>315.3</ele>
        <time>2016-08-27T10:06:53Z</time>
      </trkpt>
      <trkpt lat="44.10445" lon="1.7884">
        <ele>315.4</ele>
        <time>2016-08-27T10:06:54Z</time>
      </trkpt>
      <trkpt lat="44.10452" lon="1.78838">
        <ele>315.7</ele>
        <time>2016-08-27T10:06:55Z</time>
      </trkpt>
      <trkpt lat="44.10457" lon="1.78837">
        <ele>315.9</ele>
        <time>2016-08-27T10:06:57Z</time>
      </trkpt>
      <trkpt lat="44.10461" lon="1.78837">
        <ele>316</ele>
        <time>2016-08-27T10:06:58Z</time>
      </trkpt>
      <trkpt lat="44.10464" lon="1.78836">
        <ele>316</ele>
        <time>2016-08-27T10:06:59Z</time>
      </trkpt>
      <trkpt lat="44.10471" lon="1.78836">
        <ele>316</ele>
        <time>2016-08-27T10:07:01Z</time>
      </trkpt>
      <trkpt lat="44.10476" lon="1.78835">
        <ele>315.9</ele>
        <time>2016-08-27T10:07:02Z</time>
      </trkpt>
      <trkpt lat="44.10481" lon="1.78833">
        <ele>315.9</ele>
        <time>2016-08-27T10:07:03Z</time>
      </trkpt>
      <trkpt lat="44.10487" lon="1.78833">
        <ele>315.8</ele>
        <time>2016-08-27T10:07:04Z</time>
      </trkpt>
      <trkpt lat="44.10492" lon="1.78832">
        <ele>315.8</ele>
        <time>2016-08-27T10:07:05Z</time>
      </trkpt>
      <trkpt lat="44.10498" lon="1.78831">
        <ele>315.7</ele>
        <time>2016-08-27T10:07:06Z</time>
      </trkpt>
      <trkpt lat="44.10505" lon="1.78829">
        <ele>315.5</ele>
        <time>2016-08-27T10:07:07Z</time>
      </trkpt>
      <trkpt lat="44.1051" lon="1.78829">
        <ele>315.4</ele>
        <time>2016-08-27T10:07:08Z</time>
      </trkpt>
      <trkpt lat="44.10513" lon="1.78827">
        <ele>315.3</ele>
        <time>2016-08-27T10:07:09Z</time>
      </trkpt>
      <trkpt lat="44.10516" lon="1.78827">
        <ele>315.3</ele>
        <time>2016-08-27T10:07:10Z</time>
      </trkpt>
      <trkpt lat="44.10525" lon="1.78821">
        <ele>314.8</ele>
        <time>2016-08-27T10:07:11Z</time>
      </trkpt>
      <trkpt lat="44.1053" lon="1.78818">
        <ele>314.4</ele>
        <time>2016-08-27T10:07:12Z</time>
      </trkpt>
      <trkpt lat="44.10534" lon="1.78815">
        <ele>314.2</ele>
        <time>2016-08-27T10:07:13Z</time>
      </trkpt>
      <trkpt lat="44.10541" lon="1.78813">
        <ele>313.8</ele>
        <time>2016-08-27T10:07:14Z</time>
      </trkpt>
      <trkpt lat="44.10548" lon="1.78811">
        <ele>313.9</ele>
        <time>2016-08-27T10:07:15Z</time>
      </trkpt>
      <trkpt lat="44.10554" lon="1.78809">
        <ele>313.9</ele>
        <time>2016-08-27T10:07:16Z</time>
      </trkpt>
      <trkpt lat="44.1056" lon="1.78807">
        <ele>314</ele>
        <time>2016-08-27T10:07:17Z</time>
      </trkpt>
      <trkpt lat="44.10566" lon="1.78804">
        <ele>314</ele>
        <time>2016-08-27T10:07:18Z</time>
      </trkpt>
      <trkpt lat="44.10571" lon="1.78801">
        <ele>314.1</ele>
        <time>2016-08-27T10:07:19Z</time>
      </trkpt>
      <trkpt lat="44.10575" lon="1.78798">
        <ele>314</ele>
        <time>2016-08-27T10:07:20Z</time>
      </trkpt>
      <trkpt lat="44.1058" lon="1.78794">
        <ele>314</ele>
        <time>2016-08-27T10:07:21Z</time>
      </trkpt>
      <trkpt lat="44.10586" lon="1.78791">
        <ele>314.1</ele>
        <time>2016-08-27T10:07:22Z</time>
      </trkpt>
      <trkpt lat="44.1059" lon="1.78786">
        <ele>313.8</ele>
        <time>2016-08-27T10:07:23Z</time>
      </trkpt>
      <trkpt lat="44.10596" lon="1.78782">
        <ele>313.7</ele>
        <time>2016-08-27T10:07:24Z</time>
      </trkpt>
      <trkpt lat="44.10601" lon="1.7878">
        <ele>313.7</ele>
        <time>2016-08-27T10:07:25Z</time>
      </trkpt>
      <trkpt lat="44.10607" lon="1.78774">
        <ele>313.4</ele>
        <time>2016-08-27T10:07:26Z</time>
      </trkpt>
      <trkpt lat="44.1061" lon="1.78775">
        <ele>313.7</ele>
        <time>2016-08-27T10:07:27Z</time>
      </trkpt>
      <trkpt lat="44.10614" lon="1.78774">
        <ele>313.7</ele>
        <time>2016-08-27T10:07:28Z</time>
      </trkpt>
      <trkpt lat="44.10619" lon="1.78773">
        <ele>313.9</ele>
        <time>2016-08-27T10:07:29Z</time>
      </trkpt>
      <trkpt lat="44.10623" lon="1.78772">
        <ele>314</ele>
        <time>2016-08-27T10:07:30Z</time>
      </trkpt>
      <trkpt lat="44.10629" lon="1.78771">
        <ele>314.1</ele>
        <time>2016-08-27T10:07:31Z</time>
      </trkpt>
      <trkpt lat="44.10634" lon="1.78768">
        <ele>314.1</ele>
        <time>2016-08-27T10:07:32Z</time>
      </trkpt>
      <trkpt lat="44.1064" lon="1.78764">
        <ele>314</ele>
        <time>2016-08-27T10:07:33Z</time>
      </trkpt>
      <trkpt lat="44.10647" lon="1.7876">
        <ele>314</ele>
        <time>2016-08-27T10:07:34Z</time>
      </trkpt>
      <trkpt lat="44.10651" lon="1.78759">
        <ele>314.1</ele>
        <time>2016-08-27T10:07:35Z</time>
      </trkpt>
      <trkpt lat="44.10661" lon="1.78757">
        <ele>314.5</ele>
        <time>2016-08-27T10:07:36Z</time>
      </trkpt>
      <trkpt lat="44.10668" lon="1.78755">
        <ele>314.8</ele>
        <time>2016-08-27T10:07:37Z</time>
      </trkpt>
      <trkpt lat="44.10677" lon="1.78751">
        <ele>315.2</ele>
        <time>2016-08-27T10:07:38Z</time>
      </trkpt>
      <trkpt lat="44.10683" lon="1.78744">
        <ele>315.3</ele>
        <time>2016-08-27T10:07:39Z</time>
      </trkpt>
      <trkpt lat="44.10692" lon="1.78741">
        <ele>315.9</ele>
        <time>2016-08-27T10:07:40Z</time>
      </trkpt>
      <trkpt lat="44.10702" lon="1.78736">
        <ele>316.5</ele>
        <time>2016-08-27T10:07:41Z</time>
      </trkpt>
      <trkpt lat="44.1071" lon="1.78732">
        <ele>317</ele>
        <time>2016-08-27T10:07:42Z</time>
      </trkpt>
      <trkpt lat="44.10718" lon="1.78728">
        <ele>317.1</ele>
        <time>2016-08-27T10:07:43Z</time>
      </trkpt>
      <trkpt lat="44.10726" lon="1.78722">
        <ele>317.2</ele>
        <time>2016-08-27T10:07:44Z</time>
      </trkpt>
      <trkpt lat="44.10733" lon="1.78718">
        <ele>317.4</ele>
        <time>2016-08-27T10:07:45Z</time>
      </trkpt>
      <trkpt lat="44.10741" lon="1.78715">
        <ele>317.6</ele>
        <time>2016-08-27T10:07:46Z</time>
      </trkpt>
      <trkpt lat="44.10748" lon="1.78712">
        <ele>317.8</ele>
        <time>2016-08-27T10:07:47Z</time>
      </trkpt>
      <trkpt lat="44.10756" lon="1.7871">
        <ele>318.1</ele>
        <time>2016-08-27T10:07:48Z</time>
      </trkpt>
      <trkpt lat="44.10764" lon="1.78706">
        <ele>318.5</ele>
        <time>2016-08-27T10:07:49Z</time>
      </trkpt>
      <trkpt lat="44.10772" lon="1.78701">
        <ele>318.9</ele>
        <time>2016-08-27T10:07:50Z</time>
      </trkpt>
      <trkpt lat="44.10778" lon="1.78697">
        <ele>319.4</ele>
        <time>2016-08-27T10:07:51Z</time>
      </trkpt>
      <trkpt lat="44.10785" lon="1.78693">
        <ele>319.9</ele>
        <time>2016-08-27T10:07:52Z</time>
      </trkpt>
      <trkpt lat="44.10791" lon="1.78691">
        <ele>320.2</ele>
        <time>2016-08-27T10:07:53Z</time>
      </trkpt>
      <trkpt lat="44.10799" lon="1.78687">
        <ele>320.6</ele>
        <time>2016-08-27T10:07:54Z</time>
      </trkpt>
      <trkpt lat="44.10806" lon="1.78683">
        <ele>320.8</ele>
        <time>2016-08-27T10:07:55Z</time>
      </trkpt>
      <trkpt lat="44.10812" lon="1.7868">
        <ele>321</ele>
        <time>2016-08-27T10:07:56Z</time>
      </trkpt>
      <trkpt lat="44.10818" lon="1.7868">
        <ele>321.1</ele>
        <time>2016-08-27T10:07:57Z</time>
      </trkpt>
      <trkpt lat="44.10824" lon="1.78677">
        <ele>321.3</ele>
        <time>2016-08-27T10:07:58Z</time>
      </trkpt>
      <trkpt lat="44.10829" lon="1.78675">
        <ele>321.4</ele>
        <time>2016-08-27T10:07:59Z</time>
      </trkpt>
      <trkpt lat="44.10834" lon="1.78672">
        <ele>321.6</ele>
        <time>2016-08-27T10:08:00Z</time>
      </trkpt>
      <trkpt lat="44.10834" lon="1.78667">
        <ele>322</ele>
        <time>2016-08-27T10:08:01Z</time>
      </trkpt>
      <trkpt lat="44.1084" lon="1.78664">
        <ele>322.2</ele>
        <time>2016-08-27T10:08:02Z</time>
      </trkpt>
      <trkpt lat="44.10845" lon="1.78661">
        <ele>322.4</ele>
        <time>2016-08-27T10:08:03Z</time>
      </trkpt>
      <trkpt lat="44.10852" lon="1.78661">
        <ele>322.4</ele>
        <time>2016-08-27T10:08:04Z</time>
      </trkpt>
      <trkpt lat="44.10856" lon="1.78659">
        <ele>322.5</ele>
        <time>2016-08-27T10:08:05Z</time>
      </trkpt>
      <trkpt lat="44.10861" lon="1.78656">
        <ele>322.7</ele>
        <time>2016-08-27T10:08:06Z</time>
      </trkpt>
      <trkpt lat="44.10865" lon="1.78656">
        <ele>322.8</ele>
        <time>2016-08-27T10:08:07Z</time>
      </trkpt>
      <trkpt lat="44.10871" lon="1.78654">
        <ele>322.9</ele>
        <time>2016-08-27T10:08:09Z</time>
      </trkpt>
      <trkpt lat="44.10876" lon="1.78651">
        <ele>323.1</ele>
        <time>2016-08-27T10:08:10Z</time>
      </trkpt>
      <trkpt lat="44.10879" lon="1.7865">
        <ele>323.1</ele>
        <time>2016-08-27T10:08:11Z</time>
      </trkpt>
      <trkpt lat="44.10885" lon="1.78648">
        <ele>323.1</ele>
        <time>2016-08-27T10:08:12Z</time>
      </trkpt>
      <trkpt lat="44.10889" lon="1.78646">
        <ele>323.1</ele>
        <time>2016-08-27T10:08:13Z</time>
      </trkpt>
      <trkpt lat="44.10893" lon="1.78645">
        <ele>323.1</ele>
        <time>2016-08-27T10:08:14Z</time>
      </trkpt>
      <trkpt lat="44.10897" lon="1.78644">
        <ele>323</ele>
        <time>2016-08-27T10:08:15Z</time>
      </trkpt>
      <trkpt lat="44.109" lon="1.78642">
        <ele>323</ele>
        <time>2016-08-27T10:08:16Z</time>
      </trkpt>
      <trkpt lat="44.10904" lon="1.78642">
        <ele>322.9</ele>
        <time>2016-08-27T10:08:17Z</time>
      </trkpt>
      <trkpt lat="44.10908" lon="1.78641">
        <ele>322.8</ele>
        <time>2016-08-27T10:08:18Z</time>
      </trkpt>
      <trkpt lat="44.10912" lon="1.78639">
        <ele>322.7</ele>
        <time>2016-08-27T10:08:19Z</time>
      </trkpt>
      <trkpt lat="44.10915" lon="1.78638">
        <ele>322.7</ele>
        <time>2016-08-27T10:08:20Z</time>
      </trkpt>
      <trkpt lat="44.10919" lon="1.78637">
        <ele>322.6</ele>
        <time>2016-08-27T10:08:21Z</time>
      </trkpt>
      <trkpt lat="44.10923" lon="1.78636">
        <ele>322.4</ele>
        <time>2016-08-27T10:08:22Z</time>
      </trkpt>
      <trkpt lat="44.1093" lon="1.78635">
        <ele>322.2</ele>
        <time>2016-08-27T10:08:23Z</time>
      </trkpt>
      <trkpt lat="44.10935" lon="1.78634">
        <ele>322</ele>
        <time>2016-08-27T10:08:24Z</time>
      </trkpt>
      <trkpt lat="44.10939" lon="1.78634">
        <ele>321.9</ele>
        <time>2016-08-27T10:08:25Z</time>
      </trkpt>
      <trkpt lat="44.10944" lon="1.78634">
        <ele>321.7</ele>
        <time>2016-08-27T10:08:26Z</time>
      </trkpt>
      <trkpt lat="44.1095" lon="1.78635">
        <ele>321.5</ele>
        <time>2016-08-27T10:08:27Z</time>
      </trkpt>
      <trkpt lat="44.10955" lon="1.78633">
        <ele>321.2</ele>
        <time>2016-08-27T10:08:28Z</time>
      </trkpt>
      <trkpt lat="44.10958" lon="1.78635">
        <ele>321.2</ele>
        <time>2016-08-27T10:08:29Z</time>
      </trkpt>
      <trkpt lat="44.10963" lon="1.78636">
        <ele>321</ele>
        <time>2016-08-27T10:08:30Z</time>
      </trkpt>
      <trkpt lat="44.10969" lon="1.78636">
        <ele>320.8</ele>
        <time>2016-08-27T10:08:31Z</time>
      </trkpt>
      <trkpt lat="44.10974" lon="1.78634">
        <ele>320.6</ele>
        <time>2016-08-27T10:08:32Z</time>
      </trkpt>
      <trkpt lat="44.10978" lon="1.78637">
        <ele>320.5</ele>
        <time>2016-08-27T10:08:33Z</time>
      </trkpt>
      <trkpt lat="44.10983" lon="1.78637">
        <ele>320.3</ele>
        <time>2016-08-27T10:08:34Z</time>
      </trkpt>
      <trkpt lat="44.10989" lon="1.78638">
        <ele>320.2</ele>
        <time>2016-08-27T10:08:35Z</time>
      </trkpt>
      <trkpt lat="44.10993" lon="1.78636">
        <ele>320</ele>
        <time>2016-08-27T10:08:36Z</time>
      </trkpt>
      <trkpt lat="44.10998" lon="1.78639">
        <ele>319.9</ele>
        <time>2016-08-27T10:08:37Z</time>
      </trkpt>
      <trkpt lat="44.11003" lon="1.7864">
        <ele>319.8</ele>
        <time>2016-08-27T10:08:38Z</time>
      </trkpt>
      <trkpt lat="44.11008" lon="1.7864">
        <ele>319.6</ele>
        <time>2016-08-27T10:08:39Z</time>
      </trkpt>
      <trkpt lat="44.11011" lon="1.78639">
        <ele>319.5</ele>
        <time>2016-08-27T10:08:40Z</time>
      </trkpt>
      <trkpt lat="44.11016" lon="1.78639">
        <ele>319.3</ele>
        <time>2016-08-27T10:08:41Z</time>
      </trkpt>
      <trkpt lat="44.11021" lon="1.78642">
        <ele>319.2</ele>
        <time>2016-08-27T10:08:42Z</time>
      </trkpt>
      <trkpt lat="44.11026" lon="1.78642">
        <ele>319.1</ele>
        <time>2016-08-27T10:08:43Z</time>
      </trkpt>
      <trkpt lat="44.11031" lon="1.78642">
        <ele>318.9</ele>
        <time>2016-08-27T10:08:44Z</time>
      </trkpt>
      <trkpt lat="44.11036" lon="1.78642">
        <ele>318.8</ele>
        <time>2016-08-27T10:08:45Z</time>
      </trkpt>
      <trkpt lat="44.11041" lon="1.78642">
        <ele>318.6</ele>
        <time>2016-08-27T10:08:46Z</time>
      </trkpt>
      <trkpt lat="44.11046" lon="1.7864">
        <ele>318.6</ele>
        <time>2016-08-27T10:08:47Z</time>
      </trkpt>
      <trkpt lat="44.11051" lon="1.7864">
        <ele>318.6</ele>
        <time>2016-08-27T10:08:48Z</time>
      </trkpt>
      <trkpt lat="44.11057" lon="1.78641">
        <ele>318.7</ele>
        <time>2016-08-27T10:08:49Z</time>
      </trkpt>
      <trkpt lat="44.11062" lon="1.78641">
        <ele>318.8</ele>
        <time>2016-08-27T10:08:50Z</time>
      </trkpt>
      <trkpt lat="44.11066" lon="1.78641">
        <ele>318.8</ele>
        <time>2016-08-27T10:08:51Z</time>
      </trkpt>
      <trkpt lat="44.11072" lon="1.7864">
        <ele>318.8</ele>
        <time>2016-08-27T10:08:52Z</time>
      </trkpt>
      <trkpt lat="44.11077" lon="1.78639">
        <ele>318.8</ele>
        <time>2016-08-27T10:08:53Z</time>
      </trkpt>
      <trkpt lat="44.11083" lon="1.78638">
        <ele>318.9</ele>
        <time>2016-08-27T10:08:54Z</time>
      </trkpt>
      <trkpt lat="44.11091" lon="1.78638">
        <ele>319</ele>
        <time>2016-08-27T10:08:55Z</time>
      </trkpt>
      <trkpt lat="44.11095" lon="1.78639">
        <ele>319</ele>
        <time>2016-08-27T10:08:56Z</time>
      </trkpt>
      <trkpt lat="44.111" lon="1.78639">
        <ele>319.1</ele>
        <time>2016-08-27T10:08:57Z</time>
      </trkpt>
      <trkpt lat="44.11105" lon="1.78639">
        <ele>319.1</ele>
        <time>2016-08-27T10:08:58Z</time>
      </trkpt>
      <trkpt lat="44.11109" lon="1.78638">
        <ele>319.1</ele>
        <time>2016-08-27T10:08:59Z</time>
      </trkpt>
      <trkpt lat="44.11113" lon="1.78638">
        <ele>319.2</ele>
        <time>2016-08-27T10:09:00Z</time>
      </trkpt>
      <trkpt lat="44.11117" lon="1.78639">
        <ele>319.3</ele>
        <time>2016-08-27T10:09:01Z</time>
      </trkpt>
      <trkpt lat="44.1112" lon="1.7864">
        <ele>319.3</ele>
        <time>2016-08-27T10:09:02Z</time>
      </trkpt>
      <trkpt lat="44.11124" lon="1.7864">
        <ele>319.3</ele>
        <time>2016-08-27T10:09:03Z</time>
      </trkpt>
      <trkpt lat="44.11129" lon="1.78639">
        <ele>319.5</ele>
        <time>2016-08-27T10:09:04Z</time>
      </trkpt>
      <trkpt lat="44.11135" lon="1.78639">
        <ele>319.7</ele>
        <time>2016-08-27T10:09:05Z</time>
      </trkpt>
      <trkpt lat="44.11138" lon="1.78638">
        <ele>319.8</ele>
        <time>2016-08-27T10:09:06Z</time>
      </trkpt>
      <trkpt lat="44.11143" lon="1.78638">
        <ele>319.9</ele>
        <time>2016-08-27T10:09:07Z</time>
      </trkpt>
      <trkpt lat="44.11147" lon="1.78638">
        <ele>320.1</ele>
        <time>2016-08-27T10:09:08Z</time>
      </trkpt>
      <trkpt lat="44.11151" lon="1.78638">
        <ele>320.2</ele>
        <time>2016-08-27T10:09:09Z</time>
      </trkpt>
      <trkpt lat="44.11156" lon="1.78637">
        <ele>320.3</ele>
        <time>2016-08-27T10:09:10Z</time>
      </trkpt>
      <trkpt lat="44.11159" lon="1.78638">
        <ele>320.5</ele>
        <time>2016-08-27T10:09:11Z</time>
      </trkpt>
      <trkpt lat="44.11164" lon="1.78638">
        <ele>320.6</ele>
        <time>2016-08-27T10:09:12Z</time>
      </trkpt>
      <trkpt lat="44.11168" lon="1.78638">
        <ele>320.8</ele>
        <time>2016-08-27T10:09:13Z</time>
      </trkpt>
      <trkpt lat="44.11174" lon="1.78635">
        <ele>320.9</ele>
        <time>2016-08-27T10:09:14Z</time>
      </trkpt>
      <trkpt lat="44.11179" lon="1.78635">
        <ele>321.1</ele>
        <time>2016-08-27T10:09:15Z</time>
      </trkpt>
      <trkpt lat="44.11184" lon="1.78637">
        <ele>321.3</ele>
        <time>2016-08-27T10:09:16Z</time>
      </trkpt>
      <trkpt lat="44.11189" lon="1.78636">
        <ele>321.5</ele>
        <time>2016-08-27T10:09:17Z</time>
      </trkpt>
      <trkpt lat="44.11195" lon="1.78637">
        <ele>321.7</ele>
        <time>2016-08-27T10:09:18Z</time>
      </trkpt>
      <trkpt lat="44.11201" lon="1.78635">
        <ele>321.9</ele>
        <time>2016-08-27T10:09:19Z</time>
      </trkpt>
      <trkpt lat="44.11205" lon="1.78636">
        <ele>322</ele>
        <time>2016-08-27T10:09:20Z</time>
      </trkpt>
      <trkpt lat="44.11208" lon="1.78637">
        <ele>322.1</ele>
        <time>2016-08-27T10:09:21Z</time>
      </trkpt>
      <trkpt lat="44.11212" lon="1.78637">
        <ele>322.2</ele>
        <time>2016-08-27T10:09:22Z</time>
      </trkpt>
      <trkpt lat="44.11215" lon="1.78637">
        <ele>322.3</ele>
        <time>2016-08-27T10:09:23Z</time>
      </trkpt>
      <trkpt lat="44.11222" lon="1.78638">
        <ele>322.4</ele>
        <time>2016-08-27T10:09:24Z</time>
      </trkpt>
      <trkpt lat="44.11224" lon="1.7864">
        <ele>322.5</ele>
        <time>2016-08-27T10:09:25Z</time>
      </trkpt>
      <trkpt lat="44.1123" lon="1.7864">
        <ele>322.7</ele>
        <time>2016-08-27T10:09:26Z</time>
      </trkpt>
      <trkpt lat="44.11236" lon="1.78639">
        <ele>322.8</ele>
        <time>2016-08-27T10:09:27Z</time>
      </trkpt>
      <trkpt lat="44.1124" lon="1.78638">
        <ele>322.9</ele>
        <time>2016-08-27T10:09:28Z</time>
      </trkpt>
      <trkpt lat="44.11244" lon="1.78637">
        <ele>322.9</ele>
        <time>2016-08-27T10:09:29Z</time>
      </trkpt>
      <trkpt lat="44.11248" lon="1.78637">
        <ele>323</ele>
        <time>2016-08-27T10:09:30Z</time>
      </trkpt>
      <trkpt lat="44.11253" lon="1.78636">
        <ele>323.1</ele>
        <time>2016-08-27T10:09:31Z</time>
      </trkpt>
      <trkpt lat="44.11257" lon="1.78638">
        <ele>323.2</ele>
        <time>2016-08-27T10:09:32Z</time>
      </trkpt>
      <trkpt lat="44.11261" lon="1.78638">
        <ele>323.3</ele>
        <time>2016-08-27T10:09:33Z</time>
      </trkpt>
      <trkpt lat="44.11265" lon="1.78639">
        <ele>323.4</ele>
        <time>2016-08-27T10:09:34Z</time>
      </trkpt>
      <trkpt lat="44.11269" lon="1.78638">
        <ele>323.5</ele>
        <time>2016-08-27T10:09:35Z</time>
      </trkpt>
      <trkpt lat="44.11272" lon="1.78638">
        <ele>323.6</ele>
        <time>2016-08-27T10:09:36Z</time>
      </trkpt>
      <trkpt lat="44.11276" lon="1.78639">
        <ele>323.6</ele>
        <time>2016-08-27T10:09:37Z</time>
      </trkpt>
      <trkpt lat="44.1128" lon="1.78638">
        <ele>323.7</ele>
        <time>2016-08-27T10:09:38Z</time>
      </trkpt>
      <trkpt lat="44.11284" lon="1.78638">
        <ele>323.8</ele>
        <time>2016-08-27T10:09:39Z</time>
      </trkpt>
      <trkpt lat="44.11288" lon="1.78638">
        <ele>323.9</ele>
        <time>2016-08-27T10:09:40Z</time>
      </trkpt>
      <trkpt lat="44.11292" lon="1.78638">
        <ele>324</ele>
        <time>2016-08-27T10:09:41Z</time>
      </trkpt>
      <trkpt lat="44.11296" lon="1.78638">
        <ele>324.2</ele>
        <time>2016-08-27T10:09:42Z</time>
      </trkpt>
      <trkpt lat="44.113" lon="1.78638">
        <ele>324.3</ele>
        <time>2016-08-27T10:09:43Z</time>
      </trkpt>
      <trkpt lat="44.11305" lon="1.78638">
        <ele>324.5</ele>
        <time>2016-08-27T10:09:44Z</time>
      </trkpt>
      <trkpt lat="44.1131" lon="1.78637">
        <ele>324.7</ele>
        <time>2016-08-27T10:09:45Z</time>
      </trkpt>
      <trkpt lat="44.11316" lon="1.78637">
        <ele>324.9</ele>
        <time>2016-08-27T10:09:46Z</time>
      </trkpt>
      <trkpt lat="44.11321" lon="1.78637">
        <ele>325.1</ele>
        <time>2016-08-27T10:09:47Z</time>
      </trkpt>
      <trkpt lat="44.11325" lon="1.78637">
        <ele>325.2</ele>
        <time>2016-08-27T10:09:48Z</time>
      </trkpt>
      <trkpt lat="44.1133" lon="1.78636">
        <ele>325.4</ele>
        <time>2016-08-27T10:09:49Z</time>
      </trkpt>
      <trkpt lat="44.11333" lon="1.78636">
        <ele>325.6</ele>
        <time>2016-08-27T10:09:50Z</time>
      </trkpt>
      <trkpt lat="44.11337" lon="1.78636">
        <ele>325.7</ele>
        <time>2016-08-27T10:09:51Z</time>
      </trkpt>
      <trkpt lat="44.11341" lon="1.78635">
        <ele>325.8</ele>
        <time>2016-08-27T10:09:52Z</time>
      </trkpt>
      <trkpt lat="44.11346" lon="1.78635">
        <ele>326</ele>
        <time>2016-08-27T10:09:53Z</time>
      </trkpt>
      <trkpt lat="44.1135" lon="1.78636">
        <ele>326.2</ele>
        <time>2016-08-27T10:09:54Z</time>
      </trkpt>
      <trkpt lat="44.11355" lon="1.78637">
        <ele>326.4</ele>
        <time>2016-08-27T10:09:55Z</time>
      </trkpt>
      <trkpt lat="44.1136" lon="1.78637">
        <ele>326.6</ele>
        <time>2016-08-27T10:09:56Z</time>
      </trkpt>
      <trkpt lat="44.11363" lon="1.78637">
        <ele>326.7</ele>
        <time>2016-08-27T10:09:57Z</time>
      </trkpt>
      <trkpt lat="44.11369" lon="1.78637">
        <ele>326.9</ele>
        <time>2016-08-27T10:09:59Z</time>
      </trkpt>
      <trkpt lat="44.11373" lon="1.78637">
        <ele>327.1</ele>
        <time>2016-08-27T10:10:00Z</time>
      </trkpt>
      <trkpt lat="44.11379" lon="1.78637">
        <ele>327.4</ele>
        <time>2016-08-27T10:10:02Z</time>
      </trkpt>
      <trkpt lat="44.11385" lon="1.78638">
        <ele>327.7</ele>
        <time>2016-08-27T10:10:04Z</time>
      </trkpt>
      <trkpt lat="44.11389" lon="1.78637">
        <ele>327.9</ele>
        <time>2016-08-27T10:10:05Z</time>
      </trkpt>
      <trkpt lat="44.11393" lon="1.78637">
        <ele>328.1</ele>
        <time>2016-08-27T10:10:06Z</time>
      </trkpt>
      <trkpt lat="44.11397" lon="1.78637">
        <ele>328.4</ele>
        <time>2016-08-27T10:10:07Z</time>
      </trkpt>
      <trkpt lat="44.114" lon="1.78636">
        <ele>328.6</ele>
        <time>2016-08-27T10:10:08Z</time>
      </trkpt>
      <trkpt lat="44.11405" lon="1.78637">
        <ele>328.8</ele>
        <time>2016-08-27T10:10:09Z</time>
      </trkpt>
      <trkpt lat="44.11409" lon="1.78638">
        <ele>329.1</ele>
        <time>2016-08-27T10:10:10Z</time>
      </trkpt>
      <trkpt lat="44.11413" lon="1.78639">
        <ele>329.3</ele>
        <time>2016-08-27T10:10:11Z</time>
      </trkpt>
      <trkpt lat="44.11416" lon="1.78639">
        <ele>329.5</ele>
        <time>2016-08-27T10:10:12Z</time>
      </trkpt>
      <trkpt lat="44.1142" lon="1.78639">
        <ele>329.7</ele>
        <time>2016-08-27T10:10:13Z</time>
      </trkpt>
      <trkpt lat="44.11424" lon="1.78638">
        <ele>329.9</ele>
        <time>2016-08-27T10:10:14Z</time>
      </trkpt>
      <trkpt lat="44.11427" lon="1.78637">
        <ele>330.1</ele>
        <time>2016-08-27T10:10:15Z</time>
      </trkpt>
      <trkpt lat="44.11432" lon="1.78635">
        <ele>330.4</ele>
        <time>2016-08-27T10:10:16Z</time>
      </trkpt>
      <trkpt lat="44.11437" lon="1.78638">
        <ele>330.7</ele>
        <time>2016-08-27T10:10:17Z</time>
      </trkpt>
      <trkpt lat="44.11442" lon="1.78638">
        <ele>330.9</ele>
        <time>2016-08-27T10:10:18Z</time>
      </trkpt>
      <trkpt lat="44.11447" lon="1.78636">
        <ele>331.2</ele>
        <time>2016-08-27T10:10:19Z</time>
      </trkpt>
      <trkpt lat="44.11451" lon="1.78637">
        <ele>331.4</ele>
        <time>2016-08-27T10:10:20Z</time>
      </trkpt>
      <trkpt lat="44.11455" lon="1.78635">
        <ele>331.7</ele>
        <time>2016-08-27T10:10:21Z</time>
      </trkpt>
      <trkpt lat="44.11461" lon="1.78635">
        <ele>331.9</ele>
        <time>2016-08-27T10:10:22Z</time>
      </trkpt>
      <trkpt lat="44.11467" lon="1.78634">
        <ele>331.9</ele>
        <time>2016-08-27T10:10:23Z</time>
      </trkpt>
      <trkpt lat="44.11472" lon="1.78633">
        <ele>331.9</ele>
        <time>2016-08-27T10:10:24Z</time>
      </trkpt>
      <trkpt lat="44.11476" lon="1.78633">
        <ele>331.8</ele>
        <time>2016-08-27T10:10:25Z</time>
      </trkpt>
      <trkpt lat="44.11483" lon="1.78634">
        <ele>331.8</ele>
        <time>2016-08-27T10:10:26Z</time>
      </trkpt>
      <trkpt lat="44.11489" lon="1.78635">
        <ele>331.7</ele>
        <time>2016-08-27T10:10:27Z</time>
      </trkpt>
      <trkpt lat="44.11498" lon="1.78634">
        <ele>331.7</ele>
        <time>2016-08-27T10:10:28Z</time>
      </trkpt>
      <trkpt lat="44.11505" lon="1.78634">
        <ele>331.7</ele>
        <time>2016-08-27T10:10:29Z</time>
      </trkpt>
      <trkpt lat="44.11511" lon="1.78635">
        <ele>331.6</ele>
        <time>2016-08-27T10:10:30Z</time>
      </trkpt>
      <trkpt lat="44.11519" lon="1.78637">
        <ele>331.6</ele>
        <time>2016-08-27T10:10:31Z</time>
      </trkpt>
      <trkpt lat="44.11527" lon="1.78639">
        <ele>331.4</ele>
        <time>2016-08-27T10:10:32Z</time>
      </trkpt>
      <trkpt lat="44.11534" lon="1.78639">
        <ele>331.4</ele>
        <time>2016-08-27T10:10:33Z</time>
      </trkpt>
      <trkpt lat="44.11541" lon="1.78639">
        <ele>331.4</ele>
        <time>2016-08-27T10:10:34Z</time>
      </trkpt>
      <trkpt lat="44.1155" lon="1.78639">
        <ele>331.1</ele>
        <time>2016-08-27T10:10:35Z</time>
      </trkpt>
      <trkpt lat="44.11559" lon="1.78639">
        <ele>330.9</ele>
        <time>2016-08-27T10:10:36Z</time>
      </trkpt>
      <trkpt lat="44.11567" lon="1.7864">
        <ele>330.7</ele>
        <time>2016-08-27T10:10:37Z</time>
      </trkpt>
      <trkpt lat="44.11575" lon="1.7864">
        <ele>330.5</ele>
        <time>2016-08-27T10:10:38Z</time>
      </trkpt>
      <trkpt lat="44.11584" lon="1.7864">
        <ele>330.3</ele>
        <time>2016-08-27T10:10:39Z</time>
      </trkpt>
      <trkpt lat="44.11594" lon="1.78639">
        <ele>330.1</ele>
        <time>2016-08-27T10:10:40Z</time>
      </trkpt>
      <trkpt lat="44.11605" lon="1.78639">
        <ele>329.8</ele>
        <time>2016-08-27T10:10:41Z</time>
      </trkpt>
      <trkpt lat="44.11611" lon="1.78642">
        <ele>329.5</ele>
        <time>2016-08-27T10:10:42Z</time>
      </trkpt>
      <trkpt lat="44.11618" lon="1.78642">
        <ele>329.4</ele>
        <time>2016-08-27T10:10:43Z</time>
      </trkpt>
      <trkpt lat="44.11625" lon="1.78642">
        <ele>329.2</ele>
        <time>2016-08-27T10:10:44Z</time>
      </trkpt>
      <trkpt lat="44.11634" lon="1.7864">
        <ele>328.8</ele>
        <time>2016-08-27T10:10:45Z</time>
      </trkpt>
      <trkpt lat="44.11639" lon="1.78643">
        <ele>328.4</ele>
        <time>2016-08-27T10:10:46Z</time>
      </trkpt>
      <trkpt lat="44.1165" lon="1.78641">
        <ele>327.9</ele>
        <time>2016-08-27T10:10:47Z</time>
      </trkpt>
      <trkpt lat="44.11661" lon="1.7864">
        <ele>327.3</ele>
        <time>2016-08-27T10:10:48Z</time>
      </trkpt>
      <trkpt lat="44.11668" lon="1.78642">
        <ele>326.8</ele>
        <time>2016-08-27T10:10:49Z</time>
      </trkpt>
      <trkpt lat="44.11676" lon="1.78641">
        <ele>326.4</ele>
        <time>2016-08-27T10:10:50Z</time>
      </trkpt>
      <trkpt lat="44.11684" lon="1.78641">
        <ele>325.9</ele>
        <time>2016-08-27T10:10:51Z</time>
      </trkpt>
      <trkpt lat="44.11693" lon="1.7864">
        <ele>325.5</ele>
        <time>2016-08-27T10:10:52Z</time>
      </trkpt>
      <trkpt lat="44.11703" lon="1.7864">
        <ele>325</ele>
        <time>2016-08-27T10:10:53Z</time>
      </trkpt>
      <trkpt lat="44.1171" lon="1.78641">
        <ele>324.6</ele>
        <time>2016-08-27T10:10:54Z</time>
      </trkpt>
      <trkpt lat="44.11719" lon="1.78641">
        <ele>324.3</ele>
        <time>2016-08-27T10:10:55Z</time>
      </trkpt>
      <trkpt lat="44.11724" lon="1.7864">
        <ele>324.2</ele>
        <time>2016-08-27T10:10:56Z</time>
      </trkpt>
      <trkpt lat="44.11731" lon="1.78639">
        <ele>324</ele>
        <time>2016-08-27T10:10:57Z</time>
      </trkpt>
      <trkpt lat="44.11738" lon="1.7864">
        <ele>323.8</ele>
        <time>2016-08-27T10:10:58Z</time>
      </trkpt>
      <trkpt lat="44.11745" lon="1.78637">
        <ele>323.6</ele>
        <time>2016-08-27T10:10:59Z</time>
      </trkpt>
      <trkpt lat="44.11754" lon="1.78637">
        <ele>323.4</ele>
        <time>2016-08-27T10:11:00Z</time>
      </trkpt>
      <trkpt lat="44.11763" lon="1.78638">
        <ele>323.1</ele>
        <time>2016-08-27T10:11:01Z</time>
      </trkpt>
      <trkpt lat="44.11772" lon="1.78638">
        <ele>322.9</ele>
        <time>2016-08-27T10:11:02Z</time>
      </trkpt>
      <trkpt lat="44.11777" lon="1.78639">
        <ele>322.7</ele>
        <time>2016-08-27T10:11:03Z</time>
      </trkpt>
      <trkpt lat="44.11783" lon="1.78638">
        <ele>322.6</ele>
        <time>2016-08-27T10:11:04Z</time>
      </trkpt>
      <trkpt lat="44.11792" lon="1.78639">
        <ele>322.3</ele>
        <time>2016-08-27T10:11:05Z</time>
      </trkpt>
      <trkpt lat="44.11797" lon="1.7864">
        <ele>322.5</ele>
        <time>2016-08-27T10:11:06Z</time>
      </trkpt>
      <trkpt lat="44.11805" lon="1.7864">
        <ele>322.7</ele>
        <time>2016-08-27T10:11:07Z</time>
      </trkpt>
      <trkpt lat="44.1181" lon="1.78639">
        <ele>322.9</ele>
        <time>2016-08-27T10:11:08Z</time>
      </trkpt>
      <trkpt lat="44.11815" lon="1.78638">
        <ele>323</ele>
        <time>2016-08-27T10:11:09Z</time>
      </trkpt>
      <trkpt lat="44.11821" lon="1.78639">
        <ele>323.2</ele>
        <time>2016-08-27T10:11:11Z</time>
      </trkpt>
      <trkpt lat="44.11826" lon="1.78639">
        <ele>323.4</ele>
        <time>2016-08-27T10:11:12Z</time>
      </trkpt>
      <trkpt lat="44.11829" lon="1.78639">
        <ele>323.5</ele>
        <time>2016-08-27T10:11:13Z</time>
      </trkpt>
      <trkpt lat="44.11836" lon="1.7864">
        <ele>323.7</ele>
        <time>2016-08-27T10:11:14Z</time>
      </trkpt>
      <trkpt lat="44.1184" lon="1.78641">
        <ele>323.8</ele>
        <time>2016-08-27T10:11:15Z</time>
      </trkpt>
      <trkpt lat="44.11845" lon="1.78642">
        <ele>323.9</ele>
        <time>2016-08-27T10:11:16Z</time>
      </trkpt>
      <trkpt lat="44.11849" lon="1.78642">
        <ele>324.1</ele>
        <time>2016-08-27T10:11:17Z</time>
      </trkpt>
      <trkpt lat="44.11856" lon="1.78642">
        <ele>324.2</ele>
        <time>2016-08-27T10:11:18Z</time>
      </trkpt>
      <trkpt lat="44.11861" lon="1.78642">
        <ele>324.4</ele>
        <time>2016-08-27T10:11:19Z</time>
      </trkpt>
      <trkpt lat="44.11864" lon="1.78642">
        <ele>324.5</ele>
        <time>2016-08-27T10:11:20Z</time>
      </trkpt>
      <trkpt lat="44.1187" lon="1.78642">
        <ele>324.7</ele>
        <time>2016-08-27T10:11:21Z</time>
      </trkpt>
      <trkpt lat="44.11875" lon="1.78642">
        <ele>324.8</ele>
        <time>2016-08-27T10:11:22Z</time>
      </trkpt>
      <trkpt lat="44.11881" lon="1.78642">
        <ele>324.6</ele>
        <time>2016-08-27T10:11:23Z</time>
      </trkpt>
      <trkpt lat="44.11887" lon="1.78642">
        <ele>324.5</ele>
        <time>2016-08-27T10:11:24Z</time>
      </trkpt>
      <trkpt lat="44.11893" lon="1.78642">
        <ele>324.3</ele>
        <time>2016-08-27T10:11:25Z</time>
      </trkpt>
      <trkpt lat="44.11898" lon="1.78642">
        <ele>324.2</ele>
        <time>2016-08-27T10:11:26Z</time>
      </trkpt>
      <trkpt lat="44.11903" lon="1.78641">
        <ele>324.1</ele>
        <time>2016-08-27T10:11:27Z</time>
      </trkpt>
      <trkpt lat="44.11907" lon="1.7864">
        <ele>323.9</ele>
        <time>2016-08-27T10:11:28Z</time>
      </trkpt>
      <trkpt lat="44.11913" lon="1.7864">
        <ele>323.8</ele>
        <time>2016-08-27T10:11:29Z</time>
      </trkpt>
      <trkpt lat="44.11919" lon="1.7864">
        <ele>323.6</ele>
        <time>2016-08-27T10:11:30Z</time>
      </trkpt>
      <trkpt lat="44.11924" lon="1.7864">
        <ele>323.5</ele>
        <time>2016-08-27T10:11:31Z</time>
      </trkpt>
      <trkpt lat="44.11929" lon="1.78639">
        <ele>323.3</ele>
        <time>2016-08-27T10:11:32Z</time>
      </trkpt>
      <trkpt lat="44.11935" lon="1.78638">
        <ele>323.1</ele>
        <time>2016-08-27T10:11:33Z</time>
      </trkpt>
      <trkpt lat="44.1194" lon="1.78638">
        <ele>323</ele>
        <time>2016-08-27T10:11:34Z</time>
      </trkpt>
      <trkpt lat="44.11945" lon="1.78639">
        <ele>322.9</ele>
        <time>2016-08-27T10:11:35Z</time>
      </trkpt>
      <trkpt lat="44.1195" lon="1.7864">
        <ele>322.8</ele>
        <time>2016-08-27T10:11:36Z</time>
      </trkpt>
      <trkpt lat="44.11955" lon="1.78641">
        <ele>322.6</ele>
        <time>2016-08-27T10:11:37Z</time>
      </trkpt>
      <trkpt lat="44.1196" lon="1.78641">
        <ele>322.6</ele>
        <time>2016-08-27T10:11:38Z</time>
      </trkpt>
      <trkpt lat="44.11966" lon="1.7864">
        <ele>322.8</ele>
        <time>2016-08-27T10:11:39Z</time>
      </trkpt>
      <trkpt lat="44.11969" lon="1.78643">
        <ele>323</ele>
        <time>2016-08-27T10:11:41Z</time>
      </trkpt>
      <trkpt lat="44.11979" lon="1.78642">
        <ele>323.3</ele>
        <time>2016-08-27T10:11:43Z</time>
      </trkpt>
      <trkpt lat="44.11984" lon="1.78641">
        <ele>323.4</ele>
        <time>2016-08-27T10:11:44Z</time>
      </trkpt>
      <trkpt lat="44.11989" lon="1.78641">
        <ele>323.6</ele>
        <time>2016-08-27T10:11:45Z</time>
      </trkpt>
      <trkpt lat="44.11994" lon="1.78641">
        <ele>323.8</ele>
        <time>2016-08-27T10:11:46Z</time>
      </trkpt>
      <trkpt lat="44.11998" lon="1.78642">
        <ele>323.9</ele>
        <time>2016-08-27T10:11:47Z</time>
      </trkpt>
      <trkpt lat="44.12007" lon="1.78641">
        <ele>324.2</ele>
        <time>2016-08-27T10:11:48Z</time>
      </trkpt>
      <trkpt lat="44.12013" lon="1.78641">
        <ele>324.4</ele>
        <time>2016-08-27T10:11:49Z</time>
      </trkpt>
      <trkpt lat="44.12016" lon="1.78641">
        <ele>324.5</ele>
        <time>2016-08-27T10:11:50Z</time>
      </trkpt>
      <trkpt lat="44.12019" lon="1.78642">
        <ele>324.6</ele>
        <time>2016-08-27T10:11:51Z</time>
      </trkpt>
      <trkpt lat="44.12023" lon="1.78641">
        <ele>324.8</ele>
        <time>2016-08-27T10:11:52Z</time>
      </trkpt>
      <trkpt lat="44.1203" lon="1.78638">
        <ele>324.9</ele>
        <time>2016-08-27T10:11:53Z</time>
      </trkpt>
      <trkpt lat="44.12036" lon="1.78638">
        <ele>325.1</ele>
        <time>2016-08-27T10:11:54Z</time>
      </trkpt>
      <trkpt lat="44.12041" lon="1.78639">
        <ele>325.3</ele>
        <time>2016-08-27T10:11:55Z</time>
      </trkpt>
      <trkpt lat="44.12047" lon="1.78639">
        <ele>325.7</ele>
        <time>2016-08-27T10:11:57Z</time>
      </trkpt>
      <trkpt lat="44.12053" lon="1.7864">
        <ele>326</ele>
        <time>2016-08-27T10:11:58Z</time>
      </trkpt>
      <trkpt lat="44.12059" lon="1.7864">
        <ele>326.3</ele>
        <time>2016-08-27T10:11:59Z</time>
      </trkpt>
      <trkpt lat="44.12063" lon="1.7864">
        <ele>326.5</ele>
        <time>2016-08-27T10:12:00Z</time>
      </trkpt>
      <trkpt lat="44.12068" lon="1.78642">
        <ele>326.8</ele>
        <time>2016-08-27T10:12:01Z</time>
      </trkpt>
      <trkpt lat="44.12071" lon="1.78643">
        <ele>327</ele>
        <time>2016-08-27T10:12:02Z</time>
      </trkpt>
      <trkpt lat="44.12076" lon="1.78644">
        <ele>327.3</ele>
        <time>2016-08-27T10:12:03Z</time>
      </trkpt>
      <trkpt lat="44.12079" lon="1.78644">
        <ele>327.5</ele>
        <time>2016-08-27T10:12:04Z</time>
      </trkpt>
      <trkpt lat="44.12083" lon="1.78644">
        <ele>327.7</ele>
        <time>2016-08-27T10:12:05Z</time>
      </trkpt>
      <trkpt lat="44.12088" lon="1.78644">
        <ele>328</ele>
        <time>2016-08-27T10:12:06Z</time>
      </trkpt>
      <trkpt lat="44.12092" lon="1.78645">
        <ele>328.2</ele>
        <time>2016-08-27T10:12:07Z</time>
      </trkpt>
      <trkpt lat="44.12097" lon="1.78646">
        <ele>328.5</ele>
        <time>2016-08-27T10:12:08Z</time>
      </trkpt>
      <trkpt lat="44.12102" lon="1.78646">
        <ele>328.7</ele>
        <time>2016-08-27T10:12:09Z</time>
      </trkpt>
      <trkpt lat="44.12107" lon="1.78645">
        <ele>329</ele>
        <time>2016-08-27T10:12:10Z</time>
      </trkpt>
      <trkpt lat="44.12113" lon="1.78646">
        <ele>329.3</ele>
        <time>2016-08-27T10:12:11Z</time>
      </trkpt>
      <trkpt lat="44.12119" lon="1.78644">
        <ele>329.7</ele>
        <time>2016-08-27T10:12:12Z</time>
      </trkpt>
      <trkpt lat="44.12123" lon="1.78644">
        <ele>329.9</ele>
        <time>2016-08-27T10:12:13Z</time>
      </trkpt>
      <trkpt lat="44.12129" lon="1.78645">
        <ele>329.9</ele>
        <time>2016-08-27T10:12:14Z</time>
      </trkpt>
      <trkpt lat="44.12135" lon="1.78645">
        <ele>329.7</ele>
        <time>2016-08-27T10:12:15Z</time>
      </trkpt>
      <trkpt lat="44.12141" lon="1.78646">
        <ele>329.6</ele>
        <time>2016-08-27T10:12:16Z</time>
      </trkpt>
      <trkpt lat="44.12148" lon="1.78646">
        <ele>329.4</ele>
        <time>2016-08-27T10:12:17Z</time>
      </trkpt>
      <trkpt lat="44.12154" lon="1.78644">
        <ele>329.2</ele>
        <time>2016-08-27T10:12:18Z</time>
      </trkpt>
      <trkpt lat="44.12161" lon="1.78644">
        <ele>329</ele>
        <time>2016-08-27T10:12:19Z</time>
      </trkpt>
      <trkpt lat="44.12168" lon="1.78643">
        <ele>328.8</ele>
        <time>2016-08-27T10:12:20Z</time>
      </trkpt>
      <trkpt lat="44.12174" lon="1.78642">
        <ele>328.7</ele>
        <time>2016-08-27T10:12:21Z</time>
      </trkpt>
      <trkpt lat="44.12181" lon="1.78642">
        <ele>328.5</ele>
        <time>2016-08-27T10:12:22Z</time>
      </trkpt>
      <trkpt lat="44.1219" lon="1.78643">
        <ele>328.3</ele>
        <time>2016-08-27T10:12:23Z</time>
      </trkpt>
      <trkpt lat="44.12196" lon="1.78642">
        <ele>328.1</ele>
        <time>2016-08-27T10:12:24Z</time>
      </trkpt>
      <trkpt lat="44.12204" lon="1.78642">
        <ele>327.9</ele>
        <time>2016-08-27T10:12:25Z</time>
      </trkpt>
      <trkpt lat="44.12212" lon="1.78642">
        <ele>327.7</ele>
        <time>2016-08-27T10:12:26Z</time>
      </trkpt>
      <trkpt lat="44.12218" lon="1.7864">
        <ele>327.5</ele>
        <time>2016-08-27T10:12:27Z</time>
      </trkpt>
      <trkpt lat="44.12226" lon="1.78637">
        <ele>327.3</ele>
        <time>2016-08-27T10:12:28Z</time>
      </trkpt>
      <trkpt lat="44.12234" lon="1.78638">
        <ele>327</ele>
        <time>2016-08-27T10:12:29Z</time>
      </trkpt>
      <trkpt lat="44.12242" lon="1.78638">
        <ele>326.8</ele>
        <time>2016-08-27T10:12:30Z</time>
      </trkpt>
      <trkpt lat="44.12248" lon="1.7864">
        <ele>326.6</ele>
        <time>2016-08-27T10:12:31Z</time>
      </trkpt>
      <trkpt lat="44.12255" lon="1.78641">
        <ele>326.3</ele>
        <time>2016-08-27T10:12:32Z</time>
      </trkpt>
      <trkpt lat="44.12261" lon="1.78641">
        <ele>326.2</ele>
        <time>2016-08-27T10:12:33Z</time>
      </trkpt>
      <trkpt lat="44.12266" lon="1.78641">
        <ele>326</ele>
        <time>2016-08-27T10:12:34Z</time>
      </trkpt>
      <trkpt lat="44.12272" lon="1.78642">
        <ele>325.8</ele>
        <time>2016-08-27T10:12:35Z</time>
      </trkpt>
      <trkpt lat="44.12278" lon="1.78642">
        <ele>325.6</ele>
        <time>2016-08-27T10:12:36Z</time>
      </trkpt>
      <trkpt lat="44.12283" lon="1.78642">
        <ele>325.5</ele>
        <time>2016-08-27T10:12:37Z</time>
      </trkpt>
      <trkpt lat="44.1229" lon="1.78643">
        <ele>325.3</ele>
        <time>2016-08-27T10:12:38Z</time>
      </trkpt>
      <trkpt lat="44.12296" lon="1.78643">
        <ele>325.5</ele>
        <time>2016-08-27T10:12:39Z</time>
      </trkpt>
      <trkpt lat="44.12302" lon="1.78642">
        <ele>325.8</ele>
        <time>2016-08-27T10:12:40Z</time>
      </trkpt>
      <trkpt lat="44.12308" lon="1.78641">
        <ele>326.1</ele>
        <time>2016-08-27T10:12:41Z</time>
      </trkpt>
      <trkpt lat="44.12313" lon="1.7864">
        <ele>326.4</ele>
        <time>2016-08-27T10:12:42Z</time>
      </trkpt>
      <trkpt lat="44.12317" lon="1.78638">
        <ele>326.6</ele>
        <time>2016-08-27T10:12:43Z</time>
      </trkpt>
      <trkpt lat="44.12321" lon="1.78638">
        <ele>326.9</ele>
        <time>2016-08-27T10:12:44Z</time>
      </trkpt>
      <trkpt lat="44.12326" lon="1.78638">
        <ele>327.1</ele>
        <time>2016-08-27T10:12:45Z</time>
      </trkpt>
      <trkpt lat="44.1233" lon="1.78637">
        <ele>327.4</ele>
        <time>2016-08-27T10:12:46Z</time>
      </trkpt>
      <trkpt lat="44.12335" lon="1.78636">
        <ele>327.7</ele>
        <time>2016-08-27T10:12:47Z</time>
      </trkpt>
      <trkpt lat="44.12341" lon="1.78638">
        <ele>328</ele>
        <time>2016-08-27T10:12:48Z</time>
      </trkpt>
      <trkpt lat="44.12347" lon="1.78637">
        <ele>328.3</ele>
        <time>2016-08-27T10:12:49Z</time>
      </trkpt>
      <trkpt lat="44.12351" lon="1.78638">
        <ele>328.6</ele>
        <time>2016-08-27T10:12:50Z</time>
      </trkpt>
      <trkpt lat="44.12354" lon="1.78638">
        <ele>328.8</ele>
        <time>2016-08-27T10:12:51Z</time>
      </trkpt>
      <trkpt lat="44.12359" lon="1.7864">
        <ele>329</ele>
        <time>2016-08-27T10:12:52Z</time>
      </trkpt>
      <trkpt lat="44.12363" lon="1.78641">
        <ele>329.3</ele>
        <time>2016-08-27T10:12:53Z</time>
      </trkpt>
      <trkpt lat="44.12368" lon="1.78641">
        <ele>329.6</ele>
        <time>2016-08-27T10:12:54Z</time>
      </trkpt>
      <trkpt lat="44.12372" lon="1.78642">
        <ele>329.8</ele>
        <time>2016-08-27T10:12:55Z</time>
      </trkpt>
      <trkpt lat="44.12379" lon="1.78643">
        <ele>330.1</ele>
        <time>2016-08-27T10:12:57Z</time>
      </trkpt>
      <trkpt lat="44.12384" lon="1.78643">
        <ele>330.3</ele>
        <time>2016-08-27T10:12:58Z</time>
      </trkpt>
      <trkpt lat="44.12389" lon="1.78644">
        <ele>330.5</ele>
        <time>2016-08-27T10:12:59Z</time>
      </trkpt>
      <trkpt lat="44.12397" lon="1.78643">
        <ele>330.7</ele>
        <time>2016-08-27T10:13:01Z</time>
      </trkpt>
      <trkpt lat="44.12401" lon="1.78643">
        <ele>330.9</ele>
        <time>2016-08-27T10:13:02Z</time>
      </trkpt>
      <trkpt lat="44.12403" lon="1.78639">
        <ele>330.9</ele>
        <time>2016-08-27T10:13:03Z</time>
      </trkpt>
      <trkpt lat="44.12406" lon="1.78638">
        <ele>331</ele>
        <time>2016-08-27T10:13:04Z</time>
      </trkpt>
      <trkpt lat="44.1241" lon="1.78637">
        <ele>331.2</ele>
        <time>2016-08-27T10:13:05Z</time>
      </trkpt>
      <trkpt lat="44.12414" lon="1.78637">
        <ele>331.3</ele>
        <time>2016-08-27T10:13:06Z</time>
      </trkpt>
      <trkpt lat="44.12418" lon="1.78637">
        <ele>331.5</ele>
        <time>2016-08-27T10:13:07Z</time>
      </trkpt>
      <trkpt lat="44.12421" lon="1.78638">
        <ele>331.6</ele>
        <time>2016-08-27T10:13:08Z</time>
      </trkpt>
      <trkpt lat="44.12425" lon="1.78639">
        <ele>331.7</ele>
        <time>2016-08-27T10:13:09Z</time>
      </trkpt>
      <trkpt lat="44.12428" lon="1.78639">
        <ele>331.8</ele>
        <time>2016-08-27T10:13:10Z</time>
      </trkpt>
      <trkpt lat="44.12432" lon="1.7864">
        <ele>331.9</ele>
        <time>2016-08-27T10:13:11Z</time>
      </trkpt>
      <trkpt lat="44.12436" lon="1.7864">
        <ele>332.1</ele>
        <time>2016-08-27T10:13:12Z</time>
      </trkpt>
      <trkpt lat="44.1244" lon="1.78639">
        <ele>332.2</ele>
        <time>2016-08-27T10:13:13Z</time>
      </trkpt>
      <trkpt lat="44.12444" lon="1.78639">
        <ele>332.4</ele>
        <time>2016-08-27T10:13:14Z</time>
      </trkpt>
      <trkpt lat="44.12453" lon="1.78638">
        <ele>332.7</ele>
        <time>2016-08-27T10:13:15Z</time>
      </trkpt>
      <trkpt lat="44.12458" lon="1.78639">
        <ele>332.8</ele>
        <time>2016-08-27T10:13:16Z</time>
      </trkpt>
      <trkpt lat="44.12462" lon="1.78639">
        <ele>332.7</ele>
        <time>2016-08-27T10:13:17Z</time>
      </trkpt>
      <trkpt lat="44.12466" lon="1.78639">
        <ele>332.6</ele>
        <time>2016-08-27T10:13:18Z</time>
      </trkpt>
      <trkpt lat="44.12472" lon="1.78639">
        <ele>332.3</ele>
        <time>2016-08-27T10:13:19Z</time>
      </trkpt>
      <trkpt lat="44.12478" lon="1.78636">
        <ele>332.2</ele>
        <time>2016-08-27T10:13:20Z</time>
      </trkpt>
      <trkpt lat="44.12484" lon="1.78637">
        <ele>332</ele>
        <time>2016-08-27T10:13:21Z</time>
      </trkpt>
      <trkpt lat="44.1249" lon="1.78638">
        <ele>331.7</ele>
        <time>2016-08-27T10:13:22Z</time>
      </trkpt>
      <trkpt lat="44.12497" lon="1.78637">
        <ele>331.5</ele>
        <time>2016-08-27T10:13:23Z</time>
      </trkpt>
      <trkpt lat="44.12501" lon="1.78638">
        <ele>331.3</ele>
        <time>2016-08-27T10:13:24Z</time>
      </trkpt>
      <trkpt lat="44.12507" lon="1.78638">
        <ele>331.1</ele>
        <time>2016-08-27T10:13:25Z</time>
      </trkpt>
      <trkpt lat="44.12513" lon="1.78639">
        <ele>330.9</ele>
        <time>2016-08-27T10:13:26Z</time>
      </trkpt>
      <trkpt lat="44.12518" lon="1.78639">
        <ele>330.7</ele>
        <time>2016-08-27T10:13:27Z</time>
      </trkpt>
      <trkpt lat="44.12524" lon="1.78639">
        <ele>330.5</ele>
        <time>2016-08-27T10:13:28Z</time>
      </trkpt>
      <trkpt lat="44.12531" lon="1.78639">
        <ele>330.2</ele>
        <time>2016-08-27T10:13:29Z</time>
      </trkpt>
      <trkpt lat="44.12538" lon="1.78639">
        <ele>330</ele>
        <time>2016-08-27T10:13:30Z</time>
      </trkpt>
      <trkpt lat="44.12545" lon="1.78637">
        <ele>329.8</ele>
        <time>2016-08-27T10:13:31Z</time>
      </trkpt>
      <trkpt lat="44.1255" lon="1.78636">
        <ele>329.8</ele>
        <time>2016-08-27T10:13:32Z</time>
      </trkpt>
      <trkpt lat="44.12556" lon="1.78637">
        <ele>329.7</ele>
        <time>2016-08-27T10:13:33Z</time>
      </trkpt>
      <trkpt lat="44.12561" lon="1.78639">
        <ele>329.7</ele>
        <time>2016-08-27T10:13:34Z</time>
      </trkpt>
      <trkpt lat="44.12566" lon="1.78642">
        <ele>329.6</ele>
        <time>2016-08-27T10:13:35Z</time>
      </trkpt>
      <trkpt lat="44.12572" lon="1.78641">
        <ele>329.6</ele>
        <time>2016-08-27T10:13:36Z</time>
      </trkpt>
      <trkpt lat="44.12579" lon="1.78641">
        <ele>329.5</ele>
        <time>2016-08-27T10:13:37Z</time>
      </trkpt>
      <trkpt lat="44.12586" lon="1.7864">
        <ele>329.5</ele>
        <time>2016-08-27T10:13:38Z</time>
      </trkpt>
      <trkpt lat="44.12593" lon="1.78642">
        <ele>329.4</ele>
        <time>2016-08-27T10:13:39Z</time>
      </trkpt>
      <trkpt lat="44.12601" lon="1.78641">
        <ele>329.4</ele>
        <time>2016-08-27T10:13:40Z</time>
      </trkpt>
      <trkpt lat="44.12608" lon="1.78643">
        <ele>329.3</ele>
        <time>2016-08-27T10:13:41Z</time>
      </trkpt>
      <trkpt lat="44.12615" lon="1.78643">
        <ele>329.3</ele>
        <time>2016-08-27T10:13:42Z</time>
      </trkpt>
      <trkpt lat="44.12621" lon="1.78642">
        <ele>329.2</ele>
        <time>2016-08-27T10:13:43Z</time>
      </trkpt>
      <trkpt lat="44.12629" lon="1.78643">
        <ele>329.1</ele>
        <time>2016-08-27T10:13:44Z</time>
      </trkpt>
      <trkpt lat="44.12634" lon="1.78642">
        <ele>329</ele>
        <time>2016-08-27T10:13:45Z</time>
      </trkpt>
      <trkpt lat="44.1264" lon="1.78643">
        <ele>328.8</ele>
        <time>2016-08-27T10:13:46Z</time>
      </trkpt>
      <trkpt lat="44.12646" lon="1.78645">
        <ele>328.7</ele>
        <time>2016-08-27T10:13:47Z</time>
      </trkpt>
      <trkpt lat="44.12654" lon="1.78642">
        <ele>328.4</ele>
        <time>2016-08-27T10:13:48Z</time>
      </trkpt>
      <trkpt lat="44.1266" lon="1.78642">
        <ele>328.3</ele>
        <time>2016-08-27T10:13:49Z</time>
      </trkpt>
      <trkpt lat="44.1267" lon="1.78642">
        <ele>328</ele>
        <time>2016-08-27T10:13:50Z</time>
      </trkpt>
      <trkpt lat="44.1268" lon="1.78641">
        <ele>327.7</ele>
        <time>2016-08-27T10:13:51Z</time>
      </trkpt>
      <trkpt lat="44.12686" lon="1.78643">
        <ele>327.6</ele>
        <time>2016-08-27T10:13:52Z</time>
      </trkpt>
      <trkpt lat="44.12694" lon="1.78643">
        <ele>327.4</ele>
        <time>2016-08-27T10:13:53Z</time>
      </trkpt>
      <trkpt lat="44.12701" lon="1.78643">
        <ele>327.2</ele>
        <time>2016-08-27T10:13:54Z</time>
      </trkpt>
      <trkpt lat="44.12708" lon="1.78643">
        <ele>327</ele>
        <time>2016-08-27T10:13:55Z</time>
      </trkpt>
      <trkpt lat="44.12717" lon="1.78643">
        <ele>326.7</ele>
        <time>2016-08-27T10:13:56Z</time>
      </trkpt>
      <trkpt lat="44.12726" lon="1.78644">
        <ele>326.4</ele>
        <time>2016-08-27T10:13:57Z</time>
      </trkpt>
      <trkpt lat="44.12734" lon="1.78643">
        <ele>326.1</ele>
        <time>2016-08-27T10:13:58Z</time>
      </trkpt>
      <trkpt lat="44.1274" lon="1.78644">
        <ele>325.9</ele>
        <time>2016-08-27T10:13:59Z</time>
      </trkpt>
      <trkpt lat="44.12748" lon="1.78646">
        <ele>325.7</ele>
        <time>2016-08-27T10:14:00Z</time>
      </trkpt>
      <trkpt lat="44.12757" lon="1.78644">
        <ele>325.4</ele>
        <time>2016-08-27T10:14:01Z</time>
      </trkpt>
      <trkpt lat="44.12763" lon="1.78644">
        <ele>325.2</ele>
        <time>2016-08-27T10:14:02Z</time>
      </trkpt>
      <trkpt lat="44.1277" lon="1.78644">
        <ele>325</ele>
        <time>2016-08-27T10:14:03Z</time>
      </trkpt>
      <trkpt lat="44.12776" lon="1.78645">
        <ele>324.8</ele>
        <time>2016-08-27T10:14:04Z</time>
      </trkpt>
      <trkpt lat="44.12784" lon="1.78646">
        <ele>324.5</ele>
        <time>2016-08-27T10:14:05Z</time>
      </trkpt>
      <trkpt lat="44.12793" lon="1.78645">
        <ele>324.3</ele>
        <time>2016-08-27T10:14:06Z</time>
      </trkpt>
      <trkpt lat="44.12801" lon="1.78645">
        <ele>324.3</ele>
        <time>2016-08-27T10:14:07Z</time>
      </trkpt>
      <trkpt lat="44.12809" lon="1.78645">
        <ele>324.4</ele>
        <time>2016-08-27T10:14:08Z</time>
      </trkpt>
      <trkpt lat="44.12817" lon="1.78644">
        <ele>324.5</ele>
        <time>2016-08-27T10:14:09Z</time>
      </trkpt>
      <trkpt lat="44.12823" lon="1.78645">
        <ele>324.6</ele>
        <time>2016-08-27T10:14:10Z</time>
      </trkpt>
      <trkpt lat="44.12831" lon="1.78645">
        <ele>324.7</ele>
        <time>2016-08-27T10:14:11Z</time>
      </trkpt>
      <trkpt lat="44.12836" lon="1.78643">
        <ele>324.7</ele>
        <time>2016-08-27T10:14:12Z</time>
      </trkpt>
      <trkpt lat="44.12842" lon="1.78645">
        <ele>324.8</ele>
        <time>2016-08-27T10:14:13Z</time>
      </trkpt>
      <trkpt lat="44.1285" lon="1.78646">
        <ele>324.9</ele>
        <time>2016-08-27T10:14:14Z</time>
      </trkpt>
      <trkpt lat="44.12855" lon="1.78646">
        <ele>325</ele>
        <time>2016-08-27T10:14:15Z</time>
      </trkpt>
      <trkpt lat="44.12863" lon="1.78644">
        <ele>325.1</ele>
        <time>2016-08-27T10:14:16Z</time>
      </trkpt>
      <trkpt lat="44.1287" lon="1.78642">
        <ele>325.1</ele>
        <time>2016-08-27T10:14:17Z</time>
      </trkpt>
      <trkpt lat="44.12877" lon="1.78642">
        <ele>325.2</ele>
        <time>2016-08-27T10:14:18Z</time>
      </trkpt>
      <trkpt lat="44.12883" lon="1.78641">
        <ele>325.4</ele>
        <time>2016-08-27T10:14:19Z</time>
      </trkpt>
      <trkpt lat="44.12889" lon="1.7864">
        <ele>325.5</ele>
        <time>2016-08-27T10:14:20Z</time>
      </trkpt>
      <trkpt lat="44.12896" lon="1.78638">
        <ele>325.7</ele>
        <time>2016-08-27T10:14:21Z</time>
      </trkpt>
      <trkpt lat="44.12901" lon="1.78641">
        <ele>325.8</ele>
        <time>2016-08-27T10:14:22Z</time>
      </trkpt>
      <trkpt lat="44.12905" lon="1.78643">
        <ele>325.9</ele>
        <time>2016-08-27T10:14:23Z</time>
      </trkpt>
      <trkpt lat="44.12909" lon="1.78644">
        <ele>326</ele>
        <time>2016-08-27T10:14:24Z</time>
      </trkpt>
      <trkpt lat="44.12915" lon="1.78643">
        <ele>326.2</ele>
        <time>2016-08-27T10:14:25Z</time>
      </trkpt>
      <trkpt lat="44.12922" lon="1.78644">
        <ele>326.4</ele>
        <time>2016-08-27T10:14:27Z</time>
      </trkpt>
      <trkpt lat="44.12928" lon="1.78643">
        <ele>326.5</ele>
        <time>2016-08-27T10:14:28Z</time>
      </trkpt>
      <trkpt lat="44.12934" lon="1.78642">
        <ele>326.6</ele>
        <time>2016-08-27T10:14:29Z</time>
      </trkpt>
      <trkpt lat="44.12939" lon="1.78642">
        <ele>326.7</ele>
        <time>2016-08-27T10:14:30Z</time>
      </trkpt>
      <trkpt lat="44.12945" lon="1.78644">
        <ele>326.9</ele>
        <time>2016-08-27T10:14:31Z</time>
      </trkpt>
      <trkpt lat="44.12949" lon="1.78641">
        <ele>327</ele>
        <time>2016-08-27T10:14:32Z</time>
      </trkpt>
      <trkpt lat="44.12955" lon="1.7864">
        <ele>327.1</ele>
        <time>2016-08-27T10:14:33Z</time>
      </trkpt>
      <trkpt lat="44.1296" lon="1.7864">
        <ele>327.2</ele>
        <time>2016-08-27T10:14:34Z</time>
      </trkpt>
      <trkpt lat="44.12964" lon="1.78641">
        <ele>327.3</ele>
        <time>2016-08-27T10:14:35Z</time>
      </trkpt>
      <trkpt lat="44.12967" lon="1.78641">
        <ele>327.3</ele>
        <time>2016-08-27T10:14:36Z</time>
      </trkpt>
      <trkpt lat="44.12971" lon="1.7864">
        <ele>327.3</ele>
        <time>2016-08-27T10:14:37Z</time>
      </trkpt>
      <trkpt lat="44.12976" lon="1.78642">
        <ele>327.4</ele>
        <time>2016-08-27T10:14:38Z</time>
      </trkpt>
      <trkpt lat="44.12979" lon="1.78642">
        <ele>327.5</ele>
        <time>2016-08-27T10:14:39Z</time>
      </trkpt>
      <trkpt lat="44.12983" lon="1.78642">
        <ele>327.5</ele>
        <time>2016-08-27T10:14:40Z</time>
      </trkpt>
      <trkpt lat="44.12988" lon="1.78639">
        <ele>327.5</ele>
        <time>2016-08-27T10:14:41Z</time>
      </trkpt>
      <trkpt lat="44.12992" lon="1.7864">
        <ele>327.6</ele>
        <time>2016-08-27T10:14:42Z</time>
      </trkpt>
      <trkpt lat="44.12996" lon="1.78639">
        <ele>327.6</ele>
        <time>2016-08-27T10:14:43Z</time>
      </trkpt>
      <trkpt lat="44.13002" lon="1.7864">
        <ele>327.7</ele>
        <time>2016-08-27T10:14:44Z</time>
      </trkpt>
      <trkpt lat="44.13006" lon="1.78641">
        <ele>327.8</ele>
        <time>2016-08-27T10:14:45Z</time>
      </trkpt>
      <trkpt lat="44.13012" lon="1.78641">
        <ele>327.8</ele>
        <time>2016-08-27T10:14:46Z</time>
      </trkpt>
      <trkpt lat="44.13016" lon="1.78641">
        <ele>327.9</ele>
        <time>2016-08-27T10:14:47Z</time>
      </trkpt>
      <trkpt lat="44.1302" lon="1.78641">
        <ele>327.9</ele>
        <time>2016-08-27T10:14:48Z</time>
      </trkpt>
      <trkpt lat="44.13025" lon="1.78641">
        <ele>328</ele>
        <time>2016-08-27T10:14:49Z</time>
      </trkpt>
      <trkpt lat="44.13031" lon="1.78641">
        <ele>328.1</ele>
        <time>2016-08-27T10:14:50Z</time>
      </trkpt>
      <trkpt lat="44.13036" lon="1.78642">
        <ele>328.1</ele>
        <time>2016-08-27T10:14:51Z</time>
      </trkpt>
      <trkpt lat="44.13043" lon="1.78642">
        <ele>328.2</ele>
        <time>2016-08-27T10:14:52Z</time>
      </trkpt>
      <trkpt lat="44.13049" lon="1.78643">
        <ele>328.1</ele>
        <time>2016-08-27T10:14:53Z</time>
      </trkpt>
      <trkpt lat="44.13055" lon="1.78642">
        <ele>328</ele>
        <time>2016-08-27T10:14:54Z</time>
      </trkpt>
      <trkpt lat="44.13061" lon="1.78643">
        <ele>327.9</ele>
        <time>2016-08-27T10:14:55Z</time>
      </trkpt>
      <trkpt lat="44.13067" lon="1.78642">
        <ele>327.9</ele>
        <time>2016-08-27T10:14:56Z</time>
      </trkpt>
      <trkpt lat="44.13071" lon="1.78643">
        <ele>327.8</ele>
        <time>2016-08-27T10:14:57Z</time>
      </trkpt>
      <trkpt lat="44.13075" lon="1.78642">
        <ele>327.7</ele>
        <time>2016-08-27T10:14:58Z</time>
      </trkpt>
      <trkpt lat="44.1308" lon="1.78643">
        <ele>327.7</ele>
        <time>2016-08-27T10:14:59Z</time>
      </trkpt>
      <trkpt lat="44.13085" lon="1.78644">
        <ele>327.7</ele>
        <time>2016-08-27T10:15:00Z</time>
      </trkpt>
      <trkpt lat="44.13091" lon="1.78643">
        <ele>327.6</ele>
        <time>2016-08-27T10:15:01Z</time>
      </trkpt>
      <trkpt lat="44.13094" lon="1.78643">
        <ele>327.5</ele>
        <time>2016-08-27T10:15:02Z</time>
      </trkpt>
      <trkpt lat="44.13098" lon="1.78642">
        <ele>327.4</ele>
        <time>2016-08-27T10:15:03Z</time>
      </trkpt>
      <trkpt lat="44.13102" lon="1.78643">
        <ele>327.4</ele>
        <time>2016-08-27T10:15:04Z</time>
      </trkpt>
      <trkpt lat="44.13107" lon="1.78643">
        <ele>327.3</ele>
        <time>2016-08-27T10:15:05Z</time>
      </trkpt>
      <trkpt lat="44.13111" lon="1.78643">
        <ele>327.3</ele>
        <time>2016-08-27T10:15:06Z</time>
      </trkpt>
      <trkpt lat="44.13117" lon="1.78642">
        <ele>327.1</ele>
        <time>2016-08-27T10:15:07Z</time>
      </trkpt>
      <trkpt lat="44.13122" lon="1.78643">
        <ele>327.1</ele>
        <time>2016-08-27T10:15:08Z</time>
      </trkpt>
      <trkpt lat="44.13126" lon="1.78644">
        <ele>327.2</ele>
        <time>2016-08-27T10:15:09Z</time>
      </trkpt>
      <trkpt lat="44.13129" lon="1.78644">
        <ele>327.4</ele>
        <time>2016-08-27T10:15:10Z</time>
      </trkpt>
      <trkpt lat="44.13134" lon="1.78645">
        <ele>327.8</ele>
        <time>2016-08-27T10:15:11Z</time>
      </trkpt>
      <trkpt lat="44.13139" lon="1.78644">
        <ele>328</ele>
        <time>2016-08-27T10:15:12Z</time>
      </trkpt>
      <trkpt lat="44.13146" lon="1.78645">
        <ele>328.6</ele>
        <time>2016-08-27T10:15:14Z</time>
      </trkpt>
      <trkpt lat="44.13151" lon="1.78644">
        <ele>328.9</ele>
        <time>2016-08-27T10:15:15Z</time>
      </trkpt>
      <trkpt lat="44.13156" lon="1.78644">
        <ele>329.2</ele>
        <time>2016-08-27T10:15:16Z</time>
      </trkpt>
      <trkpt lat="44.1316" lon="1.78643">
        <ele>329.4</ele>
        <time>2016-08-27T10:15:17Z</time>
      </trkpt>
      <trkpt lat="44.13165" lon="1.78644">
        <ele>329.8</ele>
        <time>2016-08-27T10:15:18Z</time>
      </trkpt>
      <trkpt lat="44.1317" lon="1.78643">
        <ele>330.1</ele>
        <time>2016-08-27T10:15:20Z</time>
      </trkpt>
      <trkpt lat="44.13177" lon="1.78644">
        <ele>330.6</ele>
        <time>2016-08-27T10:15:22Z</time>
      </trkpt>
      <trkpt lat="44.13181" lon="1.78644">
        <ele>330.9</ele>
        <time>2016-08-27T10:15:23Z</time>
      </trkpt>
      <trkpt lat="44.13184" lon="1.78644">
        <ele>331.1</ele>
        <time>2016-08-27T10:15:24Z</time>
      </trkpt>
      <trkpt lat="44.13188" lon="1.78645">
        <ele>331.4</ele>
        <time>2016-08-27T10:15:25Z</time>
      </trkpt>
      <trkpt lat="44.13192" lon="1.78646">
        <ele>331.7</ele>
        <time>2016-08-27T10:15:26Z</time>
      </trkpt>
      <trkpt lat="44.13196" lon="1.78646">
        <ele>331.9</ele>
        <time>2016-08-27T10:15:27Z</time>
      </trkpt>
      <trkpt lat="44.13199" lon="1.78647">
        <ele>332.2</ele>
        <time>2016-08-27T10:15:28Z</time>
      </trkpt>
      <trkpt lat="44.13204" lon="1.78647">
        <ele>332.5</ele>
        <time>2016-08-27T10:15:29Z</time>
      </trkpt>
      <trkpt lat="44.13206" lon="1.78647">
        <ele>332.7</ele>
        <time>2016-08-27T10:15:30Z</time>
      </trkpt>
      <trkpt lat="44.13209" lon="1.78647">
        <ele>332.8</ele>
        <time>2016-08-27T10:15:31Z</time>
      </trkpt>
      <trkpt lat="44.13212" lon="1.78648">
        <ele>333</ele>
        <time>2016-08-27T10:15:32Z</time>
      </trkpt>
      <trkpt lat="44.13215" lon="1.78648">
        <ele>333.2</ele>
        <time>2016-08-27T10:15:33Z</time>
      </trkpt>
      <trkpt lat="44.13218" lon="1.78648">
        <ele>333.3</ele>
        <time>2016-08-27T10:15:34Z</time>
      </trkpt>
      <trkpt lat="44.13221" lon="1.78648">
        <ele>333.5</ele>
        <time>2016-08-27T10:15:35Z</time>
      </trkpt>
      <trkpt lat="44.13224" lon="1.78647">
        <ele>333.6</ele>
        <time>2016-08-27T10:15:36Z</time>
      </trkpt>
      <trkpt lat="44.13227" lon="1.78647">
        <ele>333.8</ele>
        <time>2016-08-27T10:15:37Z</time>
      </trkpt>
      <trkpt lat="44.1323" lon="1.78646">
        <ele>333.9</ele>
        <time>2016-08-27T10:15:38Z</time>
      </trkpt>
      <trkpt lat="44.13233" lon="1.78646">
        <ele>334.1</ele>
        <time>2016-08-27T10:15:39Z</time>
      </trkpt>
      <trkpt lat="44.13236" lon="1.78646">
        <ele>334.3</ele>
        <time>2016-08-27T10:15:40Z</time>
      </trkpt>
      <trkpt lat="44.13239" lon="1.78646">
        <ele>334.4</ele>
        <time>2016-08-27T10:15:41Z</time>
      </trkpt>
      <trkpt lat="44.13242" lon="1.78646">
        <ele>334.6</ele>
        <time>2016-08-27T10:15:42Z</time>
      </trkpt>
      <trkpt lat="44.13245" lon="1.78646">
        <ele>334.7</ele>
        <time>2016-08-27T10:15:43Z</time>
      </trkpt>
      <trkpt lat="44.13248" lon="1.78646">
        <ele>334.9</ele>
        <time>2016-08-27T10:15:44Z</time>
      </trkpt>
      <trkpt lat="44.13251" lon="1.78645">
        <ele>335</ele>
        <time>2016-08-27T10:15:45Z</time>
      </trkpt>
      <trkpt lat="44.13254" lon="1.78644">
        <ele>335.2</ele>
        <time>2016-08-27T10:15:46Z</time>
      </trkpt>
      <trkpt lat="44.13257" lon="1.78644">
        <ele>335.4</ele>
        <time>2016-08-27T10:15:47Z</time>
      </trkpt>
      <trkpt lat="44.1326" lon="1.78643">
        <ele>335.5</ele>
        <time>2016-08-27T10:15:48Z</time>
      </trkpt>
      <trkpt lat="44.13263" lon="1.78643">
        <ele>335.7</ele>
        <time>2016-08-27T10:15:49Z</time>
      </trkpt>
      <trkpt lat="44.13266" lon="1.78644">
        <ele>335.8</ele>
        <time>2016-08-27T10:15:50Z</time>
      </trkpt>
      <trkpt lat="44.1327" lon="1.78644">
        <ele>336</ele>
        <time>2016-08-27T10:15:51Z</time>
      </trkpt>
      <trkpt lat="44.13273" lon="1.78643">
        <ele>336.2</ele>
        <time>2016-08-27T10:15:52Z</time>
      </trkpt>
      <trkpt lat="44.13277" lon="1.78643">
        <ele>336.4</ele>
        <time>2016-08-27T10:15:53Z</time>
      </trkpt>
      <trkpt lat="44.1328" lon="1.78642">
        <ele>336.6</ele>
        <time>2016-08-27T10:15:54Z</time>
      </trkpt>
      <trkpt lat="44.13284" lon="1.78641">
        <ele>336.8</ele>
        <time>2016-08-27T10:15:55Z</time>
      </trkpt>
      <trkpt lat="44.13287" lon="1.78641">
        <ele>336.9</ele>
        <time>2016-08-27T10:15:56Z</time>
      </trkpt>
      <trkpt lat="44.13291" lon="1.78641">
        <ele>337.1</ele>
        <time>2016-08-27T10:15:57Z</time>
      </trkpt>
      <trkpt lat="44.13294" lon="1.78641">
        <ele>337.4</ele>
        <time>2016-08-27T10:15:58Z</time>
      </trkpt>
      <trkpt lat="44.13298" lon="1.78642">
        <ele>337.6</ele>
        <time>2016-08-27T10:15:59Z</time>
      </trkpt>
      <trkpt lat="44.13302" lon="1.78642">
        <ele>337.8</ele>
        <time>2016-08-27T10:16:00Z</time>
      </trkpt>
      <trkpt lat="44.13305" lon="1.78643">
        <ele>338</ele>
        <time>2016-08-27T10:16:01Z</time>
      </trkpt>
      <trkpt lat="44.13308" lon="1.78644">
        <ele>338.2</ele>
        <time>2016-08-27T10:16:02Z</time>
      </trkpt>
      <trkpt lat="44.13312" lon="1.78645">
        <ele>338.4</ele>
        <time>2016-08-27T10:16:03Z</time>
      </trkpt>
      <trkpt lat="44.13315" lon="1.78645">
        <ele>338.6</ele>
        <time>2016-08-27T10:16:04Z</time>
      </trkpt>
      <trkpt lat="44.13319" lon="1.78645">
        <ele>338.8</ele>
        <time>2016-08-27T10:16:05Z</time>
      </trkpt>
      <trkpt lat="44.13322" lon="1.78646">
        <ele>339</ele>
        <time>2016-08-27T10:16:06Z</time>
      </trkpt>
      <trkpt lat="44.13325" lon="1.78645">
        <ele>339.2</ele>
        <time>2016-08-27T10:16:07Z</time>
      </trkpt>
      <trkpt lat="44.13329" lon="1.78645">
        <ele>339.3</ele>
        <time>2016-08-27T10:16:08Z</time>
      </trkpt>
      <trkpt lat="44.13332" lon="1.78644">
        <ele>339.5</ele>
        <time>2016-08-27T10:16:09Z</time>
      </trkpt>
      <trkpt lat="44.13335" lon="1.78643">
        <ele>339.7</ele>
        <time>2016-08-27T10:16:10Z</time>
      </trkpt>
      <trkpt lat="44.13339" lon="1.78643">
        <ele>339.9</ele>
        <time>2016-08-27T10:16:11Z</time>
      </trkpt>
      <trkpt lat="44.13342" lon="1.78642">
        <ele>340.1</ele>
        <time>2016-08-27T10:16:12Z</time>
      </trkpt>
      <trkpt lat="44.13346" lon="1.78642">
        <ele>340.3</ele>
        <time>2016-08-27T10:16:13Z</time>
      </trkpt>
      <trkpt lat="44.13349" lon="1.78642">
        <ele>340.5</ele>
        <time>2016-08-27T10:16:14Z</time>
      </trkpt>
      <trkpt lat="44.13353" lon="1.78642">
        <ele>340.7</ele>
        <time>2016-08-27T10:16:15Z</time>
      </trkpt>
      <trkpt lat="44.13357" lon="1.78643">
        <ele>340.9</ele>
        <time>2016-08-27T10:16:16Z</time>
      </trkpt>
      <trkpt lat="44.13361" lon="1.78643">
        <ele>341.2</ele>
        <time>2016-08-27T10:16:17Z</time>
      </trkpt>
      <trkpt lat="44.13365" lon="1.78643">
        <ele>341.4</ele>
        <time>2016-08-27T10:16:18Z</time>
      </trkpt>
      <trkpt lat="44.13368" lon="1.78644">
        <ele>341.6</ele>
        <time>2016-08-27T10:16:19Z</time>
      </trkpt>
      <trkpt lat="44.13372" lon="1.78644">
        <ele>341.8</ele>
        <time>2016-08-27T10:16:20Z</time>
      </trkpt>
      <trkpt lat="44.13376" lon="1.78643">
        <ele>342</ele>
        <time>2016-08-27T10:16:21Z</time>
      </trkpt>
      <trkpt lat="44.13379" lon="1.78643">
        <ele>342.1</ele>
        <time>2016-08-27T10:16:22Z</time>
      </trkpt>
      <trkpt lat="44.13384" lon="1.78643">
        <ele>342.1</ele>
        <time>2016-08-27T10:16:23Z</time>
      </trkpt>
      <trkpt lat="44.13388" lon="1.78642">
        <ele>342.2</ele>
        <time>2016-08-27T10:16:24Z</time>
      </trkpt>
      <trkpt lat="44.13391" lon="1.78642">
        <ele>342.3</ele>
        <time>2016-08-27T10:16:25Z</time>
      </trkpt>
      <trkpt lat="44.13395" lon="1.78643">
        <ele>342.3</ele>
        <time>2016-08-27T10:16:26Z</time>
      </trkpt>
      <trkpt lat="44.13399" lon="1.78643">
        <ele>342.4</ele>
        <time>2016-08-27T10:16:27Z</time>
      </trkpt>
      <trkpt lat="44.13402" lon="1.78644">
        <ele>342.5</ele>
        <time>2016-08-27T10:16:28Z</time>
      </trkpt>
      <trkpt lat="44.13406" lon="1.78645">
        <ele>342.5</ele>
        <time>2016-08-27T10:16:29Z</time>
      </trkpt>
      <trkpt lat="44.13409" lon="1.78645">
        <ele>342.6</ele>
        <time>2016-08-27T10:16:30Z</time>
      </trkpt>
      <trkpt lat="44.13413" lon="1.78645">
        <ele>342.7</ele>
        <time>2016-08-27T10:16:31Z</time>
      </trkpt>
      <trkpt lat="44.13417" lon="1.78645">
        <ele>342.7</ele>
        <time>2016-08-27T10:16:32Z</time>
      </trkpt>
      <trkpt lat="44.13421" lon="1.78645">
        <ele>342.8</ele>
        <time>2016-08-27T10:16:33Z</time>
      </trkpt>
      <trkpt lat="44.13425" lon="1.78645">
        <ele>342.9</ele>
        <time>2016-08-27T10:16:34Z</time>
      </trkpt>
      <trkpt lat="44.13429" lon="1.78645">
        <ele>343</ele>
        <time>2016-08-27T10:16:35Z</time>
      </trkpt>
      <trkpt lat="44.13433" lon="1.78645">
        <ele>343</ele>
        <time>2016-08-27T10:16:36Z</time>
      </trkpt>
      <trkpt lat="44.13437" lon="1.78645">
        <ele>343.1</ele>
        <time>2016-08-27T10:16:37Z</time>
      </trkpt>
      <trkpt lat="44.13441" lon="1.78646">
        <ele>343.2</ele>
        <time>2016-08-27T10:16:38Z</time>
      </trkpt>
      <trkpt lat="44.13445" lon="1.78646">
        <ele>343.3</ele>
        <time>2016-08-27T10:16:39Z</time>
      </trkpt>
      <trkpt lat="44.13451" lon="1.78646">
        <ele>343.4</ele>
        <time>2016-08-27T10:16:40Z</time>
      </trkpt>
      <trkpt lat="44.13455" lon="1.78645">
        <ele>343.4</ele>
        <time>2016-08-27T10:16:41Z</time>
      </trkpt>
      <trkpt lat="44.1346" lon="1.78645">
        <ele>343.5</ele>
        <time>2016-08-27T10:16:42Z</time>
      </trkpt>
      <trkpt lat="44.13466" lon="1.78644">
        <ele>343.7</ele>
        <time>2016-08-27T10:16:43Z</time>
      </trkpt>
      <trkpt lat="44.13469" lon="1.78644">
        <ele>343.9</ele>
        <time>2016-08-27T10:16:44Z</time>
      </trkpt>
      <trkpt lat="44.13474" lon="1.78644">
        <ele>344</ele>
        <time>2016-08-27T10:16:45Z</time>
      </trkpt>
      <trkpt lat="44.13477" lon="1.78645">
        <ele>344.2</ele>
        <time>2016-08-27T10:16:46Z</time>
      </trkpt>
      <trkpt lat="44.1348" lon="1.78645">
        <ele>344.3</ele>
        <time>2016-08-27T10:16:47Z</time>
      </trkpt>
      <trkpt lat="44.13483" lon="1.78646">
        <ele>344.5</ele>
        <time>2016-08-27T10:16:48Z</time>
      </trkpt>
      <trkpt lat="44.13486" lon="1.78646">
        <ele>344.6</ele>
        <time>2016-08-27T10:16:49Z</time>
      </trkpt>
      <trkpt lat="44.13489" lon="1.78647">
        <ele>344.7</ele>
        <time>2016-08-27T10:16:50Z</time>
      </trkpt>
      <trkpt lat="44.13493" lon="1.78647">
        <ele>344.9</ele>
        <time>2016-08-27T10:16:51Z</time>
      </trkpt>
      <trkpt lat="44.13497" lon="1.78647">
        <ele>345</ele>
        <time>2016-08-27T10:16:52Z</time>
      </trkpt>
      <trkpt lat="44.13501" lon="1.78648">
        <ele>345.2</ele>
        <time>2016-08-27T10:16:53Z</time>
      </trkpt>
      <trkpt lat="44.13505" lon="1.78648">
        <ele>345.4</ele>
        <time>2016-08-27T10:16:54Z</time>
      </trkpt>
      <trkpt lat="44.13509" lon="1.78648">
        <ele>345.5</ele>
        <time>2016-08-27T10:16:55Z</time>
      </trkpt>
      <trkpt lat="44.13513" lon="1.78648">
        <ele>345.7</ele>
        <time>2016-08-27T10:16:56Z</time>
      </trkpt>
      <trkpt lat="44.13518" lon="1.78646">
        <ele>345.8</ele>
        <time>2016-08-27T10:16:57Z</time>
      </trkpt>
      <trkpt lat="44.13522" lon="1.78646">
        <ele>346</ele>
        <time>2016-08-27T10:16:58Z</time>
      </trkpt>
      <trkpt lat="44.13529" lon="1.78644">
        <ele>346.2</ele>
        <time>2016-08-27T10:16:59Z</time>
      </trkpt>
      <trkpt lat="44.13535" lon="1.78644">
        <ele>346.4</ele>
        <time>2016-08-27T10:17:00Z</time>
      </trkpt>
      <trkpt lat="44.1354" lon="1.78643">
        <ele>346.6</ele>
        <time>2016-08-27T10:17:01Z</time>
      </trkpt>
      <trkpt lat="44.13543" lon="1.78644">
        <ele>346.7</ele>
        <time>2016-08-27T10:17:02Z</time>
      </trkpt>
      <trkpt lat="44.13547" lon="1.78644">
        <ele>346.8</ele>
        <time>2016-08-27T10:17:03Z</time>
      </trkpt>
      <trkpt lat="44.1355" lon="1.78644">
        <ele>346.8</ele>
        <time>2016-08-27T10:17:04Z</time>
      </trkpt>
      <trkpt lat="44.13554" lon="1.78644">
        <ele>346.9</ele>
        <time>2016-08-27T10:17:05Z</time>
      </trkpt>
      <trkpt lat="44.13557" lon="1.78644">
        <ele>347</ele>
        <time>2016-08-27T10:17:06Z</time>
      </trkpt>
      <trkpt lat="44.13562" lon="1.78645">
        <ele>347.1</ele>
        <time>2016-08-27T10:17:07Z</time>
      </trkpt>
      <trkpt lat="44.13565" lon="1.78646">
        <ele>347.2</ele>
        <time>2016-08-27T10:17:08Z</time>
      </trkpt>
      <trkpt lat="44.1357" lon="1.78645">
        <ele>347.2</ele>
        <time>2016-08-27T10:17:09Z</time>
      </trkpt>
      <trkpt lat="44.13573" lon="1.78645">
        <ele>347.3</ele>
        <time>2016-08-27T10:17:10Z</time>
      </trkpt>
      <trkpt lat="44.13578" lon="1.78644">
        <ele>347.4</ele>
        <time>2016-08-27T10:17:11Z</time>
      </trkpt>
      <trkpt lat="44.13582" lon="1.78644">
        <ele>347.4</ele>
        <time>2016-08-27T10:17:12Z</time>
      </trkpt>
      <trkpt lat="44.13586" lon="1.78644">
        <ele>347.5</ele>
        <time>2016-08-27T10:17:13Z</time>
      </trkpt>
      <trkpt lat="44.1359" lon="1.78643">
        <ele>347.6</ele>
        <time>2016-08-27T10:17:14Z</time>
      </trkpt>
      <trkpt lat="44.13595" lon="1.78643">
        <ele>347.6</ele>
        <time>2016-08-27T10:17:15Z</time>
      </trkpt>
      <trkpt lat="44.13599" lon="1.78644">
        <ele>347.7</ele>
        <time>2016-08-27T10:17:16Z</time>
      </trkpt>
      <trkpt lat="44.13603" lon="1.78644">
        <ele>347.8</ele>
        <time>2016-08-27T10:17:17Z</time>
      </trkpt>
      <trkpt lat="44.13607" lon="1.78645">
        <ele>347.9</ele>
        <time>2016-08-27T10:17:18Z</time>
      </trkpt>
      <trkpt lat="44.13611" lon="1.78644">
        <ele>348</ele>
        <time>2016-08-27T10:17:19Z</time>
      </trkpt>
      <trkpt lat="44.13615" lon="1.78644">
        <ele>348</ele>
        <time>2016-08-27T10:17:20Z</time>
      </trkpt>
      <trkpt lat="44.13619" lon="1.78643">
        <ele>348.1</ele>
        <time>2016-08-27T10:17:21Z</time>
      </trkpt>
      <trkpt lat="44.13622" lon="1.78643">
        <ele>348.2</ele>
        <time>2016-08-27T10:17:22Z</time>
      </trkpt>
      <trkpt lat="44.13626" lon="1.78643">
        <ele>348.2</ele>
        <time>2016-08-27T10:17:23Z</time>
      </trkpt>
      <trkpt lat="44.1363" lon="1.78644">
        <ele>348.3</ele>
        <time>2016-08-27T10:17:24Z</time>
      </trkpt>
      <trkpt lat="44.13634" lon="1.78645">
        <ele>348.4</ele>
        <time>2016-08-27T10:17:25Z</time>
      </trkpt>
      <trkpt lat="44.13637" lon="1.78646">
        <ele>348.5</ele>
        <time>2016-08-27T10:17:26Z</time>
      </trkpt>
      <trkpt lat="44.13641" lon="1.78647">
        <ele>348.6</ele>
        <time>2016-08-27T10:17:27Z</time>
      </trkpt>
      <trkpt lat="44.13645" lon="1.78647">
        <ele>348.7</ele>
        <time>2016-08-27T10:17:28Z</time>
      </trkpt>
      <trkpt lat="44.13648" lon="1.78647">
        <ele>348.7</ele>
        <time>2016-08-27T10:17:29Z</time>
      </trkpt>
      <trkpt lat="44.13652" lon="1.78647">
        <ele>348.8</ele>
        <time>2016-08-27T10:17:30Z</time>
      </trkpt>
      <trkpt lat="44.13657" lon="1.78645">
        <ele>348.9</ele>
        <time>2016-08-27T10:17:32Z</time>
      </trkpt>
      <trkpt lat="44.1366" lon="1.78644">
        <ele>349</ele>
        <time>2016-08-27T10:17:33Z</time>
      </trkpt>
      <trkpt lat="44.13662" lon="1.78644">
        <ele>349</ele>
        <time>2016-08-27T10:17:34Z</time>
      </trkpt>
      <trkpt lat="44.13666" lon="1.78643">
        <ele>349.1</ele>
        <time>2016-08-27T10:17:35Z</time>
      </trkpt>
      <trkpt lat="44.13669" lon="1.78642">
        <ele>349.1</ele>
        <time>2016-08-27T10:17:36Z</time>
      </trkpt>
      <trkpt lat="44.13672" lon="1.78642">
        <ele>349.2</ele>
        <time>2016-08-27T10:17:37Z</time>
      </trkpt>
      <trkpt lat="44.13675" lon="1.78642">
        <ele>349.3</ele>
        <time>2016-08-27T10:17:38Z</time>
      </trkpt>
      <trkpt lat="44.13678" lon="1.78642">
        <ele>349.3</ele>
        <time>2016-08-27T10:17:39Z</time>
      </trkpt>
      <trkpt lat="44.13681" lon="1.78642">
        <ele>349.4</ele>
        <time>2016-08-27T10:17:40Z</time>
      </trkpt>
      <trkpt lat="44.13684" lon="1.78642">
        <ele>349.5</ele>
        <time>2016-08-27T10:17:41Z</time>
      </trkpt>
      <trkpt lat="44.13687" lon="1.78642">
        <ele>349.5</ele>
        <time>2016-08-27T10:17:42Z</time>
      </trkpt>
      <trkpt lat="44.13691" lon="1.78642">
        <ele>349.6</ele>
        <time>2016-08-27T10:17:43Z</time>
      </trkpt>
      <trkpt lat="44.13694" lon="1.78642">
        <ele>349.7</ele>
        <time>2016-08-27T10:17:44Z</time>
      </trkpt>
      <trkpt lat="44.13698" lon="1.78642">
        <ele>349.8</ele>
        <time>2016-08-27T10:17:45Z</time>
      </trkpt>
      <trkpt lat="44.13701" lon="1.78642">
        <ele>349.9</ele>
        <time>2016-08-27T10:17:46Z</time>
      </trkpt>
      <trkpt lat="44.13709" lon="1.78643">
        <ele>350</ele>
        <time>2016-08-27T10:17:47Z</time>
      </trkpt>
      <trkpt lat="44.13715" lon="1.78642">
        <ele>349.7</ele>
        <time>2016-08-27T10:17:48Z</time>
      </trkpt>
      <trkpt lat="44.1372" lon="1.78642">
        <ele>349.5</ele>
        <time>2016-08-27T10:17:49Z</time>
      </trkpt>
      <trkpt lat="44.13726" lon="1.78641">
        <ele>349.2</ele>
        <time>2016-08-27T10:17:50Z</time>
      </trkpt>
      <trkpt lat="44.13732" lon="1.7864">
        <ele>348.9</ele>
        <time>2016-08-27T10:17:51Z</time>
      </trkpt>
      <trkpt lat="44.13739" lon="1.78641">
        <ele>348.6</ele>
        <time>2016-08-27T10:17:52Z</time>
      </trkpt>
      <trkpt lat="44.13745" lon="1.78641">
        <ele>348.3</ele>
        <time>2016-08-27T10:17:53Z</time>
      </trkpt>
      <trkpt lat="44.13752" lon="1.78641">
        <ele>348</ele>
        <time>2016-08-27T10:17:54Z</time>
      </trkpt>
      <trkpt lat="44.1376" lon="1.78641">
        <ele>347.6</ele>
        <time>2016-08-27T10:17:55Z</time>
      </trkpt>
      <trkpt lat="44.13768" lon="1.78638">
        <ele>347.2</ele>
        <time>2016-08-27T10:17:56Z</time>
      </trkpt>
      <trkpt lat="44.13775" lon="1.78638">
        <ele>346.9</ele>
        <time>2016-08-27T10:17:57Z</time>
      </trkpt>
      <trkpt lat="44.13783" lon="1.78638">
        <ele>346.6</ele>
        <time>2016-08-27T10:17:58Z</time>
      </trkpt>
      <trkpt lat="44.13792" lon="1.78639">
        <ele>346.1</ele>
        <time>2016-08-27T10:17:59Z</time>
      </trkpt>
      <trkpt lat="44.13801" lon="1.7864">
        <ele>345.7</ele>
        <time>2016-08-27T10:18:00Z</time>
      </trkpt>
      <trkpt lat="44.1381" lon="1.78641">
        <ele>345.2</ele>
        <time>2016-08-27T10:18:01Z</time>
      </trkpt>
      <trkpt lat="44.13819" lon="1.78641">
        <ele>344.7</ele>
        <time>2016-08-27T10:18:02Z</time>
      </trkpt>
      <trkpt lat="44.1383" lon="1.78641">
        <ele>344.1</ele>
        <time>2016-08-27T10:18:03Z</time>
      </trkpt>
      <trkpt lat="44.13841" lon="1.78641">
        <ele>343.5</ele>
        <time>2016-08-27T10:18:04Z</time>
      </trkpt>
      <trkpt lat="44.13849" lon="1.7864">
        <ele>343</ele>
        <time>2016-08-27T10:18:05Z</time>
      </trkpt>
      <trkpt lat="44.13857" lon="1.78638">
        <ele>342.5</ele>
        <time>2016-08-27T10:18:06Z</time>
      </trkpt>
      <trkpt lat="44.13866" lon="1.78637">
        <ele>341.9</ele>
        <time>2016-08-27T10:18:07Z</time>
      </trkpt>
      <trkpt lat="44.13874" lon="1.78636">
        <ele>341.4</ele>
        <time>2016-08-27T10:18:08Z</time>
      </trkpt>
      <trkpt lat="44.13882" lon="1.78633">
        <ele>341.6</ele>
        <time>2016-08-27T10:18:09Z</time>
      </trkpt>
      <trkpt lat="44.13891" lon="1.78628">
        <ele>341.8</ele>
        <time>2016-08-27T10:18:10Z</time>
      </trkpt>
      <trkpt lat="44.13898" lon="1.78622">
        <ele>342.1</ele>
        <time>2016-08-27T10:18:11Z</time>
      </trkpt>
      <trkpt lat="44.13905" lon="1.78617">
        <ele>342.3</ele>
        <time>2016-08-27T10:18:12Z</time>
      </trkpt>
      <trkpt lat="44.13909" lon="1.78611">
        <ele>342.4</ele>
        <time>2016-08-27T10:18:13Z</time>
      </trkpt>
      <trkpt lat="44.13915" lon="1.78607">
        <ele>342.6</ele>
        <time>2016-08-27T10:18:14Z</time>
      </trkpt>
      <trkpt lat="44.1392" lon="1.78602">
        <ele>342.7</ele>
        <time>2016-08-27T10:18:15Z</time>
      </trkpt>
      <trkpt lat="44.13924" lon="1.78595">
        <ele>342.8</ele>
        <time>2016-08-27T10:18:16Z</time>
      </trkpt>
      <trkpt lat="44.13929" lon="1.7859">
        <ele>342.9</ele>
        <time>2016-08-27T10:18:17Z</time>
      </trkpt>
      <trkpt lat="44.1393" lon="1.78583">
        <ele>342.8</ele>
        <time>2016-08-27T10:18:18Z</time>
      </trkpt>
      <trkpt lat="44.13934" lon="1.78578">
        <ele>342.9</ele>
        <time>2016-08-27T10:18:19Z</time>
      </trkpt>
      <trkpt lat="44.13937" lon="1.78574">
        <ele>342.9</ele>
        <time>2016-08-27T10:18:20Z</time>
      </trkpt>
      <trkpt lat="44.13942" lon="1.78566">
        <ele>342.9</ele>
        <time>2016-08-27T10:18:22Z</time>
      </trkpt>
      <trkpt lat="44.13944" lon="1.78562">
        <ele>342.9</ele>
        <time>2016-08-27T10:18:23Z</time>
      </trkpt>
      <trkpt lat="44.13948" lon="1.78558">
        <ele>343</ele>
        <time>2016-08-27T10:18:24Z</time>
      </trkpt>
      <trkpt lat="44.13951" lon="1.78556">
        <ele>343.1</ele>
        <time>2016-08-27T10:18:25Z</time>
      </trkpt>
      <trkpt lat="44.13955" lon="1.7855">
        <ele>343.1</ele>
        <time>2016-08-27T10:18:26Z</time>
      </trkpt>
      <trkpt lat="44.13958" lon="1.78547">
        <ele>343.1</ele>
        <time>2016-08-27T10:18:27Z</time>
      </trkpt>
      <trkpt lat="44.1396" lon="1.78544">
        <ele>343.1</ele>
        <time>2016-08-27T10:18:28Z</time>
      </trkpt>
      <trkpt lat="44.13963" lon="1.7854">
        <ele>343.1</ele>
        <time>2016-08-27T10:18:29Z</time>
      </trkpt>
      <trkpt lat="44.13966" lon="1.78538">
        <ele>343.1</ele>
        <time>2016-08-27T10:18:30Z</time>
      </trkpt>
      <trkpt lat="44.1397" lon="1.78535">
        <ele>343.2</ele>
        <time>2016-08-27T10:18:31Z</time>
      </trkpt>
      <trkpt lat="44.13973" lon="1.78533">
        <ele>343.3</ele>
        <time>2016-08-27T10:18:32Z</time>
      </trkpt>
      <trkpt lat="44.13976" lon="1.7853">
        <ele>343.4</ele>
        <time>2016-08-27T10:18:33Z</time>
      </trkpt>
      <trkpt lat="44.13979" lon="1.78526">
        <ele>343.5</ele>
        <time>2016-08-27T10:18:34Z</time>
      </trkpt>
      <trkpt lat="44.13984" lon="1.7852">
        <ele>343.7</ele>
        <time>2016-08-27T10:18:36Z</time>
      </trkpt>
      <trkpt lat="44.13987" lon="1.78518">
        <ele>343.8</ele>
        <time>2016-08-27T10:18:37Z</time>
      </trkpt>
      <trkpt lat="44.13989" lon="1.78516">
        <ele>343.9</ele>
        <time>2016-08-27T10:18:38Z</time>
      </trkpt>
      <trkpt lat="44.13994" lon="1.7851">
        <ele>344.1</ele>
        <time>2016-08-27T10:18:40Z</time>
      </trkpt>
      <trkpt lat="44.13996" lon="1.78508">
        <ele>344.2</ele>
        <time>2016-08-27T10:18:41Z</time>
      </trkpt>
      <trkpt lat="44.13999" lon="1.78506">
        <ele>344.3</ele>
        <time>2016-08-27T10:18:42Z</time>
      </trkpt>
      <trkpt lat="44.14003" lon="1.78503">
        <ele>344.5</ele>
        <time>2016-08-27T10:18:44Z</time>
      </trkpt>
      <trkpt lat="44.14008" lon="1.78502">
        <ele>344.6</ele>
        <time>2016-08-27T10:18:46Z</time>
      </trkpt>
      <trkpt lat="44.14011" lon="1.785">
        <ele>344.7</ele>
        <time>2016-08-27T10:18:47Z</time>
      </trkpt>
      <trkpt lat="44.14014" lon="1.78499">
        <ele>344.8</ele>
        <time>2016-08-27T10:18:48Z</time>
      </trkpt>
      <trkpt lat="44.14017" lon="1.78498">
        <ele>345</ele>
        <time>2016-08-27T10:18:49Z</time>
      </trkpt>
      <trkpt lat="44.1402" lon="1.78497">
        <ele>345.1</ele>
        <time>2016-08-27T10:18:50Z</time>
      </trkpt>
      <trkpt lat="44.14023" lon="1.78496">
        <ele>345.2</ele>
        <time>2016-08-27T10:18:51Z</time>
      </trkpt>
      <trkpt lat="44.14027" lon="1.78495">
        <ele>345.3</ele>
        <time>2016-08-27T10:18:52Z</time>
      </trkpt>
      <trkpt lat="44.14032" lon="1.78496">
        <ele>345.4</ele>
        <time>2016-08-27T10:18:54Z</time>
      </trkpt>
      <trkpt lat="44.14036" lon="1.78495">
        <ele>345.5</ele>
        <time>2016-08-27T10:18:56Z</time>
      </trkpt>
      <trkpt lat="44.1404" lon="1.78496">
        <ele>345.6</ele>
        <time>2016-08-27T10:18:59Z</time>
      </trkpt>
      <trkpt lat="44.14037" lon="1.78495">
        <ele>345.5</ele>
        <time>2016-08-27T10:19:02Z</time>
      </trkpt>
      <trkpt lat="44.14032" lon="1.78499">
        <ele>345.3</ele>
        <time>2016-08-27T10:19:07Z</time>
      </trkpt>
      <trkpt lat="44.14036" lon="1.78498">
        <ele>345.4</ele>
        <time>2016-08-27T10:19:12Z</time>
      </trkpt>
      <trkpt lat="44.14039" lon="1.78497">
        <ele>345.5</ele>
        <time>2016-08-27T10:19:13Z</time>
      </trkpt>
      <trkpt lat="44.14042" lon="1.78497">
        <ele>345.6</ele>
        <time>2016-08-27T10:19:14Z</time>
      </trkpt>
      <trkpt lat="44.14045" lon="1.78498">
        <ele>345.4</ele>
        <time>2016-08-27T10:19:15Z</time>
      </trkpt>
      <trkpt lat="44.14052" lon="1.78497">
        <ele>345.1</ele>
        <time>2016-08-27T10:19:17Z</time>
      </trkpt>
      <trkpt lat="44.14056" lon="1.78496">
        <ele>344.8</ele>
        <time>2016-08-27T10:19:18Z</time>
      </trkpt>
      <trkpt lat="44.14061" lon="1.78495">
        <ele>344.6</ele>
        <time>2016-08-27T10:19:19Z</time>
      </trkpt>
      <trkpt lat="44.14072" lon="1.78496">
        <ele>344</ele>
        <time>2016-08-27T10:19:20Z</time>
      </trkpt>
      <trkpt lat="44.14075" lon="1.78497">
        <ele>343.7</ele>
        <time>2016-08-27T10:19:21Z</time>
      </trkpt>
      <trkpt lat="44.14082" lon="1.78498">
        <ele>343.4</ele>
        <time>2016-08-27T10:19:22Z</time>
      </trkpt>
      <trkpt lat="44.14088" lon="1.78497">
        <ele>343.1</ele>
        <time>2016-08-27T10:19:23Z</time>
      </trkpt>
      <trkpt lat="44.14094" lon="1.78495">
        <ele>342.7</ele>
        <time>2016-08-27T10:19:24Z</time>
      </trkpt>
      <trkpt lat="44.14102" lon="1.78494">
        <ele>342.3</ele>
        <time>2016-08-27T10:19:25Z</time>
      </trkpt>
      <trkpt lat="44.14106" lon="1.78498">
        <ele>342.1</ele>
        <time>2016-08-27T10:19:26Z</time>
      </trkpt>
      <trkpt lat="44.14111" lon="1.78498">
        <ele>341.7</ele>
        <time>2016-08-27T10:19:27Z</time>
      </trkpt>
      <trkpt lat="44.14119" lon="1.78501">
        <ele>341.3</ele>
        <time>2016-08-27T10:19:28Z</time>
      </trkpt>
      <trkpt lat="44.14126" lon="1.78501">
        <ele>340.9</ele>
        <time>2016-08-27T10:19:29Z</time>
      </trkpt>
      <trkpt lat="44.14131" lon="1.78503">
        <ele>340.5</ele>
        <time>2016-08-27T10:19:30Z</time>
      </trkpt>
      <trkpt lat="44.14135" lon="1.78501">
        <ele>340.2</ele>
        <time>2016-08-27T10:19:31Z</time>
      </trkpt>
      <trkpt lat="44.1414" lon="1.78502">
        <ele>339.9</ele>
        <time>2016-08-27T10:19:32Z</time>
      </trkpt>
      <trkpt lat="44.14146" lon="1.78496">
        <ele>339.4</ele>
        <time>2016-08-27T10:19:33Z</time>
      </trkpt>
      <trkpt lat="44.14151" lon="1.78495">
        <ele>339</ele>
        <time>2016-08-27T10:19:34Z</time>
      </trkpt>
      <trkpt lat="44.14157" lon="1.78494">
        <ele>338.6</ele>
        <time>2016-08-27T10:19:35Z</time>
      </trkpt>
      <trkpt lat="44.14162" lon="1.78494">
        <ele>338.2</ele>
        <time>2016-08-27T10:19:36Z</time>
      </trkpt>
      <trkpt lat="44.14167" lon="1.78491">
        <ele>337.9</ele>
        <time>2016-08-27T10:19:37Z</time>
      </trkpt>
      <trkpt lat="44.14172" lon="1.7849">
        <ele>337.5</ele>
        <time>2016-08-27T10:19:38Z</time>
      </trkpt>
      <trkpt lat="44.14176" lon="1.78487">
        <ele>337.3</ele>
        <time>2016-08-27T10:19:39Z</time>
      </trkpt>
      <trkpt lat="44.1418" lon="1.78485">
        <ele>337</ele>
        <time>2016-08-27T10:19:40Z</time>
      </trkpt>
      <trkpt lat="44.14187" lon="1.7848">
        <ele>336.7</ele>
        <time>2016-08-27T10:19:41Z</time>
      </trkpt>
      <trkpt lat="44.14192" lon="1.78476">
        <ele>336.5</ele>
        <time>2016-08-27T10:19:42Z</time>
      </trkpt>
      <trkpt lat="44.14197" lon="1.7847">
        <ele>336.3</ele>
        <time>2016-08-27T10:19:43Z</time>
      </trkpt>
      <trkpt lat="44.14202" lon="1.78466">
        <ele>336.2</ele>
        <time>2016-08-27T10:19:44Z</time>
      </trkpt>
      <trkpt lat="44.14208" lon="1.78458">
        <ele>336</ele>
        <time>2016-08-27T10:19:45Z</time>
      </trkpt>
      <trkpt lat="44.14213" lon="1.78451">
        <ele>335.1</ele>
        <time>2016-08-27T10:19:46Z</time>
      </trkpt>
      <trkpt lat="44.14218" lon="1.78443">
        <ele>334.2</ele>
        <time>2016-08-27T10:19:47Z</time>
      </trkpt>
      <trkpt lat="44.14223" lon="1.78436">
        <ele>333.3</ele>
        <time>2016-08-27T10:19:48Z</time>
      </trkpt>
      <trkpt lat="44.14229" lon="1.7843">
        <ele>332.4</ele>
        <time>2016-08-27T10:19:49Z</time>
      </trkpt>
      <trkpt lat="44.14235" lon="1.78423">
        <ele>331.8</ele>
        <time>2016-08-27T10:19:50Z</time>
      </trkpt>
      <trkpt lat="44.14241" lon="1.78414">
        <ele>331.3</ele>
        <time>2016-08-27T10:19:51Z</time>
      </trkpt>
      <trkpt lat="44.14249" lon="1.78404">
        <ele>330.9</ele>
        <time>2016-08-27T10:19:52Z</time>
      </trkpt>
      <trkpt lat="44.14256" lon="1.78395">
        <ele>330.7</ele>
        <time>2016-08-27T10:19:53Z</time>
      </trkpt>
      <trkpt lat="44.14262" lon="1.78385">
        <ele>331</ele>
        <time>2016-08-27T10:19:54Z</time>
      </trkpt>
      <trkpt lat="44.14266" lon="1.78375">
        <ele>331.5</ele>
        <time>2016-08-27T10:19:55Z</time>
      </trkpt>
      <trkpt lat="44.14273" lon="1.78364">
        <ele>331.9</ele>
        <time>2016-08-27T10:19:56Z</time>
      </trkpt>
      <trkpt lat="44.14281" lon="1.78353">
        <ele>332.3</ele>
        <time>2016-08-27T10:19:57Z</time>
      </trkpt>
      <trkpt lat="44.14289" lon="1.78341">
        <ele>333</ele>
        <time>2016-08-27T10:19:58Z</time>
      </trkpt>
      <trkpt lat="44.14298" lon="1.78327">
        <ele>332.6</ele>
        <time>2016-08-27T10:19:59Z</time>
      </trkpt>
      <trkpt lat="44.14307" lon="1.78316">
        <ele>332</ele>
        <time>2016-08-27T10:20:00Z</time>
      </trkpt>
      <trkpt lat="44.14316" lon="1.78303">
        <ele>331.9</ele>
        <time>2016-08-27T10:20:01Z</time>
      </trkpt>
      <trkpt lat="44.14327" lon="1.78292">
        <ele>331.8</ele>
        <time>2016-08-27T10:20:02Z</time>
      </trkpt>
      <trkpt lat="44.14339" lon="1.7828">
        <ele>331.3</ele>
        <time>2016-08-27T10:20:03Z</time>
      </trkpt>
      <trkpt lat="44.14349" lon="1.7827">
        <ele>331.1</ele>
        <time>2016-08-27T10:20:04Z</time>
      </trkpt>
      <trkpt lat="44.14361" lon="1.7826">
        <ele>331</ele>
        <time>2016-08-27T10:20:05Z</time>
      </trkpt>
      <trkpt lat="44.14375" lon="1.7825">
        <ele>331</ele>
        <time>2016-08-27T10:20:06Z</time>
      </trkpt>
      <trkpt lat="44.1439" lon="1.7824">
        <ele>328.7</ele>
        <time>2016-08-27T10:20:07Z</time>
      </trkpt>
      <trkpt lat="44.14403" lon="1.7823">
        <ele>327.3</ele>
        <time>2016-08-27T10:20:08Z</time>
      </trkpt>
      <trkpt lat="44.14418" lon="1.78222">
        <ele>325.9</ele>
        <time>2016-08-27T10:20:09Z</time>
      </trkpt>
      <trkpt lat="44.14433" lon="1.78212">
        <ele>325.5</ele>
        <time>2016-08-27T10:20:10Z</time>
      </trkpt>
      <trkpt lat="44.14448" lon="1.78204">
        <ele>324.5</ele>
        <time>2016-08-27T10:20:11Z</time>
      </trkpt>
      <trkpt lat="44.14463" lon="1.78195">
        <ele>323.1</ele>
        <time>2016-08-27T10:20:12Z</time>
      </trkpt>
      <trkpt lat="44.14477" lon="1.78185">
        <ele>321.1</ele>
        <time>2016-08-27T10:20:13Z</time>
      </trkpt>
      <trkpt lat="44.14491" lon="1.78175">
        <ele>319.7</ele>
        <time>2016-08-27T10:20:14Z</time>
      </trkpt>
      <trkpt lat="44.14505" lon="1.78165">
        <ele>318.4</ele>
        <time>2016-08-27T10:20:15Z</time>
      </trkpt>
      <trkpt lat="44.14518" lon="1.78156">
        <ele>317.9</ele>
        <time>2016-08-27T10:20:16Z</time>
      </trkpt>
      <trkpt lat="44.14531" lon="1.78147">
        <ele>317.6</ele>
        <time>2016-08-27T10:20:17Z</time>
      </trkpt>
      <trkpt lat="44.14545" lon="1.78138">
        <ele>317</ele>
        <time>2016-08-27T10:20:18Z</time>
      </trkpt>
      <trkpt lat="44.14557" lon="1.78128">
        <ele>315</ele>
        <time>2016-08-27T10:20:19Z</time>
      </trkpt>
      <trkpt lat="44.14568" lon="1.78119">
        <ele>311.3</ele>
        <time>2016-08-27T10:20:20Z</time>
      </trkpt>
      <trkpt lat="44.14579" lon="1.78107">
        <ele>307.3</ele>
        <time>2016-08-27T10:20:21Z</time>
      </trkpt>
      <trkpt lat="44.1459" lon="1.78096">
        <ele>303.5</ele>
        <time>2016-08-27T10:20:22Z</time>
      </trkpt>
      <trkpt lat="44.146" lon="1.78084">
        <ele>300.7</ele>
        <time>2016-08-27T10:20:23Z</time>
      </trkpt>
      <trkpt lat="44.14608" lon="1.7807">
        <ele>298.7</ele>
        <time>2016-08-27T10:20:24Z</time>
      </trkpt>
      <trkpt lat="44.14612" lon="1.78055">
        <ele>298.1</ele>
        <time>2016-08-27T10:20:25Z</time>
      </trkpt>
      <trkpt lat="44.14618" lon="1.78041">
        <ele>297</ele>
        <time>2016-08-27T10:20:26Z</time>
      </trkpt>
      <trkpt lat="44.1462" lon="1.78025">
        <ele>293.6</ele>
        <time>2016-08-27T10:20:27Z</time>
      </trkpt>
      <trkpt lat="44.14618" lon="1.78007">
        <ele>290.9</ele>
        <time>2016-08-27T10:20:28Z</time>
      </trkpt>
      <trkpt lat="44.1462" lon="1.77994">
        <ele>287.9</ele>
        <time>2016-08-27T10:20:29Z</time>
      </trkpt>
      <trkpt lat="44.14618" lon="1.77979">
        <ele>285.6</ele>
        <time>2016-08-27T10:20:30Z</time>
      </trkpt>
      <trkpt lat="44.14615" lon="1.77964">
        <ele>283.9</ele>
        <time>2016-08-27T10:20:31Z</time>
      </trkpt>
      <trkpt lat="44.14614" lon="1.77951">
        <ele>281.1</ele>
        <time>2016-08-27T10:20:32Z</time>
      </trkpt>
      <trkpt lat="44.14609" lon="1.77936">
        <ele>278.7</ele>
        <time>2016-08-27T10:20:33Z</time>
      </trkpt>
      <trkpt lat="44.146" lon="1.77922">
        <ele>277.5</ele>
        <time>2016-08-27T10:20:34Z</time>
      </trkpt>
      <trkpt lat="44.14593" lon="1.7791">
        <ele>276.3</ele>
        <time>2016-08-27T10:20:35Z</time>
      </trkpt>
      <trkpt lat="44.14586" lon="1.77898">
        <ele>275.4</ele>
        <time>2016-08-27T10:20:36Z</time>
      </trkpt>
      <trkpt lat="44.14577" lon="1.77888">
        <ele>275</ele>
        <time>2016-08-27T10:20:37Z</time>
      </trkpt>
      <trkpt lat="44.14568" lon="1.77877">
        <ele>274.8</ele>
        <time>2016-08-27T10:20:38Z</time>
      </trkpt>
      <trkpt lat="44.14556" lon="1.77866">
        <ele>276.5</ele>
        <time>2016-08-27T10:20:39Z</time>
      </trkpt>
      <trkpt lat="44.14546" lon="1.77854">
        <ele>278.5</ele>
        <time>2016-08-27T10:20:40Z</time>
      </trkpt>
      <trkpt lat="44.14535" lon="1.77843">
        <ele>281.5</ele>
        <time>2016-08-27T10:20:41Z</time>
      </trkpt>
      <trkpt lat="44.14526" lon="1.77831">
        <ele>284.6</ele>
        <time>2016-08-27T10:20:42Z</time>
      </trkpt>
      <trkpt lat="44.14516" lon="1.77819">
        <ele>287.8</ele>
        <time>2016-08-27T10:20:43Z</time>
      </trkpt>
      <trkpt lat="44.14507" lon="1.77808">
        <ele>291.2</ele>
        <time>2016-08-27T10:20:44Z</time>
      </trkpt>
      <trkpt lat="44.14498" lon="1.77796">
        <ele>294.3</ele>
        <time>2016-08-27T10:20:45Z</time>
      </trkpt>
      <trkpt lat="44.14499" lon="1.7777">
        <ele>293.5</ele>
        <time>2016-08-27T10:20:47Z</time>
      </trkpt>
      <trkpt lat="44.14521" lon="1.77719">
        <ele>282.9</ele>
        <time>2016-08-27T10:20:51Z</time>
      </trkpt>
      <trkpt lat="44.14534" lon="1.77709">
        <ele>276.6</ele>
        <time>2016-08-27T10:20:52Z</time>
      </trkpt>
      <trkpt lat="44.14537" lon="1.77691">
        <ele>274.4</ele>
        <time>2016-08-27T10:20:53Z</time>
      </trkpt>
      <trkpt lat="44.1454" lon="1.77672">
        <ele>272.3</ele>
        <time>2016-08-27T10:20:54Z</time>
      </trkpt>
      <trkpt lat="44.14543" lon="1.77654">
        <ele>269.9</ele>
        <time>2016-08-27T10:20:55Z</time>
      </trkpt>
      <trkpt lat="44.14541" lon="1.77635">
        <ele>269.7</ele>
        <time>2016-08-27T10:20:56Z</time>
      </trkpt>
      <trkpt lat="44.14542" lon="1.77615">
        <ele>269.2</ele>
        <time>2016-08-27T10:20:57Z</time>
      </trkpt>
      <trkpt lat="44.14543" lon="1.77597">
        <ele>269</ele>
        <time>2016-08-27T10:20:58Z</time>
      </trkpt>
      <trkpt lat="44.14544" lon="1.77579">
        <ele>269</ele>
        <time>2016-08-27T10:20:59Z</time>
      </trkpt>
      <trkpt lat="44.14545" lon="1.77559">
        <ele>269.1</ele>
        <time>2016-08-27T10:21:00Z</time>
      </trkpt>
      <trkpt lat="44.14545" lon="1.7754">
        <ele>269.3</ele>
        <time>2016-08-27T10:21:01Z</time>
      </trkpt>
      <trkpt lat="44.14545" lon="1.77521">
        <ele>269.4</ele>
        <time>2016-08-27T10:21:02Z</time>
      </trkpt>
      <trkpt lat="44.14547" lon="1.77503">
        <ele>269.1</ele>
        <time>2016-08-27T10:21:03Z</time>
      </trkpt>
      <trkpt lat="44.14549" lon="1.77484">
        <ele>268.2</ele>
        <time>2016-08-27T10:21:04Z</time>
      </trkpt>
      <trkpt lat="44.14552" lon="1.77465">
        <ele>267</ele>
        <time>2016-08-27T10:21:05Z</time>
      </trkpt>
      <trkpt lat="44.14554" lon="1.77447">
        <ele>266.7</ele>
        <time>2016-08-27T10:21:06Z</time>
      </trkpt>
      <trkpt lat="44.1456" lon="1.7743">
        <ele>265.3</ele>
        <time>2016-08-27T10:21:07Z</time>
      </trkpt>
      <trkpt lat="44.14566" lon="1.77413">
        <ele>263.4</ele>
        <time>2016-08-27T10:21:08Z</time>
      </trkpt>
      <trkpt lat="44.14569" lon="1.77395">
        <ele>262.9</ele>
        <time>2016-08-27T10:21:09Z</time>
      </trkpt>
      <trkpt lat="44.14574" lon="1.77377">
        <ele>261.2</ele>
        <time>2016-08-27T10:21:10Z</time>
      </trkpt>
      <trkpt lat="44.1457" lon="1.77356">
        <ele>264.2</ele>
        <time>2016-08-27T10:21:11Z</time>
      </trkpt>
      <trkpt lat="44.14571" lon="1.77335">
        <ele>264.7</ele>
        <time>2016-08-27T10:21:12Z</time>
      </trkpt>
      <trkpt lat="44.14573" lon="1.77316">
        <ele>263.8</ele>
        <time>2016-08-27T10:21:13Z</time>
      </trkpt>
      <trkpt lat="44.14578" lon="1.77299">
        <ele>261.9</ele>
        <time>2016-08-27T10:21:14Z</time>
      </trkpt>
      <trkpt lat="44.14582" lon="1.77281">
        <ele>259.2</ele>
        <time>2016-08-27T10:21:15Z</time>
      </trkpt>
      <trkpt lat="44.14587" lon="1.77262">
        <ele>256.3</ele>
        <time>2016-08-27T10:21:16Z</time>
      </trkpt>
      <trkpt lat="44.14591" lon="1.77243">
        <ele>253.2</ele>
        <time>2016-08-27T10:21:17Z</time>
      </trkpt>
      <trkpt lat="44.14594" lon="1.77223">
        <ele>251.1</ele>
        <time>2016-08-27T10:21:18Z</time>
      </trkpt>
      <trkpt lat="44.14596" lon="1.77203">
        <ele>249.6</ele>
        <time>2016-08-27T10:21:19Z</time>
      </trkpt>
      <trkpt lat="44.14597" lon="1.77183">
        <ele>249</ele>
        <time>2016-08-27T10:21:20Z</time>
      </trkpt>
      <trkpt lat="44.14599" lon="1.77163">
        <ele>248.2</ele>
        <time>2016-08-27T10:21:21Z</time>
      </trkpt>
      <trkpt lat="44.14598" lon="1.77142">
        <ele>248.4</ele>
        <time>2016-08-27T10:21:22Z</time>
      </trkpt>
      <trkpt lat="44.14597" lon="1.77121">
        <ele>249</ele>
        <time>2016-08-27T10:21:23Z</time>
      </trkpt>
      <trkpt lat="44.14596" lon="1.77101">
        <ele>248.7</ele>
        <time>2016-08-27T10:21:24Z</time>
      </trkpt>
      <trkpt lat="44.14596" lon="1.7708">
        <ele>248</ele>
        <time>2016-08-27T10:21:25Z</time>
      </trkpt>
      <trkpt lat="44.14596" lon="1.7706">
        <ele>247.3</ele>
        <time>2016-08-27T10:21:26Z</time>
      </trkpt>
      <trkpt lat="44.14595" lon="1.77039">
        <ele>247.1</ele>
        <time>2016-08-27T10:21:27Z</time>
      </trkpt>
      <trkpt lat="44.14594" lon="1.77018">
        <ele>247.1</ele>
        <time>2016-08-27T10:21:28Z</time>
      </trkpt>
      <trkpt lat="44.14594" lon="1.76998">
        <ele>246.4</ele>
        <time>2016-08-27T10:21:29Z</time>
      </trkpt>
      <trkpt lat="44.14593" lon="1.76977">
        <ele>245.8</ele>
        <time>2016-08-27T10:21:30Z</time>
      </trkpt>
      <trkpt lat="44.14593" lon="1.76956">
        <ele>245.4</ele>
        <time>2016-08-27T10:21:31Z</time>
      </trkpt>
      <trkpt lat="44.14592" lon="1.76936">
        <ele>244.4</ele>
        <time>2016-08-27T10:21:32Z</time>
      </trkpt>
      <trkpt lat="44.14593" lon="1.76915">
        <ele>242.5</ele>
        <time>2016-08-27T10:21:33Z</time>
      </trkpt>
      <trkpt lat="44.14596" lon="1.76897">
        <ele>239.3</ele>
        <time>2016-08-27T10:21:34Z</time>
      </trkpt>
      <trkpt lat="44.14599" lon="1.76878">
        <ele>236.6</ele>
        <time>2016-08-27T10:21:35Z</time>
      </trkpt>
      <trkpt lat="44.14601" lon="1.7686">
        <ele>233.2</ele>
        <time>2016-08-27T10:21:36Z</time>
      </trkpt>
      <trkpt lat="44.14599" lon="1.7684">
        <ele>232.9</ele>
        <time>2016-08-27T10:21:37Z</time>
      </trkpt>
      <trkpt lat="44.14599" lon="1.7682">
        <ele>230.6</ele>
        <time>2016-08-27T10:21:38Z</time>
      </trkpt>
      <trkpt lat="44.14597" lon="1.76799">
        <ele>230.1</ele>
        <time>2016-08-27T10:21:39Z</time>
      </trkpt>
      <trkpt lat="44.14597" lon="1.76778">
        <ele>229.1</ele>
        <time>2016-08-27T10:21:40Z</time>
      </trkpt>
      <trkpt lat="44.14598" lon="1.76759">
        <ele>228.3</ele>
        <time>2016-08-27T10:21:41Z</time>
      </trkpt>
      <trkpt lat="44.146" lon="1.76741">
        <ele>227.4</ele>
        <time>2016-08-27T10:21:42Z</time>
      </trkpt>
      <trkpt lat="44.14599" lon="1.76722">
        <ele>227.3</ele>
        <time>2016-08-27T10:21:43Z</time>
      </trkpt>
      <trkpt lat="44.14602" lon="1.76707">
        <ele>225.7</ele>
        <time>2016-08-27T10:21:44Z</time>
      </trkpt>
      <trkpt lat="44.14608" lon="1.76689">
        <ele>223</ele>
        <time>2016-08-27T10:21:45Z</time>
      </trkpt>
      <trkpt lat="44.14615" lon="1.76671">
        <ele>220.6</ele>
        <time>2016-08-27T10:21:46Z</time>
      </trkpt>
      <trkpt lat="44.1462" lon="1.76653">
        <ele>218.9</ele>
        <time>2016-08-27T10:21:47Z</time>
      </trkpt>
      <trkpt lat="44.14624" lon="1.76635">
        <ele>217.8</ele>
        <time>2016-08-27T10:21:48Z</time>
      </trkpt>
      <trkpt lat="44.14629" lon="1.76616">
        <ele>216.4</ele>
        <time>2016-08-27T10:21:49Z</time>
      </trkpt>
      <trkpt lat="44.14634" lon="1.76597">
        <ele>214.5</ele>
        <time>2016-08-27T10:21:50Z</time>
      </trkpt>
      <trkpt lat="44.14645" lon="1.7658">
        <ele>210.4</ele>
        <time>2016-08-27T10:21:51Z</time>
      </trkpt>
      <trkpt lat="44.14654" lon="1.76565">
        <ele>207.4</ele>
        <time>2016-08-27T10:21:52Z</time>
      </trkpt>
      <trkpt lat="44.14662" lon="1.76552">
        <ele>204.5</ele>
        <time>2016-08-27T10:21:53Z</time>
      </trkpt>
      <trkpt lat="44.14669" lon="1.76538">
        <ele>201.7</ele>
        <time>2016-08-27T10:21:54Z</time>
      </trkpt>
      <trkpt lat="44.14675" lon="1.76523">
        <ele>198.3</ele>
        <time>2016-08-27T10:21:55Z</time>
      </trkpt>
      <trkpt lat="44.14676" lon="1.76508">
        <ele>196.2</ele>
        <time>2016-08-27T10:21:56Z</time>
      </trkpt>
      <trkpt lat="44.14675" lon="1.7649">
        <ele>194.3</ele>
        <time>2016-08-27T10:21:57Z</time>
      </trkpt>
      <trkpt lat="44.14676" lon="1.76473">
        <ele>192.2</ele>
        <time>2016-08-27T10:21:58Z</time>
      </trkpt>
      <trkpt lat="44.14675" lon="1.76454">
        <ele>190.4</ele>
        <time>2016-08-27T10:21:59Z</time>
      </trkpt>
      <trkpt lat="44.14674" lon="1.76436">
        <ele>188.4</ele>
        <time>2016-08-27T10:22:00Z</time>
      </trkpt>
      <trkpt lat="44.14675" lon="1.7642">
        <ele>186.3</ele>
        <time>2016-08-27T10:22:01Z</time>
      </trkpt>
      <trkpt lat="44.14673" lon="1.76402">
        <ele>184.7</ele>
        <time>2016-08-27T10:22:02Z</time>
      </trkpt>
      <trkpt lat="44.14671" lon="1.76385">
        <ele>183.1</ele>
        <time>2016-08-27T10:22:03Z</time>
      </trkpt>
      <trkpt lat="44.14669" lon="1.76368">
        <ele>182.6</ele>
        <time>2016-08-27T10:22:04Z</time>
      </trkpt>
      <trkpt lat="44.14665" lon="1.76352">
        <ele>184.1</ele>
        <time>2016-08-27T10:22:05Z</time>
      </trkpt>
      <trkpt lat="44.14661" lon="1.76336">
        <ele>185.9</ele>
        <time>2016-08-27T10:22:06Z</time>
      </trkpt>
      <trkpt lat="44.14662" lon="1.76321">
        <ele>186</ele>
        <time>2016-08-27T10:22:07Z</time>
      </trkpt>
      <trkpt lat="44.14662" lon="1.76304">
        <ele>186.6</ele>
        <time>2016-08-27T10:22:08Z</time>
      </trkpt>
      <trkpt lat="44.1466" lon="1.76269">
        <ele>189.9</ele>
        <time>2016-08-27T10:22:10Z</time>
      </trkpt>
      <trkpt lat="44.14663" lon="1.76254">
        <ele>190.1</ele>
        <time>2016-08-27T10:22:11Z</time>
      </trkpt>
      <trkpt lat="44.14666" lon="1.76239">
        <ele>189.9</ele>
        <time>2016-08-27T10:22:12Z</time>
      </trkpt>
      <trkpt lat="44.14668" lon="1.76222">
        <ele>190.3</ele>
        <time>2016-08-27T10:22:13Z</time>
      </trkpt>
      <trkpt lat="44.14667" lon="1.76208">
        <ele>191.8</ele>
        <time>2016-08-27T10:22:14Z</time>
      </trkpt>
      <trkpt lat="44.14666" lon="1.76191">
        <ele>194.6</ele>
        <time>2016-08-27T10:22:15Z</time>
      </trkpt>
      <trkpt lat="44.14665" lon="1.76173">
        <ele>197.9</ele>
        <time>2016-08-27T10:22:16Z</time>
      </trkpt>
      <trkpt lat="44.14664" lon="1.76156">
        <ele>200.7</ele>
        <time>2016-08-27T10:22:17Z</time>
      </trkpt>
      <trkpt lat="44.14658" lon="1.76138">
        <ele>207.6</ele>
        <time>2016-08-27T10:22:18Z</time>
      </trkpt>
      <trkpt lat="44.14662" lon="1.76121">
        <ele>208</ele>
        <time>2016-08-27T10:22:19Z</time>
      </trkpt>
      <trkpt lat="44.14665" lon="1.76105">
        <ele>208.6</ele>
        <time>2016-08-27T10:22:20Z</time>
      </trkpt>
      <trkpt lat="44.14668" lon="1.76087">
        <ele>210</ele>
        <time>2016-08-27T10:22:21Z</time>
      </trkpt>
      <trkpt lat="44.14671" lon="1.7607">
        <ele>210.7</ele>
        <time>2016-08-27T10:22:22Z</time>
      </trkpt>
      <trkpt lat="44.14676" lon="1.76053">
        <ele>210.4</ele>
        <time>2016-08-27T10:22:23Z</time>
      </trkpt>
      <trkpt lat="44.14679" lon="1.76036">
        <ele>210.4</ele>
        <time>2016-08-27T10:22:24Z</time>
      </trkpt>
      <trkpt lat="44.14682" lon="1.7602">
        <ele>210.5</ele>
        <time>2016-08-27T10:22:25Z</time>
      </trkpt>
      <trkpt lat="44.14713" lon="1.7596">
        <ele>192.6</ele>
        <time>2016-08-27T10:22:29Z</time>
      </trkpt>
      <trkpt lat="44.14723" lon="1.75946">
        <ele>189.3</ele>
        <time>2016-08-27T10:22:30Z</time>
      </trkpt>
      <trkpt lat="44.14738" lon="1.75933">
        <ele>182.9</ele>
        <time>2016-08-27T10:22:31Z</time>
      </trkpt>
      <trkpt lat="44.14748" lon="1.75921">
        <ele>179.1</ele>
        <time>2016-08-27T10:22:32Z</time>
      </trkpt>
      <trkpt lat="44.14751" lon="1.75903">
        <ele>179.7</ele>
        <time>2016-08-27T10:22:33Z</time>
      </trkpt>
      <trkpt lat="44.14757" lon="1.75885">
        <ele>179.4</ele>
        <time>2016-08-27T10:22:34Z</time>
      </trkpt>
      <trkpt lat="44.14762" lon="1.75867">
        <ele>178.9</ele>
        <time>2016-08-27T10:22:35Z</time>
      </trkpt>
      <trkpt lat="44.14771" lon="1.7583">
        <ele>179.8</ele>
        <time>2016-08-27T10:22:37Z</time>
      </trkpt>
      <trkpt lat="44.14776" lon="1.75813">
        <ele>180.2</ele>
        <time>2016-08-27T10:22:38Z</time>
      </trkpt>
      <trkpt lat="44.14776" lon="1.75794">
        <ele>183</ele>
        <time>2016-08-27T10:22:39Z</time>
      </trkpt>
      <trkpt lat="44.14783" lon="1.75779">
        <ele>181.3</ele>
        <time>2016-08-27T10:22:40Z</time>
      </trkpt>
      <trkpt lat="44.14793" lon="1.75765">
        <ele>178</ele>
        <time>2016-08-27T10:22:41Z</time>
      </trkpt>
      <trkpt lat="44.1481" lon="1.75755">
        <ele>172</ele>
        <time>2016-08-27T10:22:42Z</time>
      </trkpt>
      <trkpt lat="44.14819" lon="1.75743">
        <ele>169.8</ele>
        <time>2016-08-27T10:22:43Z</time>
      </trkpt>
      <trkpt lat="44.14829" lon="1.75731">
        <ele>166.9</ele>
        <time>2016-08-27T10:22:44Z</time>
      </trkpt>
      <trkpt lat="44.14838" lon="1.75719">
        <ele>164.7</ele>
        <time>2016-08-27T10:22:45Z</time>
      </trkpt>
      <trkpt lat="44.14848" lon="1.7571">
        <ele>161.6</ele>
        <time>2016-08-27T10:22:46Z</time>
      </trkpt>
      <trkpt lat="44.14858" lon="1.75704">
        <ele>158.5</ele>
        <time>2016-08-27T10:22:47Z</time>
      </trkpt>
      <trkpt lat="44.14868" lon="1.75697">
        <ele>155.9</ele>
        <time>2016-08-27T10:22:48Z</time>
      </trkpt>
      <trkpt lat="44.14876" lon="1.75689">
        <ele>154.1</ele>
        <time>2016-08-27T10:22:49Z</time>
      </trkpt>
      <trkpt lat="44.14885" lon="1.75681">
        <ele>153.3</ele>
        <time>2016-08-27T10:22:50Z</time>
      </trkpt>
      <trkpt lat="44.14893" lon="1.75672">
        <ele>152.6</ele>
        <time>2016-08-27T10:22:51Z</time>
      </trkpt>
      <trkpt lat="44.14893" lon="1.75661">
        <ele>154.1</ele>
        <time>2016-08-27T10:22:52Z</time>
      </trkpt>
      <trkpt lat="44.149" lon="1.75648">
        <ele>154</ele>
        <time>2016-08-27T10:22:53Z</time>
      </trkpt>
      <trkpt lat="44.14906" lon="1.75636">
        <ele>153.7</ele>
        <time>2016-08-27T10:22:54Z</time>
      </trkpt>
      <trkpt lat="44.14912" lon="1.75626">
        <ele>153</ele>
        <time>2016-08-27T10:22:55Z</time>
      </trkpt>
      <trkpt lat="44.14921" lon="1.75616">
        <ele>151.1</ele>
        <time>2016-08-27T10:22:56Z</time>
      </trkpt>
      <trkpt lat="44.14935" lon="1.75569">
        <ele>150.4</ele>
        <time>2016-08-27T10:23:00Z</time>
      </trkpt>
      <trkpt lat="44.14936" lon="1.75556">
        <ele>151.3</ele>
        <time>2016-08-27T10:23:01Z</time>
      </trkpt>
      <trkpt lat="44.14935" lon="1.75545">
        <ele>152.6</ele>
        <time>2016-08-27T10:23:02Z</time>
      </trkpt>
      <trkpt lat="44.14935" lon="1.75536">
        <ele>153.7</ele>
        <time>2016-08-27T10:23:03Z</time>
      </trkpt>
      <trkpt lat="44.14934" lon="1.75528">
        <ele>154.4</ele>
        <time>2016-08-27T10:23:04Z</time>
      </trkpt>
      <trkpt lat="44.14934" lon="1.75521">
        <ele>154.9</ele>
        <time>2016-08-27T10:23:05Z</time>
      </trkpt>
      <trkpt lat="44.14936" lon="1.75515">
        <ele>154.6</ele>
        <time>2016-08-27T10:23:06Z</time>
      </trkpt>
      <trkpt lat="44.14937" lon="1.75508">
        <ele>154.7</ele>
        <time>2016-08-27T10:23:07Z</time>
      </trkpt>
      <trkpt lat="44.14938" lon="1.75503">
        <ele>154.4</ele>
        <time>2016-08-27T10:23:08Z</time>
      </trkpt>
      <trkpt lat="44.14939" lon="1.75496">
        <ele>154.7</ele>
        <time>2016-08-27T10:23:10Z</time>
      </trkpt>
      <trkpt lat="44.14937" lon="1.75492">
        <ele>155.7</ele>
        <time>2016-08-27T10:23:11Z</time>
      </trkpt>
      <trkpt lat="44.1494" lon="1.75493">
        <ele>154.2</ele>
        <time>2016-08-27T10:23:13Z</time>
      </trkpt>
      <trkpt lat="44.14944" lon="1.75494">
        <ele>152.4</ele>
        <time>2016-08-27T10:23:15Z</time>
      </trkpt>
      <trkpt lat="44.14947" lon="1.75495">
        <ele>151</ele>
        <time>2016-08-27T10:23:39Z</time>
      </trkpt>
      <trkpt lat="44.14951" lon="1.75496">
        <ele>149.3</ele>
        <time>2016-08-27T10:23:44Z</time>
      </trkpt>
      <trkpt lat="44.14949" lon="1.75493">
        <ele>150.4</ele>
        <time>2016-08-27T10:23:59Z</time>
      </trkpt>
      <trkpt lat="44.14945" lon="1.75492">
        <ele>152.1</ele>
        <time>2016-08-27T10:24:04Z</time>
      </trkpt>
      <trkpt lat="44.1495" lon="1.75491">
        <ele>149.9</ele>
        <time>2016-08-27T10:24:11Z</time>
      </trkpt>
      <trkpt lat="44.14951" lon="1.755">
        <ele>148.7</ele>
        <time>2016-08-27T10:24:37Z</time>
      </trkpt>
      <trkpt lat="44.14955" lon="1.75503">
        <ele>146.8</ele>
        <time>2016-08-27T10:24:39Z</time>
      </trkpt>
      <trkpt lat="44.14958" lon="1.75506">
        <ele>145.3</ele>
        <time>2016-08-27T10:24:41Z</time>
      </trkpt>
      <trkpt lat="44.14963" lon="1.75507">
        <ele>144</ele>
        <time>2016-08-27T10:24:43Z</time>
      </trkpt>
      <trkpt lat="44.14966" lon="1.75507">
        <ele>143.3</ele>
        <time>2016-08-27T10:24:44Z</time>
      </trkpt>
      <trkpt lat="44.14969" lon="1.75508">
        <ele>142.6</ele>
        <time>2016-08-27T10:24:45Z</time>
      </trkpt>
      <trkpt lat="44.14972" lon="1.75509">
        <ele>141.8</ele>
        <time>2016-08-27T10:24:46Z</time>
      </trkpt>
      <trkpt lat="44.14979" lon="1.75511">
        <ele>139.9</ele>
        <time>2016-08-27T10:24:48Z</time>
      </trkpt>
      <trkpt lat="44.14984" lon="1.75513">
        <ele>138.8</ele>
        <time>2016-08-27T10:24:49Z</time>
      </trkpt>
      <trkpt lat="44.14988" lon="1.75514">
        <ele>137.6</ele>
        <time>2016-08-27T10:24:50Z</time>
      </trkpt>
      <trkpt lat="44.14993" lon="1.75516">
        <ele>136.5</ele>
        <time>2016-08-27T10:24:51Z</time>
      </trkpt>
      <trkpt lat="44.14997" lon="1.75517">
        <ele>135.5</ele>
        <time>2016-08-27T10:24:52Z</time>
      </trkpt>
      <trkpt lat="44.15001" lon="1.75519">
        <ele>134.5</ele>
        <time>2016-08-27T10:24:53Z</time>
      </trkpt>
      <trkpt lat="44.15005" lon="1.7552">
        <ele>133.4</ele>
        <time>2016-08-27T10:24:54Z</time>
      </trkpt>
      <trkpt lat="44.15009" lon="1.75522">
        <ele>132.4</ele>
        <time>2016-08-27T10:24:55Z</time>
      </trkpt>
      <trkpt lat="44.15013" lon="1.75523">
        <ele>131.4</ele>
        <time>2016-08-27T10:24:56Z</time>
      </trkpt>
      <trkpt lat="44.15017" lon="1.75525">
        <ele>130.5</ele>
        <time>2016-08-27T10:24:57Z</time>
      </trkpt>
      <trkpt lat="44.1502" lon="1.75526">
        <ele>129.6</ele>
        <time>2016-08-27T10:24:58Z</time>
      </trkpt>
      <trkpt lat="44.15022" lon="1.75529">
        <ele>128.9</ele>
        <time>2016-08-27T10:24:59Z</time>
      </trkpt>
      <trkpt lat="44.15026" lon="1.75531">
        <ele>128.1</ele>
        <time>2016-08-27T10:25:00Z</time>
      </trkpt>
      <trkpt lat="44.15029" lon="1.75532">
        <ele>127.3</ele>
        <time>2016-08-27T10:25:01Z</time>
      </trkpt>
      <trkpt lat="44.15032" lon="1.7553">
        <ele>126.6</ele>
        <time>2016-08-27T10:25:02Z</time>
      </trkpt>
      <trkpt lat="44.15036" lon="1.75528">
        <ele>125.7</ele>
        <time>2016-08-27T10:25:04Z</time>
      </trkpt>
      <trkpt lat="44.15044" lon="1.75532">
        <ele>124.5</ele>
        <time>2016-08-27T10:25:08Z</time>
      </trkpt>
      <trkpt lat="44.15047" lon="1.75534">
        <ele>124.7</ele>
        <time>2016-08-27T10:25:09Z</time>
      </trkpt>
      <trkpt lat="44.1505" lon="1.75536">
        <ele>124.9</ele>
        <time>2016-08-27T10:25:10Z</time>
      </trkpt>
      <trkpt lat="44.15054" lon="1.75537">
        <ele>125.1</ele>
        <time>2016-08-27T10:25:11Z</time>
      </trkpt>
      <trkpt lat="44.15058" lon="1.75538">
        <ele>125.4</ele>
        <time>2016-08-27T10:25:12Z</time>
      </trkpt>
      <trkpt lat="44.15063" lon="1.75539">
        <ele>125.8</ele>
        <time>2016-08-27T10:25:13Z</time>
      </trkpt>
      <trkpt lat="44.15067" lon="1.75541">
        <ele>126.2</ele>
        <time>2016-08-27T10:25:14Z</time>
      </trkpt>
      <trkpt lat="44.15071" lon="1.75542">
        <ele>126.5</ele>
        <time>2016-08-27T10:25:15Z</time>
      </trkpt>
      <trkpt lat="44.15075" lon="1.75543">
        <ele>126.8</ele>
        <time>2016-08-27T10:25:16Z</time>
      </trkpt>
      <trkpt lat="44.15077" lon="1.75545">
        <ele>127</ele>
        <time>2016-08-27T10:25:17Z</time>
      </trkpt>
      <trkpt lat="44.15082" lon="1.75547">
        <ele>127.5</ele>
        <time>2016-08-27T10:25:20Z</time>
      </trkpt>
      <trkpt lat="44.15085" lon="1.75548">
        <ele>127.7</ele>
        <time>2016-08-27T10:25:21Z</time>
      </trkpt>
      <trkpt lat="44.15088" lon="1.75549">
        <ele>128</ele>
        <time>2016-08-27T10:25:22Z</time>
      </trkpt>
      <trkpt lat="44.15092" lon="1.7555">
        <ele>128.3</ele>
        <time>2016-08-27T10:25:23Z</time>
      </trkpt>
      <trkpt lat="44.15096" lon="1.75551">
        <ele>128.6</ele>
        <time>2016-08-27T10:25:24Z</time>
      </trkpt>
      <trkpt lat="44.151" lon="1.75552">
        <ele>129</ele>
        <time>2016-08-27T10:25:25Z</time>
      </trkpt>
      <trkpt lat="44.15104" lon="1.75553">
        <ele>129.3</ele>
        <time>2016-08-27T10:25:26Z</time>
      </trkpt>
      <trkpt lat="44.15108" lon="1.75554">
        <ele>129.6</ele>
        <time>2016-08-27T10:25:27Z</time>
      </trkpt>
      <trkpt lat="44.15112" lon="1.75555">
        <ele>129.9</ele>
        <time>2016-08-27T10:25:28Z</time>
      </trkpt>
      <trkpt lat="44.15116" lon="1.75557">
        <ele>130.3</ele>
        <time>2016-08-27T10:25:29Z</time>
      </trkpt>
      <trkpt lat="44.1512" lon="1.7556">
        <ele>130.6</ele>
        <time>2016-08-27T10:25:30Z</time>
      </trkpt>
      <trkpt lat="44.15124" lon="1.75562">
        <ele>130.9</ele>
        <time>2016-08-27T10:25:31Z</time>
      </trkpt>
      <trkpt lat="44.15127" lon="1.75565">
        <ele>131</ele>
        <time>2016-08-27T10:25:32Z</time>
      </trkpt>
      <trkpt lat="44.1513" lon="1.75569">
        <ele>131</ele>
        <time>2016-08-27T10:25:34Z</time>
      </trkpt>
      <trkpt lat="44.15132" lon="1.75572">
        <ele>131</ele>
        <time>2016-08-27T10:25:36Z</time>
      </trkpt>
      <trkpt lat="44.15141" lon="1.75576">
        <ele>131</ele>
        <time>2016-08-27T10:25:50Z</time>
      </trkpt>
      <trkpt lat="44.15145" lon="1.75577">
        <ele>131</ele>
        <time>2016-08-27T10:25:52Z</time>
      </trkpt>
      <trkpt lat="44.15148" lon="1.75582">
        <ele>131</ele>
        <time>2016-08-27T10:25:55Z</time>
      </trkpt>
      <trkpt lat="44.15152" lon="1.75585">
        <ele>131</ele>
        <time>2016-08-27T10:25:57Z</time>
      </trkpt>
      <trkpt lat="44.15155" lon="1.75587">
        <ele>131</ele>
        <time>2016-08-27T10:25:58Z</time>
      </trkpt>
      <trkpt lat="44.15159" lon="1.75591">
        <ele>131.1</ele>
        <time>2016-08-27T10:26:00Z</time>
      </trkpt>
      <trkpt lat="44.15161" lon="1.75597">
        <ele>131.1</ele>
        <time>2016-08-27T10:26:02Z</time>
      </trkpt>
      <trkpt lat="44.15164" lon="1.756">
        <ele>131.2</ele>
        <time>2016-08-27T10:26:04Z</time>
      </trkpt>
      <trkpt lat="44.15166" lon="1.75603">
        <ele>131.2</ele>
        <time>2016-08-27T10:26:06Z</time>
      </trkpt>
      <trkpt lat="44.15168" lon="1.75608">
        <ele>131.3</ele>
        <time>2016-08-27T10:26:08Z</time>
      </trkpt>
      <trkpt lat="44.1517" lon="1.75613">
        <ele>131.4</ele>
        <time>2016-08-27T10:26:10Z</time>
      </trkpt>
      <trkpt lat="44.15173" lon="1.7562">
        <ele>131.5</ele>
        <time>2016-08-27T10:26:12Z</time>
      </trkpt>
      <trkpt lat="44.15175" lon="1.75622">
        <ele>131.6</ele>
        <time>2016-08-27T10:26:13Z</time>
      </trkpt>
      <trkpt lat="44.15178" lon="1.75627">
        <ele>131.8</ele>
        <time>2016-08-27T10:26:15Z</time>
      </trkpt>
      <trkpt lat="44.1518" lon="1.75632">
        <ele>132.1</ele>
        <time>2016-08-27T10:26:17Z</time>
      </trkpt>
      <trkpt lat="44.1518" lon="1.75636">
        <ele>132.4</ele>
        <time>2016-08-27T10:26:19Z</time>
      </trkpt>
      <trkpt lat="44.15179" lon="1.7564">
        <ele>132.6</ele>
        <time>2016-08-27T10:26:21Z</time>
      </trkpt>
      <trkpt lat="44.15177" lon="1.75643">
        <ele>132.8</ele>
        <time>2016-08-27T10:26:23Z</time>
      </trkpt>
      <trkpt lat="44.15176" lon="1.75647">
        <ele>133.1</ele>
        <time>2016-08-27T10:26:26Z</time>
      </trkpt>
      <trkpt lat="44.1518" lon="1.75651">
        <ele>133.4</ele>
        <time>2016-08-27T10:26:28Z</time>
      </trkpt>
      <trkpt lat="44.15183" lon="1.75654">
        <ele>133.7</ele>
        <time>2016-08-27T10:26:30Z</time>
      </trkpt>
      <trkpt lat="44.15189" lon="1.75657">
        <ele>134.1</ele>
        <time>2016-08-27T10:26:32Z</time>
      </trkpt>
      <trkpt lat="44.15187" lon="1.75664">
        <ele>134.5</ele>
        <time>2016-08-27T10:26:36Z</time>
      </trkpt>
      <trkpt lat="44.15181" lon="1.7567">
        <ele>134.7</ele>
        <time>2016-08-27T10:26:50Z</time>
      </trkpt>
      <trkpt lat="44.15177" lon="1.75671">
        <ele>134.6</ele>
        <time>2016-08-27T10:26:52Z</time>
      </trkpt>
      <trkpt lat="44.15171" lon="1.75671">
        <ele>134.4</ele>
        <time>2016-08-27T10:26:54Z</time>
      </trkpt>
      <trkpt lat="44.15168" lon="1.75672">
        <ele>134.3</ele>
        <time>2016-08-27T10:26:55Z</time>
      </trkpt>
      <trkpt lat="44.15165" lon="1.75672">
        <ele>134.2</ele>
        <time>2016-08-27T10:26:56Z</time>
      </trkpt>
      <trkpt lat="44.15162" lon="1.75672">
        <ele>134.1</ele>
        <time>2016-08-27T10:26:57Z</time>
      </trkpt>
      <trkpt lat="44.15158" lon="1.75672">
        <ele>134</ele>
        <time>2016-08-27T10:26:58Z</time>
      </trkpt>
      <trkpt lat="44.15155" lon="1.75672">
        <ele>133.9</ele>
        <time>2016-08-27T10:26:59Z</time>
      </trkpt>
      <trkpt lat="44.15152" lon="1.75673">
        <ele>133.8</ele>
        <time>2016-08-27T10:27:00Z</time>
      </trkpt>
      <trkpt lat="44.15149" lon="1.75673">
        <ele>133.7</ele>
        <time>2016-08-27T10:27:01Z</time>
      </trkpt>
      <trkpt lat="44.15144" lon="1.75672">
        <ele>133.4</ele>
        <time>2016-08-27T10:27:03Z</time>
      </trkpt>
      <trkpt lat="44.15141" lon="1.75671">
        <ele>133.3</ele>
        <time>2016-08-27T10:27:05Z</time>
      </trkpt>
      <trkpt lat="44.15137" lon="1.7568">
        <ele>133.5</ele>
        <time>2016-08-27T10:27:27Z</time>
      </trkpt>
      <trkpt lat="44.15134" lon="1.75674">
        <ele>133.1</ele>
        <time>2016-08-27T10:27:36Z</time>
      </trkpt>
      <trkpt lat="44.15145" lon="1.75684">
        <ele>134</ele>
        <time>2016-08-27T11:29:20Z</time>
      </trkpt>
      <trkpt lat="44.15141" lon="1.75678">
        <ele>133.6</ele>
        <time>2016-08-27T11:29:22Z</time>
      </trkpt>
      <trkpt lat="44.15139" lon="1.75673">
        <ele>133.3</ele>
        <time>2016-08-27T11:29:29Z</time>
      </trkpt>
      <trkpt lat="44.15141" lon="1.7567">
        <ele>133.2</ele>
        <time>2016-08-27T11:29:50Z</time>
      </trkpt>
      <trkpt lat="44.15145" lon="1.75671">
        <ele>133.4</ele>
        <time>2016-08-27T11:29:53Z</time>
      </trkpt>
      <trkpt lat="44.15148" lon="1.7567">
        <ele>133.5</ele>
        <time>2016-08-27T11:30:02Z</time>
      </trkpt>
      <trkpt lat="44.1515" lon="1.75668">
        <ele>133.5</ele>
        <time>2016-08-27T11:30:04Z</time>
      </trkpt>
      <trkpt lat="44.15153" lon="1.75667">
        <ele>133.5</ele>
        <time>2016-08-27T11:30:06Z</time>
      </trkpt>
      <trkpt lat="44.15156" lon="1.75667">
        <ele>133.6</ele>
        <time>2016-08-27T11:30:08Z</time>
      </trkpt>
      <trkpt lat="44.15159" lon="1.75667">
        <ele>133.7</ele>
        <time>2016-08-27T11:30:10Z</time>
      </trkpt>
      <trkpt lat="44.15162" lon="1.75666">
        <ele>133.8</ele>
        <time>2016-08-27T11:30:12Z</time>
      </trkpt>
      <trkpt lat="44.15164" lon="1.75665">
        <ele>133.8</ele>
        <time>2016-08-27T11:30:14Z</time>
      </trkpt>
      <trkpt lat="44.15168" lon="1.75665">
        <ele>134</ele>
        <time>2016-08-27T11:30:17Z</time>
      </trkpt>
      <trkpt lat="44.15169" lon="1.7567">
        <ele>134.3</ele>
        <time>2016-08-27T11:30:19Z</time>
      </trkpt>
      <trkpt lat="44.1517" lon="1.75674">
        <ele>134.6</ele>
        <time>2016-08-27T11:30:21Z</time>
      </trkpt>
      <trkpt lat="44.15172" lon="1.75679">
        <ele>134.9</ele>
        <time>2016-08-27T11:30:23Z</time>
      </trkpt>
      <trkpt lat="44.15174" lon="1.75682">
        <ele>135.2</ele>
        <time>2016-08-27T11:30:25Z</time>
      </trkpt>
      <trkpt lat="44.15473" lon="1.75534">
        <ele>126.7</ele>
        <time>2016-08-27T11:51:16Z</time>
      </trkpt>
      <trkpt lat="44.15478" lon="1.75531">
        <ele>126.6</ele>
        <time>2016-08-27T11:51:17Z</time>
      </trkpt>
      <trkpt lat="44.1548" lon="1.7553">
        <ele>126.5</ele>
        <time>2016-08-27T11:51:18Z</time>
      </trkpt>
      <trkpt lat="44.15486" lon="1.75529">
        <ele>126.5</ele>
        <time>2016-08-27T11:51:20Z</time>
      </trkpt>
      <trkpt lat="44.15489" lon="1.75528">
        <ele>126.4</ele>
        <time>2016-08-27T11:51:21Z</time>
      </trkpt>
      <trkpt lat="44.15492" lon="1.75528">
        <ele>126.4</ele>
        <time>2016-08-27T11:51:22Z</time>
      </trkpt>
      <trkpt lat="44.15495" lon="1.75527">
        <ele>126.4</ele>
        <time>2016-08-27T11:51:23Z</time>
      </trkpt>
      <trkpt lat="44.15498" lon="1.75527">
        <ele>126.3</ele>
        <time>2016-08-27T11:51:24Z</time>
      </trkpt>
      <trkpt lat="44.15502" lon="1.75526">
        <ele>126.3</ele>
        <time>2016-08-27T11:51:25Z</time>
      </trkpt>
      <trkpt lat="44.15505" lon="1.75525">
        <ele>126.3</ele>
        <time>2016-08-27T11:51:26Z</time>
      </trkpt>
      <trkpt lat="44.15509" lon="1.75524">
        <ele>126.2</ele>
        <time>2016-08-27T11:51:27Z</time>
      </trkpt>
      <trkpt lat="44.15513" lon="1.75523">
        <ele>126.2</ele>
        <time>2016-08-27T11:51:28Z</time>
      </trkpt>
      <trkpt lat="44.15517" lon="1.75522">
        <ele>126.2</ele>
        <time>2016-08-27T11:51:29Z</time>
      </trkpt>
      <trkpt lat="44.15521" lon="1.75521">
        <ele>126.1</ele>
        <time>2016-08-27T11:51:30Z</time>
      </trkpt>
      <trkpt lat="44.15528" lon="1.75518">
        <ele>126.1</ele>
        <time>2016-08-27T11:51:32Z</time>
      </trkpt>
      <trkpt lat="44.15531" lon="1.75517">
        <ele>126.1</ele>
        <time>2016-08-27T11:51:33Z</time>
      </trkpt>
      <trkpt lat="44.15535" lon="1.75516">
        <ele>126</ele>
        <time>2016-08-27T11:51:34Z</time>
      </trkpt>
      <trkpt lat="44.15539" lon="1.75515">
        <ele>126</ele>
        <time>2016-08-27T11:51:35Z</time>
      </trkpt>
      <trkpt lat="44.15542" lon="1.75514">
        <ele>126</ele>
        <time>2016-08-27T11:51:36Z</time>
      </trkpt>
      <trkpt lat="44.15546" lon="1.75513">
        <ele>126</ele>
        <time>2016-08-27T11:51:37Z</time>
      </trkpt>
      <trkpt lat="44.1555" lon="1.75512">
        <ele>126</ele>
        <time>2016-08-27T11:51:38Z</time>
      </trkpt>
      <trkpt lat="44.15555" lon="1.75512">
        <ele>126</ele>
        <time>2016-08-27T11:51:39Z</time>
      </trkpt>
      <trkpt lat="44.15559" lon="1.75512">
        <ele>125.9</ele>
        <time>2016-08-27T11:51:40Z</time>
      </trkpt>
      <trkpt lat="44.15564" lon="1.75512">
        <ele>125.9</ele>
        <time>2016-08-27T11:51:41Z</time>
      </trkpt>
      <trkpt lat="44.15568" lon="1.75513">
        <ele>125.9</ele>
        <time>2016-08-27T11:51:42Z</time>
      </trkpt>
      <trkpt lat="44.15573" lon="1.75514">
        <ele>125.9</ele>
        <time>2016-08-27T11:51:43Z</time>
      </trkpt>
      <trkpt lat="44.15577" lon="1.75515">
        <ele>125.9</ele>
        <time>2016-08-27T11:51:44Z</time>
      </trkpt>
      <trkpt lat="44.15581" lon="1.75514">
        <ele>125.8</ele>
        <time>2016-08-27T11:51:45Z</time>
      </trkpt>
      <trkpt lat="44.15585" lon="1.75513">
        <ele>125.8</ele>
        <time>2016-08-27T11:51:46Z</time>
      </trkpt>
      <trkpt lat="44.15589" lon="1.7551">
        <ele>125.9</ele>
        <time>2016-08-27T11:51:47Z</time>
      </trkpt>
      <trkpt lat="44.15592" lon="1.75506">
        <ele>125.9</ele>
        <time>2016-08-27T11:51:48Z</time>
      </trkpt>
      <trkpt lat="44.15594" lon="1.75503">
        <ele>126</ele>
        <time>2016-08-27T11:51:49Z</time>
      </trkpt>
      <trkpt lat="44.15596" lon="1.75499">
        <ele>126</ele>
        <time>2016-08-27T11:51:50Z</time>
      </trkpt>
      <trkpt lat="44.15597" lon="1.75496">
        <ele>126.1</ele>
        <time>2016-08-27T11:51:51Z</time>
      </trkpt>
      <trkpt lat="44.156" lon="1.75491">
        <ele>126.2</ele>
        <time>2016-08-27T11:51:53Z</time>
      </trkpt>
      <trkpt lat="44.15603" lon="1.75485">
        <ele>126.3</ele>
        <time>2016-08-27T11:51:56Z</time>
      </trkpt>
      <trkpt lat="44.15605" lon="1.7548">
        <ele>126.4</ele>
        <time>2016-08-27T11:51:58Z</time>
      </trkpt>
      <trkpt lat="44.15608" lon="1.75475">
        <ele>126.5</ele>
        <time>2016-08-27T11:52:00Z</time>
      </trkpt>
      <trkpt lat="44.1561" lon="1.75472">
        <ele>126.6</ele>
        <time>2016-08-27T11:52:01Z</time>
      </trkpt>
      <trkpt lat="44.15613" lon="1.75469">
        <ele>126.6</ele>
        <time>2016-08-27T11:52:02Z</time>
      </trkpt>
      <trkpt lat="44.15615" lon="1.75466">
        <ele>126.7</ele>
        <time>2016-08-27T11:52:03Z</time>
      </trkpt>
      <trkpt lat="44.15617" lon="1.75462">
        <ele>126.8</ele>
        <time>2016-08-27T11:52:04Z</time>
      </trkpt>
      <trkpt lat="44.1562" lon="1.75455">
        <ele>127.4</ele>
        <time>2016-08-27T11:52:06Z</time>
      </trkpt>
      <trkpt lat="44.15621" lon="1.75452">
        <ele>127.9</ele>
        <time>2016-08-27T11:52:07Z</time>
      </trkpt>
      <trkpt lat="44.15624" lon="1.75447">
        <ele>128.6</ele>
        <time>2016-08-27T11:52:09Z</time>
      </trkpt>
      <trkpt lat="44.15627" lon="1.75442">
        <ele>129.6</ele>
        <time>2016-08-27T11:52:11Z</time>
      </trkpt>
      <trkpt lat="44.1563" lon="1.75437">
        <ele>130.8</ele>
        <time>2016-08-27T11:52:13Z</time>
      </trkpt>
      <trkpt lat="44.15633" lon="1.75433">
        <ele>132.1</ele>
        <time>2016-08-27T11:52:15Z</time>
      </trkpt>
      <trkpt lat="44.15637" lon="1.7543">
        <ele>133.2</ele>
        <time>2016-08-27T11:52:17Z</time>
      </trkpt>
      <trkpt lat="44.15641" lon="1.75428">
        <ele>134.3</ele>
        <time>2016-08-27T11:52:19Z</time>
      </trkpt>
      <trkpt lat="44.15645" lon="1.75427">
        <ele>135.2</ele>
        <time>2016-08-27T11:52:21Z</time>
      </trkpt>
      <trkpt lat="44.15649" lon="1.75427">
        <ele>135.8</ele>
        <time>2016-08-27T11:52:23Z</time>
      </trkpt>
      <trkpt lat="44.15653" lon="1.75429">
        <ele>136.2</ele>
        <time>2016-08-27T11:52:25Z</time>
      </trkpt>
      <trkpt lat="44.15657" lon="1.75431">
        <ele>136.5</ele>
        <time>2016-08-27T11:52:27Z</time>
      </trkpt>
      <trkpt lat="44.15661" lon="1.75434">
        <ele>136.6</ele>
        <time>2016-08-27T11:52:29Z</time>
      </trkpt>
      <trkpt lat="44.15665" lon="1.75437">
        <ele>136.8</ele>
        <time>2016-08-27T11:52:31Z</time>
      </trkpt>
      <trkpt lat="44.15669" lon="1.75439">
        <ele>136.9</ele>
        <time>2016-08-27T11:52:33Z</time>
      </trkpt>
      <trkpt lat="44.15673" lon="1.75441">
        <ele>137</ele>
        <time>2016-08-27T11:52:35Z</time>
      </trkpt>
      <trkpt lat="44.15679" lon="1.75445">
        <ele>137.1</ele>
        <time>2016-08-27T11:52:38Z</time>
      </trkpt>
      <trkpt lat="44.15681" lon="1.75447">
        <ele>137</ele>
        <time>2016-08-27T11:52:39Z</time>
      </trkpt>
      <trkpt lat="44.15683" lon="1.75449">
        <ele>136.9</ele>
        <time>2016-08-27T11:52:40Z</time>
      </trkpt>
      <trkpt lat="44.15688" lon="1.75452">
        <ele>136.9</ele>
        <time>2016-08-27T11:52:42Z</time>
      </trkpt>
      <trkpt lat="44.15692" lon="1.75455">
        <ele>136.7</ele>
        <time>2016-08-27T11:52:44Z</time>
      </trkpt>
      <trkpt lat="44.15696" lon="1.75457">
        <ele>136.8</ele>
        <time>2016-08-27T11:52:46Z</time>
      </trkpt>
      <trkpt lat="44.15701" lon="1.75459">
        <ele>137</ele>
        <time>2016-08-27T11:52:48Z</time>
      </trkpt>
      <trkpt lat="44.15704" lon="1.7546">
        <ele>137.3</ele>
        <time>2016-08-27T11:52:49Z</time>
      </trkpt>
      <trkpt lat="44.15707" lon="1.75461">
        <ele>137.5</ele>
        <time>2016-08-27T11:52:50Z</time>
      </trkpt>
      <trkpt lat="44.15709" lon="1.75462">
        <ele>137.6</ele>
        <time>2016-08-27T11:52:51Z</time>
      </trkpt>
      <trkpt lat="44.15712" lon="1.75464">
        <ele>137.7</ele>
        <time>2016-08-27T11:52:52Z</time>
      </trkpt>
      <trkpt lat="44.15715" lon="1.75465">
        <ele>137.8</ele>
        <time>2016-08-27T11:52:53Z</time>
      </trkpt>
      <trkpt lat="44.15718" lon="1.75467">
        <ele>137.9</ele>
        <time>2016-08-27T11:52:54Z</time>
      </trkpt>
      <trkpt lat="44.15721" lon="1.75468">
        <ele>138</ele>
        <time>2016-08-27T11:52:55Z</time>
      </trkpt>
      <trkpt lat="44.15724" lon="1.75469">
        <ele>138.1</ele>
        <time>2016-08-27T11:52:56Z</time>
      </trkpt>
      <trkpt lat="44.15727" lon="1.7547">
        <ele>138.3</ele>
        <time>2016-08-27T11:52:57Z</time>
      </trkpt>
      <trkpt lat="44.15731" lon="1.75471">
        <ele>138.5</ele>
        <time>2016-08-27T11:52:58Z</time>
      </trkpt>
      <trkpt lat="44.15734" lon="1.75473">
        <ele>138.6</ele>
        <time>2016-08-27T11:52:59Z</time>
      </trkpt>
      <trkpt lat="44.15738" lon="1.75475">
        <ele>138.6</ele>
        <time>2016-08-27T11:53:00Z</time>
      </trkpt>
      <trkpt lat="44.15742" lon="1.75477">
        <ele>138.6</ele>
        <time>2016-08-27T11:53:01Z</time>
      </trkpt>
      <trkpt lat="44.15745" lon="1.75479">
        <ele>138.7</ele>
        <time>2016-08-27T11:53:02Z</time>
      </trkpt>
      <trkpt lat="44.15749" lon="1.75481">
        <ele>138.7</ele>
        <time>2016-08-27T11:53:03Z</time>
      </trkpt>
      <trkpt lat="44.15753" lon="1.75483">
        <ele>138.7</ele>
        <time>2016-08-27T11:53:04Z</time>
      </trkpt>
      <trkpt lat="44.15756" lon="1.75485">
        <ele>138.8</ele>
        <time>2016-08-27T11:53:05Z</time>
      </trkpt>
      <trkpt lat="44.15759" lon="1.75486">
        <ele>138.8</ele>
        <time>2016-08-27T11:53:06Z</time>
      </trkpt>
      <trkpt lat="44.15763" lon="1.75488">
        <ele>138.9</ele>
        <time>2016-08-27T11:53:07Z</time>
      </trkpt>
      <trkpt lat="44.15766" lon="1.75489">
        <ele>138.9</ele>
        <time>2016-08-27T11:53:08Z</time>
      </trkpt>
      <trkpt lat="44.1577" lon="1.7549">
        <ele>139</ele>
        <time>2016-08-27T11:53:09Z</time>
      </trkpt>
      <trkpt lat="44.15773" lon="1.75491">
        <ele>139.2</ele>
        <time>2016-08-27T11:53:10Z</time>
      </trkpt>
      <trkpt lat="44.15776" lon="1.75491">
        <ele>139.4</ele>
        <time>2016-08-27T11:53:11Z</time>
      </trkpt>
      <trkpt lat="44.1578" lon="1.75492">
        <ele>139.6</ele>
        <time>2016-08-27T11:53:12Z</time>
      </trkpt>
      <trkpt lat="44.15785" lon="1.75492">
        <ele>139.9</ele>
        <time>2016-08-27T11:53:13Z</time>
      </trkpt>
      <trkpt lat="44.15789" lon="1.75493">
        <ele>140.2</ele>
        <time>2016-08-27T11:53:14Z</time>
      </trkpt>
      <trkpt lat="44.15792" lon="1.75493">
        <ele>140.4</ele>
        <time>2016-08-27T11:53:15Z</time>
      </trkpt>
      <trkpt lat="44.15796" lon="1.75493">
        <ele>140.5</ele>
        <time>2016-08-27T11:53:16Z</time>
      </trkpt>
      <trkpt lat="44.158" lon="1.75494">
        <ele>140.6</ele>
        <time>2016-08-27T11:53:17Z</time>
      </trkpt>
      <trkpt lat="44.15803" lon="1.75494">
        <ele>140.6</ele>
        <time>2016-08-27T11:53:18Z</time>
      </trkpt>
      <trkpt lat="44.15807" lon="1.75494">
        <ele>140.7</ele>
        <time>2016-08-27T11:53:19Z</time>
      </trkpt>
      <trkpt lat="44.1581" lon="1.75494">
        <ele>140.8</ele>
        <time>2016-08-27T11:53:20Z</time>
      </trkpt>
      <trkpt lat="44.15813" lon="1.75495">
        <ele>140.9</ele>
        <time>2016-08-27T11:53:21Z</time>
      </trkpt>
      <trkpt lat="44.15816" lon="1.75496">
        <ele>140.8</ele>
        <time>2016-08-27T11:53:22Z</time>
      </trkpt>
      <trkpt lat="44.1582" lon="1.75497">
        <ele>140.8</ele>
        <time>2016-08-27T11:53:24Z</time>
      </trkpt>
      <trkpt lat="44.15825" lon="1.75497">
        <ele>140.9</ele>
        <time>2016-08-27T11:53:26Z</time>
      </trkpt>
      <trkpt lat="44.15828" lon="1.75498">
        <ele>140.9</ele>
        <time>2016-08-27T11:53:27Z</time>
      </trkpt>
      <trkpt lat="44.1583" lon="1.75499">
        <ele>140.8</ele>
        <time>2016-08-27T11:53:28Z</time>
      </trkpt>
      <trkpt lat="44.15833" lon="1.75499">
        <ele>140.8</ele>
        <time>2016-08-27T11:53:29Z</time>
      </trkpt>
      <trkpt lat="44.15836" lon="1.755">
        <ele>140.9</ele>
        <time>2016-08-27T11:53:30Z</time>
      </trkpt>
      <trkpt lat="44.15839" lon="1.75501">
        <ele>140.8</ele>
        <time>2016-08-27T11:53:31Z</time>
      </trkpt>
      <trkpt lat="44.15842" lon="1.75501">
        <ele>140.9</ele>
        <time>2016-08-27T11:53:32Z</time>
      </trkpt>
      <trkpt lat="44.15845" lon="1.75502">
        <ele>141</ele>
        <time>2016-08-27T11:53:33Z</time>
      </trkpt>
      <trkpt lat="44.15849" lon="1.75503">
        <ele>140.9</ele>
        <time>2016-08-27T11:53:34Z</time>
      </trkpt>
      <trkpt lat="44.15852" lon="1.75503">
        <ele>141</ele>
        <time>2016-08-27T11:53:35Z</time>
      </trkpt>
      <trkpt lat="44.15855" lon="1.75503">
        <ele>141.1</ele>
        <time>2016-08-27T11:53:36Z</time>
      </trkpt>
      <trkpt lat="44.15858" lon="1.75503">
        <ele>141.2</ele>
        <time>2016-08-27T11:53:37Z</time>
      </trkpt>
      <trkpt lat="44.15861" lon="1.75503">
        <ele>141.4</ele>
        <time>2016-08-27T11:53:38Z</time>
      </trkpt>
      <trkpt lat="44.15866" lon="1.75504">
        <ele>141.4</ele>
        <time>2016-08-27T11:53:40Z</time>
      </trkpt>
      <trkpt lat="44.15869" lon="1.75505">
        <ele>141.3</ele>
        <time>2016-08-27T11:53:41Z</time>
      </trkpt>
      <trkpt lat="44.15874" lon="1.75506">
        <ele>141.3</ele>
        <time>2016-08-27T11:53:43Z</time>
      </trkpt>
      <trkpt lat="44.15879" lon="1.75507">
        <ele>141.1</ele>
        <time>2016-08-27T11:53:45Z</time>
      </trkpt>
      <trkpt lat="44.15884" lon="1.75508">
        <ele>140.7</ele>
        <time>2016-08-27T11:53:47Z</time>
      </trkpt>
      <trkpt lat="44.15889" lon="1.75509">
        <ele>140.4</ele>
        <time>2016-08-27T11:53:49Z</time>
      </trkpt>
      <trkpt lat="44.15894" lon="1.75509">
        <ele>140.2</ele>
        <time>2016-08-27T11:53:51Z</time>
      </trkpt>
      <trkpt lat="44.15897" lon="1.7551">
        <ele>140</ele>
        <time>2016-08-27T11:53:52Z</time>
      </trkpt>
      <trkpt lat="44.159" lon="1.75511">
        <ele>139.8</ele>
        <time>2016-08-27T11:53:53Z</time>
      </trkpt>
      <trkpt lat="44.15903" lon="1.75511">
        <ele>139.6</ele>
        <time>2016-08-27T11:53:54Z</time>
      </trkpt>
      <trkpt lat="44.15906" lon="1.75511">
        <ele>139.5</ele>
        <time>2016-08-27T11:53:55Z</time>
      </trkpt>
      <trkpt lat="44.1591" lon="1.75512">
        <ele>139.2</ele>
        <time>2016-08-27T11:53:56Z</time>
      </trkpt>
      <trkpt lat="44.15913" lon="1.75514">
        <ele>138.8</ele>
        <time>2016-08-27T11:53:57Z</time>
      </trkpt>
      <trkpt lat="44.15917" lon="1.75515">
        <ele>138.5</ele>
        <time>2016-08-27T11:53:58Z</time>
      </trkpt>
      <trkpt lat="44.1592" lon="1.75515">
        <ele>138.3</ele>
        <time>2016-08-27T11:53:59Z</time>
      </trkpt>
      <trkpt lat="44.15924" lon="1.75515">
        <ele>138.3</ele>
        <time>2016-08-27T11:54:00Z</time>
      </trkpt>
      <trkpt lat="44.15927" lon="1.75514">
        <ele>138.4</ele>
        <time>2016-08-27T11:54:01Z</time>
      </trkpt>
      <trkpt lat="44.1593" lon="1.75512">
        <ele>138.5</ele>
        <time>2016-08-27T11:54:02Z</time>
      </trkpt>
      <trkpt lat="44.15933" lon="1.75511">
        <ele>138.7</ele>
        <time>2016-08-27T11:54:03Z</time>
      </trkpt>
      <trkpt lat="44.15936" lon="1.75509">
        <ele>138.8</ele>
        <time>2016-08-27T11:54:04Z</time>
      </trkpt>
      <trkpt lat="44.15939" lon="1.75508">
        <ele>138.8</ele>
        <time>2016-08-27T11:54:05Z</time>
      </trkpt>
      <trkpt lat="44.15943" lon="1.75508">
        <ele>138.8</ele>
        <time>2016-08-27T11:54:06Z</time>
      </trkpt>
      <trkpt lat="44.15946" lon="1.75508">
        <ele>138.8</ele>
        <time>2016-08-27T11:54:07Z</time>
      </trkpt>
      <trkpt lat="44.15949" lon="1.75507">
        <ele>138.7</ele>
        <time>2016-08-27T11:54:08Z</time>
      </trkpt>
      <trkpt lat="44.15952" lon="1.75506">
        <ele>138.7</ele>
        <time>2016-08-27T11:54:09Z</time>
      </trkpt>
      <trkpt lat="44.15955" lon="1.75506">
        <ele>138.7</ele>
        <time>2016-08-27T11:54:10Z</time>
      </trkpt>
      <trkpt lat="44.15958" lon="1.75505">
        <ele>138.7</ele>
        <time>2016-08-27T11:54:11Z</time>
      </trkpt>
      <trkpt lat="44.15961" lon="1.75504">
        <ele>138.8</ele>
        <time>2016-08-27T11:54:12Z</time>
      </trkpt>
      <trkpt lat="44.15964" lon="1.75503">
        <ele>138.8</ele>
        <time>2016-08-27T11:54:13Z</time>
      </trkpt>
      <trkpt lat="44.15967" lon="1.75502">
        <ele>138.9</ele>
        <time>2016-08-27T11:54:14Z</time>
      </trkpt>
      <trkpt lat="44.1597" lon="1.75501">
        <ele>139</ele>
        <time>2016-08-27T11:54:15Z</time>
      </trkpt>
      <trkpt lat="44.15973" lon="1.755">
        <ele>139.1</ele>
        <time>2016-08-27T11:54:16Z</time>
      </trkpt>
      <trkpt lat="44.15976" lon="1.75499">
        <ele>139.1</ele>
        <time>2016-08-27T11:54:17Z</time>
      </trkpt>
      <trkpt lat="44.1598" lon="1.75499">
        <ele>139</ele>
        <time>2016-08-27T11:54:19Z</time>
      </trkpt>
      <trkpt lat="44.15983" lon="1.75499">
        <ele>139</ele>
        <time>2016-08-27T11:54:20Z</time>
      </trkpt>
      <trkpt lat="44.15986" lon="1.75498">
        <ele>139</ele>
        <time>2016-08-27T11:54:21Z</time>
      </trkpt>
      <trkpt lat="44.1599" lon="1.75497">
        <ele>139.1</ele>
        <time>2016-08-27T11:54:22Z</time>
      </trkpt>
      <trkpt lat="44.15993" lon="1.75495">
        <ele>139.2</ele>
        <time>2016-08-27T11:54:23Z</time>
      </trkpt>
      <trkpt lat="44.15996" lon="1.75494">
        <ele>139.3</ele>
        <time>2016-08-27T11:54:24Z</time>
      </trkpt>
      <trkpt lat="44.16" lon="1.75493">
        <ele>139.4</ele>
        <time>2016-08-27T11:54:25Z</time>
      </trkpt>
      <trkpt lat="44.16003" lon="1.75491">
        <ele>139.4</ele>
        <time>2016-08-27T11:54:26Z</time>
      </trkpt>
      <trkpt lat="44.16006" lon="1.7549">
        <ele>139.6</ele>
        <time>2016-08-27T11:54:27Z</time>
      </trkpt>
      <trkpt lat="44.16009" lon="1.75489">
        <ele>139.7</ele>
        <time>2016-08-27T11:54:28Z</time>
      </trkpt>
      <trkpt lat="44.16012" lon="1.75487">
        <ele>139.8</ele>
        <time>2016-08-27T11:54:29Z</time>
      </trkpt>
      <trkpt lat="44.16015" lon="1.75486">
        <ele>139.9</ele>
        <time>2016-08-27T11:54:30Z</time>
      </trkpt>
      <trkpt lat="44.16018" lon="1.75484">
        <ele>140.1</ele>
        <time>2016-08-27T11:54:31Z</time>
      </trkpt>
      <trkpt lat="44.16021" lon="1.75482">
        <ele>140.3</ele>
        <time>2016-08-27T11:54:32Z</time>
      </trkpt>
      <trkpt lat="44.16024" lon="1.7548">
        <ele>140.4</ele>
        <time>2016-08-27T11:54:33Z</time>
      </trkpt>
      <trkpt lat="44.16027" lon="1.75479">
        <ele>140.6</ele>
        <time>2016-08-27T11:54:34Z</time>
      </trkpt>
      <trkpt lat="44.1603" lon="1.75477">
        <ele>140.8</ele>
        <time>2016-08-27T11:54:35Z</time>
      </trkpt>
      <trkpt lat="44.16032" lon="1.75475">
        <ele>141</ele>
        <time>2016-08-27T11:54:36Z</time>
      </trkpt>
      <trkpt lat="44.16035" lon="1.75472">
        <ele>141.3</ele>
        <time>2016-08-27T11:54:37Z</time>
      </trkpt>
      <trkpt lat="44.16038" lon="1.7547">
        <ele>141.5</ele>
        <time>2016-08-27T11:54:38Z</time>
      </trkpt>
      <trkpt lat="44.1604" lon="1.75468">
        <ele>141.7</ele>
        <time>2016-08-27T11:54:39Z</time>
      </trkpt>
      <trkpt lat="44.16043" lon="1.75466">
        <ele>141.8</ele>
        <time>2016-08-27T11:54:40Z</time>
      </trkpt>
      <trkpt lat="44.16045" lon="1.75464">
        <ele>142.1</ele>
        <time>2016-08-27T11:54:41Z</time>
      </trkpt>
      <trkpt lat="44.16048" lon="1.75461">
        <ele>142.2</ele>
        <time>2016-08-27T11:54:43Z</time>
      </trkpt>
      <trkpt lat="44.16051" lon="1.75461">
        <ele>142.1</ele>
        <time>2016-08-27T11:54:45Z</time>
      </trkpt>
      <trkpt lat="44.1605" lon="1.75469">
        <ele>141</ele>
        <time>2016-08-27T11:55:00Z</time>
      </trkpt>
      <trkpt lat="44.16048" lon="1.75473">
        <ele>140.6</ele>
        <time>2016-08-27T11:55:02Z</time>
      </trkpt>
      <trkpt lat="44.16046" lon="1.75477">
        <ele>140.1</ele>
        <time>2016-08-27T11:55:04Z</time>
      </trkpt>
      <trkpt lat="44.16044" lon="1.75481">
        <ele>139.6</ele>
        <time>2016-08-27T11:55:05Z</time>
      </trkpt>
      <trkpt lat="44.16042" lon="1.75485">
        <ele>139.2</ele>
        <time>2016-08-27T11:55:06Z</time>
      </trkpt>
      <trkpt lat="44.1604" lon="1.75489">
        <ele>138.7</ele>
        <time>2016-08-27T11:55:07Z</time>
      </trkpt>
      <trkpt lat="44.16039" lon="1.75493">
        <ele>138.2</ele>
        <time>2016-08-27T11:55:08Z</time>
      </trkpt>
      <trkpt lat="44.16037" lon="1.75496">
        <ele>137.7</ele>
        <time>2016-08-27T11:55:09Z</time>
      </trkpt>
      <trkpt lat="44.16035" lon="1.755">
        <ele>137.2</ele>
        <time>2016-08-27T11:55:10Z</time>
      </trkpt>
      <trkpt lat="44.16032" lon="1.75504">
        <ele>136.8</ele>
        <time>2016-08-27T11:55:11Z</time>
      </trkpt>
      <trkpt lat="44.1603" lon="1.75507">
        <ele>136.3</ele>
        <time>2016-08-27T11:55:12Z</time>
      </trkpt>
      <trkpt lat="44.16028" lon="1.75511">
        <ele>135.9</ele>
        <time>2016-08-27T11:55:13Z</time>
      </trkpt>
      <trkpt lat="44.16025" lon="1.75514">
        <ele>135.4</ele>
        <time>2016-08-27T11:55:14Z</time>
      </trkpt>
      <trkpt lat="44.16022" lon="1.75518">
        <ele>135</ele>
        <time>2016-08-27T11:55:15Z</time>
      </trkpt>
      <trkpt lat="44.1602" lon="1.7552">
        <ele>134.7</ele>
        <time>2016-08-27T11:55:16Z</time>
      </trkpt>
      <trkpt lat="44.16017" lon="1.75523">
        <ele>134.3</ele>
        <time>2016-08-27T11:55:17Z</time>
      </trkpt>
      <trkpt lat="44.16014" lon="1.75526">
        <ele>133.9</ele>
        <time>2016-08-27T11:55:18Z</time>
      </trkpt>
      <trkpt lat="44.16012" lon="1.7553">
        <ele>133.5</ele>
        <time>2016-08-27T11:55:19Z</time>
      </trkpt>
      <trkpt lat="44.16009" lon="1.75533">
        <ele>133.1</ele>
        <time>2016-08-27T11:55:20Z</time>
      </trkpt>
      <trkpt lat="44.16006" lon="1.75536">
        <ele>132.8</ele>
        <time>2016-08-27T11:55:21Z</time>
      </trkpt>
      <trkpt lat="44.16004" lon="1.75539">
        <ele>132.4</ele>
        <time>2016-08-27T11:55:22Z</time>
      </trkpt>
      <trkpt lat="44.16001" lon="1.75542">
        <ele>132</ele>
        <time>2016-08-27T11:55:23Z</time>
      </trkpt>
      <trkpt lat="44.15999" lon="1.75545">
        <ele>131.9</ele>
        <time>2016-08-27T11:55:24Z</time>
      </trkpt>
      <trkpt lat="44.15997" lon="1.7555">
        <ele>131.8</ele>
        <time>2016-08-27T11:55:25Z</time>
      </trkpt>
      <trkpt lat="44.15995" lon="1.75554">
        <ele>131.7</ele>
        <time>2016-08-27T11:55:26Z</time>
      </trkpt>
      <trkpt lat="44.15994" lon="1.75559">
        <ele>131.6</ele>
        <time>2016-08-27T11:55:27Z</time>
      </trkpt>
      <trkpt lat="44.15993" lon="1.75563">
        <ele>131.5</ele>
        <time>2016-08-27T11:55:28Z</time>
      </trkpt>
      <trkpt lat="44.15992" lon="1.75568">
        <ele>131.3</ele>
        <time>2016-08-27T11:55:29Z</time>
      </trkpt>
      <trkpt lat="44.1599" lon="1.75572">
        <ele>131.2</ele>
        <time>2016-08-27T11:55:30Z</time>
      </trkpt>
      <trkpt lat="44.15989" lon="1.75577">
        <ele>131</ele>
        <time>2016-08-27T11:55:31Z</time>
      </trkpt>
      <trkpt lat="44.15987" lon="1.75581">
        <ele>130.9</ele>
        <time>2016-08-27T11:55:32Z</time>
      </trkpt>
      <trkpt lat="44.15986" lon="1.75586">
        <ele>130.7</ele>
        <time>2016-08-27T11:55:33Z</time>
      </trkpt>
      <trkpt lat="44.15984" lon="1.7559">
        <ele>130.6</ele>
        <time>2016-08-27T11:55:34Z</time>
      </trkpt>
      <trkpt lat="44.15982" lon="1.75594">
        <ele>130.4</ele>
        <time>2016-08-27T11:55:35Z</time>
      </trkpt>
      <trkpt lat="44.1598" lon="1.75598">
        <ele>130.3</ele>
        <time>2016-08-27T11:55:36Z</time>
      </trkpt>
      <trkpt lat="44.15977" lon="1.75601">
        <ele>130.2</ele>
        <time>2016-08-27T11:55:37Z</time>
      </trkpt>
      <trkpt lat="44.15974" lon="1.75604">
        <ele>130.1</ele>
        <time>2016-08-27T11:55:38Z</time>
      </trkpt>
      <trkpt lat="44.15971" lon="1.75607">
        <ele>129.9</ele>
        <time>2016-08-27T11:55:39Z</time>
      </trkpt>
      <trkpt lat="44.15968" lon="1.75609">
        <ele>129.8</ele>
        <time>2016-08-27T11:55:40Z</time>
      </trkpt>
      <trkpt lat="44.15965" lon="1.75612">
        <ele>129.7</ele>
        <time>2016-08-27T11:55:41Z</time>
      </trkpt>
      <trkpt lat="44.15962" lon="1.75615">
        <ele>129.5</ele>
        <time>2016-08-27T11:55:42Z</time>
      </trkpt>
      <trkpt lat="44.1596" lon="1.75617">
        <ele>129.4</ele>
        <time>2016-08-27T11:55:43Z</time>
      </trkpt>
      <trkpt lat="44.15957" lon="1.7562">
        <ele>129.3</ele>
        <time>2016-08-27T11:55:44Z</time>
      </trkpt>
      <trkpt lat="44.15954" lon="1.75621">
        <ele>129.2</ele>
        <time>2016-08-27T11:55:45Z</time>
      </trkpt>
      <trkpt lat="44.15949" lon="1.75622">
        <ele>129.2</ele>
        <time>2016-08-27T11:55:47Z</time>
      </trkpt>
      <trkpt lat="44.15945" lon="1.75621">
        <ele>129.2</ele>
        <time>2016-08-27T11:55:49Z</time>
      </trkpt>
      <trkpt lat="44.15941" lon="1.7562">
        <ele>129.3</ele>
        <time>2016-08-27T11:55:51Z</time>
      </trkpt>
      <trkpt lat="44.15938" lon="1.7562">
        <ele>129.3</ele>
        <time>2016-08-27T11:55:53Z</time>
      </trkpt>
      <trkpt lat="44.15941" lon="1.75621">
        <ele>129.2</ele>
        <time>2016-08-27T11:56:17Z</time>
      </trkpt>
      <trkpt lat="44.15942" lon="1.75625">
        <ele>129</ele>
        <time>2016-08-27T11:56:22Z</time>
      </trkpt>
      <trkpt lat="44.15941" lon="1.75622">
        <ele>129.2</ele>
        <time>2016-08-27T11:56:28Z</time>
      </trkpt>
      <trkpt lat="44.15939" lon="1.75618">
        <ele>129.4</ele>
        <time>2016-08-27T11:56:32Z</time>
      </trkpt>
      <trkpt lat="44.15936" lon="1.75618">
        <ele>129.4</ele>
        <time>2016-08-27T11:56:51Z</time>
      </trkpt>
      <trkpt lat="44.15932" lon="1.75618">
        <ele>129.4</ele>
        <time>2016-08-27T11:56:53Z</time>
      </trkpt>
      <trkpt lat="44.15928" lon="1.75618">
        <ele>129.4</ele>
        <time>2016-08-27T11:56:55Z</time>
      </trkpt>
      <trkpt lat="44.15924" lon="1.75617">
        <ele>129.5</ele>
        <time>2016-08-27T11:56:57Z</time>
      </trkpt>
      <trkpt lat="44.15919" lon="1.75616">
        <ele>129.5</ele>
        <time>2016-08-27T11:56:59Z</time>
      </trkpt>
      <trkpt lat="44.15915" lon="1.75618">
        <ele>129.4</ele>
        <time>2016-08-27T11:57:01Z</time>
      </trkpt>
      <trkpt lat="44.15912" lon="1.75619">
        <ele>129.3</ele>
        <time>2016-08-27T11:57:03Z</time>
      </trkpt>
      <trkpt lat="44.15908" lon="1.75622">
        <ele>129.2</ele>
        <time>2016-08-27T11:57:05Z</time>
      </trkpt>
      <trkpt lat="44.15905" lon="1.75626">
        <ele>129</ele>
        <time>2016-08-27T11:57:07Z</time>
      </trkpt>
      <trkpt lat="44.15903" lon="1.75632">
        <ele>129.2</ele>
        <time>2016-08-27T11:57:09Z</time>
      </trkpt>
      <trkpt lat="44.15902" lon="1.75639">
        <ele>129.4</ele>
        <time>2016-08-27T11:57:11Z</time>
      </trkpt>
      <trkpt lat="44.15902" lon="1.75647">
        <ele>129.6</ele>
        <time>2016-08-27T11:57:13Z</time>
      </trkpt>
      <trkpt lat="44.15902" lon="1.75651">
        <ele>129.7</ele>
        <time>2016-08-27T11:57:14Z</time>
      </trkpt>
      <trkpt lat="44.15902" lon="1.75655">
        <ele>129.8</ele>
        <time>2016-08-27T11:57:15Z</time>
      </trkpt>
      <trkpt lat="44.15901" lon="1.75658">
        <ele>129.9</ele>
        <time>2016-08-27T11:57:16Z</time>
      </trkpt>
      <trkpt lat="44.15901" lon="1.75662">
        <ele>130</ele>
        <time>2016-08-27T11:57:17Z</time>
      </trkpt>
      <trkpt lat="44.15901" lon="1.75669">
        <ele>130.2</ele>
        <time>2016-08-27T11:57:19Z</time>
      </trkpt>
      <trkpt lat="44.159" lon="1.75672">
        <ele>130.3</ele>
        <time>2016-08-27T11:57:21Z</time>
      </trkpt>
      <trkpt lat="44.15899" lon="1.75677">
        <ele>130.4</ele>
        <time>2016-08-27T11:57:24Z</time>
      </trkpt>
      <trkpt lat="44.159" lon="1.75682">
        <ele>130.6</ele>
        <time>2016-08-27T11:57:27Z</time>
      </trkpt>
      <trkpt lat="44.15891" lon="1.75685">
        <ele>130.6</ele>
        <time>2016-08-27T11:58:38Z</time>
      </trkpt>
      <trkpt lat="44.15888" lon="1.75686">
        <ele>130.6</ele>
        <time>2016-08-27T11:58:41Z</time>
      </trkpt>
      <trkpt lat="44.15885" lon="1.75686">
        <ele>130.6</ele>
        <time>2016-08-27T11:58:43Z</time>
      </trkpt>
      <trkpt lat="44.15882" lon="1.75688">
        <ele>130.6</ele>
        <time>2016-08-27T11:58:45Z</time>
      </trkpt>
      <trkpt lat="44.15878" lon="1.75689">
        <ele>130.6</ele>
        <time>2016-08-27T11:58:47Z</time>
      </trkpt>
      <trkpt lat="44.15875" lon="1.7569">
        <ele>130.6</ele>
        <time>2016-08-27T11:58:48Z</time>
      </trkpt>
      <trkpt lat="44.15873" lon="1.75691">
        <ele>130.6</ele>
        <time>2016-08-27T11:58:49Z</time>
      </trkpt>
      <trkpt lat="44.1587" lon="1.75692">
        <ele>130.6</ele>
        <time>2016-08-27T11:58:50Z</time>
      </trkpt>
      <trkpt lat="44.15866" lon="1.75692">
        <ele>130.7</ele>
        <time>2016-08-27T11:58:51Z</time>
      </trkpt>
      <trkpt lat="44.15863" lon="1.75693">
        <ele>130.7</ele>
        <time>2016-08-27T11:58:52Z</time>
      </trkpt>
      <trkpt lat="44.15859" lon="1.75693">
        <ele>130.7</ele>
        <time>2016-08-27T11:58:53Z</time>
      </trkpt>
      <trkpt lat="44.15856" lon="1.75693">
        <ele>130.8</ele>
        <time>2016-08-27T11:58:54Z</time>
      </trkpt>
      <trkpt lat="44.15852" lon="1.75694">
        <ele>130.8</ele>
        <time>2016-08-27T11:58:55Z</time>
      </trkpt>
      <trkpt lat="44.15849" lon="1.75694">
        <ele>130.9</ele>
        <time>2016-08-27T11:58:56Z</time>
      </trkpt>
      <trkpt lat="44.15845" lon="1.75694">
        <ele>130.9</ele>
        <time>2016-08-27T11:58:57Z</time>
      </trkpt>
      <trkpt lat="44.15842" lon="1.75694">
        <ele>130.9</ele>
        <time>2016-08-27T11:58:58Z</time>
      </trkpt>
      <trkpt lat="44.15838" lon="1.75694">
        <ele>131</ele>
        <time>2016-08-27T11:58:59Z</time>
      </trkpt>
      <trkpt lat="44.15835" lon="1.75695">
        <ele>131</ele>
        <time>2016-08-27T11:59:00Z</time>
      </trkpt>
      <trkpt lat="44.15831" lon="1.75695">
        <ele>131</ele>
        <time>2016-08-27T11:59:01Z</time>
      </trkpt>
      <trkpt lat="44.15827" lon="1.75695">
        <ele>131.1</ele>
        <time>2016-08-27T11:59:02Z</time>
      </trkpt>
      <trkpt lat="44.15823" lon="1.75696">
        <ele>131.1</ele>
        <time>2016-08-27T11:59:03Z</time>
      </trkpt>
      <trkpt lat="44.15819" lon="1.75696">
        <ele>131.2</ele>
        <time>2016-08-27T11:59:04Z</time>
      </trkpt>
      <trkpt lat="44.15815" lon="1.75696">
        <ele>131.2</ele>
        <time>2016-08-27T11:59:05Z</time>
      </trkpt>
      <trkpt lat="44.15811" lon="1.75696">
        <ele>131.3</ele>
        <time>2016-08-27T11:59:06Z</time>
      </trkpt>
      <trkpt lat="44.15807" lon="1.75696">
        <ele>131.3</ele>
        <time>2016-08-27T11:59:07Z</time>
      </trkpt>
      <trkpt lat="44.15804" lon="1.75697">
        <ele>131.3</ele>
        <time>2016-08-27T11:59:08Z</time>
      </trkpt>
      <trkpt lat="44.158" lon="1.75697">
        <ele>131.4</ele>
        <time>2016-08-27T11:59:09Z</time>
      </trkpt>
      <trkpt lat="44.15797" lon="1.75698">
        <ele>131.4</ele>
        <time>2016-08-27T11:59:10Z</time>
      </trkpt>
      <trkpt lat="44.15793" lon="1.75698">
        <ele>131.5</ele>
        <time>2016-08-27T11:59:11Z</time>
      </trkpt>
      <trkpt lat="44.1579" lon="1.75699">
        <ele>131.5</ele>
        <time>2016-08-27T11:59:12Z</time>
      </trkpt>
      <trkpt lat="44.15787" lon="1.75699">
        <ele>131.4</ele>
        <time>2016-08-27T11:59:13Z</time>
      </trkpt>
      <trkpt lat="44.15783" lon="1.75699">
        <ele>131.3</ele>
        <time>2016-08-27T11:59:14Z</time>
      </trkpt>
      <trkpt lat="44.1578" lon="1.757">
        <ele>131.2</ele>
        <time>2016-08-27T11:59:15Z</time>
      </trkpt>
      <trkpt lat="44.15777" lon="1.75699">
        <ele>131.1</ele>
        <time>2016-08-27T11:59:16Z</time>
      </trkpt>
      <trkpt lat="44.15774" lon="1.757">
        <ele>131</ele>
        <time>2016-08-27T11:59:17Z</time>
      </trkpt>
      <trkpt lat="44.1577" lon="1.757">
        <ele>130.9</ele>
        <time>2016-08-27T11:59:18Z</time>
      </trkpt>
      <trkpt lat="44.15767" lon="1.75701">
        <ele>130.8</ele>
        <time>2016-08-27T11:59:19Z</time>
      </trkpt>
      <trkpt lat="44.15763" lon="1.75701">
        <ele>130.7</ele>
        <time>2016-08-27T11:59:20Z</time>
      </trkpt>
      <trkpt lat="44.1576" lon="1.75701">
        <ele>130.6</ele>
        <time>2016-08-27T11:59:21Z</time>
      </trkpt>
      <trkpt lat="44.15756" lon="1.75701">
        <ele>130.5</ele>
        <time>2016-08-27T11:59:22Z</time>
      </trkpt>
      <trkpt lat="44.15753" lon="1.75702">
        <ele>130.4</ele>
        <time>2016-08-27T11:59:23Z</time>
      </trkpt>
      <trkpt lat="44.15749" lon="1.75703">
        <ele>130.3</ele>
        <time>2016-08-27T11:59:24Z</time>
      </trkpt>
      <trkpt lat="44.15746" lon="1.75703">
        <ele>130.2</ele>
        <time>2016-08-27T11:59:25Z</time>
      </trkpt>
      <trkpt lat="44.15743" lon="1.75703">
        <ele>130.1</ele>
        <time>2016-08-27T11:59:26Z</time>
      </trkpt>
      <trkpt lat="44.15737" lon="1.75703">
        <ele>129.9</ele>
        <time>2016-08-27T11:59:28Z</time>
      </trkpt>
      <trkpt lat="44.15735" lon="1.75704">
        <ele>129.8</ele>
        <time>2016-08-27T11:59:29Z</time>
      </trkpt>
      <trkpt lat="44.15732" lon="1.75704">
        <ele>129.7</ele>
        <time>2016-08-27T11:59:30Z</time>
      </trkpt>
      <trkpt lat="44.15729" lon="1.75704">
        <ele>129.6</ele>
        <time>2016-08-27T11:59:31Z</time>
      </trkpt>
      <trkpt lat="44.15725" lon="1.75703">
        <ele>129.5</ele>
        <time>2016-08-27T11:59:32Z</time>
      </trkpt>
      <trkpt lat="44.15722" lon="1.75704">
        <ele>129.4</ele>
        <time>2016-08-27T11:59:33Z</time>
      </trkpt>
      <trkpt lat="44.15719" lon="1.75703">
        <ele>129.2</ele>
        <time>2016-08-27T11:59:34Z</time>
      </trkpt>
      <trkpt lat="44.15715" lon="1.75704">
        <ele>129.1</ele>
        <time>2016-08-27T11:59:35Z</time>
      </trkpt>
      <trkpt lat="44.15712" lon="1.75705">
        <ele>129</ele>
        <time>2016-08-27T11:59:36Z</time>
      </trkpt>
      <trkpt lat="44.15708" lon="1.75706">
        <ele>128.9</ele>
        <time>2016-08-27T11:59:37Z</time>
      </trkpt>
      <trkpt lat="44.15705" lon="1.75706">
        <ele>128.9</ele>
        <time>2016-08-27T11:59:38Z</time>
      </trkpt>
      <trkpt lat="44.15702" lon="1.75707">
        <ele>128.9</ele>
        <time>2016-08-27T11:59:39Z</time>
      </trkpt>
      <trkpt lat="44.15698" lon="1.75708">
        <ele>128.9</ele>
        <time>2016-08-27T11:59:40Z</time>
      </trkpt>
      <trkpt lat="44.15695" lon="1.75709">
        <ele>128.9</ele>
        <time>2016-08-27T11:59:41Z</time>
      </trkpt>
      <trkpt lat="44.15691" lon="1.7571">
        <ele>128.9</ele>
        <time>2016-08-27T11:59:42Z</time>
      </trkpt>
      <trkpt lat="44.15687" lon="1.75712">
        <ele>128.9</ele>
        <time>2016-08-27T11:59:43Z</time>
      </trkpt>
      <trkpt lat="44.15683" lon="1.75713">
        <ele>128.9</ele>
        <time>2016-08-27T11:59:44Z</time>
      </trkpt>
      <trkpt lat="44.15679" lon="1.75713">
        <ele>128.8</ele>
        <time>2016-08-27T11:59:45Z</time>
      </trkpt>
      <trkpt lat="44.15675" lon="1.75714">
        <ele>128.8</ele>
        <time>2016-08-27T11:59:46Z</time>
      </trkpt>
      <trkpt lat="44.15671" lon="1.75715">
        <ele>128.8</ele>
        <time>2016-08-27T11:59:47Z</time>
      </trkpt>
      <trkpt lat="44.15667" lon="1.75715">
        <ele>128.8</ele>
        <time>2016-08-27T11:59:48Z</time>
      </trkpt>
      <trkpt lat="44.15663" lon="1.75716">
        <ele>128.7</ele>
        <time>2016-08-27T11:59:49Z</time>
      </trkpt>
      <trkpt lat="44.15659" lon="1.75717">
        <ele>128.7</ele>
        <time>2016-08-27T11:59:50Z</time>
      </trkpt>
      <trkpt lat="44.15655" lon="1.75717">
        <ele>128.7</ele>
        <time>2016-08-27T11:59:51Z</time>
      </trkpt>
      <trkpt lat="44.15651" lon="1.75718">
        <ele>128.6</ele>
        <time>2016-08-27T11:59:52Z</time>
      </trkpt>
      <trkpt lat="44.15646" lon="1.75719">
        <ele>128.6</ele>
        <time>2016-08-27T11:59:53Z</time>
      </trkpt>
      <trkpt lat="44.15642" lon="1.7572">
        <ele>128.5</ele>
        <time>2016-08-27T11:59:54Z</time>
      </trkpt>
      <trkpt lat="44.15637" lon="1.75721">
        <ele>128.5</ele>
        <time>2016-08-27T11:59:55Z</time>
      </trkpt>
      <trkpt lat="44.15633" lon="1.75722">
        <ele>128.4</ele>
        <time>2016-08-27T11:59:56Z</time>
      </trkpt>
      <trkpt lat="44.15629" lon="1.75723">
        <ele>128.4</ele>
        <time>2016-08-27T11:59:57Z</time>
      </trkpt>
      <trkpt lat="44.15624" lon="1.75723">
        <ele>128.4</ele>
        <time>2016-08-27T11:59:58Z</time>
      </trkpt>
      <trkpt lat="44.1562" lon="1.75724">
        <ele>128.4</ele>
        <time>2016-08-27T11:59:59Z</time>
      </trkpt>
      <trkpt lat="44.15616" lon="1.75725">
        <ele>128.4</ele>
        <time>2016-08-27T12:00:00Z</time>
      </trkpt>
      <trkpt lat="44.15611" lon="1.75726">
        <ele>128.5</ele>
        <time>2016-08-27T12:00:01Z</time>
      </trkpt>
      <trkpt lat="44.15607" lon="1.75726">
        <ele>128.5</ele>
        <time>2016-08-27T12:00:02Z</time>
      </trkpt>
      <trkpt lat="44.15603" lon="1.75727">
        <ele>128.6</ele>
        <time>2016-08-27T12:00:03Z</time>
      </trkpt>
      <trkpt lat="44.15599" lon="1.75728">
        <ele>128.6</ele>
        <time>2016-08-27T12:00:04Z</time>
      </trkpt>
      <trkpt lat="44.15595" lon="1.75729">
        <ele>128.7</ele>
        <time>2016-08-27T12:00:05Z</time>
      </trkpt>
      <trkpt lat="44.1559" lon="1.7573">
        <ele>128.7</ele>
        <time>2016-08-27T12:00:06Z</time>
      </trkpt>
      <trkpt lat="44.15586" lon="1.7573">
        <ele>128.8</ele>
        <time>2016-08-27T12:00:07Z</time>
      </trkpt>
      <trkpt lat="44.15582" lon="1.75731">
        <ele>128.8</ele>
        <time>2016-08-27T12:00:08Z</time>
      </trkpt>
      <trkpt lat="44.15577" lon="1.75732">
        <ele>128.9</ele>
        <time>2016-08-27T12:00:09Z</time>
      </trkpt>
      <trkpt lat="44.15573" lon="1.75732">
        <ele>128.9</ele>
        <time>2016-08-27T12:00:10Z</time>
      </trkpt>
      <trkpt lat="44.15569" lon="1.75733">
        <ele>129</ele>
        <time>2016-08-27T12:00:11Z</time>
      </trkpt>
      <trkpt lat="44.15564" lon="1.75733">
        <ele>129</ele>
        <time>2016-08-27T12:00:12Z</time>
      </trkpt>
      <trkpt lat="44.1556" lon="1.75733">
        <ele>129.1</ele>
        <time>2016-08-27T12:00:13Z</time>
      </trkpt>
      <trkpt lat="44.15556" lon="1.75734">
        <ele>129.1</ele>
        <time>2016-08-27T12:00:14Z</time>
      </trkpt>
      <trkpt lat="44.15552" lon="1.75734">
        <ele>129.1</ele>
        <time>2016-08-27T12:00:15Z</time>
      </trkpt>
      <trkpt lat="44.15549" lon="1.75735">
        <ele>129.2</ele>
        <time>2016-08-27T12:00:16Z</time>
      </trkpt>
      <trkpt lat="44.15546" lon="1.75736">
        <ele>129.3</ele>
        <time>2016-08-27T12:00:17Z</time>
      </trkpt>
      <trkpt lat="44.15543" lon="1.75737">
        <ele>129.4</ele>
        <time>2016-08-27T12:00:18Z</time>
      </trkpt>
      <trkpt lat="44.1554" lon="1.75739">
        <ele>129.5</ele>
        <time>2016-08-27T12:00:19Z</time>
      </trkpt>
      <trkpt lat="44.15536" lon="1.7574">
        <ele>129.5</ele>
        <time>2016-08-27T12:00:20Z</time>
      </trkpt>
      <trkpt lat="44.15533" lon="1.75741">
        <ele>129.6</ele>
        <time>2016-08-27T12:00:21Z</time>
      </trkpt>
      <trkpt lat="44.15529" lon="1.75742">
        <ele>129.7</ele>
        <time>2016-08-27T12:00:22Z</time>
      </trkpt>
      <trkpt lat="44.15526" lon="1.75743">
        <ele>129.8</ele>
        <time>2016-08-27T12:00:23Z</time>
      </trkpt>
      <trkpt lat="44.15521" lon="1.75744">
        <ele>129.9</ele>
        <time>2016-08-27T12:00:24Z</time>
      </trkpt>
      <trkpt lat="44.15517" lon="1.75745">
        <ele>129.9</ele>
        <time>2016-08-27T12:00:25Z</time>
      </trkpt>
      <trkpt lat="44.15513" lon="1.75746">
        <ele>130</ele>
        <time>2016-08-27T12:00:26Z</time>
      </trkpt>
      <trkpt lat="44.15508" lon="1.75745">
        <ele>130</ele>
        <time>2016-08-27T12:00:27Z</time>
      </trkpt>
      <trkpt lat="44.15504" lon="1.75745">
        <ele>130</ele>
        <time>2016-08-27T12:00:28Z</time>
      </trkpt>
      <trkpt lat="44.15498" lon="1.75744">
        <ele>130</ele>
        <time>2016-08-27T12:00:29Z</time>
      </trkpt>
      <trkpt lat="44.15494" lon="1.75742">
        <ele>129.9</ele>
        <time>2016-08-27T12:00:30Z</time>
      </trkpt>
      <trkpt lat="44.1549" lon="1.75739">
        <ele>129.9</ele>
        <time>2016-08-27T12:00:31Z</time>
      </trkpt>
      <trkpt lat="44.15486" lon="1.75738">
        <ele>129.9</ele>
        <time>2016-08-27T12:00:32Z</time>
      </trkpt>
      <trkpt lat="44.15482" lon="1.75736">
        <ele>129.8</ele>
        <time>2016-08-27T12:00:33Z</time>
      </trkpt>
      <trkpt lat="44.15478" lon="1.75734">
        <ele>129.8</ele>
        <time>2016-08-27T12:00:34Z</time>
      </trkpt>
      <trkpt lat="44.15474" lon="1.75732">
        <ele>129.7</ele>
        <time>2016-08-27T12:00:35Z</time>
      </trkpt>
      <trkpt lat="44.15469" lon="1.7573">
        <ele>129.7</ele>
        <time>2016-08-27T12:00:36Z</time>
      </trkpt>
      <trkpt lat="44.15465" lon="1.75729">
        <ele>129.7</ele>
        <time>2016-08-27T12:00:37Z</time>
      </trkpt>
      <trkpt lat="44.15461" lon="1.75727">
        <ele>129.6</ele>
        <time>2016-08-27T12:00:38Z</time>
      </trkpt>
      <trkpt lat="44.15457" lon="1.75725">
        <ele>129.7</ele>
        <time>2016-08-27T12:00:39Z</time>
      </trkpt>
      <trkpt lat="44.15453" lon="1.75723">
        <ele>129.8</ele>
        <time>2016-08-27T12:00:40Z</time>
      </trkpt>
      <trkpt lat="44.15449" lon="1.7572">
        <ele>129.9</ele>
        <time>2016-08-27T12:00:41Z</time>
      </trkpt>
      <trkpt lat="44.15445" lon="1.75718">
        <ele>130</ele>
        <time>2016-08-27T12:00:42Z</time>
      </trkpt>
      <trkpt lat="44.15441" lon="1.75716">
        <ele>130.1</ele>
        <time>2016-08-27T12:00:43Z</time>
      </trkpt>
      <trkpt lat="44.15437" lon="1.75715">
        <ele>130.2</ele>
        <time>2016-08-27T12:00:44Z</time>
      </trkpt>
      <trkpt lat="44.15433" lon="1.75713">
        <ele>130.4</ele>
        <time>2016-08-27T12:00:45Z</time>
      </trkpt>
      <trkpt lat="44.15429" lon="1.75711">
        <ele>130.5</ele>
        <time>2016-08-27T12:00:46Z</time>
      </trkpt>
      <trkpt lat="44.15426" lon="1.75709">
        <ele>130.6</ele>
        <time>2016-08-27T12:00:47Z</time>
      </trkpt>
      <trkpt lat="44.15422" lon="1.75707">
        <ele>130.7</ele>
        <time>2016-08-27T12:00:48Z</time>
      </trkpt>
      <trkpt lat="44.15418" lon="1.75705">
        <ele>130.8</ele>
        <time>2016-08-27T12:00:49Z</time>
      </trkpt>
      <trkpt lat="44.15415" lon="1.75703">
        <ele>130.9</ele>
        <time>2016-08-27T12:00:50Z</time>
      </trkpt>
      <trkpt lat="44.15411" lon="1.75702">
        <ele>131.1</ele>
        <time>2016-08-27T12:00:51Z</time>
      </trkpt>
      <trkpt lat="44.15409" lon="1.75698">
        <ele>131</ele>
        <time>2016-08-27T12:00:52Z</time>
      </trkpt>
      <trkpt lat="44.15405" lon="1.75696">
        <ele>131.2</ele>
        <time>2016-08-27T12:00:53Z</time>
      </trkpt>
      <trkpt lat="44.15401" lon="1.75695">
        <ele>131.3</ele>
        <time>2016-08-27T12:00:54Z</time>
      </trkpt>
      <trkpt lat="44.15398" lon="1.75692">
        <ele>131.3</ele>
        <time>2016-08-27T12:00:55Z</time>
      </trkpt>
      <trkpt lat="44.15394" lon="1.75689">
        <ele>131.5</ele>
        <time>2016-08-27T12:00:56Z</time>
      </trkpt>
      <trkpt lat="44.1539" lon="1.75688">
        <ele>131.6</ele>
        <time>2016-08-27T12:00:57Z</time>
      </trkpt>
      <trkpt lat="44.15386" lon="1.75686">
        <ele>131.7</ele>
        <time>2016-08-27T12:00:58Z</time>
      </trkpt>
      <trkpt lat="44.15383" lon="1.75683">
        <ele>131.8</ele>
        <time>2016-08-27T12:00:59Z</time>
      </trkpt>
      <trkpt lat="44.1538" lon="1.75681">
        <ele>131.8</ele>
        <time>2016-08-27T12:01:00Z</time>
      </trkpt>
      <trkpt lat="44.15376" lon="1.75679">
        <ele>131.9</ele>
        <time>2016-08-27T12:01:01Z</time>
      </trkpt>
      <trkpt lat="44.15372" lon="1.75677">
        <ele>132</ele>
        <time>2016-08-27T12:01:02Z</time>
      </trkpt>
      <trkpt lat="44.15368" lon="1.75676">
        <ele>132.2</ele>
        <time>2016-08-27T12:01:03Z</time>
      </trkpt>
      <trkpt lat="44.15365" lon="1.75674">
        <ele>132.3</ele>
        <time>2016-08-27T12:01:04Z</time>
      </trkpt>
      <trkpt lat="44.15361" lon="1.75673">
        <ele>132.4</ele>
        <time>2016-08-27T12:01:05Z</time>
      </trkpt>
      <trkpt lat="44.15358" lon="1.75671">
        <ele>132.5</ele>
        <time>2016-08-27T12:01:06Z</time>
      </trkpt>
      <trkpt lat="44.15354" lon="1.7567">
        <ele>132.6</ele>
        <time>2016-08-27T12:01:07Z</time>
      </trkpt>
      <trkpt lat="44.15351" lon="1.75669">
        <ele>132.8</ele>
        <time>2016-08-27T12:01:08Z</time>
      </trkpt>
      <trkpt lat="44.15347" lon="1.75668">
        <ele>132.9</ele>
        <time>2016-08-27T12:01:09Z</time>
      </trkpt>
      <trkpt lat="44.15344" lon="1.75667">
        <ele>133</ele>
        <time>2016-08-27T12:01:10Z</time>
      </trkpt>
      <trkpt lat="44.15341" lon="1.75666">
        <ele>133.1</ele>
        <time>2016-08-27T12:01:11Z</time>
      </trkpt>
      <trkpt lat="44.15338" lon="1.75665">
        <ele>133.2</ele>
        <time>2016-08-27T12:01:12Z</time>
      </trkpt>
      <trkpt lat="44.15335" lon="1.75663">
        <ele>133.3</ele>
        <time>2016-08-27T12:01:13Z</time>
      </trkpt>
      <trkpt lat="44.15331" lon="1.75662">
        <ele>133.4</ele>
        <time>2016-08-27T12:01:14Z</time>
      </trkpt>
      <trkpt lat="44.15328" lon="1.75661">
        <ele>133.4</ele>
        <time>2016-08-27T12:01:15Z</time>
      </trkpt>
      <trkpt lat="44.15325" lon="1.75659">
        <ele>133.5</ele>
        <time>2016-08-27T12:01:16Z</time>
      </trkpt>
      <trkpt lat="44.15322" lon="1.75658">
        <ele>133.6</ele>
        <time>2016-08-27T12:01:17Z</time>
      </trkpt>
      <trkpt lat="44.1532" lon="1.75656">
        <ele>133.6</ele>
        <time>2016-08-27T12:01:18Z</time>
      </trkpt>
      <trkpt lat="44.15317" lon="1.75655">
        <ele>133.7</ele>
        <time>2016-08-27T12:01:19Z</time>
      </trkpt>
      <trkpt lat="44.15314" lon="1.75654">
        <ele>133.8</ele>
        <time>2016-08-27T12:01:20Z</time>
      </trkpt>
      <trkpt lat="44.15311" lon="1.75654">
        <ele>133.9</ele>
        <time>2016-08-27T12:01:21Z</time>
      </trkpt>
      <trkpt lat="44.15306" lon="1.75655">
        <ele>134.1</ele>
        <time>2016-08-27T12:01:23Z</time>
      </trkpt>
      <trkpt lat="44.15303" lon="1.75657">
        <ele>134.4</ele>
        <time>2016-08-27T12:01:25Z</time>
      </trkpt>
      <trkpt lat="44.15299" lon="1.7566">
        <ele>134.8</ele>
        <time>2016-08-27T12:01:27Z</time>
      </trkpt>
      <trkpt lat="44.15296" lon="1.75665">
        <ele>135.2</ele>
        <time>2016-08-27T12:01:29Z</time>
      </trkpt>
      <trkpt lat="44.15295" lon="1.75672">
        <ele>135.7</ele>
        <time>2016-08-27T12:01:31Z</time>
      </trkpt>
      <trkpt lat="44.15294" lon="1.75678">
        <ele>136.1</ele>
        <time>2016-08-27T12:01:33Z</time>
      </trkpt>
      <trkpt lat="44.15292" lon="1.75684">
        <ele>136.5</ele>
        <time>2016-08-27T12:01:35Z</time>
      </trkpt>
      <trkpt lat="44.15291" lon="1.75691">
        <ele>137</ele>
        <time>2016-08-27T12:01:37Z</time>
      </trkpt>
      <trkpt lat="44.1529" lon="1.75698">
        <ele>137.4</ele>
        <time>2016-08-27T12:01:39Z</time>
      </trkpt>
      <trkpt lat="44.15288" lon="1.75705">
        <ele>137.8</ele>
        <time>2016-08-27T12:01:41Z</time>
      </trkpt>
      <trkpt lat="44.15285" lon="1.75711">
        <ele>138.1</ele>
        <time>2016-08-27T12:01:43Z</time>
      </trkpt>
      <trkpt lat="44.15282" lon="1.75716">
        <ele>138.2</ele>
        <time>2016-08-27T12:01:45Z</time>
      </trkpt>
      <trkpt lat="44.15279" lon="1.7572">
        <ele>138.3</ele>
        <time>2016-08-27T12:01:47Z</time>
      </trkpt>
      <trkpt lat="44.15275" lon="1.75724">
        <ele>138.5</ele>
        <time>2016-08-27T12:01:49Z</time>
      </trkpt>
      <trkpt lat="44.15272" lon="1.75728">
        <ele>138.6</ele>
        <time>2016-08-27T12:01:52Z</time>
      </trkpt>
      <trkpt lat="44.1527" lon="1.75731">
        <ele>138.7</ele>
        <time>2016-08-27T12:01:55Z</time>
      </trkpt>
      <trkpt lat="44.15267" lon="1.75732">
        <ele>138.8</ele>
        <time>2016-08-27T12:01:58Z</time>
      </trkpt>
      <trkpt lat="44.1527" lon="1.75733">
        <ele>138.7</ele>
        <time>2016-08-27T12:02:01Z</time>
      </trkpt>
      <trkpt lat="44.15273" lon="1.75732">
        <ele>138.6</ele>
        <time>2016-08-27T12:02:03Z</time>
      </trkpt>
      <trkpt lat="44.15275" lon="1.75729">
        <ele>138.5</ele>
        <time>2016-08-27T12:02:07Z</time>
      </trkpt>
      <trkpt lat="44.15275" lon="1.75725">
        <ele>138.5</ele>
        <time>2016-08-27T12:02:10Z</time>
      </trkpt>
      <trkpt lat="44.15277" lon="1.75721">
        <ele>138.4</ele>
        <time>2016-08-27T12:02:21Z</time>
      </trkpt>
      <trkpt lat="44.1528" lon="1.75723">
        <ele>138.4</ele>
        <time>2016-08-27T12:02:33Z</time>
      </trkpt>
      <trkpt lat="44.15282" lon="1.75723">
        <ele>138.3</ele>
        <time>2016-08-27T12:02:40Z</time>
      </trkpt>
      <trkpt lat="44.15279" lon="1.75736">
        <ele>138.6</ele>
        <time>2016-08-27T12:06:05Z</time>
      </trkpt>
      <trkpt lat="44.15276" lon="1.75734">
        <ele>138.6</ele>
        <time>2016-08-27T12:06:07Z</time>
      </trkpt>
      <trkpt lat="44.15273" lon="1.75737">
        <ele>138.7</ele>
        <time>2016-08-27T12:06:09Z</time>
      </trkpt>
      <trkpt lat="44.1527" lon="1.75738">
        <ele>138.8</ele>
        <time>2016-08-27T12:06:11Z</time>
      </trkpt>
      <trkpt lat="44.15267" lon="1.75739">
        <ele>138.9</ele>
        <time>2016-08-27T12:06:12Z</time>
      </trkpt>
      <trkpt lat="44.15264" lon="1.75742">
        <ele>139</ele>
        <time>2016-08-27T12:06:14Z</time>
      </trkpt>
      <trkpt lat="44.15261" lon="1.75745">
        <ele>139.1</ele>
        <time>2016-08-27T12:06:16Z</time>
      </trkpt>
      <trkpt lat="44.15258" lon="1.75747">
        <ele>139.3</ele>
        <time>2016-08-27T12:06:18Z</time>
      </trkpt>
      <trkpt lat="44.15255" lon="1.75749">
        <ele>139.4</ele>
        <time>2016-08-27T12:06:20Z</time>
      </trkpt>
      <trkpt lat="44.15251" lon="1.75751">
        <ele>139.5</ele>
        <time>2016-08-27T12:06:23Z</time>
      </trkpt>
      <trkpt lat="44.15248" lon="1.75751">
        <ele>139.6</ele>
        <time>2016-08-27T12:06:26Z</time>
      </trkpt>
      <trkpt lat="44.15245" lon="1.75752">
        <ele>139.7</ele>
        <time>2016-08-27T12:06:28Z</time>
      </trkpt>
      <trkpt lat="44.15241" lon="1.75753">
        <ele>139.8</ele>
        <time>2016-08-27T12:06:30Z</time>
      </trkpt>
      <trkpt lat="44.15238" lon="1.75754">
        <ele>139.9</ele>
        <time>2016-08-27T12:06:32Z</time>
      </trkpt>
      <trkpt lat="44.15234" lon="1.75755">
        <ele>140</ele>
        <time>2016-08-27T12:06:34Z</time>
      </trkpt>
      <trkpt lat="44.1523" lon="1.75755">
        <ele>140.1</ele>
        <time>2016-08-27T12:06:36Z</time>
      </trkpt>
      <trkpt lat="44.15225" lon="1.75755">
        <ele>140.3</ele>
        <time>2016-08-27T12:06:38Z</time>
      </trkpt>
      <trkpt lat="44.15222" lon="1.75755">
        <ele>140.3</ele>
        <time>2016-08-27T12:06:40Z</time>
      </trkpt>
      <trkpt lat="44.15219" lon="1.75754">
        <ele>140.4</ele>
        <time>2016-08-27T12:06:42Z</time>
      </trkpt>
      <trkpt lat="44.15215" lon="1.75752">
        <ele>140.4</ele>
        <time>2016-08-27T12:06:45Z</time>
      </trkpt>
      <trkpt lat="44.15212" lon="1.75753">
        <ele>140.5</ele>
        <time>2016-08-27T12:06:48Z</time>
      </trkpt>
      <trkpt lat="44.15211" lon="1.75758">
        <ele>140.7</ele>
        <time>2016-08-27T12:06:51Z</time>
      </trkpt>
      <trkpt lat="44.15213" lon="1.75756">
        <ele>140.6</ele>
        <time>2016-08-27T12:07:04Z</time>
      </trkpt>
      <trkpt lat="44.15215" lon="1.75753">
        <ele>140.4</ele>
        <time>2016-08-27T12:07:07Z</time>
      </trkpt>
      <trkpt lat="44.15216" lon="1.75749">
        <ele>140.3</ele>
        <time>2016-08-27T12:07:10Z</time>
      </trkpt>
      <trkpt lat="44.15214" lon="1.75745">
        <ele>140.2</ele>
        <time>2016-08-27T12:07:12Z</time>
      </trkpt>
      <trkpt lat="44.15212" lon="1.75742">
        <ele>140.1</ele>
        <time>2016-08-27T12:07:13Z</time>
      </trkpt>
      <trkpt lat="44.1521" lon="1.75738">
        <ele>140</ele>
        <time>2016-08-27T12:07:14Z</time>
      </trkpt>
      <trkpt lat="44.15207" lon="1.75734">
        <ele>139.9</ele>
        <time>2016-08-27T12:07:15Z</time>
      </trkpt>
      <trkpt lat="44.15205" lon="1.7573">
        <ele>139.6</ele>
        <time>2016-08-27T12:07:16Z</time>
      </trkpt>
      <trkpt lat="44.15203" lon="1.75726">
        <ele>139.4</ele>
        <time>2016-08-27T12:07:17Z</time>
      </trkpt>
      <trkpt lat="44.152" lon="1.75721">
        <ele>139</ele>
        <time>2016-08-27T12:07:19Z</time>
      </trkpt>
      <trkpt lat="44.15197" lon="1.75716">
        <ele>138.6</ele>
        <time>2016-08-27T12:07:21Z</time>
      </trkpt>
      <trkpt lat="44.15193" lon="1.75713">
        <ele>138.2</ele>
        <time>2016-08-27T12:07:23Z</time>
      </trkpt>
      <trkpt lat="44.15189" lon="1.7571">
        <ele>137.9</ele>
        <time>2016-08-27T12:07:25Z</time>
      </trkpt>
      <trkpt lat="44.15185" lon="1.75706">
        <ele>137.5</ele>
        <time>2016-08-27T12:07:27Z</time>
      </trkpt>
      <trkpt lat="44.15183" lon="1.75702">
        <ele>137</ele>
        <time>2016-08-27T12:07:29Z</time>
      </trkpt>
      <trkpt lat="44.15181" lon="1.75698">
        <ele>136.6</ele>
        <time>2016-08-27T12:07:31Z</time>
      </trkpt>
      <trkpt lat="44.15178" lon="1.75695">
        <ele>136.3</ele>
        <time>2016-08-27T12:07:33Z</time>
      </trkpt>
      <trkpt lat="44.15174" lon="1.75693">
        <ele>136</ele>
        <time>2016-08-27T12:07:35Z</time>
      </trkpt>
      <trkpt lat="44.15172" lon="1.7569">
        <ele>135.7</ele>
        <time>2016-08-27T12:07:37Z</time>
      </trkpt>
      <trkpt lat="44.1517" lon="1.75684">
        <ele>135.2</ele>
        <time>2016-08-27T12:07:39Z</time>
      </trkpt>
      <trkpt lat="44.15169" lon="1.75678">
        <ele>134.8</ele>
        <time>2016-08-27T12:07:41Z</time>
      </trkpt>
      <trkpt lat="44.15166" lon="1.75673">
        <ele>134.4</ele>
        <time>2016-08-27T12:07:43Z</time>
      </trkpt>
      <trkpt lat="44.15162" lon="1.75673">
        <ele>134.2</ele>
        <time>2016-08-27T12:07:45Z</time>
      </trkpt>
      <trkpt lat="44.15158" lon="1.75673">
        <ele>134</ele>
        <time>2016-08-27T12:07:47Z</time>
      </trkpt>
      <trkpt lat="44.15154" lon="1.75672">
        <ele>133.8</ele>
        <time>2016-08-27T12:07:49Z</time>
      </trkpt>
      <trkpt lat="44.1515" lon="1.75672">
        <ele>133.7</ele>
        <time>2016-08-27T12:07:51Z</time>
      </trkpt>
      <trkpt lat="44.15145" lon="1.75673">
        <ele>133.5</ele>
        <time>2016-08-27T12:07:53Z</time>
      </trkpt>
      <trkpt lat="44.15141" lon="1.75673">
        <ele>133.4</ele>
        <time>2016-08-27T12:07:55Z</time>
      </trkpt>
      <trkpt lat="44.15136" lon="1.75671">
        <ele>133.1</ele>
        <time>2016-08-27T12:07:57Z</time>
      </trkpt>
      <trkpt lat="44.15131" lon="1.75671">
        <ele>132.9</ele>
        <time>2016-08-27T12:07:59Z</time>
      </trkpt>
      <trkpt lat="44.15127" lon="1.75671">
        <ele>132.8</ele>
        <time>2016-08-27T12:08:01Z</time>
      </trkpt>
      <trkpt lat="44.15124" lon="1.75672">
        <ele>132.6</ele>
        <time>2016-08-27T12:08:03Z</time>
      </trkpt>
      <trkpt lat="44.15122" lon="1.75673">
        <ele>132.5</ele>
        <time>2016-08-27T12:08:05Z</time>
      </trkpt>
      <trkpt lat="44.15119" lon="1.75672">
        <ele>132.3</ele>
        <time>2016-08-27T12:08:07Z</time>
      </trkpt>
      <trkpt lat="44.15115" lon="1.7567">
        <ele>132</ele>
        <time>2016-08-27T12:08:09Z</time>
      </trkpt>
      <trkpt lat="44.15113" lon="1.75667">
        <ele>131.8</ele>
        <time>2016-08-27T12:08:11Z</time>
      </trkpt>
      <trkpt lat="44.1511" lon="1.75665">
        <ele>131.6</ele>
        <time>2016-08-27T12:08:13Z</time>
      </trkpt>
      <trkpt lat="44.15108" lon="1.75663">
        <ele>131.3</ele>
        <time>2016-08-27T12:08:16Z</time>
      </trkpt>
      <trkpt lat="44.15107" lon="1.75658">
        <ele>131.1</ele>
        <time>2016-08-27T12:08:30Z</time>
      </trkpt>
      <trkpt lat="44.15105" lon="1.75654">
        <ele>130.9</ele>
        <time>2016-08-27T12:08:34Z</time>
      </trkpt>
      <trkpt lat="44.15103" lon="1.75652">
        <ele>130.6</ele>
        <time>2016-08-27T12:08:37Z</time>
      </trkpt>
      <trkpt lat="44.15101" lon="1.75648">
        <ele>130.4</ele>
        <time>2016-08-27T12:08:39Z</time>
      </trkpt>
      <trkpt lat="44.15098" lon="1.75648">
        <ele>130.2</ele>
        <time>2016-08-27T12:08:43Z</time>
      </trkpt>
      <trkpt lat="44.15095" lon="1.75651">
        <ele>130.1</ele>
        <time>2016-08-27T12:08:46Z</time>
      </trkpt>
      <trkpt lat="44.15092" lon="1.75649">
        <ele>129.9</ele>
        <time>2016-08-27T12:08:48Z</time>
      </trkpt>
      <trkpt lat="44.15088" lon="1.75647">
        <ele>129.5</ele>
        <time>2016-08-27T12:08:50Z</time>
      </trkpt>
      <trkpt lat="44.15085" lon="1.75642">
        <ele>129.2</ele>
        <time>2016-08-27T12:08:52Z</time>
      </trkpt>
      <trkpt lat="44.15085" lon="1.75636">
        <ele>129</ele>
        <time>2016-08-27T12:08:54Z</time>
      </trkpt>
      <trkpt lat="44.15087" lon="1.75629">
        <ele>128.9</ele>
        <time>2016-08-27T12:08:56Z</time>
      </trkpt>
      <trkpt lat="44.15087" lon="1.75622">
        <ele>128.7</ele>
        <time>2016-08-27T12:08:58Z</time>
      </trkpt>
      <trkpt lat="44.15087" lon="1.75615">
        <ele>128.6</ele>
        <time>2016-08-27T12:09:00Z</time>
      </trkpt>
      <trkpt lat="44.15088" lon="1.75609">
        <ele>128.6</ele>
        <time>2016-08-27T12:09:02Z</time>
      </trkpt>
      <trkpt lat="44.15087" lon="1.75602">
        <ele>128.5</ele>
        <time>2016-08-27T12:09:04Z</time>
      </trkpt>
      <trkpt lat="44.15087" lon="1.75597">
        <ele>128.4</ele>
        <time>2016-08-27T12:09:05Z</time>
      </trkpt>
      <trkpt lat="44.15087" lon="1.75593">
        <ele>128.3</ele>
        <time>2016-08-27T12:09:06Z</time>
      </trkpt>
      <trkpt lat="44.15087" lon="1.75589">
        <ele>128.3</ele>
        <time>2016-08-27T12:09:07Z</time>
      </trkpt>
      <trkpt lat="44.15087" lon="1.75585">
        <ele>128.3</ele>
        <time>2016-08-27T12:09:08Z</time>
      </trkpt>
      <trkpt lat="44.15087" lon="1.75581">
        <ele>128.3</ele>
        <time>2016-08-27T12:09:09Z</time>
      </trkpt>
      <trkpt lat="44.15087" lon="1.75578">
        <ele>128.2</ele>
        <time>2016-08-27T12:09:10Z</time>
      </trkpt>
      <trkpt lat="44.15087" lon="1.75571">
        <ele>128.1</ele>
        <time>2016-08-27T12:09:12Z</time>
      </trkpt>
      <trkpt lat="44.15087" lon="1.75564">
        <ele>128</ele>
        <time>2016-08-27T12:09:14Z</time>
      </trkpt>
      <trkpt lat="44.15086" lon="1.75558">
        <ele>127.9</ele>
        <time>2016-08-27T12:09:16Z</time>
      </trkpt>
      <trkpt lat="44.15086" lon="1.75553">
        <ele>127.8</ele>
        <time>2016-08-27T12:09:18Z</time>
      </trkpt>
      <trkpt lat="44.15087" lon="1.75548">
        <ele>127.9</ele>
        <time>2016-08-27T12:09:20Z</time>
      </trkpt>
      <trkpt lat="44.1509" lon="1.75545">
        <ele>128.1</ele>
        <time>2016-08-27T12:09:30Z</time>
      </trkpt>
      <trkpt lat="44.15091" lon="1.75541">
        <ele>128.1</ele>
        <time>2016-08-27T12:09:32Z</time>
      </trkpt>
      <trkpt lat="44.15087" lon="1.7554">
        <ele>127.8</ele>
        <time>2016-08-27T12:09:35Z</time>
      </trkpt>
      <trkpt lat="44.15082" lon="1.75542">
        <ele>127.4</ele>
        <time>2016-08-27T12:09:37Z</time>
      </trkpt>
      <trkpt lat="44.15079" lon="1.75543">
        <ele>127.2</ele>
        <time>2016-08-27T12:09:38Z</time>
      </trkpt>
      <trkpt lat="44.15077" lon="1.75545">
        <ele>127</ele>
        <time>2016-08-27T12:09:39Z</time>
      </trkpt>
      <trkpt lat="44.15073" lon="1.75547">
        <ele>126.7</ele>
        <time>2016-08-27T12:09:41Z</time>
      </trkpt>
      <trkpt lat="44.15069" lon="1.75548">
        <ele>126.4</ele>
        <time>2016-08-27T12:09:43Z</time>
      </trkpt>
      <trkpt lat="44.15064" lon="1.75544">
        <ele>125.9</ele>
        <time>2016-08-27T12:09:45Z</time>
      </trkpt>
      <trkpt lat="44.15063" lon="1.75541">
        <ele>125.8</ele>
        <time>2016-08-27T12:09:46Z</time>
      </trkpt>
      <trkpt lat="44.1506" lon="1.75538">
        <ele>125.6</ele>
        <time>2016-08-27T12:09:47Z</time>
      </trkpt>
      <trkpt lat="44.15056" lon="1.75533">
        <ele>125.4</ele>
        <time>2016-08-27T12:09:49Z</time>
      </trkpt>
      <trkpt lat="44.15054" lon="1.75529">
        <ele>125.4</ele>
        <time>2016-08-27T12:09:50Z</time>
      </trkpt>
      <trkpt lat="44.15052" lon="1.75527">
        <ele>125.3</ele>
        <time>2016-08-27T12:09:51Z</time>
      </trkpt>
      <trkpt lat="44.15049" lon="1.75523">
        <ele>125.2</ele>
        <time>2016-08-27T12:09:53Z</time>
      </trkpt>
      <trkpt lat="44.15048" lon="1.7552">
        <ele>125.2</ele>
        <time>2016-08-27T12:10:01Z</time>
      </trkpt>
      <trkpt lat="44.15044" lon="1.75517">
        <ele>125</ele>
        <time>2016-08-27T12:10:03Z</time>
      </trkpt>
      <trkpt lat="44.15041" lon="1.75517">
        <ele>125.1</ele>
        <time>2016-08-27T12:10:04Z</time>
      </trkpt>
      <trkpt lat="44.15038" lon="1.75518">
        <ele>125.7</ele>
        <time>2016-08-27T12:10:05Z</time>
      </trkpt>
      <trkpt lat="44.15035" lon="1.75519">
        <ele>126.3</ele>
        <time>2016-08-27T12:10:06Z</time>
      </trkpt>
      <trkpt lat="44.15032" lon="1.7552">
        <ele>126.9</ele>
        <time>2016-08-27T12:10:07Z</time>
      </trkpt>
      <trkpt lat="44.1503" lon="1.75521">
        <ele>127.5</ele>
        <time>2016-08-27T12:10:08Z</time>
      </trkpt>
      <trkpt lat="44.15025" lon="1.7552">
        <ele>128.8</ele>
        <time>2016-08-27T12:10:10Z</time>
      </trkpt>
      <trkpt lat="44.1502" lon="1.75517">
        <ele>130.1</ele>
        <time>2016-08-27T12:10:12Z</time>
      </trkpt>
      <trkpt lat="44.15015" lon="1.75514">
        <ele>131.3</ele>
        <time>2016-08-27T12:10:14Z</time>
      </trkpt>
      <trkpt lat="44.15011" lon="1.75512">
        <ele>132.4</ele>
        <time>2016-08-27T12:10:16Z</time>
      </trkpt>
      <trkpt lat="44.15006" lon="1.75511">
        <ele>133.6</ele>
        <time>2016-08-27T12:10:18Z</time>
      </trkpt>
      <trkpt lat="44.15001" lon="1.7551">
        <ele>134.7</ele>
        <time>2016-08-27T12:10:20Z</time>
      </trkpt>
      <trkpt lat="44.14997" lon="1.75509">
        <ele>135.9</ele>
        <time>2016-08-27T12:10:22Z</time>
      </trkpt>
      <trkpt lat="44.14992" lon="1.75508">
        <ele>137</ele>
        <time>2016-08-27T12:10:24Z</time>
      </trkpt>
      <trkpt lat="44.14988" lon="1.75507">
        <ele>138.1</ele>
        <time>2016-08-27T12:10:26Z</time>
      </trkpt>
      <trkpt lat="44.14984" lon="1.75505">
        <ele>139.2</ele>
        <time>2016-08-27T12:10:28Z</time>
      </trkpt>
      <trkpt lat="44.1498" lon="1.75503">
        <ele>140.2</ele>
        <time>2016-08-27T12:10:30Z</time>
      </trkpt>
      <trkpt lat="44.14976" lon="1.75501">
        <ele>141.3</ele>
        <time>2016-08-27T12:10:32Z</time>
      </trkpt>
      <trkpt lat="44.14972" lon="1.75499">
        <ele>142.4</ele>
        <time>2016-08-27T12:10:34Z</time>
      </trkpt>
      <trkpt lat="44.14967" lon="1.75497">
        <ele>143.6</ele>
        <time>2016-08-27T12:10:36Z</time>
      </trkpt>
      <trkpt lat="44.14963" lon="1.75494">
        <ele>144.7</ele>
        <time>2016-08-27T12:10:38Z</time>
      </trkpt>
      <trkpt lat="44.14959" lon="1.75491">
        <ele>145.9</ele>
        <time>2016-08-27T12:10:40Z</time>
      </trkpt>
      <trkpt lat="44.14955" lon="1.75489">
        <ele>147.9</ele>
        <time>2016-08-27T12:10:42Z</time>
      </trkpt>
      <trkpt lat="44.1495" lon="1.75488">
        <ele>150</ele>
        <time>2016-08-27T12:10:44Z</time>
      </trkpt>
      <trkpt lat="44.14947" lon="1.75487">
        <ele>151.4</ele>
        <time>2016-08-27T12:10:46Z</time>
      </trkpt>
      <trkpt lat="44.14949" lon="1.75483">
        <ele>150.7</ele>
        <time>2016-08-27T12:10:51Z</time>
      </trkpt>
      <trkpt lat="44.14945" lon="1.75474">
        <ele>153.6</ele>
        <time>2016-08-27T12:13:20Z</time>
      </trkpt>
      <trkpt lat="44.14941" lon="1.75471">
        <ele>155.5</ele>
        <time>2016-08-27T12:13:22Z</time>
      </trkpt>
      <trkpt lat="44.14938" lon="1.75468">
        <ele>157.2</ele>
        <time>2016-08-27T12:13:24Z</time>
      </trkpt>
      <trkpt lat="44.14935" lon="1.75463">
        <ele>158.9</ele>
        <time>2016-08-27T12:13:26Z</time>
      </trkpt>
      <trkpt lat="44.14934" lon="1.75457">
        <ele>160</ele>
        <time>2016-08-27T12:13:28Z</time>
      </trkpt>
      <trkpt lat="44.14934" lon="1.75449">
        <ele>160.5</ele>
        <time>2016-08-27T12:13:30Z</time>
      </trkpt>
      <trkpt lat="44.14934" lon="1.75445">
        <ele>160.7</ele>
        <time>2016-08-27T12:13:31Z</time>
      </trkpt>
      <trkpt lat="44.14934" lon="1.75441">
        <ele>160.9</ele>
        <time>2016-08-27T12:13:32Z</time>
      </trkpt>
      <trkpt lat="44.14935" lon="1.75437">
        <ele>160.9</ele>
        <time>2016-08-27T12:13:33Z</time>
      </trkpt>
      <trkpt lat="44.14935" lon="1.75433">
        <ele>160.7</ele>
        <time>2016-08-27T12:13:34Z</time>
      </trkpt>
      <trkpt lat="44.14937" lon="1.75427">
        <ele>160.5</ele>
        <time>2016-08-27T12:13:35Z</time>
      </trkpt>
      <trkpt lat="44.14938" lon="1.75422">
        <ele>160.1</ele>
        <time>2016-08-27T12:13:36Z</time>
      </trkpt>
      <trkpt lat="44.14939" lon="1.75417">
        <ele>159.7</ele>
        <time>2016-08-27T12:13:37Z</time>
      </trkpt>
      <trkpt lat="44.1494" lon="1.75411">
        <ele>159.5</ele>
        <time>2016-08-27T12:13:38Z</time>
      </trkpt>
      <trkpt lat="44.14941" lon="1.75406">
        <ele>159.4</ele>
        <time>2016-08-27T12:13:39Z</time>
      </trkpt>
      <trkpt lat="44.14942" lon="1.75401">
        <ele>159.4</ele>
        <time>2016-08-27T12:13:40Z</time>
      </trkpt>
      <trkpt lat="44.14943" lon="1.75396">
        <ele>159.3</ele>
        <time>2016-08-27T12:13:41Z</time>
      </trkpt>
      <trkpt lat="44.14943" lon="1.75392">
        <ele>159.3</ele>
        <time>2016-08-27T12:13:42Z</time>
      </trkpt>
      <trkpt lat="44.14944" lon="1.75388">
        <ele>159.3</ele>
        <time>2016-08-27T12:13:43Z</time>
      </trkpt>
      <trkpt lat="44.14944" lon="1.75383">
        <ele>159.3</ele>
        <time>2016-08-27T12:13:44Z</time>
      </trkpt>
      <trkpt lat="44.14945" lon="1.75378">
        <ele>159.3</ele>
        <time>2016-08-27T12:13:45Z</time>
      </trkpt>
      <trkpt lat="44.14945" lon="1.75373">
        <ele>159.2</ele>
        <time>2016-08-27T12:13:46Z</time>
      </trkpt>
      <trkpt lat="44.14946" lon="1.75368">
        <ele>159.1</ele>
        <time>2016-08-27T12:13:47Z</time>
      </trkpt>
      <trkpt lat="44.14946" lon="1.75363">
        <ele>158.8</ele>
        <time>2016-08-27T12:13:48Z</time>
      </trkpt>
      <trkpt lat="44.14947" lon="1.75358">
        <ele>158.5</ele>
        <time>2016-08-27T12:13:49Z</time>
      </trkpt>
      <trkpt lat="44.14948" lon="1.75353">
        <ele>158</ele>
        <time>2016-08-27T12:13:50Z</time>
      </trkpt>
      <trkpt lat="44.14949" lon="1.75348">
        <ele>157.5</ele>
        <time>2016-08-27T12:13:51Z</time>
      </trkpt>
      <trkpt lat="44.1495" lon="1.75343">
        <ele>157.1</ele>
        <time>2016-08-27T12:13:52Z</time>
      </trkpt>
      <trkpt lat="44.14951" lon="1.75337">
        <ele>156.9</ele>
        <time>2016-08-27T12:13:53Z</time>
      </trkpt>
      <trkpt lat="44.14951" lon="1.75332">
        <ele>156.8</ele>
        <time>2016-08-27T12:13:54Z</time>
      </trkpt>
      <trkpt lat="44.14951" lon="1.75327">
        <ele>156.7</ele>
        <time>2016-08-27T12:13:55Z</time>
      </trkpt>
      <trkpt lat="44.14952" lon="1.75322">
        <ele>156.6</ele>
        <time>2016-08-27T12:13:56Z</time>
      </trkpt>
      <trkpt lat="44.14952" lon="1.75317">
        <ele>156.3</ele>
        <time>2016-08-27T12:13:57Z</time>
      </trkpt>
      <trkpt lat="44.14953" lon="1.75312">
        <ele>155.9</ele>
        <time>2016-08-27T12:13:58Z</time>
      </trkpt>
      <trkpt lat="44.14954" lon="1.75306">
        <ele>155.6</ele>
        <time>2016-08-27T12:13:59Z</time>
      </trkpt>
      <trkpt lat="44.14954" lon="1.75301">
        <ele>155.2</ele>
        <time>2016-08-27T12:14:00Z</time>
      </trkpt>
      <trkpt lat="44.14955" lon="1.75296">
        <ele>154.8</ele>
        <time>2016-08-27T12:14:01Z</time>
      </trkpt>
      <trkpt lat="44.14956" lon="1.75291">
        <ele>154.4</ele>
        <time>2016-08-27T12:14:02Z</time>
      </trkpt>
      <trkpt lat="44.14957" lon="1.75285">
        <ele>153.9</ele>
        <time>2016-08-27T12:14:03Z</time>
      </trkpt>
      <trkpt lat="44.14958" lon="1.7528">
        <ele>153.4</ele>
        <time>2016-08-27T12:14:04Z</time>
      </trkpt>
      <trkpt lat="44.14958" lon="1.75274">
        <ele>153</ele>
        <time>2016-08-27T12:14:05Z</time>
      </trkpt>
      <trkpt lat="44.14959" lon="1.75269">
        <ele>152.9</ele>
        <time>2016-08-27T12:14:06Z</time>
      </trkpt>
      <trkpt lat="44.14959" lon="1.75264">
        <ele>152.8</ele>
        <time>2016-08-27T12:14:07Z</time>
      </trkpt>
      <trkpt lat="44.1496" lon="1.75259">
        <ele>152.6</ele>
        <time>2016-08-27T12:14:08Z</time>
      </trkpt>
      <trkpt lat="44.1496" lon="1.75255">
        <ele>152.5</ele>
        <time>2016-08-27T12:14:09Z</time>
      </trkpt>
      <trkpt lat="44.1496" lon="1.75251">
        <ele>152.5</ele>
        <time>2016-08-27T12:14:10Z</time>
      </trkpt>
      <trkpt lat="44.1496" lon="1.75246">
        <ele>152.6</ele>
        <time>2016-08-27T12:14:11Z</time>
      </trkpt>
      <trkpt lat="44.1496" lon="1.75242">
        <ele>152.6</ele>
        <time>2016-08-27T12:14:12Z</time>
      </trkpt>
      <trkpt lat="44.1496" lon="1.75237">
        <ele>152.6</ele>
        <time>2016-08-27T12:14:13Z</time>
      </trkpt>
      <trkpt lat="44.1496" lon="1.75232">
        <ele>152.5</ele>
        <time>2016-08-27T12:14:14Z</time>
      </trkpt>
      <trkpt lat="44.14961" lon="1.75227">
        <ele>152.3</ele>
        <time>2016-08-27T12:14:15Z</time>
      </trkpt>
      <trkpt lat="44.14962" lon="1.75223">
        <ele>152.1</ele>
        <time>2016-08-27T12:14:16Z</time>
      </trkpt>
      <trkpt lat="44.14964" lon="1.75218">
        <ele>151.6</ele>
        <time>2016-08-27T12:14:17Z</time>
      </trkpt>
      <trkpt lat="44.14967" lon="1.75215">
        <ele>150.9</ele>
        <time>2016-08-27T12:14:18Z</time>
      </trkpt>
      <trkpt lat="44.1497" lon="1.75211">
        <ele>150.2</ele>
        <time>2016-08-27T12:14:19Z</time>
      </trkpt>
      <trkpt lat="44.14973" lon="1.75208">
        <ele>149.4</ele>
        <time>2016-08-27T12:14:20Z</time>
      </trkpt>
      <trkpt lat="44.14976" lon="1.75205">
        <ele>148.5</ele>
        <time>2016-08-27T12:14:21Z</time>
      </trkpt>
      <trkpt lat="44.14978" lon="1.75202">
        <ele>147.7</ele>
        <time>2016-08-27T12:14:22Z</time>
      </trkpt>
      <trkpt lat="44.1498" lon="1.75198">
        <ele>147.1</ele>
        <time>2016-08-27T12:14:23Z</time>
      </trkpt>
      <trkpt lat="44.14981" lon="1.75194">
        <ele>146.6</ele>
        <time>2016-08-27T12:14:24Z</time>
      </trkpt>
      <trkpt lat="44.14982" lon="1.75189">
        <ele>146.1</ele>
        <time>2016-08-27T12:14:25Z</time>
      </trkpt>
      <trkpt lat="44.14983" lon="1.75185">
        <ele>145.6</ele>
        <time>2016-08-27T12:14:26Z</time>
      </trkpt>
      <trkpt lat="44.14985" lon="1.75181">
        <ele>145</ele>
        <time>2016-08-27T12:14:27Z</time>
      </trkpt>
      <trkpt lat="44.14987" lon="1.75176">
        <ele>144.3</ele>
        <time>2016-08-27T12:14:28Z</time>
      </trkpt>
      <trkpt lat="44.14988" lon="1.75172">
        <ele>143.8</ele>
        <time>2016-08-27T12:14:29Z</time>
      </trkpt>
      <trkpt lat="44.14989" lon="1.75167">
        <ele>143.2</ele>
        <time>2016-08-27T12:14:30Z</time>
      </trkpt>
      <trkpt lat="44.14992" lon="1.75156">
        <ele>142.1</ele>
        <time>2016-08-27T12:14:31Z</time>
      </trkpt>
      <trkpt lat="44.14994" lon="1.75148">
        <ele>141.4</ele>
        <time>2016-08-27T12:14:32Z</time>
      </trkpt>
      <trkpt lat="44.14994" lon="1.75141">
        <ele>140.9</ele>
        <time>2016-08-27T12:14:33Z</time>
      </trkpt>
      <trkpt lat="44.14996" lon="1.75133">
        <ele>140.3</ele>
        <time>2016-08-27T12:14:34Z</time>
      </trkpt>
      <trkpt lat="44.14998" lon="1.75126">
        <ele>139.4</ele>
        <time>2016-08-27T12:14:35Z</time>
      </trkpt>
      <trkpt lat="44.14999" lon="1.75118">
        <ele>139</ele>
        <time>2016-08-27T12:14:36Z</time>
      </trkpt>
      <trkpt lat="44.14999" lon="1.75112">
        <ele>138.7</ele>
        <time>2016-08-27T12:14:37Z</time>
      </trkpt>
      <trkpt lat="44.14999" lon="1.75106">
        <ele>138.4</ele>
        <time>2016-08-27T12:14:38Z</time>
      </trkpt>
      <trkpt lat="44.15" lon="1.75099">
        <ele>137.7</ele>
        <time>2016-08-27T12:14:39Z</time>
      </trkpt>
      <trkpt lat="44.15002" lon="1.75093">
        <ele>137.1</ele>
        <time>2016-08-27T12:14:40Z</time>
      </trkpt>
      <trkpt lat="44.15002" lon="1.75088">
        <ele>136.8</ele>
        <time>2016-08-27T12:14:41Z</time>
      </trkpt>
      <trkpt lat="44.15002" lon="1.75081">
        <ele>136.5</ele>
        <time>2016-08-27T12:14:42Z</time>
      </trkpt>
      <trkpt lat="44.15002" lon="1.75075">
        <ele>136.2</ele>
        <time>2016-08-27T12:14:43Z</time>
      </trkpt>
      <trkpt lat="44.15002" lon="1.75071">
        <ele>136</ele>
        <time>2016-08-27T12:14:44Z</time>
      </trkpt>
      <trkpt lat="44.15003" lon="1.75064">
        <ele>135.5</ele>
        <time>2016-08-27T12:14:45Z</time>
      </trkpt>
      <trkpt lat="44.15003" lon="1.75057">
        <ele>135.2</ele>
        <time>2016-08-27T12:14:46Z</time>
      </trkpt>
      <trkpt lat="44.15003" lon="1.75051">
        <ele>134.8</ele>
        <time>2016-08-27T12:14:47Z</time>
      </trkpt>
      <trkpt lat="44.15004" lon="1.75045">
        <ele>134.5</ele>
        <time>2016-08-27T12:14:48Z</time>
      </trkpt>
      <trkpt lat="44.15003" lon="1.75039">
        <ele>134.3</ele>
        <time>2016-08-27T12:14:49Z</time>
      </trkpt>
      <trkpt lat="44.15003" lon="1.75033">
        <ele>134</ele>
        <time>2016-08-27T12:14:50Z</time>
      </trkpt>
      <trkpt lat="44.15003" lon="1.75026">
        <ele>133.9</ele>
        <time>2016-08-27T12:14:51Z</time>
      </trkpt>
      <trkpt lat="44.15002" lon="1.7502">
        <ele>133.8</ele>
        <time>2016-08-27T12:14:52Z</time>
      </trkpt>
      <trkpt lat="44.15001" lon="1.75013">
        <ele>133.6</ele>
        <time>2016-08-27T12:14:53Z</time>
      </trkpt>
      <trkpt lat="44.15" lon="1.75006">
        <ele>133.5</ele>
        <time>2016-08-27T12:14:54Z</time>
      </trkpt>
      <trkpt lat="44.15" lon="1.75">
        <ele>133.3</ele>
        <time>2016-08-27T12:14:55Z</time>
      </trkpt>
      <trkpt lat="44.14999" lon="1.74993">
        <ele>133.1</ele>
        <time>2016-08-27T12:14:56Z</time>
      </trkpt>
      <trkpt lat="44.14998" lon="1.74987">
        <ele>133</ele>
        <time>2016-08-27T12:14:57Z</time>
      </trkpt>
      <trkpt lat="44.14997" lon="1.7498">
        <ele>132.8</ele>
        <time>2016-08-27T12:14:58Z</time>
      </trkpt>
      <trkpt lat="44.14997" lon="1.74974">
        <ele>132.5</ele>
        <time>2016-08-27T12:14:59Z</time>
      </trkpt>
      <trkpt lat="44.14996" lon="1.74967">
        <ele>132.4</ele>
        <time>2016-08-27T12:15:00Z</time>
      </trkpt>
      <trkpt lat="44.14995" lon="1.74962">
        <ele>132.2</ele>
        <time>2016-08-27T12:15:01Z</time>
      </trkpt>
      <trkpt lat="44.14994" lon="1.74956">
        <ele>132.1</ele>
        <time>2016-08-27T12:15:02Z</time>
      </trkpt>
      <trkpt lat="44.14993" lon="1.74951">
        <ele>132</ele>
        <time>2016-08-27T12:15:03Z</time>
      </trkpt>
      <trkpt lat="44.14992" lon="1.74945">
        <ele>132</ele>
        <time>2016-08-27T12:15:04Z</time>
      </trkpt>
      <trkpt lat="44.14992" lon="1.7494">
        <ele>131.9</ele>
        <time>2016-08-27T12:15:05Z</time>
      </trkpt>
      <trkpt lat="44.14991" lon="1.74934">
        <ele>131.8</ele>
        <time>2016-08-27T12:15:06Z</time>
      </trkpt>
      <trkpt lat="44.14991" lon="1.74927">
        <ele>131.7</ele>
        <time>2016-08-27T12:15:07Z</time>
      </trkpt>
      <trkpt lat="44.14991" lon="1.74923">
        <ele>131.6</ele>
        <time>2016-08-27T12:15:08Z</time>
      </trkpt>
      <trkpt lat="44.14989" lon="1.74918">
        <ele>131.6</ele>
        <time>2016-08-27T12:15:09Z</time>
      </trkpt>
      <trkpt lat="44.14988" lon="1.74911">
        <ele>131.5</ele>
        <time>2016-08-27T12:15:10Z</time>
      </trkpt>
      <trkpt lat="44.14987" lon="1.74905">
        <ele>131.5</ele>
        <time>2016-08-27T12:15:11Z</time>
      </trkpt>
      <trkpt lat="44.14986" lon="1.749">
        <ele>131.4</ele>
        <time>2016-08-27T12:15:12Z</time>
      </trkpt>
      <trkpt lat="44.14985" lon="1.74894">
        <ele>131.3</ele>
        <time>2016-08-27T12:15:13Z</time>
      </trkpt>
      <trkpt lat="44.14983" lon="1.74889">
        <ele>131.3</ele>
        <time>2016-08-27T12:15:14Z</time>
      </trkpt>
      <trkpt lat="44.14982" lon="1.74883">
        <ele>131.3</ele>
        <time>2016-08-27T12:15:15Z</time>
      </trkpt>
      <trkpt lat="44.14982" lon="1.74878">
        <ele>131.1</ele>
        <time>2016-08-27T12:15:16Z</time>
      </trkpt>
      <trkpt lat="44.14982" lon="1.74871">
        <ele>130.9</ele>
        <time>2016-08-27T12:15:17Z</time>
      </trkpt>
      <trkpt lat="44.14981" lon="1.74865">
        <ele>130.9</ele>
        <time>2016-08-27T12:15:18Z</time>
      </trkpt>
      <trkpt lat="44.1498" lon="1.74861">
        <ele>130.8</ele>
        <time>2016-08-27T12:15:19Z</time>
      </trkpt>
      <trkpt lat="44.14979" lon="1.74856">
        <ele>130.8</ele>
        <time>2016-08-27T12:15:20Z</time>
      </trkpt>
      <trkpt lat="44.14978" lon="1.7485">
        <ele>130.7</ele>
        <time>2016-08-27T12:15:21Z</time>
      </trkpt>
      <trkpt lat="44.14977" lon="1.74844">
        <ele>130.7</ele>
        <time>2016-08-27T12:15:22Z</time>
      </trkpt>
      <trkpt lat="44.14976" lon="1.74838">
        <ele>130.6</ele>
        <time>2016-08-27T12:15:23Z</time>
      </trkpt>
      <trkpt lat="44.14974" lon="1.74832">
        <ele>130.5</ele>
        <time>2016-08-27T12:15:24Z</time>
      </trkpt>
      <trkpt lat="44.14973" lon="1.74826">
        <ele>130.4</ele>
        <time>2016-08-27T12:15:25Z</time>
      </trkpt>
      <trkpt lat="44.14972" lon="1.74821">
        <ele>130.3</ele>
        <time>2016-08-27T12:15:26Z</time>
      </trkpt>
      <trkpt lat="44.14971" lon="1.74815">
        <ele>130.2</ele>
        <time>2016-08-27T12:15:27Z</time>
      </trkpt>
      <trkpt lat="44.1497" lon="1.7481">
        <ele>130.1</ele>
        <time>2016-08-27T12:15:28Z</time>
      </trkpt>
      <trkpt lat="44.14968" lon="1.74804">
        <ele>130</ele>
        <time>2016-08-27T12:15:29Z</time>
      </trkpt>
      <trkpt lat="44.14967" lon="1.748">
        <ele>130</ele>
        <time>2016-08-27T12:15:30Z</time>
      </trkpt>
      <trkpt lat="44.14965" lon="1.74794">
        <ele>129.8</ele>
        <time>2016-08-27T12:15:31Z</time>
      </trkpt>
      <trkpt lat="44.14964" lon="1.74789">
        <ele>129.8</ele>
        <time>2016-08-27T12:15:32Z</time>
      </trkpt>
      <trkpt lat="44.14962" lon="1.74784">
        <ele>129.8</ele>
        <time>2016-08-27T12:15:33Z</time>
      </trkpt>
      <trkpt lat="44.1496" lon="1.74779">
        <ele>129.8</ele>
        <time>2016-08-27T12:15:34Z</time>
      </trkpt>
      <trkpt lat="44.14959" lon="1.74773">
        <ele>129.8</ele>
        <time>2016-08-27T12:15:35Z</time>
      </trkpt>
      <trkpt lat="44.14957" lon="1.74768">
        <ele>130</ele>
        <time>2016-08-27T12:15:36Z</time>
      </trkpt>
      <trkpt lat="44.14957" lon="1.74761">
        <ele>130.1</ele>
        <time>2016-08-27T12:15:37Z</time>
      </trkpt>
      <trkpt lat="44.14956" lon="1.74756">
        <ele>130.4</ele>
        <time>2016-08-27T12:15:38Z</time>
      </trkpt>
      <trkpt lat="44.14955" lon="1.74746">
        <ele>130.6</ele>
        <time>2016-08-27T12:15:39Z</time>
      </trkpt>
      <trkpt lat="44.14953" lon="1.7474">
        <ele>131.2</ele>
        <time>2016-08-27T12:15:40Z</time>
      </trkpt>
      <trkpt lat="44.14951" lon="1.74735">
        <ele>131.7</ele>
        <time>2016-08-27T12:15:41Z</time>
      </trkpt>
      <trkpt lat="44.14949" lon="1.74731">
        <ele>132.1</ele>
        <time>2016-08-27T12:15:42Z</time>
      </trkpt>
      <trkpt lat="44.14947" lon="1.74726">
        <ele>132.6</ele>
        <time>2016-08-27T12:15:43Z</time>
      </trkpt>
      <trkpt lat="44.14946" lon="1.74719">
        <ele>133</ele>
        <time>2016-08-27T12:15:44Z</time>
      </trkpt>
      <trkpt lat="44.14944" lon="1.74713">
        <ele>133.3</ele>
        <time>2016-08-27T12:15:45Z</time>
      </trkpt>
      <trkpt lat="44.14944" lon="1.74707">
        <ele>133.4</ele>
        <time>2016-08-27T12:15:46Z</time>
      </trkpt>
      <trkpt lat="44.14942" lon="1.74701">
        <ele>133.9</ele>
        <time>2016-08-27T12:15:47Z</time>
      </trkpt>
      <trkpt lat="44.14939" lon="1.74698">
        <ele>134.5</ele>
        <time>2016-08-27T12:15:48Z</time>
      </trkpt>
      <trkpt lat="44.14938" lon="1.74692">
        <ele>134.7</ele>
        <time>2016-08-27T12:15:49Z</time>
      </trkpt>
      <trkpt lat="44.14936" lon="1.74687">
        <ele>135.2</ele>
        <time>2016-08-27T12:15:50Z</time>
      </trkpt>
      <trkpt lat="44.14935" lon="1.74682">
        <ele>135.4</ele>
        <time>2016-08-27T12:15:51Z</time>
      </trkpt>
      <trkpt lat="44.14934" lon="1.74676">
        <ele>135.7</ele>
        <time>2016-08-27T12:15:52Z</time>
      </trkpt>
      <trkpt lat="44.14932" lon="1.7467">
        <ele>136.2</ele>
        <time>2016-08-27T12:15:53Z</time>
      </trkpt>
      <trkpt lat="44.1493" lon="1.74664">
        <ele>136.6</ele>
        <time>2016-08-27T12:15:54Z</time>
      </trkpt>
      <trkpt lat="44.14928" lon="1.74658">
        <ele>137</ele>
        <time>2016-08-27T12:15:55Z</time>
      </trkpt>
      <trkpt lat="44.14927" lon="1.74652">
        <ele>137.3</ele>
        <time>2016-08-27T12:15:56Z</time>
      </trkpt>
      <trkpt lat="44.14925" lon="1.74646">
        <ele>137.8</ele>
        <time>2016-08-27T12:15:57Z</time>
      </trkpt>
      <trkpt lat="44.14923" lon="1.7464">
        <ele>138</ele>
        <time>2016-08-27T12:15:58Z</time>
      </trkpt>
      <trkpt lat="44.14922" lon="1.74632">
        <ele>138.2</ele>
        <time>2016-08-27T12:15:59Z</time>
      </trkpt>
      <trkpt lat="44.1492" lon="1.74626">
        <ele>138.5</ele>
        <time>2016-08-27T12:16:00Z</time>
      </trkpt>
      <trkpt lat="44.14918" lon="1.74619">
        <ele>139.1</ele>
        <time>2016-08-27T12:16:01Z</time>
      </trkpt>
      <trkpt lat="44.14916" lon="1.74613">
        <ele>139.7</ele>
        <time>2016-08-27T12:16:02Z</time>
      </trkpt>
      <trkpt lat="44.14916" lon="1.74605">
        <ele>139.9</ele>
        <time>2016-08-27T12:16:03Z</time>
      </trkpt>
      <trkpt lat="44.14915" lon="1.74598">
        <ele>140.4</ele>
        <time>2016-08-27T12:16:04Z</time>
      </trkpt>
      <trkpt lat="44.14913" lon="1.74592">
        <ele>140.9</ele>
        <time>2016-08-27T12:16:05Z</time>
      </trkpt>
      <trkpt lat="44.14911" lon="1.74586">
        <ele>141.4</ele>
        <time>2016-08-27T12:16:06Z</time>
      </trkpt>
      <trkpt lat="44.14911" lon="1.74581">
        <ele>141.6</ele>
        <time>2016-08-27T12:16:07Z</time>
      </trkpt>
      <trkpt lat="44.14911" lon="1.74575">
        <ele>141.8</ele>
        <time>2016-08-27T12:16:08Z</time>
      </trkpt>
      <trkpt lat="44.14909" lon="1.74569">
        <ele>142.2</ele>
        <time>2016-08-27T12:16:09Z</time>
      </trkpt>
      <trkpt lat="44.14908" lon="1.74564">
        <ele>142.6</ele>
        <time>2016-08-27T12:16:10Z</time>
      </trkpt>
      <trkpt lat="44.14907" lon="1.74559">
        <ele>143</ele>
        <time>2016-08-27T12:16:11Z</time>
      </trkpt>
      <trkpt lat="44.14905" lon="1.7455">
        <ele>143.6</ele>
        <time>2016-08-27T12:16:13Z</time>
      </trkpt>
      <trkpt lat="44.14904" lon="1.74544">
        <ele>144</ele>
        <time>2016-08-27T12:16:14Z</time>
      </trkpt>
      <trkpt lat="44.14904" lon="1.74537">
        <ele>144</ele>
        <time>2016-08-27T12:16:15Z</time>
      </trkpt>
      <trkpt lat="44.14904" lon="1.74531">
        <ele>144.2</ele>
        <time>2016-08-27T12:16:16Z</time>
      </trkpt>
      <trkpt lat="44.14903" lon="1.74526">
        <ele>144.5</ele>
        <time>2016-08-27T12:16:17Z</time>
      </trkpt>
      <trkpt lat="44.14902" lon="1.7452">
        <ele>144.8</ele>
        <time>2016-08-27T12:16:18Z</time>
      </trkpt>
      <trkpt lat="44.14901" lon="1.74514">
        <ele>145.1</ele>
        <time>2016-08-27T12:16:19Z</time>
      </trkpt>
      <trkpt lat="44.149" lon="1.74508">
        <ele>145.4</ele>
        <time>2016-08-27T12:16:20Z</time>
      </trkpt>
      <trkpt lat="44.14899" lon="1.74503">
        <ele>145.7</ele>
        <time>2016-08-27T12:16:21Z</time>
      </trkpt>
      <trkpt lat="44.14899" lon="1.74497">
        <ele>145.7</ele>
        <time>2016-08-27T12:16:22Z</time>
      </trkpt>
      <trkpt lat="44.14899" lon="1.74491">
        <ele>145.7</ele>
        <time>2016-08-27T12:16:23Z</time>
      </trkpt>
      <trkpt lat="44.14899" lon="1.74486">
        <ele>145.9</ele>
        <time>2016-08-27T12:16:24Z</time>
      </trkpt>
      <trkpt lat="44.149" lon="1.74481">
        <ele>145.7</ele>
        <time>2016-08-27T12:16:25Z</time>
      </trkpt>
      <trkpt lat="44.14899" lon="1.74476">
        <ele>145.8</ele>
        <time>2016-08-27T12:16:26Z</time>
      </trkpt>
      <trkpt lat="44.14898" lon="1.74471">
        <ele>146.3</ele>
        <time>2016-08-27T12:16:27Z</time>
      </trkpt>
      <trkpt lat="44.14896" lon="1.74466">
        <ele>146.8</ele>
        <time>2016-08-27T12:16:28Z</time>
      </trkpt>
      <trkpt lat="44.14896" lon="1.74461">
        <ele>147.1</ele>
        <time>2016-08-27T12:16:29Z</time>
      </trkpt>
      <trkpt lat="44.14895" lon="1.74456">
        <ele>147.3</ele>
        <time>2016-08-27T12:16:30Z</time>
      </trkpt>
      <trkpt lat="44.14894" lon="1.74451">
        <ele>147.6</ele>
        <time>2016-08-27T12:16:31Z</time>
      </trkpt>
      <trkpt lat="44.14893" lon="1.74447">
        <ele>147.9</ele>
        <time>2016-08-27T12:16:32Z</time>
      </trkpt>
      <trkpt lat="44.14892" lon="1.74443">
        <ele>148.2</ele>
        <time>2016-08-27T12:16:33Z</time>
      </trkpt>
      <trkpt lat="44.14892" lon="1.74439">
        <ele>148.5</ele>
        <time>2016-08-27T12:16:34Z</time>
      </trkpt>
      <trkpt lat="44.14891" lon="1.74434">
        <ele>148.7</ele>
        <time>2016-08-27T12:16:35Z</time>
      </trkpt>
      <trkpt lat="44.1489" lon="1.74429">
        <ele>148.9</ele>
        <time>2016-08-27T12:16:36Z</time>
      </trkpt>
      <trkpt lat="44.1489" lon="1.74425">
        <ele>149.1</ele>
        <time>2016-08-27T12:16:37Z</time>
      </trkpt>
      <trkpt lat="44.1489" lon="1.7442">
        <ele>149.3</ele>
        <time>2016-08-27T12:16:38Z</time>
      </trkpt>
      <trkpt lat="44.14889" lon="1.74416">
        <ele>149.5</ele>
        <time>2016-08-27T12:16:39Z</time>
      </trkpt>
      <trkpt lat="44.14889" lon="1.74412">
        <ele>149.8</ele>
        <time>2016-08-27T12:16:40Z</time>
      </trkpt>
      <trkpt lat="44.14888" lon="1.74408">
        <ele>150</ele>
        <time>2016-08-27T12:16:41Z</time>
      </trkpt>
      <trkpt lat="44.14887" lon="1.74404">
        <ele>150.2</ele>
        <time>2016-08-27T12:16:42Z</time>
      </trkpt>
      <trkpt lat="44.14887" lon="1.744">
        <ele>150.4</ele>
        <time>2016-08-27T12:16:43Z</time>
      </trkpt>
      <trkpt lat="44.14887" lon="1.74396">
        <ele>150.6</ele>
        <time>2016-08-27T12:16:44Z</time>
      </trkpt>
      <trkpt lat="44.14886" lon="1.74392">
        <ele>150.8</ele>
        <time>2016-08-27T12:16:45Z</time>
      </trkpt>
      <trkpt lat="44.14886" lon="1.74388">
        <ele>151.1</ele>
        <time>2016-08-27T12:16:46Z</time>
      </trkpt>
      <trkpt lat="44.14885" lon="1.74381">
        <ele>151.6</ele>
        <time>2016-08-27T12:16:48Z</time>
      </trkpt>
      <trkpt lat="44.14884" lon="1.74373">
        <ele>151.8</ele>
        <time>2016-08-27T12:16:50Z</time>
      </trkpt>
      <trkpt lat="44.14885" lon="1.74368">
        <ele>151.3</ele>
        <time>2016-08-27T12:16:52Z</time>
      </trkpt>
      <trkpt lat="44.14886" lon="1.74364">
        <ele>150.7</ele>
        <time>2016-08-27T12:16:54Z</time>
      </trkpt>
      <trkpt lat="44.14887" lon="1.7436">
        <ele>150.2</ele>
        <time>2016-08-27T12:16:56Z</time>
      </trkpt>
      <trkpt lat="44.14888" lon="1.74355">
        <ele>149.7</ele>
        <time>2016-08-27T12:16:59Z</time>
      </trkpt>
      <trkpt lat="44.14885" lon="1.74355">
        <ele>150.6</ele>
        <time>2016-08-27T12:17:09Z</time>
      </trkpt>
      <trkpt lat="44.14887" lon="1.74351">
        <ele>149.9</ele>
        <time>2016-08-27T12:17:17Z</time>
      </trkpt>
      <trkpt lat="44.14885" lon="1.74364">
        <ele>151</ele>
        <time>2016-08-27T12:20:07Z</time>
      </trkpt>
      <trkpt lat="44.14883" lon="1.74366">
        <ele>151.9</ele>
        <time>2016-08-27T12:20:09Z</time>
      </trkpt>
      <trkpt lat="44.14882" lon="1.7437">
        <ele>152.4</ele>
        <time>2016-08-27T12:20:11Z</time>
      </trkpt>
      <trkpt lat="44.14887" lon="1.74371">
        <ele>150.8</ele>
        <time>2016-08-27T12:20:18Z</time>
      </trkpt>
      <trkpt lat="44.14884" lon="1.74369">
        <ele>151.8</ele>
        <time>2016-08-27T12:21:39Z</time>
      </trkpt>
      <trkpt lat="44.14886" lon="1.74374">
        <ele>151.3</ele>
        <time>2016-08-27T12:21:41Z</time>
      </trkpt>
      <trkpt lat="44.14886" lon="1.74379">
        <ele>151.1</ele>
        <time>2016-08-27T12:21:43Z</time>
      </trkpt>
      <trkpt lat="44.14885" lon="1.74384">
        <ele>151.2</ele>
        <time>2016-08-27T12:21:45Z</time>
      </trkpt>
      <trkpt lat="44.14884" lon="1.74388">
        <ele>151.7</ele>
        <time>2016-08-27T12:21:46Z</time>
      </trkpt>
      <trkpt lat="44.1488" lon="1.74394">
        <ele>152.8</ele>
        <time>2016-08-27T12:21:48Z</time>
      </trkpt>
      <trkpt lat="44.14878" lon="1.744">
        <ele>153.3</ele>
        <time>2016-08-27T12:21:50Z</time>
      </trkpt>
      <trkpt lat="44.14878" lon="1.74403">
        <ele>153.4</ele>
        <time>2016-08-27T12:21:51Z</time>
      </trkpt>
      <trkpt lat="44.14879" lon="1.74409">
        <ele>153</ele>
        <time>2016-08-27T12:21:53Z</time>
      </trkpt>
      <trkpt lat="44.14881" lon="1.74415">
        <ele>152.3</ele>
        <time>2016-08-27T12:21:55Z</time>
      </trkpt>
      <trkpt lat="44.14882" lon="1.74419">
        <ele>151.9</ele>
        <time>2016-08-27T12:21:56Z</time>
      </trkpt>
      <trkpt lat="44.14884" lon="1.74426">
        <ele>151</ele>
        <time>2016-08-27T12:21:58Z</time>
      </trkpt>
      <trkpt lat="44.14887" lon="1.74433">
        <ele>150.1</ele>
        <time>2016-08-27T12:22:00Z</time>
      </trkpt>
      <trkpt lat="44.14887" lon="1.74437">
        <ele>149.8</ele>
        <time>2016-08-27T12:22:01Z</time>
      </trkpt>
      <trkpt lat="44.14888" lon="1.74444">
        <ele>149.4</ele>
        <time>2016-08-27T12:22:03Z</time>
      </trkpt>
      <trkpt lat="44.14888" lon="1.74451">
        <ele>149.3</ele>
        <time>2016-08-27T12:22:05Z</time>
      </trkpt>
      <trkpt lat="44.14889" lon="1.7446">
        <ele>148.9</ele>
        <time>2016-08-27T12:22:07Z</time>
      </trkpt>
      <trkpt lat="44.1489" lon="1.74469">
        <ele>148.5</ele>
        <time>2016-08-27T12:22:09Z</time>
      </trkpt>
      <trkpt lat="44.14891" lon="1.74473">
        <ele>148.3</ele>
        <time>2016-08-27T12:22:10Z</time>
      </trkpt>
      <trkpt lat="44.14892" lon="1.74482">
        <ele>147.8</ele>
        <time>2016-08-27T12:22:12Z</time>
      </trkpt>
      <trkpt lat="44.14893" lon="1.74488">
        <ele>147.5</ele>
        <time>2016-08-27T12:22:13Z</time>
      </trkpt>
      <trkpt lat="44.14894" lon="1.74494">
        <ele>147.3</ele>
        <time>2016-08-27T12:22:14Z</time>
      </trkpt>
      <trkpt lat="44.14895" lon="1.74499">
        <ele>146.9</ele>
        <time>2016-08-27T12:22:15Z</time>
      </trkpt>
      <trkpt lat="44.14896" lon="1.74505">
        <ele>146.6</ele>
        <time>2016-08-27T12:22:16Z</time>
      </trkpt>
      <trkpt lat="44.14897" lon="1.7451">
        <ele>146.2</ele>
        <time>2016-08-27T12:22:17Z</time>
      </trkpt>
      <trkpt lat="44.14898" lon="1.74516">
        <ele>145.8</ele>
        <time>2016-08-27T12:22:18Z</time>
      </trkpt>
      <trkpt lat="44.14899" lon="1.74521">
        <ele>145.5</ele>
        <time>2016-08-27T12:22:19Z</time>
      </trkpt>
      <trkpt lat="44.149" lon="1.74527">
        <ele>145.1</ele>
        <time>2016-08-27T12:22:20Z</time>
      </trkpt>
      <trkpt lat="44.14901" lon="1.74533">
        <ele>144.8</ele>
        <time>2016-08-27T12:22:21Z</time>
      </trkpt>
      <trkpt lat="44.14903" lon="1.74539">
        <ele>144.4</ele>
        <time>2016-08-27T12:22:22Z</time>
      </trkpt>
      <trkpt lat="44.14904" lon="1.74545">
        <ele>144</ele>
        <time>2016-08-27T12:22:23Z</time>
      </trkpt>
      <trkpt lat="44.14905" lon="1.74551">
        <ele>143.6</ele>
        <time>2016-08-27T12:22:24Z</time>
      </trkpt>
      <trkpt lat="44.14907" lon="1.74556">
        <ele>142.9</ele>
        <time>2016-08-27T12:22:25Z</time>
      </trkpt>
      <trkpt lat="44.14909" lon="1.74562">
        <ele>142.4</ele>
        <time>2016-08-27T12:22:26Z</time>
      </trkpt>
      <trkpt lat="44.14911" lon="1.74568">
        <ele>141.9</ele>
        <time>2016-08-27T12:22:27Z</time>
      </trkpt>
      <trkpt lat="44.14912" lon="1.74574">
        <ele>141.4</ele>
        <time>2016-08-27T12:22:28Z</time>
      </trkpt>
      <trkpt lat="44.14914" lon="1.74581">
        <ele>140.6</ele>
        <time>2016-08-27T12:22:29Z</time>
      </trkpt>
      <trkpt lat="44.14916" lon="1.74588">
        <ele>140.1</ele>
        <time>2016-08-27T12:22:30Z</time>
      </trkpt>
      <trkpt lat="44.14918" lon="1.74594">
        <ele>139.4</ele>
        <time>2016-08-27T12:22:31Z</time>
      </trkpt>
      <trkpt lat="44.1492" lon="1.746">
        <ele>138.9</ele>
        <time>2016-08-27T12:22:32Z</time>
      </trkpt>
      <trkpt lat="44.14921" lon="1.74606">
        <ele>138.5</ele>
        <time>2016-08-27T12:22:33Z</time>
      </trkpt>
      <trkpt lat="44.14922" lon="1.74612">
        <ele>138.1</ele>
        <time>2016-08-27T12:22:34Z</time>
      </trkpt>
      <trkpt lat="44.14925" lon="1.74618">
        <ele>137.4</ele>
        <time>2016-08-27T12:22:35Z</time>
      </trkpt>
      <trkpt lat="44.14926" lon="1.74623">
        <ele>136.9</ele>
        <time>2016-08-27T12:22:36Z</time>
      </trkpt>
      <trkpt lat="44.14928" lon="1.74628">
        <ele>136.4</ele>
        <time>2016-08-27T12:22:37Z</time>
      </trkpt>
      <trkpt lat="44.14931" lon="1.74634">
        <ele>135.8</ele>
        <time>2016-08-27T12:22:38Z</time>
      </trkpt>
      <trkpt lat="44.14933" lon="1.74641">
        <ele>135.3</ele>
        <time>2016-08-27T12:22:39Z</time>
      </trkpt>
      <trkpt lat="44.14932" lon="1.74645">
        <ele>135.6</ele>
        <time>2016-08-27T12:22:40Z</time>
      </trkpt>
      <trkpt lat="44.14934" lon="1.74651">
        <ele>135.3</ele>
        <time>2016-08-27T12:22:41Z</time>
      </trkpt>
      <trkpt lat="44.14933" lon="1.74656">
        <ele>135.7</ele>
        <time>2016-08-27T12:22:42Z</time>
      </trkpt>
      <trkpt lat="44.14934" lon="1.7466">
        <ele>135.5</ele>
        <time>2016-08-27T12:22:43Z</time>
      </trkpt>
      <trkpt lat="44.14935" lon="1.74667">
        <ele>135.2</ele>
        <time>2016-08-27T12:22:44Z</time>
      </trkpt>
      <trkpt lat="44.14937" lon="1.74673">
        <ele>134.7</ele>
        <time>2016-08-27T12:22:45Z</time>
      </trkpt>
      <trkpt lat="44.14939" lon="1.74679">
        <ele>134.4</ele>
        <time>2016-08-27T12:22:46Z</time>
      </trkpt>
      <trkpt lat="44.1494" lon="1.74685">
        <ele>134</ele>
        <time>2016-08-27T12:22:47Z</time>
      </trkpt>
      <trkpt lat="44.14941" lon="1.74691">
        <ele>134.1</ele>
        <time>2016-08-27T12:22:48Z</time>
      </trkpt>
      <trkpt lat="44.14944" lon="1.74699">
        <ele>133.1</ele>
        <time>2016-08-27T12:22:49Z</time>
      </trkpt>
      <trkpt lat="44.14946" lon="1.74706">
        <ele>132.7</ele>
        <time>2016-08-27T12:22:50Z</time>
      </trkpt>
      <trkpt lat="44.14947" lon="1.74712">
        <ele>132.5</ele>
        <time>2016-08-27T12:22:51Z</time>
      </trkpt>
      <trkpt lat="44.14948" lon="1.74717">
        <ele>132.1</ele>
        <time>2016-08-27T12:22:52Z</time>
      </trkpt>
      <trkpt lat="44.1495" lon="1.74723">
        <ele>131.7</ele>
        <time>2016-08-27T12:22:53Z</time>
      </trkpt>
      <trkpt lat="44.14952" lon="1.74729">
        <ele>131.2</ele>
        <time>2016-08-27T12:22:54Z</time>
      </trkpt>
      <trkpt lat="44.14954" lon="1.74736">
        <ele>130.6</ele>
        <time>2016-08-27T12:22:55Z</time>
      </trkpt>
      <trkpt lat="44.14957" lon="1.74743">
        <ele>129.8</ele>
        <time>2016-08-27T12:22:56Z</time>
      </trkpt>
      <trkpt lat="44.14958" lon="1.74748">
        <ele>129.6</ele>
        <time>2016-08-27T12:22:57Z</time>
      </trkpt>
      <trkpt lat="44.14959" lon="1.74754">
        <ele>129.5</ele>
        <time>2016-08-27T12:22:58Z</time>
      </trkpt>
      <trkpt lat="44.14961" lon="1.74759">
        <ele>129.5</ele>
        <time>2016-08-27T12:22:59Z</time>
      </trkpt>
      <trkpt lat="44.14963" lon="1.74765">
        <ele>129.5</ele>
        <time>2016-08-27T12:23:00Z</time>
      </trkpt>
      <trkpt lat="44.14965" lon="1.7477">
        <ele>129.5</ele>
        <time>2016-08-27T12:23:01Z</time>
      </trkpt>
      <trkpt lat="44.14967" lon="1.74776">
        <ele>129.5</ele>
        <time>2016-08-27T12:23:02Z</time>
      </trkpt>
      <trkpt lat="44.14969" lon="1.74784">
        <ele>129.5</ele>
        <time>2016-08-27T12:23:03Z</time>
      </trkpt>
      <trkpt lat="44.14971" lon="1.7479">
        <ele>129.5</ele>
        <time>2016-08-27T12:23:04Z</time>
      </trkpt>
      <trkpt lat="44.14971" lon="1.74795">
        <ele>129.6</ele>
        <time>2016-08-27T12:23:05Z</time>
      </trkpt>
      <trkpt lat="44.14973" lon="1.74801">
        <ele>129.7</ele>
        <time>2016-08-27T12:23:06Z</time>
      </trkpt>
      <trkpt lat="44.14974" lon="1.74806">
        <ele>129.8</ele>
        <time>2016-08-27T12:23:07Z</time>
      </trkpt>
      <trkpt lat="44.14975" lon="1.74814">
        <ele>130</ele>
        <time>2016-08-27T12:23:08Z</time>
      </trkpt>
      <trkpt lat="44.14976" lon="1.7482">
        <ele>130.1</ele>
        <time>2016-08-27T12:23:09Z</time>
      </trkpt>
      <trkpt lat="44.14979" lon="1.74826">
        <ele>130.1</ele>
        <time>2016-08-27T12:23:10Z</time>
      </trkpt>
      <trkpt lat="44.1498" lon="1.74831">
        <ele>130.2</ele>
        <time>2016-08-27T12:23:11Z</time>
      </trkpt>
      <trkpt lat="44.14981" lon="1.74838">
        <ele>130.2</ele>
        <time>2016-08-27T12:23:12Z</time>
      </trkpt>
      <trkpt lat="44.14982" lon="1.74844">
        <ele>130.3</ele>
        <time>2016-08-27T12:23:13Z</time>
      </trkpt>
      <trkpt lat="44.14982" lon="1.74851">
        <ele>130.5</ele>
        <time>2016-08-27T12:23:14Z</time>
      </trkpt>
      <trkpt lat="44.14983" lon="1.74856">
        <ele>130.5</ele>
        <time>2016-08-27T12:23:15Z</time>
      </trkpt>
      <trkpt lat="44.14982" lon="1.74861">
        <ele>130.7</ele>
        <time>2016-08-27T12:23:16Z</time>
      </trkpt>
      <trkpt lat="44.14983" lon="1.74868">
        <ele>130.8</ele>
        <time>2016-08-27T12:23:17Z</time>
      </trkpt>
      <trkpt lat="44.14984" lon="1.74874">
        <ele>130.8</ele>
        <time>2016-08-27T12:23:18Z</time>
      </trkpt>
      <trkpt lat="44.14985" lon="1.7488">
        <ele>130.9</ele>
        <time>2016-08-27T12:23:19Z</time>
      </trkpt>
      <trkpt lat="44.14986" lon="1.74887">
        <ele>131</ele>
        <time>2016-08-27T12:23:20Z</time>
      </trkpt>
      <trkpt lat="44.14987" lon="1.74893">
        <ele>131.1</ele>
        <time>2016-08-27T12:23:21Z</time>
      </trkpt>
      <trkpt lat="44.14988" lon="1.74901">
        <ele>131.2</ele>
        <time>2016-08-27T12:23:22Z</time>
      </trkpt>
      <trkpt lat="44.14989" lon="1.74907">
        <ele>131.3</ele>
        <time>2016-08-27T12:23:23Z</time>
      </trkpt>
      <trkpt lat="44.1499" lon="1.74913">
        <ele>131.4</ele>
        <time>2016-08-27T12:23:24Z</time>
      </trkpt>
      <trkpt lat="44.1499" lon="1.74919">
        <ele>131.5</ele>
        <time>2016-08-27T12:23:25Z</time>
      </trkpt>
      <trkpt lat="44.1499" lon="1.74926">
        <ele>131.8</ele>
        <time>2016-08-27T12:23:26Z</time>
      </trkpt>
      <trkpt lat="44.14992" lon="1.74935">
        <ele>131.8</ele>
        <time>2016-08-27T12:23:27Z</time>
      </trkpt>
      <trkpt lat="44.14992" lon="1.74941">
        <ele>131.9</ele>
        <time>2016-08-27T12:23:28Z</time>
      </trkpt>
      <trkpt lat="44.14995" lon="1.74948">
        <ele>131.7</ele>
        <time>2016-08-27T12:23:29Z</time>
      </trkpt>
      <trkpt lat="44.14997" lon="1.74954">
        <ele>131.8</ele>
        <time>2016-08-27T12:23:30Z</time>
      </trkpt>
      <trkpt lat="44.14999" lon="1.74962">
        <ele>131.8</ele>
        <time>2016-08-27T12:23:31Z</time>
      </trkpt>
      <trkpt lat="44.14999" lon="1.74967">
        <ele>132</ele>
        <time>2016-08-27T12:23:32Z</time>
      </trkpt>
      <trkpt lat="44.15" lon="1.74973">
        <ele>132.2</ele>
        <time>2016-08-27T12:23:33Z</time>
      </trkpt>
      <trkpt lat="44.15" lon="1.74979">
        <ele>132.3</ele>
        <time>2016-08-27T12:23:34Z</time>
      </trkpt>
      <trkpt lat="44.15002" lon="1.74986">
        <ele>132.5</ele>
        <time>2016-08-27T12:23:35Z</time>
      </trkpt>
      <trkpt lat="44.15002" lon="1.74993">
        <ele>132.6</ele>
        <time>2016-08-27T12:23:36Z</time>
      </trkpt>
      <trkpt lat="44.15005" lon="1.75">
        <ele>132.5</ele>
        <time>2016-08-27T12:23:37Z</time>
      </trkpt>
      <trkpt lat="44.15007" lon="1.75007">
        <ele>132.5</ele>
        <time>2016-08-27T12:23:38Z</time>
      </trkpt>
      <trkpt lat="44.15008" lon="1.75013">
        <ele>132.6</ele>
        <time>2016-08-27T12:23:39Z</time>
      </trkpt>
      <trkpt lat="44.15006" lon="1.75022">
        <ele>133.2</ele>
        <time>2016-08-27T12:23:40Z</time>
      </trkpt>
      <trkpt lat="44.15007" lon="1.75029">
        <ele>133.2</ele>
        <time>2016-08-27T12:23:41Z</time>
      </trkpt>
      <trkpt lat="44.15008" lon="1.75035">
        <ele>133.3</ele>
        <time>2016-08-27T12:23:42Z</time>
      </trkpt>
      <trkpt lat="44.15007" lon="1.75043">
        <ele>133.8</ele>
        <time>2016-08-27T12:23:43Z</time>
      </trkpt>
      <trkpt lat="44.15008" lon="1.75051">
        <ele>133.9</ele>
        <time>2016-08-27T12:23:44Z</time>
      </trkpt>
      <trkpt lat="44.15007" lon="1.75057">
        <ele>134.3</ele>
        <time>2016-08-27T12:23:45Z</time>
      </trkpt>
      <trkpt lat="44.15009" lon="1.75064">
        <ele>134.3</ele>
        <time>2016-08-27T12:23:46Z</time>
      </trkpt>
      <trkpt lat="44.15009" lon="1.7507">
        <ele>134.6</ele>
        <time>2016-08-27T12:23:47Z</time>
      </trkpt>
      <trkpt lat="44.1501" lon="1.75076">
        <ele>134.7</ele>
        <time>2016-08-27T12:23:48Z</time>
      </trkpt>
      <trkpt lat="44.15009" lon="1.75082">
        <ele>135.2</ele>
        <time>2016-08-27T12:23:49Z</time>
      </trkpt>
      <trkpt lat="44.15008" lon="1.75088">
        <ele>135.5</ele>
        <time>2016-08-27T12:23:50Z</time>
      </trkpt>
      <trkpt lat="44.15006" lon="1.75092">
        <ele>136.1</ele>
        <time>2016-08-27T12:23:51Z</time>
      </trkpt>
      <trkpt lat="44.15006" lon="1.75098">
        <ele>136.5</ele>
        <time>2016-08-27T12:23:52Z</time>
      </trkpt>
      <trkpt lat="44.15005" lon="1.75103">
        <ele>136.9</ele>
        <time>2016-08-27T12:23:53Z</time>
      </trkpt>
      <trkpt lat="44.15005" lon="1.75108">
        <ele>137.2</ele>
        <time>2016-08-27T12:23:54Z</time>
      </trkpt>
      <trkpt lat="44.15" lon="1.75113">
        <ele>138.4</ele>
        <time>2016-08-27T12:23:55Z</time>
      </trkpt>
      <trkpt lat="44.15001" lon="1.75118">
        <ele>138.5</ele>
        <time>2016-08-27T12:23:56Z</time>
      </trkpt>
      <trkpt lat="44.15" lon="1.75123">
        <ele>139</ele>
        <time>2016-08-27T12:23:57Z</time>
      </trkpt>
      <trkpt lat="44.14999" lon="1.75128">
        <ele>139.3</ele>
        <time>2016-08-27T12:23:58Z</time>
      </trkpt>
      <trkpt lat="44.14998" lon="1.75134">
        <ele>139.8</ele>
        <time>2016-08-27T12:23:59Z</time>
      </trkpt>
      <trkpt lat="44.14997" lon="1.75139">
        <ele>140.2</ele>
        <time>2016-08-27T12:24:00Z</time>
      </trkpt>
      <trkpt lat="44.14996" lon="1.75144">
        <ele>140.7</ele>
        <time>2016-08-27T12:24:01Z</time>
      </trkpt>
      <trkpt lat="44.14995" lon="1.75148">
        <ele>141.2</ele>
        <time>2016-08-27T12:24:02Z</time>
      </trkpt>
      <trkpt lat="44.14994" lon="1.75153">
        <ele>141.6</ele>
        <time>2016-08-27T12:24:03Z</time>
      </trkpt>
      <trkpt lat="44.14993" lon="1.75158">
        <ele>142</ele>
        <time>2016-08-27T12:24:04Z</time>
      </trkpt>
      <trkpt lat="44.14992" lon="1.75162">
        <ele>142.4</ele>
        <time>2016-08-27T12:24:05Z</time>
      </trkpt>
      <trkpt lat="44.14991" lon="1.75167">
        <ele>142.9</ele>
        <time>2016-08-27T12:24:06Z</time>
      </trkpt>
      <trkpt lat="44.1499" lon="1.75172">
        <ele>143.4</ele>
        <time>2016-08-27T12:24:07Z</time>
      </trkpt>
      <trkpt lat="44.14988" lon="1.75176">
        <ele>143.9</ele>
        <time>2016-08-27T12:24:08Z</time>
      </trkpt>
      <trkpt lat="44.14987" lon="1.7518">
        <ele>144.3</ele>
        <time>2016-08-27T12:24:09Z</time>
      </trkpt>
      <trkpt lat="44.14986" lon="1.75185">
        <ele>144.8</ele>
        <time>2016-08-27T12:24:10Z</time>
      </trkpt>
      <trkpt lat="44.14985" lon="1.75189">
        <ele>145.3</ele>
        <time>2016-08-27T12:24:11Z</time>
      </trkpt>
      <trkpt lat="44.14984" lon="1.75193">
        <ele>145.9</ele>
        <time>2016-08-27T12:24:12Z</time>
      </trkpt>
      <trkpt lat="44.14982" lon="1.75197">
        <ele>146.4</ele>
        <time>2016-08-27T12:24:13Z</time>
      </trkpt>
      <trkpt lat="44.14981" lon="1.752">
        <ele>146.9</ele>
        <time>2016-08-27T12:24:14Z</time>
      </trkpt>
      <trkpt lat="44.14981" lon="1.75204">
        <ele>147.1</ele>
        <time>2016-08-27T12:24:16Z</time>
      </trkpt>
      <trkpt lat="44.14981" lon="1.75209">
        <ele>147.4</ele>
        <time>2016-08-27T12:24:18Z</time>
      </trkpt>
      <trkpt lat="44.14979" lon="1.75213">
        <ele>147.9</ele>
        <time>2016-08-27T12:24:20Z</time>
      </trkpt>
      <trkpt lat="44.14977" lon="1.7522">
        <ele>148.3</ele>
        <time>2016-08-27T12:24:22Z</time>
      </trkpt>
      <trkpt lat="44.14976" lon="1.75223">
        <ele>148.6</ele>
        <time>2016-08-27T12:24:23Z</time>
      </trkpt>
      <trkpt lat="44.14975" lon="1.75227">
        <ele>148.8</ele>
        <time>2016-08-27T12:24:24Z</time>
      </trkpt>
      <trkpt lat="44.14974" lon="1.75231">
        <ele>148.9</ele>
        <time>2016-08-27T12:24:25Z</time>
      </trkpt>
      <trkpt lat="44.14974" lon="1.75234">
        <ele>148.9</ele>
        <time>2016-08-27T12:24:26Z</time>
      </trkpt>
      <trkpt lat="44.14974" lon="1.75242">
        <ele>149</ele>
        <time>2016-08-27T12:24:28Z</time>
      </trkpt>
      <trkpt lat="44.14974" lon="1.75246">
        <ele>148.9</ele>
        <time>2016-08-27T12:24:29Z</time>
      </trkpt>
      <trkpt lat="44.14974" lon="1.7525">
        <ele>148.9</ele>
        <time>2016-08-27T12:24:30Z</time>
      </trkpt>
      <trkpt lat="44.14976" lon="1.75254">
        <ele>148.4</ele>
        <time>2016-08-27T12:24:31Z</time>
      </trkpt>
      <trkpt lat="44.14977" lon="1.75257">
        <ele>148.2</ele>
        <time>2016-08-27T12:24:32Z</time>
      </trkpt>
      <trkpt lat="44.14978" lon="1.75264">
        <ele>147.9</ele>
        <time>2016-08-27T12:24:34Z</time>
      </trkpt>
      <trkpt lat="44.14977" lon="1.75271">
        <ele>148.1</ele>
        <time>2016-08-27T12:24:36Z</time>
      </trkpt>
      <trkpt lat="44.14975" lon="1.75278">
        <ele>148.7</ele>
        <time>2016-08-27T12:24:38Z</time>
      </trkpt>
      <trkpt lat="44.14973" lon="1.75285">
        <ele>149.1</ele>
        <time>2016-08-27T12:24:40Z</time>
      </trkpt>
      <trkpt lat="44.14971" lon="1.75292">
        <ele>149.6</ele>
        <time>2016-08-27T12:24:42Z</time>
      </trkpt>
      <trkpt lat="44.14971" lon="1.75296">
        <ele>149.7</ele>
        <time>2016-08-27T12:24:43Z</time>
      </trkpt>
      <trkpt lat="44.1497" lon="1.753">
        <ele>149.8</ele>
        <time>2016-08-27T12:24:44Z</time>
      </trkpt>
      <trkpt lat="44.14969" lon="1.75304">
        <ele>149.9</ele>
        <time>2016-08-27T12:24:45Z</time>
      </trkpt>
      <trkpt lat="44.14969" lon="1.75308">
        <ele>150</ele>
        <time>2016-08-27T12:24:46Z</time>
      </trkpt>
      <trkpt lat="44.14968" lon="1.75312">
        <ele>150.1</ele>
        <time>2016-08-27T12:24:47Z</time>
      </trkpt>
      <trkpt lat="44.14968" lon="1.75316">
        <ele>150.2</ele>
        <time>2016-08-27T12:24:48Z</time>
      </trkpt>
      <trkpt lat="44.14967" lon="1.7532">
        <ele>150.2</ele>
        <time>2016-08-27T12:24:49Z</time>
      </trkpt>
      <trkpt lat="44.14967" lon="1.75325">
        <ele>150.2</ele>
        <time>2016-08-27T12:24:50Z</time>
      </trkpt>
      <trkpt lat="44.14967" lon="1.75329">
        <ele>150.3</ele>
        <time>2016-08-27T12:24:51Z</time>
      </trkpt>
      <trkpt lat="44.14966" lon="1.75333">
        <ele>150.4</ele>
        <time>2016-08-27T12:24:52Z</time>
      </trkpt>
      <trkpt lat="44.14964" lon="1.75342">
        <ele>150.8</ele>
        <time>2016-08-27T12:24:54Z</time>
      </trkpt>
      <trkpt lat="44.14963" lon="1.75346">
        <ele>151.1</ele>
        <time>2016-08-27T12:24:55Z</time>
      </trkpt>
      <trkpt lat="44.14962" lon="1.75351">
        <ele>151.3</ele>
        <time>2016-08-27T12:24:56Z</time>
      </trkpt>
      <trkpt lat="44.14961" lon="1.75355">
        <ele>151.5</ele>
        <time>2016-08-27T12:24:57Z</time>
      </trkpt>
      <trkpt lat="44.14959" lon="1.75365">
        <ele>151.8</ele>
        <time>2016-08-27T12:24:59Z</time>
      </trkpt>
      <trkpt lat="44.14959" lon="1.7537">
        <ele>152</ele>
        <time>2016-08-27T12:25:00Z</time>
      </trkpt>
      <trkpt lat="44.14958" lon="1.75376">
        <ele>152</ele>
        <time>2016-08-27T12:25:01Z</time>
      </trkpt>
      <trkpt lat="44.14958" lon="1.75381">
        <ele>151.7</ele>
        <time>2016-08-27T12:25:02Z</time>
      </trkpt>
      <trkpt lat="44.14959" lon="1.75386">
        <ele>151.4</ele>
        <time>2016-08-27T12:25:03Z</time>
      </trkpt>
      <trkpt lat="44.14959" lon="1.7539">
        <ele>151</ele>
        <time>2016-08-27T12:25:04Z</time>
      </trkpt>
      <trkpt lat="44.1496" lon="1.75395">
        <ele>150.7</ele>
        <time>2016-08-27T12:25:05Z</time>
      </trkpt>
      <trkpt lat="44.14959" lon="1.75399">
        <ele>150.7</ele>
        <time>2016-08-27T12:25:06Z</time>
      </trkpt>
      <trkpt lat="44.14958" lon="1.75404">
        <ele>150.6</ele>
        <time>2016-08-27T12:25:07Z</time>
      </trkpt>
      <trkpt lat="44.14957" lon="1.75408">
        <ele>150.9</ele>
        <time>2016-08-27T12:25:08Z</time>
      </trkpt>
      <trkpt lat="44.14957" lon="1.75413">
        <ele>151</ele>
        <time>2016-08-27T12:25:09Z</time>
      </trkpt>
      <trkpt lat="44.14956" lon="1.75418">
        <ele>151.2</ele>
        <time>2016-08-27T12:25:10Z</time>
      </trkpt>
      <trkpt lat="44.14955" lon="1.75423">
        <ele>151.4</ele>
        <time>2016-08-27T12:25:11Z</time>
      </trkpt>
      <trkpt lat="44.14954" lon="1.75428">
        <ele>151.5</ele>
        <time>2016-08-27T12:25:12Z</time>
      </trkpt>
      <trkpt lat="44.14954" lon="1.75433">
        <ele>151.6</ele>
        <time>2016-08-27T12:25:13Z</time>
      </trkpt>
      <trkpt lat="44.14953" lon="1.75438">
        <ele>151.5</ele>
        <time>2016-08-27T12:25:14Z</time>
      </trkpt>
      <trkpt lat="44.14953" lon="1.75442">
        <ele>151.4</ele>
        <time>2016-08-27T12:25:15Z</time>
      </trkpt>
      <trkpt lat="44.14952" lon="1.75448">
        <ele>151.4</ele>
        <time>2016-08-27T12:25:16Z</time>
      </trkpt>
      <trkpt lat="44.14951" lon="1.75453">
        <ele>151.8</ele>
        <time>2016-08-27T12:25:17Z</time>
      </trkpt>
      <trkpt lat="44.1495" lon="1.75458">
        <ele>151.9</ele>
        <time>2016-08-27T12:25:18Z</time>
      </trkpt>
      <trkpt lat="44.1495" lon="1.75462">
        <ele>151.8</ele>
        <time>2016-08-27T12:25:19Z</time>
      </trkpt>
      <trkpt lat="44.1495" lon="1.75467">
        <ele>151.5</ele>
        <time>2016-08-27T12:25:20Z</time>
      </trkpt>
      <trkpt lat="44.1495" lon="1.75472">
        <ele>151.1</ele>
        <time>2016-08-27T12:25:21Z</time>
      </trkpt>
      <trkpt lat="44.14951" lon="1.75476">
        <ele>150.6</ele>
        <time>2016-08-27T12:25:22Z</time>
      </trkpt>
      <trkpt lat="44.14954" lon="1.75479">
        <ele>148.8</ele>
        <time>2016-08-27T12:25:24Z</time>
      </trkpt>
      <trkpt lat="44.14957" lon="1.75478">
        <ele>147.3</ele>
        <time>2016-08-27T12:25:27Z</time>
      </trkpt>
      <trkpt lat="44.14959" lon="1.75473">
        <ele>147.1</ele>
        <time>2016-08-27T12:25:29Z</time>
      </trkpt>
      <trkpt lat="44.1496" lon="1.75466">
        <ele>147.2</ele>
        <time>2016-08-27T12:25:31Z</time>
      </trkpt>
      <trkpt lat="44.1496" lon="1.75462">
        <ele>147.4</ele>
        <time>2016-08-27T12:25:32Z</time>
      </trkpt>
      <trkpt lat="44.14961" lon="1.75457">
        <ele>147.4</ele>
        <time>2016-08-27T12:25:33Z</time>
      </trkpt>
      <trkpt lat="44.14962" lon="1.75452">
        <ele>147.4</ele>
        <time>2016-08-27T12:25:34Z</time>
      </trkpt>
      <trkpt lat="44.14963" lon="1.75447">
        <ele>147.4</ele>
        <time>2016-08-27T12:25:35Z</time>
      </trkpt>
      <trkpt lat="44.14963" lon="1.75441">
        <ele>147.5</ele>
        <time>2016-08-27T12:25:36Z</time>
      </trkpt>
      <trkpt lat="44.14964" lon="1.75437">
        <ele>147.6</ele>
        <time>2016-08-27T12:25:37Z</time>
      </trkpt>
      <trkpt lat="44.14964" lon="1.75431">
        <ele>147.7</ele>
        <time>2016-08-27T12:25:38Z</time>
      </trkpt>
      <trkpt lat="44.14965" lon="1.75426">
        <ele>147.8</ele>
        <time>2016-08-27T12:25:39Z</time>
      </trkpt>
      <trkpt lat="44.14966" lon="1.75421">
        <ele>147.8</ele>
        <time>2016-08-27T12:25:40Z</time>
      </trkpt>
      <trkpt lat="44.14967" lon="1.75416">
        <ele>147.7</ele>
        <time>2016-08-27T12:25:41Z</time>
      </trkpt>
      <trkpt lat="44.14968" lon="1.75411">
        <ele>147.7</ele>
        <time>2016-08-27T12:25:43Z</time>
      </trkpt>
      <trkpt lat="44.14967" lon="1.75407">
        <ele>148</ele>
        <time>2016-08-27T12:25:47Z</time>
      </trkpt>
      <trkpt lat="44.14975" lon="1.75414">
        <ele>145.7</ele>
        <time>2016-08-27T12:28:40Z</time>
      </trkpt>
      <trkpt lat="44.14971" lon="1.75413">
        <ele>146.7</ele>
        <time>2016-08-27T12:28:43Z</time>
      </trkpt>
      <trkpt lat="44.14968" lon="1.75412">
        <ele>147.5</ele>
        <time>2016-08-27T12:28:46Z</time>
      </trkpt>
      <trkpt lat="44.14967" lon="1.75408">
        <ele>148</ele>
        <time>2016-08-27T12:28:49Z</time>
      </trkpt>
      <trkpt lat="44.14968" lon="1.75414">
        <ele>147.5</ele>
        <time>2016-08-27T12:29:04Z</time>
      </trkpt>
      <trkpt lat="44.14967" lon="1.75419">
        <ele>147.5</ele>
        <time>2016-08-27T12:29:06Z</time>
      </trkpt>
      <trkpt lat="44.14966" lon="1.75424">
        <ele>147.7</ele>
        <time>2016-08-27T12:29:08Z</time>
      </trkpt>
      <trkpt lat="44.14965" lon="1.75429">
        <ele>147.7</ele>
        <time>2016-08-27T12:29:10Z</time>
      </trkpt>
      <trkpt lat="44.14965" lon="1.75434">
        <ele>147.4</ele>
        <time>2016-08-27T12:29:12Z</time>
      </trkpt>
      <trkpt lat="44.14965" lon="1.75439">
        <ele>147.2</ele>
        <time>2016-08-27T12:29:14Z</time>
      </trkpt>
      <trkpt lat="44.14964" lon="1.75445">
        <ele>147.1</ele>
        <time>2016-08-27T12:29:16Z</time>
      </trkpt>
      <trkpt lat="44.14963" lon="1.75451">
        <ele>147.1</ele>
        <time>2016-08-27T12:29:18Z</time>
      </trkpt>
      <trkpt lat="44.14962" lon="1.75457">
        <ele>147.1</ele>
        <time>2016-08-27T12:29:20Z</time>
      </trkpt>
      <trkpt lat="44.14961" lon="1.75463">
        <ele>146.9</ele>
        <time>2016-08-27T12:29:22Z</time>
      </trkpt>
      <trkpt lat="44.1496" lon="1.75469">
        <ele>147</ele>
        <time>2016-08-27T12:29:24Z</time>
      </trkpt>
      <trkpt lat="44.14957" lon="1.75474">
        <ele>147.5</ele>
        <time>2016-08-27T12:29:26Z</time>
      </trkpt>
      <trkpt lat="44.14955" lon="1.75478">
        <ele>148.3</ele>
        <time>2016-08-27T12:29:28Z</time>
      </trkpt>
      <trkpt lat="44.14954" lon="1.75483">
        <ele>148.6</ele>
        <time>2016-08-27T12:29:30Z</time>
      </trkpt>
      <trkpt lat="44.14954" lon="1.75487">
        <ele>148.2</ele>
        <time>2016-08-27T12:29:33Z</time>
      </trkpt>
      <trkpt lat="44.14954" lon="1.75492">
        <ele>148.1</ele>
        <time>2016-08-27T12:29:35Z</time>
      </trkpt>
      <trkpt lat="44.14953" lon="1.75497">
        <ele>148.3</ele>
        <time>2016-08-27T12:29:37Z</time>
      </trkpt>
      <trkpt lat="44.14952" lon="1.75502">
        <ele>148.2</ele>
        <time>2016-08-27T12:29:39Z</time>
      </trkpt>
      <trkpt lat="44.14952" lon="1.75506">
        <ele>148.2</ele>
        <time>2016-08-27T12:29:40Z</time>
      </trkpt>
      <trkpt lat="44.14951" lon="1.7551">
        <ele>148.1</ele>
        <time>2016-08-27T12:29:41Z</time>
      </trkpt>
      <trkpt lat="44.14951" lon="1.75514">
        <ele>148</ele>
        <time>2016-08-27T12:29:42Z</time>
      </trkpt>
      <trkpt lat="44.14951" lon="1.75519">
        <ele>147.8</ele>
        <time>2016-08-27T12:29:43Z</time>
      </trkpt>
      <trkpt lat="44.1495" lon="1.75525">
        <ele>147.8</ele>
        <time>2016-08-27T12:29:44Z</time>
      </trkpt>
      <trkpt lat="44.14949" lon="1.7553">
        <ele>147.8</ele>
        <time>2016-08-27T12:29:45Z</time>
      </trkpt>
      <trkpt lat="44.14948" lon="1.75536">
        <ele>147.7</ele>
        <time>2016-08-27T12:29:46Z</time>
      </trkpt>
      <trkpt lat="44.14949" lon="1.75546">
        <ele>146.7</ele>
        <time>2016-08-27T12:29:47Z</time>
      </trkpt>
      <trkpt lat="44.14949" lon="1.75553">
        <ele>146.3</ele>
        <time>2016-08-27T12:29:48Z</time>
      </trkpt>
      <trkpt lat="44.14947" lon="1.75558">
        <ele>146.5</ele>
        <time>2016-08-27T12:29:49Z</time>
      </trkpt>
      <trkpt lat="44.14947" lon="1.75568">
        <ele>145.8</ele>
        <time>2016-08-27T12:29:50Z</time>
      </trkpt>
      <trkpt lat="44.14947" lon="1.75576">
        <ele>145.2</ele>
        <time>2016-08-27T12:29:51Z</time>
      </trkpt>
      <trkpt lat="44.14945" lon="1.75583">
        <ele>145.1</ele>
        <time>2016-08-27T12:29:52Z</time>
      </trkpt>
      <trkpt lat="44.14943" lon="1.75591">
        <ele>145.2</ele>
        <time>2016-08-27T12:29:53Z</time>
      </trkpt>
      <trkpt lat="44.14941" lon="1.75597">
        <ele>145.6</ele>
        <time>2016-08-27T12:29:54Z</time>
      </trkpt>
      <trkpt lat="44.14939" lon="1.75604">
        <ele>145.8</ele>
        <time>2016-08-27T12:29:55Z</time>
      </trkpt>
      <trkpt lat="44.14937" lon="1.75609">
        <ele>145.8</ele>
        <time>2016-08-27T12:29:56Z</time>
      </trkpt>
      <trkpt lat="44.14933" lon="1.75614">
        <ele>146.8</ele>
        <time>2016-08-27T12:29:57Z</time>
      </trkpt>
      <trkpt lat="44.14932" lon="1.75618">
        <ele>146.8</ele>
        <time>2016-08-27T12:29:58Z</time>
      </trkpt>
      <trkpt lat="44.14931" lon="1.75623">
        <ele>146.8</ele>
        <time>2016-08-27T12:29:59Z</time>
      </trkpt>
      <trkpt lat="44.14929" lon="1.75627">
        <ele>146.9</ele>
        <time>2016-08-27T12:30:00Z</time>
      </trkpt>
      <trkpt lat="44.14929" lon="1.75631">
        <ele>146.6</ele>
        <time>2016-08-27T12:30:01Z</time>
      </trkpt>
      <trkpt lat="44.14926" lon="1.75635">
        <ele>147.3</ele>
        <time>2016-08-27T12:30:02Z</time>
      </trkpt>
      <trkpt lat="44.14924" lon="1.75638">
        <ele>147.5</ele>
        <time>2016-08-27T12:30:03Z</time>
      </trkpt>
      <trkpt lat="44.14922" lon="1.75643">
        <ele>147.7</ele>
        <time>2016-08-27T12:30:04Z</time>
      </trkpt>
      <trkpt lat="44.14919" lon="1.75648">
        <ele>147.8</ele>
        <time>2016-08-27T12:30:05Z</time>
      </trkpt>
      <trkpt lat="44.14918" lon="1.75653">
        <ele>147.9</ele>
        <time>2016-08-27T12:30:06Z</time>
      </trkpt>
      <trkpt lat="44.14916" lon="1.75657">
        <ele>148</ele>
        <time>2016-08-27T12:30:07Z</time>
      </trkpt>
      <trkpt lat="44.14913" lon="1.75661">
        <ele>148.2</ele>
        <time>2016-08-27T12:30:08Z</time>
      </trkpt>
      <trkpt lat="44.1491" lon="1.75665">
        <ele>148.5</ele>
        <time>2016-08-27T12:30:09Z</time>
      </trkpt>
      <trkpt lat="44.14907" lon="1.7567">
        <ele>148.8</ele>
        <time>2016-08-27T12:30:10Z</time>
      </trkpt>
      <trkpt lat="44.14905" lon="1.75674">
        <ele>148.9</ele>
        <time>2016-08-27T12:30:11Z</time>
      </trkpt>
      <trkpt lat="44.14903" lon="1.75679">
        <ele>148.8</ele>
        <time>2016-08-27T12:30:12Z</time>
      </trkpt>
      <trkpt lat="44.14901" lon="1.75684">
        <ele>148.7</ele>
        <time>2016-08-27T12:30:13Z</time>
      </trkpt>
      <trkpt lat="44.14899" lon="1.75688">
        <ele>148.6</ele>
        <time>2016-08-27T12:30:14Z</time>
      </trkpt>
      <trkpt lat="44.14897" lon="1.75693">
        <ele>148.3</ele>
        <time>2016-08-27T12:30:15Z</time>
      </trkpt>
      <trkpt lat="44.14895" lon="1.75698">
        <ele>148.1</ele>
        <time>2016-08-27T12:30:16Z</time>
      </trkpt>
      <trkpt lat="44.14893" lon="1.75703">
        <ele>147.8</ele>
        <time>2016-08-27T12:30:17Z</time>
      </trkpt>
      <trkpt lat="44.1489" lon="1.75709">
        <ele>147.6</ele>
        <time>2016-08-27T12:30:18Z</time>
      </trkpt>
      <trkpt lat="44.14888" lon="1.75714">
        <ele>147.6</ele>
        <time>2016-08-27T12:30:19Z</time>
      </trkpt>
      <trkpt lat="44.14886" lon="1.75718">
        <ele>147.4</ele>
        <time>2016-08-27T12:30:20Z</time>
      </trkpt>
      <trkpt lat="44.14885" lon="1.75723">
        <ele>147.2</ele>
        <time>2016-08-27T12:30:21Z</time>
      </trkpt>
      <trkpt lat="44.14883" lon="1.75727">
        <ele>147.1</ele>
        <time>2016-08-27T12:30:22Z</time>
      </trkpt>
      <trkpt lat="44.14882" lon="1.75732">
        <ele>147</ele>
        <time>2016-08-27T12:30:23Z</time>
      </trkpt>
      <trkpt lat="44.1488" lon="1.75736">
        <ele>146.9</ele>
        <time>2016-08-27T12:30:24Z</time>
      </trkpt>
      <trkpt lat="44.14877" lon="1.7574">
        <ele>147.2</ele>
        <time>2016-08-27T12:30:25Z</time>
      </trkpt>
      <trkpt lat="44.14875" lon="1.75745">
        <ele>147.1</ele>
        <time>2016-08-27T12:30:26Z</time>
      </trkpt>
      <trkpt lat="44.14872" lon="1.75749">
        <ele>147.7</ele>
        <time>2016-08-27T12:30:27Z</time>
      </trkpt>
      <trkpt lat="44.14871" lon="1.75753">
        <ele>147.9</ele>
        <time>2016-08-27T12:30:28Z</time>
      </trkpt>
      <trkpt lat="44.14869" lon="1.75759">
        <ele>148.1</ele>
        <time>2016-08-27T12:30:29Z</time>
      </trkpt>
      <trkpt lat="44.14867" lon="1.75764">
        <ele>148.3</ele>
        <time>2016-08-27T12:30:30Z</time>
      </trkpt>
      <trkpt lat="44.14865" lon="1.75768">
        <ele>148.7</ele>
        <time>2016-08-27T12:30:31Z</time>
      </trkpt>
      <trkpt lat="44.14862" lon="1.75772">
        <ele>149.2</ele>
        <time>2016-08-27T12:30:32Z</time>
      </trkpt>
      <trkpt lat="44.1486" lon="1.75776">
        <ele>149.6</ele>
        <time>2016-08-27T12:30:33Z</time>
      </trkpt>
      <trkpt lat="44.14858" lon="1.7578">
        <ele>150.1</ele>
        <time>2016-08-27T12:30:34Z</time>
      </trkpt>
      <trkpt lat="44.14856" lon="1.75784">
        <ele>150.5</ele>
        <time>2016-08-27T12:30:35Z</time>
      </trkpt>
      <trkpt lat="44.14854" lon="1.75788">
        <ele>151</ele>
        <time>2016-08-27T12:30:36Z</time>
      </trkpt>
      <trkpt lat="44.14852" lon="1.75791">
        <ele>151.6</ele>
        <time>2016-08-27T12:30:37Z</time>
      </trkpt>
      <trkpt lat="44.1485" lon="1.75795">
        <ele>152</ele>
        <time>2016-08-27T12:30:38Z</time>
      </trkpt>
      <trkpt lat="44.14847" lon="1.75799">
        <ele>152.3</ele>
        <time>2016-08-27T12:30:39Z</time>
      </trkpt>
      <trkpt lat="44.14846" lon="1.75803">
        <ele>152.3</ele>
        <time>2016-08-27T12:30:40Z</time>
      </trkpt>
      <trkpt lat="44.14845" lon="1.75807">
        <ele>152.2</ele>
        <time>2016-08-27T12:30:41Z</time>
      </trkpt>
      <trkpt lat="44.14844" lon="1.75812">
        <ele>152.1</ele>
        <time>2016-08-27T12:30:42Z</time>
      </trkpt>
      <trkpt lat="44.14842" lon="1.75816">
        <ele>152.1</ele>
        <time>2016-08-27T12:30:43Z</time>
      </trkpt>
      <trkpt lat="44.1484" lon="1.75821">
        <ele>152.1</ele>
        <time>2016-08-27T12:30:44Z</time>
      </trkpt>
      <trkpt lat="44.14838" lon="1.75825">
        <ele>152.4</ele>
        <time>2016-08-27T12:30:45Z</time>
      </trkpt>
      <trkpt lat="44.14836" lon="1.75829">
        <ele>152.6</ele>
        <time>2016-08-27T12:30:46Z</time>
      </trkpt>
      <trkpt lat="44.14833" lon="1.75834">
        <ele>152.9</ele>
        <time>2016-08-27T12:30:47Z</time>
      </trkpt>
      <trkpt lat="44.14831" lon="1.75839">
        <ele>153.1</ele>
        <time>2016-08-27T12:30:48Z</time>
      </trkpt>
      <trkpt lat="44.14828" lon="1.75845">
        <ele>153.2</ele>
        <time>2016-08-27T12:30:49Z</time>
      </trkpt>
      <trkpt lat="44.14826" lon="1.7585">
        <ele>153.3</ele>
        <time>2016-08-27T12:30:50Z</time>
      </trkpt>
      <trkpt lat="44.14823" lon="1.75855">
        <ele>153.6</ele>
        <time>2016-08-27T12:30:51Z</time>
      </trkpt>
      <trkpt lat="44.1482" lon="1.7586">
        <ele>153.8</ele>
        <time>2016-08-27T12:30:52Z</time>
      </trkpt>
      <trkpt lat="44.14817" lon="1.75864">
        <ele>154.1</ele>
        <time>2016-08-27T12:30:53Z</time>
      </trkpt>
      <trkpt lat="44.14815" lon="1.75869">
        <ele>154.3</ele>
        <time>2016-08-27T12:30:54Z</time>
      </trkpt>
      <trkpt lat="44.14812" lon="1.75873">
        <ele>154.5</ele>
        <time>2016-08-27T12:30:55Z</time>
      </trkpt>
      <trkpt lat="44.1481" lon="1.75878">
        <ele>154.6</ele>
        <time>2016-08-27T12:30:56Z</time>
      </trkpt>
      <trkpt lat="44.14807" lon="1.75883">
        <ele>154.7</ele>
        <time>2016-08-27T12:30:57Z</time>
      </trkpt>
      <trkpt lat="44.14805" lon="1.75888">
        <ele>154.9</ele>
        <time>2016-08-27T12:30:58Z</time>
      </trkpt>
      <trkpt lat="44.14803" lon="1.75892">
        <ele>155.1</ele>
        <time>2016-08-27T12:30:59Z</time>
      </trkpt>
      <trkpt lat="44.148" lon="1.75896">
        <ele>155.5</ele>
        <time>2016-08-27T12:31:00Z</time>
      </trkpt>
      <trkpt lat="44.14797" lon="1.759">
        <ele>155.8</ele>
        <time>2016-08-27T12:31:01Z</time>
      </trkpt>
      <trkpt lat="44.14795" lon="1.75905">
        <ele>156</ele>
        <time>2016-08-27T12:31:02Z</time>
      </trkpt>
      <trkpt lat="44.14793" lon="1.7591">
        <ele>156</ele>
        <time>2016-08-27T12:31:03Z</time>
      </trkpt>
      <trkpt lat="44.14791" lon="1.75915">
        <ele>155.9</ele>
        <time>2016-08-27T12:31:04Z</time>
      </trkpt>
      <trkpt lat="44.1479" lon="1.75921">
        <ele>155.9</ele>
        <time>2016-08-27T12:31:05Z</time>
      </trkpt>
      <trkpt lat="44.14789" lon="1.75927">
        <ele>155.5</ele>
        <time>2016-08-27T12:31:06Z</time>
      </trkpt>
      <trkpt lat="44.14789" lon="1.75933">
        <ele>154.9</ele>
        <time>2016-08-27T12:31:07Z</time>
      </trkpt>
      <trkpt lat="44.14789" lon="1.75938">
        <ele>154.1</ele>
        <time>2016-08-27T12:31:08Z</time>
      </trkpt>
      <trkpt lat="44.14789" lon="1.75944">
        <ele>153.5</ele>
        <time>2016-08-27T12:31:09Z</time>
      </trkpt>
      <trkpt lat="44.14789" lon="1.7595">
        <ele>152.8</ele>
        <time>2016-08-27T12:31:10Z</time>
      </trkpt>
      <trkpt lat="44.14788" lon="1.75956">
        <ele>152.1</ele>
        <time>2016-08-27T12:31:11Z</time>
      </trkpt>
      <trkpt lat="44.14789" lon="1.75962">
        <ele>151.4</ele>
        <time>2016-08-27T12:31:12Z</time>
      </trkpt>
      <trkpt lat="44.14789" lon="1.75967">
        <ele>150.9</ele>
        <time>2016-08-27T12:31:13Z</time>
      </trkpt>
      <trkpt lat="44.14789" lon="1.75973">
        <ele>150.5</ele>
        <time>2016-08-27T12:31:14Z</time>
      </trkpt>
      <trkpt lat="44.14788" lon="1.75979">
        <ele>150.1</ele>
        <time>2016-08-27T12:31:15Z</time>
      </trkpt>
      <trkpt lat="44.14788" lon="1.75983">
        <ele>149.9</ele>
        <time>2016-08-27T12:31:16Z</time>
      </trkpt>
      <trkpt lat="44.14788" lon="1.75987">
        <ele>149.7</ele>
        <time>2016-08-27T12:31:17Z</time>
      </trkpt>
      <trkpt lat="44.14788" lon="1.75991">
        <ele>149.4</ele>
        <time>2016-08-27T12:31:18Z</time>
      </trkpt>
      <trkpt lat="44.14788" lon="1.75995">
        <ele>149.2</ele>
        <time>2016-08-27T12:31:19Z</time>
      </trkpt>
      <trkpt lat="44.14787" lon="1.76">
        <ele>149.1</ele>
        <time>2016-08-27T12:31:21Z</time>
      </trkpt>
      <trkpt lat="44.14786" lon="1.76005">
        <ele>148.9</ele>
        <time>2016-08-27T12:31:23Z</time>
      </trkpt>
      <trkpt lat="44.14787" lon="1.76012">
        <ele>147.9</ele>
        <time>2016-08-27T12:31:25Z</time>
      </trkpt>
      <trkpt lat="44.14786" lon="1.76019">
        <ele>147.9</ele>
        <time>2016-08-27T12:31:27Z</time>
      </trkpt>
      <trkpt lat="44.14785" lon="1.76026">
        <ele>148.1</ele>
        <time>2016-08-27T12:31:29Z</time>
      </trkpt>
      <trkpt lat="44.14783" lon="1.76033">
        <ele>148.2</ele>
        <time>2016-08-27T12:31:31Z</time>
      </trkpt>
      <trkpt lat="44.14783" lon="1.76036">
        <ele>148.3</ele>
        <time>2016-08-27T12:31:32Z</time>
      </trkpt>
      <trkpt lat="44.14782" lon="1.76041">
        <ele>148.3</ele>
        <time>2016-08-27T12:31:33Z</time>
      </trkpt>
      <trkpt lat="44.14781" lon="1.76048">
        <ele>148.4</ele>
        <time>2016-08-27T12:31:35Z</time>
      </trkpt>
      <trkpt lat="44.14779" lon="1.76053">
        <ele>148.7</ele>
        <time>2016-08-27T12:31:36Z</time>
      </trkpt>
      <trkpt lat="44.14778" lon="1.76057">
        <ele>148.9</ele>
        <time>2016-08-27T12:31:37Z</time>
      </trkpt>
      <trkpt lat="44.14777" lon="1.76062">
        <ele>149.1</ele>
        <time>2016-08-27T12:31:38Z</time>
      </trkpt>
      <trkpt lat="44.14777" lon="1.76067">
        <ele>149</ele>
        <time>2016-08-27T12:31:39Z</time>
      </trkpt>
      <trkpt lat="44.14775" lon="1.76074">
        <ele>149.1</ele>
        <time>2016-08-27T12:31:40Z</time>
      </trkpt>
      <trkpt lat="44.14774" lon="1.7608">
        <ele>149</ele>
        <time>2016-08-27T12:31:41Z</time>
      </trkpt>
      <trkpt lat="44.14773" lon="1.76086">
        <ele>149.1</ele>
        <time>2016-08-27T12:31:42Z</time>
      </trkpt>
      <trkpt lat="44.14773" lon="1.7609">
        <ele>149.1</ele>
        <time>2016-08-27T12:31:43Z</time>
      </trkpt>
      <trkpt lat="44.14772" lon="1.76094">
        <ele>149</ele>
        <time>2016-08-27T12:31:44Z</time>
      </trkpt>
      <trkpt lat="44.14771" lon="1.76099">
        <ele>149</ele>
        <time>2016-08-27T12:31:46Z</time>
      </trkpt>
      <trkpt lat="44.14771" lon="1.76104">
        <ele>148.8</ele>
        <time>2016-08-27T12:31:48Z</time>
      </trkpt>
      <trkpt lat="44.14769" lon="1.76107">
        <ele>149.3</ele>
        <time>2016-08-27T12:31:51Z</time>
      </trkpt>
      <trkpt lat="44.14771" lon="1.7611">
        <ele>148.3</ele>
        <time>2016-08-27T12:32:11Z</time>
      </trkpt>
      <trkpt lat="44.1477" lon="1.76114">
        <ele>148.5</ele>
        <time>2016-08-27T12:32:20Z</time>
      </trkpt>
      <trkpt lat="44.14771" lon="1.76111">
        <ele>148.1</ele>
        <time>2016-08-27T12:32:25Z</time>
      </trkpt>
      <trkpt lat="44.14769" lon="1.76108">
        <ele>149.1</ele>
        <time>2016-08-27T12:32:41Z</time>
      </trkpt>
      <trkpt lat="44.14769" lon="1.76111">
        <ele>148.8</ele>
        <time>2016-08-27T12:32:50Z</time>
      </trkpt>
      <trkpt lat="44.1477" lon="1.76105">
        <ele>149.2</ele>
        <time>2016-08-27T12:38:04Z</time>
      </trkpt>
      <trkpt lat="44.14771" lon="1.76101">
        <ele>149.1</ele>
        <time>2016-08-27T12:38:05Z</time>
      </trkpt>
      <trkpt lat="44.14769" lon="1.76104">
        <ele>149.8</ele>
        <time>2016-08-27T12:38:10Z</time>
      </trkpt>
      <trkpt lat="44.14766" lon="1.76109">
        <ele>150.4</ele>
        <time>2016-08-27T12:38:14Z</time>
      </trkpt>
      <trkpt lat="44.14764" lon="1.76113">
        <ele>150.8</ele>
        <time>2016-08-27T12:38:17Z</time>
      </trkpt>
      <trkpt lat="44.14774" lon="1.76107">
        <ele>147.2</ele>
        <time>2016-08-27T12:39:02Z</time>
      </trkpt>
      <trkpt lat="44.14774" lon="1.76101">
        <ele>147.4</ele>
        <time>2016-08-27T12:39:04Z</time>
      </trkpt>
      <trkpt lat="44.14775" lon="1.76095">
        <ele>147.4</ele>
        <time>2016-08-27T12:39:06Z</time>
      </trkpt>
      <trkpt lat="44.14776" lon="1.76089">
        <ele>147.7</ele>
        <time>2016-08-27T12:39:08Z</time>
      </trkpt>
      <trkpt lat="44.14776" lon="1.76082">
        <ele>148.3</ele>
        <time>2016-08-27T12:39:10Z</time>
      </trkpt>
      <trkpt lat="44.14775" lon="1.76075">
        <ele>149.1</ele>
        <time>2016-08-27T12:39:12Z</time>
      </trkpt>
      <trkpt lat="44.14775" lon="1.76068">
        <ele>149.8</ele>
        <time>2016-08-27T12:39:14Z</time>
      </trkpt>
      <trkpt lat="44.14775" lon="1.76061">
        <ele>150.2</ele>
        <time>2016-08-27T12:39:16Z</time>
      </trkpt>
      <trkpt lat="44.14775" lon="1.76054">
        <ele>150.7</ele>
        <time>2016-08-27T12:39:18Z</time>
      </trkpt>
      <trkpt lat="44.14776" lon="1.76045">
        <ele>151</ele>
        <time>2016-08-27T12:39:20Z</time>
      </trkpt>
      <trkpt lat="44.14776" lon="1.76041">
        <ele>151.3</ele>
        <time>2016-08-27T12:39:21Z</time>
      </trkpt>
      <trkpt lat="44.14776" lon="1.76037">
        <ele>151.6</ele>
        <time>2016-08-27T12:39:22Z</time>
      </trkpt>
      <trkpt lat="44.14776" lon="1.76033">
        <ele>151.9</ele>
        <time>2016-08-27T12:39:23Z</time>
      </trkpt>
      <trkpt lat="44.14777" lon="1.76025">
        <ele>152.2</ele>
        <time>2016-08-27T12:39:25Z</time>
      </trkpt>
      <trkpt lat="44.14777" lon="1.76021">
        <ele>152.4</ele>
        <time>2016-08-27T12:39:26Z</time>
      </trkpt>
      <trkpt lat="44.14778" lon="1.76017">
        <ele>152.6</ele>
        <time>2016-08-27T12:39:27Z</time>
      </trkpt>
      <trkpt lat="44.14778" lon="1.76011">
        <ele>153.1</ele>
        <time>2016-08-27T12:39:29Z</time>
      </trkpt>
      <trkpt lat="44.14778" lon="1.76004">
        <ele>153.5</ele>
        <time>2016-08-27T12:39:31Z</time>
      </trkpt>
      <trkpt lat="44.14778" lon="1.76">
        <ele>153.8</ele>
        <time>2016-08-27T12:39:32Z</time>
      </trkpt>
      <trkpt lat="44.14778" lon="1.75996">
        <ele>154.2</ele>
        <time>2016-08-27T12:39:33Z</time>
      </trkpt>
      <trkpt lat="44.14778" lon="1.75992">
        <ele>154.6</ele>
        <time>2016-08-27T12:39:34Z</time>
      </trkpt>
      <trkpt lat="44.14778" lon="1.75988">
        <ele>154.8</ele>
        <time>2016-08-27T12:39:35Z</time>
      </trkpt>
      <trkpt lat="44.14778" lon="1.75984">
        <ele>155.1</ele>
        <time>2016-08-27T12:39:36Z</time>
      </trkpt>
      <trkpt lat="44.14779" lon="1.7598">
        <ele>155.2</ele>
        <time>2016-08-27T12:39:37Z</time>
      </trkpt>
      <trkpt lat="44.14779" lon="1.75976">
        <ele>155.4</ele>
        <time>2016-08-27T12:39:38Z</time>
      </trkpt>
      <trkpt lat="44.1478" lon="1.75969">
        <ele>155.6</ele>
        <time>2016-08-27T12:39:40Z</time>
      </trkpt>
      <trkpt lat="44.1478" lon="1.75962">
        <ele>155.9</ele>
        <time>2016-08-27T12:39:42Z</time>
      </trkpt>
      <trkpt lat="44.1478" lon="1.75955">
        <ele>156.7</ele>
        <time>2016-08-27T12:39:44Z</time>
      </trkpt>
      <trkpt lat="44.14781" lon="1.75948">
        <ele>157</ele>
        <time>2016-08-27T12:39:46Z</time>
      </trkpt>
      <trkpt lat="44.14783" lon="1.75941">
        <ele>157.2</ele>
        <time>2016-08-27T12:39:48Z</time>
      </trkpt>
      <trkpt lat="44.14783" lon="1.75937">
        <ele>157.5</ele>
        <time>2016-08-27T12:39:49Z</time>
      </trkpt>
      <trkpt lat="44.14784" lon="1.75932">
        <ele>157.8</ele>
        <time>2016-08-27T12:39:50Z</time>
      </trkpt>
      <trkpt lat="44.14785" lon="1.75928">
        <ele>158</ele>
        <time>2016-08-27T12:39:51Z</time>
      </trkpt>
      <trkpt lat="44.14786" lon="1.75923">
        <ele>158</ele>
        <time>2016-08-27T12:39:52Z</time>
      </trkpt>
      <trkpt lat="44.14787" lon="1.75919">
        <ele>157.8</ele>
        <time>2016-08-27T12:39:53Z</time>
      </trkpt>
      <trkpt lat="44.14789" lon="1.75914">
        <ele>157.7</ele>
        <time>2016-08-27T12:39:54Z</time>
      </trkpt>
      <trkpt lat="44.14791" lon="1.75909">
        <ele>157.1</ele>
        <time>2016-08-27T12:39:55Z</time>
      </trkpt>
      <trkpt lat="44.14793" lon="1.75904">
        <ele>156.8</ele>
        <time>2016-08-27T12:39:56Z</time>
      </trkpt>
      <trkpt lat="44.14795" lon="1.75899">
        <ele>156.7</ele>
        <time>2016-08-27T12:39:57Z</time>
      </trkpt>
      <trkpt lat="44.14798" lon="1.75894">
        <ele>156.5</ele>
        <time>2016-08-27T12:39:58Z</time>
      </trkpt>
      <trkpt lat="44.148" lon="1.75889">
        <ele>156.3</ele>
        <time>2016-08-27T12:39:59Z</time>
      </trkpt>
      <trkpt lat="44.14803" lon="1.75884">
        <ele>156.1</ele>
        <time>2016-08-27T12:40:00Z</time>
      </trkpt>
      <trkpt lat="44.14806" lon="1.75879">
        <ele>155.9</ele>
        <time>2016-08-27T12:40:01Z</time>
      </trkpt>
      <trkpt lat="44.14808" lon="1.75873">
        <ele>155.7</ele>
        <time>2016-08-27T12:40:02Z</time>
      </trkpt>
      <trkpt lat="44.14811" lon="1.75868">
        <ele>155.7</ele>
        <time>2016-08-27T12:40:03Z</time>
      </trkpt>
      <trkpt lat="44.14815" lon="1.75856">
        <ele>156.1</ele>
        <time>2016-08-27T12:40:04Z</time>
      </trkpt>
      <trkpt lat="44.14818" lon="1.7585">
        <ele>156.1</ele>
        <time>2016-08-27T12:40:05Z</time>
      </trkpt>
      <trkpt lat="44.14822" lon="1.75844">
        <ele>155.7</ele>
        <time>2016-08-27T12:40:06Z</time>
      </trkpt>
      <trkpt lat="44.14824" lon="1.75837">
        <ele>155.8</ele>
        <time>2016-08-27T12:40:07Z</time>
      </trkpt>
      <trkpt lat="44.14827" lon="1.75831">
        <ele>155.7</ele>
        <time>2016-08-27T12:40:08Z</time>
      </trkpt>
      <trkpt lat="44.1483" lon="1.75823">
        <ele>155.7</ele>
        <time>2016-08-27T12:40:09Z</time>
      </trkpt>
      <trkpt lat="44.14834" lon="1.75817">
        <ele>155.1</ele>
        <time>2016-08-27T12:40:10Z</time>
      </trkpt>
      <trkpt lat="44.14836" lon="1.75811">
        <ele>155.1</ele>
        <time>2016-08-27T12:40:11Z</time>
      </trkpt>
      <trkpt lat="44.1484" lon="1.75806">
        <ele>154.4</ele>
        <time>2016-08-27T12:40:12Z</time>
      </trkpt>
      <trkpt lat="44.14843" lon="1.758">
        <ele>153.9</ele>
        <time>2016-08-27T12:40:13Z</time>
      </trkpt>
      <trkpt lat="44.14846" lon="1.75793">
        <ele>153.5</ele>
        <time>2016-08-27T12:40:14Z</time>
      </trkpt>
      <trkpt lat="44.14851" lon="1.75786">
        <ele>152.5</ele>
        <time>2016-08-27T12:40:15Z</time>
      </trkpt>
      <trkpt lat="44.14855" lon="1.75782">
        <ele>151.1</ele>
        <time>2016-08-27T12:40:16Z</time>
      </trkpt>
      <trkpt lat="44.14855" lon="1.75771">
        <ele>152.3</ele>
        <time>2016-08-27T12:40:18Z</time>
      </trkpt>
      <trkpt lat="44.14858" lon="1.75765">
        <ele>151.8</ele>
        <time>2016-08-27T12:40:19Z</time>
      </trkpt>
      <trkpt lat="44.14861" lon="1.75761">
        <ele>150.8</ele>
        <time>2016-08-27T12:40:20Z</time>
      </trkpt>
      <trkpt lat="44.14862" lon="1.75756">
        <ele>151</ele>
        <time>2016-08-27T12:40:21Z</time>
      </trkpt>
      <trkpt lat="44.14866" lon="1.75751">
        <ele>150</ele>
        <time>2016-08-27T12:40:22Z</time>
      </trkpt>
      <trkpt lat="44.14869" lon="1.75746">
        <ele>149.4</ele>
        <time>2016-08-27T12:40:23Z</time>
      </trkpt>
      <trkpt lat="44.14872" lon="1.7574">
        <ele>148.9</ele>
        <time>2016-08-27T12:40:24Z</time>
      </trkpt>
      <trkpt lat="44.14873" lon="1.75734">
        <ele>149.1</ele>
        <time>2016-08-27T12:40:25Z</time>
      </trkpt>
      <trkpt lat="44.14875" lon="1.75729">
        <ele>149</ele>
        <time>2016-08-27T12:40:26Z</time>
      </trkpt>
      <trkpt lat="44.14878" lon="1.75724">
        <ele>148.6</ele>
        <time>2016-08-27T12:40:27Z</time>
      </trkpt>
      <trkpt lat="44.1488" lon="1.75718">
        <ele>148.7</ele>
        <time>2016-08-27T12:40:28Z</time>
      </trkpt>
      <trkpt lat="44.14882" lon="1.75714">
        <ele>148.9</ele>
        <time>2016-08-27T12:40:29Z</time>
      </trkpt>
      <trkpt lat="44.14885" lon="1.7571">
        <ele>148.5</ele>
        <time>2016-08-27T12:40:30Z</time>
      </trkpt>
      <trkpt lat="44.14888" lon="1.75706">
        <ele>148.5</ele>
        <time>2016-08-27T12:40:31Z</time>
      </trkpt>
      <trkpt lat="44.14889" lon="1.75701">
        <ele>148.9</ele>
        <time>2016-08-27T12:40:32Z</time>
      </trkpt>
      <trkpt lat="44.14891" lon="1.75695">
        <ele>149.5</ele>
        <time>2016-08-27T12:40:33Z</time>
      </trkpt>
      <trkpt lat="44.14892" lon="1.75691">
        <ele>149.9</ele>
        <time>2016-08-27T12:40:34Z</time>
      </trkpt>
      <trkpt lat="44.14894" lon="1.75686">
        <ele>150.3</ele>
        <time>2016-08-27T12:40:35Z</time>
      </trkpt>
      <trkpt lat="44.14895" lon="1.75682">
        <ele>150.5</ele>
        <time>2016-08-27T12:40:36Z</time>
      </trkpt>
      <trkpt lat="44.14897" lon="1.75678">
        <ele>150.5</ele>
        <time>2016-08-27T12:40:37Z</time>
      </trkpt>
      <trkpt lat="44.14899" lon="1.75674">
        <ele>150.5</ele>
        <time>2016-08-27T12:40:38Z</time>
      </trkpt>
      <trkpt lat="44.14902" lon="1.75669">
        <ele>150.5</ele>
        <time>2016-08-27T12:40:39Z</time>
      </trkpt>
      <trkpt lat="44.14904" lon="1.75665">
        <ele>150.5</ele>
        <time>2016-08-27T12:40:40Z</time>
      </trkpt>
      <trkpt lat="44.14906" lon="1.7566">
        <ele>150.5</ele>
        <time>2016-08-27T12:40:41Z</time>
      </trkpt>
      <trkpt lat="44.14908" lon="1.75656">
        <ele>150.5</ele>
        <time>2016-08-27T12:40:42Z</time>
      </trkpt>
      <trkpt lat="44.1491" lon="1.75651">
        <ele>150.5</ele>
        <time>2016-08-27T12:40:43Z</time>
      </trkpt>
      <trkpt lat="44.14912" lon="1.75646">
        <ele>150.4</ele>
        <time>2016-08-27T12:40:44Z</time>
      </trkpt>
      <trkpt lat="44.14915" lon="1.75641">
        <ele>150.3</ele>
        <time>2016-08-27T12:40:45Z</time>
      </trkpt>
      <trkpt lat="44.14917" lon="1.75636">
        <ele>150.1</ele>
        <time>2016-08-27T12:40:46Z</time>
      </trkpt>
      <trkpt lat="44.14919" lon="1.75631">
        <ele>149.9</ele>
        <time>2016-08-27T12:40:47Z</time>
      </trkpt>
      <trkpt lat="44.14922" lon="1.75626">
        <ele>149.6</ele>
        <time>2016-08-27T12:40:48Z</time>
      </trkpt>
      <trkpt lat="44.14924" lon="1.75622">
        <ele>149.3</ele>
        <time>2016-08-27T12:40:49Z</time>
      </trkpt>
      <trkpt lat="44.14926" lon="1.75618">
        <ele>149.1</ele>
        <time>2016-08-27T12:40:50Z</time>
      </trkpt>
      <trkpt lat="44.14928" lon="1.75614">
        <ele>148.9</ele>
        <time>2016-08-27T12:40:51Z</time>
      </trkpt>
      <trkpt lat="44.14929" lon="1.7561">
        <ele>148.7</ele>
        <time>2016-08-27T12:40:52Z</time>
      </trkpt>
      <trkpt lat="44.14931" lon="1.75606">
        <ele>148.5</ele>
        <time>2016-08-27T12:40:53Z</time>
      </trkpt>
      <trkpt lat="44.14933" lon="1.75601">
        <ele>148.3</ele>
        <time>2016-08-27T12:40:54Z</time>
      </trkpt>
      <trkpt lat="44.14934" lon="1.75597">
        <ele>148.1</ele>
        <time>2016-08-27T12:40:55Z</time>
      </trkpt>
      <trkpt lat="44.14936" lon="1.75593">
        <ele>147.8</ele>
        <time>2016-08-27T12:40:56Z</time>
      </trkpt>
      <trkpt lat="44.14938" lon="1.75589">
        <ele>147.5</ele>
        <time>2016-08-27T12:40:57Z</time>
      </trkpt>
      <trkpt lat="44.14939" lon="1.75585">
        <ele>147.3</ele>
        <time>2016-08-27T12:40:58Z</time>
      </trkpt>
      <trkpt lat="44.14941" lon="1.75581">
        <ele>147.1</ele>
        <time>2016-08-27T12:40:59Z</time>
      </trkpt>
      <trkpt lat="44.14942" lon="1.75574">
        <ele>147.2</ele>
        <time>2016-08-27T12:41:01Z</time>
      </trkpt>
      <trkpt lat="44.14943" lon="1.75567">
        <ele>147.3</ele>
        <time>2016-08-27T12:41:03Z</time>
      </trkpt>
      <trkpt lat="44.14944" lon="1.75564">
        <ele>147.3</ele>
        <time>2016-08-27T12:41:04Z</time>
      </trkpt>
      <trkpt lat="44.14944" lon="1.7556">
        <ele>147.5</ele>
        <time>2016-08-27T12:41:05Z</time>
      </trkpt>
      <trkpt lat="44.14945" lon="1.75556">
        <ele>147.6</ele>
        <time>2016-08-27T12:41:06Z</time>
      </trkpt>
      <trkpt lat="44.14945" lon="1.75552">
        <ele>147.8</ele>
        <time>2016-08-27T12:41:07Z</time>
      </trkpt>
      <trkpt lat="44.14945" lon="1.75545">
        <ele>148.3</ele>
        <time>2016-08-27T12:41:09Z</time>
      </trkpt>
      <trkpt lat="44.14946" lon="1.75538">
        <ele>148.8</ele>
        <time>2016-08-27T12:41:11Z</time>
      </trkpt>
      <trkpt lat="44.14946" lon="1.75534">
        <ele>148.7</ele>
        <time>2016-08-27T12:41:12Z</time>
      </trkpt>
      <trkpt lat="44.14947" lon="1.7553">
        <ele>148.6</ele>
        <time>2016-08-27T12:41:13Z</time>
      </trkpt>
      <trkpt lat="44.14949" lon="1.75525">
        <ele>148.2</ele>
        <time>2016-08-27T12:41:14Z</time>
      </trkpt>
      <trkpt lat="44.1495" lon="1.75521">
        <ele>147.9</ele>
        <time>2016-08-27T12:41:15Z</time>
      </trkpt>
      <trkpt lat="44.14951" lon="1.75517">
        <ele>147.7</ele>
        <time>2016-08-27T12:41:16Z</time>
      </trkpt>
      <trkpt lat="44.14952" lon="1.75514">
        <ele>147.6</ele>
        <time>2016-08-27T12:41:21Z</time>
      </trkpt>
      <trkpt lat="44.14952" lon="1.75509">
        <ele>147.9</ele>
        <time>2016-08-27T12:41:26Z</time>
      </trkpt>
      <trkpt lat="44.14952" lon="1.75504">
        <ele>148</ele>
        <time>2016-08-27T12:41:29Z</time>
      </trkpt>
      <trkpt lat="44.14953" lon="1.755">
        <ele>148.1</ele>
        <time>2016-08-27T12:41:31Z</time>
      </trkpt>
      <trkpt lat="44.14953" lon="1.75494">
        <ele>148.6</ele>
        <time>2016-08-27T12:41:33Z</time>
      </trkpt>
      <trkpt lat="44.14952" lon="1.75488">
        <ele>149</ele>
        <time>2016-08-27T12:41:35Z</time>
      </trkpt>
      <trkpt lat="44.14952" lon="1.75484">
        <ele>149.3</ele>
        <time>2016-08-27T12:41:37Z</time>
      </trkpt>
      <trkpt lat="44.14954" lon="1.75478">
        <ele>148.8</ele>
        <time>2016-08-27T12:41:39Z</time>
      </trkpt>
      <trkpt lat="44.14956" lon="1.75473">
        <ele>148.4</ele>
        <time>2016-08-27T12:41:40Z</time>
      </trkpt>
      <trkpt lat="44.14958" lon="1.75467">
        <ele>147.8</ele>
        <time>2016-08-27T12:41:41Z</time>
      </trkpt>
      <trkpt lat="44.14959" lon="1.75461">
        <ele>147.6</ele>
        <time>2016-08-27T12:41:42Z</time>
      </trkpt>
      <trkpt lat="44.1496" lon="1.75455">
        <ele>147.6</ele>
        <time>2016-08-27T12:41:43Z</time>
      </trkpt>
      <trkpt lat="44.14961" lon="1.7545">
        <ele>147.7</ele>
        <time>2016-08-27T12:41:44Z</time>
      </trkpt>
      <trkpt lat="44.14962" lon="1.75444">
        <ele>147.7</ele>
        <time>2016-08-27T12:41:45Z</time>
      </trkpt>
      <trkpt lat="44.14963" lon="1.75439">
        <ele>147.7</ele>
        <time>2016-08-27T12:41:46Z</time>
      </trkpt>
      <trkpt lat="44.14964" lon="1.75433">
        <ele>147.7</ele>
        <time>2016-08-27T12:41:47Z</time>
      </trkpt>
      <trkpt lat="44.14965" lon="1.75428">
        <ele>147.8</ele>
        <time>2016-08-27T12:41:48Z</time>
      </trkpt>
      <trkpt lat="44.14965" lon="1.75422">
        <ele>147.8</ele>
        <time>2016-08-27T12:41:49Z</time>
      </trkpt>
      <trkpt lat="44.14967" lon="1.75418">
        <ele>147.7</ele>
        <time>2016-08-27T12:41:50Z</time>
      </trkpt>
      <trkpt lat="44.14968" lon="1.75414">
        <ele>147.6</ele>
        <time>2016-08-27T12:41:51Z</time>
      </trkpt>
      <trkpt lat="44.1497" lon="1.75407">
        <ele>147.3</ele>
        <time>2016-08-27T12:41:53Z</time>
      </trkpt>
      <trkpt lat="44.1497" lon="1.75411">
        <ele>147.2</ele>
        <time>2016-08-27T12:42:01Z</time>
      </trkpt>
      <trkpt lat="44.14972" lon="1.75411">
        <ele>146.5</ele>
        <time>2016-08-27T12:42:12Z</time>
      </trkpt>
      <trkpt lat="44.14968" lon="1.75432">
        <ele>146.7</ele>
        <time>2016-08-27T12:48:15Z</time>
      </trkpt>
      <trkpt lat="44.14967" lon="1.75439">
        <ele>146.8</ele>
        <time>2016-08-27T12:48:17Z</time>
      </trkpt>
      <trkpt lat="44.14966" lon="1.75443">
        <ele>146.7</ele>
        <time>2016-08-27T12:48:18Z</time>
      </trkpt>
      <trkpt lat="44.14966" lon="1.75447">
        <ele>146.6</ele>
        <time>2016-08-27T12:48:19Z</time>
      </trkpt>
      <trkpt lat="44.14965" lon="1.75452">
        <ele>146.7</ele>
        <time>2016-08-27T12:48:20Z</time>
      </trkpt>
      <trkpt lat="44.14963" lon="1.75456">
        <ele>146.8</ele>
        <time>2016-08-27T12:48:21Z</time>
      </trkpt>
      <trkpt lat="44.14962" lon="1.7546">
        <ele>147</ele>
        <time>2016-08-27T12:48:22Z</time>
      </trkpt>
      <trkpt lat="44.1496" lon="1.75464">
        <ele>147.1</ele>
        <time>2016-08-27T12:48:23Z</time>
      </trkpt>
      <trkpt lat="44.14959" lon="1.75469">
        <ele>147.2</ele>
        <time>2016-08-27T12:48:24Z</time>
      </trkpt>
      <trkpt lat="44.14958" lon="1.75473">
        <ele>147.4</ele>
        <time>2016-08-27T12:48:25Z</time>
      </trkpt>
      <trkpt lat="44.14956" lon="1.75476">
        <ele>148</ele>
        <time>2016-08-27T12:48:26Z</time>
      </trkpt>
      <trkpt lat="44.14953" lon="1.75479">
        <ele>149.1</ele>
        <time>2016-08-27T12:48:28Z</time>
      </trkpt>
      <trkpt lat="44.14951" lon="1.7548">
        <ele>150.3</ele>
        <time>2016-08-27T12:48:30Z</time>
      </trkpt>
      <trkpt lat="44.14948" lon="1.75479">
        <ele>151.7</ele>
        <time>2016-08-27T12:48:32Z</time>
      </trkpt>
      <trkpt lat="44.14946" lon="1.75475">
        <ele>153</ele>
        <time>2016-08-27T12:48:34Z</time>
      </trkpt>
      <trkpt lat="44.14944" lon="1.75472">
        <ele>153.9</ele>
        <time>2016-08-27T12:48:35Z</time>
      </trkpt>
      <trkpt lat="44.14944" lon="1.75467">
        <ele>154.5</ele>
        <time>2016-08-27T12:48:36Z</time>
      </trkpt>
      <trkpt lat="44.14945" lon="1.75461">
        <ele>154.4</ele>
        <time>2016-08-27T12:48:37Z</time>
      </trkpt>
      <trkpt lat="44.14946" lon="1.75456">
        <ele>154.2</ele>
        <time>2016-08-27T12:48:38Z</time>
      </trkpt>
      <trkpt lat="44.14946" lon="1.75452">
        <ele>154.2</ele>
        <time>2016-08-27T12:48:39Z</time>
      </trkpt>
      <trkpt lat="44.14946" lon="1.75447">
        <ele>154.5</ele>
        <time>2016-08-27T12:48:40Z</time>
      </trkpt>
      <trkpt lat="44.14945" lon="1.75443">
        <ele>155.1</ele>
        <time>2016-08-27T12:48:41Z</time>
      </trkpt>
      <trkpt lat="44.14944" lon="1.75439">
        <ele>156</ele>
        <time>2016-08-27T12:48:43Z</time>
      </trkpt>
      <trkpt lat="44.14942" lon="1.75443">
        <ele>156.8</ele>
        <time>2016-08-27T12:48:51Z</time>
      </trkpt>
      <trkpt lat="44.14949" lon="1.75444">
        <ele>153.2</ele>
        <time>2016-08-27T12:50:14Z</time>
      </trkpt>
      <trkpt lat="44.1495" lon="1.75448">
        <ele>152.5</ele>
        <time>2016-08-27T12:50:16Z</time>
      </trkpt>
      <trkpt lat="44.14949" lon="1.75455">
        <ele>152.9</ele>
        <time>2016-08-27T12:50:18Z</time>
      </trkpt>
      <trkpt lat="44.14948" lon="1.75459">
        <ele>153</ele>
        <time>2016-08-27T12:50:19Z</time>
      </trkpt>
      <trkpt lat="44.14948" lon="1.75464">
        <ele>152.8</ele>
        <time>2016-08-27T12:50:20Z</time>
      </trkpt>
      <trkpt lat="44.14948" lon="1.75468">
        <ele>152.5</ele>
        <time>2016-08-27T12:50:21Z</time>
      </trkpt>
      <trkpt lat="44.14949" lon="1.75472">
        <ele>151.8</ele>
        <time>2016-08-27T12:50:22Z</time>
      </trkpt>
      <trkpt lat="44.1495" lon="1.75476">
        <ele>151</ele>
        <time>2016-08-27T12:50:23Z</time>
      </trkpt>
      <trkpt lat="44.14951" lon="1.75479">
        <ele>150.2</ele>
        <time>2016-08-27T12:50:24Z</time>
      </trkpt>
      <trkpt lat="44.14954" lon="1.75482">
        <ele>148.8</ele>
        <time>2016-08-27T12:50:26Z</time>
      </trkpt>
      <trkpt lat="44.14957" lon="1.7548">
        <ele>147.5</ele>
        <time>2016-08-27T12:50:28Z</time>
      </trkpt>
      <trkpt lat="44.14959" lon="1.75474">
        <ele>147</ele>
        <time>2016-08-27T12:50:30Z</time>
      </trkpt>
      <trkpt lat="44.14959" lon="1.7547">
        <ele>147.1</ele>
        <time>2016-08-27T12:50:31Z</time>
      </trkpt>
      <trkpt lat="44.14961" lon="1.75461">
        <ele>147.1</ele>
        <time>2016-08-27T12:50:32Z</time>
      </trkpt>
      <trkpt lat="44.14963" lon="1.75447">
        <ele>147.3</ele>
        <time>2016-08-27T12:50:33Z</time>
      </trkpt>
      <trkpt lat="44.14965" lon="1.75439">
        <ele>147.2</ele>
        <time>2016-08-27T12:50:34Z</time>
      </trkpt>
      <trkpt lat="44.14963" lon="1.75434">
        <ele>147.8</ele>
        <time>2016-08-27T12:50:35Z</time>
      </trkpt>
      <trkpt lat="44.14964" lon="1.7543">
        <ele>147.8</ele>
        <time>2016-08-27T12:50:36Z</time>
      </trkpt>
      <trkpt lat="44.14966" lon="1.75423">
        <ele>147.5</ele>
        <time>2016-08-27T12:50:38Z</time>
      </trkpt>
      <trkpt lat="44.14968" lon="1.75418">
        <ele>147.4</ele>
        <time>2016-08-27T12:50:40Z</time>
      </trkpt>
      <trkpt lat="44.1497" lon="1.75417">
        <ele>146.8</ele>
        <time>2016-08-27T12:50:42Z</time>
      </trkpt>
      <trkpt lat="44.14966" lon="1.75412">
        <ele>148.1</ele>
        <time>2016-08-27T13:00:53Z</time>
      </trkpt>
      <trkpt lat="44.14969" lon="1.75413">
        <ele>147.2</ele>
        <time>2016-08-27T13:00:57Z</time>
      </trkpt>
      <trkpt lat="44.14972" lon="1.75416">
        <ele>146.4</ele>
        <time>2016-08-27T13:01:01Z</time>
      </trkpt>
      <trkpt lat="44.14974" lon="1.75417">
        <ele>145.7</ele>
        <time>2016-08-27T13:01:12Z</time>
      </trkpt>
      <trkpt lat="44.14977" lon="1.75418">
        <ele>144.9</ele>
        <time>2016-08-27T13:01:14Z</time>
      </trkpt>
      <trkpt lat="44.14981" lon="1.75421">
        <ele>143.7</ele>
        <time>2016-08-27T13:01:16Z</time>
      </trkpt>
      <trkpt lat="44.14987" lon="1.75417">
        <ele>142.3</ele>
        <time>2016-08-27T13:01:22Z</time>
      </trkpt>
    </trkseg>
  </trk>
</gpx>